<?xml version="1.0" encoding="UTF-8" standalone="no" ?>
<gpx xmlns="http://www.topografix.com/GPX/1/1" xmlns:xsi="http://www.w3.org/2001/XMLSchema-instance" xsi:schemaLocation="http://www.topografix.com/GPX/1/1 http://www.topografix.com/GPX/1/1/gpx.xsd" version="1.1" creator="VisuGPX - https://www.visugpx.com">
  <metadata>
    <name>kewen2015</name>
  </metadata>
  <trk>
    <name><![CDATA[kewen2015]]></name>
    <trkseg>
      <trkpt lat="47.79144" lon="-3.41821">
        <ele>41.47</ele>
        <time>2015-09-06T05:43:13Z</time>
      </trkpt>
      <trkpt lat="47.79149" lon="-3.41807">
        <ele>41.47</ele>
        <time>2015-09-06T05:43:16Z</time>
      </trkpt>
      <trkpt lat="47.79157" lon="-3.41784">
        <ele>44.84</ele>
        <time>2015-09-06T05:43:20Z</time>
      </trkpt>
      <trkpt lat="47.79158" lon="-3.41777">
        <ele>43.4</ele>
        <time>2015-09-06T05:43:21Z</time>
      </trkpt>
      <trkpt lat="47.79159" lon="-3.41772">
        <ele>43.4</ele>
        <time>2015-09-06T05:43:22Z</time>
      </trkpt>
      <trkpt lat="47.79161" lon="-3.4176">
        <ele>42.44</ele>
        <time>2015-09-06T05:43:24Z</time>
      </trkpt>
      <trkpt lat="47.79162" lon="-3.41748">
        <ele>42.44</ele>
        <time>2015-09-06T05:43:26Z</time>
      </trkpt>
      <trkpt lat="47.79163" lon="-3.41745">
        <ele>42.44</ele>
        <time>2015-09-06T05:43:27Z</time>
      </trkpt>
      <trkpt lat="47.79164" lon="-3.4174">
        <ele>43.88</ele>
        <time>2015-09-06T05:43:28Z</time>
      </trkpt>
      <trkpt lat="47.7917" lon="-3.41726">
        <ele>44.36</ele>
        <time>2015-09-06T05:43:31Z</time>
      </trkpt>
      <trkpt lat="47.79174" lon="-3.41723">
        <ele>44.36</ele>
        <time>2015-09-06T05:43:32Z</time>
      </trkpt>
      <trkpt lat="47.79178" lon="-3.41722">
        <ele>44.36</ele>
        <time>2015-09-06T05:43:33Z</time>
      </trkpt>
      <trkpt lat="47.79182" lon="-3.41722">
        <ele>44.36</ele>
        <time>2015-09-06T05:43:34Z</time>
      </trkpt>
      <trkpt lat="47.79187" lon="-3.41723">
        <ele>44.36</ele>
        <time>2015-09-06T05:43:35Z</time>
      </trkpt>
      <trkpt lat="47.79191" lon="-3.41724">
        <ele>44.36</ele>
        <time>2015-09-06T05:43:36Z</time>
      </trkpt>
      <trkpt lat="47.79196" lon="-3.41725">
        <ele>44.36</ele>
        <time>2015-09-06T05:43:37Z</time>
      </trkpt>
      <trkpt lat="47.792" lon="-3.41726">
        <ele>44.36</ele>
        <time>2015-09-06T05:43:38Z</time>
      </trkpt>
      <trkpt lat="47.79205" lon="-3.41727">
        <ele>45.8</ele>
        <time>2015-09-06T05:43:39Z</time>
      </trkpt>
      <trkpt lat="47.7921" lon="-3.41728">
        <ele>44.84</ele>
        <time>2015-09-06T05:43:40Z</time>
      </trkpt>
      <trkpt lat="47.79214" lon="-3.41729">
        <ele>44.84</ele>
        <time>2015-09-06T05:43:41Z</time>
      </trkpt>
      <trkpt lat="47.79219" lon="-3.41729">
        <ele>44.84</ele>
        <time>2015-09-06T05:43:42Z</time>
      </trkpt>
      <trkpt lat="47.79223" lon="-3.4173">
        <ele>44.84</ele>
        <time>2015-09-06T05:43:43Z</time>
      </trkpt>
      <trkpt lat="47.79228" lon="-3.41731">
        <ele>44.84</ele>
        <time>2015-09-06T05:43:44Z</time>
      </trkpt>
      <trkpt lat="47.79232" lon="-3.41732">
        <ele>44.84</ele>
        <time>2015-09-06T05:43:45Z</time>
      </trkpt>
      <trkpt lat="47.79237" lon="-3.41733">
        <ele>44.84</ele>
        <time>2015-09-06T05:43:46Z</time>
      </trkpt>
      <trkpt lat="47.79241" lon="-3.41734">
        <ele>44.84</ele>
        <time>2015-09-06T05:43:47Z</time>
      </trkpt>
      <trkpt lat="47.79245" lon="-3.41735">
        <ele>44.84</ele>
        <time>2015-09-06T05:43:48Z</time>
      </trkpt>
      <trkpt lat="47.79249" lon="-3.41736">
        <ele>44.84</ele>
        <time>2015-09-06T05:43:49Z</time>
      </trkpt>
      <trkpt lat="47.79253" lon="-3.41737">
        <ele>44.84</ele>
        <time>2015-09-06T05:43:50Z</time>
      </trkpt>
      <trkpt lat="47.79257" lon="-3.41738">
        <ele>45.8</ele>
        <time>2015-09-06T05:43:51Z</time>
      </trkpt>
      <trkpt lat="47.79262" lon="-3.41739">
        <ele>45.8</ele>
        <time>2015-09-06T05:43:52Z</time>
      </trkpt>
      <trkpt lat="47.79265" lon="-3.4174">
        <ele>45.8</ele>
        <time>2015-09-06T05:43:53Z</time>
      </trkpt>
      <trkpt lat="47.79269" lon="-3.41741">
        <ele>45.8</ele>
        <time>2015-09-06T05:43:54Z</time>
      </trkpt>
      <trkpt lat="47.79274" lon="-3.41742">
        <ele>45.8</ele>
        <time>2015-09-06T05:43:55Z</time>
      </trkpt>
      <trkpt lat="47.79278" lon="-3.41742">
        <ele>46.28</ele>
        <time>2015-09-06T05:43:56Z</time>
      </trkpt>
      <trkpt lat="47.79281" lon="-3.41742">
        <ele>46.28</ele>
        <time>2015-09-06T05:43:57Z</time>
      </trkpt>
      <trkpt lat="47.79286" lon="-3.41742">
        <ele>46.28</ele>
        <time>2015-09-06T05:43:58Z</time>
      </trkpt>
      <trkpt lat="47.79289" lon="-3.41741">
        <ele>46.28</ele>
        <time>2015-09-06T05:43:59Z</time>
      </trkpt>
      <trkpt lat="47.79293" lon="-3.41741">
        <ele>46.76</ele>
        <time>2015-09-06T05:44:00Z</time>
      </trkpt>
      <trkpt lat="47.79297" lon="-3.4174">
        <ele>46.76</ele>
        <time>2015-09-06T05:44:01Z</time>
      </trkpt>
      <trkpt lat="47.793" lon="-3.41738">
        <ele>46.76</ele>
        <time>2015-09-06T05:44:02Z</time>
      </trkpt>
      <trkpt lat="47.79304" lon="-3.41737">
        <ele>46.76</ele>
        <time>2015-09-06T05:44:03Z</time>
      </trkpt>
      <trkpt lat="47.79307" lon="-3.41735">
        <ele>46.76</ele>
        <time>2015-09-06T05:44:04Z</time>
      </trkpt>
      <trkpt lat="47.7931" lon="-3.41733">
        <ele>46.76</ele>
        <time>2015-09-06T05:44:05Z</time>
      </trkpt>
      <trkpt lat="47.79314" lon="-3.41731">
        <ele>46.76</ele>
        <time>2015-09-06T05:44:06Z</time>
      </trkpt>
      <trkpt lat="47.79317" lon="-3.41729">
        <ele>46.76</ele>
        <time>2015-09-06T05:44:07Z</time>
      </trkpt>
      <trkpt lat="47.79321" lon="-3.41728">
        <ele>46.76</ele>
        <time>2015-09-06T05:44:08Z</time>
      </trkpt>
      <trkpt lat="47.79324" lon="-3.41726">
        <ele>47.24</ele>
        <time>2015-09-06T05:44:09Z</time>
      </trkpt>
      <trkpt lat="47.79328" lon="-3.41724">
        <ele>47.24</ele>
        <time>2015-09-06T05:44:10Z</time>
      </trkpt>
      <trkpt lat="47.79331" lon="-3.41722">
        <ele>47.24</ele>
        <time>2015-09-06T05:44:11Z</time>
      </trkpt>
      <trkpt lat="47.79334" lon="-3.4172">
        <ele>47.24</ele>
        <time>2015-09-06T05:44:12Z</time>
      </trkpt>
      <trkpt lat="47.79337" lon="-3.41717">
        <ele>47.24</ele>
        <time>2015-09-06T05:44:13Z</time>
      </trkpt>
      <trkpt lat="47.79339" lon="-3.41715">
        <ele>47.72</ele>
        <time>2015-09-06T05:44:14Z</time>
      </trkpt>
      <trkpt lat="47.79342" lon="-3.41713">
        <ele>47.72</ele>
        <time>2015-09-06T05:44:15Z</time>
      </trkpt>
      <trkpt lat="47.79345" lon="-3.41711">
        <ele>47.72</ele>
        <time>2015-09-06T05:44:16Z</time>
      </trkpt>
      <trkpt lat="47.79348" lon="-3.41708">
        <ele>47.72</ele>
        <time>2015-09-06T05:44:17Z</time>
      </trkpt>
      <trkpt lat="47.79352" lon="-3.41706">
        <ele>47.72</ele>
        <time>2015-09-06T05:44:18Z</time>
      </trkpt>
      <trkpt lat="47.79356" lon="-3.41704">
        <ele>47.72</ele>
        <time>2015-09-06T05:44:19Z</time>
      </trkpt>
      <trkpt lat="47.7936" lon="-3.41702">
        <ele>47.72</ele>
        <time>2015-09-06T05:44:20Z</time>
      </trkpt>
      <trkpt lat="47.79365" lon="-3.417">
        <ele>47.72</ele>
        <time>2015-09-06T05:44:21Z</time>
      </trkpt>
      <trkpt lat="47.79369" lon="-3.41698">
        <ele>47.72</ele>
        <time>2015-09-06T05:44:22Z</time>
      </trkpt>
      <trkpt lat="47.79374" lon="-3.41696">
        <ele>47.72</ele>
        <time>2015-09-06T05:44:23Z</time>
      </trkpt>
      <trkpt lat="47.79379" lon="-3.41694">
        <ele>47.72</ele>
        <time>2015-09-06T05:44:24Z</time>
      </trkpt>
      <trkpt lat="47.79383" lon="-3.41692">
        <ele>46.28</ele>
        <time>2015-09-06T05:44:25Z</time>
      </trkpt>
      <trkpt lat="47.79387" lon="-3.41689">
        <ele>46.28</ele>
        <time>2015-09-06T05:44:26Z</time>
      </trkpt>
      <trkpt lat="47.79392" lon="-3.41687">
        <ele>46.28</ele>
        <time>2015-09-06T05:44:27Z</time>
      </trkpt>
      <trkpt lat="47.79396" lon="-3.41685">
        <ele>46.28</ele>
        <time>2015-09-06T05:44:28Z</time>
      </trkpt>
      <trkpt lat="47.794" lon="-3.41683">
        <ele>46.28</ele>
        <time>2015-09-06T05:44:29Z</time>
      </trkpt>
      <trkpt lat="47.79404" lon="-3.41681">
        <ele>46.28</ele>
        <time>2015-09-06T05:44:30Z</time>
      </trkpt>
      <trkpt lat="47.79409" lon="-3.41679">
        <ele>46.28</ele>
        <time>2015-09-06T05:44:31Z</time>
      </trkpt>
      <trkpt lat="47.79413" lon="-3.41677">
        <ele>46.28</ele>
        <time>2015-09-06T05:44:32Z</time>
      </trkpt>
      <trkpt lat="47.79417" lon="-3.41675">
        <ele>46.28</ele>
        <time>2015-09-06T05:44:33Z</time>
      </trkpt>
      <trkpt lat="47.79422" lon="-3.41673">
        <ele>46.28</ele>
        <time>2015-09-06T05:44:34Z</time>
      </trkpt>
      <trkpt lat="47.79426" lon="-3.41671">
        <ele>46.28</ele>
        <time>2015-09-06T05:44:35Z</time>
      </trkpt>
      <trkpt lat="47.79429" lon="-3.4167">
        <ele>46.28</ele>
        <time>2015-09-06T05:44:36Z</time>
      </trkpt>
      <trkpt lat="47.79434" lon="-3.41668">
        <ele>46.28</ele>
        <time>2015-09-06T05:44:37Z</time>
      </trkpt>
      <trkpt lat="47.79437" lon="-3.41666">
        <ele>46.28</ele>
        <time>2015-09-06T05:44:38Z</time>
      </trkpt>
      <trkpt lat="47.79441" lon="-3.41664">
        <ele>46.28</ele>
        <time>2015-09-06T05:44:39Z</time>
      </trkpt>
      <trkpt lat="47.79445" lon="-3.41662">
        <ele>46.28</ele>
        <time>2015-09-06T05:44:40Z</time>
      </trkpt>
      <trkpt lat="47.7945" lon="-3.4166">
        <ele>46.28</ele>
        <time>2015-09-06T05:44:41Z</time>
      </trkpt>
      <trkpt lat="47.79454" lon="-3.41658">
        <ele>46.28</ele>
        <time>2015-09-06T05:44:42Z</time>
      </trkpt>
      <trkpt lat="47.79458" lon="-3.41656">
        <ele>46.28</ele>
        <time>2015-09-06T05:44:43Z</time>
      </trkpt>
      <trkpt lat="47.79462" lon="-3.41654">
        <ele>46.28</ele>
        <time>2015-09-06T05:44:44Z</time>
      </trkpt>
      <trkpt lat="47.79467" lon="-3.41652">
        <ele>46.28</ele>
        <time>2015-09-06T05:44:45Z</time>
      </trkpt>
      <trkpt lat="47.79471" lon="-3.4165">
        <ele>46.28</ele>
        <time>2015-09-06T05:44:46Z</time>
      </trkpt>
      <trkpt lat="47.79476" lon="-3.41648">
        <ele>46.28</ele>
        <time>2015-09-06T05:44:47Z</time>
      </trkpt>
      <trkpt lat="47.7948" lon="-3.41646">
        <ele>46.28</ele>
        <time>2015-09-06T05:44:48Z</time>
      </trkpt>
      <trkpt lat="47.79485" lon="-3.41644">
        <ele>46.28</ele>
        <time>2015-09-06T05:44:49Z</time>
      </trkpt>
      <trkpt lat="47.79489" lon="-3.41641">
        <ele>46.28</ele>
        <time>2015-09-06T05:44:50Z</time>
      </trkpt>
      <trkpt lat="47.79493" lon="-3.41639">
        <ele>46.28</ele>
        <time>2015-09-06T05:44:51Z</time>
      </trkpt>
      <trkpt lat="47.79497" lon="-3.41637">
        <ele>46.28</ele>
        <time>2015-09-06T05:44:52Z</time>
      </trkpt>
      <trkpt lat="47.79501" lon="-3.41635">
        <ele>46.28</ele>
        <time>2015-09-06T05:44:53Z</time>
      </trkpt>
      <trkpt lat="47.79506" lon="-3.41633">
        <ele>46.28</ele>
        <time>2015-09-06T05:44:54Z</time>
      </trkpt>
      <trkpt lat="47.7951" lon="-3.41631">
        <ele>46.28</ele>
        <time>2015-09-06T05:44:55Z</time>
      </trkpt>
      <trkpt lat="47.79514" lon="-3.41629">
        <ele>46.28</ele>
        <time>2015-09-06T05:44:56Z</time>
      </trkpt>
      <trkpt lat="47.79518" lon="-3.41627">
        <ele>46.28</ele>
        <time>2015-09-06T05:44:57Z</time>
      </trkpt>
      <trkpt lat="47.79522" lon="-3.41626">
        <ele>46.28</ele>
        <time>2015-09-06T05:44:58Z</time>
      </trkpt>
      <trkpt lat="47.79526" lon="-3.41624">
        <ele>46.28</ele>
        <time>2015-09-06T05:44:59Z</time>
      </trkpt>
      <trkpt lat="47.7953" lon="-3.41622">
        <ele>46.28</ele>
        <time>2015-09-06T05:45:00Z</time>
      </trkpt>
      <trkpt lat="47.79534" lon="-3.4162">
        <ele>46.28</ele>
        <time>2015-09-06T05:45:01Z</time>
      </trkpt>
      <trkpt lat="47.79538" lon="-3.41618">
        <ele>46.28</ele>
        <time>2015-09-06T05:45:02Z</time>
      </trkpt>
      <trkpt lat="47.79543" lon="-3.41616">
        <ele>46.28</ele>
        <time>2015-09-06T05:45:03Z</time>
      </trkpt>
      <trkpt lat="47.79547" lon="-3.41615">
        <ele>47.72</ele>
        <time>2015-09-06T05:45:04Z</time>
      </trkpt>
      <trkpt lat="47.79552" lon="-3.41614">
        <ele>47.72</ele>
        <time>2015-09-06T05:45:05Z</time>
      </trkpt>
      <trkpt lat="47.79556" lon="-3.41614">
        <ele>47.72</ele>
        <time>2015-09-06T05:45:06Z</time>
      </trkpt>
      <trkpt lat="47.79561" lon="-3.41612">
        <ele>47.72</ele>
        <time>2015-09-06T05:45:07Z</time>
      </trkpt>
      <trkpt lat="47.79565" lon="-3.4161">
        <ele>47.72</ele>
        <time>2015-09-06T05:45:08Z</time>
      </trkpt>
      <trkpt lat="47.79569" lon="-3.41607">
        <ele>47.72</ele>
        <time>2015-09-06T05:45:09Z</time>
      </trkpt>
      <trkpt lat="47.79574" lon="-3.41604">
        <ele>47.72</ele>
        <time>2015-09-06T05:45:10Z</time>
      </trkpt>
      <trkpt lat="47.79578" lon="-3.41601">
        <ele>47.72</ele>
        <time>2015-09-06T05:45:11Z</time>
      </trkpt>
      <trkpt lat="47.79583" lon="-3.41597">
        <ele>47.72</ele>
        <time>2015-09-06T05:45:12Z</time>
      </trkpt>
      <trkpt lat="47.79587" lon="-3.41595">
        <ele>47.72</ele>
        <time>2015-09-06T05:45:13Z</time>
      </trkpt>
      <trkpt lat="47.79592" lon="-3.41592">
        <ele>47.72</ele>
        <time>2015-09-06T05:45:14Z</time>
      </trkpt>
      <trkpt lat="47.79597" lon="-3.41591">
        <ele>47.72</ele>
        <time>2015-09-06T05:45:15Z</time>
      </trkpt>
      <trkpt lat="47.79602" lon="-3.41591">
        <ele>47.72</ele>
        <time>2015-09-06T05:45:16Z</time>
      </trkpt>
      <trkpt lat="47.79608" lon="-3.41592">
        <ele>47.72</ele>
        <time>2015-09-06T05:45:17Z</time>
      </trkpt>
      <trkpt lat="47.79612" lon="-3.41593">
        <ele>47.72</ele>
        <time>2015-09-06T05:45:18Z</time>
      </trkpt>
      <trkpt lat="47.79617" lon="-3.41594">
        <ele>47.72</ele>
        <time>2015-09-06T05:45:19Z</time>
      </trkpt>
      <trkpt lat="47.79622" lon="-3.41596">
        <ele>47.72</ele>
        <time>2015-09-06T05:45:20Z</time>
      </trkpt>
      <trkpt lat="47.79627" lon="-3.41597">
        <ele>47.72</ele>
        <time>2015-09-06T05:45:21Z</time>
      </trkpt>
      <trkpt lat="47.79632" lon="-3.41598">
        <ele>47.72</ele>
        <time>2015-09-06T05:45:22Z</time>
      </trkpt>
      <trkpt lat="47.79637" lon="-3.41599">
        <ele>47.72</ele>
        <time>2015-09-06T05:45:23Z</time>
      </trkpt>
      <trkpt lat="47.79643" lon="-3.41601">
        <ele>47.72</ele>
        <time>2015-09-06T05:45:24Z</time>
      </trkpt>
      <trkpt lat="47.79647" lon="-3.41603">
        <ele>47.72</ele>
        <time>2015-09-06T05:45:25Z</time>
      </trkpt>
      <trkpt lat="47.79651" lon="-3.41604">
        <ele>47.72</ele>
        <time>2015-09-06T05:45:26Z</time>
      </trkpt>
      <trkpt lat="47.79655" lon="-3.41604">
        <ele>47.72</ele>
        <time>2015-09-06T05:45:27Z</time>
      </trkpt>
      <trkpt lat="47.79658" lon="-3.41603">
        <ele>45.8</ele>
        <time>2015-09-06T05:45:28Z</time>
      </trkpt>
      <trkpt lat="47.79662" lon="-3.41601">
        <ele>45.8</ele>
        <time>2015-09-06T05:45:29Z</time>
      </trkpt>
      <trkpt lat="47.79666" lon="-3.416">
        <ele>45.8</ele>
        <time>2015-09-06T05:45:30Z</time>
      </trkpt>
      <trkpt lat="47.79668" lon="-3.41599">
        <ele>45.32</ele>
        <time>2015-09-06T05:45:31Z</time>
      </trkpt>
      <trkpt lat="47.7967" lon="-3.41598">
        <ele>44.84</ele>
        <time>2015-09-06T05:45:32Z</time>
      </trkpt>
      <trkpt lat="47.79673" lon="-3.41598">
        <ele>44.84</ele>
        <time>2015-09-06T05:45:33Z</time>
      </trkpt>
      <trkpt lat="47.79675" lon="-3.41598">
        <ele>44.84</ele>
        <time>2015-09-06T05:45:34Z</time>
      </trkpt>
      <trkpt lat="47.79678" lon="-3.41597">
        <ele>43.88</ele>
        <time>2015-09-06T05:45:35Z</time>
      </trkpt>
      <trkpt lat="47.79681" lon="-3.41596">
        <ele>43.4</ele>
        <time>2015-09-06T05:45:36Z</time>
      </trkpt>
      <trkpt lat="47.79684" lon="-3.41594">
        <ele>42.92</ele>
        <time>2015-09-06T05:45:37Z</time>
      </trkpt>
      <trkpt lat="47.79687" lon="-3.41593">
        <ele>42.44</ele>
        <time>2015-09-06T05:45:38Z</time>
      </trkpt>
      <trkpt lat="47.79691" lon="-3.41591">
        <ele>41.47</ele>
        <time>2015-09-06T05:45:39Z</time>
      </trkpt>
      <trkpt lat="47.79694" lon="-3.41588">
        <ele>40.99</ele>
        <time>2015-09-06T05:45:40Z</time>
      </trkpt>
      <trkpt lat="47.79696" lon="-3.41584">
        <ele>40.51</ele>
        <time>2015-09-06T05:45:41Z</time>
      </trkpt>
      <trkpt lat="47.79698" lon="-3.41579">
        <ele>40.51</ele>
        <time>2015-09-06T05:45:42Z</time>
      </trkpt>
      <trkpt lat="47.797" lon="-3.41575">
        <ele>40.03</ele>
        <time>2015-09-06T05:45:43Z</time>
      </trkpt>
      <trkpt lat="47.79702" lon="-3.41571">
        <ele>39.55</ele>
        <time>2015-09-06T05:45:44Z</time>
      </trkpt>
      <trkpt lat="47.79706" lon="-3.4157">
        <ele>39.55</ele>
        <time>2015-09-06T05:45:45Z</time>
      </trkpt>
      <trkpt lat="47.79711" lon="-3.41571">
        <ele>39.55</ele>
        <time>2015-09-06T05:45:46Z</time>
      </trkpt>
      <trkpt lat="47.79715" lon="-3.41573">
        <ele>39.07</ele>
        <time>2015-09-06T05:45:47Z</time>
      </trkpt>
      <trkpt lat="47.79719" lon="-3.41577">
        <ele>39.07</ele>
        <time>2015-09-06T05:45:48Z</time>
      </trkpt>
      <trkpt lat="47.79722" lon="-3.41581">
        <ele>39.07</ele>
        <time>2015-09-06T05:45:49Z</time>
      </trkpt>
      <trkpt lat="47.79725" lon="-3.41586">
        <ele>39.07</ele>
        <time>2015-09-06T05:45:50Z</time>
      </trkpt>
      <trkpt lat="47.79729" lon="-3.41591">
        <ele>39.07</ele>
        <time>2015-09-06T05:45:51Z</time>
      </trkpt>
      <trkpt lat="47.79733" lon="-3.41595">
        <ele>39.07</ele>
        <time>2015-09-06T05:45:52Z</time>
      </trkpt>
      <trkpt lat="47.79737" lon="-3.41598">
        <ele>38.59</ele>
        <time>2015-09-06T05:45:53Z</time>
      </trkpt>
      <trkpt lat="47.7974" lon="-3.416">
        <ele>38.59</ele>
        <time>2015-09-06T05:45:54Z</time>
      </trkpt>
      <trkpt lat="47.79744" lon="-3.416">
        <ele>38.59</ele>
        <time>2015-09-06T05:45:55Z</time>
      </trkpt>
      <trkpt lat="47.79747" lon="-3.41601">
        <ele>38.59</ele>
        <time>2015-09-06T05:45:56Z</time>
      </trkpt>
      <trkpt lat="47.7975" lon="-3.41601">
        <ele>38.11</ele>
        <time>2015-09-06T05:45:57Z</time>
      </trkpt>
      <trkpt lat="47.79753" lon="-3.41603">
        <ele>38.11</ele>
        <time>2015-09-06T05:45:58Z</time>
      </trkpt>
      <trkpt lat="47.79755" lon="-3.41606">
        <ele>38.11</ele>
        <time>2015-09-06T05:45:59Z</time>
      </trkpt>
      <trkpt lat="47.79756" lon="-3.41611">
        <ele>38.11</ele>
        <time>2015-09-06T05:46:00Z</time>
      </trkpt>
      <trkpt lat="47.79756" lon="-3.41617">
        <ele>37.63</ele>
        <time>2015-09-06T05:46:01Z</time>
      </trkpt>
      <trkpt lat="47.79756" lon="-3.41623">
        <ele>37.63</ele>
        <time>2015-09-06T05:46:02Z</time>
      </trkpt>
      <trkpt lat="47.79756" lon="-3.41629">
        <ele>37.63</ele>
        <time>2015-09-06T05:46:03Z</time>
      </trkpt>
      <trkpt lat="47.79756" lon="-3.41635">
        <ele>37.63</ele>
        <time>2015-09-06T05:46:04Z</time>
      </trkpt>
      <trkpt lat="47.79757" lon="-3.4164">
        <ele>37.63</ele>
        <time>2015-09-06T05:46:05Z</time>
      </trkpt>
      <trkpt lat="47.79757" lon="-3.41648">
        <ele>37.63</ele>
        <time>2015-09-06T05:46:06Z</time>
      </trkpt>
      <trkpt lat="47.79757" lon="-3.41652">
        <ele>37.63</ele>
        <time>2015-09-06T05:46:07Z</time>
      </trkpt>
      <trkpt lat="47.79757" lon="-3.41658">
        <ele>37.63</ele>
        <time>2015-09-06T05:46:08Z</time>
      </trkpt>
      <trkpt lat="47.79757" lon="-3.41662">
        <ele>39.55</ele>
        <time>2015-09-06T05:46:09Z</time>
      </trkpt>
      <trkpt lat="47.79757" lon="-3.41667">
        <ele>39.55</ele>
        <time>2015-09-06T05:46:10Z</time>
      </trkpt>
      <trkpt lat="47.79757" lon="-3.41671">
        <ele>39.55</ele>
        <time>2015-09-06T05:46:11Z</time>
      </trkpt>
      <trkpt lat="47.79757" lon="-3.41675">
        <ele>40.03</ele>
        <time>2015-09-06T05:46:12Z</time>
      </trkpt>
      <trkpt lat="47.79757" lon="-3.41679">
        <ele>40.51</ele>
        <time>2015-09-06T05:46:13Z</time>
      </trkpt>
      <trkpt lat="47.79757" lon="-3.41683">
        <ele>40.51</ele>
        <time>2015-09-06T05:46:14Z</time>
      </trkpt>
      <trkpt lat="47.79757" lon="-3.41687">
        <ele>40.99</ele>
        <time>2015-09-06T05:46:15Z</time>
      </trkpt>
      <trkpt lat="47.79757" lon="-3.41692">
        <ele>40.99</ele>
        <time>2015-09-06T05:46:16Z</time>
      </trkpt>
      <trkpt lat="47.79757" lon="-3.41696">
        <ele>41.47</ele>
        <time>2015-09-06T05:46:17Z</time>
      </trkpt>
      <trkpt lat="47.79757" lon="-3.417">
        <ele>41.95</ele>
        <time>2015-09-06T05:46:18Z</time>
      </trkpt>
      <trkpt lat="47.79757" lon="-3.41703">
        <ele>41.95</ele>
        <time>2015-09-06T05:46:19Z</time>
      </trkpt>
      <trkpt lat="47.79757" lon="-3.41707">
        <ele>42.44</ele>
        <time>2015-09-06T05:46:20Z</time>
      </trkpt>
      <trkpt lat="47.79757" lon="-3.41711">
        <ele>42.44</ele>
        <time>2015-09-06T05:46:21Z</time>
      </trkpt>
      <trkpt lat="47.79757" lon="-3.41715">
        <ele>42.92</ele>
        <time>2015-09-06T05:46:22Z</time>
      </trkpt>
      <trkpt lat="47.79756" lon="-3.41719">
        <ele>42.92</ele>
        <time>2015-09-06T05:46:23Z</time>
      </trkpt>
      <trkpt lat="47.79756" lon="-3.41723">
        <ele>43.4</ele>
        <time>2015-09-06T05:46:24Z</time>
      </trkpt>
      <trkpt lat="47.79756" lon="-3.41728">
        <ele>43.4</ele>
        <time>2015-09-06T05:46:25Z</time>
      </trkpt>
      <trkpt lat="47.79756" lon="-3.41732">
        <ele>43.4</ele>
        <time>2015-09-06T05:46:26Z</time>
      </trkpt>
      <trkpt lat="47.79756" lon="-3.41736">
        <ele>44.36</ele>
        <time>2015-09-06T05:46:27Z</time>
      </trkpt>
      <trkpt lat="47.79755" lon="-3.41741">
        <ele>44.36</ele>
        <time>2015-09-06T05:46:28Z</time>
      </trkpt>
      <trkpt lat="47.79755" lon="-3.41745">
        <ele>44.36</ele>
        <time>2015-09-06T05:46:29Z</time>
      </trkpt>
      <trkpt lat="47.79755" lon="-3.41749">
        <ele>44.84</ele>
        <time>2015-09-06T05:46:30Z</time>
      </trkpt>
      <trkpt lat="47.79754" lon="-3.41754">
        <ele>44.84</ele>
        <time>2015-09-06T05:46:31Z</time>
      </trkpt>
      <trkpt lat="47.79754" lon="-3.41758">
        <ele>44.84</ele>
        <time>2015-09-06T05:46:32Z</time>
      </trkpt>
      <trkpt lat="47.79754" lon="-3.41762">
        <ele>44.84</ele>
        <time>2015-09-06T05:46:33Z</time>
      </trkpt>
      <trkpt lat="47.79753" lon="-3.41766">
        <ele>45.32</ele>
        <time>2015-09-06T05:46:34Z</time>
      </trkpt>
      <trkpt lat="47.79753" lon="-3.4177">
        <ele>45.32</ele>
        <time>2015-09-06T05:46:35Z</time>
      </trkpt>
      <trkpt lat="47.79753" lon="-3.41774">
        <ele>45.32</ele>
        <time>2015-09-06T05:46:36Z</time>
      </trkpt>
      <trkpt lat="47.79752" lon="-3.41778">
        <ele>45.32</ele>
        <time>2015-09-06T05:46:37Z</time>
      </trkpt>
      <trkpt lat="47.79752" lon="-3.41782">
        <ele>45.8</ele>
        <time>2015-09-06T05:46:38Z</time>
      </trkpt>
      <trkpt lat="47.79752" lon="-3.41786">
        <ele>45.8</ele>
        <time>2015-09-06T05:46:39Z</time>
      </trkpt>
      <trkpt lat="47.79751" lon="-3.4179">
        <ele>45.8</ele>
        <time>2015-09-06T05:46:40Z</time>
      </trkpt>
      <trkpt lat="47.79751" lon="-3.41794">
        <ele>46.28</ele>
        <time>2015-09-06T05:46:41Z</time>
      </trkpt>
      <trkpt lat="47.7975" lon="-3.41799">
        <ele>46.28</ele>
        <time>2015-09-06T05:46:42Z</time>
      </trkpt>
      <trkpt lat="47.7975" lon="-3.41803">
        <ele>46.28</ele>
        <time>2015-09-06T05:46:43Z</time>
      </trkpt>
      <trkpt lat="47.7975" lon="-3.41807">
        <ele>46.76</ele>
        <time>2015-09-06T05:46:44Z</time>
      </trkpt>
      <trkpt lat="47.79751" lon="-3.41811">
        <ele>46.76</ele>
        <time>2015-09-06T05:46:45Z</time>
      </trkpt>
      <trkpt lat="47.79751" lon="-3.41815">
        <ele>46.76</ele>
        <time>2015-09-06T05:46:46Z</time>
      </trkpt>
      <trkpt lat="47.79753" lon="-3.41819">
        <ele>46.76</ele>
        <time>2015-09-06T05:46:47Z</time>
      </trkpt>
      <trkpt lat="47.79754" lon="-3.41823">
        <ele>47.24</ele>
        <time>2015-09-06T05:46:48Z</time>
      </trkpt>
      <trkpt lat="47.79755" lon="-3.41826">
        <ele>47.24</ele>
        <time>2015-09-06T05:46:49Z</time>
      </trkpt>
      <trkpt lat="47.79756" lon="-3.41829">
        <ele>47.24</ele>
        <time>2015-09-06T05:46:50Z</time>
      </trkpt>
      <trkpt lat="47.79757" lon="-3.41833">
        <ele>47.24</ele>
        <time>2015-09-06T05:46:51Z</time>
      </trkpt>
      <trkpt lat="47.79757" lon="-3.41837">
        <ele>47.72</ele>
        <time>2015-09-06T05:46:52Z</time>
      </trkpt>
      <trkpt lat="47.79757" lon="-3.41841">
        <ele>47.72</ele>
        <time>2015-09-06T05:46:53Z</time>
      </trkpt>
      <trkpt lat="47.79757" lon="-3.41844">
        <ele>48.2</ele>
        <time>2015-09-06T05:46:54Z</time>
      </trkpt>
      <trkpt lat="47.79756" lon="-3.41847">
        <ele>48.2</ele>
        <time>2015-09-06T05:46:55Z</time>
      </trkpt>
      <trkpt lat="47.79755" lon="-3.4185">
        <ele>48.2</ele>
        <time>2015-09-06T05:46:56Z</time>
      </trkpt>
      <trkpt lat="47.79754" lon="-3.41854">
        <ele>48.2</ele>
        <time>2015-09-06T05:46:57Z</time>
      </trkpt>
      <trkpt lat="47.79753" lon="-3.41857">
        <ele>48.68</ele>
        <time>2015-09-06T05:46:58Z</time>
      </trkpt>
      <trkpt lat="47.79752" lon="-3.4186">
        <ele>48.68</ele>
        <time>2015-09-06T05:46:59Z</time>
      </trkpt>
      <trkpt lat="47.79751" lon="-3.41863">
        <ele>48.68</ele>
        <time>2015-09-06T05:47:00Z</time>
      </trkpt>
      <trkpt lat="47.7975" lon="-3.41866">
        <ele>49.16</ele>
        <time>2015-09-06T05:47:01Z</time>
      </trkpt>
      <trkpt lat="47.7975" lon="-3.41869">
        <ele>49.16</ele>
        <time>2015-09-06T05:47:02Z</time>
      </trkpt>
      <trkpt lat="47.79749" lon="-3.41873">
        <ele>49.65</ele>
        <time>2015-09-06T05:47:03Z</time>
      </trkpt>
      <trkpt lat="47.79748" lon="-3.41876">
        <ele>49.65</ele>
        <time>2015-09-06T05:47:04Z</time>
      </trkpt>
      <trkpt lat="47.79748" lon="-3.4188">
        <ele>49.65</ele>
        <time>2015-09-06T05:47:05Z</time>
      </trkpt>
      <trkpt lat="47.79748" lon="-3.41884">
        <ele>50.13</ele>
        <time>2015-09-06T05:47:06Z</time>
      </trkpt>
      <trkpt lat="47.79748" lon="-3.41889">
        <ele>50.13</ele>
        <time>2015-09-06T05:47:07Z</time>
      </trkpt>
      <trkpt lat="47.79748" lon="-3.41893">
        <ele>50.13</ele>
        <time>2015-09-06T05:47:08Z</time>
      </trkpt>
      <trkpt lat="47.79749" lon="-3.41898">
        <ele>50.61</ele>
        <time>2015-09-06T05:47:09Z</time>
      </trkpt>
      <trkpt lat="47.79749" lon="-3.41902">
        <ele>50.61</ele>
        <time>2015-09-06T05:47:10Z</time>
      </trkpt>
      <trkpt lat="47.79749" lon="-3.41906">
        <ele>50.61</ele>
        <time>2015-09-06T05:47:11Z</time>
      </trkpt>
      <trkpt lat="47.79748" lon="-3.4191">
        <ele>50.61</ele>
        <time>2015-09-06T05:47:12Z</time>
      </trkpt>
      <trkpt lat="47.79748" lon="-3.41914">
        <ele>50.61</ele>
        <time>2015-09-06T05:47:13Z</time>
      </trkpt>
      <trkpt lat="47.79748" lon="-3.41918">
        <ele>50.61</ele>
        <time>2015-09-06T05:47:14Z</time>
      </trkpt>
      <trkpt lat="47.79748" lon="-3.41922">
        <ele>50.61</ele>
        <time>2015-09-06T05:47:15Z</time>
      </trkpt>
      <trkpt lat="47.79748" lon="-3.41926">
        <ele>50.61</ele>
        <time>2015-09-06T05:47:16Z</time>
      </trkpt>
      <trkpt lat="47.79748" lon="-3.41929">
        <ele>50.61</ele>
        <time>2015-09-06T05:47:17Z</time>
      </trkpt>
      <trkpt lat="47.79747" lon="-3.41934">
        <ele>50.61</ele>
        <time>2015-09-06T05:47:18Z</time>
      </trkpt>
      <trkpt lat="47.79746" lon="-3.41939">
        <ele>50.61</ele>
        <time>2015-09-06T05:47:19Z</time>
      </trkpt>
      <trkpt lat="47.79746" lon="-3.41943">
        <ele>50.61</ele>
        <time>2015-09-06T05:47:20Z</time>
      </trkpt>
      <trkpt lat="47.79745" lon="-3.41948">
        <ele>50.61</ele>
        <time>2015-09-06T05:47:21Z</time>
      </trkpt>
      <trkpt lat="47.79744" lon="-3.41952">
        <ele>50.61</ele>
        <time>2015-09-06T05:47:22Z</time>
      </trkpt>
      <trkpt lat="47.79743" lon="-3.41957">
        <ele>50.61</ele>
        <time>2015-09-06T05:47:23Z</time>
      </trkpt>
      <trkpt lat="47.79741" lon="-3.41962">
        <ele>49.16</ele>
        <time>2015-09-06T05:47:24Z</time>
      </trkpt>
      <trkpt lat="47.7974" lon="-3.41967">
        <ele>49.16</ele>
        <time>2015-09-06T05:47:25Z</time>
      </trkpt>
      <trkpt lat="47.79739" lon="-3.41973">
        <ele>48.68</ele>
        <time>2015-09-06T05:47:26Z</time>
      </trkpt>
      <trkpt lat="47.79738" lon="-3.41979">
        <ele>47.72</ele>
        <time>2015-09-06T05:47:27Z</time>
      </trkpt>
      <trkpt lat="47.79738" lon="-3.41985">
        <ele>46.76</ele>
        <time>2015-09-06T05:47:28Z</time>
      </trkpt>
      <trkpt lat="47.79738" lon="-3.4199">
        <ele>46.76</ele>
        <time>2015-09-06T05:47:29Z</time>
      </trkpt>
      <trkpt lat="47.79737" lon="-3.41996">
        <ele>45.32</ele>
        <time>2015-09-06T05:47:30Z</time>
      </trkpt>
      <trkpt lat="47.79738" lon="-3.42001">
        <ele>44.84</ele>
        <time>2015-09-06T05:47:31Z</time>
      </trkpt>
      <trkpt lat="47.79738" lon="-3.42006">
        <ele>43.88</ele>
        <time>2015-09-06T05:47:32Z</time>
      </trkpt>
      <trkpt lat="47.79739" lon="-3.42012">
        <ele>43.4</ele>
        <time>2015-09-06T05:47:33Z</time>
      </trkpt>
      <trkpt lat="47.7974" lon="-3.42018">
        <ele>42.44</ele>
        <time>2015-09-06T05:47:34Z</time>
      </trkpt>
      <trkpt lat="47.79741" lon="-3.42023">
        <ele>41.47</ele>
        <time>2015-09-06T05:47:35Z</time>
      </trkpt>
      <trkpt lat="47.79741" lon="-3.42028">
        <ele>40.51</ele>
        <time>2015-09-06T05:47:36Z</time>
      </trkpt>
      <trkpt lat="47.79742" lon="-3.42033">
        <ele>39.55</ele>
        <time>2015-09-06T05:47:37Z</time>
      </trkpt>
      <trkpt lat="47.79743" lon="-3.42038">
        <ele>38.59</ele>
        <time>2015-09-06T05:47:38Z</time>
      </trkpt>
      <trkpt lat="47.79743" lon="-3.42044">
        <ele>37.63</ele>
        <time>2015-09-06T05:47:39Z</time>
      </trkpt>
      <trkpt lat="47.79743" lon="-3.4205">
        <ele>36.19</ele>
        <time>2015-09-06T05:47:40Z</time>
      </trkpt>
      <trkpt lat="47.79743" lon="-3.42055">
        <ele>35.23</ele>
        <time>2015-09-06T05:47:41Z</time>
      </trkpt>
      <trkpt lat="47.79742" lon="-3.42062">
        <ele>34.26</ele>
        <time>2015-09-06T05:47:42Z</time>
      </trkpt>
      <trkpt lat="47.79743" lon="-3.42069">
        <ele>33.3</ele>
        <time>2015-09-06T05:47:43Z</time>
      </trkpt>
      <trkpt lat="47.79743" lon="-3.42076">
        <ele>32.82</ele>
        <time>2015-09-06T05:47:44Z</time>
      </trkpt>
      <trkpt lat="47.79745" lon="-3.42084">
        <ele>32.34</ele>
        <time>2015-09-06T05:47:45Z</time>
      </trkpt>
      <trkpt lat="47.79748" lon="-3.42091">
        <ele>32.34</ele>
        <time>2015-09-06T05:47:46Z</time>
      </trkpt>
      <trkpt lat="47.79752" lon="-3.42097">
        <ele>31.86</ele>
        <time>2015-09-06T05:47:47Z</time>
      </trkpt>
      <trkpt lat="47.79755" lon="-3.42103">
        <ele>31.86</ele>
        <time>2015-09-06T05:47:48Z</time>
      </trkpt>
      <trkpt lat="47.79758" lon="-3.42109">
        <ele>31.86</ele>
        <time>2015-09-06T05:47:49Z</time>
      </trkpt>
      <trkpt lat="47.79761" lon="-3.42115">
        <ele>31.38</ele>
        <time>2015-09-06T05:47:50Z</time>
      </trkpt>
      <trkpt lat="47.79763" lon="-3.42122">
        <ele>31.38</ele>
        <time>2015-09-06T05:47:51Z</time>
      </trkpt>
      <trkpt lat="47.79764" lon="-3.42129">
        <ele>31.38</ele>
        <time>2015-09-06T05:47:52Z</time>
      </trkpt>
      <trkpt lat="47.79765" lon="-3.42137">
        <ele>30.9</ele>
        <time>2015-09-06T05:47:53Z</time>
      </trkpt>
      <trkpt lat="47.79765" lon="-3.42145">
        <ele>31.38</ele>
        <time>2015-09-06T05:47:54Z</time>
      </trkpt>
      <trkpt lat="47.79765" lon="-3.42152">
        <ele>31.38</ele>
        <time>2015-09-06T05:47:55Z</time>
      </trkpt>
      <trkpt lat="47.79765" lon="-3.42159">
        <ele>31.38</ele>
        <time>2015-09-06T05:47:56Z</time>
      </trkpt>
      <trkpt lat="47.79765" lon="-3.42166">
        <ele>31.38</ele>
        <time>2015-09-06T05:47:57Z</time>
      </trkpt>
      <trkpt lat="47.79766" lon="-3.42173">
        <ele>31.38</ele>
        <time>2015-09-06T05:47:58Z</time>
      </trkpt>
      <trkpt lat="47.79766" lon="-3.4218">
        <ele>31.38</ele>
        <time>2015-09-06T05:47:59Z</time>
      </trkpt>
      <trkpt lat="47.79766" lon="-3.42187">
        <ele>31.38</ele>
        <time>2015-09-06T05:48:00Z</time>
      </trkpt>
      <trkpt lat="47.79766" lon="-3.42194">
        <ele>31.38</ele>
        <time>2015-09-06T05:48:01Z</time>
      </trkpt>
      <trkpt lat="47.79766" lon="-3.422">
        <ele>31.38</ele>
        <time>2015-09-06T05:48:02Z</time>
      </trkpt>
      <trkpt lat="47.79766" lon="-3.42207">
        <ele>31.38</ele>
        <time>2015-09-06T05:48:03Z</time>
      </trkpt>
      <trkpt lat="47.79766" lon="-3.42213">
        <ele>31.38</ele>
        <time>2015-09-06T05:48:04Z</time>
      </trkpt>
      <trkpt lat="47.79765" lon="-3.4222">
        <ele>31.38</ele>
        <time>2015-09-06T05:48:05Z</time>
      </trkpt>
      <trkpt lat="47.79765" lon="-3.42227">
        <ele>31.38</ele>
        <time>2015-09-06T05:48:06Z</time>
      </trkpt>
      <trkpt lat="47.79765" lon="-3.42233">
        <ele>31.38</ele>
        <time>2015-09-06T05:48:07Z</time>
      </trkpt>
      <trkpt lat="47.79765" lon="-3.42239">
        <ele>31.38</ele>
        <time>2015-09-06T05:48:08Z</time>
      </trkpt>
      <trkpt lat="47.79765" lon="-3.42246">
        <ele>31.38</ele>
        <time>2015-09-06T05:48:09Z</time>
      </trkpt>
      <trkpt lat="47.79764" lon="-3.42252">
        <ele>32.82</ele>
        <time>2015-09-06T05:48:10Z</time>
      </trkpt>
      <trkpt lat="47.79764" lon="-3.42258">
        <ele>32.82</ele>
        <time>2015-09-06T05:48:11Z</time>
      </trkpt>
      <trkpt lat="47.79764" lon="-3.42263">
        <ele>33.3</ele>
        <time>2015-09-06T05:48:12Z</time>
      </trkpt>
      <trkpt lat="47.79764" lon="-3.42269">
        <ele>33.3</ele>
        <time>2015-09-06T05:48:13Z</time>
      </trkpt>
      <trkpt lat="47.79763" lon="-3.42274">
        <ele>33.78</ele>
        <time>2015-09-06T05:48:14Z</time>
      </trkpt>
      <trkpt lat="47.79764" lon="-3.4228">
        <ele>33.78</ele>
        <time>2015-09-06T05:48:15Z</time>
      </trkpt>
      <trkpt lat="47.79764" lon="-3.42286">
        <ele>33.3</ele>
        <time>2015-09-06T05:48:16Z</time>
      </trkpt>
      <trkpt lat="47.79765" lon="-3.42292">
        <ele>33.78</ele>
        <time>2015-09-06T05:48:17Z</time>
      </trkpt>
      <trkpt lat="47.79766" lon="-3.42295">
        <ele>34.26</ele>
        <time>2015-09-06T05:48:18Z</time>
      </trkpt>
      <trkpt lat="47.79769" lon="-3.42299">
        <ele>34.26</ele>
        <time>2015-09-06T05:48:19Z</time>
      </trkpt>
      <trkpt lat="47.79772" lon="-3.42302">
        <ele>34.26</ele>
        <time>2015-09-06T05:48:20Z</time>
      </trkpt>
      <trkpt lat="47.79775" lon="-3.42303">
        <ele>34.26</ele>
        <time>2015-09-06T05:48:21Z</time>
      </trkpt>
      <trkpt lat="47.79778" lon="-3.42304">
        <ele>34.26</ele>
        <time>2015-09-06T05:48:22Z</time>
      </trkpt>
      <trkpt lat="47.79781" lon="-3.42305">
        <ele>34.26</ele>
        <time>2015-09-06T05:48:23Z</time>
      </trkpt>
      <trkpt lat="47.79784" lon="-3.42306">
        <ele>34.74</ele>
        <time>2015-09-06T05:48:24Z</time>
      </trkpt>
      <trkpt lat="47.79788" lon="-3.42307">
        <ele>34.74</ele>
        <time>2015-09-06T05:48:25Z</time>
      </trkpt>
      <trkpt lat="47.79791" lon="-3.42309">
        <ele>34.74</ele>
        <time>2015-09-06T05:48:26Z</time>
      </trkpt>
      <trkpt lat="47.79794" lon="-3.4231">
        <ele>34.74</ele>
        <time>2015-09-06T05:48:27Z</time>
      </trkpt>
      <trkpt lat="47.79798" lon="-3.4231">
        <ele>34.74</ele>
        <time>2015-09-06T05:48:28Z</time>
      </trkpt>
      <trkpt lat="47.79801" lon="-3.42311">
        <ele>35.23</ele>
        <time>2015-09-06T05:48:29Z</time>
      </trkpt>
      <trkpt lat="47.79804" lon="-3.42311">
        <ele>35.23</ele>
        <time>2015-09-06T05:48:30Z</time>
      </trkpt>
      <trkpt lat="47.79808" lon="-3.42312">
        <ele>35.23</ele>
        <time>2015-09-06T05:48:31Z</time>
      </trkpt>
      <trkpt lat="47.79811" lon="-3.42312">
        <ele>35.71</ele>
        <time>2015-09-06T05:48:32Z</time>
      </trkpt>
      <trkpt lat="47.79814" lon="-3.42312">
        <ele>35.71</ele>
        <time>2015-09-06T05:48:33Z</time>
      </trkpt>
      <trkpt lat="47.79818" lon="-3.42313">
        <ele>35.71</ele>
        <time>2015-09-06T05:48:34Z</time>
      </trkpt>
      <trkpt lat="47.79821" lon="-3.42313">
        <ele>35.71</ele>
        <time>2015-09-06T05:48:35Z</time>
      </trkpt>
      <trkpt lat="47.79824" lon="-3.42314">
        <ele>36.19</ele>
        <time>2015-09-06T05:48:36Z</time>
      </trkpt>
      <trkpt lat="47.79827" lon="-3.42314">
        <ele>36.19</ele>
        <time>2015-09-06T05:48:37Z</time>
      </trkpt>
      <trkpt lat="47.7983" lon="-3.42314">
        <ele>36.19</ele>
        <time>2015-09-06T05:48:38Z</time>
      </trkpt>
      <trkpt lat="47.79833" lon="-3.42314">
        <ele>36.19</ele>
        <time>2015-09-06T05:48:39Z</time>
      </trkpt>
      <trkpt lat="47.79837" lon="-3.42314">
        <ele>36.19</ele>
        <time>2015-09-06T05:48:40Z</time>
      </trkpt>
      <trkpt lat="47.7984" lon="-3.42314">
        <ele>36.19</ele>
        <time>2015-09-06T05:48:41Z</time>
      </trkpt>
      <trkpt lat="47.79843" lon="-3.42314">
        <ele>36.67</ele>
        <time>2015-09-06T05:48:42Z</time>
      </trkpt>
      <trkpt lat="47.79846" lon="-3.42315">
        <ele>36.67</ele>
        <time>2015-09-06T05:48:43Z</time>
      </trkpt>
      <trkpt lat="47.79849" lon="-3.42315">
        <ele>36.67</ele>
        <time>2015-09-06T05:48:44Z</time>
      </trkpt>
      <trkpt lat="47.79852" lon="-3.42315">
        <ele>36.67</ele>
        <time>2015-09-06T05:48:45Z</time>
      </trkpt>
      <trkpt lat="47.79855" lon="-3.42315">
        <ele>37.15</ele>
        <time>2015-09-06T05:48:46Z</time>
      </trkpt>
      <trkpt lat="47.79859" lon="-3.42315">
        <ele>37.15</ele>
        <time>2015-09-06T05:48:47Z</time>
      </trkpt>
      <trkpt lat="47.79862" lon="-3.42316">
        <ele>37.15</ele>
        <time>2015-09-06T05:48:48Z</time>
      </trkpt>
      <trkpt lat="47.79866" lon="-3.42316">
        <ele>37.63</ele>
        <time>2015-09-06T05:48:49Z</time>
      </trkpt>
      <trkpt lat="47.79869" lon="-3.42316">
        <ele>37.63</ele>
        <time>2015-09-06T05:48:50Z</time>
      </trkpt>
      <trkpt lat="47.79873" lon="-3.42317">
        <ele>37.63</ele>
        <time>2015-09-06T05:48:51Z</time>
      </trkpt>
      <trkpt lat="47.79876" lon="-3.42317">
        <ele>37.63</ele>
        <time>2015-09-06T05:48:52Z</time>
      </trkpt>
      <trkpt lat="47.79879" lon="-3.42318">
        <ele>37.63</ele>
        <time>2015-09-06T05:48:53Z</time>
      </trkpt>
      <trkpt lat="47.79882" lon="-3.42318">
        <ele>37.63</ele>
        <time>2015-09-06T05:48:54Z</time>
      </trkpt>
      <trkpt lat="47.79885" lon="-3.42318">
        <ele>38.11</ele>
        <time>2015-09-06T05:48:55Z</time>
      </trkpt>
      <trkpt lat="47.79888" lon="-3.42319">
        <ele>38.11</ele>
        <time>2015-09-06T05:48:56Z</time>
      </trkpt>
      <trkpt lat="47.79892" lon="-3.42319">
        <ele>38.11</ele>
        <time>2015-09-06T05:48:57Z</time>
      </trkpt>
      <trkpt lat="47.79895" lon="-3.4232">
        <ele>38.11</ele>
        <time>2015-09-06T05:48:58Z</time>
      </trkpt>
      <trkpt lat="47.79899" lon="-3.4232">
        <ele>38.11</ele>
        <time>2015-09-06T05:48:59Z</time>
      </trkpt>
      <trkpt lat="47.79903" lon="-3.4232">
        <ele>38.59</ele>
        <time>2015-09-06T05:49:00Z</time>
      </trkpt>
      <trkpt lat="47.79907" lon="-3.42321">
        <ele>38.59</ele>
        <time>2015-09-06T05:49:01Z</time>
      </trkpt>
      <trkpt lat="47.79911" lon="-3.42321">
        <ele>38.59</ele>
        <time>2015-09-06T05:49:02Z</time>
      </trkpt>
      <trkpt lat="47.79915" lon="-3.42322">
        <ele>38.59</ele>
        <time>2015-09-06T05:49:03Z</time>
      </trkpt>
      <trkpt lat="47.79919" lon="-3.42323">
        <ele>38.59</ele>
        <time>2015-09-06T05:49:04Z</time>
      </trkpt>
      <trkpt lat="47.79923" lon="-3.42324">
        <ele>38.59</ele>
        <time>2015-09-06T05:49:05Z</time>
      </trkpt>
      <trkpt lat="47.79927" lon="-3.42324">
        <ele>38.59</ele>
        <time>2015-09-06T05:49:06Z</time>
      </trkpt>
      <trkpt lat="47.79932" lon="-3.42325">
        <ele>38.59</ele>
        <time>2015-09-06T05:49:07Z</time>
      </trkpt>
      <trkpt lat="47.79936" lon="-3.42325">
        <ele>38.59</ele>
        <time>2015-09-06T05:49:08Z</time>
      </trkpt>
      <trkpt lat="47.79941" lon="-3.42326">
        <ele>38.59</ele>
        <time>2015-09-06T05:49:09Z</time>
      </trkpt>
      <trkpt lat="47.79945" lon="-3.42327">
        <ele>38.59</ele>
        <time>2015-09-06T05:49:10Z</time>
      </trkpt>
      <trkpt lat="47.79949" lon="-3.42328">
        <ele>38.59</ele>
        <time>2015-09-06T05:49:11Z</time>
      </trkpt>
      <trkpt lat="47.79952" lon="-3.42332">
        <ele>38.59</ele>
        <time>2015-09-06T05:49:12Z</time>
      </trkpt>
      <trkpt lat="47.79953" lon="-3.42336">
        <ele>38.59</ele>
        <time>2015-09-06T05:49:13Z</time>
      </trkpt>
      <trkpt lat="47.79954" lon="-3.4234">
        <ele>38.59</ele>
        <time>2015-09-06T05:49:14Z</time>
      </trkpt>
      <trkpt lat="47.79955" lon="-3.42345">
        <ele>38.59</ele>
        <time>2015-09-06T05:49:15Z</time>
      </trkpt>
      <trkpt lat="47.79955" lon="-3.42349">
        <ele>38.59</ele>
        <time>2015-09-06T05:49:16Z</time>
      </trkpt>
      <trkpt lat="47.79957" lon="-3.42353">
        <ele>38.59</ele>
        <time>2015-09-06T05:49:17Z</time>
      </trkpt>
      <trkpt lat="47.79958" lon="-3.42358">
        <ele>38.59</ele>
        <time>2015-09-06T05:49:18Z</time>
      </trkpt>
      <trkpt lat="47.7996" lon="-3.42362">
        <ele>39.07</ele>
        <time>2015-09-06T05:49:19Z</time>
      </trkpt>
      <trkpt lat="47.79961" lon="-3.42366">
        <ele>39.07</ele>
        <time>2015-09-06T05:49:20Z</time>
      </trkpt>
      <trkpt lat="47.79963" lon="-3.42371">
        <ele>39.07</ele>
        <time>2015-09-06T05:49:21Z</time>
      </trkpt>
      <trkpt lat="47.79965" lon="-3.42375">
        <ele>39.07</ele>
        <time>2015-09-06T05:49:22Z</time>
      </trkpt>
      <trkpt lat="47.79967" lon="-3.4238">
        <ele>39.07</ele>
        <time>2015-09-06T05:49:23Z</time>
      </trkpt>
      <trkpt lat="47.79968" lon="-3.42385">
        <ele>39.55</ele>
        <time>2015-09-06T05:49:24Z</time>
      </trkpt>
      <trkpt lat="47.7997" lon="-3.42389">
        <ele>39.55</ele>
        <time>2015-09-06T05:49:25Z</time>
      </trkpt>
      <trkpt lat="47.79971" lon="-3.42394">
        <ele>39.55</ele>
        <time>2015-09-06T05:49:26Z</time>
      </trkpt>
      <trkpt lat="47.79973" lon="-3.42398">
        <ele>39.55</ele>
        <time>2015-09-06T05:49:27Z</time>
      </trkpt>
      <trkpt lat="47.79976" lon="-3.42403">
        <ele>40.03</ele>
        <time>2015-09-06T05:49:28Z</time>
      </trkpt>
      <trkpt lat="47.79978" lon="-3.42408">
        <ele>40.03</ele>
        <time>2015-09-06T05:49:29Z</time>
      </trkpt>
      <trkpt lat="47.79979" lon="-3.42411">
        <ele>40.51</ele>
        <time>2015-09-06T05:49:30Z</time>
      </trkpt>
      <trkpt lat="47.79981" lon="-3.42415">
        <ele>40.51</ele>
        <time>2015-09-06T05:49:31Z</time>
      </trkpt>
      <trkpt lat="47.79983" lon="-3.42418">
        <ele>40.99</ele>
        <time>2015-09-06T05:49:32Z</time>
      </trkpt>
      <trkpt lat="47.79985" lon="-3.4242">
        <ele>40.99</ele>
        <time>2015-09-06T05:49:33Z</time>
      </trkpt>
      <trkpt lat="47.79987" lon="-3.42423">
        <ele>40.99</ele>
        <time>2015-09-06T05:49:34Z</time>
      </trkpt>
      <trkpt lat="47.79989" lon="-3.42426">
        <ele>40.99</ele>
        <time>2015-09-06T05:49:35Z</time>
      </trkpt>
      <trkpt lat="47.7999" lon="-3.42429">
        <ele>41.47</ele>
        <time>2015-09-06T05:49:36Z</time>
      </trkpt>
      <trkpt lat="47.79992" lon="-3.42432">
        <ele>41.47</ele>
        <time>2015-09-06T05:49:37Z</time>
      </trkpt>
      <trkpt lat="47.79994" lon="-3.42435">
        <ele>41.47</ele>
        <time>2015-09-06T05:49:38Z</time>
      </trkpt>
      <trkpt lat="47.79996" lon="-3.42438">
        <ele>41.95</ele>
        <time>2015-09-06T05:49:39Z</time>
      </trkpt>
      <trkpt lat="47.79997" lon="-3.4244">
        <ele>41.95</ele>
        <time>2015-09-06T05:49:40Z</time>
      </trkpt>
      <trkpt lat="47.79998" lon="-3.42444">
        <ele>41.95</ele>
        <time>2015-09-06T05:49:41Z</time>
      </trkpt>
      <trkpt lat="47.79999" lon="-3.42447">
        <ele>41.95</ele>
        <time>2015-09-06T05:49:42Z</time>
      </trkpt>
      <trkpt lat="47.8" lon="-3.42451">
        <ele>41.95</ele>
        <time>2015-09-06T05:49:43Z</time>
      </trkpt>
      <trkpt lat="47.80002" lon="-3.42455">
        <ele>42.44</ele>
        <time>2015-09-06T05:49:44Z</time>
      </trkpt>
      <trkpt lat="47.80003" lon="-3.42459">
        <ele>42.44</ele>
        <time>2015-09-06T05:49:45Z</time>
      </trkpt>
      <trkpt lat="47.80005" lon="-3.42463">
        <ele>42.44</ele>
        <time>2015-09-06T05:49:46Z</time>
      </trkpt>
      <trkpt lat="47.80006" lon="-3.42466">
        <ele>42.44</ele>
        <time>2015-09-06T05:49:47Z</time>
      </trkpt>
      <trkpt lat="47.80008" lon="-3.42469">
        <ele>43.4</ele>
        <time>2015-09-06T05:49:48Z</time>
      </trkpt>
      <trkpt lat="47.8001" lon="-3.42472">
        <ele>43.4</ele>
        <time>2015-09-06T05:49:49Z</time>
      </trkpt>
      <trkpt lat="47.80011" lon="-3.42475">
        <ele>43.4</ele>
        <time>2015-09-06T05:49:50Z</time>
      </trkpt>
      <trkpt lat="47.80013" lon="-3.42477">
        <ele>43.88</ele>
        <time>2015-09-06T05:49:51Z</time>
      </trkpt>
      <trkpt lat="47.80015" lon="-3.4248">
        <ele>43.88</ele>
        <time>2015-09-06T05:49:52Z</time>
      </trkpt>
      <trkpt lat="47.80017" lon="-3.42483">
        <ele>43.88</ele>
        <time>2015-09-06T05:49:53Z</time>
      </trkpt>
      <trkpt lat="47.80019" lon="-3.42487">
        <ele>44.36</ele>
        <time>2015-09-06T05:49:54Z</time>
      </trkpt>
      <trkpt lat="47.80022" lon="-3.42489">
        <ele>44.36</ele>
        <time>2015-09-06T05:49:55Z</time>
      </trkpt>
      <trkpt lat="47.80024" lon="-3.42491">
        <ele>44.36</ele>
        <time>2015-09-06T05:49:56Z</time>
      </trkpt>
      <trkpt lat="47.80026" lon="-3.42493">
        <ele>44.36</ele>
        <time>2015-09-06T05:49:57Z</time>
      </trkpt>
      <trkpt lat="47.80028" lon="-3.42494">
        <ele>44.36</ele>
        <time>2015-09-06T05:49:58Z</time>
      </trkpt>
      <trkpt lat="47.80031" lon="-3.42494">
        <ele>44.36</ele>
        <time>2015-09-06T05:49:59Z</time>
      </trkpt>
      <trkpt lat="47.80033" lon="-3.42492">
        <ele>42.92</ele>
        <time>2015-09-06T05:50:00Z</time>
      </trkpt>
      <trkpt lat="47.80034" lon="-3.42488">
        <ele>42.92</ele>
        <time>2015-09-06T05:50:01Z</time>
      </trkpt>
      <trkpt lat="47.80035" lon="-3.42485">
        <ele>42.44</ele>
        <time>2015-09-06T05:50:02Z</time>
      </trkpt>
      <trkpt lat="47.80036" lon="-3.42481">
        <ele>42.44</ele>
        <time>2015-09-06T05:50:03Z</time>
      </trkpt>
      <trkpt lat="47.80037" lon="-3.42476">
        <ele>41.95</ele>
        <time>2015-09-06T05:50:04Z</time>
      </trkpt>
      <trkpt lat="47.80039" lon="-3.42472">
        <ele>40.99</ele>
        <time>2015-09-06T05:50:05Z</time>
      </trkpt>
      <trkpt lat="47.8004" lon="-3.42468">
        <ele>40.99</ele>
        <time>2015-09-06T05:50:06Z</time>
      </trkpt>
      <trkpt lat="47.80041" lon="-3.42465">
        <ele>40.99</ele>
        <time>2015-09-06T05:50:07Z</time>
      </trkpt>
      <trkpt lat="47.80042" lon="-3.42462">
        <ele>40.99</ele>
        <time>2015-09-06T05:50:08Z</time>
      </trkpt>
      <trkpt lat="47.80042" lon="-3.42459">
        <ele>40.51</ele>
        <time>2015-09-06T05:50:09Z</time>
      </trkpt>
      <trkpt lat="47.80044" lon="-3.42457">
        <ele>40.51</ele>
        <time>2015-09-06T05:50:10Z</time>
      </trkpt>
      <trkpt lat="47.80046" lon="-3.42457">
        <ele>39.55</ele>
        <time>2015-09-06T05:50:11Z</time>
      </trkpt>
      <trkpt lat="47.80048" lon="-3.42459">
        <ele>39.55</ele>
        <time>2015-09-06T05:50:12Z</time>
      </trkpt>
      <trkpt lat="47.80051" lon="-3.4246">
        <ele>38.59</ele>
        <time>2015-09-06T05:50:13Z</time>
      </trkpt>
      <trkpt lat="47.80053" lon="-3.42462">
        <ele>38.59</ele>
        <time>2015-09-06T05:50:14Z</time>
      </trkpt>
      <trkpt lat="47.80056" lon="-3.42463">
        <ele>38.11</ele>
        <time>2015-09-06T05:50:15Z</time>
      </trkpt>
      <trkpt lat="47.80059" lon="-3.42465">
        <ele>37.63</ele>
        <time>2015-09-06T05:50:16Z</time>
      </trkpt>
      <trkpt lat="47.80062" lon="-3.42467">
        <ele>37.63</ele>
        <time>2015-09-06T05:50:17Z</time>
      </trkpt>
      <trkpt lat="47.80066" lon="-3.42469">
        <ele>37.15</ele>
        <time>2015-09-06T05:50:18Z</time>
      </trkpt>
      <trkpt lat="47.80069" lon="-3.42471">
        <ele>37.15</ele>
        <time>2015-09-06T05:50:19Z</time>
      </trkpt>
      <trkpt lat="47.80071" lon="-3.42472">
        <ele>36.19</ele>
        <time>2015-09-06T05:50:20Z</time>
      </trkpt>
      <trkpt lat="47.80072" lon="-3.42474">
        <ele>36.19</ele>
        <time>2015-09-06T05:50:21Z</time>
      </trkpt>
      <trkpt lat="47.80074" lon="-3.42475">
        <ele>35.71</ele>
        <time>2015-09-06T05:50:22Z</time>
      </trkpt>
      <trkpt lat="47.80077" lon="-3.42477">
        <ele>35.23</ele>
        <time>2015-09-06T05:50:23Z</time>
      </trkpt>
      <trkpt lat="47.80079" lon="-3.42479">
        <ele>34.74</ele>
        <time>2015-09-06T05:50:24Z</time>
      </trkpt>
      <trkpt lat="47.80082" lon="-3.42481">
        <ele>34.74</ele>
        <time>2015-09-06T05:50:25Z</time>
      </trkpt>
      <trkpt lat="47.80084" lon="-3.42482">
        <ele>33.78</ele>
        <time>2015-09-06T05:50:26Z</time>
      </trkpt>
      <trkpt lat="47.80086" lon="-3.42484">
        <ele>33.78</ele>
        <time>2015-09-06T05:50:27Z</time>
      </trkpt>
      <trkpt lat="47.80089" lon="-3.42487">
        <ele>33.78</ele>
        <time>2015-09-06T05:50:28Z</time>
      </trkpt>
      <trkpt lat="47.80091" lon="-3.42489">
        <ele>33.78</ele>
        <time>2015-09-06T05:50:29Z</time>
      </trkpt>
      <trkpt lat="47.80094" lon="-3.42492">
        <ele>32.82</ele>
        <time>2015-09-06T05:50:30Z</time>
      </trkpt>
      <trkpt lat="47.80097" lon="-3.42495">
        <ele>32.34</ele>
        <time>2015-09-06T05:50:31Z</time>
      </trkpt>
      <trkpt lat="47.801" lon="-3.42498">
        <ele>32.34</ele>
        <time>2015-09-06T05:50:32Z</time>
      </trkpt>
      <trkpt lat="47.80103" lon="-3.425">
        <ele>32.34</ele>
        <time>2015-09-06T05:50:33Z</time>
      </trkpt>
      <trkpt lat="47.80106" lon="-3.42502">
        <ele>31.86</ele>
        <time>2015-09-06T05:50:34Z</time>
      </trkpt>
      <trkpt lat="47.80108" lon="-3.42504">
        <ele>31.86</ele>
        <time>2015-09-06T05:50:35Z</time>
      </trkpt>
      <trkpt lat="47.8011" lon="-3.42506">
        <ele>31.38</ele>
        <time>2015-09-06T05:50:36Z</time>
      </trkpt>
      <trkpt lat="47.80113" lon="-3.42509">
        <ele>30.9</ele>
        <time>2015-09-06T05:50:37Z</time>
      </trkpt>
      <trkpt lat="47.80116" lon="-3.4251">
        <ele>30.9</ele>
        <time>2015-09-06T05:50:38Z</time>
      </trkpt>
      <trkpt lat="47.8012" lon="-3.42513">
        <ele>30.42</ele>
        <time>2015-09-06T05:50:39Z</time>
      </trkpt>
      <trkpt lat="47.80125" lon="-3.42517">
        <ele>30.42</ele>
        <time>2015-09-06T05:50:40Z</time>
      </trkpt>
      <trkpt lat="47.80129" lon="-3.4252">
        <ele>30.42</ele>
        <time>2015-09-06T05:50:41Z</time>
      </trkpt>
      <trkpt lat="47.80133" lon="-3.42523">
        <ele>30.42</ele>
        <time>2015-09-06T05:50:42Z</time>
      </trkpt>
      <trkpt lat="47.80137" lon="-3.42526">
        <ele>30.42</ele>
        <time>2015-09-06T05:50:43Z</time>
      </trkpt>
      <trkpt lat="47.8014" lon="-3.42528">
        <ele>31.38</ele>
        <time>2015-09-06T05:50:44Z</time>
      </trkpt>
      <trkpt lat="47.80143" lon="-3.4253">
        <ele>31.86</ele>
        <time>2015-09-06T05:50:45Z</time>
      </trkpt>
      <trkpt lat="47.80145" lon="-3.42532">
        <ele>31.86</ele>
        <time>2015-09-06T05:50:46Z</time>
      </trkpt>
      <trkpt lat="47.80147" lon="-3.42534">
        <ele>32.82</ele>
        <time>2015-09-06T05:50:47Z</time>
      </trkpt>
      <trkpt lat="47.8015" lon="-3.42536">
        <ele>32.82</ele>
        <time>2015-09-06T05:50:48Z</time>
      </trkpt>
      <trkpt lat="47.80152" lon="-3.42538">
        <ele>33.3</ele>
        <time>2015-09-06T05:50:49Z</time>
      </trkpt>
      <trkpt lat="47.80154" lon="-3.4254">
        <ele>33.78</ele>
        <time>2015-09-06T05:50:50Z</time>
      </trkpt>
      <trkpt lat="47.80157" lon="-3.42542">
        <ele>34.26</ele>
        <time>2015-09-06T05:50:51Z</time>
      </trkpt>
      <trkpt lat="47.80159" lon="-3.42544">
        <ele>34.26</ele>
        <time>2015-09-06T05:50:52Z</time>
      </trkpt>
      <trkpt lat="47.80161" lon="-3.42546">
        <ele>35.23</ele>
        <time>2015-09-06T05:50:53Z</time>
      </trkpt>
      <trkpt lat="47.80164" lon="-3.42548">
        <ele>35.71</ele>
        <time>2015-09-06T05:50:54Z</time>
      </trkpt>
      <trkpt lat="47.80166" lon="-3.4255">
        <ele>35.71</ele>
        <time>2015-09-06T05:50:55Z</time>
      </trkpt>
      <trkpt lat="47.80168" lon="-3.42551">
        <ele>36.67</ele>
        <time>2015-09-06T05:50:56Z</time>
      </trkpt>
      <trkpt lat="47.8017" lon="-3.42553">
        <ele>36.67</ele>
        <time>2015-09-06T05:50:57Z</time>
      </trkpt>
      <trkpt lat="47.80173" lon="-3.42555">
        <ele>37.15</ele>
        <time>2015-09-06T05:50:58Z</time>
      </trkpt>
      <trkpt lat="47.80175" lon="-3.42556">
        <ele>37.15</ele>
        <time>2015-09-06T05:50:59Z</time>
      </trkpt>
      <trkpt lat="47.80177" lon="-3.42557">
        <ele>37.63</ele>
        <time>2015-09-06T05:51:00Z</time>
      </trkpt>
      <trkpt lat="47.8018" lon="-3.42558">
        <ele>37.63</ele>
        <time>2015-09-06T05:51:01Z</time>
      </trkpt>
      <trkpt lat="47.80182" lon="-3.4256">
        <ele>38.11</ele>
        <time>2015-09-06T05:51:02Z</time>
      </trkpt>
      <trkpt lat="47.80184" lon="-3.42562">
        <ele>38.59</ele>
        <time>2015-09-06T05:51:03Z</time>
      </trkpt>
      <trkpt lat="47.80187" lon="-3.42564">
        <ele>39.07</ele>
        <time>2015-09-06T05:51:04Z</time>
      </trkpt>
      <trkpt lat="47.80189" lon="-3.42566">
        <ele>39.07</ele>
        <time>2015-09-06T05:51:05Z</time>
      </trkpt>
      <trkpt lat="47.8019" lon="-3.42568">
        <ele>39.07</ele>
        <time>2015-09-06T05:51:06Z</time>
      </trkpt>
      <trkpt lat="47.80192" lon="-3.4257">
        <ele>39.07</ele>
        <time>2015-09-06T05:51:07Z</time>
      </trkpt>
      <trkpt lat="47.80194" lon="-3.42572">
        <ele>40.03</ele>
        <time>2015-09-06T05:51:08Z</time>
      </trkpt>
      <trkpt lat="47.80195" lon="-3.42574">
        <ele>40.03</ele>
        <time>2015-09-06T05:51:09Z</time>
      </trkpt>
      <trkpt lat="47.80197" lon="-3.42576">
        <ele>40.03</ele>
        <time>2015-09-06T05:51:10Z</time>
      </trkpt>
      <trkpt lat="47.80198" lon="-3.42578">
        <ele>40.51</ele>
        <time>2015-09-06T05:51:11Z</time>
      </trkpt>
      <trkpt lat="47.80199" lon="-3.4258">
        <ele>40.51</ele>
        <time>2015-09-06T05:51:12Z</time>
      </trkpt>
      <trkpt lat="47.802" lon="-3.42582">
        <ele>41.47</ele>
        <time>2015-09-06T05:51:13Z</time>
      </trkpt>
      <trkpt lat="47.80201" lon="-3.42583">
        <ele>41.47</ele>
        <time>2015-09-06T05:51:14Z</time>
      </trkpt>
      <trkpt lat="47.80203" lon="-3.42585">
        <ele>41.47</ele>
        <time>2015-09-06T05:51:15Z</time>
      </trkpt>
      <trkpt lat="47.80205" lon="-3.42587">
        <ele>41.95</ele>
        <time>2015-09-06T05:51:16Z</time>
      </trkpt>
      <trkpt lat="47.80206" lon="-3.42589">
        <ele>42.44</ele>
        <time>2015-09-06T05:51:17Z</time>
      </trkpt>
      <trkpt lat="47.80207" lon="-3.4259">
        <ele>41.95</ele>
        <time>2015-09-06T05:51:18Z</time>
      </trkpt>
      <trkpt lat="47.80209" lon="-3.42591">
        <ele>42.92</ele>
        <time>2015-09-06T05:51:19Z</time>
      </trkpt>
      <trkpt lat="47.8021" lon="-3.42592">
        <ele>42.92</ele>
        <time>2015-09-06T05:51:20Z</time>
      </trkpt>
      <trkpt lat="47.80212" lon="-3.42594">
        <ele>42.92</ele>
        <time>2015-09-06T05:51:21Z</time>
      </trkpt>
      <trkpt lat="47.80215" lon="-3.42596">
        <ele>43.4</ele>
        <time>2015-09-06T05:51:22Z</time>
      </trkpt>
      <trkpt lat="47.80217" lon="-3.42599">
        <ele>43.4</ele>
        <time>2015-09-06T05:51:23Z</time>
      </trkpt>
      <trkpt lat="47.80219" lon="-3.42601">
        <ele>43.88</ele>
        <time>2015-09-06T05:51:24Z</time>
      </trkpt>
      <trkpt lat="47.80221" lon="-3.42603">
        <ele>43.88</ele>
        <time>2015-09-06T05:51:25Z</time>
      </trkpt>
      <trkpt lat="47.80223" lon="-3.42605">
        <ele>43.88</ele>
        <time>2015-09-06T05:51:26Z</time>
      </trkpt>
      <trkpt lat="47.80225" lon="-3.42607">
        <ele>44.84</ele>
        <time>2015-09-06T05:51:27Z</time>
      </trkpt>
      <trkpt lat="47.80228" lon="-3.4261">
        <ele>44.84</ele>
        <time>2015-09-06T05:51:28Z</time>
      </trkpt>
      <trkpt lat="47.8023" lon="-3.42612">
        <ele>44.84</ele>
        <time>2015-09-06T05:51:29Z</time>
      </trkpt>
      <trkpt lat="47.80233" lon="-3.42614">
        <ele>45.32</ele>
        <time>2015-09-06T05:51:30Z</time>
      </trkpt>
      <trkpt lat="47.80236" lon="-3.42617">
        <ele>45.32</ele>
        <time>2015-09-06T05:51:31Z</time>
      </trkpt>
      <trkpt lat="47.80237" lon="-3.4262">
        <ele>45.32</ele>
        <time>2015-09-06T05:51:32Z</time>
      </trkpt>
      <trkpt lat="47.80238" lon="-3.42623">
        <ele>45.8</ele>
        <time>2015-09-06T05:51:33Z</time>
      </trkpt>
      <trkpt lat="47.80239" lon="-3.42627">
        <ele>45.8</ele>
        <time>2015-09-06T05:51:34Z</time>
      </trkpt>
      <trkpt lat="47.8024" lon="-3.4263">
        <ele>45.8</ele>
        <time>2015-09-06T05:51:35Z</time>
      </trkpt>
      <trkpt lat="47.80241" lon="-3.42634">
        <ele>46.28</ele>
        <time>2015-09-06T05:51:36Z</time>
      </trkpt>
      <trkpt lat="47.80243" lon="-3.42637">
        <ele>46.28</ele>
        <time>2015-09-06T05:51:37Z</time>
      </trkpt>
      <trkpt lat="47.80244" lon="-3.4264">
        <ele>46.28</ele>
        <time>2015-09-06T05:51:38Z</time>
      </trkpt>
      <trkpt lat="47.80246" lon="-3.42643">
        <ele>46.76</ele>
        <time>2015-09-06T05:51:39Z</time>
      </trkpt>
      <trkpt lat="47.80249" lon="-3.42646">
        <ele>46.76</ele>
        <time>2015-09-06T05:51:40Z</time>
      </trkpt>
      <trkpt lat="47.80253" lon="-3.42648">
        <ele>46.76</ele>
        <time>2015-09-06T05:51:41Z</time>
      </trkpt>
      <trkpt lat="47.80255" lon="-3.42649">
        <ele>47.24</ele>
        <time>2015-09-06T05:51:42Z</time>
      </trkpt>
      <trkpt lat="47.80259" lon="-3.4265">
        <ele>47.24</ele>
        <time>2015-09-06T05:51:43Z</time>
      </trkpt>
      <trkpt lat="47.80263" lon="-3.42651">
        <ele>47.24</ele>
        <time>2015-09-06T05:51:44Z</time>
      </trkpt>
      <trkpt lat="47.80267" lon="-3.4265">
        <ele>47.24</ele>
        <time>2015-09-06T05:51:45Z</time>
      </trkpt>
      <trkpt lat="47.80272" lon="-3.42649">
        <ele>47.24</ele>
        <time>2015-09-06T05:51:46Z</time>
      </trkpt>
      <trkpt lat="47.80278" lon="-3.42648">
        <ele>47.24</ele>
        <time>2015-09-06T05:51:47Z</time>
      </trkpt>
      <trkpt lat="47.80283" lon="-3.42647">
        <ele>47.24</ele>
        <time>2015-09-06T05:51:48Z</time>
      </trkpt>
      <trkpt lat="47.80288" lon="-3.42646">
        <ele>47.24</ele>
        <time>2015-09-06T05:51:49Z</time>
      </trkpt>
      <trkpt lat="47.80294" lon="-3.42645">
        <ele>47.24</ele>
        <time>2015-09-06T05:51:50Z</time>
      </trkpt>
      <trkpt lat="47.80299" lon="-3.42645">
        <ele>47.24</ele>
        <time>2015-09-06T05:51:51Z</time>
      </trkpt>
      <trkpt lat="47.80305" lon="-3.42645">
        <ele>45.8</ele>
        <time>2015-09-06T05:51:52Z</time>
      </trkpt>
      <trkpt lat="47.8031" lon="-3.42645">
        <ele>45.8</ele>
        <time>2015-09-06T05:51:53Z</time>
      </trkpt>
      <trkpt lat="47.80316" lon="-3.42645">
        <ele>45.32</ele>
        <time>2015-09-06T05:51:54Z</time>
      </trkpt>
      <trkpt lat="47.80322" lon="-3.42647">
        <ele>45.32</ele>
        <time>2015-09-06T05:51:55Z</time>
      </trkpt>
      <trkpt lat="47.80327" lon="-3.42649">
        <ele>45.32</ele>
        <time>2015-09-06T05:51:56Z</time>
      </trkpt>
      <trkpt lat="47.80332" lon="-3.42653">
        <ele>45.32</ele>
        <time>2015-09-06T05:51:57Z</time>
      </trkpt>
      <trkpt lat="47.80336" lon="-3.42659">
        <ele>45.32</ele>
        <time>2015-09-06T05:51:58Z</time>
      </trkpt>
      <trkpt lat="47.80339" lon="-3.42666">
        <ele>45.32</ele>
        <time>2015-09-06T05:51:59Z</time>
      </trkpt>
      <trkpt lat="47.80341" lon="-3.42673">
        <ele>45.32</ele>
        <time>2015-09-06T05:52:00Z</time>
      </trkpt>
      <trkpt lat="47.80343" lon="-3.42681">
        <ele>45.32</ele>
        <time>2015-09-06T05:52:01Z</time>
      </trkpt>
      <trkpt lat="47.80344" lon="-3.42688">
        <ele>45.32</ele>
        <time>2015-09-06T05:52:02Z</time>
      </trkpt>
      <trkpt lat="47.80345" lon="-3.42695">
        <ele>45.32</ele>
        <time>2015-09-06T05:52:03Z</time>
      </trkpt>
      <trkpt lat="47.80346" lon="-3.42702">
        <ele>45.32</ele>
        <time>2015-09-06T05:52:04Z</time>
      </trkpt>
      <trkpt lat="47.80347" lon="-3.4271">
        <ele>45.32</ele>
        <time>2015-09-06T05:52:05Z</time>
      </trkpt>
      <trkpt lat="47.80347" lon="-3.42716">
        <ele>46.76</ele>
        <time>2015-09-06T05:52:06Z</time>
      </trkpt>
      <trkpt lat="47.80347" lon="-3.42723">
        <ele>47.24</ele>
        <time>2015-09-06T05:52:07Z</time>
      </trkpt>
      <trkpt lat="47.80348" lon="-3.42728">
        <ele>47.24</ele>
        <time>2015-09-06T05:52:08Z</time>
      </trkpt>
      <trkpt lat="47.80349" lon="-3.42732">
        <ele>47.24</ele>
        <time>2015-09-06T05:52:09Z</time>
      </trkpt>
      <trkpt lat="47.80352" lon="-3.42733">
        <ele>47.24</ele>
        <time>2015-09-06T05:52:10Z</time>
      </trkpt>
      <trkpt lat="47.80355" lon="-3.42732">
        <ele>47.72</ele>
        <time>2015-09-06T05:52:11Z</time>
      </trkpt>
      <trkpt lat="47.80357" lon="-3.42732">
        <ele>47.72</ele>
        <time>2015-09-06T05:52:12Z</time>
      </trkpt>
      <trkpt lat="47.80361" lon="-3.42732">
        <ele>47.72</ele>
        <time>2015-09-06T05:52:13Z</time>
      </trkpt>
      <trkpt lat="47.80365" lon="-3.42731">
        <ele>47.72</ele>
        <time>2015-09-06T05:52:14Z</time>
      </trkpt>
      <trkpt lat="47.80369" lon="-3.4273">
        <ele>46.28</ele>
        <time>2015-09-06T05:52:15Z</time>
      </trkpt>
      <trkpt lat="47.80372" lon="-3.42728">
        <ele>45.8</ele>
        <time>2015-09-06T05:52:16Z</time>
      </trkpt>
      <trkpt lat="47.80376" lon="-3.42726">
        <ele>45.32</ele>
        <time>2015-09-06T05:52:17Z</time>
      </trkpt>
      <trkpt lat="47.80379" lon="-3.42724">
        <ele>45.32</ele>
        <time>2015-09-06T05:52:18Z</time>
      </trkpt>
      <trkpt lat="47.80383" lon="-3.42723">
        <ele>44.84</ele>
        <time>2015-09-06T05:52:19Z</time>
      </trkpt>
      <trkpt lat="47.80387" lon="-3.42723">
        <ele>44.84</ele>
        <time>2015-09-06T05:52:20Z</time>
      </trkpt>
      <trkpt lat="47.80392" lon="-3.42722">
        <ele>43.88</ele>
        <time>2015-09-06T05:52:21Z</time>
      </trkpt>
      <trkpt lat="47.80396" lon="-3.42722">
        <ele>43.4</ele>
        <time>2015-09-06T05:52:22Z</time>
      </trkpt>
      <trkpt lat="47.804" lon="-3.42721">
        <ele>42.44</ele>
        <time>2015-09-06T05:52:23Z</time>
      </trkpt>
      <trkpt lat="47.80404" lon="-3.4272">
        <ele>42.44</ele>
        <time>2015-09-06T05:52:24Z</time>
      </trkpt>
      <trkpt lat="47.80408" lon="-3.4272">
        <ele>41.95</ele>
        <time>2015-09-06T05:52:25Z</time>
      </trkpt>
      <trkpt lat="47.80411" lon="-3.42719">
        <ele>41.95</ele>
        <time>2015-09-06T05:52:26Z</time>
      </trkpt>
      <trkpt lat="47.80415" lon="-3.42719">
        <ele>41.95</ele>
        <time>2015-09-06T05:52:27Z</time>
      </trkpt>
      <trkpt lat="47.80419" lon="-3.4272">
        <ele>41.47</ele>
        <time>2015-09-06T05:52:28Z</time>
      </trkpt>
      <trkpt lat="47.80423" lon="-3.4272">
        <ele>40.99</ele>
        <time>2015-09-06T05:52:29Z</time>
      </trkpt>
      <trkpt lat="47.80428" lon="-3.42721">
        <ele>40.99</ele>
        <time>2015-09-06T05:52:30Z</time>
      </trkpt>
      <trkpt lat="47.80432" lon="-3.42721">
        <ele>40.51</ele>
        <time>2015-09-06T05:52:31Z</time>
      </trkpt>
      <trkpt lat="47.80438" lon="-3.42722">
        <ele>40.03</ele>
        <time>2015-09-06T05:52:32Z</time>
      </trkpt>
      <trkpt lat="47.80443" lon="-3.42724">
        <ele>39.55</ele>
        <time>2015-09-06T05:52:33Z</time>
      </trkpt>
      <trkpt lat="47.80449" lon="-3.42725">
        <ele>39.07</ele>
        <time>2015-09-06T05:52:34Z</time>
      </trkpt>
      <trkpt lat="47.80455" lon="-3.42726">
        <ele>38.59</ele>
        <time>2015-09-06T05:52:35Z</time>
      </trkpt>
      <trkpt lat="47.80461" lon="-3.42727">
        <ele>38.59</ele>
        <time>2015-09-06T05:52:36Z</time>
      </trkpt>
      <trkpt lat="47.80466" lon="-3.42727">
        <ele>38.11</ele>
        <time>2015-09-06T05:52:37Z</time>
      </trkpt>
      <trkpt lat="47.80471" lon="-3.42727">
        <ele>38.11</ele>
        <time>2015-09-06T05:52:38Z</time>
      </trkpt>
      <trkpt lat="47.80477" lon="-3.42729">
        <ele>38.11</ele>
        <time>2015-09-06T05:52:39Z</time>
      </trkpt>
      <trkpt lat="47.80481" lon="-3.4273">
        <ele>38.11</ele>
        <time>2015-09-06T05:52:40Z</time>
      </trkpt>
      <trkpt lat="47.80486" lon="-3.42731">
        <ele>37.63</ele>
        <time>2015-09-06T05:52:41Z</time>
      </trkpt>
      <trkpt lat="47.80491" lon="-3.4273">
        <ele>37.63</ele>
        <time>2015-09-06T05:52:42Z</time>
      </trkpt>
      <trkpt lat="47.80497" lon="-3.42727">
        <ele>37.15</ele>
        <time>2015-09-06T05:52:43Z</time>
      </trkpt>
      <trkpt lat="47.80501" lon="-3.42721">
        <ele>37.15</ele>
        <time>2015-09-06T05:52:44Z</time>
      </trkpt>
      <trkpt lat="47.80504" lon="-3.42714">
        <ele>36.67</ele>
        <time>2015-09-06T05:52:45Z</time>
      </trkpt>
      <trkpt lat="47.80506" lon="-3.42705">
        <ele>36.19</ele>
        <time>2015-09-06T05:52:46Z</time>
      </trkpt>
      <trkpt lat="47.80507" lon="-3.42696">
        <ele>36.19</ele>
        <time>2015-09-06T05:52:47Z</time>
      </trkpt>
      <trkpt lat="47.80508" lon="-3.42685">
        <ele>35.23</ele>
        <time>2015-09-06T05:52:48Z</time>
      </trkpt>
      <trkpt lat="47.8051" lon="-3.42675">
        <ele>35.23</ele>
        <time>2015-09-06T05:52:49Z</time>
      </trkpt>
      <trkpt lat="47.80512" lon="-3.42666">
        <ele>34.74</ele>
        <time>2015-09-06T05:52:50Z</time>
      </trkpt>
      <trkpt lat="47.80516" lon="-3.42657">
        <ele>34.74</ele>
        <time>2015-09-06T05:52:51Z</time>
      </trkpt>
      <trkpt lat="47.80521" lon="-3.42648">
        <ele>34.74</ele>
        <time>2015-09-06T05:52:52Z</time>
      </trkpt>
      <trkpt lat="47.80525" lon="-3.42641">
        <ele>34.74</ele>
        <time>2015-09-06T05:52:53Z</time>
      </trkpt>
      <trkpt lat="47.80529" lon="-3.42633">
        <ele>34.74</ele>
        <time>2015-09-06T05:52:54Z</time>
      </trkpt>
      <trkpt lat="47.80533" lon="-3.42625">
        <ele>34.74</ele>
        <time>2015-09-06T05:52:55Z</time>
      </trkpt>
      <trkpt lat="47.80536" lon="-3.42617">
        <ele>34.74</ele>
        <time>2015-09-06T05:52:56Z</time>
      </trkpt>
      <trkpt lat="47.8054" lon="-3.42609">
        <ele>34.74</ele>
        <time>2015-09-06T05:52:57Z</time>
      </trkpt>
      <trkpt lat="47.80542" lon="-3.42601">
        <ele>34.74</ele>
        <time>2015-09-06T05:52:58Z</time>
      </trkpt>
      <trkpt lat="47.80545" lon="-3.42593">
        <ele>34.74</ele>
        <time>2015-09-06T05:52:59Z</time>
      </trkpt>
      <trkpt lat="47.80547" lon="-3.42585">
        <ele>34.74</ele>
        <time>2015-09-06T05:53:00Z</time>
      </trkpt>
      <trkpt lat="47.80548" lon="-3.42576">
        <ele>34.74</ele>
        <time>2015-09-06T05:53:01Z</time>
      </trkpt>
      <trkpt lat="47.80548" lon="-3.42567">
        <ele>34.74</ele>
        <time>2015-09-06T05:53:02Z</time>
      </trkpt>
      <trkpt lat="47.80548" lon="-3.42557">
        <ele>34.74</ele>
        <time>2015-09-06T05:53:03Z</time>
      </trkpt>
      <trkpt lat="47.80549" lon="-3.42547">
        <ele>34.74</ele>
        <time>2015-09-06T05:53:04Z</time>
      </trkpt>
      <trkpt lat="47.8055" lon="-3.42539">
        <ele>34.74</ele>
        <time>2015-09-06T05:53:05Z</time>
      </trkpt>
      <trkpt lat="47.80552" lon="-3.4253">
        <ele>34.74</ele>
        <time>2015-09-06T05:53:06Z</time>
      </trkpt>
      <trkpt lat="47.80553" lon="-3.42521">
        <ele>34.74</ele>
        <time>2015-09-06T05:53:07Z</time>
      </trkpt>
      <trkpt lat="47.80554" lon="-3.42515">
        <ele>34.74</ele>
        <time>2015-09-06T05:53:08Z</time>
      </trkpt>
      <trkpt lat="47.80555" lon="-3.42509">
        <ele>34.74</ele>
        <time>2015-09-06T05:53:09Z</time>
      </trkpt>
      <trkpt lat="47.80558" lon="-3.42506">
        <ele>34.26</ele>
        <time>2015-09-06T05:53:10Z</time>
      </trkpt>
      <trkpt lat="47.80561" lon="-3.42504">
        <ele>34.26</ele>
        <time>2015-09-06T05:53:11Z</time>
      </trkpt>
      <trkpt lat="47.80564" lon="-3.42501">
        <ele>33.78</ele>
        <time>2015-09-06T05:53:12Z</time>
      </trkpt>
      <trkpt lat="47.80567" lon="-3.42499">
        <ele>33.3</ele>
        <time>2015-09-06T05:53:13Z</time>
      </trkpt>
      <trkpt lat="47.8057" lon="-3.42497">
        <ele>33.3</ele>
        <time>2015-09-06T05:53:14Z</time>
      </trkpt>
      <trkpt lat="47.80572" lon="-3.42495">
        <ele>32.34</ele>
        <time>2015-09-06T05:53:15Z</time>
      </trkpt>
      <trkpt lat="47.80575" lon="-3.42495">
        <ele>32.34</ele>
        <time>2015-09-06T05:53:16Z</time>
      </trkpt>
      <trkpt lat="47.80577" lon="-3.42497">
        <ele>31.86</ele>
        <time>2015-09-06T05:53:17Z</time>
      </trkpt>
      <trkpt lat="47.80578" lon="-3.42499">
        <ele>31.86</ele>
        <time>2015-09-06T05:53:18Z</time>
      </trkpt>
      <trkpt lat="47.80579" lon="-3.42501">
        <ele>31.86</ele>
        <time>2015-09-06T05:53:19Z</time>
      </trkpt>
      <trkpt lat="47.80579" lon="-3.42503">
        <ele>31.86</ele>
        <time>2015-09-06T05:53:20Z</time>
      </trkpt>
      <trkpt lat="47.80579" lon="-3.42505">
        <ele>32.82</ele>
        <time>2015-09-06T05:53:21Z</time>
      </trkpt>
      <trkpt lat="47.80579" lon="-3.42506">
        <ele>32.82</ele>
        <time>2015-09-06T05:53:22Z</time>
      </trkpt>
      <trkpt lat="47.80581" lon="-3.42505">
        <ele>33.3</ele>
        <time>2015-09-06T05:53:23Z</time>
      </trkpt>
      <trkpt lat="47.80583" lon="-3.42502">
        <ele>33.3</ele>
        <time>2015-09-06T05:53:24Z</time>
      </trkpt>
      <trkpt lat="47.80586" lon="-3.425">
        <ele>31.86</ele>
        <time>2015-09-06T05:53:25Z</time>
      </trkpt>
      <trkpt lat="47.80588" lon="-3.42499">
        <ele>31.86</ele>
        <time>2015-09-06T05:53:26Z</time>
      </trkpt>
      <trkpt lat="47.80591" lon="-3.425">
        <ele>31.38</ele>
        <time>2015-09-06T05:53:27Z</time>
      </trkpt>
      <trkpt lat="47.80593" lon="-3.42502">
        <ele>31.38</ele>
        <time>2015-09-06T05:53:28Z</time>
      </trkpt>
      <trkpt lat="47.80595" lon="-3.42504">
        <ele>31.38</ele>
        <time>2015-09-06T05:53:29Z</time>
      </trkpt>
      <trkpt lat="47.80597" lon="-3.42508">
        <ele>31.38</ele>
        <time>2015-09-06T05:53:30Z</time>
      </trkpt>
      <trkpt lat="47.80598" lon="-3.42512">
        <ele>31.38</ele>
        <time>2015-09-06T05:53:31Z</time>
      </trkpt>
      <trkpt lat="47.80599" lon="-3.42515">
        <ele>31.38</ele>
        <time>2015-09-06T05:53:32Z</time>
      </trkpt>
      <trkpt lat="47.80601" lon="-3.42519">
        <ele>31.38</ele>
        <time>2015-09-06T05:53:33Z</time>
      </trkpt>
      <trkpt lat="47.80603" lon="-3.42521">
        <ele>31.38</ele>
        <time>2015-09-06T05:53:34Z</time>
      </trkpt>
      <trkpt lat="47.80606" lon="-3.42521">
        <ele>31.38</ele>
        <time>2015-09-06T05:53:35Z</time>
      </trkpt>
      <trkpt lat="47.80609" lon="-3.42523">
        <ele>31.38</ele>
        <time>2015-09-06T05:53:36Z</time>
      </trkpt>
      <trkpt lat="47.80611" lon="-3.42526">
        <ele>31.38</ele>
        <time>2015-09-06T05:53:37Z</time>
      </trkpt>
      <trkpt lat="47.80612" lon="-3.42529">
        <ele>31.38</ele>
        <time>2015-09-06T05:53:38Z</time>
      </trkpt>
      <trkpt lat="47.80612" lon="-3.42533">
        <ele>31.38</ele>
        <time>2015-09-06T05:53:39Z</time>
      </trkpt>
      <trkpt lat="47.80613" lon="-3.42536">
        <ele>31.38</ele>
        <time>2015-09-06T05:53:40Z</time>
      </trkpt>
      <trkpt lat="47.80613" lon="-3.42539">
        <ele>32.34</ele>
        <time>2015-09-06T05:53:41Z</time>
      </trkpt>
      <trkpt lat="47.80613" lon="-3.42543">
        <ele>33.3</ele>
        <time>2015-09-06T05:53:42Z</time>
      </trkpt>
      <trkpt lat="47.80613" lon="-3.42547">
        <ele>33.3</ele>
        <time>2015-09-06T05:53:43Z</time>
      </trkpt>
      <trkpt lat="47.80613" lon="-3.42552">
        <ele>33.78</ele>
        <time>2015-09-06T05:53:44Z</time>
      </trkpt>
      <trkpt lat="47.80612" lon="-3.42556">
        <ele>33.78</ele>
        <time>2015-09-06T05:53:45Z</time>
      </trkpt>
      <trkpt lat="47.80611" lon="-3.4256">
        <ele>34.26</ele>
        <time>2015-09-06T05:53:46Z</time>
      </trkpt>
      <trkpt lat="47.8061" lon="-3.42564">
        <ele>34.74</ele>
        <time>2015-09-06T05:53:47Z</time>
      </trkpt>
      <trkpt lat="47.80609" lon="-3.42569">
        <ele>34.74</ele>
        <time>2015-09-06T05:53:48Z</time>
      </trkpt>
      <trkpt lat="47.80609" lon="-3.42574">
        <ele>34.74</ele>
        <time>2015-09-06T05:53:49Z</time>
      </trkpt>
      <trkpt lat="47.80608" lon="-3.4258">
        <ele>34.74</ele>
        <time>2015-09-06T05:53:50Z</time>
      </trkpt>
      <trkpt lat="47.80607" lon="-3.42586">
        <ele>34.74</ele>
        <time>2015-09-06T05:53:51Z</time>
      </trkpt>
      <trkpt lat="47.80606" lon="-3.42593">
        <ele>34.74</ele>
        <time>2015-09-06T05:53:52Z</time>
      </trkpt>
      <trkpt lat="47.80606" lon="-3.42599">
        <ele>34.74</ele>
        <time>2015-09-06T05:53:53Z</time>
      </trkpt>
      <trkpt lat="47.80604" lon="-3.42605">
        <ele>35.23</ele>
        <time>2015-09-06T05:53:54Z</time>
      </trkpt>
      <trkpt lat="47.80602" lon="-3.42611">
        <ele>35.23</ele>
        <time>2015-09-06T05:53:55Z</time>
      </trkpt>
      <trkpt lat="47.80602" lon="-3.42617">
        <ele>35.23</ele>
        <time>2015-09-06T05:53:56Z</time>
      </trkpt>
      <trkpt lat="47.80602" lon="-3.42624">
        <ele>36.19</ele>
        <time>2015-09-06T05:53:57Z</time>
      </trkpt>
      <trkpt lat="47.80603" lon="-3.42632">
        <ele>36.19</ele>
        <time>2015-09-06T05:53:58Z</time>
      </trkpt>
      <trkpt lat="47.80603" lon="-3.4264">
        <ele>36.19</ele>
        <time>2015-09-06T05:53:59Z</time>
      </trkpt>
      <trkpt lat="47.80602" lon="-3.42649">
        <ele>36.19</ele>
        <time>2015-09-06T05:54:00Z</time>
      </trkpt>
      <trkpt lat="47.806" lon="-3.42657">
        <ele>36.19</ele>
        <time>2015-09-06T05:54:01Z</time>
      </trkpt>
      <trkpt lat="47.80598" lon="-3.42664">
        <ele>36.67</ele>
        <time>2015-09-06T05:54:02Z</time>
      </trkpt>
      <trkpt lat="47.80596" lon="-3.42671">
        <ele>36.67</ele>
        <time>2015-09-06T05:54:03Z</time>
      </trkpt>
      <trkpt lat="47.80594" lon="-3.42678">
        <ele>36.19</ele>
        <time>2015-09-06T05:54:04Z</time>
      </trkpt>
      <trkpt lat="47.80591" lon="-3.42685">
        <ele>36.67</ele>
        <time>2015-09-06T05:54:05Z</time>
      </trkpt>
      <trkpt lat="47.80589" lon="-3.42692">
        <ele>36.67</ele>
        <time>2015-09-06T05:54:06Z</time>
      </trkpt>
      <trkpt lat="47.80586" lon="-3.42699">
        <ele>36.67</ele>
        <time>2015-09-06T05:54:07Z</time>
      </trkpt>
      <trkpt lat="47.80585" lon="-3.42705">
        <ele>36.67</ele>
        <time>2015-09-06T05:54:08Z</time>
      </trkpt>
      <trkpt lat="47.80584" lon="-3.42712">
        <ele>36.67</ele>
        <time>2015-09-06T05:54:09Z</time>
      </trkpt>
      <trkpt lat="47.80584" lon="-3.42719">
        <ele>36.67</ele>
        <time>2015-09-06T05:54:10Z</time>
      </trkpt>
      <trkpt lat="47.80584" lon="-3.42725">
        <ele>36.67</ele>
        <time>2015-09-06T05:54:11Z</time>
      </trkpt>
      <trkpt lat="47.80582" lon="-3.42731">
        <ele>36.19</ele>
        <time>2015-09-06T05:54:12Z</time>
      </trkpt>
      <trkpt lat="47.8058" lon="-3.42736">
        <ele>36.19</ele>
        <time>2015-09-06T05:54:13Z</time>
      </trkpt>
      <trkpt lat="47.80578" lon="-3.4274">
        <ele>36.19</ele>
        <time>2015-09-06T05:54:14Z</time>
      </trkpt>
      <trkpt lat="47.80576" lon="-3.42742">
        <ele>36.19</ele>
        <time>2015-09-06T05:54:15Z</time>
      </trkpt>
      <trkpt lat="47.80575" lon="-3.42743">
        <ele>36.19</ele>
        <time>2015-09-06T05:54:16Z</time>
      </trkpt>
      <trkpt lat="47.80574" lon="-3.42746">
        <ele>36.19</ele>
        <time>2015-09-06T05:54:17Z</time>
      </trkpt>
      <trkpt lat="47.80573" lon="-3.42747">
        <ele>36.19</ele>
        <time>2015-09-06T05:54:18Z</time>
      </trkpt>
      <trkpt lat="47.80575" lon="-3.42748">
        <ele>36.19</ele>
        <time>2015-09-06T05:54:19Z</time>
      </trkpt>
      <trkpt lat="47.80577" lon="-3.42747">
        <ele>36.19</ele>
        <time>2015-09-06T05:54:20Z</time>
      </trkpt>
      <trkpt lat="47.80578" lon="-3.42745">
        <ele>36.19</ele>
        <time>2015-09-06T05:54:21Z</time>
      </trkpt>
      <trkpt lat="47.80578" lon="-3.42742">
        <ele>36.19</ele>
        <time>2015-09-06T05:54:22Z</time>
      </trkpt>
      <trkpt lat="47.80579" lon="-3.4274">
        <ele>36.19</ele>
        <time>2015-09-06T05:54:23Z</time>
      </trkpt>
      <trkpt lat="47.80579" lon="-3.42737">
        <ele>36.19</ele>
        <time>2015-09-06T05:54:24Z</time>
      </trkpt>
      <trkpt lat="47.8058" lon="-3.42735">
        <ele>36.19</ele>
        <time>2015-09-06T05:54:25Z</time>
      </trkpt>
      <trkpt lat="47.8058" lon="-3.42732">
        <ele>36.19</ele>
        <time>2015-09-06T05:54:26Z</time>
      </trkpt>
      <trkpt lat="47.8058" lon="-3.4273">
        <ele>36.19</ele>
        <time>2015-09-06T05:54:27Z</time>
      </trkpt>
      <trkpt lat="47.80579" lon="-3.42729">
        <ele>36.19</ele>
        <time>2015-09-06T05:54:28Z</time>
      </trkpt>
      <trkpt lat="47.80577" lon="-3.42728">
        <ele>36.19</ele>
        <time>2015-09-06T05:54:29Z</time>
      </trkpt>
      <trkpt lat="47.80574" lon="-3.42728">
        <ele>36.19</ele>
        <time>2015-09-06T05:54:30Z</time>
      </trkpt>
      <trkpt lat="47.80572" lon="-3.42729">
        <ele>36.19</ele>
        <time>2015-09-06T05:54:31Z</time>
      </trkpt>
      <trkpt lat="47.80569" lon="-3.42729">
        <ele>36.19</ele>
        <time>2015-09-06T05:54:32Z</time>
      </trkpt>
      <trkpt lat="47.80566" lon="-3.42728">
        <ele>36.19</ele>
        <time>2015-09-06T05:54:33Z</time>
      </trkpt>
      <trkpt lat="47.80564" lon="-3.42727">
        <ele>36.19</ele>
        <time>2015-09-06T05:54:34Z</time>
      </trkpt>
      <trkpt lat="47.80562" lon="-3.42725">
        <ele>36.19</ele>
        <time>2015-09-06T05:54:35Z</time>
      </trkpt>
      <trkpt lat="47.80561" lon="-3.42723">
        <ele>36.67</ele>
        <time>2015-09-06T05:54:36Z</time>
      </trkpt>
      <trkpt lat="47.80562" lon="-3.4272">
        <ele>36.67</ele>
        <time>2015-09-06T05:54:37Z</time>
      </trkpt>
      <trkpt lat="47.80562" lon="-3.42718">
        <ele>36.19</ele>
        <time>2015-09-06T05:54:38Z</time>
      </trkpt>
      <trkpt lat="47.80563" lon="-3.42715">
        <ele>36.19</ele>
        <time>2015-09-06T05:54:39Z</time>
      </trkpt>
      <trkpt lat="47.80563" lon="-3.42712">
        <ele>36.19</ele>
        <time>2015-09-06T05:54:40Z</time>
      </trkpt>
      <trkpt lat="47.80564" lon="-3.42709">
        <ele>36.19</ele>
        <time>2015-09-06T05:54:41Z</time>
      </trkpt>
      <trkpt lat="47.80566" lon="-3.42706">
        <ele>36.19</ele>
        <time>2015-09-06T05:54:42Z</time>
      </trkpt>
      <trkpt lat="47.80568" lon="-3.42702">
        <ele>36.19</ele>
        <time>2015-09-06T05:54:43Z</time>
      </trkpt>
      <trkpt lat="47.8057" lon="-3.42698">
        <ele>36.19</ele>
        <time>2015-09-06T05:54:44Z</time>
      </trkpt>
      <trkpt lat="47.80572" lon="-3.42695">
        <ele>36.19</ele>
        <time>2015-09-06T05:54:45Z</time>
      </trkpt>
      <trkpt lat="47.80575" lon="-3.42691">
        <ele>36.19</ele>
        <time>2015-09-06T05:54:46Z</time>
      </trkpt>
      <trkpt lat="47.80577" lon="-3.42686">
        <ele>36.19</ele>
        <time>2015-09-06T05:54:47Z</time>
      </trkpt>
      <trkpt lat="47.80579" lon="-3.42682">
        <ele>36.19</ele>
        <time>2015-09-06T05:54:48Z</time>
      </trkpt>
      <trkpt lat="47.80581" lon="-3.42676">
        <ele>36.19</ele>
        <time>2015-09-06T05:54:49Z</time>
      </trkpt>
      <trkpt lat="47.80583" lon="-3.42671">
        <ele>36.19</ele>
        <time>2015-09-06T05:54:50Z</time>
      </trkpt>
      <trkpt lat="47.80585" lon="-3.42666">
        <ele>36.19</ele>
        <time>2015-09-06T05:54:51Z</time>
      </trkpt>
      <trkpt lat="47.80587" lon="-3.4266">
        <ele>36.19</ele>
        <time>2015-09-06T05:54:52Z</time>
      </trkpt>
      <trkpt lat="47.80589" lon="-3.42655">
        <ele>36.19</ele>
        <time>2015-09-06T05:54:53Z</time>
      </trkpt>
      <trkpt lat="47.80592" lon="-3.42647">
        <ele>36.19</ele>
        <time>2015-09-06T05:54:54Z</time>
      </trkpt>
      <trkpt lat="47.80594" lon="-3.42644">
        <ele>36.19</ele>
        <time>2015-09-06T05:54:55Z</time>
      </trkpt>
      <trkpt lat="47.80596" lon="-3.4264">
        <ele>36.19</ele>
        <time>2015-09-06T05:54:56Z</time>
      </trkpt>
      <trkpt lat="47.80599" lon="-3.42636">
        <ele>36.19</ele>
        <time>2015-09-06T05:54:57Z</time>
      </trkpt>
      <trkpt lat="47.80601" lon="-3.42631">
        <ele>36.19</ele>
        <time>2015-09-06T05:54:58Z</time>
      </trkpt>
      <trkpt lat="47.80603" lon="-3.42627">
        <ele>36.19</ele>
        <time>2015-09-06T05:54:59Z</time>
      </trkpt>
      <trkpt lat="47.80606" lon="-3.42622">
        <ele>36.19</ele>
        <time>2015-09-06T05:55:00Z</time>
      </trkpt>
      <trkpt lat="47.80608" lon="-3.42618">
        <ele>36.19</ele>
        <time>2015-09-06T05:55:01Z</time>
      </trkpt>
      <trkpt lat="47.8061" lon="-3.42612">
        <ele>35.23</ele>
        <time>2015-09-06T05:55:02Z</time>
      </trkpt>
      <trkpt lat="47.8061" lon="-3.42607">
        <ele>35.23</ele>
        <time>2015-09-06T05:55:03Z</time>
      </trkpt>
      <trkpt lat="47.80611" lon="-3.42602">
        <ele>35.23</ele>
        <time>2015-09-06T05:55:04Z</time>
      </trkpt>
      <trkpt lat="47.80611" lon="-3.42597">
        <ele>35.23</ele>
        <time>2015-09-06T05:55:05Z</time>
      </trkpt>
      <trkpt lat="47.80613" lon="-3.42592">
        <ele>35.23</ele>
        <time>2015-09-06T05:55:06Z</time>
      </trkpt>
      <trkpt lat="47.80614" lon="-3.42587">
        <ele>34.74</ele>
        <time>2015-09-06T05:55:07Z</time>
      </trkpt>
      <trkpt lat="47.80617" lon="-3.42582">
        <ele>34.26</ele>
        <time>2015-09-06T05:55:08Z</time>
      </trkpt>
      <trkpt lat="47.80619" lon="-3.42577">
        <ele>34.26</ele>
        <time>2015-09-06T05:55:09Z</time>
      </trkpt>
      <trkpt lat="47.80621" lon="-3.42571">
        <ele>33.78</ele>
        <time>2015-09-06T05:55:10Z</time>
      </trkpt>
      <trkpt lat="47.80622" lon="-3.42566">
        <ele>33.78</ele>
        <time>2015-09-06T05:55:11Z</time>
      </trkpt>
      <trkpt lat="47.80623" lon="-3.42563">
        <ele>33.3</ele>
        <time>2015-09-06T05:55:12Z</time>
      </trkpt>
      <trkpt lat="47.80623" lon="-3.4256">
        <ele>33.3</ele>
        <time>2015-09-06T05:55:13Z</time>
      </trkpt>
      <trkpt lat="47.80623" lon="-3.42559">
        <ele>33.3</ele>
        <time>2015-09-06T05:55:14Z</time>
      </trkpt>
      <trkpt lat="47.80623" lon="-3.42557">
        <ele>32.82</ele>
        <time>2015-09-06T05:55:15Z</time>
      </trkpt>
      <trkpt lat="47.8062" lon="-3.42545">
        <ele>32.82</ele>
        <time>2015-09-06T05:55:40Z</time>
      </trkpt>
      <trkpt lat="47.80621" lon="-3.42543">
        <ele>32.34</ele>
        <time>2015-09-06T05:55:41Z</time>
      </trkpt>
      <trkpt lat="47.80622" lon="-3.42542">
        <ele>32.34</ele>
        <time>2015-09-06T05:55:42Z</time>
      </trkpt>
      <trkpt lat="47.80623" lon="-3.42541">
        <ele>31.86</ele>
        <time>2015-09-06T05:55:43Z</time>
      </trkpt>
      <trkpt lat="47.80624" lon="-3.42542">
        <ele>31.86</ele>
        <time>2015-09-06T05:55:44Z</time>
      </trkpt>
      <trkpt lat="47.80625" lon="-3.42543">
        <ele>31.86</ele>
        <time>2015-09-06T05:55:45Z</time>
      </trkpt>
      <trkpt lat="47.80626" lon="-3.42544">
        <ele>31.38</ele>
        <time>2015-09-06T05:55:46Z</time>
      </trkpt>
      <trkpt lat="47.80627" lon="-3.42546">
        <ele>30.42</ele>
        <time>2015-09-06T05:55:47Z</time>
      </trkpt>
      <trkpt lat="47.8063" lon="-3.42549">
        <ele>29.94</ele>
        <time>2015-09-06T05:55:48Z</time>
      </trkpt>
      <trkpt lat="47.80631" lon="-3.42551">
        <ele>29.46</ele>
        <time>2015-09-06T05:55:49Z</time>
      </trkpt>
      <trkpt lat="47.80633" lon="-3.42554">
        <ele>28.5</ele>
        <time>2015-09-06T05:55:50Z</time>
      </trkpt>
      <trkpt lat="47.80633" lon="-3.42556">
        <ele>28.02</ele>
        <time>2015-09-06T05:55:51Z</time>
      </trkpt>
      <trkpt lat="47.80634" lon="-3.42559">
        <ele>28.02</ele>
        <time>2015-09-06T05:55:52Z</time>
      </trkpt>
      <trkpt lat="47.80633" lon="-3.42563">
        <ele>28.02</ele>
        <time>2015-09-06T05:55:53Z</time>
      </trkpt>
      <trkpt lat="47.80632" lon="-3.42568">
        <ele>28.02</ele>
        <time>2015-09-06T05:55:54Z</time>
      </trkpt>
      <trkpt lat="47.80631" lon="-3.42574">
        <ele>28.02</ele>
        <time>2015-09-06T05:55:55Z</time>
      </trkpt>
      <trkpt lat="47.8063" lon="-3.42579">
        <ele>28.02</ele>
        <time>2015-09-06T05:55:56Z</time>
      </trkpt>
      <trkpt lat="47.80629" lon="-3.42586">
        <ele>28.02</ele>
        <time>2015-09-06T05:55:57Z</time>
      </trkpt>
      <trkpt lat="47.80628" lon="-3.42592">
        <ele>28.02</ele>
        <time>2015-09-06T05:55:58Z</time>
      </trkpt>
      <trkpt lat="47.80627" lon="-3.42599">
        <ele>28.02</ele>
        <time>2015-09-06T05:55:59Z</time>
      </trkpt>
      <trkpt lat="47.80627" lon="-3.42605">
        <ele>28.02</ele>
        <time>2015-09-06T05:56:00Z</time>
      </trkpt>
      <trkpt lat="47.80626" lon="-3.42612">
        <ele>28.02</ele>
        <time>2015-09-06T05:56:01Z</time>
      </trkpt>
      <trkpt lat="47.80626" lon="-3.42618">
        <ele>28.02</ele>
        <time>2015-09-06T05:56:02Z</time>
      </trkpt>
      <trkpt lat="47.80626" lon="-3.42625">
        <ele>28.02</ele>
        <time>2015-09-06T05:56:03Z</time>
      </trkpt>
      <trkpt lat="47.80626" lon="-3.42631">
        <ele>28.02</ele>
        <time>2015-09-06T05:56:04Z</time>
      </trkpt>
      <trkpt lat="47.80627" lon="-3.42638">
        <ele>28.02</ele>
        <time>2015-09-06T05:56:05Z</time>
      </trkpt>
      <trkpt lat="47.80627" lon="-3.42644">
        <ele>28.02</ele>
        <time>2015-09-06T05:56:06Z</time>
      </trkpt>
      <trkpt lat="47.80627" lon="-3.42651">
        <ele>28.02</ele>
        <time>2015-09-06T05:56:07Z</time>
      </trkpt>
      <trkpt lat="47.80627" lon="-3.42657">
        <ele>28.02</ele>
        <time>2015-09-06T05:56:08Z</time>
      </trkpt>
      <trkpt lat="47.80627" lon="-3.42663">
        <ele>29.46</ele>
        <time>2015-09-06T05:56:09Z</time>
      </trkpt>
      <trkpt lat="47.80627" lon="-3.42669">
        <ele>29.46</ele>
        <time>2015-09-06T05:56:10Z</time>
      </trkpt>
      <trkpt lat="47.80626" lon="-3.42675">
        <ele>29.46</ele>
        <time>2015-09-06T05:56:11Z</time>
      </trkpt>
      <trkpt lat="47.80625" lon="-3.4268">
        <ele>29.94</ele>
        <time>2015-09-06T05:56:12Z</time>
      </trkpt>
      <trkpt lat="47.80624" lon="-3.42686">
        <ele>29.94</ele>
        <time>2015-09-06T05:56:13Z</time>
      </trkpt>
      <trkpt lat="47.80623" lon="-3.42691">
        <ele>30.42</ele>
        <time>2015-09-06T05:56:14Z</time>
      </trkpt>
      <trkpt lat="47.80621" lon="-3.42696">
        <ele>30.42</ele>
        <time>2015-09-06T05:56:15Z</time>
      </trkpt>
      <trkpt lat="47.80619" lon="-3.42701">
        <ele>31.38</ele>
        <time>2015-09-06T05:56:16Z</time>
      </trkpt>
      <trkpt lat="47.80617" lon="-3.42705">
        <ele>31.38</ele>
        <time>2015-09-06T05:56:17Z</time>
      </trkpt>
      <trkpt lat="47.80615" lon="-3.4271">
        <ele>31.38</ele>
        <time>2015-09-06T05:56:18Z</time>
      </trkpt>
      <trkpt lat="47.80612" lon="-3.42714">
        <ele>31.86</ele>
        <time>2015-09-06T05:56:19Z</time>
      </trkpt>
      <trkpt lat="47.8061" lon="-3.42717">
        <ele>31.86</ele>
        <time>2015-09-06T05:56:20Z</time>
      </trkpt>
      <trkpt lat="47.80609" lon="-3.42721">
        <ele>32.34</ele>
        <time>2015-09-06T05:56:21Z</time>
      </trkpt>
      <trkpt lat="47.80608" lon="-3.42726">
        <ele>32.34</ele>
        <time>2015-09-06T05:56:22Z</time>
      </trkpt>
      <trkpt lat="47.80607" lon="-3.42732">
        <ele>32.34</ele>
        <time>2015-09-06T05:56:23Z</time>
      </trkpt>
      <trkpt lat="47.80605" lon="-3.42738">
        <ele>30.9</ele>
        <time>2015-09-06T05:56:24Z</time>
      </trkpt>
      <trkpt lat="47.80602" lon="-3.42743">
        <ele>30.9</ele>
        <time>2015-09-06T05:56:25Z</time>
      </trkpt>
      <trkpt lat="47.80599" lon="-3.42746">
        <ele>30.9</ele>
        <time>2015-09-06T05:56:26Z</time>
      </trkpt>
      <trkpt lat="47.80596" lon="-3.42751">
        <ele>30.9</ele>
        <time>2015-09-06T05:56:27Z</time>
      </trkpt>
      <trkpt lat="47.80594" lon="-3.42755">
        <ele>30.9</ele>
        <time>2015-09-06T05:56:28Z</time>
      </trkpt>
      <trkpt lat="47.80591" lon="-3.42758">
        <ele>30.9</ele>
        <time>2015-09-06T05:56:29Z</time>
      </trkpt>
      <trkpt lat="47.80589" lon="-3.42762">
        <ele>30.9</ele>
        <time>2015-09-06T05:56:30Z</time>
      </trkpt>
      <trkpt lat="47.80587" lon="-3.42765">
        <ele>30.9</ele>
        <time>2015-09-06T05:56:31Z</time>
      </trkpt>
      <trkpt lat="47.80585" lon="-3.42768">
        <ele>30.9</ele>
        <time>2015-09-06T05:56:32Z</time>
      </trkpt>
      <trkpt lat="47.80582" lon="-3.42772">
        <ele>30.9</ele>
        <time>2015-09-06T05:56:33Z</time>
      </trkpt>
      <trkpt lat="47.8058" lon="-3.42775">
        <ele>30.9</ele>
        <time>2015-09-06T05:56:34Z</time>
      </trkpt>
      <trkpt lat="47.80578" lon="-3.42778">
        <ele>30.9</ele>
        <time>2015-09-06T05:56:35Z</time>
      </trkpt>
      <trkpt lat="47.80577" lon="-3.42782">
        <ele>30.9</ele>
        <time>2015-09-06T05:56:36Z</time>
      </trkpt>
      <trkpt lat="47.80575" lon="-3.42787">
        <ele>30.42</ele>
        <time>2015-09-06T05:56:37Z</time>
      </trkpt>
      <trkpt lat="47.80572" lon="-3.42792">
        <ele>30.42</ele>
        <time>2015-09-06T05:56:38Z</time>
      </trkpt>
      <trkpt lat="47.8057" lon="-3.42796">
        <ele>30.42</ele>
        <time>2015-09-06T05:56:39Z</time>
      </trkpt>
      <trkpt lat="47.80568" lon="-3.42801">
        <ele>30.42</ele>
        <time>2015-09-06T05:56:40Z</time>
      </trkpt>
      <trkpt lat="47.80566" lon="-3.42807">
        <ele>30.42</ele>
        <time>2015-09-06T05:56:41Z</time>
      </trkpt>
      <trkpt lat="47.80565" lon="-3.42813">
        <ele>30.42</ele>
        <time>2015-09-06T05:56:42Z</time>
      </trkpt>
      <trkpt lat="47.80564" lon="-3.42819">
        <ele>30.42</ele>
        <time>2015-09-06T05:56:43Z</time>
      </trkpt>
      <trkpt lat="47.80563" lon="-3.42826">
        <ele>30.42</ele>
        <time>2015-09-06T05:56:44Z</time>
      </trkpt>
      <trkpt lat="47.80562" lon="-3.42832">
        <ele>30.42</ele>
        <time>2015-09-06T05:56:45Z</time>
      </trkpt>
      <trkpt lat="47.80562" lon="-3.42838">
        <ele>30.42</ele>
        <time>2015-09-06T05:56:46Z</time>
      </trkpt>
      <trkpt lat="47.80562" lon="-3.42843">
        <ele>30.42</ele>
        <time>2015-09-06T05:56:47Z</time>
      </trkpt>
      <trkpt lat="47.80562" lon="-3.42849">
        <ele>30.42</ele>
        <time>2015-09-06T05:56:48Z</time>
      </trkpt>
      <trkpt lat="47.80563" lon="-3.42855">
        <ele>30.42</ele>
        <time>2015-09-06T05:56:49Z</time>
      </trkpt>
      <trkpt lat="47.80564" lon="-3.42862">
        <ele>30.42</ele>
        <time>2015-09-06T05:56:50Z</time>
      </trkpt>
      <trkpt lat="47.80566" lon="-3.42868">
        <ele>30.42</ele>
        <time>2015-09-06T05:56:51Z</time>
      </trkpt>
      <trkpt lat="47.80567" lon="-3.42875">
        <ele>30.42</ele>
        <time>2015-09-06T05:56:52Z</time>
      </trkpt>
      <trkpt lat="47.80569" lon="-3.4288">
        <ele>30.42</ele>
        <time>2015-09-06T05:56:53Z</time>
      </trkpt>
      <trkpt lat="47.80571" lon="-3.42887">
        <ele>30.42</ele>
        <time>2015-09-06T05:56:54Z</time>
      </trkpt>
      <trkpt lat="47.80573" lon="-3.42893">
        <ele>30.42</ele>
        <time>2015-09-06T05:56:55Z</time>
      </trkpt>
      <trkpt lat="47.80575" lon="-3.429">
        <ele>30.42</ele>
        <time>2015-09-06T05:56:56Z</time>
      </trkpt>
      <trkpt lat="47.80577" lon="-3.42908">
        <ele>29.94</ele>
        <time>2015-09-06T05:56:57Z</time>
      </trkpt>
      <trkpt lat="47.80578" lon="-3.42917">
        <ele>29.94</ele>
        <time>2015-09-06T05:56:58Z</time>
      </trkpt>
      <trkpt lat="47.80578" lon="-3.42927">
        <ele>29.94</ele>
        <time>2015-09-06T05:56:59Z</time>
      </trkpt>
      <trkpt lat="47.80578" lon="-3.42936">
        <ele>29.94</ele>
        <time>2015-09-06T05:57:00Z</time>
      </trkpt>
      <trkpt lat="47.80577" lon="-3.42944">
        <ele>29.94</ele>
        <time>2015-09-06T05:57:01Z</time>
      </trkpt>
      <trkpt lat="47.80576" lon="-3.42954">
        <ele>29.94</ele>
        <time>2015-09-06T05:57:02Z</time>
      </trkpt>
      <trkpt lat="47.80574" lon="-3.42961">
        <ele>29.94</ele>
        <time>2015-09-06T05:57:03Z</time>
      </trkpt>
      <trkpt lat="47.80572" lon="-3.4297">
        <ele>29.94</ele>
        <time>2015-09-06T05:57:04Z</time>
      </trkpt>
      <trkpt lat="47.8057" lon="-3.42978">
        <ele>29.94</ele>
        <time>2015-09-06T05:57:05Z</time>
      </trkpt>
      <trkpt lat="47.80568" lon="-3.42986">
        <ele>29.94</ele>
        <time>2015-09-06T05:57:06Z</time>
      </trkpt>
      <trkpt lat="47.80566" lon="-3.42994">
        <ele>29.94</ele>
        <time>2015-09-06T05:57:07Z</time>
      </trkpt>
      <trkpt lat="47.80565" lon="-3.43">
        <ele>29.94</ele>
        <time>2015-09-06T05:57:08Z</time>
      </trkpt>
      <trkpt lat="47.80563" lon="-3.43007">
        <ele>29.94</ele>
        <time>2015-09-06T05:57:09Z</time>
      </trkpt>
      <trkpt lat="47.8056" lon="-3.43012">
        <ele>29.94</ele>
        <time>2015-09-06T05:57:10Z</time>
      </trkpt>
      <trkpt lat="47.80557" lon="-3.43017">
        <ele>29.94</ele>
        <time>2015-09-06T05:57:11Z</time>
      </trkpt>
      <trkpt lat="47.80554" lon="-3.4302">
        <ele>31.38</ele>
        <time>2015-09-06T05:57:12Z</time>
      </trkpt>
      <trkpt lat="47.80551" lon="-3.43023">
        <ele>31.38</ele>
        <time>2015-09-06T05:57:13Z</time>
      </trkpt>
      <trkpt lat="47.80548" lon="-3.43026">
        <ele>31.38</ele>
        <time>2015-09-06T05:57:14Z</time>
      </trkpt>
      <trkpt lat="47.80544" lon="-3.4303">
        <ele>31.38</ele>
        <time>2015-09-06T05:57:15Z</time>
      </trkpt>
      <trkpt lat="47.80541" lon="-3.43033">
        <ele>31.38</ele>
        <time>2015-09-06T05:57:16Z</time>
      </trkpt>
      <trkpt lat="47.80538" lon="-3.43036">
        <ele>31.38</ele>
        <time>2015-09-06T05:57:17Z</time>
      </trkpt>
      <trkpt lat="47.80534" lon="-3.43039">
        <ele>31.38</ele>
        <time>2015-09-06T05:57:18Z</time>
      </trkpt>
      <trkpt lat="47.80531" lon="-3.43042">
        <ele>31.38</ele>
        <time>2015-09-06T05:57:19Z</time>
      </trkpt>
      <trkpt lat="47.80528" lon="-3.43044">
        <ele>31.38</ele>
        <time>2015-09-06T05:57:20Z</time>
      </trkpt>
      <trkpt lat="47.80526" lon="-3.43045">
        <ele>31.38</ele>
        <time>2015-09-06T05:57:21Z</time>
      </trkpt>
      <trkpt lat="47.80524" lon="-3.43046">
        <ele>31.38</ele>
        <time>2015-09-06T05:57:22Z</time>
      </trkpt>
      <trkpt lat="47.80522" lon="-3.43049">
        <ele>31.38</ele>
        <time>2015-09-06T05:57:23Z</time>
      </trkpt>
      <trkpt lat="47.80521" lon="-3.43053">
        <ele>31.38</ele>
        <time>2015-09-06T05:57:24Z</time>
      </trkpt>
      <trkpt lat="47.8052" lon="-3.43056">
        <ele>31.38</ele>
        <time>2015-09-06T05:57:25Z</time>
      </trkpt>
      <trkpt lat="47.80518" lon="-3.43058">
        <ele>31.38</ele>
        <time>2015-09-06T05:57:26Z</time>
      </trkpt>
      <trkpt lat="47.80514" lon="-3.43058">
        <ele>31.38</ele>
        <time>2015-09-06T05:57:27Z</time>
      </trkpt>
      <trkpt lat="47.8051" lon="-3.43058">
        <ele>30.42</ele>
        <time>2015-09-06T05:57:28Z</time>
      </trkpt>
      <trkpt lat="47.80506" lon="-3.43057">
        <ele>30.42</ele>
        <time>2015-09-06T05:57:29Z</time>
      </trkpt>
      <trkpt lat="47.80501" lon="-3.43057">
        <ele>30.42</ele>
        <time>2015-09-06T05:57:30Z</time>
      </trkpt>
      <trkpt lat="47.80497" lon="-3.43058">
        <ele>30.42</ele>
        <time>2015-09-06T05:57:31Z</time>
      </trkpt>
      <trkpt lat="47.80492" lon="-3.43059">
        <ele>30.42</ele>
        <time>2015-09-06T05:57:32Z</time>
      </trkpt>
      <trkpt lat="47.80487" lon="-3.43061">
        <ele>30.42</ele>
        <time>2015-09-06T05:57:33Z</time>
      </trkpt>
      <trkpt lat="47.80482" lon="-3.43062">
        <ele>30.42</ele>
        <time>2015-09-06T05:57:34Z</time>
      </trkpt>
      <trkpt lat="47.80478" lon="-3.43062">
        <ele>30.42</ele>
        <time>2015-09-06T05:57:35Z</time>
      </trkpt>
      <trkpt lat="47.80473" lon="-3.43062">
        <ele>30.42</ele>
        <time>2015-09-06T05:57:36Z</time>
      </trkpt>
      <trkpt lat="47.80469" lon="-3.43061">
        <ele>30.42</ele>
        <time>2015-09-06T05:57:37Z</time>
      </trkpt>
      <trkpt lat="47.80464" lon="-3.4306">
        <ele>30.42</ele>
        <time>2015-09-06T05:57:38Z</time>
      </trkpt>
      <trkpt lat="47.80459" lon="-3.43059">
        <ele>30.42</ele>
        <time>2015-09-06T05:57:39Z</time>
      </trkpt>
      <trkpt lat="47.80454" lon="-3.43059">
        <ele>30.42</ele>
        <time>2015-09-06T05:57:40Z</time>
      </trkpt>
      <trkpt lat="47.80449" lon="-3.43059">
        <ele>30.42</ele>
        <time>2015-09-06T05:57:41Z</time>
      </trkpt>
      <trkpt lat="47.80444" lon="-3.43059">
        <ele>30.42</ele>
        <time>2015-09-06T05:57:42Z</time>
      </trkpt>
      <trkpt lat="47.80439" lon="-3.43058">
        <ele>30.42</ele>
        <time>2015-09-06T05:57:43Z</time>
      </trkpt>
      <trkpt lat="47.80434" lon="-3.43058">
        <ele>30.42</ele>
        <time>2015-09-06T05:57:44Z</time>
      </trkpt>
      <trkpt lat="47.80429" lon="-3.43059">
        <ele>30.42</ele>
        <time>2015-09-06T05:57:45Z</time>
      </trkpt>
      <trkpt lat="47.80424" lon="-3.43061">
        <ele>30.42</ele>
        <time>2015-09-06T05:57:46Z</time>
      </trkpt>
      <trkpt lat="47.80419" lon="-3.43063">
        <ele>30.42</ele>
        <time>2015-09-06T05:57:47Z</time>
      </trkpt>
      <trkpt lat="47.80414" lon="-3.43067">
        <ele>30.42</ele>
        <time>2015-09-06T05:57:48Z</time>
      </trkpt>
      <trkpt lat="47.8041" lon="-3.43072">
        <ele>30.42</ele>
        <time>2015-09-06T05:57:49Z</time>
      </trkpt>
      <trkpt lat="47.80406" lon="-3.43077">
        <ele>30.42</ele>
        <time>2015-09-06T05:57:50Z</time>
      </trkpt>
      <trkpt lat="47.80403" lon="-3.43083">
        <ele>30.42</ele>
        <time>2015-09-06T05:57:51Z</time>
      </trkpt>
      <trkpt lat="47.80399" lon="-3.43088">
        <ele>30.42</ele>
        <time>2015-09-06T05:57:52Z</time>
      </trkpt>
      <trkpt lat="47.80396" lon="-3.43094">
        <ele>30.42</ele>
        <time>2015-09-06T05:57:53Z</time>
      </trkpt>
      <trkpt lat="47.80393" lon="-3.431">
        <ele>30.42</ele>
        <time>2015-09-06T05:57:54Z</time>
      </trkpt>
      <trkpt lat="47.8039" lon="-3.43106">
        <ele>30.42</ele>
        <time>2015-09-06T05:57:55Z</time>
      </trkpt>
      <trkpt lat="47.80387" lon="-3.43113">
        <ele>30.42</ele>
        <time>2015-09-06T05:57:56Z</time>
      </trkpt>
      <trkpt lat="47.80383" lon="-3.43119">
        <ele>30.42</ele>
        <time>2015-09-06T05:57:57Z</time>
      </trkpt>
      <trkpt lat="47.80381" lon="-3.43124">
        <ele>30.42</ele>
        <time>2015-09-06T05:57:58Z</time>
      </trkpt>
      <trkpt lat="47.80378" lon="-3.4313">
        <ele>30.42</ele>
        <time>2015-09-06T05:57:59Z</time>
      </trkpt>
      <trkpt lat="47.80375" lon="-3.43136">
        <ele>30.42</ele>
        <time>2015-09-06T05:58:00Z</time>
      </trkpt>
      <trkpt lat="47.80371" lon="-3.43143">
        <ele>30.42</ele>
        <time>2015-09-06T05:58:01Z</time>
      </trkpt>
      <trkpt lat="47.80368" lon="-3.43149">
        <ele>30.42</ele>
        <time>2015-09-06T05:58:02Z</time>
      </trkpt>
      <trkpt lat="47.80365" lon="-3.43156">
        <ele>30.42</ele>
        <time>2015-09-06T05:58:03Z</time>
      </trkpt>
      <trkpt lat="47.80362" lon="-3.43161">
        <ele>30.42</ele>
        <time>2015-09-06T05:58:04Z</time>
      </trkpt>
      <trkpt lat="47.8036" lon="-3.43167">
        <ele>31.38</ele>
        <time>2015-09-06T05:58:05Z</time>
      </trkpt>
      <trkpt lat="47.80358" lon="-3.43173">
        <ele>31.38</ele>
        <time>2015-09-06T05:58:06Z</time>
      </trkpt>
      <trkpt lat="47.80356" lon="-3.43179">
        <ele>31.38</ele>
        <time>2015-09-06T05:58:07Z</time>
      </trkpt>
      <trkpt lat="47.80354" lon="-3.43186">
        <ele>31.38</ele>
        <time>2015-09-06T05:58:08Z</time>
      </trkpt>
      <trkpt lat="47.80352" lon="-3.43191">
        <ele>31.86</ele>
        <time>2015-09-06T05:58:09Z</time>
      </trkpt>
      <trkpt lat="47.8035" lon="-3.43196">
        <ele>31.86</ele>
        <time>2015-09-06T05:58:10Z</time>
      </trkpt>
      <trkpt lat="47.80348" lon="-3.43201">
        <ele>31.86</ele>
        <time>2015-09-06T05:58:11Z</time>
      </trkpt>
      <trkpt lat="47.80346" lon="-3.43207">
        <ele>31.86</ele>
        <time>2015-09-06T05:58:12Z</time>
      </trkpt>
      <trkpt lat="47.80343" lon="-3.43212">
        <ele>31.86</ele>
        <time>2015-09-06T05:58:13Z</time>
      </trkpt>
      <trkpt lat="47.8034" lon="-3.43217">
        <ele>31.86</ele>
        <time>2015-09-06T05:58:14Z</time>
      </trkpt>
      <trkpt lat="47.80338" lon="-3.43222">
        <ele>31.86</ele>
        <time>2015-09-06T05:58:15Z</time>
      </trkpt>
      <trkpt lat="47.80335" lon="-3.43227">
        <ele>31.86</ele>
        <time>2015-09-06T05:58:16Z</time>
      </trkpt>
      <trkpt lat="47.80332" lon="-3.43231">
        <ele>31.86</ele>
        <time>2015-09-06T05:58:17Z</time>
      </trkpt>
      <trkpt lat="47.80329" lon="-3.43236">
        <ele>31.86</ele>
        <time>2015-09-06T05:58:18Z</time>
      </trkpt>
      <trkpt lat="47.80326" lon="-3.43241">
        <ele>31.86</ele>
        <time>2015-09-06T05:58:19Z</time>
      </trkpt>
      <trkpt lat="47.80323" lon="-3.43245">
        <ele>31.86</ele>
        <time>2015-09-06T05:58:20Z</time>
      </trkpt>
      <trkpt lat="47.80321" lon="-3.43249">
        <ele>31.86</ele>
        <time>2015-09-06T05:58:21Z</time>
      </trkpt>
      <trkpt lat="47.80318" lon="-3.43254">
        <ele>31.86</ele>
        <time>2015-09-06T05:58:22Z</time>
      </trkpt>
      <trkpt lat="47.80315" lon="-3.43258">
        <ele>31.86</ele>
        <time>2015-09-06T05:58:23Z</time>
      </trkpt>
      <trkpt lat="47.80313" lon="-3.43263">
        <ele>31.86</ele>
        <time>2015-09-06T05:58:24Z</time>
      </trkpt>
      <trkpt lat="47.8031" lon="-3.43267">
        <ele>31.86</ele>
        <time>2015-09-06T05:58:25Z</time>
      </trkpt>
      <trkpt lat="47.80308" lon="-3.43272">
        <ele>31.86</ele>
        <time>2015-09-06T05:58:26Z</time>
      </trkpt>
      <trkpt lat="47.80305" lon="-3.43278">
        <ele>31.86</ele>
        <time>2015-09-06T05:58:27Z</time>
      </trkpt>
      <trkpt lat="47.80301" lon="-3.43283">
        <ele>31.86</ele>
        <time>2015-09-06T05:58:28Z</time>
      </trkpt>
      <trkpt lat="47.80298" lon="-3.43288">
        <ele>31.86</ele>
        <time>2015-09-06T05:58:29Z</time>
      </trkpt>
      <trkpt lat="47.80295" lon="-3.43292">
        <ele>31.86</ele>
        <time>2015-09-06T05:58:30Z</time>
      </trkpt>
      <trkpt lat="47.80292" lon="-3.43296">
        <ele>31.86</ele>
        <time>2015-09-06T05:58:31Z</time>
      </trkpt>
      <trkpt lat="47.80289" lon="-3.433">
        <ele>31.86</ele>
        <time>2015-09-06T05:58:32Z</time>
      </trkpt>
      <trkpt lat="47.80286" lon="-3.43303">
        <ele>31.86</ele>
        <time>2015-09-06T05:58:33Z</time>
      </trkpt>
      <trkpt lat="47.80283" lon="-3.43308">
        <ele>31.86</ele>
        <time>2015-09-06T05:58:34Z</time>
      </trkpt>
      <trkpt lat="47.8028" lon="-3.43312">
        <ele>31.86</ele>
        <time>2015-09-06T05:58:35Z</time>
      </trkpt>
      <trkpt lat="47.80277" lon="-3.43317">
        <ele>31.86</ele>
        <time>2015-09-06T05:58:36Z</time>
      </trkpt>
      <trkpt lat="47.80274" lon="-3.43321">
        <ele>31.86</ele>
        <time>2015-09-06T05:58:37Z</time>
      </trkpt>
      <trkpt lat="47.80272" lon="-3.43326">
        <ele>31.86</ele>
        <time>2015-09-06T05:58:38Z</time>
      </trkpt>
      <trkpt lat="47.80271" lon="-3.43332">
        <ele>31.86</ele>
        <time>2015-09-06T05:58:39Z</time>
      </trkpt>
      <trkpt lat="47.80271" lon="-3.43337">
        <ele>31.86</ele>
        <time>2015-09-06T05:58:40Z</time>
      </trkpt>
      <trkpt lat="47.80273" lon="-3.43342">
        <ele>32.34</ele>
        <time>2015-09-06T05:58:41Z</time>
      </trkpt>
      <trkpt lat="47.80275" lon="-3.43347">
        <ele>32.34</ele>
        <time>2015-09-06T05:58:42Z</time>
      </trkpt>
      <trkpt lat="47.80277" lon="-3.43352">
        <ele>32.82</ele>
        <time>2015-09-06T05:58:43Z</time>
      </trkpt>
      <trkpt lat="47.80279" lon="-3.43355">
        <ele>32.82</ele>
        <time>2015-09-06T05:58:44Z</time>
      </trkpt>
      <trkpt lat="47.80282" lon="-3.43359">
        <ele>33.3</ele>
        <time>2015-09-06T05:58:45Z</time>
      </trkpt>
      <trkpt lat="47.80285" lon="-3.43361">
        <ele>33.3</ele>
        <time>2015-09-06T05:58:46Z</time>
      </trkpt>
      <trkpt lat="47.80288" lon="-3.43364">
        <ele>33.3</ele>
        <time>2015-09-06T05:58:47Z</time>
      </trkpt>
      <trkpt lat="47.80291" lon="-3.43368">
        <ele>33.3</ele>
        <time>2015-09-06T05:58:48Z</time>
      </trkpt>
      <trkpt lat="47.80292" lon="-3.43373">
        <ele>33.78</ele>
        <time>2015-09-06T05:58:49Z</time>
      </trkpt>
      <trkpt lat="47.80292" lon="-3.43377">
        <ele>33.78</ele>
        <time>2015-09-06T05:58:50Z</time>
      </trkpt>
      <trkpt lat="47.80291" lon="-3.43382">
        <ele>33.78</ele>
        <time>2015-09-06T05:58:51Z</time>
      </trkpt>
      <trkpt lat="47.80289" lon="-3.43386">
        <ele>33.78</ele>
        <time>2015-09-06T05:58:52Z</time>
      </trkpt>
      <trkpt lat="47.80287" lon="-3.4339">
        <ele>33.78</ele>
        <time>2015-09-06T05:58:53Z</time>
      </trkpt>
      <trkpt lat="47.80284" lon="-3.43393">
        <ele>33.78</ele>
        <time>2015-09-06T05:58:54Z</time>
      </trkpt>
      <trkpt lat="47.80282" lon="-3.43397">
        <ele>33.78</ele>
        <time>2015-09-06T05:58:55Z</time>
      </trkpt>
      <trkpt lat="47.80279" lon="-3.434">
        <ele>34.26</ele>
        <time>2015-09-06T05:58:56Z</time>
      </trkpt>
      <trkpt lat="47.80277" lon="-3.43404">
        <ele>34.26</ele>
        <time>2015-09-06T05:58:57Z</time>
      </trkpt>
      <trkpt lat="47.80274" lon="-3.43408">
        <ele>34.26</ele>
        <time>2015-09-06T05:58:58Z</time>
      </trkpt>
      <trkpt lat="47.80272" lon="-3.43411">
        <ele>35.23</ele>
        <time>2015-09-06T05:58:59Z</time>
      </trkpt>
      <trkpt lat="47.8027" lon="-3.43415">
        <ele>35.23</ele>
        <time>2015-09-06T05:59:00Z</time>
      </trkpt>
      <trkpt lat="47.80268" lon="-3.43418">
        <ele>35.23</ele>
        <time>2015-09-06T05:59:01Z</time>
      </trkpt>
      <trkpt lat="47.80266" lon="-3.43421">
        <ele>35.23</ele>
        <time>2015-09-06T05:59:02Z</time>
      </trkpt>
      <trkpt lat="47.80264" lon="-3.43425">
        <ele>35.23</ele>
        <time>2015-09-06T05:59:03Z</time>
      </trkpt>
      <trkpt lat="47.80262" lon="-3.43429">
        <ele>35.71</ele>
        <time>2015-09-06T05:59:04Z</time>
      </trkpt>
      <trkpt lat="47.80261" lon="-3.43433">
        <ele>35.71</ele>
        <time>2015-09-06T05:59:05Z</time>
      </trkpt>
      <trkpt lat="47.8026" lon="-3.43437">
        <ele>36.19</ele>
        <time>2015-09-06T05:59:06Z</time>
      </trkpt>
      <trkpt lat="47.8026" lon="-3.43441">
        <ele>36.67</ele>
        <time>2015-09-06T05:59:07Z</time>
      </trkpt>
      <trkpt lat="47.80259" lon="-3.43444">
        <ele>36.67</ele>
        <time>2015-09-06T05:59:08Z</time>
      </trkpt>
      <trkpt lat="47.80258" lon="-3.43448">
        <ele>36.67</ele>
        <time>2015-09-06T05:59:09Z</time>
      </trkpt>
      <trkpt lat="47.80257" lon="-3.43453">
        <ele>37.15</ele>
        <time>2015-09-06T05:59:10Z</time>
      </trkpt>
      <trkpt lat="47.80257" lon="-3.43457">
        <ele>37.63</ele>
        <time>2015-09-06T05:59:11Z</time>
      </trkpt>
      <trkpt lat="47.80256" lon="-3.43461">
        <ele>37.63</ele>
        <time>2015-09-06T05:59:12Z</time>
      </trkpt>
      <trkpt lat="47.80256" lon="-3.43466">
        <ele>37.63</ele>
        <time>2015-09-06T05:59:13Z</time>
      </trkpt>
      <trkpt lat="47.80256" lon="-3.43469">
        <ele>37.63</ele>
        <time>2015-09-06T05:59:14Z</time>
      </trkpt>
      <trkpt lat="47.80255" lon="-3.43474">
        <ele>38.59</ele>
        <time>2015-09-06T05:59:15Z</time>
      </trkpt>
      <trkpt lat="47.80255" lon="-3.43478">
        <ele>38.59</ele>
        <time>2015-09-06T05:59:16Z</time>
      </trkpt>
      <trkpt lat="47.80255" lon="-3.43479">
        <ele>38.59</ele>
        <time>2015-09-06T05:59:17Z</time>
      </trkpt>
      <trkpt lat="47.80256" lon="-3.43481">
        <ele>38.59</ele>
        <time>2015-09-06T05:59:18Z</time>
      </trkpt>
      <trkpt lat="47.80258" lon="-3.43483">
        <ele>38.59</ele>
        <time>2015-09-06T05:59:19Z</time>
      </trkpt>
      <trkpt lat="47.80259" lon="-3.43484">
        <ele>38.59</ele>
        <time>2015-09-06T05:59:20Z</time>
      </trkpt>
      <trkpt lat="47.80261" lon="-3.43485">
        <ele>38.59</ele>
        <time>2015-09-06T05:59:21Z</time>
      </trkpt>
      <trkpt lat="47.80263" lon="-3.43486">
        <ele>38.59</ele>
        <time>2015-09-06T05:59:22Z</time>
      </trkpt>
      <trkpt lat="47.80265" lon="-3.43487">
        <ele>38.59</ele>
        <time>2015-09-06T05:59:23Z</time>
      </trkpt>
      <trkpt lat="47.80266" lon="-3.43488">
        <ele>39.07</ele>
        <time>2015-09-06T05:59:24Z</time>
      </trkpt>
      <trkpt lat="47.80267" lon="-3.43489">
        <ele>39.55</ele>
        <time>2015-09-06T05:59:25Z</time>
      </trkpt>
      <trkpt lat="47.80269" lon="-3.43489">
        <ele>39.55</ele>
        <time>2015-09-06T05:59:26Z</time>
      </trkpt>
      <trkpt lat="47.80271" lon="-3.43489">
        <ele>39.55</ele>
        <time>2015-09-06T05:59:27Z</time>
      </trkpt>
      <trkpt lat="47.80273" lon="-3.43489">
        <ele>39.55</ele>
        <time>2015-09-06T05:59:28Z</time>
      </trkpt>
      <trkpt lat="47.80276" lon="-3.4349">
        <ele>40.03</ele>
        <time>2015-09-06T05:59:29Z</time>
      </trkpt>
      <trkpt lat="47.80279" lon="-3.43491">
        <ele>39.55</ele>
        <time>2015-09-06T05:59:30Z</time>
      </trkpt>
      <trkpt lat="47.80282" lon="-3.43493">
        <ele>39.55</ele>
        <time>2015-09-06T05:59:31Z</time>
      </trkpt>
      <trkpt lat="47.80285" lon="-3.43494">
        <ele>39.55</ele>
        <time>2015-09-06T05:59:32Z</time>
      </trkpt>
      <trkpt lat="47.80289" lon="-3.43496">
        <ele>39.55</ele>
        <time>2015-09-06T05:59:33Z</time>
      </trkpt>
      <trkpt lat="47.80292" lon="-3.43498">
        <ele>39.55</ele>
        <time>2015-09-06T05:59:34Z</time>
      </trkpt>
      <trkpt lat="47.80296" lon="-3.435">
        <ele>39.55</ele>
        <time>2015-09-06T05:59:35Z</time>
      </trkpt>
      <trkpt lat="47.803" lon="-3.43502">
        <ele>39.55</ele>
        <time>2015-09-06T05:59:36Z</time>
      </trkpt>
      <trkpt lat="47.80303" lon="-3.43504">
        <ele>40.03</ele>
        <time>2015-09-06T05:59:37Z</time>
      </trkpt>
      <trkpt lat="47.80307" lon="-3.43506">
        <ele>40.03</ele>
        <time>2015-09-06T05:59:38Z</time>
      </trkpt>
      <trkpt lat="47.80311" lon="-3.43508">
        <ele>40.03</ele>
        <time>2015-09-06T05:59:39Z</time>
      </trkpt>
      <trkpt lat="47.80314" lon="-3.43509">
        <ele>40.03</ele>
        <time>2015-09-06T05:59:40Z</time>
      </trkpt>
      <trkpt lat="47.80319" lon="-3.43511">
        <ele>40.03</ele>
        <time>2015-09-06T05:59:41Z</time>
      </trkpt>
      <trkpt lat="47.80322" lon="-3.43513">
        <ele>40.03</ele>
        <time>2015-09-06T05:59:42Z</time>
      </trkpt>
      <trkpt lat="47.80326" lon="-3.43514">
        <ele>40.03</ele>
        <time>2015-09-06T05:59:43Z</time>
      </trkpt>
      <trkpt lat="47.8033" lon="-3.43515">
        <ele>40.03</ele>
        <time>2015-09-06T05:59:44Z</time>
      </trkpt>
      <trkpt lat="47.80333" lon="-3.43517">
        <ele>40.03</ele>
        <time>2015-09-06T05:59:45Z</time>
      </trkpt>
      <trkpt lat="47.80337" lon="-3.43518">
        <ele>40.03</ele>
        <time>2015-09-06T05:59:46Z</time>
      </trkpt>
      <trkpt lat="47.80341" lon="-3.4352">
        <ele>40.03</ele>
        <time>2015-09-06T05:59:47Z</time>
      </trkpt>
      <trkpt lat="47.80345" lon="-3.43521">
        <ele>40.03</ele>
        <time>2015-09-06T05:59:48Z</time>
      </trkpt>
      <trkpt lat="47.80348" lon="-3.43523">
        <ele>40.03</ele>
        <time>2015-09-06T05:59:49Z</time>
      </trkpt>
      <trkpt lat="47.80352" lon="-3.43524">
        <ele>40.03</ele>
        <time>2015-09-06T05:59:50Z</time>
      </trkpt>
      <trkpt lat="47.80356" lon="-3.43526">
        <ele>40.03</ele>
        <time>2015-09-06T05:59:51Z</time>
      </trkpt>
      <trkpt lat="47.80359" lon="-3.43526">
        <ele>40.03</ele>
        <time>2015-09-06T05:59:52Z</time>
      </trkpt>
      <trkpt lat="47.80361" lon="-3.43527">
        <ele>40.03</ele>
        <time>2015-09-06T05:59:53Z</time>
      </trkpt>
      <trkpt lat="47.80363" lon="-3.43529">
        <ele>40.51</ele>
        <time>2015-09-06T05:59:54Z</time>
      </trkpt>
      <trkpt lat="47.80365" lon="-3.43532">
        <ele>40.03</ele>
        <time>2015-09-06T05:59:55Z</time>
      </trkpt>
      <trkpt lat="47.80365" lon="-3.43536">
        <ele>40.03</ele>
        <time>2015-09-06T05:59:56Z</time>
      </trkpt>
      <trkpt lat="47.80365" lon="-3.43539">
        <ele>40.03</ele>
        <time>2015-09-06T05:59:57Z</time>
      </trkpt>
      <trkpt lat="47.80365" lon="-3.43543">
        <ele>40.03</ele>
        <time>2015-09-06T05:59:58Z</time>
      </trkpt>
      <trkpt lat="47.80366" lon="-3.43547">
        <ele>40.51</ele>
        <time>2015-09-06T05:59:59Z</time>
      </trkpt>
      <trkpt lat="47.80366" lon="-3.43553">
        <ele>40.51</ele>
        <time>2015-09-06T06:00:00Z</time>
      </trkpt>
      <trkpt lat="47.80366" lon="-3.43559">
        <ele>40.51</ele>
        <time>2015-09-06T06:00:01Z</time>
      </trkpt>
      <trkpt lat="47.80366" lon="-3.43564">
        <ele>40.51</ele>
        <time>2015-09-06T06:00:02Z</time>
      </trkpt>
      <trkpt lat="47.80367" lon="-3.43571">
        <ele>40.51</ele>
        <time>2015-09-06T06:00:03Z</time>
      </trkpt>
      <trkpt lat="47.80368" lon="-3.43576">
        <ele>40.51</ele>
        <time>2015-09-06T06:00:04Z</time>
      </trkpt>
      <trkpt lat="47.80368" lon="-3.43583">
        <ele>40.99</ele>
        <time>2015-09-06T06:00:05Z</time>
      </trkpt>
      <trkpt lat="47.80367" lon="-3.43589">
        <ele>40.99</ele>
        <time>2015-09-06T06:00:06Z</time>
      </trkpt>
      <trkpt lat="47.80365" lon="-3.43593">
        <ele>40.99</ele>
        <time>2015-09-06T06:00:07Z</time>
      </trkpt>
      <trkpt lat="47.80365" lon="-3.43598">
        <ele>40.99</ele>
        <time>2015-09-06T06:00:08Z</time>
      </trkpt>
      <trkpt lat="47.80366" lon="-3.43602">
        <ele>40.99</ele>
        <time>2015-09-06T06:00:09Z</time>
      </trkpt>
      <trkpt lat="47.80367" lon="-3.43606">
        <ele>41.47</ele>
        <time>2015-09-06T06:00:10Z</time>
      </trkpt>
      <trkpt lat="47.80369" lon="-3.43608">
        <ele>41.47</ele>
        <time>2015-09-06T06:00:11Z</time>
      </trkpt>
      <trkpt lat="47.80372" lon="-3.43612">
        <ele>41.47</ele>
        <time>2015-09-06T06:00:12Z</time>
      </trkpt>
      <trkpt lat="47.80375" lon="-3.43615">
        <ele>41.47</ele>
        <time>2015-09-06T06:00:13Z</time>
      </trkpt>
      <trkpt lat="47.80378" lon="-3.43615">
        <ele>41.47</ele>
        <time>2015-09-06T06:00:14Z</time>
      </trkpt>
      <trkpt lat="47.8038" lon="-3.43613">
        <ele>41.47</ele>
        <time>2015-09-06T06:00:15Z</time>
      </trkpt>
      <trkpt lat="47.80383" lon="-3.4361">
        <ele>41.47</ele>
        <time>2015-09-06T06:00:16Z</time>
      </trkpt>
      <trkpt lat="47.80386" lon="-3.43609">
        <ele>41.47</ele>
        <time>2015-09-06T06:00:17Z</time>
      </trkpt>
      <trkpt lat="47.8039" lon="-3.43609">
        <ele>41.47</ele>
        <time>2015-09-06T06:00:18Z</time>
      </trkpt>
      <trkpt lat="47.80396" lon="-3.43609">
        <ele>41.47</ele>
        <time>2015-09-06T06:00:19Z</time>
      </trkpt>
      <trkpt lat="47.80399" lon="-3.43609">
        <ele>41.47</ele>
        <time>2015-09-06T06:00:20Z</time>
      </trkpt>
      <trkpt lat="47.80404" lon="-3.43609">
        <ele>41.47</ele>
        <time>2015-09-06T06:00:21Z</time>
      </trkpt>
      <trkpt lat="47.8041" lon="-3.43611">
        <ele>41.47</ele>
        <time>2015-09-06T06:00:22Z</time>
      </trkpt>
      <trkpt lat="47.80415" lon="-3.43613">
        <ele>41.47</ele>
        <time>2015-09-06T06:00:23Z</time>
      </trkpt>
      <trkpt lat="47.8042" lon="-3.43614">
        <ele>40.51</ele>
        <time>2015-09-06T06:00:24Z</time>
      </trkpt>
      <trkpt lat="47.80425" lon="-3.43616">
        <ele>40.51</ele>
        <time>2015-09-06T06:00:25Z</time>
      </trkpt>
      <trkpt lat="47.8043" lon="-3.43618">
        <ele>40.51</ele>
        <time>2015-09-06T06:00:26Z</time>
      </trkpt>
      <trkpt lat="47.80435" lon="-3.4362">
        <ele>40.51</ele>
        <time>2015-09-06T06:00:27Z</time>
      </trkpt>
      <trkpt lat="47.8044" lon="-3.43621">
        <ele>39.55</ele>
        <time>2015-09-06T06:00:28Z</time>
      </trkpt>
      <trkpt lat="47.80445" lon="-3.43623">
        <ele>39.55</ele>
        <time>2015-09-06T06:00:29Z</time>
      </trkpt>
      <trkpt lat="47.8045" lon="-3.43624">
        <ele>39.55</ele>
        <time>2015-09-06T06:00:30Z</time>
      </trkpt>
      <trkpt lat="47.80455" lon="-3.43626">
        <ele>39.55</ele>
        <time>2015-09-06T06:00:31Z</time>
      </trkpt>
      <trkpt lat="47.80461" lon="-3.43628">
        <ele>38.59</ele>
        <time>2015-09-06T06:00:32Z</time>
      </trkpt>
      <trkpt lat="47.80465" lon="-3.43629">
        <ele>38.59</ele>
        <time>2015-09-06T06:00:33Z</time>
      </trkpt>
      <trkpt lat="47.80469" lon="-3.43631">
        <ele>38.59</ele>
        <time>2015-09-06T06:00:34Z</time>
      </trkpt>
      <trkpt lat="47.80473" lon="-3.43633">
        <ele>38.11</ele>
        <time>2015-09-06T06:00:35Z</time>
      </trkpt>
      <trkpt lat="47.80478" lon="-3.43635">
        <ele>38.11</ele>
        <time>2015-09-06T06:00:36Z</time>
      </trkpt>
      <trkpt lat="47.80483" lon="-3.43637">
        <ele>37.63</ele>
        <time>2015-09-06T06:00:37Z</time>
      </trkpt>
      <trkpt lat="47.80487" lon="-3.43638">
        <ele>37.63</ele>
        <time>2015-09-06T06:00:38Z</time>
      </trkpt>
      <trkpt lat="47.80492" lon="-3.4364">
        <ele>37.63</ele>
        <time>2015-09-06T06:00:39Z</time>
      </trkpt>
      <trkpt lat="47.80497" lon="-3.43642">
        <ele>37.15</ele>
        <time>2015-09-06T06:00:40Z</time>
      </trkpt>
      <trkpt lat="47.80503" lon="-3.43644">
        <ele>37.15</ele>
        <time>2015-09-06T06:00:41Z</time>
      </trkpt>
      <trkpt lat="47.80507" lon="-3.43646">
        <ele>37.15</ele>
        <time>2015-09-06T06:00:42Z</time>
      </trkpt>
      <trkpt lat="47.80511" lon="-3.43648">
        <ele>37.15</ele>
        <time>2015-09-06T06:00:43Z</time>
      </trkpt>
      <trkpt lat="47.80515" lon="-3.4365">
        <ele>37.15</ele>
        <time>2015-09-06T06:00:44Z</time>
      </trkpt>
      <trkpt lat="47.80518" lon="-3.43652">
        <ele>37.15</ele>
        <time>2015-09-06T06:00:45Z</time>
      </trkpt>
      <trkpt lat="47.80521" lon="-3.43654">
        <ele>37.15</ele>
        <time>2015-09-06T06:00:46Z</time>
      </trkpt>
      <trkpt lat="47.80525" lon="-3.43655">
        <ele>37.15</ele>
        <time>2015-09-06T06:00:47Z</time>
      </trkpt>
      <trkpt lat="47.80528" lon="-3.43657">
        <ele>37.15</ele>
        <time>2015-09-06T06:00:48Z</time>
      </trkpt>
      <trkpt lat="47.80532" lon="-3.43658">
        <ele>37.15</ele>
        <time>2015-09-06T06:00:49Z</time>
      </trkpt>
      <trkpt lat="47.80535" lon="-3.43659">
        <ele>37.15</ele>
        <time>2015-09-06T06:00:50Z</time>
      </trkpt>
      <trkpt lat="47.80539" lon="-3.4366">
        <ele>37.15</ele>
        <time>2015-09-06T06:00:51Z</time>
      </trkpt>
      <trkpt lat="47.80542" lon="-3.43659">
        <ele>37.15</ele>
        <time>2015-09-06T06:00:52Z</time>
      </trkpt>
      <trkpt lat="47.80545" lon="-3.43657">
        <ele>38.11</ele>
        <time>2015-09-06T06:00:53Z</time>
      </trkpt>
      <trkpt lat="47.80548" lon="-3.43654">
        <ele>38.11</ele>
        <time>2015-09-06T06:00:54Z</time>
      </trkpt>
      <trkpt lat="47.80551" lon="-3.43649">
        <ele>38.11</ele>
        <time>2015-09-06T06:00:55Z</time>
      </trkpt>
      <trkpt lat="47.80554" lon="-3.43645">
        <ele>38.59</ele>
        <time>2015-09-06T06:00:56Z</time>
      </trkpt>
      <trkpt lat="47.80557" lon="-3.4364">
        <ele>38.59</ele>
        <time>2015-09-06T06:00:57Z</time>
      </trkpt>
      <trkpt lat="47.80559" lon="-3.43636">
        <ele>38.59</ele>
        <time>2015-09-06T06:00:58Z</time>
      </trkpt>
      <trkpt lat="47.80562" lon="-3.43632">
        <ele>38.59</ele>
        <time>2015-09-06T06:00:59Z</time>
      </trkpt>
      <trkpt lat="47.80565" lon="-3.43628">
        <ele>38.59</ele>
        <time>2015-09-06T06:01:00Z</time>
      </trkpt>
      <trkpt lat="47.80568" lon="-3.43624">
        <ele>38.59</ele>
        <time>2015-09-06T06:01:01Z</time>
      </trkpt>
      <trkpt lat="47.80571" lon="-3.43619">
        <ele>38.59</ele>
        <time>2015-09-06T06:01:02Z</time>
      </trkpt>
      <trkpt lat="47.80574" lon="-3.43615">
        <ele>38.59</ele>
        <time>2015-09-06T06:01:03Z</time>
      </trkpt>
      <trkpt lat="47.80577" lon="-3.4361">
        <ele>38.59</ele>
        <time>2015-09-06T06:01:04Z</time>
      </trkpt>
      <trkpt lat="47.8058" lon="-3.43606">
        <ele>38.59</ele>
        <time>2015-09-06T06:01:05Z</time>
      </trkpt>
      <trkpt lat="47.80583" lon="-3.43601">
        <ele>38.59</ele>
        <time>2015-09-06T06:01:06Z</time>
      </trkpt>
      <trkpt lat="47.80586" lon="-3.43596">
        <ele>38.59</ele>
        <time>2015-09-06T06:01:07Z</time>
      </trkpt>
      <trkpt lat="47.80588" lon="-3.43591">
        <ele>38.59</ele>
        <time>2015-09-06T06:01:08Z</time>
      </trkpt>
      <trkpt lat="47.80591" lon="-3.43587">
        <ele>38.59</ele>
        <time>2015-09-06T06:01:09Z</time>
      </trkpt>
      <trkpt lat="47.80593" lon="-3.43581">
        <ele>38.59</ele>
        <time>2015-09-06T06:01:10Z</time>
      </trkpt>
      <trkpt lat="47.80596" lon="-3.43576">
        <ele>38.59</ele>
        <time>2015-09-06T06:01:11Z</time>
      </trkpt>
      <trkpt lat="47.80598" lon="-3.43571">
        <ele>38.59</ele>
        <time>2015-09-06T06:01:12Z</time>
      </trkpt>
      <trkpt lat="47.80601" lon="-3.43566">
        <ele>38.59</ele>
        <time>2015-09-06T06:01:13Z</time>
      </trkpt>
      <trkpt lat="47.80604" lon="-3.4356">
        <ele>37.15</ele>
        <time>2015-09-06T06:01:14Z</time>
      </trkpt>
      <trkpt lat="47.80608" lon="-3.43555">
        <ele>37.15</ele>
        <time>2015-09-06T06:01:15Z</time>
      </trkpt>
      <trkpt lat="47.80612" lon="-3.43549">
        <ele>37.15</ele>
        <time>2015-09-06T06:01:16Z</time>
      </trkpt>
      <trkpt lat="47.80616" lon="-3.43545">
        <ele>36.67</ele>
        <time>2015-09-06T06:01:17Z</time>
      </trkpt>
      <trkpt lat="47.8062" lon="-3.43542">
        <ele>36.67</ele>
        <time>2015-09-06T06:01:18Z</time>
      </trkpt>
      <trkpt lat="47.80623" lon="-3.4354">
        <ele>36.67</ele>
        <time>2015-09-06T06:01:19Z</time>
      </trkpt>
      <trkpt lat="47.80627" lon="-3.43537">
        <ele>36.19</ele>
        <time>2015-09-06T06:01:20Z</time>
      </trkpt>
      <trkpt lat="47.8063" lon="-3.43534">
        <ele>36.19</ele>
        <time>2015-09-06T06:01:21Z</time>
      </trkpt>
      <trkpt lat="47.80634" lon="-3.43531">
        <ele>36.19</ele>
        <time>2015-09-06T06:01:22Z</time>
      </trkpt>
      <trkpt lat="47.80638" lon="-3.43527">
        <ele>36.19</ele>
        <time>2015-09-06T06:01:23Z</time>
      </trkpt>
      <trkpt lat="47.80642" lon="-3.43523">
        <ele>36.19</ele>
        <time>2015-09-06T06:01:24Z</time>
      </trkpt>
      <trkpt lat="47.80646" lon="-3.43519">
        <ele>35.23</ele>
        <time>2015-09-06T06:01:25Z</time>
      </trkpt>
      <trkpt lat="47.8065" lon="-3.43514">
        <ele>35.23</ele>
        <time>2015-09-06T06:01:26Z</time>
      </trkpt>
      <trkpt lat="47.80654" lon="-3.4351">
        <ele>35.23</ele>
        <time>2015-09-06T06:01:27Z</time>
      </trkpt>
      <trkpt lat="47.80658" lon="-3.43505">
        <ele>35.23</ele>
        <time>2015-09-06T06:01:28Z</time>
      </trkpt>
      <trkpt lat="47.80663" lon="-3.43501">
        <ele>35.23</ele>
        <time>2015-09-06T06:01:29Z</time>
      </trkpt>
      <trkpt lat="47.80667" lon="-3.43497">
        <ele>35.23</ele>
        <time>2015-09-06T06:01:30Z</time>
      </trkpt>
      <trkpt lat="47.80671" lon="-3.43493">
        <ele>35.23</ele>
        <time>2015-09-06T06:01:31Z</time>
      </trkpt>
      <trkpt lat="47.80674" lon="-3.43489">
        <ele>35.23</ele>
        <time>2015-09-06T06:01:32Z</time>
      </trkpt>
      <trkpt lat="47.80678" lon="-3.43485">
        <ele>35.23</ele>
        <time>2015-09-06T06:01:33Z</time>
      </trkpt>
      <trkpt lat="47.80681" lon="-3.43481">
        <ele>35.23</ele>
        <time>2015-09-06T06:01:34Z</time>
      </trkpt>
      <trkpt lat="47.80685" lon="-3.43477">
        <ele>35.23</ele>
        <time>2015-09-06T06:01:35Z</time>
      </trkpt>
      <trkpt lat="47.80689" lon="-3.43474">
        <ele>35.23</ele>
        <time>2015-09-06T06:01:36Z</time>
      </trkpt>
      <trkpt lat="47.80692" lon="-3.4347">
        <ele>35.23</ele>
        <time>2015-09-06T06:01:37Z</time>
      </trkpt>
      <trkpt lat="47.80696" lon="-3.43467">
        <ele>35.23</ele>
        <time>2015-09-06T06:01:38Z</time>
      </trkpt>
      <trkpt lat="47.807" lon="-3.43465">
        <ele>34.74</ele>
        <time>2015-09-06T06:01:39Z</time>
      </trkpt>
      <trkpt lat="47.80704" lon="-3.43464">
        <ele>34.74</ele>
        <time>2015-09-06T06:01:40Z</time>
      </trkpt>
      <trkpt lat="47.80707" lon="-3.43463">
        <ele>34.74</ele>
        <time>2015-09-06T06:01:41Z</time>
      </trkpt>
      <trkpt lat="47.8071" lon="-3.43462">
        <ele>34.74</ele>
        <time>2015-09-06T06:01:42Z</time>
      </trkpt>
      <trkpt lat="47.80713" lon="-3.4346">
        <ele>34.74</ele>
        <time>2015-09-06T06:01:43Z</time>
      </trkpt>
      <trkpt lat="47.80716" lon="-3.43458">
        <ele>34.74</ele>
        <time>2015-09-06T06:01:44Z</time>
      </trkpt>
      <trkpt lat="47.8072" lon="-3.43456">
        <ele>34.74</ele>
        <time>2015-09-06T06:01:45Z</time>
      </trkpt>
      <trkpt lat="47.80724" lon="-3.43452">
        <ele>34.26</ele>
        <time>2015-09-06T06:01:46Z</time>
      </trkpt>
      <trkpt lat="47.80729" lon="-3.43448">
        <ele>34.26</ele>
        <time>2015-09-06T06:01:47Z</time>
      </trkpt>
      <trkpt lat="47.80733" lon="-3.43445">
        <ele>34.26</ele>
        <time>2015-09-06T06:01:48Z</time>
      </trkpt>
      <trkpt lat="47.80738" lon="-3.43443">
        <ele>34.26</ele>
        <time>2015-09-06T06:01:49Z</time>
      </trkpt>
      <trkpt lat="47.80743" lon="-3.4344">
        <ele>34.26</ele>
        <time>2015-09-06T06:01:50Z</time>
      </trkpt>
      <trkpt lat="47.80746" lon="-3.43437">
        <ele>34.26</ele>
        <time>2015-09-06T06:01:51Z</time>
      </trkpt>
      <trkpt lat="47.80751" lon="-3.43434">
        <ele>34.26</ele>
        <time>2015-09-06T06:01:52Z</time>
      </trkpt>
      <trkpt lat="47.80755" lon="-3.4343">
        <ele>35.71</ele>
        <time>2015-09-06T06:01:53Z</time>
      </trkpt>
      <trkpt lat="47.80759" lon="-3.43425">
        <ele>35.71</ele>
        <time>2015-09-06T06:01:54Z</time>
      </trkpt>
      <trkpt lat="47.80763" lon="-3.43418">
        <ele>35.71</ele>
        <time>2015-09-06T06:01:55Z</time>
      </trkpt>
      <trkpt lat="47.80767" lon="-3.43413">
        <ele>36.19</ele>
        <time>2015-09-06T06:01:56Z</time>
      </trkpt>
      <trkpt lat="47.8077" lon="-3.43407">
        <ele>36.19</ele>
        <time>2015-09-06T06:01:57Z</time>
      </trkpt>
      <trkpt lat="47.80773" lon="-3.434">
        <ele>36.67</ele>
        <time>2015-09-06T06:01:58Z</time>
      </trkpt>
      <trkpt lat="47.80775" lon="-3.43395">
        <ele>36.67</ele>
        <time>2015-09-06T06:01:59Z</time>
      </trkpt>
      <trkpt lat="47.80778" lon="-3.43389">
        <ele>37.15</ele>
        <time>2015-09-06T06:02:00Z</time>
      </trkpt>
      <trkpt lat="47.80781" lon="-3.43383">
        <ele>37.15</ele>
        <time>2015-09-06T06:02:01Z</time>
      </trkpt>
      <trkpt lat="47.80783" lon="-3.43376">
        <ele>37.63</ele>
        <time>2015-09-06T06:02:02Z</time>
      </trkpt>
      <trkpt lat="47.80786" lon="-3.4337">
        <ele>37.63</ele>
        <time>2015-09-06T06:02:03Z</time>
      </trkpt>
      <trkpt lat="47.80788" lon="-3.43363">
        <ele>37.63</ele>
        <time>2015-09-06T06:02:04Z</time>
      </trkpt>
      <trkpt lat="47.80791" lon="-3.43357">
        <ele>38.11</ele>
        <time>2015-09-06T06:02:05Z</time>
      </trkpt>
      <trkpt lat="47.80793" lon="-3.4335">
        <ele>38.11</ele>
        <time>2015-09-06T06:02:06Z</time>
      </trkpt>
      <trkpt lat="47.80795" lon="-3.43343">
        <ele>38.11</ele>
        <time>2015-09-06T06:02:07Z</time>
      </trkpt>
      <trkpt lat="47.80798" lon="-3.43337">
        <ele>38.59</ele>
        <time>2015-09-06T06:02:08Z</time>
      </trkpt>
      <trkpt lat="47.808" lon="-3.4333">
        <ele>38.59</ele>
        <time>2015-09-06T06:02:09Z</time>
      </trkpt>
      <trkpt lat="47.80802" lon="-3.43323">
        <ele>38.59</ele>
        <time>2015-09-06T06:02:10Z</time>
      </trkpt>
      <trkpt lat="47.80804" lon="-3.43317">
        <ele>38.59</ele>
        <time>2015-09-06T06:02:11Z</time>
      </trkpt>
      <trkpt lat="47.80806" lon="-3.4331">
        <ele>39.07</ele>
        <time>2015-09-06T06:02:12Z</time>
      </trkpt>
      <trkpt lat="47.80808" lon="-3.43303">
        <ele>39.07</ele>
        <time>2015-09-06T06:02:13Z</time>
      </trkpt>
      <trkpt lat="47.8081" lon="-3.43298">
        <ele>39.55</ele>
        <time>2015-09-06T06:02:14Z</time>
      </trkpt>
      <trkpt lat="47.80812" lon="-3.43291">
        <ele>39.55</ele>
        <time>2015-09-06T06:02:15Z</time>
      </trkpt>
      <trkpt lat="47.80814" lon="-3.43285">
        <ele>39.55</ele>
        <time>2015-09-06T06:02:16Z</time>
      </trkpt>
      <trkpt lat="47.80816" lon="-3.43278">
        <ele>40.03</ele>
        <time>2015-09-06T06:02:17Z</time>
      </trkpt>
      <trkpt lat="47.80818" lon="-3.43271">
        <ele>40.03</ele>
        <time>2015-09-06T06:02:18Z</time>
      </trkpt>
      <trkpt lat="47.8082" lon="-3.43265">
        <ele>40.03</ele>
        <time>2015-09-06T06:02:19Z</time>
      </trkpt>
      <trkpt lat="47.80822" lon="-3.43259">
        <ele>40.51</ele>
        <time>2015-09-06T06:02:20Z</time>
      </trkpt>
      <trkpt lat="47.80825" lon="-3.43253">
        <ele>40.51</ele>
        <time>2015-09-06T06:02:21Z</time>
      </trkpt>
      <trkpt lat="47.80827" lon="-3.43247">
        <ele>40.99</ele>
        <time>2015-09-06T06:02:22Z</time>
      </trkpt>
      <trkpt lat="47.8083" lon="-3.43241">
        <ele>40.51</ele>
        <time>2015-09-06T06:02:23Z</time>
      </trkpt>
      <trkpt lat="47.80833" lon="-3.43235">
        <ele>40.99</ele>
        <time>2015-09-06T06:02:24Z</time>
      </trkpt>
      <trkpt lat="47.80836" lon="-3.43229">
        <ele>40.99</ele>
        <time>2015-09-06T06:02:25Z</time>
      </trkpt>
      <trkpt lat="47.80839" lon="-3.43224">
        <ele>40.99</ele>
        <time>2015-09-06T06:02:26Z</time>
      </trkpt>
      <trkpt lat="47.80842" lon="-3.43219">
        <ele>40.99</ele>
        <time>2015-09-06T06:02:27Z</time>
      </trkpt>
      <trkpt lat="47.80846" lon="-3.43213">
        <ele>40.99</ele>
        <time>2015-09-06T06:02:28Z</time>
      </trkpt>
      <trkpt lat="47.80849" lon="-3.43208">
        <ele>40.51</ele>
        <time>2015-09-06T06:02:29Z</time>
      </trkpt>
      <trkpt lat="47.80853" lon="-3.43203">
        <ele>40.51</ele>
        <time>2015-09-06T06:02:30Z</time>
      </trkpt>
      <trkpt lat="47.80857" lon="-3.43197">
        <ele>40.51</ele>
        <time>2015-09-06T06:02:31Z</time>
      </trkpt>
      <trkpt lat="47.80861" lon="-3.43192">
        <ele>40.51</ele>
        <time>2015-09-06T06:02:32Z</time>
      </trkpt>
      <trkpt lat="47.80866" lon="-3.43186">
        <ele>39.07</ele>
        <time>2015-09-06T06:02:33Z</time>
      </trkpt>
      <trkpt lat="47.80871" lon="-3.43181">
        <ele>39.07</ele>
        <time>2015-09-06T06:02:34Z</time>
      </trkpt>
      <trkpt lat="47.80877" lon="-3.43177">
        <ele>38.59</ele>
        <time>2015-09-06T06:02:35Z</time>
      </trkpt>
      <trkpt lat="47.80884" lon="-3.43174">
        <ele>38.11</ele>
        <time>2015-09-06T06:02:36Z</time>
      </trkpt>
      <trkpt lat="47.8089" lon="-3.43171">
        <ele>37.63</ele>
        <time>2015-09-06T06:02:37Z</time>
      </trkpt>
      <trkpt lat="47.80897" lon="-3.43167">
        <ele>36.67</ele>
        <time>2015-09-06T06:02:38Z</time>
      </trkpt>
      <trkpt lat="47.80904" lon="-3.43163">
        <ele>36.67</ele>
        <time>2015-09-06T06:02:39Z</time>
      </trkpt>
      <trkpt lat="47.80911" lon="-3.4316">
        <ele>36.19</ele>
        <time>2015-09-06T06:02:40Z</time>
      </trkpt>
      <trkpt lat="47.80918" lon="-3.43155">
        <ele>36.19</ele>
        <time>2015-09-06T06:02:41Z</time>
      </trkpt>
      <trkpt lat="47.80925" lon="-3.43151">
        <ele>35.71</ele>
        <time>2015-09-06T06:02:42Z</time>
      </trkpt>
      <trkpt lat="47.80931" lon="-3.43148">
        <ele>35.71</ele>
        <time>2015-09-06T06:02:43Z</time>
      </trkpt>
      <trkpt lat="47.80937" lon="-3.43144">
        <ele>35.23</ele>
        <time>2015-09-06T06:02:44Z</time>
      </trkpt>
      <trkpt lat="47.80943" lon="-3.43139">
        <ele>35.23</ele>
        <time>2015-09-06T06:02:45Z</time>
      </trkpt>
      <trkpt lat="47.80949" lon="-3.43134">
        <ele>35.23</ele>
        <time>2015-09-06T06:02:46Z</time>
      </trkpt>
      <trkpt lat="47.80954" lon="-3.43129">
        <ele>35.23</ele>
        <time>2015-09-06T06:02:47Z</time>
      </trkpt>
      <trkpt lat="47.80958" lon="-3.43123">
        <ele>35.23</ele>
        <time>2015-09-06T06:02:48Z</time>
      </trkpt>
      <trkpt lat="47.80962" lon="-3.43116">
        <ele>35.23</ele>
        <time>2015-09-06T06:02:49Z</time>
      </trkpt>
      <trkpt lat="47.80966" lon="-3.43109">
        <ele>35.23</ele>
        <time>2015-09-06T06:02:50Z</time>
      </trkpt>
      <trkpt lat="47.80968" lon="-3.43102">
        <ele>35.23</ele>
        <time>2015-09-06T06:02:51Z</time>
      </trkpt>
      <trkpt lat="47.80971" lon="-3.43093">
        <ele>35.23</ele>
        <time>2015-09-06T06:02:52Z</time>
      </trkpt>
      <trkpt lat="47.80973" lon="-3.43085">
        <ele>35.23</ele>
        <time>2015-09-06T06:02:53Z</time>
      </trkpt>
      <trkpt lat="47.80975" lon="-3.43076">
        <ele>35.23</ele>
        <time>2015-09-06T06:02:54Z</time>
      </trkpt>
      <trkpt lat="47.80977" lon="-3.43067">
        <ele>35.23</ele>
        <time>2015-09-06T06:02:55Z</time>
      </trkpt>
      <trkpt lat="47.80978" lon="-3.43059">
        <ele>35.23</ele>
        <time>2015-09-06T06:02:56Z</time>
      </trkpt>
      <trkpt lat="47.80979" lon="-3.4305">
        <ele>35.23</ele>
        <time>2015-09-06T06:02:57Z</time>
      </trkpt>
      <trkpt lat="47.80981" lon="-3.43041">
        <ele>35.23</ele>
        <time>2015-09-06T06:02:58Z</time>
      </trkpt>
      <trkpt lat="47.80982" lon="-3.43032">
        <ele>35.23</ele>
        <time>2015-09-06T06:02:59Z</time>
      </trkpt>
      <trkpt lat="47.80984" lon="-3.43024">
        <ele>35.23</ele>
        <time>2015-09-06T06:03:00Z</time>
      </trkpt>
      <trkpt lat="47.80985" lon="-3.43015">
        <ele>34.74</ele>
        <time>2015-09-06T06:03:01Z</time>
      </trkpt>
      <trkpt lat="47.80986" lon="-3.43006">
        <ele>34.74</ele>
        <time>2015-09-06T06:03:02Z</time>
      </trkpt>
      <trkpt lat="47.80987" lon="-3.42998">
        <ele>34.74</ele>
        <time>2015-09-06T06:03:03Z</time>
      </trkpt>
      <trkpt lat="47.80988" lon="-3.4299">
        <ele>34.74</ele>
        <time>2015-09-06T06:03:04Z</time>
      </trkpt>
      <trkpt lat="47.80989" lon="-3.42981">
        <ele>34.74</ele>
        <time>2015-09-06T06:03:05Z</time>
      </trkpt>
      <trkpt lat="47.80989" lon="-3.42972">
        <ele>34.74</ele>
        <time>2015-09-06T06:03:06Z</time>
      </trkpt>
      <trkpt lat="47.80989" lon="-3.42964">
        <ele>34.74</ele>
        <time>2015-09-06T06:03:07Z</time>
      </trkpt>
      <trkpt lat="47.8099" lon="-3.42956">
        <ele>34.74</ele>
        <time>2015-09-06T06:03:08Z</time>
      </trkpt>
      <trkpt lat="47.8099" lon="-3.42948">
        <ele>34.74</ele>
        <time>2015-09-06T06:03:09Z</time>
      </trkpt>
      <trkpt lat="47.8099" lon="-3.4294">
        <ele>34.74</ele>
        <time>2015-09-06T06:03:10Z</time>
      </trkpt>
      <trkpt lat="47.8099" lon="-3.42932">
        <ele>34.26</ele>
        <time>2015-09-06T06:03:11Z</time>
      </trkpt>
      <trkpt lat="47.80991" lon="-3.42923">
        <ele>34.26</ele>
        <time>2015-09-06T06:03:12Z</time>
      </trkpt>
      <trkpt lat="47.80991" lon="-3.42915">
        <ele>33.78</ele>
        <time>2015-09-06T06:03:13Z</time>
      </trkpt>
      <trkpt lat="47.80992" lon="-3.42906">
        <ele>33.78</ele>
        <time>2015-09-06T06:03:14Z</time>
      </trkpt>
      <trkpt lat="47.80994" lon="-3.42896">
        <ele>32.82</ele>
        <time>2015-09-06T06:03:15Z</time>
      </trkpt>
      <trkpt lat="47.80996" lon="-3.42886">
        <ele>32.34</ele>
        <time>2015-09-06T06:03:16Z</time>
      </trkpt>
      <trkpt lat="47.80998" lon="-3.42876">
        <ele>32.34</ele>
        <time>2015-09-06T06:03:17Z</time>
      </trkpt>
      <trkpt lat="47.81001" lon="-3.42865">
        <ele>31.38</ele>
        <time>2015-09-06T06:03:18Z</time>
      </trkpt>
      <trkpt lat="47.81003" lon="-3.42854">
        <ele>31.38</ele>
        <time>2015-09-06T06:03:19Z</time>
      </trkpt>
      <trkpt lat="47.81006" lon="-3.42844">
        <ele>30.9</ele>
        <time>2015-09-06T06:03:20Z</time>
      </trkpt>
      <trkpt lat="47.81008" lon="-3.42833">
        <ele>30.42</ele>
        <time>2015-09-06T06:03:21Z</time>
      </trkpt>
      <trkpt lat="47.81011" lon="-3.42823">
        <ele>29.94</ele>
        <time>2015-09-06T06:03:22Z</time>
      </trkpt>
      <trkpt lat="47.81013" lon="-3.42813">
        <ele>29.94</ele>
        <time>2015-09-06T06:03:23Z</time>
      </trkpt>
      <trkpt lat="47.81016" lon="-3.42803">
        <ele>29.94</ele>
        <time>2015-09-06T06:03:24Z</time>
      </trkpt>
      <trkpt lat="47.81019" lon="-3.42794">
        <ele>29.94</ele>
        <time>2015-09-06T06:03:25Z</time>
      </trkpt>
      <trkpt lat="47.81021" lon="-3.42786">
        <ele>29.94</ele>
        <time>2015-09-06T06:03:26Z</time>
      </trkpt>
      <trkpt lat="47.81024" lon="-3.42778">
        <ele>29.94</ele>
        <time>2015-09-06T06:03:27Z</time>
      </trkpt>
      <trkpt lat="47.81027" lon="-3.42771">
        <ele>29.94</ele>
        <time>2015-09-06T06:03:28Z</time>
      </trkpt>
      <trkpt lat="47.8103" lon="-3.42766">
        <ele>29.94</ele>
        <time>2015-09-06T06:03:29Z</time>
      </trkpt>
      <trkpt lat="47.81032" lon="-3.42762">
        <ele>29.94</ele>
        <time>2015-09-06T06:03:30Z</time>
      </trkpt>
      <trkpt lat="47.81033" lon="-3.42757">
        <ele>29.94</ele>
        <time>2015-09-06T06:03:31Z</time>
      </trkpt>
      <trkpt lat="47.81033" lon="-3.42753">
        <ele>29.94</ele>
        <time>2015-09-06T06:03:32Z</time>
      </trkpt>
      <trkpt lat="47.81031" lon="-3.42749">
        <ele>29.94</ele>
        <time>2015-09-06T06:03:33Z</time>
      </trkpt>
      <trkpt lat="47.81029" lon="-3.42747">
        <ele>29.94</ele>
        <time>2015-09-06T06:03:34Z</time>
      </trkpt>
      <trkpt lat="47.81025" lon="-3.42745">
        <ele>29.46</ele>
        <time>2015-09-06T06:03:35Z</time>
      </trkpt>
      <trkpt lat="47.81021" lon="-3.42745">
        <ele>29.46</ele>
        <time>2015-09-06T06:03:36Z</time>
      </trkpt>
      <trkpt lat="47.81017" lon="-3.42744">
        <ele>29.46</ele>
        <time>2015-09-06T06:03:37Z</time>
      </trkpt>
      <trkpt lat="47.81012" lon="-3.42742">
        <ele>29.46</ele>
        <time>2015-09-06T06:03:38Z</time>
      </trkpt>
      <trkpt lat="47.81008" lon="-3.4274">
        <ele>28.5</ele>
        <time>2015-09-06T06:03:39Z</time>
      </trkpt>
      <trkpt lat="47.81003" lon="-3.42737">
        <ele>28.5</ele>
        <time>2015-09-06T06:03:40Z</time>
      </trkpt>
      <trkpt lat="47.80999" lon="-3.42735">
        <ele>28.5</ele>
        <time>2015-09-06T06:03:41Z</time>
      </trkpt>
      <trkpt lat="47.80995" lon="-3.42732">
        <ele>28.5</ele>
        <time>2015-09-06T06:03:42Z</time>
      </trkpt>
      <trkpt lat="47.80991" lon="-3.42729">
        <ele>28.5</ele>
        <time>2015-09-06T06:03:43Z</time>
      </trkpt>
      <trkpt lat="47.80986" lon="-3.42726">
        <ele>28.5</ele>
        <time>2015-09-06T06:03:44Z</time>
      </trkpt>
      <trkpt lat="47.80982" lon="-3.42723">
        <ele>28.5</ele>
        <time>2015-09-06T06:03:45Z</time>
      </trkpt>
      <trkpt lat="47.80978" lon="-3.42719">
        <ele>28.5</ele>
        <time>2015-09-06T06:03:46Z</time>
      </trkpt>
      <trkpt lat="47.80973" lon="-3.42716">
        <ele>28.5</ele>
        <time>2015-09-06T06:03:47Z</time>
      </trkpt>
      <trkpt lat="47.8097" lon="-3.42713">
        <ele>28.5</ele>
        <time>2015-09-06T06:03:48Z</time>
      </trkpt>
      <trkpt lat="47.80967" lon="-3.4271">
        <ele>28.5</ele>
        <time>2015-09-06T06:03:49Z</time>
      </trkpt>
      <trkpt lat="47.80964" lon="-3.42706">
        <ele>28.5</ele>
        <time>2015-09-06T06:03:50Z</time>
      </trkpt>
      <trkpt lat="47.80961" lon="-3.42703">
        <ele>28.5</ele>
        <time>2015-09-06T06:03:51Z</time>
      </trkpt>
      <trkpt lat="47.80957" lon="-3.427">
        <ele>28.5</ele>
        <time>2015-09-06T06:03:52Z</time>
      </trkpt>
      <trkpt lat="47.80953" lon="-3.42696">
        <ele>28.5</ele>
        <time>2015-09-06T06:03:53Z</time>
      </trkpt>
      <trkpt lat="47.8095" lon="-3.42693">
        <ele>28.5</ele>
        <time>2015-09-06T06:03:54Z</time>
      </trkpt>
      <trkpt lat="47.80947" lon="-3.42689">
        <ele>28.5</ele>
        <time>2015-09-06T06:03:55Z</time>
      </trkpt>
      <trkpt lat="47.80944" lon="-3.42686">
        <ele>28.5</ele>
        <time>2015-09-06T06:03:56Z</time>
      </trkpt>
      <trkpt lat="47.8094" lon="-3.42682">
        <ele>28.5</ele>
        <time>2015-09-06T06:03:57Z</time>
      </trkpt>
      <trkpt lat="47.80938" lon="-3.42678">
        <ele>28.5</ele>
        <time>2015-09-06T06:03:58Z</time>
      </trkpt>
      <trkpt lat="47.80936" lon="-3.42674">
        <ele>28.5</ele>
        <time>2015-09-06T06:03:59Z</time>
      </trkpt>
      <trkpt lat="47.80933" lon="-3.4267">
        <ele>28.5</ele>
        <time>2015-09-06T06:04:00Z</time>
      </trkpt>
      <trkpt lat="47.80931" lon="-3.42667">
        <ele>28.5</ele>
        <time>2015-09-06T06:04:01Z</time>
      </trkpt>
      <trkpt lat="47.80929" lon="-3.42662">
        <ele>28.5</ele>
        <time>2015-09-06T06:04:02Z</time>
      </trkpt>
      <trkpt lat="47.80925" lon="-3.42658">
        <ele>28.5</ele>
        <time>2015-09-06T06:04:03Z</time>
      </trkpt>
      <trkpt lat="47.80922" lon="-3.42652">
        <ele>28.5</ele>
        <time>2015-09-06T06:04:04Z</time>
      </trkpt>
      <trkpt lat="47.8092" lon="-3.42647">
        <ele>28.5</ele>
        <time>2015-09-06T06:04:05Z</time>
      </trkpt>
      <trkpt lat="47.80917" lon="-3.42641">
        <ele>28.5</ele>
        <time>2015-09-06T06:04:06Z</time>
      </trkpt>
      <trkpt lat="47.80915" lon="-3.42635">
        <ele>28.5</ele>
        <time>2015-09-06T06:04:07Z</time>
      </trkpt>
      <trkpt lat="47.80912" lon="-3.42628">
        <ele>28.5</ele>
        <time>2015-09-06T06:04:08Z</time>
      </trkpt>
      <trkpt lat="47.8091" lon="-3.42622">
        <ele>28.02</ele>
        <time>2015-09-06T06:04:09Z</time>
      </trkpt>
      <trkpt lat="47.80908" lon="-3.42616">
        <ele>28.02</ele>
        <time>2015-09-06T06:04:10Z</time>
      </trkpt>
      <trkpt lat="47.80905" lon="-3.42611">
        <ele>27.05</ele>
        <time>2015-09-06T06:04:11Z</time>
      </trkpt>
      <trkpt lat="47.80903" lon="-3.42605">
        <ele>27.05</ele>
        <time>2015-09-06T06:04:12Z</time>
      </trkpt>
      <trkpt lat="47.80902" lon="-3.42599">
        <ele>27.05</ele>
        <time>2015-09-06T06:04:13Z</time>
      </trkpt>
      <trkpt lat="47.809" lon="-3.42592">
        <ele>27.05</ele>
        <time>2015-09-06T06:04:14Z</time>
      </trkpt>
      <trkpt lat="47.80897" lon="-3.42585">
        <ele>27.05</ele>
        <time>2015-09-06T06:04:15Z</time>
      </trkpt>
      <trkpt lat="47.80893" lon="-3.42578">
        <ele>26.09</ele>
        <time>2015-09-06T06:04:16Z</time>
      </trkpt>
      <trkpt lat="47.80888" lon="-3.42571">
        <ele>26.09</ele>
        <time>2015-09-06T06:04:17Z</time>
      </trkpt>
      <trkpt lat="47.80884" lon="-3.42563">
        <ele>26.09</ele>
        <time>2015-09-06T06:04:18Z</time>
      </trkpt>
      <trkpt lat="47.8088" lon="-3.42556">
        <ele>25.61</ele>
        <time>2015-09-06T06:04:19Z</time>
      </trkpt>
      <trkpt lat="47.80876" lon="-3.4255">
        <ele>25.61</ele>
        <time>2015-09-06T06:04:20Z</time>
      </trkpt>
      <trkpt lat="47.80872" lon="-3.42544">
        <ele>25.61</ele>
        <time>2015-09-06T06:04:21Z</time>
      </trkpt>
      <trkpt lat="47.80868" lon="-3.42537">
        <ele>25.61</ele>
        <time>2015-09-06T06:04:22Z</time>
      </trkpt>
      <trkpt lat="47.80864" lon="-3.42532">
        <ele>25.13</ele>
        <time>2015-09-06T06:04:23Z</time>
      </trkpt>
      <trkpt lat="47.80862" lon="-3.42527">
        <ele>25.13</ele>
        <time>2015-09-06T06:04:24Z</time>
      </trkpt>
      <trkpt lat="47.8086" lon="-3.42524">
        <ele>25.13</ele>
        <time>2015-09-06T06:04:25Z</time>
      </trkpt>
      <trkpt lat="47.80858" lon="-3.42521">
        <ele>25.13</ele>
        <time>2015-09-06T06:04:26Z</time>
      </trkpt>
      <trkpt lat="47.80857" lon="-3.42518">
        <ele>25.13</ele>
        <time>2015-09-06T06:04:27Z</time>
      </trkpt>
      <trkpt lat="47.80857" lon="-3.42517">
        <ele>25.13</ele>
        <time>2015-09-06T06:04:28Z</time>
      </trkpt>
      <trkpt lat="47.80852" lon="-3.42512">
        <ele>25.13</ele>
        <time>2015-09-06T06:04:33Z</time>
      </trkpt>
      <trkpt lat="47.80851" lon="-3.4251">
        <ele>25.13</ele>
        <time>2015-09-06T06:04:34Z</time>
      </trkpt>
      <trkpt lat="47.8085" lon="-3.4251">
        <ele>25.13</ele>
        <time>2015-09-06T06:04:35Z</time>
      </trkpt>
      <trkpt lat="47.8085" lon="-3.42506">
        <ele>25.13</ele>
        <time>2015-09-06T06:04:37Z</time>
      </trkpt>
      <trkpt lat="47.80849" lon="-3.42504">
        <ele>24.65</ele>
        <time>2015-09-06T06:04:38Z</time>
      </trkpt>
      <trkpt lat="47.80848" lon="-3.42503">
        <ele>24.65</ele>
        <time>2015-09-06T06:04:39Z</time>
      </trkpt>
      <trkpt lat="47.80847" lon="-3.42501">
        <ele>25.13</ele>
        <time>2015-09-06T06:04:40Z</time>
      </trkpt>
      <trkpt lat="47.80847" lon="-3.42499">
        <ele>24.65</ele>
        <time>2015-09-06T06:04:41Z</time>
      </trkpt>
      <trkpt lat="47.80847" lon="-3.42498">
        <ele>25.13</ele>
        <time>2015-09-06T06:04:42Z</time>
      </trkpt>
      <trkpt lat="47.80847" lon="-3.42496">
        <ele>25.13</ele>
        <time>2015-09-06T06:04:43Z</time>
      </trkpt>
      <trkpt lat="47.80847" lon="-3.42495">
        <ele>25.13</ele>
        <time>2015-09-06T06:04:44Z</time>
      </trkpt>
      <trkpt lat="47.80846" lon="-3.42493">
        <ele>25.13</ele>
        <time>2015-09-06T06:04:45Z</time>
      </trkpt>
      <trkpt lat="47.80846" lon="-3.42492">
        <ele>25.13</ele>
        <time>2015-09-06T06:04:46Z</time>
      </trkpt>
      <trkpt lat="47.80846" lon="-3.4249">
        <ele>24.65</ele>
        <time>2015-09-06T06:04:47Z</time>
      </trkpt>
      <trkpt lat="47.80845" lon="-3.42489">
        <ele>24.65</ele>
        <time>2015-09-06T06:04:48Z</time>
      </trkpt>
      <trkpt lat="47.80845" lon="-3.42488">
        <ele>24.65</ele>
        <time>2015-09-06T06:04:49Z</time>
      </trkpt>
      <trkpt lat="47.80846" lon="-3.42487">
        <ele>24.65</ele>
        <time>2015-09-06T06:04:50Z</time>
      </trkpt>
      <trkpt lat="47.80846" lon="-3.42486">
        <ele>24.65</ele>
        <time>2015-09-06T06:04:51Z</time>
      </trkpt>
      <trkpt lat="47.80847" lon="-3.42486">
        <ele>24.65</ele>
        <time>2015-09-06T06:04:52Z</time>
      </trkpt>
      <trkpt lat="47.80846" lon="-3.42484">
        <ele>24.65</ele>
        <time>2015-09-06T06:04:53Z</time>
      </trkpt>
      <trkpt lat="47.80846" lon="-3.42482">
        <ele>24.65</ele>
        <time>2015-09-06T06:04:54Z</time>
      </trkpt>
      <trkpt lat="47.80845" lon="-3.4248">
        <ele>24.65</ele>
        <time>2015-09-06T06:04:55Z</time>
      </trkpt>
      <trkpt lat="47.80845" lon="-3.42478">
        <ele>24.65</ele>
        <time>2015-09-06T06:04:56Z</time>
      </trkpt>
      <trkpt lat="47.80845" lon="-3.42476">
        <ele>24.65</ele>
        <time>2015-09-06T06:04:57Z</time>
      </trkpt>
      <trkpt lat="47.80844" lon="-3.42472">
        <ele>24.65</ele>
        <time>2015-09-06T06:04:58Z</time>
      </trkpt>
      <trkpt lat="47.80845" lon="-3.42468">
        <ele>24.65</ele>
        <time>2015-09-06T06:04:59Z</time>
      </trkpt>
      <trkpt lat="47.80845" lon="-3.42463">
        <ele>24.65</ele>
        <time>2015-09-06T06:05:00Z</time>
      </trkpt>
      <trkpt lat="47.80847" lon="-3.42459">
        <ele>23.69</ele>
        <time>2015-09-06T06:05:01Z</time>
      </trkpt>
      <trkpt lat="47.8085" lon="-3.42454">
        <ele>23.69</ele>
        <time>2015-09-06T06:05:02Z</time>
      </trkpt>
      <trkpt lat="47.80852" lon="-3.42449">
        <ele>23.69</ele>
        <time>2015-09-06T06:05:03Z</time>
      </trkpt>
      <trkpt lat="47.80854" lon="-3.42444">
        <ele>23.69</ele>
        <time>2015-09-06T06:05:04Z</time>
      </trkpt>
      <trkpt lat="47.80857" lon="-3.42439">
        <ele>23.69</ele>
        <time>2015-09-06T06:05:05Z</time>
      </trkpt>
      <trkpt lat="47.80858" lon="-3.42434">
        <ele>23.69</ele>
        <time>2015-09-06T06:05:06Z</time>
      </trkpt>
      <trkpt lat="47.8086" lon="-3.42428">
        <ele>23.21</ele>
        <time>2015-09-06T06:05:07Z</time>
      </trkpt>
      <trkpt lat="47.80861" lon="-3.42422">
        <ele>23.21</ele>
        <time>2015-09-06T06:05:08Z</time>
      </trkpt>
      <trkpt lat="47.80862" lon="-3.42416">
        <ele>23.21</ele>
        <time>2015-09-06T06:05:09Z</time>
      </trkpt>
      <trkpt lat="47.80863" lon="-3.42411">
        <ele>23.21</ele>
        <time>2015-09-06T06:05:10Z</time>
      </trkpt>
      <trkpt lat="47.80864" lon="-3.42404">
        <ele>23.21</ele>
        <time>2015-09-06T06:05:11Z</time>
      </trkpt>
      <trkpt lat="47.80866" lon="-3.42398">
        <ele>23.21</ele>
        <time>2015-09-06T06:05:12Z</time>
      </trkpt>
      <trkpt lat="47.80868" lon="-3.4239">
        <ele>23.21</ele>
        <time>2015-09-06T06:05:13Z</time>
      </trkpt>
      <trkpt lat="47.80869" lon="-3.42382">
        <ele>23.21</ele>
        <time>2015-09-06T06:05:14Z</time>
      </trkpt>
      <trkpt lat="47.8087" lon="-3.42374">
        <ele>23.21</ele>
        <time>2015-09-06T06:05:15Z</time>
      </trkpt>
      <trkpt lat="47.80871" lon="-3.42367">
        <ele>23.21</ele>
        <time>2015-09-06T06:05:16Z</time>
      </trkpt>
      <trkpt lat="47.80873" lon="-3.42361">
        <ele>23.21</ele>
        <time>2015-09-06T06:05:17Z</time>
      </trkpt>
      <trkpt lat="47.80874" lon="-3.42354">
        <ele>22.25</ele>
        <time>2015-09-06T06:05:18Z</time>
      </trkpt>
      <trkpt lat="47.80876" lon="-3.42346">
        <ele>21.77</ele>
        <time>2015-09-06T06:05:19Z</time>
      </trkpt>
      <trkpt lat="47.80877" lon="-3.42337">
        <ele>21.77</ele>
        <time>2015-09-06T06:05:20Z</time>
      </trkpt>
      <trkpt lat="47.80878" lon="-3.42327">
        <ele>21.77</ele>
        <time>2015-09-06T06:05:21Z</time>
      </trkpt>
      <trkpt lat="47.80878" lon="-3.42317">
        <ele>21.77</ele>
        <time>2015-09-06T06:05:22Z</time>
      </trkpt>
      <trkpt lat="47.80877" lon="-3.42307">
        <ele>21.77</ele>
        <time>2015-09-06T06:05:23Z</time>
      </trkpt>
      <trkpt lat="47.80877" lon="-3.42299">
        <ele>21.77</ele>
        <time>2015-09-06T06:05:24Z</time>
      </trkpt>
      <trkpt lat="47.80876" lon="-3.4229">
        <ele>20.81</ele>
        <time>2015-09-06T06:05:25Z</time>
      </trkpt>
      <trkpt lat="47.80877" lon="-3.42281">
        <ele>20.81</ele>
        <time>2015-09-06T06:05:26Z</time>
      </trkpt>
      <trkpt lat="47.80879" lon="-3.42272">
        <ele>20.32</ele>
        <time>2015-09-06T06:05:27Z</time>
      </trkpt>
      <trkpt lat="47.80881" lon="-3.42264">
        <ele>20.32</ele>
        <time>2015-09-06T06:05:28Z</time>
      </trkpt>
      <trkpt lat="47.80883" lon="-3.42256">
        <ele>20.32</ele>
        <time>2015-09-06T06:05:29Z</time>
      </trkpt>
      <trkpt lat="47.80885" lon="-3.42248">
        <ele>19.84</ele>
        <time>2015-09-06T06:05:30Z</time>
      </trkpt>
      <trkpt lat="47.80888" lon="-3.42239">
        <ele>19.84</ele>
        <time>2015-09-06T06:05:31Z</time>
      </trkpt>
      <trkpt lat="47.80891" lon="-3.42231">
        <ele>19.84</ele>
        <time>2015-09-06T06:05:32Z</time>
      </trkpt>
      <trkpt lat="47.80895" lon="-3.42224">
        <ele>19.84</ele>
        <time>2015-09-06T06:05:33Z</time>
      </trkpt>
      <trkpt lat="47.809" lon="-3.42217">
        <ele>19.84</ele>
        <time>2015-09-06T06:05:34Z</time>
      </trkpt>
      <trkpt lat="47.80903" lon="-3.4221">
        <ele>19.84</ele>
        <time>2015-09-06T06:05:35Z</time>
      </trkpt>
      <trkpt lat="47.80907" lon="-3.42204">
        <ele>19.84</ele>
        <time>2015-09-06T06:05:36Z</time>
      </trkpt>
      <trkpt lat="47.80911" lon="-3.42197">
        <ele>19.84</ele>
        <time>2015-09-06T06:05:37Z</time>
      </trkpt>
      <trkpt lat="47.80914" lon="-3.42191">
        <ele>19.84</ele>
        <time>2015-09-06T06:05:38Z</time>
      </trkpt>
      <trkpt lat="47.80918" lon="-3.42186">
        <ele>19.36</ele>
        <time>2015-09-06T06:05:39Z</time>
      </trkpt>
      <trkpt lat="47.80922" lon="-3.42181">
        <ele>19.36</ele>
        <time>2015-09-06T06:05:40Z</time>
      </trkpt>
      <trkpt lat="47.80927" lon="-3.42175">
        <ele>19.36</ele>
        <time>2015-09-06T06:05:41Z</time>
      </trkpt>
      <trkpt lat="47.80931" lon="-3.42171">
        <ele>19.36</ele>
        <time>2015-09-06T06:05:42Z</time>
      </trkpt>
      <trkpt lat="47.80935" lon="-3.42166">
        <ele>19.36</ele>
        <time>2015-09-06T06:05:43Z</time>
      </trkpt>
      <trkpt lat="47.8094" lon="-3.42162">
        <ele>19.36</ele>
        <time>2015-09-06T06:05:44Z</time>
      </trkpt>
      <trkpt lat="47.80944" lon="-3.42157">
        <ele>19.36</ele>
        <time>2015-09-06T06:05:45Z</time>
      </trkpt>
      <trkpt lat="47.80949" lon="-3.42152">
        <ele>19.36</ele>
        <time>2015-09-06T06:05:46Z</time>
      </trkpt>
      <trkpt lat="47.80954" lon="-3.42147">
        <ele>18.88</ele>
        <time>2015-09-06T06:05:47Z</time>
      </trkpt>
      <trkpt lat="47.8096" lon="-3.42142">
        <ele>18.88</ele>
        <time>2015-09-06T06:05:48Z</time>
      </trkpt>
      <trkpt lat="47.80965" lon="-3.42138">
        <ele>18.88</ele>
        <time>2015-09-06T06:05:49Z</time>
      </trkpt>
      <trkpt lat="47.8097" lon="-3.42134">
        <ele>18.88</ele>
        <time>2015-09-06T06:05:50Z</time>
      </trkpt>
      <trkpt lat="47.80976" lon="-3.4213">
        <ele>18.88</ele>
        <time>2015-09-06T06:05:51Z</time>
      </trkpt>
      <trkpt lat="47.80981" lon="-3.42125">
        <ele>18.88</ele>
        <time>2015-09-06T06:05:52Z</time>
      </trkpt>
      <trkpt lat="47.80986" lon="-3.42121">
        <ele>18.88</ele>
        <time>2015-09-06T06:05:53Z</time>
      </trkpt>
      <trkpt lat="47.80991" lon="-3.42116">
        <ele>18.88</ele>
        <time>2015-09-06T06:05:54Z</time>
      </trkpt>
      <trkpt lat="47.80996" lon="-3.42112">
        <ele>18.88</ele>
        <time>2015-09-06T06:05:55Z</time>
      </trkpt>
      <trkpt lat="47.81" lon="-3.42108">
        <ele>18.88</ele>
        <time>2015-09-06T06:05:56Z</time>
      </trkpt>
      <trkpt lat="47.81004" lon="-3.42104">
        <ele>18.88</ele>
        <time>2015-09-06T06:05:57Z</time>
      </trkpt>
      <trkpt lat="47.81006" lon="-3.42099">
        <ele>18.88</ele>
        <time>2015-09-06T06:05:58Z</time>
      </trkpt>
      <trkpt lat="47.81009" lon="-3.42094">
        <ele>18.88</ele>
        <time>2015-09-06T06:05:59Z</time>
      </trkpt>
      <trkpt lat="47.81011" lon="-3.42089">
        <ele>18.88</ele>
        <time>2015-09-06T06:06:00Z</time>
      </trkpt>
      <trkpt lat="47.81013" lon="-3.42084">
        <ele>18.88</ele>
        <time>2015-09-06T06:06:01Z</time>
      </trkpt>
      <trkpt lat="47.81016" lon="-3.42077">
        <ele>18.88</ele>
        <time>2015-09-06T06:06:02Z</time>
      </trkpt>
      <trkpt lat="47.81018" lon="-3.42071">
        <ele>18.88</ele>
        <time>2015-09-06T06:06:03Z</time>
      </trkpt>
      <trkpt lat="47.81021" lon="-3.42064">
        <ele>18.88</ele>
        <time>2015-09-06T06:06:04Z</time>
      </trkpt>
      <trkpt lat="47.81022" lon="-3.42057">
        <ele>18.88</ele>
        <time>2015-09-06T06:06:05Z</time>
      </trkpt>
      <trkpt lat="47.81024" lon="-3.4205">
        <ele>18.88</ele>
        <time>2015-09-06T06:06:06Z</time>
      </trkpt>
      <trkpt lat="47.81025" lon="-3.42044">
        <ele>18.88</ele>
        <time>2015-09-06T06:06:07Z</time>
      </trkpt>
      <trkpt lat="47.81025" lon="-3.42038">
        <ele>18.88</ele>
        <time>2015-09-06T06:06:08Z</time>
      </trkpt>
      <trkpt lat="47.81026" lon="-3.42031">
        <ele>18.88</ele>
        <time>2015-09-06T06:06:09Z</time>
      </trkpt>
      <trkpt lat="47.81026" lon="-3.42026">
        <ele>18.88</ele>
        <time>2015-09-06T06:06:10Z</time>
      </trkpt>
      <trkpt lat="47.81027" lon="-3.4202">
        <ele>18.88</ele>
        <time>2015-09-06T06:06:11Z</time>
      </trkpt>
      <trkpt lat="47.81028" lon="-3.42014">
        <ele>18.88</ele>
        <time>2015-09-06T06:06:12Z</time>
      </trkpt>
      <trkpt lat="47.81029" lon="-3.42008">
        <ele>18.88</ele>
        <time>2015-09-06T06:06:13Z</time>
      </trkpt>
      <trkpt lat="47.81031" lon="-3.42002">
        <ele>18.88</ele>
        <time>2015-09-06T06:06:14Z</time>
      </trkpt>
      <trkpt lat="47.81032" lon="-3.41998">
        <ele>18.88</ele>
        <time>2015-09-06T06:06:15Z</time>
      </trkpt>
      <trkpt lat="47.81033" lon="-3.41994">
        <ele>18.88</ele>
        <time>2015-09-06T06:06:16Z</time>
      </trkpt>
      <trkpt lat="47.81034" lon="-3.41991">
        <ele>18.88</ele>
        <time>2015-09-06T06:06:17Z</time>
      </trkpt>
      <trkpt lat="47.81035" lon="-3.41988">
        <ele>18.88</ele>
        <time>2015-09-06T06:06:18Z</time>
      </trkpt>
      <trkpt lat="47.81035" lon="-3.41985">
        <ele>18.88</ele>
        <time>2015-09-06T06:06:19Z</time>
      </trkpt>
      <trkpt lat="47.81036" lon="-3.41982">
        <ele>18.88</ele>
        <time>2015-09-06T06:06:20Z</time>
      </trkpt>
      <trkpt lat="47.81037" lon="-3.4198">
        <ele>18.88</ele>
        <time>2015-09-06T06:06:21Z</time>
      </trkpt>
      <trkpt lat="47.81037" lon="-3.41977">
        <ele>18.88</ele>
        <time>2015-09-06T06:06:22Z</time>
      </trkpt>
      <trkpt lat="47.81038" lon="-3.41974">
        <ele>18.88</ele>
        <time>2015-09-06T06:06:23Z</time>
      </trkpt>
      <trkpt lat="47.81039" lon="-3.41972">
        <ele>18.88</ele>
        <time>2015-09-06T06:06:24Z</time>
      </trkpt>
      <trkpt lat="47.8104" lon="-3.41969">
        <ele>18.88</ele>
        <time>2015-09-06T06:06:25Z</time>
      </trkpt>
      <trkpt lat="47.81042" lon="-3.41965">
        <ele>18.88</ele>
        <time>2015-09-06T06:06:26Z</time>
      </trkpt>
      <trkpt lat="47.81043" lon="-3.41961">
        <ele>18.88</ele>
        <time>2015-09-06T06:06:27Z</time>
      </trkpt>
      <trkpt lat="47.81044" lon="-3.41957">
        <ele>18.88</ele>
        <time>2015-09-06T06:06:28Z</time>
      </trkpt>
      <trkpt lat="47.81046" lon="-3.41953">
        <ele>18.88</ele>
        <time>2015-09-06T06:06:29Z</time>
      </trkpt>
      <trkpt lat="47.81048" lon="-3.41947">
        <ele>18.88</ele>
        <time>2015-09-06T06:06:30Z</time>
      </trkpt>
      <trkpt lat="47.8105" lon="-3.41941">
        <ele>18.88</ele>
        <time>2015-09-06T06:06:31Z</time>
      </trkpt>
      <trkpt lat="47.81054" lon="-3.41935">
        <ele>18.88</ele>
        <time>2015-09-06T06:06:32Z</time>
      </trkpt>
      <trkpt lat="47.81057" lon="-3.41929">
        <ele>18.88</ele>
        <time>2015-09-06T06:06:33Z</time>
      </trkpt>
      <trkpt lat="47.8106" lon="-3.41923">
        <ele>18.88</ele>
        <time>2015-09-06T06:06:34Z</time>
      </trkpt>
      <trkpt lat="47.81061" lon="-3.41918">
        <ele>18.88</ele>
        <time>2015-09-06T06:06:35Z</time>
      </trkpt>
      <trkpt lat="47.81062" lon="-3.41912">
        <ele>18.88</ele>
        <time>2015-09-06T06:06:36Z</time>
      </trkpt>
      <trkpt lat="47.81062" lon="-3.41906">
        <ele>17.92</ele>
        <time>2015-09-06T06:06:37Z</time>
      </trkpt>
      <trkpt lat="47.81063" lon="-3.419">
        <ele>16.96</ele>
        <time>2015-09-06T06:06:38Z</time>
      </trkpt>
      <trkpt lat="47.81065" lon="-3.41895">
        <ele>16</ele>
        <time>2015-09-06T06:06:39Z</time>
      </trkpt>
      <trkpt lat="47.81067" lon="-3.41889">
        <ele>15.04</ele>
        <time>2015-09-06T06:06:40Z</time>
      </trkpt>
      <trkpt lat="47.81071" lon="-3.41884">
        <ele>14.56</ele>
        <time>2015-09-06T06:06:41Z</time>
      </trkpt>
      <trkpt lat="47.81074" lon="-3.41879">
        <ele>14.56</ele>
        <time>2015-09-06T06:06:42Z</time>
      </trkpt>
      <trkpt lat="47.81076" lon="-3.41873">
        <ele>14.56</ele>
        <time>2015-09-06T06:06:43Z</time>
      </trkpt>
      <trkpt lat="47.81077" lon="-3.41868">
        <ele>14.56</ele>
        <time>2015-09-06T06:06:44Z</time>
      </trkpt>
      <trkpt lat="47.81078" lon="-3.41864">
        <ele>14.08</ele>
        <time>2015-09-06T06:06:45Z</time>
      </trkpt>
      <trkpt lat="47.8108" lon="-3.4186">
        <ele>13.12</ele>
        <time>2015-09-06T06:06:46Z</time>
      </trkpt>
      <trkpt lat="47.81083" lon="-3.41858">
        <ele>13.6</ele>
        <time>2015-09-06T06:06:47Z</time>
      </trkpt>
      <trkpt lat="47.81084" lon="-3.41855">
        <ele>13.12</ele>
        <time>2015-09-06T06:06:48Z</time>
      </trkpt>
      <trkpt lat="47.81086" lon="-3.41854">
        <ele>13.12</ele>
        <time>2015-09-06T06:06:49Z</time>
      </trkpt>
      <trkpt lat="47.81087" lon="-3.41853">
        <ele>13.12</ele>
        <time>2015-09-06T06:06:50Z</time>
      </trkpt>
      <trkpt lat="47.81087" lon="-3.41851">
        <ele>13.12</ele>
        <time>2015-09-06T06:06:51Z</time>
      </trkpt>
      <trkpt lat="47.81088" lon="-3.4185">
        <ele>13.12</ele>
        <time>2015-09-06T06:06:52Z</time>
      </trkpt>
      <trkpt lat="47.81088" lon="-3.41847">
        <ele>13.12</ele>
        <time>2015-09-06T06:06:53Z</time>
      </trkpt>
      <trkpt lat="47.81087" lon="-3.41846">
        <ele>13.12</ele>
        <time>2015-09-06T06:06:54Z</time>
      </trkpt>
      <trkpt lat="47.81087" lon="-3.41844">
        <ele>13.12</ele>
        <time>2015-09-06T06:06:55Z</time>
      </trkpt>
      <trkpt lat="47.81087" lon="-3.41842">
        <ele>13.12</ele>
        <time>2015-09-06T06:06:56Z</time>
      </trkpt>
      <trkpt lat="47.81087" lon="-3.4184">
        <ele>13.12</ele>
        <time>2015-09-06T06:06:57Z</time>
      </trkpt>
      <trkpt lat="47.81087" lon="-3.41838">
        <ele>13.12</ele>
        <time>2015-09-06T06:06:58Z</time>
      </trkpt>
      <trkpt lat="47.81086" lon="-3.41836">
        <ele>13.12</ele>
        <time>2015-09-06T06:06:59Z</time>
      </trkpt>
      <trkpt lat="47.81086" lon="-3.41835">
        <ele>13.12</ele>
        <time>2015-09-06T06:07:00Z</time>
      </trkpt>
      <trkpt lat="47.81086" lon="-3.41833">
        <ele>13.12</ele>
        <time>2015-09-06T06:07:01Z</time>
      </trkpt>
      <trkpt lat="47.81085" lon="-3.41831">
        <ele>13.12</ele>
        <time>2015-09-06T06:07:02Z</time>
      </trkpt>
      <trkpt lat="47.81085" lon="-3.41829">
        <ele>13.12</ele>
        <time>2015-09-06T06:07:03Z</time>
      </trkpt>
      <trkpt lat="47.81085" lon="-3.41827">
        <ele>13.12</ele>
        <time>2015-09-06T06:07:04Z</time>
      </trkpt>
      <trkpt lat="47.81085" lon="-3.41826">
        <ele>13.12</ele>
        <time>2015-09-06T06:07:05Z</time>
      </trkpt>
      <trkpt lat="47.81085" lon="-3.41823">
        <ele>13.12</ele>
        <time>2015-09-06T06:07:06Z</time>
      </trkpt>
      <trkpt lat="47.81085" lon="-3.4182">
        <ele>12.63</ele>
        <time>2015-09-06T06:07:07Z</time>
      </trkpt>
      <trkpt lat="47.81084" lon="-3.41818">
        <ele>12.63</ele>
        <time>2015-09-06T06:07:08Z</time>
      </trkpt>
      <trkpt lat="47.81084" lon="-3.41815">
        <ele>12.63</ele>
        <time>2015-09-06T06:07:09Z</time>
      </trkpt>
      <trkpt lat="47.81083" lon="-3.41812">
        <ele>12.63</ele>
        <time>2015-09-06T06:07:10Z</time>
      </trkpt>
      <trkpt lat="47.81082" lon="-3.4181">
        <ele>12.63</ele>
        <time>2015-09-06T06:07:11Z</time>
      </trkpt>
      <trkpt lat="47.81082" lon="-3.41808">
        <ele>12.63</ele>
        <time>2015-09-06T06:07:12Z</time>
      </trkpt>
      <trkpt lat="47.81081" lon="-3.41807">
        <ele>12.63</ele>
        <time>2015-09-06T06:07:13Z</time>
      </trkpt>
      <trkpt lat="47.8108" lon="-3.41805">
        <ele>12.63</ele>
        <time>2015-09-06T06:07:14Z</time>
      </trkpt>
      <trkpt lat="47.81079" lon="-3.41804">
        <ele>14.08</ele>
        <time>2015-09-06T06:07:15Z</time>
      </trkpt>
      <trkpt lat="47.81078" lon="-3.41804">
        <ele>14.08</ele>
        <time>2015-09-06T06:07:16Z</time>
      </trkpt>
      <trkpt lat="47.81077" lon="-3.41804">
        <ele>14.56</ele>
        <time>2015-09-06T06:07:23Z</time>
      </trkpt>
      <trkpt lat="47.81076" lon="-3.41803">
        <ele>14.56</ele>
        <time>2015-09-06T06:07:24Z</time>
      </trkpt>
      <trkpt lat="47.81075" lon="-3.41801">
        <ele>15.04</ele>
        <time>2015-09-06T06:07:25Z</time>
      </trkpt>
      <trkpt lat="47.81074" lon="-3.418">
        <ele>15.04</ele>
        <time>2015-09-06T06:07:26Z</time>
      </trkpt>
      <trkpt lat="47.81074" lon="-3.41799">
        <ele>15.52</ele>
        <time>2015-09-06T06:07:27Z</time>
      </trkpt>
      <trkpt lat="47.81074" lon="-3.41797">
        <ele>15.52</ele>
        <time>2015-09-06T06:07:29Z</time>
      </trkpt>
      <trkpt lat="47.81073" lon="-3.41796">
        <ele>15.52</ele>
        <time>2015-09-06T06:07:30Z</time>
      </trkpt>
      <trkpt lat="47.81073" lon="-3.41792">
        <ele>15.52</ele>
        <time>2015-09-06T06:07:31Z</time>
      </trkpt>
      <trkpt lat="47.81071" lon="-3.41791">
        <ele>15.52</ele>
        <time>2015-09-06T06:07:32Z</time>
      </trkpt>
      <trkpt lat="47.81069" lon="-3.4179">
        <ele>16</ele>
        <time>2015-09-06T06:07:33Z</time>
      </trkpt>
      <trkpt lat="47.81067" lon="-3.41789">
        <ele>16</ele>
        <time>2015-09-06T06:07:34Z</time>
      </trkpt>
      <trkpt lat="47.81066" lon="-3.41789">
        <ele>16.48</ele>
        <time>2015-09-06T06:07:35Z</time>
      </trkpt>
      <trkpt lat="47.81063" lon="-3.41789">
        <ele>16.48</ele>
        <time>2015-09-06T06:07:36Z</time>
      </trkpt>
      <trkpt lat="47.81062" lon="-3.41788">
        <ele>16.96</ele>
        <time>2015-09-06T06:07:37Z</time>
      </trkpt>
      <trkpt lat="47.8106" lon="-3.41788">
        <ele>17.44</ele>
        <time>2015-09-06T06:07:38Z</time>
      </trkpt>
      <trkpt lat="47.81059" lon="-3.41787">
        <ele>17.44</ele>
        <time>2015-09-06T06:07:39Z</time>
      </trkpt>
      <trkpt lat="47.81058" lon="-3.41786">
        <ele>17.92</ele>
        <time>2015-09-06T06:07:40Z</time>
      </trkpt>
      <trkpt lat="47.81057" lon="-3.41785">
        <ele>17.92</ele>
        <time>2015-09-06T06:07:41Z</time>
      </trkpt>
      <trkpt lat="47.81056" lon="-3.41783">
        <ele>17.92</ele>
        <time>2015-09-06T06:07:42Z</time>
      </trkpt>
      <trkpt lat="47.81055" lon="-3.41781">
        <ele>18.4</ele>
        <time>2015-09-06T06:07:43Z</time>
      </trkpt>
      <trkpt lat="47.81054" lon="-3.41779">
        <ele>18.4</ele>
        <time>2015-09-06T06:07:44Z</time>
      </trkpt>
      <trkpt lat="47.81053" lon="-3.41777">
        <ele>18.88</ele>
        <time>2015-09-06T06:07:45Z</time>
      </trkpt>
      <trkpt lat="47.81051" lon="-3.41776">
        <ele>18.88</ele>
        <time>2015-09-06T06:07:46Z</time>
      </trkpt>
      <trkpt lat="47.81049" lon="-3.41775">
        <ele>19.36</ele>
        <time>2015-09-06T06:07:47Z</time>
      </trkpt>
      <trkpt lat="47.81047" lon="-3.41774">
        <ele>19.84</ele>
        <time>2015-09-06T06:07:48Z</time>
      </trkpt>
      <trkpt lat="47.81046" lon="-3.41773">
        <ele>19.84</ele>
        <time>2015-09-06T06:07:49Z</time>
      </trkpt>
      <trkpt lat="47.81044" lon="-3.41772">
        <ele>20.32</ele>
        <time>2015-09-06T06:07:50Z</time>
      </trkpt>
      <trkpt lat="47.81042" lon="-3.41771">
        <ele>20.32</ele>
        <time>2015-09-06T06:07:51Z</time>
      </trkpt>
      <trkpt lat="47.8104" lon="-3.4177">
        <ele>20.32</ele>
        <time>2015-09-06T06:07:52Z</time>
      </trkpt>
      <trkpt lat="47.81039" lon="-3.4177">
        <ele>20.32</ele>
        <time>2015-09-06T06:07:53Z</time>
      </trkpt>
      <trkpt lat="47.81038" lon="-3.41769">
        <ele>20.32</ele>
        <time>2015-09-06T06:07:54Z</time>
      </trkpt>
      <trkpt lat="47.81037" lon="-3.41769">
        <ele>20.81</ele>
        <time>2015-09-06T06:07:55Z</time>
      </trkpt>
      <trkpt lat="47.81035" lon="-3.41768">
        <ele>20.81</ele>
        <time>2015-09-06T06:07:56Z</time>
      </trkpt>
      <trkpt lat="47.81033" lon="-3.41767">
        <ele>21.29</ele>
        <time>2015-09-06T06:07:57Z</time>
      </trkpt>
      <trkpt lat="47.8103" lon="-3.41766">
        <ele>21.29</ele>
        <time>2015-09-06T06:07:58Z</time>
      </trkpt>
      <trkpt lat="47.81028" lon="-3.41766">
        <ele>21.29</ele>
        <time>2015-09-06T06:07:59Z</time>
      </trkpt>
      <trkpt lat="47.81026" lon="-3.41765">
        <ele>21.29</ele>
        <time>2015-09-06T06:08:00Z</time>
      </trkpt>
      <trkpt lat="47.81024" lon="-3.41764">
        <ele>21.29</ele>
        <time>2015-09-06T06:08:01Z</time>
      </trkpt>
      <trkpt lat="47.81023" lon="-3.41764">
        <ele>22.25</ele>
        <time>2015-09-06T06:08:02Z</time>
      </trkpt>
      <trkpt lat="47.8102" lon="-3.41763">
        <ele>22.25</ele>
        <time>2015-09-06T06:08:03Z</time>
      </trkpt>
      <trkpt lat="47.81018" lon="-3.41763">
        <ele>22.25</ele>
        <time>2015-09-06T06:08:04Z</time>
      </trkpt>
      <trkpt lat="47.81016" lon="-3.41762">
        <ele>22.25</ele>
        <time>2015-09-06T06:08:05Z</time>
      </trkpt>
      <trkpt lat="47.81014" lon="-3.41761">
        <ele>22.73</ele>
        <time>2015-09-06T06:08:06Z</time>
      </trkpt>
      <trkpt lat="47.81012" lon="-3.41761">
        <ele>22.73</ele>
        <time>2015-09-06T06:08:07Z</time>
      </trkpt>
      <trkpt lat="47.8101" lon="-3.41762">
        <ele>23.21</ele>
        <time>2015-09-06T06:08:08Z</time>
      </trkpt>
      <trkpt lat="47.81008" lon="-3.41762">
        <ele>23.21</ele>
        <time>2015-09-06T06:08:09Z</time>
      </trkpt>
      <trkpt lat="47.81005" lon="-3.41762">
        <ele>23.21</ele>
        <time>2015-09-06T06:08:10Z</time>
      </trkpt>
      <trkpt lat="47.81003" lon="-3.41762">
        <ele>23.69</ele>
        <time>2015-09-06T06:08:11Z</time>
      </trkpt>
      <trkpt lat="47.81001" lon="-3.41762">
        <ele>24.17</ele>
        <time>2015-09-06T06:08:12Z</time>
      </trkpt>
      <trkpt lat="47.81" lon="-3.41762">
        <ele>24.17</ele>
        <time>2015-09-06T06:08:13Z</time>
      </trkpt>
      <trkpt lat="47.80998" lon="-3.41762">
        <ele>24.65</ele>
        <time>2015-09-06T06:08:14Z</time>
      </trkpt>
      <trkpt lat="47.80996" lon="-3.41762">
        <ele>24.65</ele>
        <time>2015-09-06T06:08:15Z</time>
      </trkpt>
      <trkpt lat="47.80994" lon="-3.41761">
        <ele>24.65</ele>
        <time>2015-09-06T06:08:16Z</time>
      </trkpt>
      <trkpt lat="47.80993" lon="-3.41761">
        <ele>25.13</ele>
        <time>2015-09-06T06:08:17Z</time>
      </trkpt>
      <trkpt lat="47.80991" lon="-3.41761">
        <ele>25.13</ele>
        <time>2015-09-06T06:08:18Z</time>
      </trkpt>
      <trkpt lat="47.80988" lon="-3.41761">
        <ele>25.13</ele>
        <time>2015-09-06T06:08:19Z</time>
      </trkpt>
      <trkpt lat="47.80986" lon="-3.41761">
        <ele>25.13</ele>
        <time>2015-09-06T06:08:20Z</time>
      </trkpt>
      <trkpt lat="47.80984" lon="-3.4176">
        <ele>25.61</ele>
        <time>2015-09-06T06:08:21Z</time>
      </trkpt>
      <trkpt lat="47.80982" lon="-3.4176">
        <ele>25.61</ele>
        <time>2015-09-06T06:08:22Z</time>
      </trkpt>
      <trkpt lat="47.8098" lon="-3.41759">
        <ele>26.09</ele>
        <time>2015-09-06T06:08:23Z</time>
      </trkpt>
      <trkpt lat="47.80977" lon="-3.41759">
        <ele>26.09</ele>
        <time>2015-09-06T06:08:24Z</time>
      </trkpt>
      <trkpt lat="47.80975" lon="-3.41758">
        <ele>26.09</ele>
        <time>2015-09-06T06:08:25Z</time>
      </trkpt>
      <trkpt lat="47.80974" lon="-3.41756">
        <ele>26.57</ele>
        <time>2015-09-06T06:08:26Z</time>
      </trkpt>
      <trkpt lat="47.80972" lon="-3.41754">
        <ele>26.57</ele>
        <time>2015-09-06T06:08:27Z</time>
      </trkpt>
      <trkpt lat="47.8097" lon="-3.41753">
        <ele>27.05</ele>
        <time>2015-09-06T06:08:28Z</time>
      </trkpt>
      <trkpt lat="47.80968" lon="-3.41751">
        <ele>27.53</ele>
        <time>2015-09-06T06:08:29Z</time>
      </trkpt>
      <trkpt lat="47.80966" lon="-3.4175">
        <ele>27.53</ele>
        <time>2015-09-06T06:08:30Z</time>
      </trkpt>
      <trkpt lat="47.80964" lon="-3.41748">
        <ele>28.02</ele>
        <time>2015-09-06T06:08:31Z</time>
      </trkpt>
      <trkpt lat="47.80962" lon="-3.41746">
        <ele>28.02</ele>
        <time>2015-09-06T06:08:32Z</time>
      </trkpt>
      <trkpt lat="47.80961" lon="-3.41744">
        <ele>28.5</ele>
        <time>2015-09-06T06:08:33Z</time>
      </trkpt>
      <trkpt lat="47.80959" lon="-3.41742">
        <ele>28.5</ele>
        <time>2015-09-06T06:08:34Z</time>
      </trkpt>
      <trkpt lat="47.80957" lon="-3.4174">
        <ele>28.98</ele>
        <time>2015-09-06T06:08:35Z</time>
      </trkpt>
      <trkpt lat="47.80954" lon="-3.41738">
        <ele>28.98</ele>
        <time>2015-09-06T06:08:36Z</time>
      </trkpt>
      <trkpt lat="47.80952" lon="-3.41736">
        <ele>29.94</ele>
        <time>2015-09-06T06:08:37Z</time>
      </trkpt>
      <trkpt lat="47.80949" lon="-3.41735">
        <ele>29.94</ele>
        <time>2015-09-06T06:08:38Z</time>
      </trkpt>
      <trkpt lat="47.80946" lon="-3.41733">
        <ele>30.42</ele>
        <time>2015-09-06T06:08:39Z</time>
      </trkpt>
      <trkpt lat="47.80944" lon="-3.41731">
        <ele>30.42</ele>
        <time>2015-09-06T06:08:40Z</time>
      </trkpt>
      <trkpt lat="47.80941" lon="-3.41729">
        <ele>30.9</ele>
        <time>2015-09-06T06:08:41Z</time>
      </trkpt>
      <trkpt lat="47.80939" lon="-3.41727">
        <ele>30.9</ele>
        <time>2015-09-06T06:08:42Z</time>
      </trkpt>
      <trkpt lat="47.80937" lon="-3.41726">
        <ele>31.86</ele>
        <time>2015-09-06T06:08:43Z</time>
      </trkpt>
      <trkpt lat="47.80935" lon="-3.41724">
        <ele>32.34</ele>
        <time>2015-09-06T06:08:44Z</time>
      </trkpt>
      <trkpt lat="47.80933" lon="-3.41722">
        <ele>32.34</ele>
        <time>2015-09-06T06:08:45Z</time>
      </trkpt>
      <trkpt lat="47.80931" lon="-3.41721">
        <ele>33.3</ele>
        <time>2015-09-06T06:08:46Z</time>
      </trkpt>
      <trkpt lat="47.80928" lon="-3.41719">
        <ele>33.3</ele>
        <time>2015-09-06T06:08:47Z</time>
      </trkpt>
      <trkpt lat="47.80925" lon="-3.41717">
        <ele>33.78</ele>
        <time>2015-09-06T06:08:48Z</time>
      </trkpt>
      <trkpt lat="47.80924" lon="-3.41714">
        <ele>34.26</ele>
        <time>2015-09-06T06:08:49Z</time>
      </trkpt>
      <trkpt lat="47.80922" lon="-3.41712">
        <ele>34.74</ele>
        <time>2015-09-06T06:08:50Z</time>
      </trkpt>
      <trkpt lat="47.8092" lon="-3.41709">
        <ele>35.23</ele>
        <time>2015-09-06T06:08:51Z</time>
      </trkpt>
      <trkpt lat="47.80918" lon="-3.41705">
        <ele>35.23</ele>
        <time>2015-09-06T06:08:52Z</time>
      </trkpt>
      <trkpt lat="47.80916" lon="-3.41701">
        <ele>35.23</ele>
        <time>2015-09-06T06:08:53Z</time>
      </trkpt>
      <trkpt lat="47.80914" lon="-3.41697">
        <ele>35.23</ele>
        <time>2015-09-06T06:08:54Z</time>
      </trkpt>
      <trkpt lat="47.80912" lon="-3.41691">
        <ele>35.23</ele>
        <time>2015-09-06T06:08:55Z</time>
      </trkpt>
      <trkpt lat="47.80908" lon="-3.41685">
        <ele>35.71</ele>
        <time>2015-09-06T06:08:56Z</time>
      </trkpt>
      <trkpt lat="47.80904" lon="-3.41678">
        <ele>35.71</ele>
        <time>2015-09-06T06:08:57Z</time>
      </trkpt>
      <trkpt lat="47.80903" lon="-3.41673">
        <ele>35.71</ele>
        <time>2015-09-06T06:08:58Z</time>
      </trkpt>
      <trkpt lat="47.80902" lon="-3.41666">
        <ele>35.71</ele>
        <time>2015-09-06T06:08:59Z</time>
      </trkpt>
      <trkpt lat="47.80902" lon="-3.4166">
        <ele>35.71</ele>
        <time>2015-09-06T06:09:00Z</time>
      </trkpt>
      <trkpt lat="47.80902" lon="-3.41653">
        <ele>35.71</ele>
        <time>2015-09-06T06:09:01Z</time>
      </trkpt>
      <trkpt lat="47.80902" lon="-3.41646">
        <ele>35.23</ele>
        <time>2015-09-06T06:09:02Z</time>
      </trkpt>
      <trkpt lat="47.80903" lon="-3.41639">
        <ele>34.26</ele>
        <time>2015-09-06T06:09:03Z</time>
      </trkpt>
      <trkpt lat="47.80903" lon="-3.41631">
        <ele>33.78</ele>
        <time>2015-09-06T06:09:04Z</time>
      </trkpt>
      <trkpt lat="47.80903" lon="-3.41623">
        <ele>33.78</ele>
        <time>2015-09-06T06:09:05Z</time>
      </trkpt>
      <trkpt lat="47.80903" lon="-3.41616">
        <ele>33.78</ele>
        <time>2015-09-06T06:09:06Z</time>
      </trkpt>
      <trkpt lat="47.80904" lon="-3.41608">
        <ele>32.82</ele>
        <time>2015-09-06T06:09:07Z</time>
      </trkpt>
      <trkpt lat="47.80904" lon="-3.41602">
        <ele>32.82</ele>
        <time>2015-09-06T06:09:08Z</time>
      </trkpt>
      <trkpt lat="47.80904" lon="-3.41597">
        <ele>32.34</ele>
        <time>2015-09-06T06:09:09Z</time>
      </trkpt>
      <trkpt lat="47.80904" lon="-3.41594">
        <ele>32.34</ele>
        <time>2015-09-06T06:09:10Z</time>
      </trkpt>
      <trkpt lat="47.80904" lon="-3.4159">
        <ele>32.34</ele>
        <time>2015-09-06T06:09:11Z</time>
      </trkpt>
      <trkpt lat="47.80904" lon="-3.41587">
        <ele>32.34</ele>
        <time>2015-09-06T06:09:12Z</time>
      </trkpt>
      <trkpt lat="47.80903" lon="-3.41584">
        <ele>31.86</ele>
        <time>2015-09-06T06:09:13Z</time>
      </trkpt>
      <trkpt lat="47.80902" lon="-3.4158">
        <ele>31.86</ele>
        <time>2015-09-06T06:09:14Z</time>
      </trkpt>
      <trkpt lat="47.809" lon="-3.41575">
        <ele>31.86</ele>
        <time>2015-09-06T06:09:15Z</time>
      </trkpt>
      <trkpt lat="47.80898" lon="-3.41571">
        <ele>31.86</ele>
        <time>2015-09-06T06:09:16Z</time>
      </trkpt>
      <trkpt lat="47.80896" lon="-3.41566">
        <ele>31.86</ele>
        <time>2015-09-06T06:09:17Z</time>
      </trkpt>
      <trkpt lat="47.80895" lon="-3.41561">
        <ele>31.86</ele>
        <time>2015-09-06T06:09:18Z</time>
      </trkpt>
      <trkpt lat="47.80893" lon="-3.41555">
        <ele>31.38</ele>
        <time>2015-09-06T06:09:19Z</time>
      </trkpt>
      <trkpt lat="47.80892" lon="-3.41549">
        <ele>31.38</ele>
        <time>2015-09-06T06:09:20Z</time>
      </trkpt>
      <trkpt lat="47.80891" lon="-3.41543">
        <ele>30.9</ele>
        <time>2015-09-06T06:09:21Z</time>
      </trkpt>
      <trkpt lat="47.80891" lon="-3.41537">
        <ele>30.9</ele>
        <time>2015-09-06T06:09:22Z</time>
      </trkpt>
      <trkpt lat="47.8089" lon="-3.4153">
        <ele>29.94</ele>
        <time>2015-09-06T06:09:23Z</time>
      </trkpt>
      <trkpt lat="47.8089" lon="-3.41523">
        <ele>29.94</ele>
        <time>2015-09-06T06:09:24Z</time>
      </trkpt>
      <trkpt lat="47.80889" lon="-3.41515">
        <ele>29.46</ele>
        <time>2015-09-06T06:09:25Z</time>
      </trkpt>
      <trkpt lat="47.80888" lon="-3.41507">
        <ele>29.46</ele>
        <time>2015-09-06T06:09:26Z</time>
      </trkpt>
      <trkpt lat="47.80888" lon="-3.415">
        <ele>29.46</ele>
        <time>2015-09-06T06:09:27Z</time>
      </trkpt>
      <trkpt lat="47.80887" lon="-3.41492">
        <ele>28.98</ele>
        <time>2015-09-06T06:09:28Z</time>
      </trkpt>
      <trkpt lat="47.80887" lon="-3.41485">
        <ele>28.98</ele>
        <time>2015-09-06T06:09:29Z</time>
      </trkpt>
      <trkpt lat="47.80887" lon="-3.41478">
        <ele>28.98</ele>
        <time>2015-09-06T06:09:30Z</time>
      </trkpt>
      <trkpt lat="47.80887" lon="-3.41471">
        <ele>28.98</ele>
        <time>2015-09-06T06:09:31Z</time>
      </trkpt>
      <trkpt lat="47.80886" lon="-3.41465">
        <ele>28.98</ele>
        <time>2015-09-06T06:09:32Z</time>
      </trkpt>
      <trkpt lat="47.80884" lon="-3.4146">
        <ele>28.98</ele>
        <time>2015-09-06T06:09:33Z</time>
      </trkpt>
      <trkpt lat="47.80882" lon="-3.41459">
        <ele>28.98</ele>
        <time>2015-09-06T06:09:34Z</time>
      </trkpt>
      <trkpt lat="47.80879" lon="-3.4146">
        <ele>28.98</ele>
        <time>2015-09-06T06:09:35Z</time>
      </trkpt>
      <trkpt lat="47.80876" lon="-3.41461">
        <ele>28.98</ele>
        <time>2015-09-06T06:09:36Z</time>
      </trkpt>
      <trkpt lat="47.80873" lon="-3.41461">
        <ele>28.98</ele>
        <time>2015-09-06T06:09:37Z</time>
      </trkpt>
      <trkpt lat="47.8087" lon="-3.41462">
        <ele>30.42</ele>
        <time>2015-09-06T06:09:38Z</time>
      </trkpt>
      <trkpt lat="47.80867" lon="-3.41462">
        <ele>30.42</ele>
        <time>2015-09-06T06:09:39Z</time>
      </trkpt>
      <trkpt lat="47.80864" lon="-3.41462">
        <ele>30.9</ele>
        <time>2015-09-06T06:09:40Z</time>
      </trkpt>
      <trkpt lat="47.80861" lon="-3.41463">
        <ele>30.9</ele>
        <time>2015-09-06T06:09:41Z</time>
      </trkpt>
      <trkpt lat="47.80858" lon="-3.41463">
        <ele>30.9</ele>
        <time>2015-09-06T06:09:42Z</time>
      </trkpt>
      <trkpt lat="47.80855" lon="-3.41463">
        <ele>31.38</ele>
        <time>2015-09-06T06:09:43Z</time>
      </trkpt>
      <trkpt lat="47.80851" lon="-3.41464">
        <ele>31.38</ele>
        <time>2015-09-06T06:09:44Z</time>
      </trkpt>
      <trkpt lat="47.80848" lon="-3.41464">
        <ele>31.38</ele>
        <time>2015-09-06T06:09:45Z</time>
      </trkpt>
      <trkpt lat="47.80845" lon="-3.41465">
        <ele>31.86</ele>
        <time>2015-09-06T06:09:46Z</time>
      </trkpt>
      <trkpt lat="47.80841" lon="-3.41466">
        <ele>31.86</ele>
        <time>2015-09-06T06:09:47Z</time>
      </trkpt>
      <trkpt lat="47.80838" lon="-3.41467">
        <ele>31.86</ele>
        <time>2015-09-06T06:09:48Z</time>
      </trkpt>
      <trkpt lat="47.80834" lon="-3.41468">
        <ele>31.86</ele>
        <time>2015-09-06T06:09:49Z</time>
      </trkpt>
      <trkpt lat="47.8083" lon="-3.41468">
        <ele>31.86</ele>
        <time>2015-09-06T06:09:50Z</time>
      </trkpt>
      <trkpt lat="47.80824" lon="-3.41468">
        <ele>31.86</ele>
        <time>2015-09-06T06:09:51Z</time>
      </trkpt>
      <trkpt lat="47.80821" lon="-3.41465">
        <ele>31.86</ele>
        <time>2015-09-06T06:09:52Z</time>
      </trkpt>
      <trkpt lat="47.8082" lon="-3.41461">
        <ele>31.86</ele>
        <time>2015-09-06T06:09:53Z</time>
      </trkpt>
      <trkpt lat="47.80821" lon="-3.41458">
        <ele>31.86</ele>
        <time>2015-09-06T06:09:54Z</time>
      </trkpt>
      <trkpt lat="47.80822" lon="-3.41456">
        <ele>31.86</ele>
        <time>2015-09-06T06:09:55Z</time>
      </trkpt>
      <trkpt lat="47.80825" lon="-3.41453">
        <ele>31.86</ele>
        <time>2015-09-06T06:09:56Z</time>
      </trkpt>
      <trkpt lat="47.80826" lon="-3.4145">
        <ele>31.86</ele>
        <time>2015-09-06T06:09:57Z</time>
      </trkpt>
      <trkpt lat="47.80828" lon="-3.41446">
        <ele>31.86</ele>
        <time>2015-09-06T06:09:58Z</time>
      </trkpt>
      <trkpt lat="47.80828" lon="-3.4144">
        <ele>31.86</ele>
        <time>2015-09-06T06:09:59Z</time>
      </trkpt>
      <trkpt lat="47.80827" lon="-3.41433">
        <ele>31.86</ele>
        <time>2015-09-06T06:10:00Z</time>
      </trkpt>
      <trkpt lat="47.80824" lon="-3.41428">
        <ele>31.86</ele>
        <time>2015-09-06T06:10:01Z</time>
      </trkpt>
      <trkpt lat="47.8082" lon="-3.41426">
        <ele>31.86</ele>
        <time>2015-09-06T06:10:02Z</time>
      </trkpt>
      <trkpt lat="47.80816" lon="-3.41426">
        <ele>30.42</ele>
        <time>2015-09-06T06:10:03Z</time>
      </trkpt>
      <trkpt lat="47.80812" lon="-3.41429">
        <ele>30.42</ele>
        <time>2015-09-06T06:10:04Z</time>
      </trkpt>
      <trkpt lat="47.80808" lon="-3.41432">
        <ele>30.42</ele>
        <time>2015-09-06T06:10:05Z</time>
      </trkpt>
      <trkpt lat="47.80804" lon="-3.41435">
        <ele>30.42</ele>
        <time>2015-09-06T06:10:06Z</time>
      </trkpt>
      <trkpt lat="47.808" lon="-3.41437">
        <ele>30.42</ele>
        <time>2015-09-06T06:10:07Z</time>
      </trkpt>
      <trkpt lat="47.80796" lon="-3.41437">
        <ele>30.42</ele>
        <time>2015-09-06T06:10:08Z</time>
      </trkpt>
      <trkpt lat="47.80793" lon="-3.41434">
        <ele>29.94</ele>
        <time>2015-09-06T06:10:09Z</time>
      </trkpt>
      <trkpt lat="47.80792" lon="-3.41429">
        <ele>29.46</ele>
        <time>2015-09-06T06:10:10Z</time>
      </trkpt>
      <trkpt lat="47.80791" lon="-3.41424">
        <ele>29.46</ele>
        <time>2015-09-06T06:10:11Z</time>
      </trkpt>
      <trkpt lat="47.80792" lon="-3.41417">
        <ele>28.5</ele>
        <time>2015-09-06T06:10:12Z</time>
      </trkpt>
      <trkpt lat="47.80792" lon="-3.4141">
        <ele>28.5</ele>
        <time>2015-09-06T06:10:13Z</time>
      </trkpt>
      <trkpt lat="47.80791" lon="-3.41403">
        <ele>28.02</ele>
        <time>2015-09-06T06:10:14Z</time>
      </trkpt>
      <trkpt lat="47.80791" lon="-3.41395">
        <ele>27.53</ele>
        <time>2015-09-06T06:10:15Z</time>
      </trkpt>
      <trkpt lat="47.8079" lon="-3.41387">
        <ele>27.53</ele>
        <time>2015-09-06T06:10:16Z</time>
      </trkpt>
      <trkpt lat="47.8079" lon="-3.41378">
        <ele>27.53</ele>
        <time>2015-09-06T06:10:17Z</time>
      </trkpt>
      <trkpt lat="47.8079" lon="-3.41371">
        <ele>27.05</ele>
        <time>2015-09-06T06:10:18Z</time>
      </trkpt>
      <trkpt lat="47.80791" lon="-3.41362">
        <ele>26.57</ele>
        <time>2015-09-06T06:10:19Z</time>
      </trkpt>
      <trkpt lat="47.80791" lon="-3.41354">
        <ele>26.09</ele>
        <time>2015-09-06T06:10:20Z</time>
      </trkpt>
      <trkpt lat="47.80792" lon="-3.41346">
        <ele>25.61</ele>
        <time>2015-09-06T06:10:21Z</time>
      </trkpt>
      <trkpt lat="47.80792" lon="-3.4134">
        <ele>25.61</ele>
        <time>2015-09-06T06:10:22Z</time>
      </trkpt>
      <trkpt lat="47.80791" lon="-3.41335">
        <ele>25.61</ele>
        <time>2015-09-06T06:10:23Z</time>
      </trkpt>
      <trkpt lat="47.80788" lon="-3.41332">
        <ele>25.13</ele>
        <time>2015-09-06T06:10:24Z</time>
      </trkpt>
      <trkpt lat="47.80784" lon="-3.4133">
        <ele>25.13</ele>
        <time>2015-09-06T06:10:25Z</time>
      </trkpt>
      <trkpt lat="47.8078" lon="-3.41328">
        <ele>24.17</ele>
        <time>2015-09-06T06:10:26Z</time>
      </trkpt>
      <trkpt lat="47.80775" lon="-3.41326">
        <ele>23.69</ele>
        <time>2015-09-06T06:10:27Z</time>
      </trkpt>
      <trkpt lat="47.8077" lon="-3.41325">
        <ele>23.69</ele>
        <time>2015-09-06T06:10:28Z</time>
      </trkpt>
      <trkpt lat="47.80766" lon="-3.41322">
        <ele>22.73</ele>
        <time>2015-09-06T06:10:29Z</time>
      </trkpt>
      <trkpt lat="47.80764" lon="-3.41318">
        <ele>22.73</ele>
        <time>2015-09-06T06:10:30Z</time>
      </trkpt>
      <trkpt lat="47.80763" lon="-3.41312">
        <ele>22.25</ele>
        <time>2015-09-06T06:10:31Z</time>
      </trkpt>
      <trkpt lat="47.80763" lon="-3.41306">
        <ele>21.77</ele>
        <time>2015-09-06T06:10:32Z</time>
      </trkpt>
      <trkpt lat="47.80763" lon="-3.413">
        <ele>20.81</ele>
        <time>2015-09-06T06:10:33Z</time>
      </trkpt>
      <trkpt lat="47.80763" lon="-3.41294">
        <ele>20.81</ele>
        <time>2015-09-06T06:10:34Z</time>
      </trkpt>
      <trkpt lat="47.80762" lon="-3.41289">
        <ele>19.84</ele>
        <time>2015-09-06T06:10:35Z</time>
      </trkpt>
      <trkpt lat="47.80759" lon="-3.41285">
        <ele>18.88</ele>
        <time>2015-09-06T06:10:36Z</time>
      </trkpt>
      <trkpt lat="47.80755" lon="-3.41282">
        <ele>18.88</ele>
        <time>2015-09-06T06:10:37Z</time>
      </trkpt>
      <trkpt lat="47.8075" lon="-3.41281">
        <ele>17.92</ele>
        <time>2015-09-06T06:10:38Z</time>
      </trkpt>
      <trkpt lat="47.80745" lon="-3.41279">
        <ele>17.44</ele>
        <time>2015-09-06T06:10:39Z</time>
      </trkpt>
      <trkpt lat="47.80739" lon="-3.41278">
        <ele>16.48</ele>
        <time>2015-09-06T06:10:40Z</time>
      </trkpt>
      <trkpt lat="47.80734" lon="-3.41276">
        <ele>16</ele>
        <time>2015-09-06T06:10:41Z</time>
      </trkpt>
      <trkpt lat="47.80729" lon="-3.41275">
        <ele>15.04</ele>
        <time>2015-09-06T06:10:42Z</time>
      </trkpt>
      <trkpt lat="47.80725" lon="-3.41274">
        <ele>14.08</ele>
        <time>2015-09-06T06:10:43Z</time>
      </trkpt>
      <trkpt lat="47.80721" lon="-3.41273">
        <ele>13.6</ele>
        <time>2015-09-06T06:10:44Z</time>
      </trkpt>
      <trkpt lat="47.80718" lon="-3.41273">
        <ele>13.12</ele>
        <time>2015-09-06T06:10:45Z</time>
      </trkpt>
      <trkpt lat="47.80715" lon="-3.41273">
        <ele>12.63</ele>
        <time>2015-09-06T06:10:46Z</time>
      </trkpt>
      <trkpt lat="47.80712" lon="-3.41274">
        <ele>12.15</ele>
        <time>2015-09-06T06:10:47Z</time>
      </trkpt>
      <trkpt lat="47.80709" lon="-3.41276">
        <ele>11.67</ele>
        <time>2015-09-06T06:10:48Z</time>
      </trkpt>
      <trkpt lat="47.80707" lon="-3.41279">
        <ele>11.67</ele>
        <time>2015-09-06T06:10:49Z</time>
      </trkpt>
      <trkpt lat="47.80704" lon="-3.41283">
        <ele>11.67</ele>
        <time>2015-09-06T06:10:50Z</time>
      </trkpt>
      <trkpt lat="47.80701" lon="-3.41286">
        <ele>11.67</ele>
        <time>2015-09-06T06:10:51Z</time>
      </trkpt>
      <trkpt lat="47.80698" lon="-3.41289">
        <ele>11.67</ele>
        <time>2015-09-06T06:10:52Z</time>
      </trkpt>
      <trkpt lat="47.80696" lon="-3.41293">
        <ele>11.67</ele>
        <time>2015-09-06T06:10:53Z</time>
      </trkpt>
      <trkpt lat="47.80692" lon="-3.41297">
        <ele>11.67</ele>
        <time>2015-09-06T06:10:54Z</time>
      </trkpt>
      <trkpt lat="47.80689" lon="-3.41301">
        <ele>11.67</ele>
        <time>2015-09-06T06:10:55Z</time>
      </trkpt>
      <trkpt lat="47.80686" lon="-3.41306">
        <ele>11.67</ele>
        <time>2015-09-06T06:10:56Z</time>
      </trkpt>
      <trkpt lat="47.80683" lon="-3.4131">
        <ele>12.15</ele>
        <time>2015-09-06T06:10:57Z</time>
      </trkpt>
      <trkpt lat="47.8068" lon="-3.41315">
        <ele>13.12</ele>
        <time>2015-09-06T06:10:58Z</time>
      </trkpt>
      <trkpt lat="47.80677" lon="-3.4132">
        <ele>13.12</ele>
        <time>2015-09-06T06:10:59Z</time>
      </trkpt>
      <trkpt lat="47.80675" lon="-3.41326">
        <ele>13.12</ele>
        <time>2015-09-06T06:11:00Z</time>
      </trkpt>
      <trkpt lat="47.80672" lon="-3.41332">
        <ele>13.12</ele>
        <time>2015-09-06T06:11:01Z</time>
      </trkpt>
      <trkpt lat="47.80669" lon="-3.41338">
        <ele>13.12</ele>
        <time>2015-09-06T06:11:02Z</time>
      </trkpt>
      <trkpt lat="47.80667" lon="-3.41345">
        <ele>13.12</ele>
        <time>2015-09-06T06:11:03Z</time>
      </trkpt>
      <trkpt lat="47.80664" lon="-3.41351">
        <ele>13.12</ele>
        <time>2015-09-06T06:11:04Z</time>
      </trkpt>
      <trkpt lat="47.80661" lon="-3.41358">
        <ele>13.6</ele>
        <time>2015-09-06T06:11:05Z</time>
      </trkpt>
      <trkpt lat="47.80659" lon="-3.41364">
        <ele>13.6</ele>
        <time>2015-09-06T06:11:06Z</time>
      </trkpt>
      <trkpt lat="47.80659" lon="-3.41371">
        <ele>13.6</ele>
        <time>2015-09-06T06:11:07Z</time>
      </trkpt>
      <trkpt lat="47.8066" lon="-3.41377">
        <ele>14.08</ele>
        <time>2015-09-06T06:11:08Z</time>
      </trkpt>
      <trkpt lat="47.80662" lon="-3.41382">
        <ele>14.56</ele>
        <time>2015-09-06T06:11:09Z</time>
      </trkpt>
      <trkpt lat="47.80663" lon="-3.41386">
        <ele>14.56</ele>
        <time>2015-09-06T06:11:10Z</time>
      </trkpt>
      <trkpt lat="47.80664" lon="-3.41391">
        <ele>15.52</ele>
        <time>2015-09-06T06:11:11Z</time>
      </trkpt>
      <trkpt lat="47.80664" lon="-3.41395">
        <ele>16</ele>
        <time>2015-09-06T06:11:12Z</time>
      </trkpt>
      <trkpt lat="47.80664" lon="-3.414">
        <ele>16.48</ele>
        <time>2015-09-06T06:11:13Z</time>
      </trkpt>
      <trkpt lat="47.80664" lon="-3.41405">
        <ele>17.44</ele>
        <time>2015-09-06T06:11:14Z</time>
      </trkpt>
      <trkpt lat="47.80664" lon="-3.4141">
        <ele>17.44</ele>
        <time>2015-09-06T06:11:15Z</time>
      </trkpt>
      <trkpt lat="47.80664" lon="-3.41414">
        <ele>17.92</ele>
        <time>2015-09-06T06:11:16Z</time>
      </trkpt>
      <trkpt lat="47.80664" lon="-3.4142">
        <ele>17.92</ele>
        <time>2015-09-06T06:11:17Z</time>
      </trkpt>
      <trkpt lat="47.80664" lon="-3.41425">
        <ele>17.92</ele>
        <time>2015-09-06T06:11:18Z</time>
      </trkpt>
      <trkpt lat="47.80665" lon="-3.41431">
        <ele>17.92</ele>
        <time>2015-09-06T06:11:19Z</time>
      </trkpt>
      <trkpt lat="47.80667" lon="-3.41436">
        <ele>18.4</ele>
        <time>2015-09-06T06:11:20Z</time>
      </trkpt>
      <trkpt lat="47.80669" lon="-3.4144">
        <ele>18.4</ele>
        <time>2015-09-06T06:11:21Z</time>
      </trkpt>
      <trkpt lat="47.80671" lon="-3.41445">
        <ele>18.88</ele>
        <time>2015-09-06T06:11:22Z</time>
      </trkpt>
      <trkpt lat="47.80673" lon="-3.4145">
        <ele>18.88</ele>
        <time>2015-09-06T06:11:23Z</time>
      </trkpt>
      <trkpt lat="47.80674" lon="-3.41454">
        <ele>18.88</ele>
        <time>2015-09-06T06:11:24Z</time>
      </trkpt>
      <trkpt lat="47.80674" lon="-3.41458">
        <ele>19.36</ele>
        <time>2015-09-06T06:11:25Z</time>
      </trkpt>
      <trkpt lat="47.80673" lon="-3.41461">
        <ele>19.84</ele>
        <time>2015-09-06T06:11:26Z</time>
      </trkpt>
      <trkpt lat="47.80671" lon="-3.41463">
        <ele>20.32</ele>
        <time>2015-09-06T06:11:27Z</time>
      </trkpt>
      <trkpt lat="47.8067" lon="-3.41465">
        <ele>20.32</ele>
        <time>2015-09-06T06:11:28Z</time>
      </trkpt>
      <trkpt lat="47.80668" lon="-3.41466">
        <ele>20.81</ele>
        <time>2015-09-06T06:11:29Z</time>
      </trkpt>
      <trkpt lat="47.80666" lon="-3.41467">
        <ele>20.81</ele>
        <time>2015-09-06T06:11:30Z</time>
      </trkpt>
      <trkpt lat="47.80663" lon="-3.41468">
        <ele>20.81</ele>
        <time>2015-09-06T06:11:31Z</time>
      </trkpt>
      <trkpt lat="47.8066" lon="-3.41469">
        <ele>20.81</ele>
        <time>2015-09-06T06:11:32Z</time>
      </trkpt>
      <trkpt lat="47.80657" lon="-3.41469">
        <ele>20.81</ele>
        <time>2015-09-06T06:11:33Z</time>
      </trkpt>
      <trkpt lat="47.80654" lon="-3.41469">
        <ele>20.81</ele>
        <time>2015-09-06T06:11:34Z</time>
      </trkpt>
      <trkpt lat="47.80651" lon="-3.41469">
        <ele>20.81</ele>
        <time>2015-09-06T06:11:35Z</time>
      </trkpt>
      <trkpt lat="47.80648" lon="-3.41468">
        <ele>20.81</ele>
        <time>2015-09-06T06:11:36Z</time>
      </trkpt>
      <trkpt lat="47.80645" lon="-3.41467">
        <ele>20.81</ele>
        <time>2015-09-06T06:11:37Z</time>
      </trkpt>
      <trkpt lat="47.80641" lon="-3.41467">
        <ele>20.81</ele>
        <time>2015-09-06T06:11:38Z</time>
      </trkpt>
      <trkpt lat="47.80638" lon="-3.41465">
        <ele>20.81</ele>
        <time>2015-09-06T06:11:39Z</time>
      </trkpt>
      <trkpt lat="47.80633" lon="-3.41464">
        <ele>20.81</ele>
        <time>2015-09-06T06:11:40Z</time>
      </trkpt>
      <trkpt lat="47.80629" lon="-3.41465">
        <ele>20.81</ele>
        <time>2015-09-06T06:11:41Z</time>
      </trkpt>
      <trkpt lat="47.80624" lon="-3.41469">
        <ele>20.81</ele>
        <time>2015-09-06T06:11:42Z</time>
      </trkpt>
      <trkpt lat="47.8062" lon="-3.41473">
        <ele>20.81</ele>
        <time>2015-09-06T06:11:43Z</time>
      </trkpt>
      <trkpt lat="47.80617" lon="-3.41476">
        <ele>20.81</ele>
        <time>2015-09-06T06:11:44Z</time>
      </trkpt>
      <trkpt lat="47.80615" lon="-3.4148">
        <ele>22.25</ele>
        <time>2015-09-06T06:11:45Z</time>
      </trkpt>
      <trkpt lat="47.80612" lon="-3.41483">
        <ele>22.25</ele>
        <time>2015-09-06T06:11:46Z</time>
      </trkpt>
      <trkpt lat="47.8061" lon="-3.41484">
        <ele>23.21</ele>
        <time>2015-09-06T06:11:47Z</time>
      </trkpt>
      <trkpt lat="47.80607" lon="-3.41485">
        <ele>23.21</ele>
        <time>2015-09-06T06:11:48Z</time>
      </trkpt>
      <trkpt lat="47.80605" lon="-3.41486">
        <ele>23.69</ele>
        <time>2015-09-06T06:11:49Z</time>
      </trkpt>
      <trkpt lat="47.80602" lon="-3.41486">
        <ele>23.69</ele>
        <time>2015-09-06T06:11:50Z</time>
      </trkpt>
      <trkpt lat="47.806" lon="-3.41487">
        <ele>24.17</ele>
        <time>2015-09-06T06:11:51Z</time>
      </trkpt>
      <trkpt lat="47.80598" lon="-3.41488">
        <ele>24.17</ele>
        <time>2015-09-06T06:11:52Z</time>
      </trkpt>
      <trkpt lat="47.80595" lon="-3.41489">
        <ele>24.65</ele>
        <time>2015-09-06T06:11:53Z</time>
      </trkpt>
      <trkpt lat="47.80593" lon="-3.4149">
        <ele>24.65</ele>
        <time>2015-09-06T06:11:54Z</time>
      </trkpt>
      <trkpt lat="47.80591" lon="-3.4149">
        <ele>24.65</ele>
        <time>2015-09-06T06:11:55Z</time>
      </trkpt>
      <trkpt lat="47.80588" lon="-3.41492">
        <ele>24.65</ele>
        <time>2015-09-06T06:11:56Z</time>
      </trkpt>
      <trkpt lat="47.80585" lon="-3.41494">
        <ele>24.65</ele>
        <time>2015-09-06T06:11:57Z</time>
      </trkpt>
      <trkpt lat="47.80581" lon="-3.41496">
        <ele>24.65</ele>
        <time>2015-09-06T06:11:58Z</time>
      </trkpt>
      <trkpt lat="47.80578" lon="-3.41499">
        <ele>24.65</ele>
        <time>2015-09-06T06:11:59Z</time>
      </trkpt>
      <trkpt lat="47.80575" lon="-3.41502">
        <ele>24.65</ele>
        <time>2015-09-06T06:12:00Z</time>
      </trkpt>
      <trkpt lat="47.80572" lon="-3.41504">
        <ele>25.13</ele>
        <time>2015-09-06T06:12:01Z</time>
      </trkpt>
      <trkpt lat="47.8057" lon="-3.41506">
        <ele>25.61</ele>
        <time>2015-09-06T06:12:02Z</time>
      </trkpt>
      <trkpt lat="47.80568" lon="-3.41509">
        <ele>25.61</ele>
        <time>2015-09-06T06:12:03Z</time>
      </trkpt>
      <trkpt lat="47.80566" lon="-3.41512">
        <ele>26.57</ele>
        <time>2015-09-06T06:12:04Z</time>
      </trkpt>
      <trkpt lat="47.80564" lon="-3.41515">
        <ele>27.05</ele>
        <time>2015-09-06T06:12:05Z</time>
      </trkpt>
      <trkpt lat="47.80562" lon="-3.41518">
        <ele>27.53</ele>
        <time>2015-09-06T06:12:06Z</time>
      </trkpt>
      <trkpt lat="47.80561" lon="-3.4152">
        <ele>27.53</ele>
        <time>2015-09-06T06:12:07Z</time>
      </trkpt>
      <trkpt lat="47.80559" lon="-3.41522">
        <ele>28.02</ele>
        <time>2015-09-06T06:12:08Z</time>
      </trkpt>
      <trkpt lat="47.80557" lon="-3.41524">
        <ele>28.02</ele>
        <time>2015-09-06T06:12:09Z</time>
      </trkpt>
      <trkpt lat="47.80555" lon="-3.41526">
        <ele>28.5</ele>
        <time>2015-09-06T06:12:10Z</time>
      </trkpt>
      <trkpt lat="47.80553" lon="-3.41528">
        <ele>28.5</ele>
        <time>2015-09-06T06:12:11Z</time>
      </trkpt>
      <trkpt lat="47.8055" lon="-3.41529">
        <ele>28.5</ele>
        <time>2015-09-06T06:12:12Z</time>
      </trkpt>
      <trkpt lat="47.80547" lon="-3.41531">
        <ele>28.98</ele>
        <time>2015-09-06T06:12:13Z</time>
      </trkpt>
      <trkpt lat="47.80544" lon="-3.41532">
        <ele>28.98</ele>
        <time>2015-09-06T06:12:14Z</time>
      </trkpt>
      <trkpt lat="47.80541" lon="-3.41533">
        <ele>28.98</ele>
        <time>2015-09-06T06:12:15Z</time>
      </trkpt>
      <trkpt lat="47.80538" lon="-3.41535">
        <ele>28.98</ele>
        <time>2015-09-06T06:12:16Z</time>
      </trkpt>
      <trkpt lat="47.80534" lon="-3.41537">
        <ele>28.98</ele>
        <time>2015-09-06T06:12:17Z</time>
      </trkpt>
      <trkpt lat="47.80531" lon="-3.41539">
        <ele>28.98</ele>
        <time>2015-09-06T06:12:18Z</time>
      </trkpt>
      <trkpt lat="47.80528" lon="-3.4154">
        <ele>28.98</ele>
        <time>2015-09-06T06:12:19Z</time>
      </trkpt>
      <trkpt lat="47.80523" lon="-3.41543">
        <ele>28.98</ele>
        <time>2015-09-06T06:12:20Z</time>
      </trkpt>
      <trkpt lat="47.8052" lon="-3.41546">
        <ele>28.98</ele>
        <time>2015-09-06T06:12:21Z</time>
      </trkpt>
      <trkpt lat="47.80515" lon="-3.4155">
        <ele>28.98</ele>
        <time>2015-09-06T06:12:22Z</time>
      </trkpt>
      <trkpt lat="47.80512" lon="-3.41554">
        <ele>28.98</ele>
        <time>2015-09-06T06:12:23Z</time>
      </trkpt>
      <trkpt lat="47.80508" lon="-3.41557">
        <ele>28.98</ele>
        <time>2015-09-06T06:12:24Z</time>
      </trkpt>
      <trkpt lat="47.80504" lon="-3.41562">
        <ele>28.98</ele>
        <time>2015-09-06T06:12:25Z</time>
      </trkpt>
      <trkpt lat="47.805" lon="-3.41565">
        <ele>27.53</ele>
        <time>2015-09-06T06:12:26Z</time>
      </trkpt>
      <trkpt lat="47.80496" lon="-3.41569">
        <ele>26.57</ele>
        <time>2015-09-06T06:12:27Z</time>
      </trkpt>
      <trkpt lat="47.80491" lon="-3.41572">
        <ele>26.09</ele>
        <time>2015-09-06T06:12:28Z</time>
      </trkpt>
      <trkpt lat="47.80487" lon="-3.41576">
        <ele>25.13</ele>
        <time>2015-09-06T06:12:29Z</time>
      </trkpt>
      <trkpt lat="47.80483" lon="-3.41579">
        <ele>24.65</ele>
        <time>2015-09-06T06:12:30Z</time>
      </trkpt>
      <trkpt lat="47.80479" lon="-3.41581">
        <ele>23.69</ele>
        <time>2015-09-06T06:12:31Z</time>
      </trkpt>
      <trkpt lat="47.80474" lon="-3.41581">
        <ele>23.21</ele>
        <time>2015-09-06T06:12:32Z</time>
      </trkpt>
      <trkpt lat="47.8047" lon="-3.41579">
        <ele>22.25</ele>
        <time>2015-09-06T06:12:33Z</time>
      </trkpt>
      <trkpt lat="47.80467" lon="-3.41574">
        <ele>20.81</ele>
        <time>2015-09-06T06:12:34Z</time>
      </trkpt>
      <trkpt lat="47.80464" lon="-3.41569">
        <ele>19.84</ele>
        <time>2015-09-06T06:12:35Z</time>
      </trkpt>
      <trkpt lat="47.80461" lon="-3.41565">
        <ele>18.88</ele>
        <time>2015-09-06T06:12:36Z</time>
      </trkpt>
      <trkpt lat="47.80458" lon="-3.41563">
        <ele>18.4</ele>
        <time>2015-09-06T06:12:37Z</time>
      </trkpt>
      <trkpt lat="47.80455" lon="-3.41564">
        <ele>17.92</ele>
        <time>2015-09-06T06:12:38Z</time>
      </trkpt>
      <trkpt lat="47.80453" lon="-3.41566">
        <ele>17.44</ele>
        <time>2015-09-06T06:12:39Z</time>
      </trkpt>
      <trkpt lat="47.80451" lon="-3.41571">
        <ele>17.44</ele>
        <time>2015-09-06T06:12:40Z</time>
      </trkpt>
      <trkpt lat="47.8045" lon="-3.41576">
        <ele>17.44</ele>
        <time>2015-09-06T06:12:41Z</time>
      </trkpt>
      <trkpt lat="47.80446" lon="-3.41581">
        <ele>17.44</ele>
        <time>2015-09-06T06:12:42Z</time>
      </trkpt>
      <trkpt lat="47.80442" lon="-3.41583">
        <ele>17.44</ele>
        <time>2015-09-06T06:12:43Z</time>
      </trkpt>
      <trkpt lat="47.80438" lon="-3.41584">
        <ele>17.44</ele>
        <time>2015-09-06T06:12:44Z</time>
      </trkpt>
      <trkpt lat="47.80433" lon="-3.41585">
        <ele>17.44</ele>
        <time>2015-09-06T06:12:45Z</time>
      </trkpt>
      <trkpt lat="47.8043" lon="-3.41586">
        <ele>17.44</ele>
        <time>2015-09-06T06:12:46Z</time>
      </trkpt>
      <trkpt lat="47.80426" lon="-3.41586">
        <ele>17.44</ele>
        <time>2015-09-06T06:12:47Z</time>
      </trkpt>
      <trkpt lat="47.80422" lon="-3.41587">
        <ele>18.88</ele>
        <time>2015-09-06T06:12:48Z</time>
      </trkpt>
      <trkpt lat="47.80419" lon="-3.41588">
        <ele>19.36</ele>
        <time>2015-09-06T06:12:49Z</time>
      </trkpt>
      <trkpt lat="47.80415" lon="-3.4159">
        <ele>19.36</ele>
        <time>2015-09-06T06:12:50Z</time>
      </trkpt>
      <trkpt lat="47.80412" lon="-3.41592">
        <ele>19.84</ele>
        <time>2015-09-06T06:12:51Z</time>
      </trkpt>
      <trkpt lat="47.80409" lon="-3.41594">
        <ele>20.32</ele>
        <time>2015-09-06T06:12:52Z</time>
      </trkpt>
      <trkpt lat="47.80405" lon="-3.41597">
        <ele>20.32</ele>
        <time>2015-09-06T06:12:53Z</time>
      </trkpt>
      <trkpt lat="47.80402" lon="-3.416">
        <ele>20.32</ele>
        <time>2015-09-06T06:12:54Z</time>
      </trkpt>
      <trkpt lat="47.80399" lon="-3.41604">
        <ele>20.32</ele>
        <time>2015-09-06T06:12:55Z</time>
      </trkpt>
      <trkpt lat="47.80396" lon="-3.41608">
        <ele>20.32</ele>
        <time>2015-09-06T06:12:56Z</time>
      </trkpt>
      <trkpt lat="47.80392" lon="-3.41612">
        <ele>20.32</ele>
        <time>2015-09-06T06:12:57Z</time>
      </trkpt>
      <trkpt lat="47.80387" lon="-3.41616">
        <ele>20.32</ele>
        <time>2015-09-06T06:12:58Z</time>
      </trkpt>
      <trkpt lat="47.80383" lon="-3.41619">
        <ele>20.32</ele>
        <time>2015-09-06T06:12:59Z</time>
      </trkpt>
      <trkpt lat="47.8038" lon="-3.41622">
        <ele>20.32</ele>
        <time>2015-09-06T06:13:00Z</time>
      </trkpt>
      <trkpt lat="47.80376" lon="-3.41626">
        <ele>20.32</ele>
        <time>2015-09-06T06:13:01Z</time>
      </trkpt>
      <trkpt lat="47.80372" lon="-3.4163">
        <ele>20.32</ele>
        <time>2015-09-06T06:13:02Z</time>
      </trkpt>
      <trkpt lat="47.80369" lon="-3.41633">
        <ele>20.32</ele>
        <time>2015-09-06T06:13:03Z</time>
      </trkpt>
      <trkpt lat="47.80366" lon="-3.41637">
        <ele>20.81</ele>
        <time>2015-09-06T06:13:04Z</time>
      </trkpt>
      <trkpt lat="47.80362" lon="-3.4164">
        <ele>20.81</ele>
        <time>2015-09-06T06:13:05Z</time>
      </trkpt>
      <trkpt lat="47.80358" lon="-3.41643">
        <ele>20.81</ele>
        <time>2015-09-06T06:13:06Z</time>
      </trkpt>
      <trkpt lat="47.80353" lon="-3.41646">
        <ele>20.81</ele>
        <time>2015-09-06T06:13:07Z</time>
      </trkpt>
      <trkpt lat="47.80348" lon="-3.41648">
        <ele>20.81</ele>
        <time>2015-09-06T06:13:08Z</time>
      </trkpt>
      <trkpt lat="47.80344" lon="-3.4165">
        <ele>20.81</ele>
        <time>2015-09-06T06:13:09Z</time>
      </trkpt>
      <trkpt lat="47.80339" lon="-3.41652">
        <ele>20.81</ele>
        <time>2015-09-06T06:13:10Z</time>
      </trkpt>
      <trkpt lat="47.80334" lon="-3.41654">
        <ele>20.81</ele>
        <time>2015-09-06T06:13:11Z</time>
      </trkpt>
      <trkpt lat="47.8033" lon="-3.41656">
        <ele>20.81</ele>
        <time>2015-09-06T06:13:12Z</time>
      </trkpt>
      <trkpt lat="47.80326" lon="-3.41658">
        <ele>20.81</ele>
        <time>2015-09-06T06:13:13Z</time>
      </trkpt>
      <trkpt lat="47.80321" lon="-3.41659">
        <ele>20.81</ele>
        <time>2015-09-06T06:13:14Z</time>
      </trkpt>
      <trkpt lat="47.80316" lon="-3.4166">
        <ele>21.29</ele>
        <time>2015-09-06T06:13:15Z</time>
      </trkpt>
      <trkpt lat="47.80312" lon="-3.41661">
        <ele>21.29</ele>
        <time>2015-09-06T06:13:16Z</time>
      </trkpt>
      <trkpt lat="47.80307" lon="-3.4166">
        <ele>21.29</ele>
        <time>2015-09-06T06:13:17Z</time>
      </trkpt>
      <trkpt lat="47.80303" lon="-3.41659">
        <ele>21.29</ele>
        <time>2015-09-06T06:13:18Z</time>
      </trkpt>
      <trkpt lat="47.80299" lon="-3.41656">
        <ele>21.29</ele>
        <time>2015-09-06T06:13:19Z</time>
      </trkpt>
      <trkpt lat="47.80296" lon="-3.41651">
        <ele>21.29</ele>
        <time>2015-09-06T06:13:20Z</time>
      </trkpt>
      <trkpt lat="47.80294" lon="-3.41647">
        <ele>19.84</ele>
        <time>2015-09-06T06:13:21Z</time>
      </trkpt>
      <trkpt lat="47.80292" lon="-3.41645">
        <ele>19.84</ele>
        <time>2015-09-06T06:13:22Z</time>
      </trkpt>
      <trkpt lat="47.8029" lon="-3.41645">
        <ele>19.84</ele>
        <time>2015-09-06T06:13:23Z</time>
      </trkpt>
      <trkpt lat="47.80287" lon="-3.41647">
        <ele>19.84</ele>
        <time>2015-09-06T06:13:24Z</time>
      </trkpt>
      <trkpt lat="47.80284" lon="-3.41648">
        <ele>19.84</ele>
        <time>2015-09-06T06:13:25Z</time>
      </trkpt>
      <trkpt lat="47.8028" lon="-3.41649">
        <ele>19.84</ele>
        <time>2015-09-06T06:13:26Z</time>
      </trkpt>
      <trkpt lat="47.80276" lon="-3.4165">
        <ele>21.29</ele>
        <time>2015-09-06T06:13:27Z</time>
      </trkpt>
      <trkpt lat="47.80273" lon="-3.41651">
        <ele>21.29</ele>
        <time>2015-09-06T06:13:28Z</time>
      </trkpt>
      <trkpt lat="47.80269" lon="-3.41652">
        <ele>21.29</ele>
        <time>2015-09-06T06:13:29Z</time>
      </trkpt>
      <trkpt lat="47.80264" lon="-3.41651">
        <ele>21.77</ele>
        <time>2015-09-06T06:13:30Z</time>
      </trkpt>
      <trkpt lat="47.8026" lon="-3.41651">
        <ele>21.77</ele>
        <time>2015-09-06T06:13:31Z</time>
      </trkpt>
      <trkpt lat="47.80257" lon="-3.4165">
        <ele>21.77</ele>
        <time>2015-09-06T06:13:32Z</time>
      </trkpt>
      <trkpt lat="47.80253" lon="-3.41648">
        <ele>21.77</ele>
        <time>2015-09-06T06:13:33Z</time>
      </trkpt>
      <trkpt lat="47.80248" lon="-3.41647">
        <ele>21.77</ele>
        <time>2015-09-06T06:13:34Z</time>
      </trkpt>
      <trkpt lat="47.80244" lon="-3.41645">
        <ele>22.25</ele>
        <time>2015-09-06T06:13:35Z</time>
      </trkpt>
      <trkpt lat="47.80239" lon="-3.41643">
        <ele>22.25</ele>
        <time>2015-09-06T06:13:36Z</time>
      </trkpt>
      <trkpt lat="47.80236" lon="-3.41642">
        <ele>22.25</ele>
        <time>2015-09-06T06:13:37Z</time>
      </trkpt>
      <trkpt lat="47.80232" lon="-3.41641">
        <ele>22.25</ele>
        <time>2015-09-06T06:13:38Z</time>
      </trkpt>
      <trkpt lat="47.80228" lon="-3.41641">
        <ele>22.25</ele>
        <time>2015-09-06T06:13:39Z</time>
      </trkpt>
      <trkpt lat="47.80224" lon="-3.4164">
        <ele>22.73</ele>
        <time>2015-09-06T06:13:40Z</time>
      </trkpt>
      <trkpt lat="47.8022" lon="-3.4164">
        <ele>23.21</ele>
        <time>2015-09-06T06:13:41Z</time>
      </trkpt>
      <trkpt lat="47.80217" lon="-3.41639">
        <ele>23.21</ele>
        <time>2015-09-06T06:13:42Z</time>
      </trkpt>
      <trkpt lat="47.80214" lon="-3.41638">
        <ele>24.17</ele>
        <time>2015-09-06T06:13:43Z</time>
      </trkpt>
      <trkpt lat="47.80211" lon="-3.41637">
        <ele>24.17</ele>
        <time>2015-09-06T06:13:44Z</time>
      </trkpt>
      <trkpt lat="47.80207" lon="-3.41637">
        <ele>24.65</ele>
        <time>2015-09-06T06:13:45Z</time>
      </trkpt>
      <trkpt lat="47.80204" lon="-3.41637">
        <ele>24.65</ele>
        <time>2015-09-06T06:13:46Z</time>
      </trkpt>
      <trkpt lat="47.80201" lon="-3.41637">
        <ele>24.65</ele>
        <time>2015-09-06T06:13:47Z</time>
      </trkpt>
      <trkpt lat="47.80198" lon="-3.41637">
        <ele>25.13</ele>
        <time>2015-09-06T06:13:48Z</time>
      </trkpt>
      <trkpt lat="47.80194" lon="-3.41637">
        <ele>25.13</ele>
        <time>2015-09-06T06:13:49Z</time>
      </trkpt>
      <trkpt lat="47.80191" lon="-3.41637">
        <ele>25.13</ele>
        <time>2015-09-06T06:13:50Z</time>
      </trkpt>
      <trkpt lat="47.80186" lon="-3.41637">
        <ele>26.09</ele>
        <time>2015-09-06T06:13:51Z</time>
      </trkpt>
      <trkpt lat="47.80183" lon="-3.41636">
        <ele>26.09</ele>
        <time>2015-09-06T06:13:52Z</time>
      </trkpt>
      <trkpt lat="47.8018" lon="-3.41635">
        <ele>26.09</ele>
        <time>2015-09-06T06:13:53Z</time>
      </trkpt>
      <trkpt lat="47.80176" lon="-3.41633">
        <ele>26.09</ele>
        <time>2015-09-06T06:13:54Z</time>
      </trkpt>
      <trkpt lat="47.80172" lon="-3.41631">
        <ele>26.57</ele>
        <time>2015-09-06T06:13:55Z</time>
      </trkpt>
      <trkpt lat="47.80169" lon="-3.41629">
        <ele>27.05</ele>
        <time>2015-09-06T06:13:56Z</time>
      </trkpt>
      <trkpt lat="47.80166" lon="-3.41627">
        <ele>27.05</ele>
        <time>2015-09-06T06:13:57Z</time>
      </trkpt>
      <trkpt lat="47.80163" lon="-3.41624">
        <ele>27.53</ele>
        <time>2015-09-06T06:13:58Z</time>
      </trkpt>
      <trkpt lat="47.80161" lon="-3.41621">
        <ele>27.53</ele>
        <time>2015-09-06T06:13:59Z</time>
      </trkpt>
      <trkpt lat="47.80158" lon="-3.41619">
        <ele>28.02</ele>
        <time>2015-09-06T06:14:00Z</time>
      </trkpt>
      <trkpt lat="47.80156" lon="-3.41616">
        <ele>28.5</ele>
        <time>2015-09-06T06:14:01Z</time>
      </trkpt>
      <trkpt lat="47.80153" lon="-3.41614">
        <ele>28.98</ele>
        <time>2015-09-06T06:14:02Z</time>
      </trkpt>
      <trkpt lat="47.80151" lon="-3.41613">
        <ele>28.98</ele>
        <time>2015-09-06T06:14:03Z</time>
      </trkpt>
      <trkpt lat="47.80149" lon="-3.41611">
        <ele>28.98</ele>
        <time>2015-09-06T06:14:04Z</time>
      </trkpt>
      <trkpt lat="47.80146" lon="-3.41609">
        <ele>29.94</ele>
        <time>2015-09-06T06:14:05Z</time>
      </trkpt>
      <trkpt lat="47.80144" lon="-3.41608">
        <ele>29.94</ele>
        <time>2015-09-06T06:14:06Z</time>
      </trkpt>
      <trkpt lat="47.80142" lon="-3.41606">
        <ele>30.42</ele>
        <time>2015-09-06T06:14:07Z</time>
      </trkpt>
      <trkpt lat="47.80139" lon="-3.41604">
        <ele>30.42</ele>
        <time>2015-09-06T06:14:08Z</time>
      </trkpt>
      <trkpt lat="47.80136" lon="-3.41602">
        <ele>30.9</ele>
        <time>2015-09-06T06:14:09Z</time>
      </trkpt>
      <trkpt lat="47.80133" lon="-3.416">
        <ele>30.9</ele>
        <time>2015-09-06T06:14:10Z</time>
      </trkpt>
      <trkpt lat="47.8013" lon="-3.41598">
        <ele>31.38</ele>
        <time>2015-09-06T06:14:11Z</time>
      </trkpt>
      <trkpt lat="47.80122" lon="-3.41595">
        <ele>31.38</ele>
        <time>2015-09-06T06:14:12Z</time>
      </trkpt>
      <trkpt lat="47.80117" lon="-3.41593">
        <ele>31.86</ele>
        <time>2015-09-06T06:14:13Z</time>
      </trkpt>
      <trkpt lat="47.80113" lon="-3.41591">
        <ele>31.86</ele>
        <time>2015-09-06T06:14:14Z</time>
      </trkpt>
      <trkpt lat="47.80109" lon="-3.41589">
        <ele>32.34</ele>
        <time>2015-09-06T06:14:15Z</time>
      </trkpt>
      <trkpt lat="47.80106" lon="-3.41586">
        <ele>32.34</ele>
        <time>2015-09-06T06:14:16Z</time>
      </trkpt>
      <trkpt lat="47.80102" lon="-3.41584">
        <ele>33.3</ele>
        <time>2015-09-06T06:14:17Z</time>
      </trkpt>
      <trkpt lat="47.80099" lon="-3.41583">
        <ele>33.3</ele>
        <time>2015-09-06T06:14:18Z</time>
      </trkpt>
      <trkpt lat="47.80096" lon="-3.41581">
        <ele>33.3</ele>
        <time>2015-09-06T06:14:19Z</time>
      </trkpt>
      <trkpt lat="47.80092" lon="-3.41579">
        <ele>34.26</ele>
        <time>2015-09-06T06:14:20Z</time>
      </trkpt>
      <trkpt lat="47.80089" lon="-3.41577">
        <ele>34.26</ele>
        <time>2015-09-06T06:14:21Z</time>
      </trkpt>
      <trkpt lat="47.80086" lon="-3.41575">
        <ele>34.74</ele>
        <time>2015-09-06T06:14:22Z</time>
      </trkpt>
      <trkpt lat="47.80082" lon="-3.41573">
        <ele>34.74</ele>
        <time>2015-09-06T06:14:23Z</time>
      </trkpt>
      <trkpt lat="47.8008" lon="-3.41571">
        <ele>35.23</ele>
        <time>2015-09-06T06:14:24Z</time>
      </trkpt>
      <trkpt lat="47.80077" lon="-3.4157">
        <ele>35.23</ele>
        <time>2015-09-06T06:14:25Z</time>
      </trkpt>
      <trkpt lat="47.80075" lon="-3.41568">
        <ele>35.23</ele>
        <time>2015-09-06T06:14:26Z</time>
      </trkpt>
      <trkpt lat="47.80073" lon="-3.41567">
        <ele>36.19</ele>
        <time>2015-09-06T06:14:27Z</time>
      </trkpt>
      <trkpt lat="47.8007" lon="-3.41565">
        <ele>36.19</ele>
        <time>2015-09-06T06:14:28Z</time>
      </trkpt>
      <trkpt lat="47.80067" lon="-3.41563">
        <ele>36.67</ele>
        <time>2015-09-06T06:14:29Z</time>
      </trkpt>
      <trkpt lat="47.80064" lon="-3.41561">
        <ele>36.67</ele>
        <time>2015-09-06T06:14:30Z</time>
      </trkpt>
      <trkpt lat="47.80061" lon="-3.4156">
        <ele>36.67</ele>
        <time>2015-09-06T06:14:31Z</time>
      </trkpt>
      <trkpt lat="47.80058" lon="-3.41559">
        <ele>37.15</ele>
        <time>2015-09-06T06:14:32Z</time>
      </trkpt>
      <trkpt lat="47.80055" lon="-3.41557">
        <ele>37.15</ele>
        <time>2015-09-06T06:14:33Z</time>
      </trkpt>
      <trkpt lat="47.80052" lon="-3.41555">
        <ele>37.15</ele>
        <time>2015-09-06T06:14:34Z</time>
      </trkpt>
      <trkpt lat="47.8005" lon="-3.41553">
        <ele>37.15</ele>
        <time>2015-09-06T06:14:35Z</time>
      </trkpt>
      <trkpt lat="47.80047" lon="-3.41552">
        <ele>37.15</ele>
        <time>2015-09-06T06:14:36Z</time>
      </trkpt>
      <trkpt lat="47.80044" lon="-3.41551">
        <ele>37.15</ele>
        <time>2015-09-06T06:14:37Z</time>
      </trkpt>
      <trkpt lat="47.80041" lon="-3.41549">
        <ele>37.15</ele>
        <time>2015-09-06T06:14:38Z</time>
      </trkpt>
      <trkpt lat="47.80038" lon="-3.41547">
        <ele>37.63</ele>
        <time>2015-09-06T06:14:39Z</time>
      </trkpt>
      <trkpt lat="47.80035" lon="-3.41546">
        <ele>37.63</ele>
        <time>2015-09-06T06:14:40Z</time>
      </trkpt>
      <trkpt lat="47.80032" lon="-3.41543">
        <ele>37.63</ele>
        <time>2015-09-06T06:14:41Z</time>
      </trkpt>
      <trkpt lat="47.80029" lon="-3.41541">
        <ele>37.63</ele>
        <time>2015-09-06T06:14:42Z</time>
      </trkpt>
      <trkpt lat="47.80026" lon="-3.41539">
        <ele>37.63</ele>
        <time>2015-09-06T06:14:43Z</time>
      </trkpt>
      <trkpt lat="47.80023" lon="-3.41537">
        <ele>37.63</ele>
        <time>2015-09-06T06:14:44Z</time>
      </trkpt>
      <trkpt lat="47.8002" lon="-3.41536">
        <ele>37.63</ele>
        <time>2015-09-06T06:14:45Z</time>
      </trkpt>
      <trkpt lat="47.80017" lon="-3.41534">
        <ele>37.63</ele>
        <time>2015-09-06T06:14:46Z</time>
      </trkpt>
      <trkpt lat="47.80014" lon="-3.41531">
        <ele>37.63</ele>
        <time>2015-09-06T06:14:47Z</time>
      </trkpt>
      <trkpt lat="47.80011" lon="-3.41529">
        <ele>37.63</ele>
        <time>2015-09-06T06:14:48Z</time>
      </trkpt>
      <trkpt lat="47.80009" lon="-3.41527">
        <ele>37.63</ele>
        <time>2015-09-06T06:14:49Z</time>
      </trkpt>
      <trkpt lat="47.80006" lon="-3.41525">
        <ele>37.63</ele>
        <time>2015-09-06T06:14:50Z</time>
      </trkpt>
      <trkpt lat="47.80003" lon="-3.41523">
        <ele>37.63</ele>
        <time>2015-09-06T06:14:51Z</time>
      </trkpt>
      <trkpt lat="47.8" lon="-3.4152">
        <ele>37.63</ele>
        <time>2015-09-06T06:14:52Z</time>
      </trkpt>
      <trkpt lat="47.79997" lon="-3.41517">
        <ele>37.63</ele>
        <time>2015-09-06T06:14:53Z</time>
      </trkpt>
      <trkpt lat="47.79993" lon="-3.41514">
        <ele>37.63</ele>
        <time>2015-09-06T06:14:54Z</time>
      </trkpt>
      <trkpt lat="47.7999" lon="-3.41511">
        <ele>37.63</ele>
        <time>2015-09-06T06:14:55Z</time>
      </trkpt>
      <trkpt lat="47.79986" lon="-3.41509">
        <ele>37.63</ele>
        <time>2015-09-06T06:14:56Z</time>
      </trkpt>
      <trkpt lat="47.79982" lon="-3.41506">
        <ele>37.63</ele>
        <time>2015-09-06T06:14:57Z</time>
      </trkpt>
      <trkpt lat="47.79978" lon="-3.41503">
        <ele>37.63</ele>
        <time>2015-09-06T06:14:58Z</time>
      </trkpt>
      <trkpt lat="47.79975" lon="-3.41501">
        <ele>37.63</ele>
        <time>2015-09-06T06:14:59Z</time>
      </trkpt>
      <trkpt lat="47.79971" lon="-3.41499">
        <ele>37.63</ele>
        <time>2015-09-06T06:15:00Z</time>
      </trkpt>
      <trkpt lat="47.79967" lon="-3.41497">
        <ele>37.63</ele>
        <time>2015-09-06T06:15:01Z</time>
      </trkpt>
      <trkpt lat="47.79963" lon="-3.41496">
        <ele>37.63</ele>
        <time>2015-09-06T06:15:02Z</time>
      </trkpt>
      <trkpt lat="47.79958" lon="-3.41495">
        <ele>37.63</ele>
        <time>2015-09-06T06:15:03Z</time>
      </trkpt>
      <trkpt lat="47.79953" lon="-3.41494">
        <ele>37.63</ele>
        <time>2015-09-06T06:15:04Z</time>
      </trkpt>
      <trkpt lat="47.79949" lon="-3.41492">
        <ele>37.63</ele>
        <time>2015-09-06T06:15:05Z</time>
      </trkpt>
      <trkpt lat="47.79945" lon="-3.41488">
        <ele>37.63</ele>
        <time>2015-09-06T06:15:06Z</time>
      </trkpt>
      <trkpt lat="47.79941" lon="-3.41482">
        <ele>37.63</ele>
        <time>2015-09-06T06:15:07Z</time>
      </trkpt>
      <trkpt lat="47.7994" lon="-3.41474">
        <ele>36.19</ele>
        <time>2015-09-06T06:15:08Z</time>
      </trkpt>
      <trkpt lat="47.7994" lon="-3.41468">
        <ele>36.19</ele>
        <time>2015-09-06T06:15:09Z</time>
      </trkpt>
      <trkpt lat="47.79943" lon="-3.41462">
        <ele>36.19</ele>
        <time>2015-09-06T06:15:10Z</time>
      </trkpt>
      <trkpt lat="47.79946" lon="-3.41458">
        <ele>36.19</ele>
        <time>2015-09-06T06:15:11Z</time>
      </trkpt>
      <trkpt lat="47.79951" lon="-3.41456">
        <ele>36.19</ele>
        <time>2015-09-06T06:15:12Z</time>
      </trkpt>
      <trkpt lat="47.79955" lon="-3.41456">
        <ele>36.19</ele>
        <time>2015-09-06T06:15:13Z</time>
      </trkpt>
      <trkpt lat="47.79959" lon="-3.41458">
        <ele>36.19</ele>
        <time>2015-09-06T06:15:14Z</time>
      </trkpt>
      <trkpt lat="47.79963" lon="-3.41461">
        <ele>36.19</ele>
        <time>2015-09-06T06:15:15Z</time>
      </trkpt>
      <trkpt lat="47.79965" lon="-3.41464">
        <ele>36.19</ele>
        <time>2015-09-06T06:15:16Z</time>
      </trkpt>
      <trkpt lat="47.79968" lon="-3.41466">
        <ele>36.19</ele>
        <time>2015-09-06T06:15:17Z</time>
      </trkpt>
      <trkpt lat="47.7997" lon="-3.41467">
        <ele>36.19</ele>
        <time>2015-09-06T06:15:18Z</time>
      </trkpt>
      <trkpt lat="47.79972" lon="-3.41468">
        <ele>36.19</ele>
        <time>2015-09-06T06:15:19Z</time>
      </trkpt>
      <trkpt lat="47.79974" lon="-3.41469">
        <ele>36.19</ele>
        <time>2015-09-06T06:15:20Z</time>
      </trkpt>
      <trkpt lat="47.79977" lon="-3.41468">
        <ele>36.19</ele>
        <time>2015-09-06T06:15:21Z</time>
      </trkpt>
      <trkpt lat="47.7998" lon="-3.41467">
        <ele>36.19</ele>
        <time>2015-09-06T06:15:22Z</time>
      </trkpt>
      <trkpt lat="47.79982" lon="-3.41466">
        <ele>36.19</ele>
        <time>2015-09-06T06:15:23Z</time>
      </trkpt>
      <trkpt lat="47.79984" lon="-3.41465">
        <ele>36.19</ele>
        <time>2015-09-06T06:15:24Z</time>
      </trkpt>
      <trkpt lat="47.79986" lon="-3.41462">
        <ele>36.19</ele>
        <time>2015-09-06T06:15:25Z</time>
      </trkpt>
      <trkpt lat="47.79988" lon="-3.4146">
        <ele>36.19</ele>
        <time>2015-09-06T06:15:26Z</time>
      </trkpt>
      <trkpt lat="47.7999" lon="-3.41459">
        <ele>37.63</ele>
        <time>2015-09-06T06:15:27Z</time>
      </trkpt>
      <trkpt lat="47.79992" lon="-3.4146">
        <ele>37.63</ele>
        <time>2015-09-06T06:15:28Z</time>
      </trkpt>
      <trkpt lat="47.79994" lon="-3.41461">
        <ele>37.63</ele>
        <time>2015-09-06T06:15:29Z</time>
      </trkpt>
      <trkpt lat="47.79996" lon="-3.41461">
        <ele>37.63</ele>
        <time>2015-09-06T06:15:30Z</time>
      </trkpt>
      <trkpt lat="47.79998" lon="-3.4146">
        <ele>38.59</ele>
        <time>2015-09-06T06:15:31Z</time>
      </trkpt>
      <trkpt lat="47.80001" lon="-3.41458">
        <ele>38.59</ele>
        <time>2015-09-06T06:15:32Z</time>
      </trkpt>
      <trkpt lat="47.80004" lon="-3.41457">
        <ele>38.59</ele>
        <time>2015-09-06T06:15:33Z</time>
      </trkpt>
      <trkpt lat="47.80007" lon="-3.41458">
        <ele>39.07</ele>
        <time>2015-09-06T06:15:34Z</time>
      </trkpt>
      <trkpt lat="47.8001" lon="-3.41459">
        <ele>39.07</ele>
        <time>2015-09-06T06:15:35Z</time>
      </trkpt>
      <trkpt lat="47.80012" lon="-3.41461">
        <ele>39.07</ele>
        <time>2015-09-06T06:15:36Z</time>
      </trkpt>
      <trkpt lat="47.80015" lon="-3.41463">
        <ele>39.07</ele>
        <time>2015-09-06T06:15:37Z</time>
      </trkpt>
      <trkpt lat="47.80017" lon="-3.41466">
        <ele>39.07</ele>
        <time>2015-09-06T06:15:38Z</time>
      </trkpt>
      <trkpt lat="47.8002" lon="-3.41471">
        <ele>39.55</ele>
        <time>2015-09-06T06:15:39Z</time>
      </trkpt>
      <trkpt lat="47.80021" lon="-3.41473">
        <ele>39.55</ele>
        <time>2015-09-06T06:15:40Z</time>
      </trkpt>
      <trkpt lat="47.8002" lon="-3.41478">
        <ele>39.55</ele>
        <time>2015-09-06T06:15:41Z</time>
      </trkpt>
      <trkpt lat="47.80019" lon="-3.41482">
        <ele>39.55</ele>
        <time>2015-09-06T06:15:42Z</time>
      </trkpt>
      <trkpt lat="47.80018" lon="-3.41485">
        <ele>39.55</ele>
        <time>2015-09-06T06:15:43Z</time>
      </trkpt>
      <trkpt lat="47.80017" lon="-3.41488">
        <ele>39.55</ele>
        <time>2015-09-06T06:15:44Z</time>
      </trkpt>
      <trkpt lat="47.80017" lon="-3.41491">
        <ele>39.55</ele>
        <time>2015-09-06T06:15:45Z</time>
      </trkpt>
      <trkpt lat="47.80018" lon="-3.41493">
        <ele>39.55</ele>
        <time>2015-09-06T06:15:46Z</time>
      </trkpt>
      <trkpt lat="47.80019" lon="-3.41495">
        <ele>39.55</ele>
        <time>2015-09-06T06:15:47Z</time>
      </trkpt>
      <trkpt lat="47.80021" lon="-3.41496">
        <ele>39.55</ele>
        <time>2015-09-06T06:15:48Z</time>
      </trkpt>
      <trkpt lat="47.80023" lon="-3.41496">
        <ele>39.55</ele>
        <time>2015-09-06T06:15:49Z</time>
      </trkpt>
      <trkpt lat="47.80025" lon="-3.41493">
        <ele>39.55</ele>
        <time>2015-09-06T06:15:50Z</time>
      </trkpt>
      <trkpt lat="47.80027" lon="-3.41491">
        <ele>39.55</ele>
        <time>2015-09-06T06:15:51Z</time>
      </trkpt>
      <trkpt lat="47.80028" lon="-3.41489">
        <ele>39.55</ele>
        <time>2015-09-06T06:15:52Z</time>
      </trkpt>
      <trkpt lat="47.8003" lon="-3.41486">
        <ele>39.55</ele>
        <time>2015-09-06T06:15:53Z</time>
      </trkpt>
      <trkpt lat="47.80031" lon="-3.41482">
        <ele>39.55</ele>
        <time>2015-09-06T06:15:54Z</time>
      </trkpt>
      <trkpt lat="47.80032" lon="-3.41478">
        <ele>40.03</ele>
        <time>2015-09-06T06:15:55Z</time>
      </trkpt>
      <trkpt lat="47.80034" lon="-3.41475">
        <ele>40.03</ele>
        <time>2015-09-06T06:15:56Z</time>
      </trkpt>
      <trkpt lat="47.80036" lon="-3.41471">
        <ele>40.03</ele>
        <time>2015-09-06T06:15:57Z</time>
      </trkpt>
      <trkpt lat="47.80037" lon="-3.41468">
        <ele>40.03</ele>
        <time>2015-09-06T06:15:58Z</time>
      </trkpt>
      <trkpt lat="47.80039" lon="-3.41464">
        <ele>40.03</ele>
        <time>2015-09-06T06:15:59Z</time>
      </trkpt>
      <trkpt lat="47.80041" lon="-3.4146">
        <ele>40.03</ele>
        <time>2015-09-06T06:16:00Z</time>
      </trkpt>
      <trkpt lat="47.80043" lon="-3.41456">
        <ele>40.03</ele>
        <time>2015-09-06T06:16:01Z</time>
      </trkpt>
      <trkpt lat="47.80046" lon="-3.41451">
        <ele>40.03</ele>
        <time>2015-09-06T06:16:02Z</time>
      </trkpt>
      <trkpt lat="47.80048" lon="-3.41446">
        <ele>40.03</ele>
        <time>2015-09-06T06:16:03Z</time>
      </trkpt>
      <trkpt lat="47.8005" lon="-3.41441">
        <ele>40.03</ele>
        <time>2015-09-06T06:16:04Z</time>
      </trkpt>
      <trkpt lat="47.80052" lon="-3.41437">
        <ele>40.03</ele>
        <time>2015-09-06T06:16:05Z</time>
      </trkpt>
      <trkpt lat="47.80054" lon="-3.41432">
        <ele>40.03</ele>
        <time>2015-09-06T06:16:06Z</time>
      </trkpt>
      <trkpt lat="47.80056" lon="-3.41427">
        <ele>40.03</ele>
        <time>2015-09-06T06:16:07Z</time>
      </trkpt>
      <trkpt lat="47.80059" lon="-3.41422">
        <ele>40.03</ele>
        <time>2015-09-06T06:16:08Z</time>
      </trkpt>
      <trkpt lat="47.80061" lon="-3.41418">
        <ele>40.51</ele>
        <time>2015-09-06T06:16:09Z</time>
      </trkpt>
      <trkpt lat="47.80062" lon="-3.41414">
        <ele>40.99</ele>
        <time>2015-09-06T06:16:10Z</time>
      </trkpt>
      <trkpt lat="47.80064" lon="-3.41411">
        <ele>40.99</ele>
        <time>2015-09-06T06:16:11Z</time>
      </trkpt>
      <trkpt lat="47.80067" lon="-3.41408">
        <ele>40.99</ele>
        <time>2015-09-06T06:16:12Z</time>
      </trkpt>
      <trkpt lat="47.80069" lon="-3.41405">
        <ele>40.99</ele>
        <time>2015-09-06T06:16:13Z</time>
      </trkpt>
      <trkpt lat="47.80072" lon="-3.41402">
        <ele>40.99</ele>
        <time>2015-09-06T06:16:14Z</time>
      </trkpt>
      <trkpt lat="47.80074" lon="-3.41399">
        <ele>40.99</ele>
        <time>2015-09-06T06:16:15Z</time>
      </trkpt>
      <trkpt lat="47.80077" lon="-3.41395">
        <ele>40.99</ele>
        <time>2015-09-06T06:16:16Z</time>
      </trkpt>
      <trkpt lat="47.80079" lon="-3.41391">
        <ele>40.99</ele>
        <time>2015-09-06T06:16:17Z</time>
      </trkpt>
      <trkpt lat="47.80081" lon="-3.41387">
        <ele>40.99</ele>
        <time>2015-09-06T06:16:18Z</time>
      </trkpt>
      <trkpt lat="47.80082" lon="-3.41382">
        <ele>40.99</ele>
        <time>2015-09-06T06:16:19Z</time>
      </trkpt>
      <trkpt lat="47.80083" lon="-3.41378">
        <ele>40.99</ele>
        <time>2015-09-06T06:16:20Z</time>
      </trkpt>
      <trkpt lat="47.80086" lon="-3.41372">
        <ele>41.47</ele>
        <time>2015-09-06T06:16:21Z</time>
      </trkpt>
      <trkpt lat="47.80087" lon="-3.41368">
        <ele>41.47</ele>
        <time>2015-09-06T06:16:22Z</time>
      </trkpt>
      <trkpt lat="47.80089" lon="-3.41364">
        <ele>41.47</ele>
        <time>2015-09-06T06:16:23Z</time>
      </trkpt>
      <trkpt lat="47.8009" lon="-3.4136">
        <ele>41.95</ele>
        <time>2015-09-06T06:16:24Z</time>
      </trkpt>
      <trkpt lat="47.8009" lon="-3.41356">
        <ele>41.95</ele>
        <time>2015-09-06T06:16:25Z</time>
      </trkpt>
      <trkpt lat="47.8009" lon="-3.41352">
        <ele>41.95</ele>
        <time>2015-09-06T06:16:26Z</time>
      </trkpt>
      <trkpt lat="47.8009" lon="-3.41348">
        <ele>41.95</ele>
        <time>2015-09-06T06:16:27Z</time>
      </trkpt>
      <trkpt lat="47.80091" lon="-3.41343">
        <ele>42.44</ele>
        <time>2015-09-06T06:16:28Z</time>
      </trkpt>
      <trkpt lat="47.80092" lon="-3.41339">
        <ele>42.44</ele>
        <time>2015-09-06T06:16:29Z</time>
      </trkpt>
      <trkpt lat="47.80092" lon="-3.41335">
        <ele>42.44</ele>
        <time>2015-09-06T06:16:30Z</time>
      </trkpt>
      <trkpt lat="47.80091" lon="-3.41331">
        <ele>43.4</ele>
        <time>2015-09-06T06:16:31Z</time>
      </trkpt>
      <trkpt lat="47.8009" lon="-3.41327">
        <ele>43.88</ele>
        <time>2015-09-06T06:16:32Z</time>
      </trkpt>
      <trkpt lat="47.80088" lon="-3.41323">
        <ele>43.88</ele>
        <time>2015-09-06T06:16:33Z</time>
      </trkpt>
      <trkpt lat="47.80087" lon="-3.41318">
        <ele>43.88</ele>
        <time>2015-09-06T06:16:34Z</time>
      </trkpt>
      <trkpt lat="47.80085" lon="-3.41314">
        <ele>43.88</ele>
        <time>2015-09-06T06:16:35Z</time>
      </trkpt>
      <trkpt lat="47.80084" lon="-3.41311">
        <ele>43.88</ele>
        <time>2015-09-06T06:16:36Z</time>
      </trkpt>
      <trkpt lat="47.80082" lon="-3.41306">
        <ele>43.88</ele>
        <time>2015-09-06T06:16:37Z</time>
      </trkpt>
      <trkpt lat="47.80082" lon="-3.41302">
        <ele>43.88</ele>
        <time>2015-09-06T06:16:38Z</time>
      </trkpt>
      <trkpt lat="47.80082" lon="-3.41296">
        <ele>43.88</ele>
        <time>2015-09-06T06:16:39Z</time>
      </trkpt>
      <trkpt lat="47.80083" lon="-3.4129">
        <ele>41.95</ele>
        <time>2015-09-06T06:16:40Z</time>
      </trkpt>
      <trkpt lat="47.80085" lon="-3.41283">
        <ele>41.47</ele>
        <time>2015-09-06T06:16:41Z</time>
      </trkpt>
      <trkpt lat="47.80085" lon="-3.41276">
        <ele>40.99</ele>
        <time>2015-09-06T06:16:42Z</time>
      </trkpt>
      <trkpt lat="47.80085" lon="-3.41268">
        <ele>40.51</ele>
        <time>2015-09-06T06:16:43Z</time>
      </trkpt>
      <trkpt lat="47.80085" lon="-3.41261">
        <ele>40.51</ele>
        <time>2015-09-06T06:16:44Z</time>
      </trkpt>
      <trkpt lat="47.80085" lon="-3.41255">
        <ele>40.03</ele>
        <time>2015-09-06T06:16:45Z</time>
      </trkpt>
      <trkpt lat="47.80085" lon="-3.41249">
        <ele>39.55</ele>
        <time>2015-09-06T06:16:46Z</time>
      </trkpt>
      <trkpt lat="47.80084" lon="-3.41243">
        <ele>39.55</ele>
        <time>2015-09-06T06:16:47Z</time>
      </trkpt>
      <trkpt lat="47.80084" lon="-3.41238">
        <ele>38.59</ele>
        <time>2015-09-06T06:16:48Z</time>
      </trkpt>
      <trkpt lat="47.80084" lon="-3.41234">
        <ele>39.07</ele>
        <time>2015-09-06T06:16:49Z</time>
      </trkpt>
      <trkpt lat="47.80084" lon="-3.41229">
        <ele>38.59</ele>
        <time>2015-09-06T06:16:50Z</time>
      </trkpt>
      <trkpt lat="47.80085" lon="-3.41226">
        <ele>38.59</ele>
        <time>2015-09-06T06:16:51Z</time>
      </trkpt>
      <trkpt lat="47.80086" lon="-3.41223">
        <ele>38.11</ele>
        <time>2015-09-06T06:16:52Z</time>
      </trkpt>
      <trkpt lat="47.80088" lon="-3.41223">
        <ele>38.11</ele>
        <time>2015-09-06T06:16:53Z</time>
      </trkpt>
      <trkpt lat="47.80089" lon="-3.41222">
        <ele>38.11</ele>
        <time>2015-09-06T06:16:54Z</time>
      </trkpt>
      <trkpt lat="47.8009" lon="-3.41221">
        <ele>38.11</ele>
        <time>2015-09-06T06:16:55Z</time>
      </trkpt>
      <trkpt lat="47.80092" lon="-3.41221">
        <ele>38.11</ele>
        <time>2015-09-06T06:16:56Z</time>
      </trkpt>
      <trkpt lat="47.80093" lon="-3.4122">
        <ele>38.11</ele>
        <time>2015-09-06T06:16:57Z</time>
      </trkpt>
      <trkpt lat="47.80094" lon="-3.41219">
        <ele>38.11</ele>
        <time>2015-09-06T06:16:58Z</time>
      </trkpt>
      <trkpt lat="47.80096" lon="-3.41219">
        <ele>38.11</ele>
        <time>2015-09-06T06:16:59Z</time>
      </trkpt>
      <trkpt lat="47.80097" lon="-3.41218">
        <ele>38.11</ele>
        <time>2015-09-06T06:17:00Z</time>
      </trkpt>
      <trkpt lat="47.80098" lon="-3.41218">
        <ele>38.59</ele>
        <time>2015-09-06T06:17:01Z</time>
      </trkpt>
      <trkpt lat="47.80099" lon="-3.41218">
        <ele>38.59</ele>
        <time>2015-09-06T06:17:02Z</time>
      </trkpt>
      <trkpt lat="47.80099" lon="-3.41219">
        <ele>38.59</ele>
        <time>2015-09-06T06:17:03Z</time>
      </trkpt>
      <trkpt lat="47.80098" lon="-3.41219">
        <ele>38.59</ele>
        <time>2015-09-06T06:17:04Z</time>
      </trkpt>
      <trkpt lat="47.80097" lon="-3.41218">
        <ele>38.59</ele>
        <time>2015-09-06T06:17:05Z</time>
      </trkpt>
      <trkpt lat="47.80096" lon="-3.41217">
        <ele>38.59</ele>
        <time>2015-09-06T06:17:06Z</time>
      </trkpt>
      <trkpt lat="47.80095" lon="-3.41215">
        <ele>38.59</ele>
        <time>2015-09-06T06:17:07Z</time>
      </trkpt>
      <trkpt lat="47.80094" lon="-3.41214">
        <ele>38.59</ele>
        <time>2015-09-06T06:17:08Z</time>
      </trkpt>
      <trkpt lat="47.80092" lon="-3.41214">
        <ele>38.59</ele>
        <time>2015-09-06T06:17:09Z</time>
      </trkpt>
      <trkpt lat="47.80089" lon="-3.41214">
        <ele>38.59</ele>
        <time>2015-09-06T06:17:10Z</time>
      </trkpt>
      <trkpt lat="47.80087" lon="-3.41215">
        <ele>38.59</ele>
        <time>2015-09-06T06:17:11Z</time>
      </trkpt>
      <trkpt lat="47.80086" lon="-3.41216">
        <ele>38.59</ele>
        <time>2015-09-06T06:17:12Z</time>
      </trkpt>
      <trkpt lat="47.80084" lon="-3.41216">
        <ele>38.59</ele>
        <time>2015-09-06T06:17:13Z</time>
      </trkpt>
      <trkpt lat="47.80083" lon="-3.41217">
        <ele>38.59</ele>
        <time>2015-09-06T06:17:14Z</time>
      </trkpt>
      <trkpt lat="47.80082" lon="-3.41218">
        <ele>38.59</ele>
        <time>2015-09-06T06:17:15Z</time>
      </trkpt>
      <trkpt lat="47.80081" lon="-3.41219">
        <ele>38.59</ele>
        <time>2015-09-06T06:17:16Z</time>
      </trkpt>
      <trkpt lat="47.8008" lon="-3.41221">
        <ele>38.59</ele>
        <time>2015-09-06T06:17:17Z</time>
      </trkpt>
      <trkpt lat="47.80079" lon="-3.41223">
        <ele>38.59</ele>
        <time>2015-09-06T06:17:18Z</time>
      </trkpt>
      <trkpt lat="47.80078" lon="-3.41223">
        <ele>38.59</ele>
        <time>2015-09-06T06:17:19Z</time>
      </trkpt>
      <trkpt lat="47.80078" lon="-3.41222">
        <ele>38.59</ele>
        <time>2015-09-06T06:17:20Z</time>
      </trkpt>
      <trkpt lat="47.80078" lon="-3.41221">
        <ele>38.59</ele>
        <time>2015-09-06T06:17:21Z</time>
      </trkpt>
      <trkpt lat="47.80079" lon="-3.4122">
        <ele>38.59</ele>
        <time>2015-09-06T06:17:22Z</time>
      </trkpt>
      <trkpt lat="47.8008" lon="-3.41219">
        <ele>38.59</ele>
        <time>2015-09-06T06:17:23Z</time>
      </trkpt>
      <trkpt lat="47.80081" lon="-3.41217">
        <ele>38.59</ele>
        <time>2015-09-06T06:17:24Z</time>
      </trkpt>
      <trkpt lat="47.80082" lon="-3.41216">
        <ele>38.59</ele>
        <time>2015-09-06T06:17:25Z</time>
      </trkpt>
      <trkpt lat="47.80082" lon="-3.41215">
        <ele>38.59</ele>
        <time>2015-09-06T06:17:26Z</time>
      </trkpt>
      <trkpt lat="47.80082" lon="-3.41213">
        <ele>38.59</ele>
        <time>2015-09-06T06:17:27Z</time>
      </trkpt>
      <trkpt lat="47.80081" lon="-3.41212">
        <ele>38.59</ele>
        <time>2015-09-06T06:17:28Z</time>
      </trkpt>
      <trkpt lat="47.8008" lon="-3.41209">
        <ele>37.15</ele>
        <time>2015-09-06T06:17:29Z</time>
      </trkpt>
      <trkpt lat="47.80078" lon="-3.41207">
        <ele>36.19</ele>
        <time>2015-09-06T06:17:30Z</time>
      </trkpt>
      <trkpt lat="47.80074" lon="-3.41205">
        <ele>35.23</ele>
        <time>2015-09-06T06:17:31Z</time>
      </trkpt>
      <trkpt lat="47.80071" lon="-3.41203">
        <ele>34.26</ele>
        <time>2015-09-06T06:17:32Z</time>
      </trkpt>
      <trkpt lat="47.80067" lon="-3.41202">
        <ele>34.26</ele>
        <time>2015-09-06T06:17:33Z</time>
      </trkpt>
      <trkpt lat="47.80062" lon="-3.41202">
        <ele>34.26</ele>
        <time>2015-09-06T06:17:34Z</time>
      </trkpt>
      <trkpt lat="47.80057" lon="-3.41202">
        <ele>34.26</ele>
        <time>2015-09-06T06:17:35Z</time>
      </trkpt>
      <trkpt lat="47.80051" lon="-3.41202">
        <ele>34.26</ele>
        <time>2015-09-06T06:17:36Z</time>
      </trkpt>
      <trkpt lat="47.80045" lon="-3.41201">
        <ele>34.26</ele>
        <time>2015-09-06T06:17:37Z</time>
      </trkpt>
      <trkpt lat="47.80039" lon="-3.41201">
        <ele>34.26</ele>
        <time>2015-09-06T06:17:38Z</time>
      </trkpt>
      <trkpt lat="47.80033" lon="-3.412">
        <ele>34.26</ele>
        <time>2015-09-06T06:17:39Z</time>
      </trkpt>
      <trkpt lat="47.80028" lon="-3.412">
        <ele>34.26</ele>
        <time>2015-09-06T06:17:40Z</time>
      </trkpt>
      <trkpt lat="47.80022" lon="-3.41199">
        <ele>34.26</ele>
        <time>2015-09-06T06:17:41Z</time>
      </trkpt>
      <trkpt lat="47.80017" lon="-3.41198">
        <ele>34.26</ele>
        <time>2015-09-06T06:17:42Z</time>
      </trkpt>
      <trkpt lat="47.80011" lon="-3.41198">
        <ele>34.26</ele>
        <time>2015-09-06T06:17:43Z</time>
      </trkpt>
      <trkpt lat="47.80006" lon="-3.41198">
        <ele>34.26</ele>
        <time>2015-09-06T06:17:44Z</time>
      </trkpt>
      <trkpt lat="47.80001" lon="-3.41198">
        <ele>34.26</ele>
        <time>2015-09-06T06:17:45Z</time>
      </trkpt>
      <trkpt lat="47.79996" lon="-3.41198">
        <ele>34.26</ele>
        <time>2015-09-06T06:17:46Z</time>
      </trkpt>
      <trkpt lat="47.7999" lon="-3.41197">
        <ele>34.26</ele>
        <time>2015-09-06T06:17:47Z</time>
      </trkpt>
      <trkpt lat="47.79984" lon="-3.41197">
        <ele>34.26</ele>
        <time>2015-09-06T06:17:48Z</time>
      </trkpt>
      <trkpt lat="47.79979" lon="-3.41196">
        <ele>34.26</ele>
        <time>2015-09-06T06:17:49Z</time>
      </trkpt>
      <trkpt lat="47.79973" lon="-3.41196">
        <ele>34.26</ele>
        <time>2015-09-06T06:17:50Z</time>
      </trkpt>
      <trkpt lat="47.79965" lon="-3.41196">
        <ele>34.26</ele>
        <time>2015-09-06T06:17:51Z</time>
      </trkpt>
      <trkpt lat="47.79959" lon="-3.41196">
        <ele>34.26</ele>
        <time>2015-09-06T06:17:52Z</time>
      </trkpt>
      <trkpt lat="47.79952" lon="-3.41195">
        <ele>34.26</ele>
        <time>2015-09-06T06:17:53Z</time>
      </trkpt>
      <trkpt lat="47.79944" lon="-3.41194">
        <ele>34.26</ele>
        <time>2015-09-06T06:17:54Z</time>
      </trkpt>
      <trkpt lat="47.79937" lon="-3.41193">
        <ele>34.26</ele>
        <time>2015-09-06T06:17:55Z</time>
      </trkpt>
      <trkpt lat="47.79931" lon="-3.41193">
        <ele>34.26</ele>
        <time>2015-09-06T06:17:56Z</time>
      </trkpt>
      <trkpt lat="47.79925" lon="-3.41193">
        <ele>34.26</ele>
        <time>2015-09-06T06:17:57Z</time>
      </trkpt>
      <trkpt lat="47.79919" lon="-3.41193">
        <ele>34.26</ele>
        <time>2015-09-06T06:17:58Z</time>
      </trkpt>
      <trkpt lat="47.79913" lon="-3.41193">
        <ele>34.26</ele>
        <time>2015-09-06T06:17:59Z</time>
      </trkpt>
      <trkpt lat="47.79907" lon="-3.41192">
        <ele>34.26</ele>
        <time>2015-09-06T06:18:00Z</time>
      </trkpt>
      <trkpt lat="47.79901" lon="-3.41192">
        <ele>34.26</ele>
        <time>2015-09-06T06:18:01Z</time>
      </trkpt>
      <trkpt lat="47.79895" lon="-3.41192">
        <ele>35.71</ele>
        <time>2015-09-06T06:18:02Z</time>
      </trkpt>
      <trkpt lat="47.79889" lon="-3.41192">
        <ele>35.71</ele>
        <time>2015-09-06T06:18:03Z</time>
      </trkpt>
      <trkpt lat="47.79883" lon="-3.41193">
        <ele>36.19</ele>
        <time>2015-09-06T06:18:04Z</time>
      </trkpt>
      <trkpt lat="47.79877" lon="-3.41193">
        <ele>36.19</ele>
        <time>2015-09-06T06:18:05Z</time>
      </trkpt>
      <trkpt lat="47.79871" lon="-3.41192">
        <ele>36.67</ele>
        <time>2015-09-06T06:18:06Z</time>
      </trkpt>
      <trkpt lat="47.79866" lon="-3.41192">
        <ele>36.67</ele>
        <time>2015-09-06T06:18:07Z</time>
      </trkpt>
      <trkpt lat="47.7986" lon="-3.41192">
        <ele>37.15</ele>
        <time>2015-09-06T06:18:08Z</time>
      </trkpt>
      <trkpt lat="47.79855" lon="-3.41191">
        <ele>37.15</ele>
        <time>2015-09-06T06:18:09Z</time>
      </trkpt>
      <trkpt lat="47.79849" lon="-3.41191">
        <ele>37.15</ele>
        <time>2015-09-06T06:18:10Z</time>
      </trkpt>
      <trkpt lat="47.79844" lon="-3.41191">
        <ele>37.63</ele>
        <time>2015-09-06T06:18:11Z</time>
      </trkpt>
      <trkpt lat="47.79838" lon="-3.4119">
        <ele>37.63</ele>
        <time>2015-09-06T06:18:12Z</time>
      </trkpt>
      <trkpt lat="47.79833" lon="-3.4119">
        <ele>37.63</ele>
        <time>2015-09-06T06:18:13Z</time>
      </trkpt>
      <trkpt lat="47.79827" lon="-3.4119">
        <ele>38.11</ele>
        <time>2015-09-06T06:18:14Z</time>
      </trkpt>
      <trkpt lat="47.79822" lon="-3.4119">
        <ele>38.11</ele>
        <time>2015-09-06T06:18:15Z</time>
      </trkpt>
      <trkpt lat="47.79816" lon="-3.4119">
        <ele>38.59</ele>
        <time>2015-09-06T06:18:16Z</time>
      </trkpt>
      <trkpt lat="47.79811" lon="-3.4119">
        <ele>38.59</ele>
        <time>2015-09-06T06:18:17Z</time>
      </trkpt>
      <trkpt lat="47.79805" lon="-3.4119">
        <ele>39.07</ele>
        <time>2015-09-06T06:18:18Z</time>
      </trkpt>
      <trkpt lat="47.798" lon="-3.4119">
        <ele>39.07</ele>
        <time>2015-09-06T06:18:19Z</time>
      </trkpt>
      <trkpt lat="47.79796" lon="-3.4119">
        <ele>39.07</ele>
        <time>2015-09-06T06:18:20Z</time>
      </trkpt>
      <trkpt lat="47.79791" lon="-3.41189">
        <ele>39.55</ele>
        <time>2015-09-06T06:18:21Z</time>
      </trkpt>
      <trkpt lat="47.79787" lon="-3.41189">
        <ele>39.55</ele>
        <time>2015-09-06T06:18:22Z</time>
      </trkpt>
      <trkpt lat="47.79782" lon="-3.41188">
        <ele>39.55</ele>
        <time>2015-09-06T06:18:23Z</time>
      </trkpt>
      <trkpt lat="47.79777" lon="-3.41188">
        <ele>39.55</ele>
        <time>2015-09-06T06:18:24Z</time>
      </trkpt>
      <trkpt lat="47.79772" lon="-3.41188">
        <ele>39.55</ele>
        <time>2015-09-06T06:18:25Z</time>
      </trkpt>
      <trkpt lat="47.79768" lon="-3.41189">
        <ele>40.03</ele>
        <time>2015-09-06T06:18:26Z</time>
      </trkpt>
      <trkpt lat="47.79764" lon="-3.41189">
        <ele>40.03</ele>
        <time>2015-09-06T06:18:27Z</time>
      </trkpt>
      <trkpt lat="47.79759" lon="-3.41189">
        <ele>40.03</ele>
        <time>2015-09-06T06:18:28Z</time>
      </trkpt>
      <trkpt lat="47.79754" lon="-3.41189">
        <ele>40.03</ele>
        <time>2015-09-06T06:18:29Z</time>
      </trkpt>
      <trkpt lat="47.79749" lon="-3.41189">
        <ele>40.03</ele>
        <time>2015-09-06T06:18:30Z</time>
      </trkpt>
      <trkpt lat="47.79745" lon="-3.4119">
        <ele>40.03</ele>
        <time>2015-09-06T06:18:31Z</time>
      </trkpt>
      <trkpt lat="47.7974" lon="-3.4119">
        <ele>40.03</ele>
        <time>2015-09-06T06:18:32Z</time>
      </trkpt>
      <trkpt lat="47.79735" lon="-3.4119">
        <ele>40.03</ele>
        <time>2015-09-06T06:18:33Z</time>
      </trkpt>
      <trkpt lat="47.7973" lon="-3.4119">
        <ele>40.03</ele>
        <time>2015-09-06T06:18:34Z</time>
      </trkpt>
      <trkpt lat="47.79726" lon="-3.4119">
        <ele>40.03</ele>
        <time>2015-09-06T06:18:35Z</time>
      </trkpt>
      <trkpt lat="47.79723" lon="-3.41191">
        <ele>40.03</ele>
        <time>2015-09-06T06:18:36Z</time>
      </trkpt>
      <trkpt lat="47.79719" lon="-3.41192">
        <ele>40.03</ele>
        <time>2015-09-06T06:18:37Z</time>
      </trkpt>
      <trkpt lat="47.79716" lon="-3.41193">
        <ele>40.03</ele>
        <time>2015-09-06T06:18:38Z</time>
      </trkpt>
      <trkpt lat="47.79714" lon="-3.41193">
        <ele>40.03</ele>
        <time>2015-09-06T06:18:39Z</time>
      </trkpt>
      <trkpt lat="47.79711" lon="-3.41191">
        <ele>40.03</ele>
        <time>2015-09-06T06:18:40Z</time>
      </trkpt>
      <trkpt lat="47.79707" lon="-3.41191">
        <ele>38.59</ele>
        <time>2015-09-06T06:18:41Z</time>
      </trkpt>
      <trkpt lat="47.79703" lon="-3.41191">
        <ele>38.59</ele>
        <time>2015-09-06T06:18:42Z</time>
      </trkpt>
      <trkpt lat="47.79699" lon="-3.4119">
        <ele>38.59</ele>
        <time>2015-09-06T06:18:43Z</time>
      </trkpt>
      <trkpt lat="47.79694" lon="-3.4119">
        <ele>38.59</ele>
        <time>2015-09-06T06:18:44Z</time>
      </trkpt>
      <trkpt lat="47.7969" lon="-3.41192">
        <ele>38.11</ele>
        <time>2015-09-06T06:18:45Z</time>
      </trkpt>
      <trkpt lat="47.79685" lon="-3.41195">
        <ele>38.11</ele>
        <time>2015-09-06T06:18:46Z</time>
      </trkpt>
      <trkpt lat="47.7968" lon="-3.41198">
        <ele>38.11</ele>
        <time>2015-09-06T06:18:47Z</time>
      </trkpt>
      <trkpt lat="47.79675" lon="-3.41201">
        <ele>38.11</ele>
        <time>2015-09-06T06:18:48Z</time>
      </trkpt>
      <trkpt lat="47.7967" lon="-3.41204">
        <ele>38.11</ele>
        <time>2015-09-06T06:18:49Z</time>
      </trkpt>
      <trkpt lat="47.79665" lon="-3.41207">
        <ele>37.63</ele>
        <time>2015-09-06T06:18:50Z</time>
      </trkpt>
      <trkpt lat="47.7966" lon="-3.4121">
        <ele>37.63</ele>
        <time>2015-09-06T06:18:51Z</time>
      </trkpt>
      <trkpt lat="47.79655" lon="-3.41213">
        <ele>37.63</ele>
        <time>2015-09-06T06:18:52Z</time>
      </trkpt>
      <trkpt lat="47.7965" lon="-3.41215">
        <ele>37.63</ele>
        <time>2015-09-06T06:18:53Z</time>
      </trkpt>
      <trkpt lat="47.79647" lon="-3.41215">
        <ele>37.63</ele>
        <time>2015-09-06T06:18:54Z</time>
      </trkpt>
      <trkpt lat="47.79645" lon="-3.41213">
        <ele>37.63</ele>
        <time>2015-09-06T06:18:55Z</time>
      </trkpt>
      <trkpt lat="47.79643" lon="-3.41209">
        <ele>37.63</ele>
        <time>2015-09-06T06:18:56Z</time>
      </trkpt>
      <trkpt lat="47.79642" lon="-3.41204">
        <ele>37.15</ele>
        <time>2015-09-06T06:18:57Z</time>
      </trkpt>
      <trkpt lat="47.79641" lon="-3.41199">
        <ele>37.15</ele>
        <time>2015-09-06T06:18:58Z</time>
      </trkpt>
      <trkpt lat="47.7964" lon="-3.41193">
        <ele>37.15</ele>
        <time>2015-09-06T06:18:59Z</time>
      </trkpt>
      <trkpt lat="47.7964" lon="-3.41187">
        <ele>36.67</ele>
        <time>2015-09-06T06:19:00Z</time>
      </trkpt>
      <trkpt lat="47.79639" lon="-3.41179">
        <ele>36.67</ele>
        <time>2015-09-06T06:19:01Z</time>
      </trkpt>
      <trkpt lat="47.79639" lon="-3.41173">
        <ele>36.67</ele>
        <time>2015-09-06T06:19:02Z</time>
      </trkpt>
      <trkpt lat="47.79638" lon="-3.41166">
        <ele>36.67</ele>
        <time>2015-09-06T06:19:03Z</time>
      </trkpt>
      <trkpt lat="47.79637" lon="-3.41159">
        <ele>36.67</ele>
        <time>2015-09-06T06:19:04Z</time>
      </trkpt>
      <trkpt lat="47.79637" lon="-3.41153">
        <ele>36.67</ele>
        <time>2015-09-06T06:19:05Z</time>
      </trkpt>
      <trkpt lat="47.79636" lon="-3.41146">
        <ele>36.19</ele>
        <time>2015-09-06T06:19:06Z</time>
      </trkpt>
      <trkpt lat="47.79635" lon="-3.41139">
        <ele>36.67</ele>
        <time>2015-09-06T06:19:07Z</time>
      </trkpt>
      <trkpt lat="47.79634" lon="-3.41132">
        <ele>36.19</ele>
        <time>2015-09-06T06:19:08Z</time>
      </trkpt>
      <trkpt lat="47.79633" lon="-3.41125">
        <ele>36.19</ele>
        <time>2015-09-06T06:19:09Z</time>
      </trkpt>
      <trkpt lat="47.79632" lon="-3.41119">
        <ele>35.71</ele>
        <time>2015-09-06T06:19:10Z</time>
      </trkpt>
      <trkpt lat="47.7963" lon="-3.41112">
        <ele>35.71</ele>
        <time>2015-09-06T06:19:11Z</time>
      </trkpt>
      <trkpt lat="47.79629" lon="-3.41106">
        <ele>35.71</ele>
        <time>2015-09-06T06:19:12Z</time>
      </trkpt>
      <trkpt lat="47.79626" lon="-3.41099">
        <ele>35.71</ele>
        <time>2015-09-06T06:19:13Z</time>
      </trkpt>
      <trkpt lat="47.79623" lon="-3.41093">
        <ele>35.71</ele>
        <time>2015-09-06T06:19:14Z</time>
      </trkpt>
      <trkpt lat="47.7962" lon="-3.41088">
        <ele>35.71</ele>
        <time>2015-09-06T06:19:15Z</time>
      </trkpt>
      <trkpt lat="47.79616" lon="-3.41083">
        <ele>35.71</ele>
        <time>2015-09-06T06:19:16Z</time>
      </trkpt>
      <trkpt lat="47.79613" lon="-3.41078">
        <ele>35.71</ele>
        <time>2015-09-06T06:19:17Z</time>
      </trkpt>
      <trkpt lat="47.79608" lon="-3.41074">
        <ele>35.71</ele>
        <time>2015-09-06T06:19:18Z</time>
      </trkpt>
      <trkpt lat="47.79604" lon="-3.41071">
        <ele>35.71</ele>
        <time>2015-09-06T06:19:19Z</time>
      </trkpt>
      <trkpt lat="47.79601" lon="-3.41068">
        <ele>35.71</ele>
        <time>2015-09-06T06:19:20Z</time>
      </trkpt>
      <trkpt lat="47.796" lon="-3.41063">
        <ele>35.71</ele>
        <time>2015-09-06T06:19:21Z</time>
      </trkpt>
      <trkpt lat="47.79599" lon="-3.41056">
        <ele>35.71</ele>
        <time>2015-09-06T06:19:22Z</time>
      </trkpt>
      <trkpt lat="47.79598" lon="-3.4105">
        <ele>35.23</ele>
        <time>2015-09-06T06:19:23Z</time>
      </trkpt>
      <trkpt lat="47.79598" lon="-3.41043">
        <ele>35.23</ele>
        <time>2015-09-06T06:19:24Z</time>
      </trkpt>
      <trkpt lat="47.79599" lon="-3.41036">
        <ele>35.23</ele>
        <time>2015-09-06T06:19:25Z</time>
      </trkpt>
      <trkpt lat="47.79601" lon="-3.41031">
        <ele>34.74</ele>
        <time>2015-09-06T06:19:26Z</time>
      </trkpt>
      <trkpt lat="47.79605" lon="-3.41026">
        <ele>34.74</ele>
        <time>2015-09-06T06:19:27Z</time>
      </trkpt>
      <trkpt lat="47.7961" lon="-3.41021">
        <ele>34.26</ele>
        <time>2015-09-06T06:19:28Z</time>
      </trkpt>
      <trkpt lat="47.79613" lon="-3.41015">
        <ele>33.78</ele>
        <time>2015-09-06T06:19:29Z</time>
      </trkpt>
      <trkpt lat="47.79616" lon="-3.41009">
        <ele>33.3</ele>
        <time>2015-09-06T06:19:30Z</time>
      </trkpt>
      <trkpt lat="47.79616" lon="-3.41002">
        <ele>33.3</ele>
        <time>2015-09-06T06:19:31Z</time>
      </trkpt>
      <trkpt lat="47.79614" lon="-3.40995">
        <ele>33.3</ele>
        <time>2015-09-06T06:19:32Z</time>
      </trkpt>
      <trkpt lat="47.79613" lon="-3.40989">
        <ele>33.3</ele>
        <time>2015-09-06T06:19:33Z</time>
      </trkpt>
      <trkpt lat="47.79612" lon="-3.40982">
        <ele>33.3</ele>
        <time>2015-09-06T06:19:34Z</time>
      </trkpt>
      <trkpt lat="47.79611" lon="-3.40974">
        <ele>33.3</ele>
        <time>2015-09-06T06:19:35Z</time>
      </trkpt>
      <trkpt lat="47.7961" lon="-3.40967">
        <ele>33.3</ele>
        <time>2015-09-06T06:19:36Z</time>
      </trkpt>
      <trkpt lat="47.79609" lon="-3.4096">
        <ele>33.3</ele>
        <time>2015-09-06T06:19:37Z</time>
      </trkpt>
      <trkpt lat="47.79607" lon="-3.40954">
        <ele>33.3</ele>
        <time>2015-09-06T06:19:38Z</time>
      </trkpt>
      <trkpt lat="47.79605" lon="-3.4095">
        <ele>33.3</ele>
        <time>2015-09-06T06:19:39Z</time>
      </trkpt>
      <trkpt lat="47.79601" lon="-3.40947">
        <ele>33.3</ele>
        <time>2015-09-06T06:19:40Z</time>
      </trkpt>
      <trkpt lat="47.79597" lon="-3.40947">
        <ele>33.3</ele>
        <time>2015-09-06T06:19:41Z</time>
      </trkpt>
      <trkpt lat="47.79593" lon="-3.40949">
        <ele>33.3</ele>
        <time>2015-09-06T06:19:42Z</time>
      </trkpt>
      <trkpt lat="47.79589" lon="-3.40951">
        <ele>33.3</ele>
        <time>2015-09-06T06:19:43Z</time>
      </trkpt>
      <trkpt lat="47.79585" lon="-3.40953">
        <ele>33.3</ele>
        <time>2015-09-06T06:19:44Z</time>
      </trkpt>
      <trkpt lat="47.79581" lon="-3.40955">
        <ele>33.3</ele>
        <time>2015-09-06T06:19:45Z</time>
      </trkpt>
      <trkpt lat="47.79576" lon="-3.40956">
        <ele>33.3</ele>
        <time>2015-09-06T06:19:46Z</time>
      </trkpt>
      <trkpt lat="47.79572" lon="-3.40957">
        <ele>33.3</ele>
        <time>2015-09-06T06:19:47Z</time>
      </trkpt>
      <trkpt lat="47.79567" lon="-3.40959">
        <ele>33.3</ele>
        <time>2015-09-06T06:19:48Z</time>
      </trkpt>
      <trkpt lat="47.79562" lon="-3.40959">
        <ele>33.3</ele>
        <time>2015-09-06T06:19:49Z</time>
      </trkpt>
      <trkpt lat="47.79557" lon="-3.4096">
        <ele>34.26</ele>
        <time>2015-09-06T06:19:50Z</time>
      </trkpt>
      <trkpt lat="47.79553" lon="-3.4096">
        <ele>34.26</ele>
        <time>2015-09-06T06:19:51Z</time>
      </trkpt>
      <trkpt lat="47.79548" lon="-3.40961">
        <ele>34.26</ele>
        <time>2015-09-06T06:19:52Z</time>
      </trkpt>
      <trkpt lat="47.79543" lon="-3.40962">
        <ele>34.74</ele>
        <time>2015-09-06T06:19:53Z</time>
      </trkpt>
      <trkpt lat="47.79538" lon="-3.40962">
        <ele>34.74</ele>
        <time>2015-09-06T06:19:54Z</time>
      </trkpt>
      <trkpt lat="47.79534" lon="-3.40963">
        <ele>34.74</ele>
        <time>2015-09-06T06:19:55Z</time>
      </trkpt>
      <trkpt lat="47.79529" lon="-3.40965">
        <ele>35.23</ele>
        <time>2015-09-06T06:19:56Z</time>
      </trkpt>
      <trkpt lat="47.79524" lon="-3.40967">
        <ele>35.23</ele>
        <time>2015-09-06T06:19:57Z</time>
      </trkpt>
      <trkpt lat="47.7952" lon="-3.4097">
        <ele>35.23</ele>
        <time>2015-09-06T06:19:58Z</time>
      </trkpt>
      <trkpt lat="47.79515" lon="-3.40974">
        <ele>35.23</ele>
        <time>2015-09-06T06:19:59Z</time>
      </trkpt>
      <trkpt lat="47.79511" lon="-3.40977">
        <ele>35.23</ele>
        <time>2015-09-06T06:20:00Z</time>
      </trkpt>
      <trkpt lat="47.79506" lon="-3.4098">
        <ele>35.23</ele>
        <time>2015-09-06T06:20:01Z</time>
      </trkpt>
      <trkpt lat="47.79501" lon="-3.40983">
        <ele>35.71</ele>
        <time>2015-09-06T06:20:02Z</time>
      </trkpt>
      <trkpt lat="47.79497" lon="-3.40985">
        <ele>35.71</ele>
        <time>2015-09-06T06:20:03Z</time>
      </trkpt>
      <trkpt lat="47.79492" lon="-3.40988">
        <ele>35.71</ele>
        <time>2015-09-06T06:20:04Z</time>
      </trkpt>
      <trkpt lat="47.79488" lon="-3.4099">
        <ele>36.19</ele>
        <time>2015-09-06T06:20:05Z</time>
      </trkpt>
      <trkpt lat="47.79483" lon="-3.40992">
        <ele>36.19</ele>
        <time>2015-09-06T06:20:06Z</time>
      </trkpt>
      <trkpt lat="47.79479" lon="-3.40993">
        <ele>36.67</ele>
        <time>2015-09-06T06:20:07Z</time>
      </trkpt>
      <trkpt lat="47.79475" lon="-3.40995">
        <ele>36.67</ele>
        <time>2015-09-06T06:20:08Z</time>
      </trkpt>
      <trkpt lat="47.79471" lon="-3.40996">
        <ele>37.15</ele>
        <time>2015-09-06T06:20:09Z</time>
      </trkpt>
      <trkpt lat="47.79467" lon="-3.40998">
        <ele>37.15</ele>
        <time>2015-09-06T06:20:10Z</time>
      </trkpt>
      <trkpt lat="47.79463" lon="-3.41">
        <ele>37.63</ele>
        <time>2015-09-06T06:20:11Z</time>
      </trkpt>
      <trkpt lat="47.79459" lon="-3.41002">
        <ele>37.63</ele>
        <time>2015-09-06T06:20:12Z</time>
      </trkpt>
      <trkpt lat="47.79457" lon="-3.41006">
        <ele>38.11</ele>
        <time>2015-09-06T06:20:13Z</time>
      </trkpt>
      <trkpt lat="47.79456" lon="-3.41011">
        <ele>38.11</ele>
        <time>2015-09-06T06:20:14Z</time>
      </trkpt>
      <trkpt lat="47.79456" lon="-3.41017">
        <ele>38.11</ele>
        <time>2015-09-06T06:20:15Z</time>
      </trkpt>
      <trkpt lat="47.79456" lon="-3.41022">
        <ele>38.11</ele>
        <time>2015-09-06T06:20:16Z</time>
      </trkpt>
      <trkpt lat="47.79457" lon="-3.41028">
        <ele>38.11</ele>
        <time>2015-09-06T06:20:17Z</time>
      </trkpt>
      <trkpt lat="47.79458" lon="-3.41033">
        <ele>38.11</ele>
        <time>2015-09-06T06:20:18Z</time>
      </trkpt>
      <trkpt lat="47.79459" lon="-3.41039">
        <ele>38.59</ele>
        <time>2015-09-06T06:20:19Z</time>
      </trkpt>
      <trkpt lat="47.79459" lon="-3.41045">
        <ele>38.59</ele>
        <time>2015-09-06T06:20:20Z</time>
      </trkpt>
      <trkpt lat="47.79458" lon="-3.41051">
        <ele>38.59</ele>
        <time>2015-09-06T06:20:21Z</time>
      </trkpt>
      <trkpt lat="47.79459" lon="-3.41058">
        <ele>38.59</ele>
        <time>2015-09-06T06:20:22Z</time>
      </trkpt>
      <trkpt lat="47.79459" lon="-3.41064">
        <ele>38.59</ele>
        <time>2015-09-06T06:20:23Z</time>
      </trkpt>
      <trkpt lat="47.79459" lon="-3.41069">
        <ele>38.59</ele>
        <time>2015-09-06T06:20:24Z</time>
      </trkpt>
      <trkpt lat="47.79457" lon="-3.41074">
        <ele>38.59</ele>
        <time>2015-09-06T06:20:25Z</time>
      </trkpt>
      <trkpt lat="47.79455" lon="-3.41077">
        <ele>38.59</ele>
        <time>2015-09-06T06:20:26Z</time>
      </trkpt>
      <trkpt lat="47.79452" lon="-3.4108">
        <ele>39.55</ele>
        <time>2015-09-06T06:20:27Z</time>
      </trkpt>
      <trkpt lat="47.7945" lon="-3.41083">
        <ele>39.55</ele>
        <time>2015-09-06T06:20:28Z</time>
      </trkpt>
      <trkpt lat="47.79447" lon="-3.41087">
        <ele>39.55</ele>
        <time>2015-09-06T06:20:29Z</time>
      </trkpt>
      <trkpt lat="47.79444" lon="-3.4109">
        <ele>39.55</ele>
        <time>2015-09-06T06:20:30Z</time>
      </trkpt>
      <trkpt lat="47.79441" lon="-3.41092">
        <ele>39.55</ele>
        <time>2015-09-06T06:20:31Z</time>
      </trkpt>
      <trkpt lat="47.79438" lon="-3.41093">
        <ele>39.55</ele>
        <time>2015-09-06T06:20:32Z</time>
      </trkpt>
      <trkpt lat="47.79435" lon="-3.41095">
        <ele>39.55</ele>
        <time>2015-09-06T06:20:33Z</time>
      </trkpt>
      <trkpt lat="47.79433" lon="-3.41099">
        <ele>39.55</ele>
        <time>2015-09-06T06:20:34Z</time>
      </trkpt>
      <trkpt lat="47.79432" lon="-3.41104">
        <ele>39.55</ele>
        <time>2015-09-06T06:20:35Z</time>
      </trkpt>
      <trkpt lat="47.79432" lon="-3.41109">
        <ele>39.55</ele>
        <time>2015-09-06T06:20:36Z</time>
      </trkpt>
      <trkpt lat="47.79432" lon="-3.41115">
        <ele>39.55</ele>
        <time>2015-09-06T06:20:37Z</time>
      </trkpt>
      <trkpt lat="47.79432" lon="-3.41121">
        <ele>39.55</ele>
        <time>2015-09-06T06:20:38Z</time>
      </trkpt>
      <trkpt lat="47.79431" lon="-3.41126">
        <ele>39.55</ele>
        <time>2015-09-06T06:20:39Z</time>
      </trkpt>
      <trkpt lat="47.79428" lon="-3.41131">
        <ele>39.55</ele>
        <time>2015-09-06T06:20:40Z</time>
      </trkpt>
      <trkpt lat="47.79426" lon="-3.41134">
        <ele>39.55</ele>
        <time>2015-09-06T06:20:41Z</time>
      </trkpt>
      <trkpt lat="47.79422" lon="-3.41135">
        <ele>39.55</ele>
        <time>2015-09-06T06:20:42Z</time>
      </trkpt>
      <trkpt lat="47.79419" lon="-3.41136">
        <ele>39.55</ele>
        <time>2015-09-06T06:20:43Z</time>
      </trkpt>
      <trkpt lat="47.79415" lon="-3.41136">
        <ele>39.55</ele>
        <time>2015-09-06T06:20:44Z</time>
      </trkpt>
      <trkpt lat="47.79411" lon="-3.41135">
        <ele>39.55</ele>
        <time>2015-09-06T06:20:45Z</time>
      </trkpt>
      <trkpt lat="47.79407" lon="-3.41133">
        <ele>39.55</ele>
        <time>2015-09-06T06:20:46Z</time>
      </trkpt>
      <trkpt lat="47.79403" lon="-3.41132">
        <ele>39.55</ele>
        <time>2015-09-06T06:20:47Z</time>
      </trkpt>
      <trkpt lat="47.79399" lon="-3.41129">
        <ele>39.55</ele>
        <time>2015-09-06T06:20:48Z</time>
      </trkpt>
      <trkpt lat="47.79395" lon="-3.41128">
        <ele>39.55</ele>
        <time>2015-09-06T06:20:49Z</time>
      </trkpt>
      <trkpt lat="47.7939" lon="-3.41126">
        <ele>39.55</ele>
        <time>2015-09-06T06:20:50Z</time>
      </trkpt>
      <trkpt lat="47.79386" lon="-3.41124">
        <ele>39.55</ele>
        <time>2015-09-06T06:20:51Z</time>
      </trkpt>
      <trkpt lat="47.79382" lon="-3.41122">
        <ele>40.03</ele>
        <time>2015-09-06T06:20:52Z</time>
      </trkpt>
      <trkpt lat="47.79378" lon="-3.4112">
        <ele>40.51</ele>
        <time>2015-09-06T06:20:53Z</time>
      </trkpt>
      <trkpt lat="47.79374" lon="-3.41118">
        <ele>40.51</ele>
        <time>2015-09-06T06:20:54Z</time>
      </trkpt>
      <trkpt lat="47.7937" lon="-3.41115">
        <ele>40.51</ele>
        <time>2015-09-06T06:20:55Z</time>
      </trkpt>
      <trkpt lat="47.79366" lon="-3.41113">
        <ele>41.47</ele>
        <time>2015-09-06T06:20:56Z</time>
      </trkpt>
      <trkpt lat="47.79362" lon="-3.41111">
        <ele>41.47</ele>
        <time>2015-09-06T06:20:57Z</time>
      </trkpt>
      <trkpt lat="47.79358" lon="-3.41109">
        <ele>41.95</ele>
        <time>2015-09-06T06:20:58Z</time>
      </trkpt>
      <trkpt lat="47.79354" lon="-3.41108">
        <ele>41.95</ele>
        <time>2015-09-06T06:20:59Z</time>
      </trkpt>
      <trkpt lat="47.7935" lon="-3.41106">
        <ele>42.44</ele>
        <time>2015-09-06T06:21:00Z</time>
      </trkpt>
      <trkpt lat="47.79346" lon="-3.41104">
        <ele>42.44</ele>
        <time>2015-09-06T06:21:01Z</time>
      </trkpt>
      <trkpt lat="47.79341" lon="-3.41103">
        <ele>42.92</ele>
        <time>2015-09-06T06:21:02Z</time>
      </trkpt>
      <trkpt lat="47.79337" lon="-3.41101">
        <ele>42.92</ele>
        <time>2015-09-06T06:21:03Z</time>
      </trkpt>
      <trkpt lat="47.79333" lon="-3.41099">
        <ele>43.4</ele>
        <time>2015-09-06T06:21:04Z</time>
      </trkpt>
      <trkpt lat="47.79329" lon="-3.41098">
        <ele>43.88</ele>
        <time>2015-09-06T06:21:05Z</time>
      </trkpt>
      <trkpt lat="47.79325" lon="-3.41096">
        <ele>44.36</ele>
        <time>2015-09-06T06:21:06Z</time>
      </trkpt>
      <trkpt lat="47.79322" lon="-3.41094">
        <ele>44.36</ele>
        <time>2015-09-06T06:21:07Z</time>
      </trkpt>
      <trkpt lat="47.79318" lon="-3.41093">
        <ele>44.84</ele>
        <time>2015-09-06T06:21:08Z</time>
      </trkpt>
      <trkpt lat="47.79314" lon="-3.41091">
        <ele>44.84</ele>
        <time>2015-09-06T06:21:09Z</time>
      </trkpt>
      <trkpt lat="47.7931" lon="-3.4109">
        <ele>45.32</ele>
        <time>2015-09-06T06:21:10Z</time>
      </trkpt>
      <trkpt lat="47.79306" lon="-3.41089">
        <ele>45.32</ele>
        <time>2015-09-06T06:21:11Z</time>
      </trkpt>
      <trkpt lat="47.79302" lon="-3.41087">
        <ele>45.8</ele>
        <time>2015-09-06T06:21:12Z</time>
      </trkpt>
      <trkpt lat="47.79298" lon="-3.41085">
        <ele>45.8</ele>
        <time>2015-09-06T06:21:13Z</time>
      </trkpt>
      <trkpt lat="47.79294" lon="-3.41083">
        <ele>45.8</ele>
        <time>2015-09-06T06:21:14Z</time>
      </trkpt>
      <trkpt lat="47.7929" lon="-3.41081">
        <ele>46.28</ele>
        <time>2015-09-06T06:21:15Z</time>
      </trkpt>
      <trkpt lat="47.79285" lon="-3.41079">
        <ele>46.76</ele>
        <time>2015-09-06T06:21:16Z</time>
      </trkpt>
      <trkpt lat="47.79281" lon="-3.41077">
        <ele>46.76</ele>
        <time>2015-09-06T06:21:17Z</time>
      </trkpt>
      <trkpt lat="47.79277" lon="-3.41075">
        <ele>46.76</ele>
        <time>2015-09-06T06:21:18Z</time>
      </trkpt>
      <trkpt lat="47.79273" lon="-3.41073">
        <ele>46.76</ele>
        <time>2015-09-06T06:21:19Z</time>
      </trkpt>
      <trkpt lat="47.79268" lon="-3.41071">
        <ele>46.76</ele>
        <time>2015-09-06T06:21:20Z</time>
      </trkpt>
      <trkpt lat="47.79264" lon="-3.41069">
        <ele>46.76</ele>
        <time>2015-09-06T06:21:21Z</time>
      </trkpt>
      <trkpt lat="47.79259" lon="-3.41067">
        <ele>46.76</ele>
        <time>2015-09-06T06:21:22Z</time>
      </trkpt>
      <trkpt lat="47.79254" lon="-3.41065">
        <ele>46.76</ele>
        <time>2015-09-06T06:21:23Z</time>
      </trkpt>
      <trkpt lat="47.79249" lon="-3.41063">
        <ele>46.76</ele>
        <time>2015-09-06T06:21:24Z</time>
      </trkpt>
      <trkpt lat="47.79242" lon="-3.4106">
        <ele>46.76</ele>
        <time>2015-09-06T06:21:25Z</time>
      </trkpt>
      <trkpt lat="47.79239" lon="-3.41058">
        <ele>46.76</ele>
        <time>2015-09-06T06:21:26Z</time>
      </trkpt>
      <trkpt lat="47.79234" lon="-3.41056">
        <ele>46.76</ele>
        <time>2015-09-06T06:21:27Z</time>
      </trkpt>
      <trkpt lat="47.79228" lon="-3.41053">
        <ele>46.76</ele>
        <time>2015-09-06T06:21:28Z</time>
      </trkpt>
      <trkpt lat="47.79221" lon="-3.4105">
        <ele>46.76</ele>
        <time>2015-09-06T06:21:29Z</time>
      </trkpt>
      <trkpt lat="47.79217" lon="-3.41049">
        <ele>46.76</ele>
        <time>2015-09-06T06:21:30Z</time>
      </trkpt>
      <trkpt lat="47.79211" lon="-3.41047">
        <ele>46.76</ele>
        <time>2015-09-06T06:21:31Z</time>
      </trkpt>
      <trkpt lat="47.79205" lon="-3.41048">
        <ele>45.8</ele>
        <time>2015-09-06T06:21:32Z</time>
      </trkpt>
      <trkpt lat="47.79197" lon="-3.41049">
        <ele>45.32</ele>
        <time>2015-09-06T06:21:33Z</time>
      </trkpt>
      <trkpt lat="47.79194" lon="-3.41048">
        <ele>45.32</ele>
        <time>2015-09-06T06:21:34Z</time>
      </trkpt>
      <trkpt lat="47.79189" lon="-3.41047">
        <ele>45.32</ele>
        <time>2015-09-06T06:21:35Z</time>
      </trkpt>
      <trkpt lat="47.79183" lon="-3.41044">
        <ele>45.32</ele>
        <time>2015-09-06T06:21:36Z</time>
      </trkpt>
      <trkpt lat="47.79179" lon="-3.4104">
        <ele>45.32</ele>
        <time>2015-09-06T06:21:37Z</time>
      </trkpt>
      <trkpt lat="47.79176" lon="-3.41036">
        <ele>45.32</ele>
        <time>2015-09-06T06:21:38Z</time>
      </trkpt>
      <trkpt lat="47.79174" lon="-3.4103">
        <ele>44.84</ele>
        <time>2015-09-06T06:21:39Z</time>
      </trkpt>
      <trkpt lat="47.79174" lon="-3.41024">
        <ele>44.84</ele>
        <time>2015-09-06T06:21:40Z</time>
      </trkpt>
      <trkpt lat="47.79175" lon="-3.41019">
        <ele>45.32</ele>
        <time>2015-09-06T06:21:41Z</time>
      </trkpt>
      <trkpt lat="47.79174" lon="-3.41013">
        <ele>44.36</ele>
        <time>2015-09-06T06:21:42Z</time>
      </trkpt>
      <trkpt lat="47.79172" lon="-3.41009">
        <ele>44.36</ele>
        <time>2015-09-06T06:21:43Z</time>
      </trkpt>
      <trkpt lat="47.79168" lon="-3.41007">
        <ele>44.36</ele>
        <time>2015-09-06T06:21:44Z</time>
      </trkpt>
      <trkpt lat="47.79164" lon="-3.41006">
        <ele>44.84</ele>
        <time>2015-09-06T06:21:45Z</time>
      </trkpt>
      <trkpt lat="47.7916" lon="-3.41006">
        <ele>44.36</ele>
        <time>2015-09-06T06:21:46Z</time>
      </trkpt>
      <trkpt lat="47.79156" lon="-3.41005">
        <ele>44.36</ele>
        <time>2015-09-06T06:21:47Z</time>
      </trkpt>
      <trkpt lat="47.79152" lon="-3.41004">
        <ele>44.84</ele>
        <time>2015-09-06T06:21:48Z</time>
      </trkpt>
      <trkpt lat="47.79147" lon="-3.41003">
        <ele>44.84</ele>
        <time>2015-09-06T06:21:49Z</time>
      </trkpt>
      <trkpt lat="47.79143" lon="-3.41001">
        <ele>44.84</ele>
        <time>2015-09-06T06:21:50Z</time>
      </trkpt>
      <trkpt lat="47.79138" lon="-3.40999">
        <ele>43.88</ele>
        <time>2015-09-06T06:21:51Z</time>
      </trkpt>
      <trkpt lat="47.79133" lon="-3.40996">
        <ele>43.88</ele>
        <time>2015-09-06T06:21:52Z</time>
      </trkpt>
      <trkpt lat="47.79127" lon="-3.40993">
        <ele>43.4</ele>
        <time>2015-09-06T06:21:53Z</time>
      </trkpt>
      <trkpt lat="47.79121" lon="-3.4099">
        <ele>43.4</ele>
        <time>2015-09-06T06:21:54Z</time>
      </trkpt>
      <trkpt lat="47.79115" lon="-3.40987">
        <ele>42.92</ele>
        <time>2015-09-06T06:21:55Z</time>
      </trkpt>
      <trkpt lat="47.79109" lon="-3.40984">
        <ele>42.44</ele>
        <time>2015-09-06T06:21:56Z</time>
      </trkpt>
      <trkpt lat="47.79103" lon="-3.40982">
        <ele>42.44</ele>
        <time>2015-09-06T06:21:57Z</time>
      </trkpt>
      <trkpt lat="47.79097" lon="-3.40979">
        <ele>41.95</ele>
        <time>2015-09-06T06:21:58Z</time>
      </trkpt>
      <trkpt lat="47.79093" lon="-3.40978">
        <ele>41.95</ele>
        <time>2015-09-06T06:21:59Z</time>
      </trkpt>
      <trkpt lat="47.79085" lon="-3.40974">
        <ele>41.47</ele>
        <time>2015-09-06T06:22:00Z</time>
      </trkpt>
      <trkpt lat="47.7908" lon="-3.40971">
        <ele>41.47</ele>
        <time>2015-09-06T06:22:01Z</time>
      </trkpt>
      <trkpt lat="47.79074" lon="-3.40969">
        <ele>40.99</ele>
        <time>2015-09-06T06:22:02Z</time>
      </trkpt>
      <trkpt lat="47.79068" lon="-3.40966">
        <ele>40.99</ele>
        <time>2015-09-06T06:22:03Z</time>
      </trkpt>
      <trkpt lat="47.79062" lon="-3.40965">
        <ele>40.03</ele>
        <time>2015-09-06T06:22:04Z</time>
      </trkpt>
      <trkpt lat="47.79056" lon="-3.40966">
        <ele>40.03</ele>
        <time>2015-09-06T06:22:05Z</time>
      </trkpt>
      <trkpt lat="47.7905" lon="-3.40967">
        <ele>40.03</ele>
        <time>2015-09-06T06:22:06Z</time>
      </trkpt>
      <trkpt lat="47.79045" lon="-3.40966">
        <ele>40.03</ele>
        <time>2015-09-06T06:22:07Z</time>
      </trkpt>
      <trkpt lat="47.79039" lon="-3.40964">
        <ele>40.51</ele>
        <time>2015-09-06T06:22:08Z</time>
      </trkpt>
      <trkpt lat="47.79034" lon="-3.40961">
        <ele>40.51</ele>
        <time>2015-09-06T06:22:09Z</time>
      </trkpt>
      <trkpt lat="47.79029" lon="-3.4096">
        <ele>40.51</ele>
        <time>2015-09-06T06:22:10Z</time>
      </trkpt>
      <trkpt lat="47.79024" lon="-3.40958">
        <ele>40.51</ele>
        <time>2015-09-06T06:22:11Z</time>
      </trkpt>
      <trkpt lat="47.79018" lon="-3.40956">
        <ele>40.51</ele>
        <time>2015-09-06T06:22:12Z</time>
      </trkpt>
      <trkpt lat="47.79012" lon="-3.40952">
        <ele>40.51</ele>
        <time>2015-09-06T06:22:13Z</time>
      </trkpt>
      <trkpt lat="47.79009" lon="-3.40951">
        <ele>40.03</ele>
        <time>2015-09-06T06:22:14Z</time>
      </trkpt>
      <trkpt lat="47.79004" lon="-3.40949">
        <ele>40.03</ele>
        <time>2015-09-06T06:22:15Z</time>
      </trkpt>
      <trkpt lat="47.78999" lon="-3.40946">
        <ele>40.03</ele>
        <time>2015-09-06T06:22:16Z</time>
      </trkpt>
      <trkpt lat="47.78986" lon="-3.40942">
        <ele>39.07</ele>
        <time>2015-09-06T06:22:18Z</time>
      </trkpt>
      <trkpt lat="47.78983" lon="-3.40943">
        <ele>38.59</ele>
        <time>2015-09-06T06:22:19Z</time>
      </trkpt>
      <trkpt lat="47.78978" lon="-3.40945">
        <ele>38.59</ele>
        <time>2015-09-06T06:22:20Z</time>
      </trkpt>
      <trkpt lat="47.78972" lon="-3.40948">
        <ele>38.11</ele>
        <time>2015-09-06T06:22:21Z</time>
      </trkpt>
      <trkpt lat="47.78967" lon="-3.4095">
        <ele>38.11</ele>
        <time>2015-09-06T06:22:22Z</time>
      </trkpt>
      <trkpt lat="47.78962" lon="-3.40952">
        <ele>37.63</ele>
        <time>2015-09-06T06:22:23Z</time>
      </trkpt>
      <trkpt lat="47.78956" lon="-3.40951">
        <ele>37.15</ele>
        <time>2015-09-06T06:22:24Z</time>
      </trkpt>
      <trkpt lat="47.78952" lon="-3.4095">
        <ele>36.67</ele>
        <time>2015-09-06T06:22:25Z</time>
      </trkpt>
      <trkpt lat="47.78949" lon="-3.40948">
        <ele>36.67</ele>
        <time>2015-09-06T06:22:26Z</time>
      </trkpt>
      <trkpt lat="47.78946" lon="-3.40943">
        <ele>35.71</ele>
        <time>2015-09-06T06:22:27Z</time>
      </trkpt>
      <trkpt lat="47.78943" lon="-3.40938">
        <ele>35.23</ele>
        <time>2015-09-06T06:22:28Z</time>
      </trkpt>
      <trkpt lat="47.78942" lon="-3.40931">
        <ele>35.23</ele>
        <time>2015-09-06T06:22:29Z</time>
      </trkpt>
      <trkpt lat="47.7894" lon="-3.40924">
        <ele>34.74</ele>
        <time>2015-09-06T06:22:30Z</time>
      </trkpt>
      <trkpt lat="47.7894" lon="-3.40917">
        <ele>34.74</ele>
        <time>2015-09-06T06:22:31Z</time>
      </trkpt>
      <trkpt lat="47.7894" lon="-3.4091">
        <ele>34.74</ele>
        <time>2015-09-06T06:22:32Z</time>
      </trkpt>
      <trkpt lat="47.78939" lon="-3.40907">
        <ele>34.74</ele>
        <time>2015-09-06T06:22:33Z</time>
      </trkpt>
      <trkpt lat="47.78938" lon="-3.40904">
        <ele>35.23</ele>
        <time>2015-09-06T06:22:34Z</time>
      </trkpt>
      <trkpt lat="47.78936" lon="-3.40904">
        <ele>34.26</ele>
        <time>2015-09-06T06:22:35Z</time>
      </trkpt>
      <trkpt lat="47.78934" lon="-3.40905">
        <ele>34.74</ele>
        <time>2015-09-06T06:22:36Z</time>
      </trkpt>
      <trkpt lat="47.78932" lon="-3.40905">
        <ele>34.74</ele>
        <time>2015-09-06T06:22:37Z</time>
      </trkpt>
      <trkpt lat="47.78929" lon="-3.40903">
        <ele>34.74</ele>
        <time>2015-09-06T06:22:38Z</time>
      </trkpt>
      <trkpt lat="47.78928" lon="-3.409">
        <ele>34.26</ele>
        <time>2015-09-06T06:22:39Z</time>
      </trkpt>
      <trkpt lat="47.78928" lon="-3.40897">
        <ele>33.78</ele>
        <time>2015-09-06T06:22:40Z</time>
      </trkpt>
      <trkpt lat="47.78928" lon="-3.40893">
        <ele>33.78</ele>
        <time>2015-09-06T06:22:41Z</time>
      </trkpt>
      <trkpt lat="47.78928" lon="-3.4089">
        <ele>33.78</ele>
        <time>2015-09-06T06:22:42Z</time>
      </trkpt>
      <trkpt lat="47.78928" lon="-3.40887">
        <ele>33.3</ele>
        <time>2015-09-06T06:22:43Z</time>
      </trkpt>
      <trkpt lat="47.78927" lon="-3.40884">
        <ele>33.3</ele>
        <time>2015-09-06T06:22:44Z</time>
      </trkpt>
      <trkpt lat="47.78925" lon="-3.4088">
        <ele>32.82</ele>
        <time>2015-09-06T06:22:45Z</time>
      </trkpt>
      <trkpt lat="47.78923" lon="-3.40876">
        <ele>32.82</ele>
        <time>2015-09-06T06:22:46Z</time>
      </trkpt>
      <trkpt lat="47.7892" lon="-3.40872">
        <ele>31.86</ele>
        <time>2015-09-06T06:22:47Z</time>
      </trkpt>
      <trkpt lat="47.78917" lon="-3.40868">
        <ele>31.38</ele>
        <time>2015-09-06T06:22:48Z</time>
      </trkpt>
      <trkpt lat="47.78913" lon="-3.40866">
        <ele>30.9</ele>
        <time>2015-09-06T06:22:49Z</time>
      </trkpt>
      <trkpt lat="47.78908" lon="-3.40866">
        <ele>30.9</ele>
        <time>2015-09-06T06:22:50Z</time>
      </trkpt>
      <trkpt lat="47.78902" lon="-3.40866">
        <ele>30.42</ele>
        <time>2015-09-06T06:22:51Z</time>
      </trkpt>
      <trkpt lat="47.78894" lon="-3.40864">
        <ele>30.42</ele>
        <time>2015-09-06T06:22:52Z</time>
      </trkpt>
      <trkpt lat="47.78889" lon="-3.40862">
        <ele>30.42</ele>
        <time>2015-09-06T06:22:53Z</time>
      </trkpt>
      <trkpt lat="47.78883" lon="-3.4086">
        <ele>30.42</ele>
        <time>2015-09-06T06:22:54Z</time>
      </trkpt>
      <trkpt lat="47.78877" lon="-3.40857">
        <ele>29.94</ele>
        <time>2015-09-06T06:22:55Z</time>
      </trkpt>
      <trkpt lat="47.78871" lon="-3.40855">
        <ele>29.94</ele>
        <time>2015-09-06T06:22:56Z</time>
      </trkpt>
      <trkpt lat="47.78864" lon="-3.40853">
        <ele>29.94</ele>
        <time>2015-09-06T06:22:57Z</time>
      </trkpt>
      <trkpt lat="47.78856" lon="-3.40852">
        <ele>29.46</ele>
        <time>2015-09-06T06:22:58Z</time>
      </trkpt>
      <trkpt lat="47.78847" lon="-3.40851">
        <ele>28.5</ele>
        <time>2015-09-06T06:22:59Z</time>
      </trkpt>
      <trkpt lat="47.78837" lon="-3.40848">
        <ele>28.02</ele>
        <time>2015-09-06T06:23:00Z</time>
      </trkpt>
      <trkpt lat="47.78829" lon="-3.40841">
        <ele>28.02</ele>
        <time>2015-09-06T06:23:01Z</time>
      </trkpt>
      <trkpt lat="47.78821" lon="-3.40833">
        <ele>28.02</ele>
        <time>2015-09-06T06:23:02Z</time>
      </trkpt>
      <trkpt lat="47.78812" lon="-3.40825">
        <ele>29.46</ele>
        <time>2015-09-06T06:23:03Z</time>
      </trkpt>
      <trkpt lat="47.78805" lon="-3.4082">
        <ele>30.42</ele>
        <time>2015-09-06T06:23:04Z</time>
      </trkpt>
      <trkpt lat="47.78798" lon="-3.40817">
        <ele>30.42</ele>
        <time>2015-09-06T06:23:05Z</time>
      </trkpt>
      <trkpt lat="47.78792" lon="-3.40815">
        <ele>31.38</ele>
        <time>2015-09-06T06:23:06Z</time>
      </trkpt>
      <trkpt lat="47.78787" lon="-3.40813">
        <ele>31.38</ele>
        <time>2015-09-06T06:23:07Z</time>
      </trkpt>
      <trkpt lat="47.78782" lon="-3.4081">
        <ele>32.34</ele>
        <time>2015-09-06T06:23:08Z</time>
      </trkpt>
      <trkpt lat="47.78778" lon="-3.40807">
        <ele>32.34</ele>
        <time>2015-09-06T06:23:09Z</time>
      </trkpt>
      <trkpt lat="47.78774" lon="-3.40805">
        <ele>33.3</ele>
        <time>2015-09-06T06:23:10Z</time>
      </trkpt>
      <trkpt lat="47.78771" lon="-3.40804">
        <ele>33.3</ele>
        <time>2015-09-06T06:23:11Z</time>
      </trkpt>
      <trkpt lat="47.78768" lon="-3.40805">
        <ele>33.78</ele>
        <time>2015-09-06T06:23:12Z</time>
      </trkpt>
      <trkpt lat="47.78765" lon="-3.40807">
        <ele>33.78</ele>
        <time>2015-09-06T06:23:13Z</time>
      </trkpt>
      <trkpt lat="47.78763" lon="-3.40809">
        <ele>34.74</ele>
        <time>2015-09-06T06:23:14Z</time>
      </trkpt>
      <trkpt lat="47.7876" lon="-3.40811">
        <ele>34.74</ele>
        <time>2015-09-06T06:23:15Z</time>
      </trkpt>
      <trkpt lat="47.78758" lon="-3.40812">
        <ele>35.23</ele>
        <time>2015-09-06T06:23:16Z</time>
      </trkpt>
      <trkpt lat="47.78756" lon="-3.40813">
        <ele>35.23</ele>
        <time>2015-09-06T06:23:17Z</time>
      </trkpt>
      <trkpt lat="47.78753" lon="-3.40815">
        <ele>36.19</ele>
        <time>2015-09-06T06:23:18Z</time>
      </trkpt>
      <trkpt lat="47.78751" lon="-3.40816">
        <ele>36.19</ele>
        <time>2015-09-06T06:23:19Z</time>
      </trkpt>
      <trkpt lat="47.78749" lon="-3.40817">
        <ele>36.67</ele>
        <time>2015-09-06T06:23:20Z</time>
      </trkpt>
      <trkpt lat="47.78748" lon="-3.40819">
        <ele>36.67</ele>
        <time>2015-09-06T06:23:21Z</time>
      </trkpt>
      <trkpt lat="47.78746" lon="-3.4082">
        <ele>37.63</ele>
        <time>2015-09-06T06:23:22Z</time>
      </trkpt>
      <trkpt lat="47.78745" lon="-3.40821">
        <ele>37.63</ele>
        <time>2015-09-06T06:23:23Z</time>
      </trkpt>
      <trkpt lat="47.78743" lon="-3.40824">
        <ele>38.11</ele>
        <time>2015-09-06T06:23:24Z</time>
      </trkpt>
      <trkpt lat="47.78741" lon="-3.40826">
        <ele>38.59</ele>
        <time>2015-09-06T06:23:25Z</time>
      </trkpt>
      <trkpt lat="47.7874" lon="-3.40828">
        <ele>39.07</ele>
        <time>2015-09-06T06:23:26Z</time>
      </trkpt>
      <trkpt lat="47.78738" lon="-3.4083">
        <ele>39.55</ele>
        <time>2015-09-06T06:23:27Z</time>
      </trkpt>
      <trkpt lat="47.78737" lon="-3.40832">
        <ele>40.03</ele>
        <time>2015-09-06T06:23:28Z</time>
      </trkpt>
      <trkpt lat="47.78736" lon="-3.40833">
        <ele>40.03</ele>
        <time>2015-09-06T06:23:29Z</time>
      </trkpt>
      <trkpt lat="47.78734" lon="-3.40834">
        <ele>40.51</ele>
        <time>2015-09-06T06:23:30Z</time>
      </trkpt>
      <trkpt lat="47.78732" lon="-3.40835">
        <ele>40.51</ele>
        <time>2015-09-06T06:23:31Z</time>
      </trkpt>
      <trkpt lat="47.7873" lon="-3.40835">
        <ele>40.99</ele>
        <time>2015-09-06T06:23:32Z</time>
      </trkpt>
      <trkpt lat="47.78728" lon="-3.40835">
        <ele>40.99</ele>
        <time>2015-09-06T06:23:33Z</time>
      </trkpt>
      <trkpt lat="47.78726" lon="-3.40836">
        <ele>41.47</ele>
        <time>2015-09-06T06:23:34Z</time>
      </trkpt>
      <trkpt lat="47.78724" lon="-3.40837">
        <ele>41.47</ele>
        <time>2015-09-06T06:23:35Z</time>
      </trkpt>
      <trkpt lat="47.78722" lon="-3.40839">
        <ele>42.44</ele>
        <time>2015-09-06T06:23:36Z</time>
      </trkpt>
      <trkpt lat="47.7872" lon="-3.40841">
        <ele>42.44</ele>
        <time>2015-09-06T06:23:37Z</time>
      </trkpt>
      <trkpt lat="47.78717" lon="-3.40842">
        <ele>42.92</ele>
        <time>2015-09-06T06:23:38Z</time>
      </trkpt>
      <trkpt lat="47.78715" lon="-3.40842">
        <ele>42.92</ele>
        <time>2015-09-06T06:23:39Z</time>
      </trkpt>
      <trkpt lat="47.78713" lon="-3.40841">
        <ele>43.4</ele>
        <time>2015-09-06T06:23:40Z</time>
      </trkpt>
      <trkpt lat="47.7871" lon="-3.40841">
        <ele>43.4</ele>
        <time>2015-09-06T06:23:41Z</time>
      </trkpt>
      <trkpt lat="47.78707" lon="-3.4084">
        <ele>43.4</ele>
        <time>2015-09-06T06:23:42Z</time>
      </trkpt>
      <trkpt lat="47.78705" lon="-3.40838">
        <ele>43.4</ele>
        <time>2015-09-06T06:23:43Z</time>
      </trkpt>
      <trkpt lat="47.78702" lon="-3.40835">
        <ele>43.4</ele>
        <time>2015-09-06T06:23:44Z</time>
      </trkpt>
      <trkpt lat="47.787" lon="-3.40832">
        <ele>43.4</ele>
        <time>2015-09-06T06:23:45Z</time>
      </trkpt>
      <trkpt lat="47.78697" lon="-3.40829">
        <ele>43.4</ele>
        <time>2015-09-06T06:23:46Z</time>
      </trkpt>
      <trkpt lat="47.78694" lon="-3.40827">
        <ele>43.4</ele>
        <time>2015-09-06T06:23:47Z</time>
      </trkpt>
      <trkpt lat="47.78691" lon="-3.40825">
        <ele>43.4</ele>
        <time>2015-09-06T06:23:48Z</time>
      </trkpt>
      <trkpt lat="47.78688" lon="-3.40822">
        <ele>43.4</ele>
        <time>2015-09-06T06:23:49Z</time>
      </trkpt>
      <trkpt lat="47.78685" lon="-3.4082">
        <ele>43.4</ele>
        <time>2015-09-06T06:23:50Z</time>
      </trkpt>
      <trkpt lat="47.78681" lon="-3.40819">
        <ele>43.4</ele>
        <time>2015-09-06T06:23:51Z</time>
      </trkpt>
      <trkpt lat="47.78678" lon="-3.40818">
        <ele>42.92</ele>
        <time>2015-09-06T06:23:52Z</time>
      </trkpt>
      <trkpt lat="47.78674" lon="-3.40818">
        <ele>42.92</ele>
        <time>2015-09-06T06:23:53Z</time>
      </trkpt>
      <trkpt lat="47.78669" lon="-3.40817">
        <ele>42.92</ele>
        <time>2015-09-06T06:23:54Z</time>
      </trkpt>
      <trkpt lat="47.78666" lon="-3.40815">
        <ele>42.92</ele>
        <time>2015-09-06T06:23:55Z</time>
      </trkpt>
      <trkpt lat="47.78662" lon="-3.40814">
        <ele>42.92</ele>
        <time>2015-09-06T06:23:56Z</time>
      </trkpt>
      <trkpt lat="47.7866" lon="-3.40814">
        <ele>42.92</ele>
        <time>2015-09-06T06:23:57Z</time>
      </trkpt>
      <trkpt lat="47.78656" lon="-3.40812">
        <ele>42.92</ele>
        <time>2015-09-06T06:23:58Z</time>
      </trkpt>
      <trkpt lat="47.78653" lon="-3.40809">
        <ele>42.92</ele>
        <time>2015-09-06T06:23:59Z</time>
      </trkpt>
      <trkpt lat="47.7865" lon="-3.40806">
        <ele>42.92</ele>
        <time>2015-09-06T06:24:00Z</time>
      </trkpt>
      <trkpt lat="47.78647" lon="-3.40802">
        <ele>42.92</ele>
        <time>2015-09-06T06:24:01Z</time>
      </trkpt>
      <trkpt lat="47.78644" lon="-3.40797">
        <ele>42.92</ele>
        <time>2015-09-06T06:24:02Z</time>
      </trkpt>
      <trkpt lat="47.78643" lon="-3.40793">
        <ele>41.47</ele>
        <time>2015-09-06T06:24:03Z</time>
      </trkpt>
      <trkpt lat="47.78644" lon="-3.40789">
        <ele>41.47</ele>
        <time>2015-09-06T06:24:04Z</time>
      </trkpt>
      <trkpt lat="47.78646" lon="-3.40785">
        <ele>40.99</ele>
        <time>2015-09-06T06:24:05Z</time>
      </trkpt>
      <trkpt lat="47.78648" lon="-3.40782">
        <ele>40.99</ele>
        <time>2015-09-06T06:24:06Z</time>
      </trkpt>
      <trkpt lat="47.7865" lon="-3.40779">
        <ele>40.51</ele>
        <time>2015-09-06T06:24:07Z</time>
      </trkpt>
      <trkpt lat="47.78652" lon="-3.40775">
        <ele>39.55</ele>
        <time>2015-09-06T06:24:08Z</time>
      </trkpt>
      <trkpt lat="47.78652" lon="-3.40771">
        <ele>39.07</ele>
        <time>2015-09-06T06:24:09Z</time>
      </trkpt>
      <trkpt lat="47.78652" lon="-3.40766">
        <ele>38.59</ele>
        <time>2015-09-06T06:24:10Z</time>
      </trkpt>
      <trkpt lat="47.78652" lon="-3.40762">
        <ele>38.59</ele>
        <time>2015-09-06T06:24:11Z</time>
      </trkpt>
      <trkpt lat="47.78651" lon="-3.40754">
        <ele>37.63</ele>
        <time>2015-09-06T06:24:12Z</time>
      </trkpt>
      <trkpt lat="47.7865" lon="-3.40748">
        <ele>36.67</ele>
        <time>2015-09-06T06:24:13Z</time>
      </trkpt>
      <trkpt lat="47.78648" lon="-3.40742">
        <ele>35.71</ele>
        <time>2015-09-06T06:24:14Z</time>
      </trkpt>
      <trkpt lat="47.78645" lon="-3.40737">
        <ele>35.71</ele>
        <time>2015-09-06T06:24:15Z</time>
      </trkpt>
      <trkpt lat="47.78641" lon="-3.40732">
        <ele>35.71</ele>
        <time>2015-09-06T06:24:16Z</time>
      </trkpt>
      <trkpt lat="47.78637" lon="-3.40727">
        <ele>35.71</ele>
        <time>2015-09-06T06:24:17Z</time>
      </trkpt>
      <trkpt lat="47.78631" lon="-3.40721">
        <ele>35.23</ele>
        <time>2015-09-06T06:24:18Z</time>
      </trkpt>
      <trkpt lat="47.78626" lon="-3.40715">
        <ele>34.74</ele>
        <time>2015-09-06T06:24:19Z</time>
      </trkpt>
      <trkpt lat="47.7862" lon="-3.40709">
        <ele>34.74</ele>
        <time>2015-09-06T06:24:20Z</time>
      </trkpt>
      <trkpt lat="47.78613" lon="-3.40702">
        <ele>34.26</ele>
        <time>2015-09-06T06:24:21Z</time>
      </trkpt>
      <trkpt lat="47.78606" lon="-3.40694">
        <ele>34.26</ele>
        <time>2015-09-06T06:24:22Z</time>
      </trkpt>
      <trkpt lat="47.78599" lon="-3.40687">
        <ele>32.82</ele>
        <time>2015-09-06T06:24:23Z</time>
      </trkpt>
      <trkpt lat="47.78591" lon="-3.40678">
        <ele>32.34</ele>
        <time>2015-09-06T06:24:24Z</time>
      </trkpt>
      <trkpt lat="47.78583" lon="-3.4067">
        <ele>31.86</ele>
        <time>2015-09-06T06:24:25Z</time>
      </trkpt>
      <trkpt lat="47.78576" lon="-3.40662">
        <ele>30.9</ele>
        <time>2015-09-06T06:24:26Z</time>
      </trkpt>
      <trkpt lat="47.78569" lon="-3.40654">
        <ele>30.42</ele>
        <time>2015-09-06T06:24:27Z</time>
      </trkpt>
      <trkpt lat="47.78563" lon="-3.40646">
        <ele>29.94</ele>
        <time>2015-09-06T06:24:28Z</time>
      </trkpt>
      <trkpt lat="47.78558" lon="-3.40637">
        <ele>29.46</ele>
        <time>2015-09-06T06:24:29Z</time>
      </trkpt>
      <trkpt lat="47.78554" lon="-3.40627">
        <ele>29.46</ele>
        <time>2015-09-06T06:24:30Z</time>
      </trkpt>
      <trkpt lat="47.78551" lon="-3.40617">
        <ele>29.46</ele>
        <time>2015-09-06T06:24:31Z</time>
      </trkpt>
      <trkpt lat="47.7855" lon="-3.40609">
        <ele>29.46</ele>
        <time>2015-09-06T06:24:32Z</time>
      </trkpt>
      <trkpt lat="47.78548" lon="-3.40599">
        <ele>29.46</ele>
        <time>2015-09-06T06:24:33Z</time>
      </trkpt>
      <trkpt lat="47.78547" lon="-3.40591">
        <ele>29.46</ele>
        <time>2015-09-06T06:24:34Z</time>
      </trkpt>
      <trkpt lat="47.78545" lon="-3.40584">
        <ele>30.9</ele>
        <time>2015-09-06T06:24:35Z</time>
      </trkpt>
      <trkpt lat="47.78543" lon="-3.40577">
        <ele>30.42</ele>
        <time>2015-09-06T06:24:36Z</time>
      </trkpt>
      <trkpt lat="47.78539" lon="-3.4057">
        <ele>30.42</ele>
        <time>2015-09-06T06:24:37Z</time>
      </trkpt>
      <trkpt lat="47.78536" lon="-3.40565">
        <ele>30.42</ele>
        <time>2015-09-06T06:24:38Z</time>
      </trkpt>
      <trkpt lat="47.78533" lon="-3.4056">
        <ele>30.42</ele>
        <time>2015-09-06T06:24:39Z</time>
      </trkpt>
      <trkpt lat="47.78531" lon="-3.40554">
        <ele>30.9</ele>
        <time>2015-09-06T06:24:40Z</time>
      </trkpt>
      <trkpt lat="47.7853" lon="-3.40548">
        <ele>31.38</ele>
        <time>2015-09-06T06:24:41Z</time>
      </trkpt>
      <trkpt lat="47.7853" lon="-3.40542">
        <ele>31.38</ele>
        <time>2015-09-06T06:24:42Z</time>
      </trkpt>
      <trkpt lat="47.78532" lon="-3.40535">
        <ele>31.38</ele>
        <time>2015-09-06T06:24:43Z</time>
      </trkpt>
      <trkpt lat="47.78533" lon="-3.40529">
        <ele>31.38</ele>
        <time>2015-09-06T06:24:44Z</time>
      </trkpt>
      <trkpt lat="47.78534" lon="-3.4052">
        <ele>29.94</ele>
        <time>2015-09-06T06:24:45Z</time>
      </trkpt>
      <trkpt lat="47.78536" lon="-3.40513">
        <ele>29.94</ele>
        <time>2015-09-06T06:24:46Z</time>
      </trkpt>
      <trkpt lat="47.78537" lon="-3.40505">
        <ele>29.94</ele>
        <time>2015-09-06T06:24:47Z</time>
      </trkpt>
      <trkpt lat="47.7854" lon="-3.405">
        <ele>29.46</ele>
        <time>2015-09-06T06:24:48Z</time>
      </trkpt>
      <trkpt lat="47.78544" lon="-3.40498">
        <ele>29.46</ele>
        <time>2015-09-06T06:24:49Z</time>
      </trkpt>
      <trkpt lat="47.78549" lon="-3.40498">
        <ele>29.46</ele>
        <time>2015-09-06T06:24:50Z</time>
      </trkpt>
      <trkpt lat="47.78554" lon="-3.40499">
        <ele>29.46</ele>
        <time>2015-09-06T06:24:51Z</time>
      </trkpt>
      <trkpt lat="47.78559" lon="-3.405">
        <ele>28.98</ele>
        <time>2015-09-06T06:24:52Z</time>
      </trkpt>
      <trkpt lat="47.78564" lon="-3.405">
        <ele>28.98</ele>
        <time>2015-09-06T06:24:53Z</time>
      </trkpt>
      <trkpt lat="47.78571" lon="-3.405">
        <ele>28.98</ele>
        <time>2015-09-06T06:24:54Z</time>
      </trkpt>
      <trkpt lat="47.78576" lon="-3.40499">
        <ele>28.98</ele>
        <time>2015-09-06T06:24:55Z</time>
      </trkpt>
      <trkpt lat="47.78582" lon="-3.40498">
        <ele>28.98</ele>
        <time>2015-09-06T06:24:56Z</time>
      </trkpt>
      <trkpt lat="47.78588" lon="-3.40499">
        <ele>28.98</ele>
        <time>2015-09-06T06:24:57Z</time>
      </trkpt>
      <trkpt lat="47.78594" lon="-3.40501">
        <ele>28.5</ele>
        <time>2015-09-06T06:24:58Z</time>
      </trkpt>
      <trkpt lat="47.78599" lon="-3.40502">
        <ele>28.5</ele>
        <time>2015-09-06T06:24:59Z</time>
      </trkpt>
      <trkpt lat="47.78605" lon="-3.40504">
        <ele>28.5</ele>
        <time>2015-09-06T06:25:00Z</time>
      </trkpt>
      <trkpt lat="47.78611" lon="-3.40505">
        <ele>28.5</ele>
        <time>2015-09-06T06:25:01Z</time>
      </trkpt>
      <trkpt lat="47.78618" lon="-3.40506">
        <ele>28.5</ele>
        <time>2015-09-06T06:25:02Z</time>
      </trkpt>
      <trkpt lat="47.78624" lon="-3.40508">
        <ele>28.02</ele>
        <time>2015-09-06T06:25:03Z</time>
      </trkpt>
      <trkpt lat="47.78631" lon="-3.4051">
        <ele>28.02</ele>
        <time>2015-09-06T06:25:04Z</time>
      </trkpt>
      <trkpt lat="47.78637" lon="-3.40512">
        <ele>28.02</ele>
        <time>2015-09-06T06:25:05Z</time>
      </trkpt>
      <trkpt lat="47.78643" lon="-3.40513">
        <ele>27.53</ele>
        <time>2015-09-06T06:25:06Z</time>
      </trkpt>
      <trkpt lat="47.78648" lon="-3.40513">
        <ele>27.53</ele>
        <time>2015-09-06T06:25:07Z</time>
      </trkpt>
      <trkpt lat="47.78653" lon="-3.40509">
        <ele>26.57</ele>
        <time>2015-09-06T06:25:08Z</time>
      </trkpt>
      <trkpt lat="47.78658" lon="-3.40503">
        <ele>26.09</ele>
        <time>2015-09-06T06:25:09Z</time>
      </trkpt>
      <trkpt lat="47.78661" lon="-3.40496">
        <ele>26.09</ele>
        <time>2015-09-06T06:25:10Z</time>
      </trkpt>
      <trkpt lat="47.78665" lon="-3.40488">
        <ele>25.61</ele>
        <time>2015-09-06T06:25:11Z</time>
      </trkpt>
      <trkpt lat="47.78667" lon="-3.4048">
        <ele>25.61</ele>
        <time>2015-09-06T06:25:12Z</time>
      </trkpt>
      <trkpt lat="47.78669" lon="-3.40472">
        <ele>25.61</ele>
        <time>2015-09-06T06:25:13Z</time>
      </trkpt>
      <trkpt lat="47.78671" lon="-3.40467">
        <ele>25.61</ele>
        <time>2015-09-06T06:25:14Z</time>
      </trkpt>
      <trkpt lat="47.78674" lon="-3.40463">
        <ele>25.13</ele>
        <time>2015-09-06T06:25:15Z</time>
      </trkpt>
      <trkpt lat="47.78677" lon="-3.4046">
        <ele>25.61</ele>
        <time>2015-09-06T06:25:16Z</time>
      </trkpt>
      <trkpt lat="47.7868" lon="-3.40455">
        <ele>25.13</ele>
        <time>2015-09-06T06:25:17Z</time>
      </trkpt>
      <trkpt lat="47.78682" lon="-3.40451">
        <ele>25.13</ele>
        <time>2015-09-06T06:25:18Z</time>
      </trkpt>
      <trkpt lat="47.78683" lon="-3.40446">
        <ele>25.13</ele>
        <time>2015-09-06T06:25:19Z</time>
      </trkpt>
      <trkpt lat="47.78684" lon="-3.40441">
        <ele>25.13</ele>
        <time>2015-09-06T06:25:20Z</time>
      </trkpt>
      <trkpt lat="47.78683" lon="-3.40435">
        <ele>25.61</ele>
        <time>2015-09-06T06:25:21Z</time>
      </trkpt>
      <trkpt lat="47.78682" lon="-3.40428">
        <ele>25.61</ele>
        <time>2015-09-06T06:25:22Z</time>
      </trkpt>
      <trkpt lat="47.78681" lon="-3.4042">
        <ele>25.61</ele>
        <time>2015-09-06T06:25:23Z</time>
      </trkpt>
      <trkpt lat="47.78681" lon="-3.40413">
        <ele>25.61</ele>
        <time>2015-09-06T06:25:24Z</time>
      </trkpt>
      <trkpt lat="47.7868" lon="-3.40405">
        <ele>25.61</ele>
        <time>2015-09-06T06:25:25Z</time>
      </trkpt>
      <trkpt lat="47.78678" lon="-3.40396">
        <ele>25.61</ele>
        <time>2015-09-06T06:25:26Z</time>
      </trkpt>
      <trkpt lat="47.78676" lon="-3.4039">
        <ele>25.61</ele>
        <time>2015-09-06T06:25:27Z</time>
      </trkpt>
      <trkpt lat="47.78675" lon="-3.40381">
        <ele>25.61</ele>
        <time>2015-09-06T06:25:28Z</time>
      </trkpt>
      <trkpt lat="47.78675" lon="-3.40373">
        <ele>25.61</ele>
        <time>2015-09-06T06:25:29Z</time>
      </trkpt>
      <trkpt lat="47.78674" lon="-3.40364">
        <ele>25.61</ele>
        <time>2015-09-06T06:25:30Z</time>
      </trkpt>
      <trkpt lat="47.78674" lon="-3.40356">
        <ele>25.61</ele>
        <time>2015-09-06T06:25:31Z</time>
      </trkpt>
      <trkpt lat="47.78673" lon="-3.40348">
        <ele>25.61</ele>
        <time>2015-09-06T06:25:32Z</time>
      </trkpt>
      <trkpt lat="47.78672" lon="-3.40339">
        <ele>25.61</ele>
        <time>2015-09-06T06:25:33Z</time>
      </trkpt>
      <trkpt lat="47.78671" lon="-3.4033">
        <ele>25.61</ele>
        <time>2015-09-06T06:25:34Z</time>
      </trkpt>
      <trkpt lat="47.7867" lon="-3.4032">
        <ele>25.61</ele>
        <time>2015-09-06T06:25:35Z</time>
      </trkpt>
      <trkpt lat="47.78669" lon="-3.40311">
        <ele>25.61</ele>
        <time>2015-09-06T06:25:36Z</time>
      </trkpt>
      <trkpt lat="47.78667" lon="-3.403">
        <ele>25.13</ele>
        <time>2015-09-06T06:25:37Z</time>
      </trkpt>
      <trkpt lat="47.78665" lon="-3.4029">
        <ele>24.65</ele>
        <time>2015-09-06T06:25:38Z</time>
      </trkpt>
      <trkpt lat="47.78663" lon="-3.4028">
        <ele>24.65</ele>
        <time>2015-09-06T06:25:39Z</time>
      </trkpt>
      <trkpt lat="47.78662" lon="-3.4027">
        <ele>24.65</ele>
        <time>2015-09-06T06:25:40Z</time>
      </trkpt>
      <trkpt lat="47.7866" lon="-3.4026">
        <ele>24.65</ele>
        <time>2015-09-06T06:25:41Z</time>
      </trkpt>
      <trkpt lat="47.78659" lon="-3.40252">
        <ele>24.65</ele>
        <time>2015-09-06T06:25:42Z</time>
      </trkpt>
      <trkpt lat="47.78657" lon="-3.40243">
        <ele>24.65</ele>
        <time>2015-09-06T06:25:43Z</time>
      </trkpt>
      <trkpt lat="47.78656" lon="-3.40235">
        <ele>24.65</ele>
        <time>2015-09-06T06:25:44Z</time>
      </trkpt>
      <trkpt lat="47.78654" lon="-3.40226">
        <ele>24.65</ele>
        <time>2015-09-06T06:25:45Z</time>
      </trkpt>
      <trkpt lat="47.78654" lon="-3.40218">
        <ele>24.65</ele>
        <time>2015-09-06T06:25:46Z</time>
      </trkpt>
      <trkpt lat="47.78653" lon="-3.40211">
        <ele>26.09</ele>
        <time>2015-09-06T06:25:47Z</time>
      </trkpt>
      <trkpt lat="47.78652" lon="-3.40203">
        <ele>26.09</ele>
        <time>2015-09-06T06:25:48Z</time>
      </trkpt>
      <trkpt lat="47.78651" lon="-3.40194">
        <ele>26.09</ele>
        <time>2015-09-06T06:25:49Z</time>
      </trkpt>
      <trkpt lat="47.7865" lon="-3.40186">
        <ele>26.09</ele>
        <time>2015-09-06T06:25:50Z</time>
      </trkpt>
      <trkpt lat="47.78649" lon="-3.40177">
        <ele>26.09</ele>
        <time>2015-09-06T06:25:51Z</time>
      </trkpt>
      <trkpt lat="47.78646" lon="-3.40169">
        <ele>26.09</ele>
        <time>2015-09-06T06:25:52Z</time>
      </trkpt>
      <trkpt lat="47.78644" lon="-3.4016">
        <ele>26.09</ele>
        <time>2015-09-06T06:25:53Z</time>
      </trkpt>
      <trkpt lat="47.78641" lon="-3.40151">
        <ele>26.09</ele>
        <time>2015-09-06T06:25:54Z</time>
      </trkpt>
      <trkpt lat="47.78637" lon="-3.40142">
        <ele>25.13</ele>
        <time>2015-09-06T06:25:55Z</time>
      </trkpt>
      <trkpt lat="47.78634" lon="-3.40134">
        <ele>25.13</ele>
        <time>2015-09-06T06:25:56Z</time>
      </trkpt>
      <trkpt lat="47.78631" lon="-3.40126">
        <ele>25.13</ele>
        <time>2015-09-06T06:25:57Z</time>
      </trkpt>
      <trkpt lat="47.78629" lon="-3.40118">
        <ele>24.65</ele>
        <time>2015-09-06T06:25:58Z</time>
      </trkpt>
      <trkpt lat="47.78628" lon="-3.4011">
        <ele>24.65</ele>
        <time>2015-09-06T06:25:59Z</time>
      </trkpt>
      <trkpt lat="47.78629" lon="-3.40102">
        <ele>24.65</ele>
        <time>2015-09-06T06:26:00Z</time>
      </trkpt>
      <trkpt lat="47.7863" lon="-3.40095">
        <ele>25.61</ele>
        <time>2015-09-06T06:26:01Z</time>
      </trkpt>
      <trkpt lat="47.78631" lon="-3.40091">
        <ele>26.57</ele>
        <time>2015-09-06T06:26:02Z</time>
      </trkpt>
      <trkpt lat="47.78632" lon="-3.40087">
        <ele>27.05</ele>
        <time>2015-09-06T06:26:03Z</time>
      </trkpt>
      <trkpt lat="47.78634" lon="-3.40084">
        <ele>28.02</ele>
        <time>2015-09-06T06:26:04Z</time>
      </trkpt>
      <trkpt lat="47.78636" lon="-3.40082">
        <ele>28.5</ele>
        <time>2015-09-06T06:26:05Z</time>
      </trkpt>
      <trkpt lat="47.78637" lon="-3.40082">
        <ele>28.5</ele>
        <time>2015-09-06T06:26:06Z</time>
      </trkpt>
      <trkpt lat="47.78638" lon="-3.40083">
        <ele>28.5</ele>
        <time>2015-09-06T06:26:07Z</time>
      </trkpt>
      <trkpt lat="47.7864" lon="-3.40084">
        <ele>28.5</ele>
        <time>2015-09-06T06:26:08Z</time>
      </trkpt>
      <trkpt lat="47.78642" lon="-3.40084">
        <ele>28.98</ele>
        <time>2015-09-06T06:26:09Z</time>
      </trkpt>
      <trkpt lat="47.78644" lon="-3.40085">
        <ele>28.98</ele>
        <time>2015-09-06T06:26:10Z</time>
      </trkpt>
      <trkpt lat="47.78646" lon="-3.40085">
        <ele>28.98</ele>
        <time>2015-09-06T06:26:11Z</time>
      </trkpt>
      <trkpt lat="47.78648" lon="-3.40085">
        <ele>29.94</ele>
        <time>2015-09-06T06:26:12Z</time>
      </trkpt>
      <trkpt lat="47.7865" lon="-3.40084">
        <ele>30.42</ele>
        <time>2015-09-06T06:26:13Z</time>
      </trkpt>
      <trkpt lat="47.78652" lon="-3.40084">
        <ele>30.9</ele>
        <time>2015-09-06T06:26:14Z</time>
      </trkpt>
      <trkpt lat="47.78654" lon="-3.40084">
        <ele>30.9</ele>
        <time>2015-09-06T06:26:15Z</time>
      </trkpt>
      <trkpt lat="47.78656" lon="-3.40084">
        <ele>31.86</ele>
        <time>2015-09-06T06:26:16Z</time>
      </trkpt>
      <trkpt lat="47.78658" lon="-3.40085">
        <ele>31.86</ele>
        <time>2015-09-06T06:26:17Z</time>
      </trkpt>
      <trkpt lat="47.78659" lon="-3.40087">
        <ele>31.86</ele>
        <time>2015-09-06T06:26:18Z</time>
      </trkpt>
      <trkpt lat="47.78661" lon="-3.40088">
        <ele>31.38</ele>
        <time>2015-09-06T06:26:19Z</time>
      </trkpt>
      <trkpt lat="47.78663" lon="-3.40088">
        <ele>32.34</ele>
        <time>2015-09-06T06:26:20Z</time>
      </trkpt>
      <trkpt lat="47.78665" lon="-3.40087">
        <ele>32.82</ele>
        <time>2015-09-06T06:26:21Z</time>
      </trkpt>
      <trkpt lat="47.78668" lon="-3.40085">
        <ele>33.3</ele>
        <time>2015-09-06T06:26:22Z</time>
      </trkpt>
      <trkpt lat="47.78671" lon="-3.40084">
        <ele>33.3</ele>
        <time>2015-09-06T06:26:23Z</time>
      </trkpt>
      <trkpt lat="47.78673" lon="-3.40085">
        <ele>33.78</ele>
        <time>2015-09-06T06:26:24Z</time>
      </trkpt>
      <trkpt lat="47.78675" lon="-3.40085">
        <ele>33.78</ele>
        <time>2015-09-06T06:26:25Z</time>
      </trkpt>
      <trkpt lat="47.78678" lon="-3.40084">
        <ele>34.26</ele>
        <time>2015-09-06T06:26:26Z</time>
      </trkpt>
      <trkpt lat="47.78679" lon="-3.40081">
        <ele>34.74</ele>
        <time>2015-09-06T06:26:27Z</time>
      </trkpt>
      <trkpt lat="47.78681" lon="-3.40079">
        <ele>35.23</ele>
        <time>2015-09-06T06:26:28Z</time>
      </trkpt>
      <trkpt lat="47.78682" lon="-3.40076">
        <ele>35.23</ele>
        <time>2015-09-06T06:26:29Z</time>
      </trkpt>
      <trkpt lat="47.78682" lon="-3.40072">
        <ele>35.71</ele>
        <time>2015-09-06T06:26:30Z</time>
      </trkpt>
      <trkpt lat="47.78683" lon="-3.40069">
        <ele>35.71</ele>
        <time>2015-09-06T06:26:31Z</time>
      </trkpt>
      <trkpt lat="47.78684" lon="-3.40065">
        <ele>36.19</ele>
        <time>2015-09-06T06:26:32Z</time>
      </trkpt>
      <trkpt lat="47.78685" lon="-3.40061">
        <ele>36.19</ele>
        <time>2015-09-06T06:26:33Z</time>
      </trkpt>
      <trkpt lat="47.78685" lon="-3.40058">
        <ele>36.67</ele>
        <time>2015-09-06T06:26:34Z</time>
      </trkpt>
      <trkpt lat="47.78686" lon="-3.40055">
        <ele>36.67</ele>
        <time>2015-09-06T06:26:35Z</time>
      </trkpt>
      <trkpt lat="47.78686" lon="-3.40051">
        <ele>37.15</ele>
        <time>2015-09-06T06:26:36Z</time>
      </trkpt>
      <trkpt lat="47.78687" lon="-3.40048">
        <ele>37.15</ele>
        <time>2015-09-06T06:26:37Z</time>
      </trkpt>
      <trkpt lat="47.78688" lon="-3.40045">
        <ele>37.15</ele>
        <time>2015-09-06T06:26:38Z</time>
      </trkpt>
      <trkpt lat="47.78689" lon="-3.40041">
        <ele>37.63</ele>
        <time>2015-09-06T06:26:39Z</time>
      </trkpt>
      <trkpt lat="47.7869" lon="-3.40037">
        <ele>37.63</ele>
        <time>2015-09-06T06:26:40Z</time>
      </trkpt>
      <trkpt lat="47.78691" lon="-3.40034">
        <ele>37.63</ele>
        <time>2015-09-06T06:26:41Z</time>
      </trkpt>
      <trkpt lat="47.78692" lon="-3.40029">
        <ele>38.11</ele>
        <time>2015-09-06T06:26:42Z</time>
      </trkpt>
      <trkpt lat="47.78692" lon="-3.40025">
        <ele>38.11</ele>
        <time>2015-09-06T06:26:43Z</time>
      </trkpt>
      <trkpt lat="47.78692" lon="-3.40022">
        <ele>37.63</ele>
        <time>2015-09-06T06:26:44Z</time>
      </trkpt>
      <trkpt lat="47.78691" lon="-3.40019">
        <ele>38.11</ele>
        <time>2015-09-06T06:26:45Z</time>
      </trkpt>
      <trkpt lat="47.78688" lon="-3.40019">
        <ele>37.63</ele>
        <time>2015-09-06T06:26:46Z</time>
      </trkpt>
      <trkpt lat="47.78685" lon="-3.4002">
        <ele>37.63</ele>
        <time>2015-09-06T06:26:47Z</time>
      </trkpt>
      <trkpt lat="47.78681" lon="-3.40022">
        <ele>37.63</ele>
        <time>2015-09-06T06:26:48Z</time>
      </trkpt>
      <trkpt lat="47.78677" lon="-3.40024">
        <ele>37.63</ele>
        <time>2015-09-06T06:26:49Z</time>
      </trkpt>
      <trkpt lat="47.78672" lon="-3.40026">
        <ele>36.67</ele>
        <time>2015-09-06T06:26:50Z</time>
      </trkpt>
      <trkpt lat="47.78667" lon="-3.40028">
        <ele>35.71</ele>
        <time>2015-09-06T06:26:51Z</time>
      </trkpt>
      <trkpt lat="47.78662" lon="-3.4003">
        <ele>35.23</ele>
        <time>2015-09-06T06:26:52Z</time>
      </trkpt>
      <trkpt lat="47.78656" lon="-3.40033">
        <ele>34.26</ele>
        <time>2015-09-06T06:26:53Z</time>
      </trkpt>
      <trkpt lat="47.7865" lon="-3.40034">
        <ele>33.78</ele>
        <time>2015-09-06T06:26:54Z</time>
      </trkpt>
      <trkpt lat="47.78645" lon="-3.40036">
        <ele>32.82</ele>
        <time>2015-09-06T06:26:55Z</time>
      </trkpt>
      <trkpt lat="47.7864" lon="-3.40038">
        <ele>32.82</ele>
        <time>2015-09-06T06:26:56Z</time>
      </trkpt>
      <trkpt lat="47.78635" lon="-3.4004">
        <ele>31.38</ele>
        <time>2015-09-06T06:26:57Z</time>
      </trkpt>
      <trkpt lat="47.78631" lon="-3.40041">
        <ele>30.9</ele>
        <time>2015-09-06T06:26:58Z</time>
      </trkpt>
      <trkpt lat="47.78627" lon="-3.40043">
        <ele>29.94</ele>
        <time>2015-09-06T06:26:59Z</time>
      </trkpt>
      <trkpt lat="47.78623" lon="-3.40044">
        <ele>29.46</ele>
        <time>2015-09-06T06:27:00Z</time>
      </trkpt>
      <trkpt lat="47.78619" lon="-3.40046">
        <ele>28.02</ele>
        <time>2015-09-06T06:27:01Z</time>
      </trkpt>
      <trkpt lat="47.78616" lon="-3.40047">
        <ele>27.05</ele>
        <time>2015-09-06T06:27:02Z</time>
      </trkpt>
      <trkpt lat="47.78612" lon="-3.40048">
        <ele>25.61</ele>
        <time>2015-09-06T06:27:03Z</time>
      </trkpt>
      <trkpt lat="47.78607" lon="-3.4005">
        <ele>23.69</ele>
        <time>2015-09-06T06:27:04Z</time>
      </trkpt>
      <trkpt lat="47.78601" lon="-3.40053">
        <ele>23.21</ele>
        <time>2015-09-06T06:27:05Z</time>
      </trkpt>
      <trkpt lat="47.78596" lon="-3.40056">
        <ele>21.77</ele>
        <time>2015-09-06T06:27:06Z</time>
      </trkpt>
      <trkpt lat="47.78591" lon="-3.40058">
        <ele>21.77</ele>
        <time>2015-09-06T06:27:07Z</time>
      </trkpt>
      <trkpt lat="47.78588" lon="-3.40058">
        <ele>21.77</ele>
        <time>2015-09-06T06:27:08Z</time>
      </trkpt>
      <trkpt lat="47.78586" lon="-3.40057">
        <ele>21.77</ele>
        <time>2015-09-06T06:27:09Z</time>
      </trkpt>
      <trkpt lat="47.78584" lon="-3.40056">
        <ele>21.77</ele>
        <time>2015-09-06T06:27:10Z</time>
      </trkpt>
      <trkpt lat="47.78582" lon="-3.40055">
        <ele>21.77</ele>
        <time>2015-09-06T06:27:11Z</time>
      </trkpt>
      <trkpt lat="47.7858" lon="-3.40055">
        <ele>23.69</ele>
        <time>2015-09-06T06:27:12Z</time>
      </trkpt>
      <trkpt lat="47.78578" lon="-3.40056">
        <ele>23.21</ele>
        <time>2015-09-06T06:27:13Z</time>
      </trkpt>
      <trkpt lat="47.78576" lon="-3.40056">
        <ele>23.21</ele>
        <time>2015-09-06T06:27:14Z</time>
      </trkpt>
      <trkpt lat="47.78574" lon="-3.40054">
        <ele>24.65</ele>
        <time>2015-09-06T06:27:15Z</time>
      </trkpt>
      <trkpt lat="47.78573" lon="-3.40053">
        <ele>25.13</ele>
        <time>2015-09-06T06:27:16Z</time>
      </trkpt>
      <trkpt lat="47.78571" lon="-3.40052">
        <ele>26.09</ele>
        <time>2015-09-06T06:27:17Z</time>
      </trkpt>
      <trkpt lat="47.7857" lon="-3.40052">
        <ele>26.57</ele>
        <time>2015-09-06T06:27:18Z</time>
      </trkpt>
      <trkpt lat="47.78568" lon="-3.40051">
        <ele>27.05</ele>
        <time>2015-09-06T06:27:19Z</time>
      </trkpt>
      <trkpt lat="47.78568" lon="-3.40049">
        <ele>27.05</ele>
        <time>2015-09-06T06:27:20Z</time>
      </trkpt>
      <trkpt lat="47.78568" lon="-3.40046">
        <ele>27.05</ele>
        <time>2015-09-06T06:27:21Z</time>
      </trkpt>
      <trkpt lat="47.78569" lon="-3.40042">
        <ele>27.05</ele>
        <time>2015-09-06T06:27:22Z</time>
      </trkpt>
      <trkpt lat="47.78568" lon="-3.40039">
        <ele>27.05</ele>
        <time>2015-09-06T06:27:23Z</time>
      </trkpt>
      <trkpt lat="47.78568" lon="-3.40035">
        <ele>27.05</ele>
        <time>2015-09-06T06:27:24Z</time>
      </trkpt>
      <trkpt lat="47.78569" lon="-3.4003">
        <ele>27.05</ele>
        <time>2015-09-06T06:27:25Z</time>
      </trkpt>
      <trkpt lat="47.78568" lon="-3.40026">
        <ele>27.05</ele>
        <time>2015-09-06T06:27:26Z</time>
      </trkpt>
      <trkpt lat="47.78567" lon="-3.40021">
        <ele>27.05</ele>
        <time>2015-09-06T06:27:27Z</time>
      </trkpt>
      <trkpt lat="47.78567" lon="-3.40014">
        <ele>25.61</ele>
        <time>2015-09-06T06:27:28Z</time>
      </trkpt>
      <trkpt lat="47.78567" lon="-3.40006">
        <ele>24.65</ele>
        <time>2015-09-06T06:27:29Z</time>
      </trkpt>
      <trkpt lat="47.78566" lon="-3.39997">
        <ele>24.17</ele>
        <time>2015-09-06T06:27:30Z</time>
      </trkpt>
      <trkpt lat="47.78566" lon="-3.39986">
        <ele>23.21</ele>
        <time>2015-09-06T06:27:31Z</time>
      </trkpt>
      <trkpt lat="47.78565" lon="-3.39974">
        <ele>22.25</ele>
        <time>2015-09-06T06:27:32Z</time>
      </trkpt>
      <trkpt lat="47.78564" lon="-3.39964">
        <ele>21.77</ele>
        <time>2015-09-06T06:27:33Z</time>
      </trkpt>
      <trkpt lat="47.78562" lon="-3.39952">
        <ele>21.77</ele>
        <time>2015-09-06T06:27:34Z</time>
      </trkpt>
      <trkpt lat="47.78561" lon="-3.39941">
        <ele>21.77</ele>
        <time>2015-09-06T06:27:35Z</time>
      </trkpt>
      <trkpt lat="47.78559" lon="-3.39931">
        <ele>21.77</ele>
        <time>2015-09-06T06:27:36Z</time>
      </trkpt>
      <trkpt lat="47.78558" lon="-3.39919">
        <ele>21.77</ele>
        <time>2015-09-06T06:27:37Z</time>
      </trkpt>
      <trkpt lat="47.78558" lon="-3.39909">
        <ele>21.29</ele>
        <time>2015-09-06T06:27:38Z</time>
      </trkpt>
      <trkpt lat="47.78559" lon="-3.399">
        <ele>21.29</ele>
        <time>2015-09-06T06:27:39Z</time>
      </trkpt>
      <trkpt lat="47.7856" lon="-3.39889">
        <ele>21.29</ele>
        <time>2015-09-06T06:27:40Z</time>
      </trkpt>
      <trkpt lat="47.78562" lon="-3.39879">
        <ele>21.29</ele>
        <time>2015-09-06T06:27:41Z</time>
      </trkpt>
      <trkpt lat="47.78565" lon="-3.3987">
        <ele>21.29</ele>
        <time>2015-09-06T06:27:42Z</time>
      </trkpt>
      <trkpt lat="47.78567" lon="-3.3986">
        <ele>21.29</ele>
        <time>2015-09-06T06:27:43Z</time>
      </trkpt>
      <trkpt lat="47.78568" lon="-3.39851">
        <ele>21.29</ele>
        <time>2015-09-06T06:27:44Z</time>
      </trkpt>
      <trkpt lat="47.78567" lon="-3.39846">
        <ele>21.29</ele>
        <time>2015-09-06T06:27:45Z</time>
      </trkpt>
      <trkpt lat="47.78565" lon="-3.39843">
        <ele>22.73</ele>
        <time>2015-09-06T06:27:46Z</time>
      </trkpt>
      <trkpt lat="47.78562" lon="-3.39841">
        <ele>23.21</ele>
        <time>2015-09-06T06:27:47Z</time>
      </trkpt>
      <trkpt lat="47.7856" lon="-3.3984">
        <ele>23.69</ele>
        <time>2015-09-06T06:27:48Z</time>
      </trkpt>
      <trkpt lat="47.78558" lon="-3.39839">
        <ele>23.69</ele>
        <time>2015-09-06T06:27:49Z</time>
      </trkpt>
      <trkpt lat="47.78557" lon="-3.39838">
        <ele>24.65</ele>
        <time>2015-09-06T06:27:50Z</time>
      </trkpt>
      <trkpt lat="47.78555" lon="-3.39837">
        <ele>24.65</ele>
        <time>2015-09-06T06:27:51Z</time>
      </trkpt>
      <trkpt lat="47.78553" lon="-3.39836">
        <ele>25.13</ele>
        <time>2015-09-06T06:27:52Z</time>
      </trkpt>
      <trkpt lat="47.7855" lon="-3.39835">
        <ele>25.13</ele>
        <time>2015-09-06T06:27:53Z</time>
      </trkpt>
      <trkpt lat="47.78548" lon="-3.39835">
        <ele>25.13</ele>
        <time>2015-09-06T06:27:54Z</time>
      </trkpt>
      <trkpt lat="47.78545" lon="-3.39834">
        <ele>25.61</ele>
        <time>2015-09-06T06:27:55Z</time>
      </trkpt>
      <trkpt lat="47.78542" lon="-3.39833">
        <ele>25.61</ele>
        <time>2015-09-06T06:27:56Z</time>
      </trkpt>
      <trkpt lat="47.78539" lon="-3.39831">
        <ele>25.61</ele>
        <time>2015-09-06T06:27:57Z</time>
      </trkpt>
      <trkpt lat="47.78536" lon="-3.3983">
        <ele>25.61</ele>
        <time>2015-09-06T06:27:58Z</time>
      </trkpt>
      <trkpt lat="47.78533" lon="-3.39829">
        <ele>26.09</ele>
        <time>2015-09-06T06:27:59Z</time>
      </trkpt>
      <trkpt lat="47.7853" lon="-3.39827">
        <ele>26.09</ele>
        <time>2015-09-06T06:28:00Z</time>
      </trkpt>
      <trkpt lat="47.78527" lon="-3.39826">
        <ele>26.57</ele>
        <time>2015-09-06T06:28:01Z</time>
      </trkpt>
      <trkpt lat="47.78523" lon="-3.39825">
        <ele>26.57</ele>
        <time>2015-09-06T06:28:02Z</time>
      </trkpt>
      <trkpt lat="47.7852" lon="-3.39825">
        <ele>26.57</ele>
        <time>2015-09-06T06:28:03Z</time>
      </trkpt>
      <trkpt lat="47.78517" lon="-3.39826">
        <ele>27.05</ele>
        <time>2015-09-06T06:28:04Z</time>
      </trkpt>
      <trkpt lat="47.78513" lon="-3.39826">
        <ele>27.05</ele>
        <time>2015-09-06T06:28:05Z</time>
      </trkpt>
      <trkpt lat="47.7851" lon="-3.39827">
        <ele>27.05</ele>
        <time>2015-09-06T06:28:06Z</time>
      </trkpt>
      <trkpt lat="47.78507" lon="-3.39827">
        <ele>27.05</ele>
        <time>2015-09-06T06:28:07Z</time>
      </trkpt>
      <trkpt lat="47.78504" lon="-3.39828">
        <ele>27.05</ele>
        <time>2015-09-06T06:28:08Z</time>
      </trkpt>
      <trkpt lat="47.78501" lon="-3.39828">
        <ele>28.02</ele>
        <time>2015-09-06T06:28:09Z</time>
      </trkpt>
      <trkpt lat="47.78497" lon="-3.39828">
        <ele>28.02</ele>
        <time>2015-09-06T06:28:10Z</time>
      </trkpt>
      <trkpt lat="47.78493" lon="-3.39828">
        <ele>28.02</ele>
        <time>2015-09-06T06:28:11Z</time>
      </trkpt>
      <trkpt lat="47.78489" lon="-3.39828">
        <ele>28.5</ele>
        <time>2015-09-06T06:28:12Z</time>
      </trkpt>
      <trkpt lat="47.78486" lon="-3.39828">
        <ele>28.5</ele>
        <time>2015-09-06T06:28:13Z</time>
      </trkpt>
      <trkpt lat="47.78483" lon="-3.39828">
        <ele>28.5</ele>
        <time>2015-09-06T06:28:14Z</time>
      </trkpt>
      <trkpt lat="47.7848" lon="-3.39828">
        <ele>28.98</ele>
        <time>2015-09-06T06:28:15Z</time>
      </trkpt>
      <trkpt lat="47.78477" lon="-3.39829">
        <ele>28.98</ele>
        <time>2015-09-06T06:28:16Z</time>
      </trkpt>
      <trkpt lat="47.78474" lon="-3.39829">
        <ele>28.98</ele>
        <time>2015-09-06T06:28:17Z</time>
      </trkpt>
      <trkpt lat="47.78471" lon="-3.3983">
        <ele>29.46</ele>
        <time>2015-09-06T06:28:18Z</time>
      </trkpt>
      <trkpt lat="47.78468" lon="-3.39831">
        <ele>29.46</ele>
        <time>2015-09-06T06:28:19Z</time>
      </trkpt>
      <trkpt lat="47.78466" lon="-3.39831">
        <ele>29.94</ele>
        <time>2015-09-06T06:28:20Z</time>
      </trkpt>
      <trkpt lat="47.78463" lon="-3.39832">
        <ele>29.94</ele>
        <time>2015-09-06T06:28:21Z</time>
      </trkpt>
      <trkpt lat="47.78461" lon="-3.39832">
        <ele>30.42</ele>
        <time>2015-09-06T06:28:22Z</time>
      </trkpt>
      <trkpt lat="47.78459" lon="-3.39832">
        <ele>30.9</ele>
        <time>2015-09-06T06:28:23Z</time>
      </trkpt>
      <trkpt lat="47.78456" lon="-3.39832">
        <ele>30.9</ele>
        <time>2015-09-06T06:28:24Z</time>
      </trkpt>
      <trkpt lat="47.78454" lon="-3.39832">
        <ele>31.38</ele>
        <time>2015-09-06T06:28:25Z</time>
      </trkpt>
      <trkpt lat="47.78451" lon="-3.39832">
        <ele>31.86</ele>
        <time>2015-09-06T06:28:26Z</time>
      </trkpt>
      <trkpt lat="47.78449" lon="-3.39831">
        <ele>31.86</ele>
        <time>2015-09-06T06:28:27Z</time>
      </trkpt>
      <trkpt lat="47.78446" lon="-3.3983">
        <ele>32.34</ele>
        <time>2015-09-06T06:28:28Z</time>
      </trkpt>
      <trkpt lat="47.78445" lon="-3.39829">
        <ele>32.34</ele>
        <time>2015-09-06T06:28:29Z</time>
      </trkpt>
      <trkpt lat="47.78444" lon="-3.39828">
        <ele>33.3</ele>
        <time>2015-09-06T06:28:30Z</time>
      </trkpt>
      <trkpt lat="47.78443" lon="-3.39826">
        <ele>33.78</ele>
        <time>2015-09-06T06:28:31Z</time>
      </trkpt>
      <trkpt lat="47.78442" lon="-3.39824">
        <ele>33.78</ele>
        <time>2015-09-06T06:28:32Z</time>
      </trkpt>
      <trkpt lat="47.78441" lon="-3.39823">
        <ele>34.74</ele>
        <time>2015-09-06T06:28:33Z</time>
      </trkpt>
      <trkpt lat="47.7844" lon="-3.3982">
        <ele>34.74</ele>
        <time>2015-09-06T06:28:34Z</time>
      </trkpt>
      <trkpt lat="47.78439" lon="-3.39818">
        <ele>34.74</ele>
        <time>2015-09-06T06:28:35Z</time>
      </trkpt>
      <trkpt lat="47.78439" lon="-3.39815">
        <ele>35.23</ele>
        <time>2015-09-06T06:28:36Z</time>
      </trkpt>
      <trkpt lat="47.78438" lon="-3.39813">
        <ele>35.23</ele>
        <time>2015-09-06T06:28:37Z</time>
      </trkpt>
      <trkpt lat="47.78437" lon="-3.39812">
        <ele>35.23</ele>
        <time>2015-09-06T06:28:38Z</time>
      </trkpt>
      <trkpt lat="47.78436" lon="-3.39811">
        <ele>35.71</ele>
        <time>2015-09-06T06:28:39Z</time>
      </trkpt>
      <trkpt lat="47.78433" lon="-3.3981">
        <ele>35.71</ele>
        <time>2015-09-06T06:28:40Z</time>
      </trkpt>
      <trkpt lat="47.78431" lon="-3.39808">
        <ele>36.67</ele>
        <time>2015-09-06T06:28:41Z</time>
      </trkpt>
      <trkpt lat="47.78429" lon="-3.39807">
        <ele>36.67</ele>
        <time>2015-09-06T06:28:42Z</time>
      </trkpt>
      <trkpt lat="47.78427" lon="-3.39805">
        <ele>36.67</ele>
        <time>2015-09-06T06:28:43Z</time>
      </trkpt>
      <trkpt lat="47.78425" lon="-3.39804">
        <ele>37.15</ele>
        <time>2015-09-06T06:28:44Z</time>
      </trkpt>
      <trkpt lat="47.78423" lon="-3.39802">
        <ele>37.63</ele>
        <time>2015-09-06T06:28:45Z</time>
      </trkpt>
      <trkpt lat="47.78421" lon="-3.39801">
        <ele>37.63</ele>
        <time>2015-09-06T06:28:46Z</time>
      </trkpt>
      <trkpt lat="47.78419" lon="-3.39799">
        <ele>37.63</ele>
        <time>2015-09-06T06:28:47Z</time>
      </trkpt>
      <trkpt lat="47.78417" lon="-3.39798">
        <ele>38.11</ele>
        <time>2015-09-06T06:28:48Z</time>
      </trkpt>
      <trkpt lat="47.78415" lon="-3.39796">
        <ele>38.11</ele>
        <time>2015-09-06T06:28:49Z</time>
      </trkpt>
      <trkpt lat="47.78413" lon="-3.39794">
        <ele>38.11</ele>
        <time>2015-09-06T06:28:50Z</time>
      </trkpt>
      <trkpt lat="47.78411" lon="-3.39792">
        <ele>38.59</ele>
        <time>2015-09-06T06:28:51Z</time>
      </trkpt>
      <trkpt lat="47.78409" lon="-3.39791">
        <ele>38.59</ele>
        <time>2015-09-06T06:28:52Z</time>
      </trkpt>
      <trkpt lat="47.78408" lon="-3.39789">
        <ele>38.59</ele>
        <time>2015-09-06T06:28:53Z</time>
      </trkpt>
      <trkpt lat="47.78407" lon="-3.39788">
        <ele>39.07</ele>
        <time>2015-09-06T06:28:54Z</time>
      </trkpt>
      <trkpt lat="47.78405" lon="-3.39786">
        <ele>39.07</ele>
        <time>2015-09-06T06:28:55Z</time>
      </trkpt>
      <trkpt lat="47.78403" lon="-3.39785">
        <ele>39.55</ele>
        <time>2015-09-06T06:28:56Z</time>
      </trkpt>
      <trkpt lat="47.78402" lon="-3.39782">
        <ele>39.55</ele>
        <time>2015-09-06T06:28:57Z</time>
      </trkpt>
      <trkpt lat="47.784" lon="-3.3978">
        <ele>39.55</ele>
        <time>2015-09-06T06:28:58Z</time>
      </trkpt>
      <trkpt lat="47.78399" lon="-3.39776">
        <ele>39.55</ele>
        <time>2015-09-06T06:28:59Z</time>
      </trkpt>
      <trkpt lat="47.78397" lon="-3.39772">
        <ele>39.55</ele>
        <time>2015-09-06T06:29:00Z</time>
      </trkpt>
      <trkpt lat="47.78395" lon="-3.39766">
        <ele>39.55</ele>
        <time>2015-09-06T06:29:01Z</time>
      </trkpt>
      <trkpt lat="47.78393" lon="-3.39761">
        <ele>39.55</ele>
        <time>2015-09-06T06:29:02Z</time>
      </trkpt>
      <trkpt lat="47.78391" lon="-3.39756">
        <ele>39.55</ele>
        <time>2015-09-06T06:29:03Z</time>
      </trkpt>
      <trkpt lat="47.78389" lon="-3.3975">
        <ele>39.55</ele>
        <time>2015-09-06T06:29:04Z</time>
      </trkpt>
      <trkpt lat="47.78387" lon="-3.39745">
        <ele>39.55</ele>
        <time>2015-09-06T06:29:05Z</time>
      </trkpt>
      <trkpt lat="47.78385" lon="-3.39739">
        <ele>39.55</ele>
        <time>2015-09-06T06:29:06Z</time>
      </trkpt>
      <trkpt lat="47.78383" lon="-3.39734">
        <ele>39.55</ele>
        <time>2015-09-06T06:29:07Z</time>
      </trkpt>
      <trkpt lat="47.78382" lon="-3.39727">
        <ele>39.55</ele>
        <time>2015-09-06T06:29:08Z</time>
      </trkpt>
      <trkpt lat="47.7838" lon="-3.39722">
        <ele>39.55</ele>
        <time>2015-09-06T06:29:09Z</time>
      </trkpt>
      <trkpt lat="47.78379" lon="-3.39715">
        <ele>39.55</ele>
        <time>2015-09-06T06:29:10Z</time>
      </trkpt>
      <trkpt lat="47.78378" lon="-3.39709">
        <ele>39.55</ele>
        <time>2015-09-06T06:29:11Z</time>
      </trkpt>
      <trkpt lat="47.78378" lon="-3.39702">
        <ele>39.55</ele>
        <time>2015-09-06T06:29:12Z</time>
      </trkpt>
      <trkpt lat="47.78378" lon="-3.39696">
        <ele>39.55</ele>
        <time>2015-09-06T06:29:13Z</time>
      </trkpt>
      <trkpt lat="47.78377" lon="-3.3969">
        <ele>39.55</ele>
        <time>2015-09-06T06:29:14Z</time>
      </trkpt>
      <trkpt lat="47.78376" lon="-3.39684">
        <ele>39.55</ele>
        <time>2015-09-06T06:29:15Z</time>
      </trkpt>
      <trkpt lat="47.78376" lon="-3.39677">
        <ele>39.55</ele>
        <time>2015-09-06T06:29:16Z</time>
      </trkpt>
      <trkpt lat="47.78376" lon="-3.39671">
        <ele>39.55</ele>
        <time>2015-09-06T06:29:17Z</time>
      </trkpt>
      <trkpt lat="47.78375" lon="-3.39665">
        <ele>39.55</ele>
        <time>2015-09-06T06:29:18Z</time>
      </trkpt>
      <trkpt lat="47.78375" lon="-3.39659">
        <ele>39.55</ele>
        <time>2015-09-06T06:29:19Z</time>
      </trkpt>
      <trkpt lat="47.78374" lon="-3.39651">
        <ele>39.55</ele>
        <time>2015-09-06T06:29:20Z</time>
      </trkpt>
      <trkpt lat="47.78374" lon="-3.39646">
        <ele>39.55</ele>
        <time>2015-09-06T06:29:21Z</time>
      </trkpt>
      <trkpt lat="47.78372" lon="-3.3964">
        <ele>39.55</ele>
        <time>2015-09-06T06:29:22Z</time>
      </trkpt>
      <trkpt lat="47.78369" lon="-3.39636">
        <ele>38.11</ele>
        <time>2015-09-06T06:29:23Z</time>
      </trkpt>
      <trkpt lat="47.78365" lon="-3.39635">
        <ele>38.11</ele>
        <time>2015-09-06T06:29:24Z</time>
      </trkpt>
      <trkpt lat="47.78362" lon="-3.39632">
        <ele>38.11</ele>
        <time>2015-09-06T06:29:25Z</time>
      </trkpt>
      <trkpt lat="47.78361" lon="-3.39629">
        <ele>38.11</ele>
        <time>2015-09-06T06:29:26Z</time>
      </trkpt>
      <trkpt lat="47.7836" lon="-3.39626">
        <ele>38.11</ele>
        <time>2015-09-06T06:29:27Z</time>
      </trkpt>
      <trkpt lat="47.7836" lon="-3.39622">
        <ele>38.11</ele>
        <time>2015-09-06T06:29:28Z</time>
      </trkpt>
      <trkpt lat="47.78361" lon="-3.3962">
        <ele>38.11</ele>
        <time>2015-09-06T06:29:29Z</time>
      </trkpt>
      <trkpt lat="47.78363" lon="-3.39619">
        <ele>38.11</ele>
        <time>2015-09-06T06:29:30Z</time>
      </trkpt>
      <trkpt lat="47.78365" lon="-3.39619">
        <ele>37.63</ele>
        <time>2015-09-06T06:29:31Z</time>
      </trkpt>
      <trkpt lat="47.78367" lon="-3.39618">
        <ele>37.63</ele>
        <time>2015-09-06T06:29:32Z</time>
      </trkpt>
      <trkpt lat="47.78368" lon="-3.39613">
        <ele>37.15</ele>
        <time>2015-09-06T06:29:33Z</time>
      </trkpt>
      <trkpt lat="47.78369" lon="-3.39609">
        <ele>36.67</ele>
        <time>2015-09-06T06:29:34Z</time>
      </trkpt>
      <trkpt lat="47.78369" lon="-3.39603">
        <ele>36.67</ele>
        <time>2015-09-06T06:29:35Z</time>
      </trkpt>
      <trkpt lat="47.78369" lon="-3.39595">
        <ele>36.19</ele>
        <time>2015-09-06T06:29:36Z</time>
      </trkpt>
      <trkpt lat="47.7837" lon="-3.39587">
        <ele>35.23</ele>
        <time>2015-09-06T06:29:37Z</time>
      </trkpt>
      <trkpt lat="47.7837" lon="-3.39579">
        <ele>34.74</ele>
        <time>2015-09-06T06:29:38Z</time>
      </trkpt>
      <trkpt lat="47.78371" lon="-3.39572">
        <ele>33.78</ele>
        <time>2015-09-06T06:29:39Z</time>
      </trkpt>
      <trkpt lat="47.78371" lon="-3.39565">
        <ele>33.3</ele>
        <time>2015-09-06T06:29:40Z</time>
      </trkpt>
      <trkpt lat="47.7837" lon="-3.39558">
        <ele>32.82</ele>
        <time>2015-09-06T06:29:41Z</time>
      </trkpt>
      <trkpt lat="47.7837" lon="-3.39551">
        <ele>31.86</ele>
        <time>2015-09-06T06:29:42Z</time>
      </trkpt>
      <trkpt lat="47.7837" lon="-3.39545">
        <ele>31.38</ele>
        <time>2015-09-06T06:29:43Z</time>
      </trkpt>
      <trkpt lat="47.78372" lon="-3.39543">
        <ele>30.9</ele>
        <time>2015-09-06T06:29:44Z</time>
      </trkpt>
      <trkpt lat="47.78374" lon="-3.39542">
        <ele>30.42</ele>
        <time>2015-09-06T06:29:45Z</time>
      </trkpt>
      <trkpt lat="47.78378" lon="-3.3954">
        <ele>29.94</ele>
        <time>2015-09-06T06:29:46Z</time>
      </trkpt>
      <trkpt lat="47.78382" lon="-3.39539">
        <ele>29.46</ele>
        <time>2015-09-06T06:29:47Z</time>
      </trkpt>
      <trkpt lat="47.78387" lon="-3.39538">
        <ele>28.98</ele>
        <time>2015-09-06T06:29:48Z</time>
      </trkpt>
      <trkpt lat="47.78394" lon="-3.39539">
        <ele>28.02</ele>
        <time>2015-09-06T06:29:49Z</time>
      </trkpt>
      <trkpt lat="47.78401" lon="-3.3954">
        <ele>27.53</ele>
        <time>2015-09-06T06:29:50Z</time>
      </trkpt>
      <trkpt lat="47.78408" lon="-3.39541">
        <ele>26.57</ele>
        <time>2015-09-06T06:29:51Z</time>
      </trkpt>
      <trkpt lat="47.78414" lon="-3.39542">
        <ele>26.09</ele>
        <time>2015-09-06T06:29:52Z</time>
      </trkpt>
      <trkpt lat="47.78418" lon="-3.39542">
        <ele>26.09</ele>
        <time>2015-09-06T06:29:53Z</time>
      </trkpt>
      <trkpt lat="47.78423" lon="-3.39539">
        <ele>25.13</ele>
        <time>2015-09-06T06:29:54Z</time>
      </trkpt>
      <trkpt lat="47.78426" lon="-3.39536">
        <ele>25.61</ele>
        <time>2015-09-06T06:29:55Z</time>
      </trkpt>
      <trkpt lat="47.7843" lon="-3.39532">
        <ele>24.65</ele>
        <time>2015-09-06T06:29:56Z</time>
      </trkpt>
      <trkpt lat="47.78434" lon="-3.39528">
        <ele>24.65</ele>
        <time>2015-09-06T06:29:57Z</time>
      </trkpt>
      <trkpt lat="47.78438" lon="-3.39523">
        <ele>24.65</ele>
        <time>2015-09-06T06:29:58Z</time>
      </trkpt>
      <trkpt lat="47.78443" lon="-3.39518">
        <ele>24.65</ele>
        <time>2015-09-06T06:29:59Z</time>
      </trkpt>
      <trkpt lat="47.78447" lon="-3.39515">
        <ele>23.69</ele>
        <time>2015-09-06T06:30:00Z</time>
      </trkpt>
      <trkpt lat="47.78452" lon="-3.39513">
        <ele>23.21</ele>
        <time>2015-09-06T06:30:01Z</time>
      </trkpt>
      <trkpt lat="47.78457" lon="-3.39512">
        <ele>23.21</ele>
        <time>2015-09-06T06:30:02Z</time>
      </trkpt>
      <trkpt lat="47.78462" lon="-3.39511">
        <ele>23.21</ele>
        <time>2015-09-06T06:30:03Z</time>
      </trkpt>
      <trkpt lat="47.78467" lon="-3.39512">
        <ele>21.77</ele>
        <time>2015-09-06T06:30:04Z</time>
      </trkpt>
      <trkpt lat="47.78472" lon="-3.39514">
        <ele>21.29</ele>
        <time>2015-09-06T06:30:05Z</time>
      </trkpt>
      <trkpt lat="47.78477" lon="-3.39517">
        <ele>20.81</ele>
        <time>2015-09-06T06:30:06Z</time>
      </trkpt>
      <trkpt lat="47.78481" lon="-3.3952">
        <ele>19.84</ele>
        <time>2015-09-06T06:30:07Z</time>
      </trkpt>
      <trkpt lat="47.78484" lon="-3.39523">
        <ele>19.84</ele>
        <time>2015-09-06T06:30:08Z</time>
      </trkpt>
      <trkpt lat="47.78486" lon="-3.39524">
        <ele>19.36</ele>
        <time>2015-09-06T06:30:09Z</time>
      </trkpt>
      <trkpt lat="47.78489" lon="-3.39524">
        <ele>19.36</ele>
        <time>2015-09-06T06:30:10Z</time>
      </trkpt>
      <trkpt lat="47.78491" lon="-3.39523">
        <ele>18.88</ele>
        <time>2015-09-06T06:30:11Z</time>
      </trkpt>
      <trkpt lat="47.78492" lon="-3.39521">
        <ele>17.92</ele>
        <time>2015-09-06T06:30:12Z</time>
      </trkpt>
      <trkpt lat="47.78493" lon="-3.39517">
        <ele>17.44</ele>
        <time>2015-09-06T06:30:13Z</time>
      </trkpt>
      <trkpt lat="47.78492" lon="-3.39514">
        <ele>17.44</ele>
        <time>2015-09-06T06:30:14Z</time>
      </trkpt>
      <trkpt lat="47.78491" lon="-3.39511">
        <ele>17.44</ele>
        <time>2015-09-06T06:30:15Z</time>
      </trkpt>
      <trkpt lat="47.78489" lon="-3.39508">
        <ele>17.44</ele>
        <time>2015-09-06T06:30:16Z</time>
      </trkpt>
      <trkpt lat="47.78487" lon="-3.39503">
        <ele>17.44</ele>
        <time>2015-09-06T06:30:17Z</time>
      </trkpt>
      <trkpt lat="47.78484" lon="-3.39499">
        <ele>17.44</ele>
        <time>2015-09-06T06:30:18Z</time>
      </trkpt>
      <trkpt lat="47.78482" lon="-3.39495">
        <ele>17.44</ele>
        <time>2015-09-06T06:30:19Z</time>
      </trkpt>
      <trkpt lat="47.7848" lon="-3.39491">
        <ele>17.44</ele>
        <time>2015-09-06T06:30:20Z</time>
      </trkpt>
      <trkpt lat="47.78478" lon="-3.39487">
        <ele>17.44</ele>
        <time>2015-09-06T06:30:21Z</time>
      </trkpt>
      <trkpt lat="47.78477" lon="-3.39484">
        <ele>17.44</ele>
        <time>2015-09-06T06:30:22Z</time>
      </trkpt>
      <trkpt lat="47.78475" lon="-3.3948">
        <ele>16.96</ele>
        <time>2015-09-06T06:30:23Z</time>
      </trkpt>
      <trkpt lat="47.78474" lon="-3.39475">
        <ele>16.48</ele>
        <time>2015-09-06T06:30:24Z</time>
      </trkpt>
      <trkpt lat="47.78473" lon="-3.3947">
        <ele>16.48</ele>
        <time>2015-09-06T06:30:25Z</time>
      </trkpt>
      <trkpt lat="47.78471" lon="-3.39465">
        <ele>16.48</ele>
        <time>2015-09-06T06:30:26Z</time>
      </trkpt>
      <trkpt lat="47.78469" lon="-3.39459">
        <ele>16.48</ele>
        <time>2015-09-06T06:30:27Z</time>
      </trkpt>
      <trkpt lat="47.78467" lon="-3.39454">
        <ele>16.48</ele>
        <time>2015-09-06T06:30:28Z</time>
      </trkpt>
      <trkpt lat="47.78466" lon="-3.39449">
        <ele>16.48</ele>
        <time>2015-09-06T06:30:29Z</time>
      </trkpt>
      <trkpt lat="47.78464" lon="-3.39444">
        <ele>16.48</ele>
        <time>2015-09-06T06:30:30Z</time>
      </trkpt>
      <trkpt lat="47.78462" lon="-3.39439">
        <ele>16.48</ele>
        <time>2015-09-06T06:30:31Z</time>
      </trkpt>
      <trkpt lat="47.78462" lon="-3.39433">
        <ele>16.48</ele>
        <time>2015-09-06T06:30:32Z</time>
      </trkpt>
      <trkpt lat="47.78461" lon="-3.39428">
        <ele>16.48</ele>
        <time>2015-09-06T06:30:33Z</time>
      </trkpt>
      <trkpt lat="47.78461" lon="-3.39422">
        <ele>16</ele>
        <time>2015-09-06T06:30:34Z</time>
      </trkpt>
      <trkpt lat="47.78459" lon="-3.39417">
        <ele>16</ele>
        <time>2015-09-06T06:30:35Z</time>
      </trkpt>
      <trkpt lat="47.78458" lon="-3.3941">
        <ele>16</ele>
        <time>2015-09-06T06:30:36Z</time>
      </trkpt>
      <trkpt lat="47.78457" lon="-3.39404">
        <ele>16</ele>
        <time>2015-09-06T06:30:37Z</time>
      </trkpt>
      <trkpt lat="47.78456" lon="-3.39398">
        <ele>16</ele>
        <time>2015-09-06T06:30:38Z</time>
      </trkpt>
      <trkpt lat="47.78457" lon="-3.39391">
        <ele>16</ele>
        <time>2015-09-06T06:30:39Z</time>
      </trkpt>
      <trkpt lat="47.78457" lon="-3.39385">
        <ele>15.04</ele>
        <time>2015-09-06T06:30:40Z</time>
      </trkpt>
      <trkpt lat="47.78457" lon="-3.39378">
        <ele>15.04</ele>
        <time>2015-09-06T06:30:41Z</time>
      </trkpt>
      <trkpt lat="47.78458" lon="-3.39372">
        <ele>14.08</ele>
        <time>2015-09-06T06:30:42Z</time>
      </trkpt>
      <trkpt lat="47.78457" lon="-3.39366">
        <ele>14.08</ele>
        <time>2015-09-06T06:30:43Z</time>
      </trkpt>
      <trkpt lat="47.78457" lon="-3.39361">
        <ele>14.08</ele>
        <time>2015-09-06T06:30:44Z</time>
      </trkpt>
      <trkpt lat="47.78456" lon="-3.39358">
        <ele>14.08</ele>
        <time>2015-09-06T06:30:45Z</time>
      </trkpt>
      <trkpt lat="47.78455" lon="-3.39354">
        <ele>14.08</ele>
        <time>2015-09-06T06:30:46Z</time>
      </trkpt>
      <trkpt lat="47.78454" lon="-3.3935">
        <ele>14.08</ele>
        <time>2015-09-06T06:30:47Z</time>
      </trkpt>
      <trkpt lat="47.78452" lon="-3.39344">
        <ele>13.6</ele>
        <time>2015-09-06T06:30:48Z</time>
      </trkpt>
      <trkpt lat="47.78449" lon="-3.39339">
        <ele>13.6</ele>
        <time>2015-09-06T06:30:49Z</time>
      </trkpt>
      <trkpt lat="47.78447" lon="-3.39333">
        <ele>13.12</ele>
        <time>2015-09-06T06:30:50Z</time>
      </trkpt>
      <trkpt lat="47.78443" lon="-3.39329">
        <ele>13.12</ele>
        <time>2015-09-06T06:30:51Z</time>
      </trkpt>
      <trkpt lat="47.78439" lon="-3.39325">
        <ele>13.12</ele>
        <time>2015-09-06T06:30:52Z</time>
      </trkpt>
      <trkpt lat="47.78434" lon="-3.39321">
        <ele>13.12</ele>
        <time>2015-09-06T06:30:53Z</time>
      </trkpt>
      <trkpt lat="47.78431" lon="-3.39317">
        <ele>13.12</ele>
        <time>2015-09-06T06:30:54Z</time>
      </trkpt>
      <trkpt lat="47.78427" lon="-3.39315">
        <ele>13.12</ele>
        <time>2015-09-06T06:30:55Z</time>
      </trkpt>
      <trkpt lat="47.78423" lon="-3.39311">
        <ele>13.12</ele>
        <time>2015-09-06T06:30:56Z</time>
      </trkpt>
      <trkpt lat="47.7842" lon="-3.39308">
        <ele>13.12</ele>
        <time>2015-09-06T06:30:57Z</time>
      </trkpt>
      <trkpt lat="47.78416" lon="-3.39305">
        <ele>13.12</ele>
        <time>2015-09-06T06:30:58Z</time>
      </trkpt>
      <trkpt lat="47.78412" lon="-3.39301">
        <ele>13.12</ele>
        <time>2015-09-06T06:30:59Z</time>
      </trkpt>
      <trkpt lat="47.78408" lon="-3.39298">
        <ele>12.63</ele>
        <time>2015-09-06T06:31:00Z</time>
      </trkpt>
      <trkpt lat="47.78404" lon="-3.39294">
        <ele>13.12</ele>
        <time>2015-09-06T06:31:01Z</time>
      </trkpt>
      <trkpt lat="47.784" lon="-3.3929">
        <ele>13.12</ele>
        <time>2015-09-06T06:31:02Z</time>
      </trkpt>
      <trkpt lat="47.78397" lon="-3.39285">
        <ele>12.15</ele>
        <time>2015-09-06T06:31:03Z</time>
      </trkpt>
      <trkpt lat="47.78394" lon="-3.3928">
        <ele>12.15</ele>
        <time>2015-09-06T06:31:04Z</time>
      </trkpt>
      <trkpt lat="47.7839" lon="-3.39274">
        <ele>12.15</ele>
        <time>2015-09-06T06:31:05Z</time>
      </trkpt>
      <trkpt lat="47.78387" lon="-3.3927">
        <ele>12.15</ele>
        <time>2015-09-06T06:31:06Z</time>
      </trkpt>
      <trkpt lat="47.78385" lon="-3.39265">
        <ele>12.15</ele>
        <time>2015-09-06T06:31:07Z</time>
      </trkpt>
      <trkpt lat="47.78382" lon="-3.3926">
        <ele>11.67</ele>
        <time>2015-09-06T06:31:08Z</time>
      </trkpt>
      <trkpt lat="47.7838" lon="-3.39253">
        <ele>11.67</ele>
        <time>2015-09-06T06:31:09Z</time>
      </trkpt>
      <trkpt lat="47.78378" lon="-3.39246">
        <ele>10.71</ele>
        <time>2015-09-06T06:31:10Z</time>
      </trkpt>
      <trkpt lat="47.78376" lon="-3.3924">
        <ele>10.23</ele>
        <time>2015-09-06T06:31:11Z</time>
      </trkpt>
      <trkpt lat="47.78374" lon="-3.39234">
        <ele>9.75</ele>
        <time>2015-09-06T06:31:12Z</time>
      </trkpt>
      <trkpt lat="47.78371" lon="-3.39228">
        <ele>9.75</ele>
        <time>2015-09-06T06:31:13Z</time>
      </trkpt>
      <trkpt lat="47.78369" lon="-3.39223">
        <ele>9.75</ele>
        <time>2015-09-06T06:31:14Z</time>
      </trkpt>
      <trkpt lat="47.78368" lon="-3.39217">
        <ele>8.79</ele>
        <time>2015-09-06T06:31:15Z</time>
      </trkpt>
      <trkpt lat="47.78366" lon="-3.3921">
        <ele>8.79</ele>
        <time>2015-09-06T06:31:16Z</time>
      </trkpt>
      <trkpt lat="47.78363" lon="-3.39203">
        <ele>8.31</ele>
        <time>2015-09-06T06:31:17Z</time>
      </trkpt>
      <trkpt lat="47.7836" lon="-3.39197">
        <ele>8.31</ele>
        <time>2015-09-06T06:31:18Z</time>
      </trkpt>
      <trkpt lat="47.78358" lon="-3.39191">
        <ele>7.83</ele>
        <time>2015-09-06T06:31:19Z</time>
      </trkpt>
      <trkpt lat="47.78356" lon="-3.39188">
        <ele>7.83</ele>
        <time>2015-09-06T06:31:20Z</time>
      </trkpt>
      <trkpt lat="47.78354" lon="-3.39185">
        <ele>7.83</ele>
        <time>2015-09-06T06:31:21Z</time>
      </trkpt>
      <trkpt lat="47.78351" lon="-3.39183">
        <ele>7.35</ele>
        <time>2015-09-06T06:31:22Z</time>
      </trkpt>
      <trkpt lat="47.78349" lon="-3.3918">
        <ele>7.35</ele>
        <time>2015-09-06T06:31:23Z</time>
      </trkpt>
      <trkpt lat="47.78346" lon="-3.39176">
        <ele>7.35</ele>
        <time>2015-09-06T06:31:24Z</time>
      </trkpt>
      <trkpt lat="47.78343" lon="-3.39171">
        <ele>6.87</ele>
        <time>2015-09-06T06:31:25Z</time>
      </trkpt>
      <trkpt lat="47.7834" lon="-3.39167">
        <ele>6.39</ele>
        <time>2015-09-06T06:31:26Z</time>
      </trkpt>
      <trkpt lat="47.78337" lon="-3.39164">
        <ele>6.39</ele>
        <time>2015-09-06T06:31:27Z</time>
      </trkpt>
      <trkpt lat="47.78334" lon="-3.39161">
        <ele>6.39</ele>
        <time>2015-09-06T06:31:28Z</time>
      </trkpt>
      <trkpt lat="47.78331" lon="-3.39159">
        <ele>6.39</ele>
        <time>2015-09-06T06:31:29Z</time>
      </trkpt>
      <trkpt lat="47.78329" lon="-3.39157">
        <ele>6.39</ele>
        <time>2015-09-06T06:31:30Z</time>
      </trkpt>
      <trkpt lat="47.78326" lon="-3.39155">
        <ele>6.39</ele>
        <time>2015-09-06T06:31:31Z</time>
      </trkpt>
      <trkpt lat="47.78324" lon="-3.39152">
        <ele>6.39</ele>
        <time>2015-09-06T06:31:32Z</time>
      </trkpt>
      <trkpt lat="47.78323" lon="-3.39152">
        <ele>6.39</ele>
        <time>2015-09-06T06:31:33Z</time>
      </trkpt>
      <trkpt lat="47.7832" lon="-3.39148">
        <ele>6.39</ele>
        <time>2015-09-06T06:31:38Z</time>
      </trkpt>
      <trkpt lat="47.78319" lon="-3.39146">
        <ele>6.39</ele>
        <time>2015-09-06T06:31:39Z</time>
      </trkpt>
      <trkpt lat="47.78318" lon="-3.39145">
        <ele>6.39</ele>
        <time>2015-09-06T06:31:40Z</time>
      </trkpt>
      <trkpt lat="47.78317" lon="-3.39143">
        <ele>6.39</ele>
        <time>2015-09-06T06:31:41Z</time>
      </trkpt>
      <trkpt lat="47.78315" lon="-3.39142">
        <ele>6.39</ele>
        <time>2015-09-06T06:31:42Z</time>
      </trkpt>
      <trkpt lat="47.78314" lon="-3.39141">
        <ele>6.39</ele>
        <time>2015-09-06T06:31:43Z</time>
      </trkpt>
      <trkpt lat="47.78313" lon="-3.39139">
        <ele>6.39</ele>
        <time>2015-09-06T06:31:44Z</time>
      </trkpt>
      <trkpt lat="47.78311" lon="-3.39137">
        <ele>6.39</ele>
        <time>2015-09-06T06:31:45Z</time>
      </trkpt>
      <trkpt lat="47.78309" lon="-3.39134">
        <ele>6.39</ele>
        <time>2015-09-06T06:31:46Z</time>
      </trkpt>
      <trkpt lat="47.78308" lon="-3.39133">
        <ele>6.39</ele>
        <time>2015-09-06T06:31:47Z</time>
      </trkpt>
      <trkpt lat="47.78307" lon="-3.39132">
        <ele>5.91</ele>
        <time>2015-09-06T06:31:48Z</time>
      </trkpt>
      <trkpt lat="47.78306" lon="-3.39131">
        <ele>5.91</ele>
        <time>2015-09-06T06:31:49Z</time>
      </trkpt>
      <trkpt lat="47.78304" lon="-3.39131">
        <ele>5.91</ele>
        <time>2015-09-06T06:31:50Z</time>
      </trkpt>
      <trkpt lat="47.78304" lon="-3.3913">
        <ele>5.91</ele>
        <time>2015-09-06T06:31:51Z</time>
      </trkpt>
      <trkpt lat="47.78302" lon="-3.39129">
        <ele>5.91</ele>
        <time>2015-09-06T06:31:52Z</time>
      </trkpt>
      <trkpt lat="47.783" lon="-3.39128">
        <ele>5.91</ele>
        <time>2015-09-06T06:31:53Z</time>
      </trkpt>
      <trkpt lat="47.78298" lon="-3.39128">
        <ele>5.91</ele>
        <time>2015-09-06T06:31:54Z</time>
      </trkpt>
      <trkpt lat="47.78297" lon="-3.39128">
        <ele>5.91</ele>
        <time>2015-09-06T06:31:55Z</time>
      </trkpt>
      <trkpt lat="47.78295" lon="-3.39129">
        <ele>5.91</ele>
        <time>2015-09-06T06:31:56Z</time>
      </trkpt>
      <trkpt lat="47.78294" lon="-3.39129">
        <ele>5.91</ele>
        <time>2015-09-06T06:31:57Z</time>
      </trkpt>
      <trkpt lat="47.78292" lon="-3.39129">
        <ele>7.83</ele>
        <time>2015-09-06T06:31:58Z</time>
      </trkpt>
      <trkpt lat="47.7829" lon="-3.39129">
        <ele>7.83</ele>
        <time>2015-09-06T06:31:59Z</time>
      </trkpt>
      <trkpt lat="47.78287" lon="-3.39129">
        <ele>7.83</ele>
        <time>2015-09-06T06:32:00Z</time>
      </trkpt>
      <trkpt lat="47.78285" lon="-3.3913">
        <ele>7.83</ele>
        <time>2015-09-06T06:32:01Z</time>
      </trkpt>
      <trkpt lat="47.78283" lon="-3.3913">
        <ele>8.79</ele>
        <time>2015-09-06T06:32:02Z</time>
      </trkpt>
      <trkpt lat="47.7828" lon="-3.39131">
        <ele>8.79</ele>
        <time>2015-09-06T06:32:03Z</time>
      </trkpt>
      <trkpt lat="47.78278" lon="-3.39131">
        <ele>9.27</ele>
        <time>2015-09-06T06:32:04Z</time>
      </trkpt>
      <trkpt lat="47.78276" lon="-3.39133">
        <ele>9.27</ele>
        <time>2015-09-06T06:32:05Z</time>
      </trkpt>
      <trkpt lat="47.78274" lon="-3.39135">
        <ele>9.75</ele>
        <time>2015-09-06T06:32:06Z</time>
      </trkpt>
      <trkpt lat="47.78274" lon="-3.39136">
        <ele>10.71</ele>
        <time>2015-09-06T06:32:07Z</time>
      </trkpt>
      <trkpt lat="47.78273" lon="-3.39137">
        <ele>11.19</ele>
        <time>2015-09-06T06:32:08Z</time>
      </trkpt>
      <trkpt lat="47.78272" lon="-3.39139">
        <ele>12.15</ele>
        <time>2015-09-06T06:32:09Z</time>
      </trkpt>
      <trkpt lat="47.7827" lon="-3.3914">
        <ele>12.15</ele>
        <time>2015-09-06T06:32:10Z</time>
      </trkpt>
      <trkpt lat="47.78269" lon="-3.3914">
        <ele>12.15</ele>
        <time>2015-09-06T06:32:11Z</time>
      </trkpt>
      <trkpt lat="47.78267" lon="-3.39142">
        <ele>12.15</ele>
        <time>2015-09-06T06:32:12Z</time>
      </trkpt>
      <trkpt lat="47.78264" lon="-3.39142">
        <ele>12.15</ele>
        <time>2015-09-06T06:32:13Z</time>
      </trkpt>
      <trkpt lat="47.78262" lon="-3.39143">
        <ele>12.15</ele>
        <time>2015-09-06T06:32:14Z</time>
      </trkpt>
      <trkpt lat="47.7826" lon="-3.39144">
        <ele>12.15</ele>
        <time>2015-09-06T06:32:15Z</time>
      </trkpt>
      <trkpt lat="47.78257" lon="-3.39145">
        <ele>10.71</ele>
        <time>2015-09-06T06:32:16Z</time>
      </trkpt>
      <trkpt lat="47.78254" lon="-3.39148">
        <ele>9.75</ele>
        <time>2015-09-06T06:32:17Z</time>
      </trkpt>
      <trkpt lat="47.78252" lon="-3.39151">
        <ele>9.75</ele>
        <time>2015-09-06T06:32:18Z</time>
      </trkpt>
      <trkpt lat="47.7825" lon="-3.39154">
        <ele>9.75</ele>
        <time>2015-09-06T06:32:19Z</time>
      </trkpt>
      <trkpt lat="47.78247" lon="-3.39157">
        <ele>9.75</ele>
        <time>2015-09-06T06:32:20Z</time>
      </trkpt>
      <trkpt lat="47.78245" lon="-3.39159">
        <ele>9.75</ele>
        <time>2015-09-06T06:32:21Z</time>
      </trkpt>
      <trkpt lat="47.78243" lon="-3.39161">
        <ele>9.75</ele>
        <time>2015-09-06T06:32:22Z</time>
      </trkpt>
      <trkpt lat="47.78242" lon="-3.39163">
        <ele>9.75</ele>
        <time>2015-09-06T06:32:23Z</time>
      </trkpt>
      <trkpt lat="47.78239" lon="-3.39166">
        <ele>9.75</ele>
        <time>2015-09-06T06:32:24Z</time>
      </trkpt>
      <trkpt lat="47.78237" lon="-3.39168">
        <ele>9.75</ele>
        <time>2015-09-06T06:32:25Z</time>
      </trkpt>
      <trkpt lat="47.78235" lon="-3.39171">
        <ele>9.75</ele>
        <time>2015-09-06T06:32:26Z</time>
      </trkpt>
      <trkpt lat="47.78233" lon="-3.39173">
        <ele>9.75</ele>
        <time>2015-09-06T06:32:27Z</time>
      </trkpt>
      <trkpt lat="47.7823" lon="-3.39176">
        <ele>9.75</ele>
        <time>2015-09-06T06:32:28Z</time>
      </trkpt>
      <trkpt lat="47.78227" lon="-3.39179">
        <ele>9.75</ele>
        <time>2015-09-06T06:32:29Z</time>
      </trkpt>
      <trkpt lat="47.78225" lon="-3.39182">
        <ele>9.75</ele>
        <time>2015-09-06T06:32:30Z</time>
      </trkpt>
      <trkpt lat="47.78223" lon="-3.39185">
        <ele>9.75</ele>
        <time>2015-09-06T06:32:31Z</time>
      </trkpt>
      <trkpt lat="47.78221" lon="-3.39189">
        <ele>9.75</ele>
        <time>2015-09-06T06:32:32Z</time>
      </trkpt>
      <trkpt lat="47.78218" lon="-3.39193">
        <ele>9.75</ele>
        <time>2015-09-06T06:32:33Z</time>
      </trkpt>
      <trkpt lat="47.78217" lon="-3.39196">
        <ele>9.75</ele>
        <time>2015-09-06T06:32:34Z</time>
      </trkpt>
      <trkpt lat="47.78215" lon="-3.39199">
        <ele>11.19</ele>
        <time>2015-09-06T06:32:35Z</time>
      </trkpt>
      <trkpt lat="47.78213" lon="-3.39201">
        <ele>11.19</ele>
        <time>2015-09-06T06:32:36Z</time>
      </trkpt>
      <trkpt lat="47.78212" lon="-3.39202">
        <ele>11.19</ele>
        <time>2015-09-06T06:32:37Z</time>
      </trkpt>
      <trkpt lat="47.78211" lon="-3.39203">
        <ele>11.19</ele>
        <time>2015-09-06T06:32:38Z</time>
      </trkpt>
      <trkpt lat="47.7821" lon="-3.39205">
        <ele>11.19</ele>
        <time>2015-09-06T06:32:39Z</time>
      </trkpt>
      <trkpt lat="47.78208" lon="-3.39206">
        <ele>11.19</ele>
        <time>2015-09-06T06:32:40Z</time>
      </trkpt>
      <trkpt lat="47.78207" lon="-3.39207">
        <ele>11.19</ele>
        <time>2015-09-06T06:32:41Z</time>
      </trkpt>
      <trkpt lat="47.78206" lon="-3.39207">
        <ele>11.19</ele>
        <time>2015-09-06T06:32:42Z</time>
      </trkpt>
      <trkpt lat="47.78205" lon="-3.39206">
        <ele>11.19</ele>
        <time>2015-09-06T06:32:43Z</time>
      </trkpt>
      <trkpt lat="47.78204" lon="-3.39206">
        <ele>11.19</ele>
        <time>2015-09-06T06:32:44Z</time>
      </trkpt>
      <trkpt lat="47.78204" lon="-3.39205">
        <ele>11.19</ele>
        <time>2015-09-06T06:32:45Z</time>
      </trkpt>
      <trkpt lat="47.78203" lon="-3.39205">
        <ele>11.19</ele>
        <time>2015-09-06T06:32:46Z</time>
      </trkpt>
      <trkpt lat="47.78203" lon="-3.39204">
        <ele>11.19</ele>
        <time>2015-09-06T06:32:47Z</time>
      </trkpt>
      <trkpt lat="47.78202" lon="-3.39203">
        <ele>10.23</ele>
        <time>2015-09-06T06:32:48Z</time>
      </trkpt>
      <trkpt lat="47.78202" lon="-3.39202">
        <ele>10.23</ele>
        <time>2015-09-06T06:32:49Z</time>
      </trkpt>
      <trkpt lat="47.78202" lon="-3.39201">
        <ele>10.23</ele>
        <time>2015-09-06T06:32:50Z</time>
      </trkpt>
      <trkpt lat="47.782" lon="-3.392">
        <ele>9.75</ele>
        <time>2015-09-06T06:32:53Z</time>
      </trkpt>
      <trkpt lat="47.78199" lon="-3.39199">
        <ele>9.75</ele>
        <time>2015-09-06T06:32:54Z</time>
      </trkpt>
      <trkpt lat="47.78198" lon="-3.39199">
        <ele>9.75</ele>
        <time>2015-09-06T06:32:55Z</time>
      </trkpt>
      <trkpt lat="47.78198" lon="-3.39198">
        <ele>9.75</ele>
        <time>2015-09-06T06:32:56Z</time>
      </trkpt>
      <trkpt lat="47.78197" lon="-3.39199">
        <ele>9.75</ele>
        <time>2015-09-06T06:32:57Z</time>
      </trkpt>
      <trkpt lat="47.78196" lon="-3.39199">
        <ele>11.19</ele>
        <time>2015-09-06T06:32:58Z</time>
      </trkpt>
      <trkpt lat="47.78195" lon="-3.392">
        <ele>11.19</ele>
        <time>2015-09-06T06:32:59Z</time>
      </trkpt>
      <trkpt lat="47.78195" lon="-3.39201">
        <ele>11.67</ele>
        <time>2015-09-06T06:33:00Z</time>
      </trkpt>
      <trkpt lat="47.78194" lon="-3.39201">
        <ele>11.67</ele>
        <time>2015-09-06T06:33:01Z</time>
      </trkpt>
      <trkpt lat="47.78194" lon="-3.392">
        <ele>11.67</ele>
        <time>2015-09-06T06:33:02Z</time>
      </trkpt>
      <trkpt lat="47.78193" lon="-3.39198">
        <ele>12.63</ele>
        <time>2015-09-06T06:33:05Z</time>
      </trkpt>
      <trkpt lat="47.78193" lon="-3.39198">
        <ele>12.63</ele>
        <time>2015-09-06T06:33:06Z</time>
      </trkpt>
      <trkpt lat="47.7819" lon="-3.39195">
        <ele>14.08</ele>
        <time>2015-09-06T06:33:11Z</time>
      </trkpt>
      <trkpt lat="47.78189" lon="-3.39194">
        <ele>14.56</ele>
        <time>2015-09-06T06:33:12Z</time>
      </trkpt>
      <trkpt lat="47.78188" lon="-3.39194">
        <ele>14.56</ele>
        <time>2015-09-06T06:33:13Z</time>
      </trkpt>
      <trkpt lat="47.78187" lon="-3.39193">
        <ele>15.04</ele>
        <time>2015-09-06T06:33:14Z</time>
      </trkpt>
      <trkpt lat="47.78185" lon="-3.39193">
        <ele>15.04</ele>
        <time>2015-09-06T06:33:15Z</time>
      </trkpt>
      <trkpt lat="47.78184" lon="-3.39193">
        <ele>15.52</ele>
        <time>2015-09-06T06:33:16Z</time>
      </trkpt>
      <trkpt lat="47.78183" lon="-3.39193">
        <ele>15.52</ele>
        <time>2015-09-06T06:33:17Z</time>
      </trkpt>
      <trkpt lat="47.78183" lon="-3.39192">
        <ele>16.48</ele>
        <time>2015-09-06T06:33:18Z</time>
      </trkpt>
      <trkpt lat="47.78182" lon="-3.39192">
        <ele>16.48</ele>
        <time>2015-09-06T06:33:19Z</time>
      </trkpt>
      <trkpt lat="47.78181" lon="-3.39191">
        <ele>16.96</ele>
        <time>2015-09-06T06:33:20Z</time>
      </trkpt>
      <trkpt lat="47.78181" lon="-3.39191">
        <ele>16.96</ele>
        <time>2015-09-06T06:33:21Z</time>
      </trkpt>
      <trkpt lat="47.7818" lon="-3.3919">
        <ele>17.44</ele>
        <time>2015-09-06T06:33:22Z</time>
      </trkpt>
      <trkpt lat="47.7818" lon="-3.3919">
        <ele>17.44</ele>
        <time>2015-09-06T06:33:23Z</time>
      </trkpt>
      <trkpt lat="47.78179" lon="-3.39189">
        <ele>17.92</ele>
        <time>2015-09-06T06:33:24Z</time>
      </trkpt>
      <trkpt lat="47.78178" lon="-3.39188">
        <ele>18.4</ele>
        <time>2015-09-06T06:33:25Z</time>
      </trkpt>
      <trkpt lat="47.78177" lon="-3.39188">
        <ele>18.4</ele>
        <time>2015-09-06T06:33:26Z</time>
      </trkpt>
      <trkpt lat="47.78177" lon="-3.39187">
        <ele>18.88</ele>
        <time>2015-09-06T06:33:27Z</time>
      </trkpt>
      <trkpt lat="47.78176" lon="-3.39187">
        <ele>18.88</ele>
        <time>2015-09-06T06:33:28Z</time>
      </trkpt>
      <trkpt lat="47.78175" lon="-3.39186">
        <ele>18.88</ele>
        <time>2015-09-06T06:33:29Z</time>
      </trkpt>
      <trkpt lat="47.78175" lon="-3.39185">
        <ele>19.36</ele>
        <time>2015-09-06T06:33:30Z</time>
      </trkpt>
      <trkpt lat="47.78174" lon="-3.39184">
        <ele>19.84</ele>
        <time>2015-09-06T06:33:31Z</time>
      </trkpt>
      <trkpt lat="47.78174" lon="-3.39183">
        <ele>19.84</ele>
        <time>2015-09-06T06:33:32Z</time>
      </trkpt>
      <trkpt lat="47.78173" lon="-3.39183">
        <ele>19.84</ele>
        <time>2015-09-06T06:33:33Z</time>
      </trkpt>
      <trkpt lat="47.78172" lon="-3.39183">
        <ele>20.32</ele>
        <time>2015-09-06T06:33:34Z</time>
      </trkpt>
      <trkpt lat="47.7817" lon="-3.39182">
        <ele>20.32</ele>
        <time>2015-09-06T06:33:38Z</time>
      </trkpt>
      <trkpt lat="47.78169" lon="-3.39182">
        <ele>20.81</ele>
        <time>2015-09-06T06:33:39Z</time>
      </trkpt>
      <trkpt lat="47.78169" lon="-3.39183">
        <ele>20.81</ele>
        <time>2015-09-06T06:33:40Z</time>
      </trkpt>
      <trkpt lat="47.78168" lon="-3.39183">
        <ele>21.29</ele>
        <time>2015-09-06T06:33:41Z</time>
      </trkpt>
      <trkpt lat="47.78166" lon="-3.39185">
        <ele>21.29</ele>
        <time>2015-09-06T06:33:42Z</time>
      </trkpt>
      <trkpt lat="47.78165" lon="-3.39186">
        <ele>21.77</ele>
        <time>2015-09-06T06:33:43Z</time>
      </trkpt>
      <trkpt lat="47.78163" lon="-3.39187">
        <ele>21.77</ele>
        <time>2015-09-06T06:33:44Z</time>
      </trkpt>
      <trkpt lat="47.78162" lon="-3.39187">
        <ele>21.77</ele>
        <time>2015-09-06T06:33:45Z</time>
      </trkpt>
      <trkpt lat="47.7816" lon="-3.39189">
        <ele>22.25</ele>
        <time>2015-09-06T06:33:46Z</time>
      </trkpt>
      <trkpt lat="47.78159" lon="-3.3919">
        <ele>22.25</ele>
        <time>2015-09-06T06:33:47Z</time>
      </trkpt>
      <trkpt lat="47.78157" lon="-3.39192">
        <ele>22.25</ele>
        <time>2015-09-06T06:33:48Z</time>
      </trkpt>
      <trkpt lat="47.78155" lon="-3.39194">
        <ele>22.73</ele>
        <time>2015-09-06T06:33:49Z</time>
      </trkpt>
      <trkpt lat="47.78153" lon="-3.39195">
        <ele>22.73</ele>
        <time>2015-09-06T06:33:50Z</time>
      </trkpt>
      <trkpt lat="47.78151" lon="-3.39195">
        <ele>23.21</ele>
        <time>2015-09-06T06:33:51Z</time>
      </trkpt>
      <trkpt lat="47.78148" lon="-3.39196">
        <ele>23.21</ele>
        <time>2015-09-06T06:33:52Z</time>
      </trkpt>
      <trkpt lat="47.78147" lon="-3.39197">
        <ele>23.21</ele>
        <time>2015-09-06T06:33:53Z</time>
      </trkpt>
      <trkpt lat="47.78145" lon="-3.39198">
        <ele>23.69</ele>
        <time>2015-09-06T06:33:54Z</time>
      </trkpt>
      <trkpt lat="47.78143" lon="-3.39199">
        <ele>24.17</ele>
        <time>2015-09-06T06:33:55Z</time>
      </trkpt>
      <trkpt lat="47.78141" lon="-3.39201">
        <ele>24.17</ele>
        <time>2015-09-06T06:33:56Z</time>
      </trkpt>
      <trkpt lat="47.78139" lon="-3.39203">
        <ele>24.17</ele>
        <time>2015-09-06T06:33:57Z</time>
      </trkpt>
      <trkpt lat="47.78137" lon="-3.39204">
        <ele>24.65</ele>
        <time>2015-09-06T06:33:58Z</time>
      </trkpt>
      <trkpt lat="47.78135" lon="-3.39206">
        <ele>24.65</ele>
        <time>2015-09-06T06:33:59Z</time>
      </trkpt>
      <trkpt lat="47.78132" lon="-3.39208">
        <ele>24.65</ele>
        <time>2015-09-06T06:34:00Z</time>
      </trkpt>
      <trkpt lat="47.78131" lon="-3.3921">
        <ele>24.65</ele>
        <time>2015-09-06T06:34:01Z</time>
      </trkpt>
      <trkpt lat="47.78129" lon="-3.39212">
        <ele>25.13</ele>
        <time>2015-09-06T06:34:02Z</time>
      </trkpt>
      <trkpt lat="47.78128" lon="-3.39214">
        <ele>25.13</ele>
        <time>2015-09-06T06:34:03Z</time>
      </trkpt>
      <trkpt lat="47.78128" lon="-3.39217">
        <ele>25.13</ele>
        <time>2015-09-06T06:34:04Z</time>
      </trkpt>
      <trkpt lat="47.78126" lon="-3.3922">
        <ele>25.13</ele>
        <time>2015-09-06T06:34:05Z</time>
      </trkpt>
      <trkpt lat="47.78125" lon="-3.39224">
        <ele>25.13</ele>
        <time>2015-09-06T06:34:06Z</time>
      </trkpt>
      <trkpt lat="47.78123" lon="-3.39227">
        <ele>25.13</ele>
        <time>2015-09-06T06:34:07Z</time>
      </trkpt>
      <trkpt lat="47.78121" lon="-3.39231">
        <ele>25.13</ele>
        <time>2015-09-06T06:34:08Z</time>
      </trkpt>
      <trkpt lat="47.78118" lon="-3.39234">
        <ele>23.21</ele>
        <time>2015-09-06T06:34:09Z</time>
      </trkpt>
      <trkpt lat="47.78116" lon="-3.39237">
        <ele>22.25</ele>
        <time>2015-09-06T06:34:10Z</time>
      </trkpt>
      <trkpt lat="47.78113" lon="-3.3924">
        <ele>21.29</ele>
        <time>2015-09-06T06:34:11Z</time>
      </trkpt>
      <trkpt lat="47.78111" lon="-3.39244">
        <ele>20.32</ele>
        <time>2015-09-06T06:34:12Z</time>
      </trkpt>
      <trkpt lat="47.78109" lon="-3.39246">
        <ele>20.32</ele>
        <time>2015-09-06T06:34:13Z</time>
      </trkpt>
      <trkpt lat="47.78107" lon="-3.3925">
        <ele>20.32</ele>
        <time>2015-09-06T06:34:14Z</time>
      </trkpt>
      <trkpt lat="47.78105" lon="-3.39254">
        <ele>21.77</ele>
        <time>2015-09-06T06:34:15Z</time>
      </trkpt>
      <trkpt lat="47.78103" lon="-3.39257">
        <ele>22.25</ele>
        <time>2015-09-06T06:34:16Z</time>
      </trkpt>
      <trkpt lat="47.78101" lon="-3.3926">
        <ele>23.21</ele>
        <time>2015-09-06T06:34:17Z</time>
      </trkpt>
      <trkpt lat="47.781" lon="-3.39262">
        <ele>23.69</ele>
        <time>2015-09-06T06:34:18Z</time>
      </trkpt>
      <trkpt lat="47.78099" lon="-3.39264">
        <ele>23.69</ele>
        <time>2015-09-06T06:34:19Z</time>
      </trkpt>
      <trkpt lat="47.78098" lon="-3.39267">
        <ele>24.17</ele>
        <time>2015-09-06T06:34:20Z</time>
      </trkpt>
      <trkpt lat="47.78096" lon="-3.39269">
        <ele>24.65</ele>
        <time>2015-09-06T06:34:21Z</time>
      </trkpt>
      <trkpt lat="47.78095" lon="-3.39271">
        <ele>25.13</ele>
        <time>2015-09-06T06:34:22Z</time>
      </trkpt>
      <trkpt lat="47.78094" lon="-3.39273">
        <ele>25.13</ele>
        <time>2015-09-06T06:34:23Z</time>
      </trkpt>
      <trkpt lat="47.78093" lon="-3.39276">
        <ele>25.61</ele>
        <time>2015-09-06T06:34:24Z</time>
      </trkpt>
      <trkpt lat="47.78093" lon="-3.39278">
        <ele>25.61</ele>
        <time>2015-09-06T06:34:25Z</time>
      </trkpt>
      <trkpt lat="47.78091" lon="-3.39281">
        <ele>25.61</ele>
        <time>2015-09-06T06:34:26Z</time>
      </trkpt>
      <trkpt lat="47.78089" lon="-3.39284">
        <ele>26.09</ele>
        <time>2015-09-06T06:34:27Z</time>
      </trkpt>
      <trkpt lat="47.78087" lon="-3.39287">
        <ele>26.09</ele>
        <time>2015-09-06T06:34:28Z</time>
      </trkpt>
      <trkpt lat="47.78085" lon="-3.3929">
        <ele>26.57</ele>
        <time>2015-09-06T06:34:29Z</time>
      </trkpt>
      <trkpt lat="47.78083" lon="-3.39293">
        <ele>26.57</ele>
        <time>2015-09-06T06:34:30Z</time>
      </trkpt>
      <trkpt lat="47.78081" lon="-3.39295">
        <ele>26.57</ele>
        <time>2015-09-06T06:34:31Z</time>
      </trkpt>
      <trkpt lat="47.78079" lon="-3.39298">
        <ele>26.57</ele>
        <time>2015-09-06T06:34:32Z</time>
      </trkpt>
      <trkpt lat="47.78076" lon="-3.393">
        <ele>26.57</ele>
        <time>2015-09-06T06:34:33Z</time>
      </trkpt>
      <trkpt lat="47.78074" lon="-3.39303">
        <ele>27.05</ele>
        <time>2015-09-06T06:34:34Z</time>
      </trkpt>
      <trkpt lat="47.78072" lon="-3.39305">
        <ele>27.05</ele>
        <time>2015-09-06T06:34:35Z</time>
      </trkpt>
      <trkpt lat="47.7807" lon="-3.39308">
        <ele>27.05</ele>
        <time>2015-09-06T06:34:36Z</time>
      </trkpt>
      <trkpt lat="47.78067" lon="-3.3931">
        <ele>27.05</ele>
        <time>2015-09-06T06:34:37Z</time>
      </trkpt>
      <trkpt lat="47.78064" lon="-3.39312">
        <ele>27.05</ele>
        <time>2015-09-06T06:34:38Z</time>
      </trkpt>
      <trkpt lat="47.78061" lon="-3.39313">
        <ele>27.05</ele>
        <time>2015-09-06T06:34:39Z</time>
      </trkpt>
      <trkpt lat="47.78058" lon="-3.39313">
        <ele>27.05</ele>
        <time>2015-09-06T06:34:40Z</time>
      </trkpt>
      <trkpt lat="47.78056" lon="-3.39312">
        <ele>27.53</ele>
        <time>2015-09-06T06:34:41Z</time>
      </trkpt>
      <trkpt lat="47.78054" lon="-3.39311">
        <ele>27.53</ele>
        <time>2015-09-06T06:34:42Z</time>
      </trkpt>
      <trkpt lat="47.78052" lon="-3.3931">
        <ele>28.02</ele>
        <time>2015-09-06T06:34:43Z</time>
      </trkpt>
      <trkpt lat="47.78049" lon="-3.39309">
        <ele>28.5</ele>
        <time>2015-09-06T06:34:44Z</time>
      </trkpt>
      <trkpt lat="47.78047" lon="-3.39308">
        <ele>28.5</ele>
        <time>2015-09-06T06:34:45Z</time>
      </trkpt>
      <trkpt lat="47.78045" lon="-3.39307">
        <ele>28.5</ele>
        <time>2015-09-06T06:34:46Z</time>
      </trkpt>
      <trkpt lat="47.78043" lon="-3.39306">
        <ele>28.5</ele>
        <time>2015-09-06T06:34:47Z</time>
      </trkpt>
      <trkpt lat="47.78042" lon="-3.39306">
        <ele>28.5</ele>
        <time>2015-09-06T06:34:48Z</time>
      </trkpt>
      <trkpt lat="47.7804" lon="-3.39305">
        <ele>28.98</ele>
        <time>2015-09-06T06:34:49Z</time>
      </trkpt>
      <trkpt lat="47.78038" lon="-3.39304">
        <ele>29.46</ele>
        <time>2015-09-06T06:34:50Z</time>
      </trkpt>
      <trkpt lat="47.78036" lon="-3.39302">
        <ele>29.46</ele>
        <time>2015-09-06T06:34:51Z</time>
      </trkpt>
      <trkpt lat="47.78034" lon="-3.39302">
        <ele>29.46</ele>
        <time>2015-09-06T06:34:52Z</time>
      </trkpt>
      <trkpt lat="47.78032" lon="-3.39301">
        <ele>29.46</ele>
        <time>2015-09-06T06:34:53Z</time>
      </trkpt>
      <trkpt lat="47.7803" lon="-3.393">
        <ele>29.94</ele>
        <time>2015-09-06T06:34:54Z</time>
      </trkpt>
      <trkpt lat="47.78028" lon="-3.393">
        <ele>29.94</ele>
        <time>2015-09-06T06:34:55Z</time>
      </trkpt>
      <trkpt lat="47.78026" lon="-3.39299">
        <ele>30.42</ele>
        <time>2015-09-06T06:34:56Z</time>
      </trkpt>
      <trkpt lat="47.78024" lon="-3.39298">
        <ele>30.42</ele>
        <time>2015-09-06T06:34:57Z</time>
      </trkpt>
      <trkpt lat="47.78022" lon="-3.39298">
        <ele>30.9</ele>
        <time>2015-09-06T06:34:58Z</time>
      </trkpt>
      <trkpt lat="47.78019" lon="-3.39297">
        <ele>30.9</ele>
        <time>2015-09-06T06:34:59Z</time>
      </trkpt>
      <trkpt lat="47.78017" lon="-3.39295">
        <ele>31.86</ele>
        <time>2015-09-06T06:35:00Z</time>
      </trkpt>
      <trkpt lat="47.78015" lon="-3.39294">
        <ele>32.34</ele>
        <time>2015-09-06T06:35:01Z</time>
      </trkpt>
      <trkpt lat="47.78013" lon="-3.39294">
        <ele>32.82</ele>
        <time>2015-09-06T06:35:02Z</time>
      </trkpt>
      <trkpt lat="47.78011" lon="-3.39292">
        <ele>32.82</ele>
        <time>2015-09-06T06:35:03Z</time>
      </trkpt>
      <trkpt lat="47.78009" lon="-3.39291">
        <ele>33.3</ele>
        <time>2015-09-06T06:35:04Z</time>
      </trkpt>
      <trkpt lat="47.78007" lon="-3.3929">
        <ele>34.26</ele>
        <time>2015-09-06T06:35:05Z</time>
      </trkpt>
      <trkpt lat="47.78006" lon="-3.39289">
        <ele>34.26</ele>
        <time>2015-09-06T06:35:06Z</time>
      </trkpt>
      <trkpt lat="47.78004" lon="-3.39288">
        <ele>34.74</ele>
        <time>2015-09-06T06:35:07Z</time>
      </trkpt>
      <trkpt lat="47.78002" lon="-3.39287">
        <ele>34.74</ele>
        <time>2015-09-06T06:35:08Z</time>
      </trkpt>
      <trkpt lat="47.77999" lon="-3.39286">
        <ele>35.71</ele>
        <time>2015-09-06T06:35:09Z</time>
      </trkpt>
      <trkpt lat="47.77997" lon="-3.39285">
        <ele>35.71</ele>
        <time>2015-09-06T06:35:10Z</time>
      </trkpt>
      <trkpt lat="47.77995" lon="-3.39283">
        <ele>35.71</ele>
        <time>2015-09-06T06:35:11Z</time>
      </trkpt>
      <trkpt lat="47.77993" lon="-3.3928">
        <ele>35.71</ele>
        <time>2015-09-06T06:35:12Z</time>
      </trkpt>
      <trkpt lat="47.77992" lon="-3.39276">
        <ele>35.71</ele>
        <time>2015-09-06T06:35:13Z</time>
      </trkpt>
      <trkpt lat="47.77992" lon="-3.39273">
        <ele>35.71</ele>
        <time>2015-09-06T06:35:14Z</time>
      </trkpt>
      <trkpt lat="47.77993" lon="-3.39267">
        <ele>35.71</ele>
        <time>2015-09-06T06:35:15Z</time>
      </trkpt>
      <trkpt lat="47.77993" lon="-3.39263">
        <ele>35.71</ele>
        <time>2015-09-06T06:35:16Z</time>
      </trkpt>
      <trkpt lat="47.77993" lon="-3.39257">
        <ele>35.71</ele>
        <time>2015-09-06T06:35:17Z</time>
      </trkpt>
      <trkpt lat="47.77994" lon="-3.39251">
        <ele>35.71</ele>
        <time>2015-09-06T06:35:18Z</time>
      </trkpt>
      <trkpt lat="47.77994" lon="-3.39244">
        <ele>35.71</ele>
        <time>2015-09-06T06:35:19Z</time>
      </trkpt>
      <trkpt lat="47.77995" lon="-3.39238">
        <ele>35.71</ele>
        <time>2015-09-06T06:35:20Z</time>
      </trkpt>
      <trkpt lat="47.77996" lon="-3.39232">
        <ele>35.71</ele>
        <time>2015-09-06T06:35:21Z</time>
      </trkpt>
      <trkpt lat="47.77997" lon="-3.39225">
        <ele>35.71</ele>
        <time>2015-09-06T06:35:22Z</time>
      </trkpt>
      <trkpt lat="47.77998" lon="-3.39218">
        <ele>35.71</ele>
        <time>2015-09-06T06:35:23Z</time>
      </trkpt>
      <trkpt lat="47.77999" lon="-3.3921">
        <ele>35.71</ele>
        <time>2015-09-06T06:35:24Z</time>
      </trkpt>
      <trkpt lat="47.78" lon="-3.39204">
        <ele>34.26</ele>
        <time>2015-09-06T06:35:25Z</time>
      </trkpt>
      <trkpt lat="47.78001" lon="-3.39196">
        <ele>34.26</ele>
        <time>2015-09-06T06:35:26Z</time>
      </trkpt>
      <trkpt lat="47.78003" lon="-3.39189">
        <ele>34.26</ele>
        <time>2015-09-06T06:35:27Z</time>
      </trkpt>
      <trkpt lat="47.78004" lon="-3.39182">
        <ele>34.26</ele>
        <time>2015-09-06T06:35:28Z</time>
      </trkpt>
      <trkpt lat="47.78005" lon="-3.39176">
        <ele>34.26</ele>
        <time>2015-09-06T06:35:29Z</time>
      </trkpt>
      <trkpt lat="47.78007" lon="-3.39168">
        <ele>34.26</ele>
        <time>2015-09-06T06:35:30Z</time>
      </trkpt>
      <trkpt lat="47.78008" lon="-3.39161">
        <ele>34.26</ele>
        <time>2015-09-06T06:35:31Z</time>
      </trkpt>
      <trkpt lat="47.78009" lon="-3.39154">
        <ele>34.26</ele>
        <time>2015-09-06T06:35:32Z</time>
      </trkpt>
      <trkpt lat="47.78011" lon="-3.39147">
        <ele>34.26</ele>
        <time>2015-09-06T06:35:33Z</time>
      </trkpt>
      <trkpt lat="47.78012" lon="-3.39139">
        <ele>34.26</ele>
        <time>2015-09-06T06:35:34Z</time>
      </trkpt>
      <trkpt lat="47.78013" lon="-3.39132">
        <ele>33.78</ele>
        <time>2015-09-06T06:35:35Z</time>
      </trkpt>
      <trkpt lat="47.78015" lon="-3.39124">
        <ele>33.78</ele>
        <time>2015-09-06T06:35:36Z</time>
      </trkpt>
      <trkpt lat="47.78016" lon="-3.39117">
        <ele>33.3</ele>
        <time>2015-09-06T06:35:37Z</time>
      </trkpt>
      <trkpt lat="47.78017" lon="-3.39109">
        <ele>33.3</ele>
        <time>2015-09-06T06:35:38Z</time>
      </trkpt>
      <trkpt lat="47.78018" lon="-3.39102">
        <ele>33.3</ele>
        <time>2015-09-06T06:35:39Z</time>
      </trkpt>
      <trkpt lat="47.7802" lon="-3.39095">
        <ele>33.3</ele>
        <time>2015-09-06T06:35:40Z</time>
      </trkpt>
      <trkpt lat="47.78022" lon="-3.39088">
        <ele>32.82</ele>
        <time>2015-09-06T06:35:41Z</time>
      </trkpt>
      <trkpt lat="47.78023" lon="-3.3908">
        <ele>32.82</ele>
        <time>2015-09-06T06:35:42Z</time>
      </trkpt>
      <trkpt lat="47.78024" lon="-3.39074">
        <ele>32.34</ele>
        <time>2015-09-06T06:35:43Z</time>
      </trkpt>
      <trkpt lat="47.78026" lon="-3.39067">
        <ele>32.34</ele>
        <time>2015-09-06T06:35:44Z</time>
      </trkpt>
      <trkpt lat="47.78027" lon="-3.39062">
        <ele>32.34</ele>
        <time>2015-09-06T06:35:45Z</time>
      </trkpt>
      <trkpt lat="47.78029" lon="-3.39057">
        <ele>32.34</ele>
        <time>2015-09-06T06:35:46Z</time>
      </trkpt>
      <trkpt lat="47.78032" lon="-3.39055">
        <ele>32.34</ele>
        <time>2015-09-06T06:35:47Z</time>
      </trkpt>
      <trkpt lat="47.78035" lon="-3.39053">
        <ele>31.86</ele>
        <time>2015-09-06T06:35:48Z</time>
      </trkpt>
      <trkpt lat="47.78039" lon="-3.39053">
        <ele>31.38</ele>
        <time>2015-09-06T06:35:49Z</time>
      </trkpt>
      <trkpt lat="47.78042" lon="-3.39052">
        <ele>31.38</ele>
        <time>2015-09-06T06:35:50Z</time>
      </trkpt>
      <trkpt lat="47.78046" lon="-3.39051">
        <ele>30.42</ele>
        <time>2015-09-06T06:35:51Z</time>
      </trkpt>
      <trkpt lat="47.78051" lon="-3.3905">
        <ele>29.94</ele>
        <time>2015-09-06T06:35:52Z</time>
      </trkpt>
      <trkpt lat="47.78055" lon="-3.39049">
        <ele>28.98</ele>
        <time>2015-09-06T06:35:53Z</time>
      </trkpt>
      <trkpt lat="47.78059" lon="-3.39048">
        <ele>28.98</ele>
        <time>2015-09-06T06:35:54Z</time>
      </trkpt>
      <trkpt lat="47.78064" lon="-3.39047">
        <ele>28.02</ele>
        <time>2015-09-06T06:35:55Z</time>
      </trkpt>
      <trkpt lat="47.78068" lon="-3.39046">
        <ele>27.05</ele>
        <time>2015-09-06T06:35:56Z</time>
      </trkpt>
      <trkpt lat="47.78072" lon="-3.39044">
        <ele>26.09</ele>
        <time>2015-09-06T06:35:57Z</time>
      </trkpt>
      <trkpt lat="47.78076" lon="-3.39043">
        <ele>25.13</ele>
        <time>2015-09-06T06:35:58Z</time>
      </trkpt>
      <trkpt lat="47.7808" lon="-3.39041">
        <ele>24.17</ele>
        <time>2015-09-06T06:35:59Z</time>
      </trkpt>
      <trkpt lat="47.78083" lon="-3.39038">
        <ele>23.21</ele>
        <time>2015-09-06T06:36:00Z</time>
      </trkpt>
      <trkpt lat="47.78087" lon="-3.39033">
        <ele>22.25</ele>
        <time>2015-09-06T06:36:01Z</time>
      </trkpt>
      <trkpt lat="47.78089" lon="-3.39029">
        <ele>21.77</ele>
        <time>2015-09-06T06:36:02Z</time>
      </trkpt>
      <trkpt lat="47.78091" lon="-3.39022">
        <ele>21.77</ele>
        <time>2015-09-06T06:36:03Z</time>
      </trkpt>
      <trkpt lat="47.78093" lon="-3.39016">
        <ele>21.77</ele>
        <time>2015-09-06T06:36:04Z</time>
      </trkpt>
      <trkpt lat="47.78096" lon="-3.39009">
        <ele>21.29</ele>
        <time>2015-09-06T06:36:05Z</time>
      </trkpt>
      <trkpt lat="47.78098" lon="-3.39003">
        <ele>21.77</ele>
        <time>2015-09-06T06:36:06Z</time>
      </trkpt>
      <trkpt lat="47.78101" lon="-3.38997">
        <ele>21.29</ele>
        <time>2015-09-06T06:36:07Z</time>
      </trkpt>
      <trkpt lat="47.78105" lon="-3.38991">
        <ele>21.29</ele>
        <time>2015-09-06T06:36:08Z</time>
      </trkpt>
      <trkpt lat="47.78108" lon="-3.38987">
        <ele>21.29</ele>
        <time>2015-09-06T06:36:09Z</time>
      </trkpt>
      <trkpt lat="47.78111" lon="-3.38981">
        <ele>21.29</ele>
        <time>2015-09-06T06:36:10Z</time>
      </trkpt>
      <trkpt lat="47.78115" lon="-3.38976">
        <ele>21.77</ele>
        <time>2015-09-06T06:36:11Z</time>
      </trkpt>
      <trkpt lat="47.78118" lon="-3.3897">
        <ele>21.77</ele>
        <time>2015-09-06T06:36:12Z</time>
      </trkpt>
      <trkpt lat="47.78122" lon="-3.38966">
        <ele>21.77</ele>
        <time>2015-09-06T06:36:13Z</time>
      </trkpt>
      <trkpt lat="47.78125" lon="-3.38962">
        <ele>21.77</ele>
        <time>2015-09-06T06:36:14Z</time>
      </trkpt>
      <trkpt lat="47.78129" lon="-3.38958">
        <ele>21.77</ele>
        <time>2015-09-06T06:36:15Z</time>
      </trkpt>
      <trkpt lat="47.78131" lon="-3.38954">
        <ele>21.77</ele>
        <time>2015-09-06T06:36:16Z</time>
      </trkpt>
      <trkpt lat="47.78132" lon="-3.38951">
        <ele>22.73</ele>
        <time>2015-09-06T06:36:17Z</time>
      </trkpt>
      <trkpt lat="47.78133" lon="-3.38948">
        <ele>23.69</ele>
        <time>2015-09-06T06:36:18Z</time>
      </trkpt>
      <trkpt lat="47.78133" lon="-3.38945">
        <ele>24.65</ele>
        <time>2015-09-06T06:36:19Z</time>
      </trkpt>
      <trkpt lat="47.78133" lon="-3.38942">
        <ele>25.13</ele>
        <time>2015-09-06T06:36:20Z</time>
      </trkpt>
      <trkpt lat="47.78134" lon="-3.3894">
        <ele>25.61</ele>
        <time>2015-09-06T06:36:21Z</time>
      </trkpt>
      <trkpt lat="47.78135" lon="-3.38938">
        <ele>26.09</ele>
        <time>2015-09-06T06:36:22Z</time>
      </trkpt>
      <trkpt lat="47.78136" lon="-3.38936">
        <ele>26.09</ele>
        <time>2015-09-06T06:36:23Z</time>
      </trkpt>
      <trkpt lat="47.78138" lon="-3.38933">
        <ele>26.57</ele>
        <time>2015-09-06T06:36:24Z</time>
      </trkpt>
      <trkpt lat="47.7814" lon="-3.3893">
        <ele>26.57</ele>
        <time>2015-09-06T06:36:25Z</time>
      </trkpt>
      <trkpt lat="47.78143" lon="-3.38927">
        <ele>26.57</ele>
        <time>2015-09-06T06:36:26Z</time>
      </trkpt>
      <trkpt lat="47.78145" lon="-3.38924">
        <ele>26.57</ele>
        <time>2015-09-06T06:36:27Z</time>
      </trkpt>
      <trkpt lat="47.78148" lon="-3.38921">
        <ele>26.57</ele>
        <time>2015-09-06T06:36:28Z</time>
      </trkpt>
      <trkpt lat="47.7815" lon="-3.38918">
        <ele>26.57</ele>
        <time>2015-09-06T06:36:29Z</time>
      </trkpt>
      <trkpt lat="47.78151" lon="-3.38915">
        <ele>27.05</ele>
        <time>2015-09-06T06:36:30Z</time>
      </trkpt>
      <trkpt lat="47.78152" lon="-3.38911">
        <ele>27.53</ele>
        <time>2015-09-06T06:36:31Z</time>
      </trkpt>
      <trkpt lat="47.78153" lon="-3.38908">
        <ele>27.53</ele>
        <time>2015-09-06T06:36:32Z</time>
      </trkpt>
      <trkpt lat="47.78154" lon="-3.38906">
        <ele>27.53</ele>
        <time>2015-09-06T06:36:33Z</time>
      </trkpt>
      <trkpt lat="47.78156" lon="-3.38903">
        <ele>27.53</ele>
        <time>2015-09-06T06:36:34Z</time>
      </trkpt>
      <trkpt lat="47.78156" lon="-3.389">
        <ele>28.02</ele>
        <time>2015-09-06T06:36:35Z</time>
      </trkpt>
      <trkpt lat="47.78157" lon="-3.38898">
        <ele>28.02</ele>
        <time>2015-09-06T06:36:36Z</time>
      </trkpt>
      <trkpt lat="47.78158" lon="-3.38895">
        <ele>28.02</ele>
        <time>2015-09-06T06:36:37Z</time>
      </trkpt>
      <trkpt lat="47.78159" lon="-3.38893">
        <ele>28.98</ele>
        <time>2015-09-06T06:36:38Z</time>
      </trkpt>
      <trkpt lat="47.7816" lon="-3.3889">
        <ele>28.98</ele>
        <time>2015-09-06T06:36:39Z</time>
      </trkpt>
      <trkpt lat="47.7816" lon="-3.38887">
        <ele>29.46</ele>
        <time>2015-09-06T06:36:40Z</time>
      </trkpt>
      <trkpt lat="47.78161" lon="-3.38884">
        <ele>29.46</ele>
        <time>2015-09-06T06:36:41Z</time>
      </trkpt>
      <trkpt lat="47.78161" lon="-3.3888">
        <ele>29.46</ele>
        <time>2015-09-06T06:36:42Z</time>
      </trkpt>
      <trkpt lat="47.78162" lon="-3.38877">
        <ele>29.94</ele>
        <time>2015-09-06T06:36:43Z</time>
      </trkpt>
      <trkpt lat="47.78163" lon="-3.38874">
        <ele>29.94</ele>
        <time>2015-09-06T06:36:44Z</time>
      </trkpt>
      <trkpt lat="47.78164" lon="-3.3887">
        <ele>29.94</ele>
        <time>2015-09-06T06:36:45Z</time>
      </trkpt>
      <trkpt lat="47.78165" lon="-3.38866">
        <ele>29.94</ele>
        <time>2015-09-06T06:36:46Z</time>
      </trkpt>
      <trkpt lat="47.78165" lon="-3.38862">
        <ele>29.94</ele>
        <time>2015-09-06T06:36:47Z</time>
      </trkpt>
      <trkpt lat="47.78167" lon="-3.38859">
        <ele>29.94</ele>
        <time>2015-09-06T06:36:48Z</time>
      </trkpt>
      <trkpt lat="47.78167" lon="-3.38856">
        <ele>29.94</ele>
        <time>2015-09-06T06:36:49Z</time>
      </trkpt>
      <trkpt lat="47.78168" lon="-3.38853">
        <ele>29.94</ele>
        <time>2015-09-06T06:36:50Z</time>
      </trkpt>
      <trkpt lat="47.78168" lon="-3.3885">
        <ele>30.42</ele>
        <time>2015-09-06T06:36:51Z</time>
      </trkpt>
      <trkpt lat="47.78169" lon="-3.38846">
        <ele>30.42</ele>
        <time>2015-09-06T06:36:52Z</time>
      </trkpt>
      <trkpt lat="47.78169" lon="-3.38843">
        <ele>30.42</ele>
        <time>2015-09-06T06:36:53Z</time>
      </trkpt>
      <trkpt lat="47.7817" lon="-3.38839">
        <ele>30.9</ele>
        <time>2015-09-06T06:36:54Z</time>
      </trkpt>
      <trkpt lat="47.7817" lon="-3.38836">
        <ele>30.9</ele>
        <time>2015-09-06T06:36:55Z</time>
      </trkpt>
      <trkpt lat="47.7817" lon="-3.38832">
        <ele>31.38</ele>
        <time>2015-09-06T06:36:56Z</time>
      </trkpt>
      <trkpt lat="47.7817" lon="-3.3883">
        <ele>31.86</ele>
        <time>2015-09-06T06:36:57Z</time>
      </trkpt>
      <trkpt lat="47.7817" lon="-3.38826">
        <ele>31.86</ele>
        <time>2015-09-06T06:36:58Z</time>
      </trkpt>
      <trkpt lat="47.7817" lon="-3.38823">
        <ele>31.86</ele>
        <time>2015-09-06T06:36:59Z</time>
      </trkpt>
      <trkpt lat="47.78169" lon="-3.38822">
        <ele>32.34</ele>
        <time>2015-09-06T06:37:00Z</time>
      </trkpt>
      <trkpt lat="47.78169" lon="-3.3882">
        <ele>32.34</ele>
        <time>2015-09-06T06:37:01Z</time>
      </trkpt>
      <trkpt lat="47.78168" lon="-3.38818">
        <ele>32.82</ele>
        <time>2015-09-06T06:37:02Z</time>
      </trkpt>
      <trkpt lat="47.78167" lon="-3.38817">
        <ele>32.82</ele>
        <time>2015-09-06T06:37:03Z</time>
      </trkpt>
      <trkpt lat="47.78167" lon="-3.38815">
        <ele>32.82</ele>
        <time>2015-09-06T06:37:04Z</time>
      </trkpt>
      <trkpt lat="47.78167" lon="-3.38812">
        <ele>33.3</ele>
        <time>2015-09-06T06:37:05Z</time>
      </trkpt>
      <trkpt lat="47.78167" lon="-3.38809">
        <ele>33.3</ele>
        <time>2015-09-06T06:37:06Z</time>
      </trkpt>
      <trkpt lat="47.78168" lon="-3.38805">
        <ele>33.3</ele>
        <time>2015-09-06T06:37:07Z</time>
      </trkpt>
      <trkpt lat="47.7817" lon="-3.388">
        <ele>33.3</ele>
        <time>2015-09-06T06:37:08Z</time>
      </trkpt>
      <trkpt lat="47.78171" lon="-3.38794">
        <ele>31.86</ele>
        <time>2015-09-06T06:37:09Z</time>
      </trkpt>
      <trkpt lat="47.78173" lon="-3.3879">
        <ele>30.9</ele>
        <time>2015-09-06T06:37:10Z</time>
      </trkpt>
      <trkpt lat="47.78175" lon="-3.38787">
        <ele>30.42</ele>
        <time>2015-09-06T06:37:11Z</time>
      </trkpt>
      <trkpt lat="47.78177" lon="-3.38785">
        <ele>30.42</ele>
        <time>2015-09-06T06:37:12Z</time>
      </trkpt>
      <trkpt lat="47.78179" lon="-3.38782">
        <ele>29.46</ele>
        <time>2015-09-06T06:37:13Z</time>
      </trkpt>
      <trkpt lat="47.78181" lon="-3.3878">
        <ele>28.5</ele>
        <time>2015-09-06T06:37:14Z</time>
      </trkpt>
      <trkpt lat="47.78183" lon="-3.38778">
        <ele>27.53</ele>
        <time>2015-09-06T06:37:15Z</time>
      </trkpt>
      <trkpt lat="47.78184" lon="-3.38777">
        <ele>27.05</ele>
        <time>2015-09-06T06:37:16Z</time>
      </trkpt>
      <trkpt lat="47.78186" lon="-3.38777">
        <ele>26.57</ele>
        <time>2015-09-06T06:37:17Z</time>
      </trkpt>
      <trkpt lat="47.78188" lon="-3.38777">
        <ele>26.57</ele>
        <time>2015-09-06T06:37:18Z</time>
      </trkpt>
      <trkpt lat="47.7819" lon="-3.38776">
        <ele>25.61</ele>
        <time>2015-09-06T06:37:19Z</time>
      </trkpt>
      <trkpt lat="47.78192" lon="-3.38775">
        <ele>24.65</ele>
        <time>2015-09-06T06:37:20Z</time>
      </trkpt>
      <trkpt lat="47.78193" lon="-3.38775">
        <ele>23.69</ele>
        <time>2015-09-06T06:37:21Z</time>
      </trkpt>
      <trkpt lat="47.78195" lon="-3.38774">
        <ele>23.21</ele>
        <time>2015-09-06T06:37:22Z</time>
      </trkpt>
      <trkpt lat="47.78197" lon="-3.38774">
        <ele>22.73</ele>
        <time>2015-09-06T06:37:23Z</time>
      </trkpt>
      <trkpt lat="47.782" lon="-3.38773">
        <ele>21.29</ele>
        <time>2015-09-06T06:37:24Z</time>
      </trkpt>
      <trkpt lat="47.78203" lon="-3.38774">
        <ele>20.32</ele>
        <time>2015-09-06T06:37:25Z</time>
      </trkpt>
      <trkpt lat="47.78208" lon="-3.38776">
        <ele>18.88</ele>
        <time>2015-09-06T06:37:26Z</time>
      </trkpt>
      <trkpt lat="47.78213" lon="-3.38778">
        <ele>17.92</ele>
        <time>2015-09-06T06:37:27Z</time>
      </trkpt>
      <trkpt lat="47.78218" lon="-3.3878">
        <ele>17.44</ele>
        <time>2015-09-06T06:37:28Z</time>
      </trkpt>
      <trkpt lat="47.78221" lon="-3.38779">
        <ele>17.44</ele>
        <time>2015-09-06T06:37:29Z</time>
      </trkpt>
      <trkpt lat="47.78223" lon="-3.38778">
        <ele>16.48</ele>
        <time>2015-09-06T06:37:30Z</time>
      </trkpt>
      <trkpt lat="47.78224" lon="-3.38775">
        <ele>16.48</ele>
        <time>2015-09-06T06:37:31Z</time>
      </trkpt>
      <trkpt lat="47.78224" lon="-3.38771">
        <ele>15.52</ele>
        <time>2015-09-06T06:37:32Z</time>
      </trkpt>
      <trkpt lat="47.78225" lon="-3.38766">
        <ele>15.04</ele>
        <time>2015-09-06T06:37:33Z</time>
      </trkpt>
      <trkpt lat="47.78225" lon="-3.38761">
        <ele>15.04</ele>
        <time>2015-09-06T06:37:34Z</time>
      </trkpt>
      <trkpt lat="47.78225" lon="-3.38757">
        <ele>14.56</ele>
        <time>2015-09-06T06:37:35Z</time>
      </trkpt>
      <trkpt lat="47.78225" lon="-3.38754">
        <ele>14.08</ele>
        <time>2015-09-06T06:37:36Z</time>
      </trkpt>
      <trkpt lat="47.78226" lon="-3.38751">
        <ele>14.08</ele>
        <time>2015-09-06T06:37:37Z</time>
      </trkpt>
      <trkpt lat="47.78227" lon="-3.3875">
        <ele>14.08</ele>
        <time>2015-09-06T06:37:38Z</time>
      </trkpt>
      <trkpt lat="47.78227" lon="-3.38748">
        <ele>14.08</ele>
        <time>2015-09-06T06:37:39Z</time>
      </trkpt>
      <trkpt lat="47.78228" lon="-3.38746">
        <ele>14.08</ele>
        <time>2015-09-06T06:37:40Z</time>
      </trkpt>
      <trkpt lat="47.78229" lon="-3.38744">
        <ele>14.08</ele>
        <time>2015-09-06T06:37:41Z</time>
      </trkpt>
      <trkpt lat="47.78229" lon="-3.38744">
        <ele>14.08</ele>
        <time>2015-09-06T06:37:42Z</time>
      </trkpt>
      <trkpt lat="47.7823" lon="-3.38742">
        <ele>14.56</ele>
        <time>2015-09-06T06:37:44Z</time>
      </trkpt>
      <trkpt lat="47.7823" lon="-3.3874">
        <ele>14.56</ele>
        <time>2015-09-06T06:37:45Z</time>
      </trkpt>
      <trkpt lat="47.78231" lon="-3.38739">
        <ele>14.56</ele>
        <time>2015-09-06T06:37:46Z</time>
      </trkpt>
      <trkpt lat="47.78231" lon="-3.38738">
        <ele>14.56</ele>
        <time>2015-09-06T06:37:47Z</time>
      </trkpt>
      <trkpt lat="47.78232" lon="-3.38737">
        <ele>14.56</ele>
        <time>2015-09-06T06:37:48Z</time>
      </trkpt>
      <trkpt lat="47.78232" lon="-3.38736">
        <ele>14.56</ele>
        <time>2015-09-06T06:37:49Z</time>
      </trkpt>
      <trkpt lat="47.78233" lon="-3.38735">
        <ele>14.56</ele>
        <time>2015-09-06T06:37:50Z</time>
      </trkpt>
      <trkpt lat="47.78233" lon="-3.38734">
        <ele>16</ele>
        <time>2015-09-06T06:37:51Z</time>
      </trkpt>
      <trkpt lat="47.78233" lon="-3.38732">
        <ele>16</ele>
        <time>2015-09-06T06:37:52Z</time>
      </trkpt>
      <trkpt lat="47.78234" lon="-3.38732">
        <ele>16.48</ele>
        <time>2015-09-06T06:37:53Z</time>
      </trkpt>
      <trkpt lat="47.78238" lon="-3.38733">
        <ele>16.96</ele>
        <time>2015-09-06T06:39:01Z</time>
      </trkpt>
      <trkpt lat="47.78238" lon="-3.38733">
        <ele>16.96</ele>
        <time>2015-09-06T06:39:02Z</time>
      </trkpt>
      <trkpt lat="47.78235" lon="-3.38729">
        <ele>18.4</ele>
        <time>2015-09-06T06:39:08Z</time>
      </trkpt>
      <trkpt lat="47.78235" lon="-3.38728">
        <ele>18.4</ele>
        <time>2015-09-06T06:39:09Z</time>
      </trkpt>
      <trkpt lat="47.78235" lon="-3.38728">
        <ele>18.88</ele>
        <time>2015-09-06T06:39:10Z</time>
      </trkpt>
      <trkpt lat="47.78234" lon="-3.38727">
        <ele>18.88</ele>
        <time>2015-09-06T06:39:11Z</time>
      </trkpt>
      <trkpt lat="47.78234" lon="-3.38726">
        <ele>19.84</ele>
        <time>2015-09-06T06:39:12Z</time>
      </trkpt>
      <trkpt lat="47.78233" lon="-3.38724">
        <ele>19.84</ele>
        <time>2015-09-06T06:39:13Z</time>
      </trkpt>
      <trkpt lat="47.78232" lon="-3.38723">
        <ele>20.32</ele>
        <time>2015-09-06T06:39:14Z</time>
      </trkpt>
      <trkpt lat="47.78232" lon="-3.38721">
        <ele>20.32</ele>
        <time>2015-09-06T06:39:15Z</time>
      </trkpt>
      <trkpt lat="47.78231" lon="-3.3872">
        <ele>20.32</ele>
        <time>2015-09-06T06:39:16Z</time>
      </trkpt>
      <trkpt lat="47.7823" lon="-3.38718">
        <ele>20.81</ele>
        <time>2015-09-06T06:39:17Z</time>
      </trkpt>
      <trkpt lat="47.7823" lon="-3.38716">
        <ele>21.29</ele>
        <time>2015-09-06T06:39:18Z</time>
      </trkpt>
      <trkpt lat="47.7823" lon="-3.38716">
        <ele>21.77</ele>
        <time>2015-09-06T06:39:19Z</time>
      </trkpt>
      <trkpt lat="47.78229" lon="-3.38715">
        <ele>21.77</ele>
        <time>2015-09-06T06:39:20Z</time>
      </trkpt>
      <trkpt lat="47.78229" lon="-3.38714">
        <ele>22.25</ele>
        <time>2015-09-06T06:39:21Z</time>
      </trkpt>
      <trkpt lat="47.78229" lon="-3.38713">
        <ele>22.73</ele>
        <time>2015-09-06T06:39:22Z</time>
      </trkpt>
      <trkpt lat="47.78228" lon="-3.38712">
        <ele>22.73</ele>
        <time>2015-09-06T06:39:23Z</time>
      </trkpt>
      <trkpt lat="47.78228" lon="-3.38711">
        <ele>23.21</ele>
        <time>2015-09-06T06:39:24Z</time>
      </trkpt>
      <trkpt lat="47.78227" lon="-3.3871">
        <ele>23.69</ele>
        <time>2015-09-06T06:39:25Z</time>
      </trkpt>
      <trkpt lat="47.78227" lon="-3.38708">
        <ele>23.69</ele>
        <time>2015-09-06T06:39:26Z</time>
      </trkpt>
      <trkpt lat="47.78226" lon="-3.38707">
        <ele>24.17</ele>
        <time>2015-09-06T06:39:27Z</time>
      </trkpt>
      <trkpt lat="47.78226" lon="-3.38705">
        <ele>24.17</ele>
        <time>2015-09-06T06:39:28Z</time>
      </trkpt>
      <trkpt lat="47.78225" lon="-3.38704">
        <ele>24.17</ele>
        <time>2015-09-06T06:39:29Z</time>
      </trkpt>
      <trkpt lat="47.78225" lon="-3.38702">
        <ele>24.65</ele>
        <time>2015-09-06T06:39:30Z</time>
      </trkpt>
      <trkpt lat="47.78225" lon="-3.387">
        <ele>24.65</ele>
        <time>2015-09-06T06:39:31Z</time>
      </trkpt>
      <trkpt lat="47.78224" lon="-3.38699">
        <ele>25.13</ele>
        <time>2015-09-06T06:39:32Z</time>
      </trkpt>
      <trkpt lat="47.78224" lon="-3.38697">
        <ele>25.13</ele>
        <time>2015-09-06T06:39:33Z</time>
      </trkpt>
      <trkpt lat="47.78224" lon="-3.38696">
        <ele>25.61</ele>
        <time>2015-09-06T06:39:34Z</time>
      </trkpt>
      <trkpt lat="47.78224" lon="-3.38694">
        <ele>25.61</ele>
        <time>2015-09-06T06:39:35Z</time>
      </trkpt>
      <trkpt lat="47.78225" lon="-3.38692">
        <ele>25.61</ele>
        <time>2015-09-06T06:39:36Z</time>
      </trkpt>
      <trkpt lat="47.78225" lon="-3.3869">
        <ele>26.09</ele>
        <time>2015-09-06T06:39:37Z</time>
      </trkpt>
      <trkpt lat="47.78225" lon="-3.38688">
        <ele>26.09</ele>
        <time>2015-09-06T06:39:38Z</time>
      </trkpt>
      <trkpt lat="47.78225" lon="-3.38686">
        <ele>26.09</ele>
        <time>2015-09-06T06:39:39Z</time>
      </trkpt>
      <trkpt lat="47.78225" lon="-3.38685">
        <ele>26.57</ele>
        <time>2015-09-06T06:39:40Z</time>
      </trkpt>
      <trkpt lat="47.78225" lon="-3.38683">
        <ele>26.09</ele>
        <time>2015-09-06T06:39:43Z</time>
      </trkpt>
      <trkpt lat="47.78226" lon="-3.38682">
        <ele>26.57</ele>
        <time>2015-09-06T06:39:44Z</time>
      </trkpt>
      <trkpt lat="47.78226" lon="-3.38681">
        <ele>26.57</ele>
        <time>2015-09-06T06:39:45Z</time>
      </trkpt>
      <trkpt lat="47.78227" lon="-3.38678">
        <ele>26.57</ele>
        <time>2015-09-06T06:39:46Z</time>
      </trkpt>
      <trkpt lat="47.78227" lon="-3.38675">
        <ele>27.05</ele>
        <time>2015-09-06T06:39:47Z</time>
      </trkpt>
      <trkpt lat="47.78227" lon="-3.38673">
        <ele>27.05</ele>
        <time>2015-09-06T06:39:48Z</time>
      </trkpt>
      <trkpt lat="47.78227" lon="-3.38671">
        <ele>27.05</ele>
        <time>2015-09-06T06:39:49Z</time>
      </trkpt>
      <trkpt lat="47.78227" lon="-3.38668">
        <ele>27.05</ele>
        <time>2015-09-06T06:39:50Z</time>
      </trkpt>
      <trkpt lat="47.78228" lon="-3.38665">
        <ele>27.53</ele>
        <time>2015-09-06T06:39:51Z</time>
      </trkpt>
      <trkpt lat="47.78228" lon="-3.38663">
        <ele>27.53</ele>
        <time>2015-09-06T06:39:52Z</time>
      </trkpt>
      <trkpt lat="47.78229" lon="-3.38661">
        <ele>27.53</ele>
        <time>2015-09-06T06:39:53Z</time>
      </trkpt>
      <trkpt lat="47.78229" lon="-3.38658">
        <ele>27.53</ele>
        <time>2015-09-06T06:39:54Z</time>
      </trkpt>
      <trkpt lat="47.78229" lon="-3.38655">
        <ele>27.53</ele>
        <time>2015-09-06T06:39:55Z</time>
      </trkpt>
      <trkpt lat="47.78229" lon="-3.38652">
        <ele>28.5</ele>
        <time>2015-09-06T06:39:56Z</time>
      </trkpt>
      <trkpt lat="47.78229" lon="-3.38649">
        <ele>28.5</ele>
        <time>2015-09-06T06:39:57Z</time>
      </trkpt>
      <trkpt lat="47.7823" lon="-3.38647">
        <ele>28.98</ele>
        <time>2015-09-06T06:39:58Z</time>
      </trkpt>
      <trkpt lat="47.7823" lon="-3.38644">
        <ele>28.98</ele>
        <time>2015-09-06T06:39:59Z</time>
      </trkpt>
      <trkpt lat="47.78232" lon="-3.38641">
        <ele>29.46</ele>
        <time>2015-09-06T06:40:00Z</time>
      </trkpt>
      <trkpt lat="47.78233" lon="-3.38639">
        <ele>29.46</ele>
        <time>2015-09-06T06:40:01Z</time>
      </trkpt>
      <trkpt lat="47.78233" lon="-3.38636">
        <ele>29.94</ele>
        <time>2015-09-06T06:40:02Z</time>
      </trkpt>
      <trkpt lat="47.78233" lon="-3.38634">
        <ele>29.94</ele>
        <time>2015-09-06T06:40:03Z</time>
      </trkpt>
      <trkpt lat="47.78233" lon="-3.38632">
        <ele>30.42</ele>
        <time>2015-09-06T06:40:04Z</time>
      </trkpt>
      <trkpt lat="47.78233" lon="-3.38629">
        <ele>30.42</ele>
        <time>2015-09-06T06:40:05Z</time>
      </trkpt>
      <trkpt lat="47.78233" lon="-3.38626">
        <ele>31.86</ele>
        <time>2015-09-06T06:40:06Z</time>
      </trkpt>
      <trkpt lat="47.78234" lon="-3.38623">
        <ele>31.86</ele>
        <time>2015-09-06T06:40:07Z</time>
      </trkpt>
      <trkpt lat="47.78235" lon="-3.38621">
        <ele>32.34</ele>
        <time>2015-09-06T06:40:08Z</time>
      </trkpt>
      <trkpt lat="47.78235" lon="-3.38617">
        <ele>31.86</ele>
        <time>2015-09-06T06:40:09Z</time>
      </trkpt>
      <trkpt lat="47.78236" lon="-3.38612">
        <ele>30.9</ele>
        <time>2015-09-06T06:40:10Z</time>
      </trkpt>
      <trkpt lat="47.78236" lon="-3.3861">
        <ele>30.9</ele>
        <time>2015-09-06T06:40:11Z</time>
      </trkpt>
      <trkpt lat="47.78236" lon="-3.38607">
        <ele>30.9</ele>
        <time>2015-09-06T06:40:12Z</time>
      </trkpt>
      <trkpt lat="47.78236" lon="-3.38604">
        <ele>30.9</ele>
        <time>2015-09-06T06:40:13Z</time>
      </trkpt>
      <trkpt lat="47.78235" lon="-3.386">
        <ele>30.9</ele>
        <time>2015-09-06T06:40:14Z</time>
      </trkpt>
      <trkpt lat="47.78234" lon="-3.38597">
        <ele>32.34</ele>
        <time>2015-09-06T06:40:15Z</time>
      </trkpt>
      <trkpt lat="47.78233" lon="-3.38594">
        <ele>32.34</ele>
        <time>2015-09-06T06:40:16Z</time>
      </trkpt>
      <trkpt lat="47.78232" lon="-3.38591">
        <ele>32.82</ele>
        <time>2015-09-06T06:40:17Z</time>
      </trkpt>
      <trkpt lat="47.7823" lon="-3.38589">
        <ele>32.82</ele>
        <time>2015-09-06T06:40:18Z</time>
      </trkpt>
      <trkpt lat="47.78229" lon="-3.38587">
        <ele>32.82</ele>
        <time>2015-09-06T06:40:19Z</time>
      </trkpt>
      <trkpt lat="47.78226" lon="-3.38585">
        <ele>33.78</ele>
        <time>2015-09-06T06:40:20Z</time>
      </trkpt>
      <trkpt lat="47.78224" lon="-3.38583">
        <ele>33.78</ele>
        <time>2015-09-06T06:40:21Z</time>
      </trkpt>
      <trkpt lat="47.78222" lon="-3.38582">
        <ele>34.26</ele>
        <time>2015-09-06T06:40:22Z</time>
      </trkpt>
      <trkpt lat="47.7822" lon="-3.3858">
        <ele>34.26</ele>
        <time>2015-09-06T06:40:23Z</time>
      </trkpt>
      <trkpt lat="47.78218" lon="-3.38578">
        <ele>34.26</ele>
        <time>2015-09-06T06:40:24Z</time>
      </trkpt>
      <trkpt lat="47.78215" lon="-3.38576">
        <ele>34.74</ele>
        <time>2015-09-06T06:40:25Z</time>
      </trkpt>
      <trkpt lat="47.78212" lon="-3.38575">
        <ele>34.26</ele>
        <time>2015-09-06T06:40:26Z</time>
      </trkpt>
      <trkpt lat="47.7821" lon="-3.38574">
        <ele>34.26</ele>
        <time>2015-09-06T06:40:27Z</time>
      </trkpt>
      <trkpt lat="47.78207" lon="-3.38574">
        <ele>34.74</ele>
        <time>2015-09-06T06:40:28Z</time>
      </trkpt>
      <trkpt lat="47.78203" lon="-3.38574">
        <ele>34.74</ele>
        <time>2015-09-06T06:40:29Z</time>
      </trkpt>
      <trkpt lat="47.78201" lon="-3.38573">
        <ele>34.74</ele>
        <time>2015-09-06T06:40:30Z</time>
      </trkpt>
      <trkpt lat="47.78198" lon="-3.38573">
        <ele>34.74</ele>
        <time>2015-09-06T06:40:31Z</time>
      </trkpt>
      <trkpt lat="47.78194" lon="-3.38573">
        <ele>34.74</ele>
        <time>2015-09-06T06:40:32Z</time>
      </trkpt>
      <trkpt lat="47.78191" lon="-3.38572">
        <ele>35.23</ele>
        <time>2015-09-06T06:40:33Z</time>
      </trkpt>
      <trkpt lat="47.78188" lon="-3.38571">
        <ele>35.23</ele>
        <time>2015-09-06T06:40:34Z</time>
      </trkpt>
      <trkpt lat="47.78184" lon="-3.3857">
        <ele>35.23</ele>
        <time>2015-09-06T06:40:35Z</time>
      </trkpt>
      <trkpt lat="47.78181" lon="-3.38569">
        <ele>35.23</ele>
        <time>2015-09-06T06:40:36Z</time>
      </trkpt>
      <trkpt lat="47.78177" lon="-3.38568">
        <ele>35.71</ele>
        <time>2015-09-06T06:40:37Z</time>
      </trkpt>
      <trkpt lat="47.78174" lon="-3.38567">
        <ele>35.71</ele>
        <time>2015-09-06T06:40:38Z</time>
      </trkpt>
      <trkpt lat="47.78171" lon="-3.38566">
        <ele>35.71</ele>
        <time>2015-09-06T06:40:39Z</time>
      </trkpt>
      <trkpt lat="47.78167" lon="-3.38565">
        <ele>35.71</ele>
        <time>2015-09-06T06:40:40Z</time>
      </trkpt>
      <trkpt lat="47.78164" lon="-3.38563">
        <ele>35.71</ele>
        <time>2015-09-06T06:40:41Z</time>
      </trkpt>
      <trkpt lat="47.7816" lon="-3.38562">
        <ele>35.71</ele>
        <time>2015-09-06T06:40:42Z</time>
      </trkpt>
      <trkpt lat="47.78156" lon="-3.38561">
        <ele>35.71</ele>
        <time>2015-09-06T06:40:43Z</time>
      </trkpt>
      <trkpt lat="47.78152" lon="-3.38559">
        <ele>35.71</ele>
        <time>2015-09-06T06:40:44Z</time>
      </trkpt>
      <trkpt lat="47.78149" lon="-3.38557">
        <ele>35.71</ele>
        <time>2015-09-06T06:40:45Z</time>
      </trkpt>
      <trkpt lat="47.78145" lon="-3.38555">
        <ele>35.71</ele>
        <time>2015-09-06T06:40:46Z</time>
      </trkpt>
      <trkpt lat="47.78141" lon="-3.38553">
        <ele>35.71</ele>
        <time>2015-09-06T06:40:47Z</time>
      </trkpt>
      <trkpt lat="47.78137" lon="-3.38551">
        <ele>35.71</ele>
        <time>2015-09-06T06:40:48Z</time>
      </trkpt>
      <trkpt lat="47.78132" lon="-3.38549">
        <ele>35.71</ele>
        <time>2015-09-06T06:40:49Z</time>
      </trkpt>
      <trkpt lat="47.78128" lon="-3.38548">
        <ele>35.71</ele>
        <time>2015-09-06T06:40:50Z</time>
      </trkpt>
      <trkpt lat="47.78123" lon="-3.38546">
        <ele>35.71</ele>
        <time>2015-09-06T06:40:51Z</time>
      </trkpt>
      <trkpt lat="47.78118" lon="-3.38544">
        <ele>35.71</ele>
        <time>2015-09-06T06:40:52Z</time>
      </trkpt>
      <trkpt lat="47.78114" lon="-3.38543">
        <ele>35.71</ele>
        <time>2015-09-06T06:40:53Z</time>
      </trkpt>
      <trkpt lat="47.78109" lon="-3.38542">
        <ele>35.71</ele>
        <time>2015-09-06T06:40:54Z</time>
      </trkpt>
      <trkpt lat="47.78105" lon="-3.3854">
        <ele>35.71</ele>
        <time>2015-09-06T06:40:55Z</time>
      </trkpt>
      <trkpt lat="47.781" lon="-3.38539">
        <ele>35.71</ele>
        <time>2015-09-06T06:40:56Z</time>
      </trkpt>
      <trkpt lat="47.78095" lon="-3.38538">
        <ele>35.71</ele>
        <time>2015-09-06T06:40:57Z</time>
      </trkpt>
      <trkpt lat="47.7809" lon="-3.38537">
        <ele>35.71</ele>
        <time>2015-09-06T06:40:58Z</time>
      </trkpt>
      <trkpt lat="47.78085" lon="-3.38535">
        <ele>34.26</ele>
        <time>2015-09-06T06:40:59Z</time>
      </trkpt>
      <trkpt lat="47.7808" lon="-3.38535">
        <ele>33.78</ele>
        <time>2015-09-06T06:41:00Z</time>
      </trkpt>
      <trkpt lat="47.78074" lon="-3.38535">
        <ele>33.3</ele>
        <time>2015-09-06T06:41:01Z</time>
      </trkpt>
      <trkpt lat="47.78069" lon="-3.38535">
        <ele>33.3</ele>
        <time>2015-09-06T06:41:02Z</time>
      </trkpt>
      <trkpt lat="47.78063" lon="-3.38536">
        <ele>32.82</ele>
        <time>2015-09-06T06:41:03Z</time>
      </trkpt>
      <trkpt lat="47.78058" lon="-3.38538">
        <ele>32.82</ele>
        <time>2015-09-06T06:41:04Z</time>
      </trkpt>
      <trkpt lat="47.78053" lon="-3.38539">
        <ele>32.34</ele>
        <time>2015-09-06T06:41:05Z</time>
      </trkpt>
      <trkpt lat="47.78048" lon="-3.38538">
        <ele>31.38</ele>
        <time>2015-09-06T06:41:06Z</time>
      </trkpt>
      <trkpt lat="47.78044" lon="-3.38534">
        <ele>31.38</ele>
        <time>2015-09-06T06:41:07Z</time>
      </trkpt>
      <trkpt lat="47.78039" lon="-3.38531">
        <ele>30.42</ele>
        <time>2015-09-06T06:41:08Z</time>
      </trkpt>
      <trkpt lat="47.78034" lon="-3.38526">
        <ele>29.94</ele>
        <time>2015-09-06T06:41:09Z</time>
      </trkpt>
      <trkpt lat="47.78027" lon="-3.3852">
        <ele>28.98</ele>
        <time>2015-09-06T06:41:10Z</time>
      </trkpt>
      <trkpt lat="47.78022" lon="-3.38515">
        <ele>28.02</ele>
        <time>2015-09-06T06:41:11Z</time>
      </trkpt>
      <trkpt lat="47.78017" lon="-3.3851">
        <ele>27.05</ele>
        <time>2015-09-06T06:41:12Z</time>
      </trkpt>
      <trkpt lat="47.78011" lon="-3.38503">
        <ele>26.57</ele>
        <time>2015-09-06T06:41:13Z</time>
      </trkpt>
      <trkpt lat="47.78006" lon="-3.38498">
        <ele>25.61</ele>
        <time>2015-09-06T06:41:14Z</time>
      </trkpt>
      <trkpt lat="47.78" lon="-3.38492">
        <ele>24.65</ele>
        <time>2015-09-06T06:41:15Z</time>
      </trkpt>
      <trkpt lat="47.77996" lon="-3.38487">
        <ele>24.17</ele>
        <time>2015-09-06T06:41:16Z</time>
      </trkpt>
      <trkpt lat="47.7799" lon="-3.38482">
        <ele>23.21</ele>
        <time>2015-09-06T06:41:17Z</time>
      </trkpt>
      <trkpt lat="47.77985" lon="-3.38476">
        <ele>22.73</ele>
        <time>2015-09-06T06:41:18Z</time>
      </trkpt>
      <trkpt lat="47.7798" lon="-3.38471">
        <ele>21.77</ele>
        <time>2015-09-06T06:41:19Z</time>
      </trkpt>
      <trkpt lat="47.77975" lon="-3.38467">
        <ele>21.77</ele>
        <time>2015-09-06T06:41:20Z</time>
      </trkpt>
      <trkpt lat="47.77971" lon="-3.38463">
        <ele>21.77</ele>
        <time>2015-09-06T06:41:21Z</time>
      </trkpt>
      <trkpt lat="47.77968" lon="-3.3846">
        <ele>21.29</ele>
        <time>2015-09-06T06:41:22Z</time>
      </trkpt>
      <trkpt lat="47.77966" lon="-3.38456">
        <ele>21.29</ele>
        <time>2015-09-06T06:41:23Z</time>
      </trkpt>
      <trkpt lat="47.77963" lon="-3.38453">
        <ele>21.29</ele>
        <time>2015-09-06T06:41:24Z</time>
      </trkpt>
      <trkpt lat="47.77961" lon="-3.3845">
        <ele>20.32</ele>
        <time>2015-09-06T06:41:25Z</time>
      </trkpt>
      <trkpt lat="47.77959" lon="-3.38444">
        <ele>20.32</ele>
        <time>2015-09-06T06:41:26Z</time>
      </trkpt>
      <trkpt lat="47.77959" lon="-3.38438">
        <ele>20.32</ele>
        <time>2015-09-06T06:41:27Z</time>
      </trkpt>
      <trkpt lat="47.77961" lon="-3.38433">
        <ele>19.84</ele>
        <time>2015-09-06T06:41:28Z</time>
      </trkpt>
      <trkpt lat="47.77963" lon="-3.38427">
        <ele>19.84</ele>
        <time>2015-09-06T06:41:29Z</time>
      </trkpt>
      <trkpt lat="47.77966" lon="-3.38421">
        <ele>19.36</ele>
        <time>2015-09-06T06:41:30Z</time>
      </trkpt>
      <trkpt lat="47.77969" lon="-3.38415">
        <ele>19.36</ele>
        <time>2015-09-06T06:41:31Z</time>
      </trkpt>
      <trkpt lat="47.77973" lon="-3.38409">
        <ele>18.88</ele>
        <time>2015-09-06T06:41:32Z</time>
      </trkpt>
      <trkpt lat="47.77977" lon="-3.38403">
        <ele>18.88</ele>
        <time>2015-09-06T06:41:33Z</time>
      </trkpt>
      <trkpt lat="47.7798" lon="-3.38396">
        <ele>18.88</ele>
        <time>2015-09-06T06:41:34Z</time>
      </trkpt>
      <trkpt lat="47.77983" lon="-3.38389">
        <ele>18.88</ele>
        <time>2015-09-06T06:41:35Z</time>
      </trkpt>
      <trkpt lat="47.77986" lon="-3.38382">
        <ele>18.88</ele>
        <time>2015-09-06T06:41:36Z</time>
      </trkpt>
      <trkpt lat="47.77989" lon="-3.38374">
        <ele>17.92</ele>
        <time>2015-09-06T06:41:37Z</time>
      </trkpt>
      <trkpt lat="47.77993" lon="-3.38367">
        <ele>17.92</ele>
        <time>2015-09-06T06:41:38Z</time>
      </trkpt>
      <trkpt lat="47.77995" lon="-3.38361">
        <ele>17.92</ele>
        <time>2015-09-06T06:41:39Z</time>
      </trkpt>
      <trkpt lat="47.77996" lon="-3.38355">
        <ele>17.92</ele>
        <time>2015-09-06T06:41:40Z</time>
      </trkpt>
      <trkpt lat="47.77994" lon="-3.38351">
        <ele>17.92</ele>
        <time>2015-09-06T06:41:41Z</time>
      </trkpt>
      <trkpt lat="47.77991" lon="-3.38349">
        <ele>17.92</ele>
        <time>2015-09-06T06:41:42Z</time>
      </trkpt>
      <trkpt lat="47.77989" lon="-3.38348">
        <ele>17.92</ele>
        <time>2015-09-06T06:41:43Z</time>
      </trkpt>
      <trkpt lat="47.77986" lon="-3.38348">
        <ele>17.92</ele>
        <time>2015-09-06T06:41:44Z</time>
      </trkpt>
      <trkpt lat="47.77984" lon="-3.38349">
        <ele>17.92</ele>
        <time>2015-09-06T06:41:45Z</time>
      </trkpt>
      <trkpt lat="47.77982" lon="-3.3835">
        <ele>19.36</ele>
        <time>2015-09-06T06:41:46Z</time>
      </trkpt>
      <trkpt lat="47.7798" lon="-3.38352">
        <ele>19.36</ele>
        <time>2015-09-06T06:41:47Z</time>
      </trkpt>
      <trkpt lat="47.77978" lon="-3.38354">
        <ele>19.84</ele>
        <time>2015-09-06T06:41:48Z</time>
      </trkpt>
      <trkpt lat="47.77976" lon="-3.38356">
        <ele>19.84</ele>
        <time>2015-09-06T06:41:49Z</time>
      </trkpt>
      <trkpt lat="47.77974" lon="-3.38358">
        <ele>20.81</ele>
        <time>2015-09-06T06:41:50Z</time>
      </trkpt>
      <trkpt lat="47.77972" lon="-3.38359">
        <ele>20.81</ele>
        <time>2015-09-06T06:41:51Z</time>
      </trkpt>
      <trkpt lat="47.7797" lon="-3.38361">
        <ele>21.77</ele>
        <time>2015-09-06T06:41:52Z</time>
      </trkpt>
      <trkpt lat="47.77968" lon="-3.38362">
        <ele>22.25</ele>
        <time>2015-09-06T06:41:53Z</time>
      </trkpt>
      <trkpt lat="47.77967" lon="-3.38363">
        <ele>22.25</ele>
        <time>2015-09-06T06:41:54Z</time>
      </trkpt>
      <trkpt lat="47.77965" lon="-3.38364">
        <ele>22.73</ele>
        <time>2015-09-06T06:41:55Z</time>
      </trkpt>
      <trkpt lat="47.77964" lon="-3.38366">
        <ele>23.21</ele>
        <time>2015-09-06T06:41:56Z</time>
      </trkpt>
      <trkpt lat="47.77962" lon="-3.38368">
        <ele>23.21</ele>
        <time>2015-09-06T06:41:57Z</time>
      </trkpt>
      <trkpt lat="47.7796" lon="-3.3837">
        <ele>23.21</ele>
        <time>2015-09-06T06:41:58Z</time>
      </trkpt>
      <trkpt lat="47.77958" lon="-3.38372">
        <ele>24.17</ele>
        <time>2015-09-06T06:41:59Z</time>
      </trkpt>
      <trkpt lat="47.77957" lon="-3.38374">
        <ele>24.17</ele>
        <time>2015-09-06T06:42:00Z</time>
      </trkpt>
      <trkpt lat="47.77955" lon="-3.38376">
        <ele>24.65</ele>
        <time>2015-09-06T06:42:01Z</time>
      </trkpt>
      <trkpt lat="47.77953" lon="-3.38379">
        <ele>24.65</ele>
        <time>2015-09-06T06:42:02Z</time>
      </trkpt>
      <trkpt lat="47.77952" lon="-3.38381">
        <ele>25.13</ele>
        <time>2015-09-06T06:42:03Z</time>
      </trkpt>
      <trkpt lat="47.7795" lon="-3.38384">
        <ele>25.61</ele>
        <time>2015-09-06T06:42:04Z</time>
      </trkpt>
      <trkpt lat="47.77948" lon="-3.38387">
        <ele>25.61</ele>
        <time>2015-09-06T06:42:05Z</time>
      </trkpt>
      <trkpt lat="47.77946" lon="-3.3839">
        <ele>25.61</ele>
        <time>2015-09-06T06:42:06Z</time>
      </trkpt>
      <trkpt lat="47.77944" lon="-3.38393">
        <ele>26.57</ele>
        <time>2015-09-06T06:42:07Z</time>
      </trkpt>
      <trkpt lat="47.77942" lon="-3.38396">
        <ele>27.05</ele>
        <time>2015-09-06T06:42:08Z</time>
      </trkpt>
      <trkpt lat="47.77941" lon="-3.38398">
        <ele>27.05</ele>
        <time>2015-09-06T06:42:09Z</time>
      </trkpt>
      <trkpt lat="47.77939" lon="-3.384">
        <ele>27.53</ele>
        <time>2015-09-06T06:42:10Z</time>
      </trkpt>
      <trkpt lat="47.77938" lon="-3.38403">
        <ele>27.53</ele>
        <time>2015-09-06T06:42:11Z</time>
      </trkpt>
      <trkpt lat="47.77936" lon="-3.38405">
        <ele>28.02</ele>
        <time>2015-09-06T06:42:12Z</time>
      </trkpt>
      <trkpt lat="47.77935" lon="-3.38408">
        <ele>28.5</ele>
        <time>2015-09-06T06:42:13Z</time>
      </trkpt>
      <trkpt lat="47.77933" lon="-3.38411">
        <ele>28.5</ele>
        <time>2015-09-06T06:42:14Z</time>
      </trkpt>
      <trkpt lat="47.77932" lon="-3.38414">
        <ele>28.98</ele>
        <time>2015-09-06T06:42:15Z</time>
      </trkpt>
      <trkpt lat="47.7793" lon="-3.38417">
        <ele>28.98</ele>
        <time>2015-09-06T06:42:16Z</time>
      </trkpt>
      <trkpt lat="47.77929" lon="-3.3842">
        <ele>29.46</ele>
        <time>2015-09-06T06:42:17Z</time>
      </trkpt>
      <trkpt lat="47.77927" lon="-3.38423">
        <ele>29.94</ele>
        <time>2015-09-06T06:42:18Z</time>
      </trkpt>
      <trkpt lat="47.77925" lon="-3.38426">
        <ele>29.94</ele>
        <time>2015-09-06T06:42:19Z</time>
      </trkpt>
      <trkpt lat="47.77923" lon="-3.38428">
        <ele>30.42</ele>
        <time>2015-09-06T06:42:20Z</time>
      </trkpt>
      <trkpt lat="47.77921" lon="-3.3843">
        <ele>30.42</ele>
        <time>2015-09-06T06:42:21Z</time>
      </trkpt>
      <trkpt lat="47.77919" lon="-3.38432">
        <ele>30.9</ele>
        <time>2015-09-06T06:42:22Z</time>
      </trkpt>
      <trkpt lat="47.77917" lon="-3.38434">
        <ele>30.9</ele>
        <time>2015-09-06T06:42:23Z</time>
      </trkpt>
      <trkpt lat="47.77915" lon="-3.38436">
        <ele>31.38</ele>
        <time>2015-09-06T06:42:24Z</time>
      </trkpt>
      <trkpt lat="47.77914" lon="-3.38438">
        <ele>31.38</ele>
        <time>2015-09-06T06:42:25Z</time>
      </trkpt>
      <trkpt lat="47.77912" lon="-3.3844">
        <ele>31.86</ele>
        <time>2015-09-06T06:42:26Z</time>
      </trkpt>
      <trkpt lat="47.7791" lon="-3.38441">
        <ele>31.86</ele>
        <time>2015-09-06T06:42:27Z</time>
      </trkpt>
      <trkpt lat="47.77908" lon="-3.38441">
        <ele>32.34</ele>
        <time>2015-09-06T06:42:28Z</time>
      </trkpt>
      <trkpt lat="47.77907" lon="-3.3844">
        <ele>32.34</ele>
        <time>2015-09-06T06:42:29Z</time>
      </trkpt>
      <trkpt lat="47.77905" lon="-3.38438">
        <ele>32.34</ele>
        <time>2015-09-06T06:42:30Z</time>
      </trkpt>
      <trkpt lat="47.77903" lon="-3.38438">
        <ele>32.34</ele>
        <time>2015-09-06T06:42:31Z</time>
      </trkpt>
      <trkpt lat="47.77901" lon="-3.38437">
        <ele>32.82</ele>
        <time>2015-09-06T06:42:32Z</time>
      </trkpt>
      <trkpt lat="47.77899" lon="-3.38437">
        <ele>32.82</ele>
        <time>2015-09-06T06:42:33Z</time>
      </trkpt>
      <trkpt lat="47.77896" lon="-3.38437">
        <ele>33.3</ele>
        <time>2015-09-06T06:42:34Z</time>
      </trkpt>
      <trkpt lat="47.77893" lon="-3.38437">
        <ele>33.78</ele>
        <time>2015-09-06T06:42:35Z</time>
      </trkpt>
      <trkpt lat="47.77891" lon="-3.38437">
        <ele>33.78</ele>
        <time>2015-09-06T06:42:36Z</time>
      </trkpt>
      <trkpt lat="47.77889" lon="-3.38437">
        <ele>33.78</ele>
        <time>2015-09-06T06:42:37Z</time>
      </trkpt>
      <trkpt lat="47.77887" lon="-3.38437">
        <ele>34.26</ele>
        <time>2015-09-06T06:42:38Z</time>
      </trkpt>
      <trkpt lat="47.77884" lon="-3.38437">
        <ele>34.26</ele>
        <time>2015-09-06T06:42:39Z</time>
      </trkpt>
      <trkpt lat="47.77882" lon="-3.38437">
        <ele>34.26</ele>
        <time>2015-09-06T06:42:40Z</time>
      </trkpt>
      <trkpt lat="47.7788" lon="-3.38437">
        <ele>34.74</ele>
        <time>2015-09-06T06:42:41Z</time>
      </trkpt>
      <trkpt lat="47.77877" lon="-3.38437">
        <ele>34.74</ele>
        <time>2015-09-06T06:42:42Z</time>
      </trkpt>
      <trkpt lat="47.77875" lon="-3.38436">
        <ele>34.74</ele>
        <time>2015-09-06T06:42:43Z</time>
      </trkpt>
      <trkpt lat="47.77872" lon="-3.38436">
        <ele>35.23</ele>
        <time>2015-09-06T06:42:44Z</time>
      </trkpt>
      <trkpt lat="47.7787" lon="-3.38436">
        <ele>35.23</ele>
        <time>2015-09-06T06:42:45Z</time>
      </trkpt>
      <trkpt lat="47.77867" lon="-3.38436">
        <ele>35.23</ele>
        <time>2015-09-06T06:42:46Z</time>
      </trkpt>
      <trkpt lat="47.77865" lon="-3.38436">
        <ele>35.23</ele>
        <time>2015-09-06T06:42:47Z</time>
      </trkpt>
      <trkpt lat="47.77862" lon="-3.38435">
        <ele>35.23</ele>
        <time>2015-09-06T06:42:48Z</time>
      </trkpt>
      <trkpt lat="47.7786" lon="-3.38432">
        <ele>35.23</ele>
        <time>2015-09-06T06:42:49Z</time>
      </trkpt>
      <trkpt lat="47.77858" lon="-3.38429">
        <ele>35.23</ele>
        <time>2015-09-06T06:42:50Z</time>
      </trkpt>
      <trkpt lat="47.77856" lon="-3.38427">
        <ele>35.23</ele>
        <time>2015-09-06T06:42:51Z</time>
      </trkpt>
      <trkpt lat="47.77854" lon="-3.38423">
        <ele>35.23</ele>
        <time>2015-09-06T06:42:52Z</time>
      </trkpt>
      <trkpt lat="47.77853" lon="-3.38419">
        <ele>35.23</ele>
        <time>2015-09-06T06:42:53Z</time>
      </trkpt>
      <trkpt lat="47.77851" lon="-3.38414">
        <ele>35.23</ele>
        <time>2015-09-06T06:42:54Z</time>
      </trkpt>
      <trkpt lat="47.77849" lon="-3.3841">
        <ele>35.23</ele>
        <time>2015-09-06T06:42:55Z</time>
      </trkpt>
      <trkpt lat="47.77848" lon="-3.38405">
        <ele>35.23</ele>
        <time>2015-09-06T06:42:56Z</time>
      </trkpt>
      <trkpt lat="47.77845" lon="-3.38401">
        <ele>35.23</ele>
        <time>2015-09-06T06:42:57Z</time>
      </trkpt>
      <trkpt lat="47.77843" lon="-3.38397">
        <ele>35.23</ele>
        <time>2015-09-06T06:42:58Z</time>
      </trkpt>
      <trkpt lat="47.77839" lon="-3.38394">
        <ele>33.78</ele>
        <time>2015-09-06T06:42:59Z</time>
      </trkpt>
      <trkpt lat="47.77836" lon="-3.38392">
        <ele>33.78</ele>
        <time>2015-09-06T06:43:00Z</time>
      </trkpt>
      <trkpt lat="47.77833" lon="-3.38389">
        <ele>33.78</ele>
        <time>2015-09-06T06:43:01Z</time>
      </trkpt>
      <trkpt lat="47.7783" lon="-3.38387">
        <ele>33.78</ele>
        <time>2015-09-06T06:43:02Z</time>
      </trkpt>
      <trkpt lat="47.77827" lon="-3.38385">
        <ele>33.78</ele>
        <time>2015-09-06T06:43:03Z</time>
      </trkpt>
      <trkpt lat="47.77824" lon="-3.38382">
        <ele>33.78</ele>
        <time>2015-09-06T06:43:04Z</time>
      </trkpt>
      <trkpt lat="47.77822" lon="-3.38379">
        <ele>33.78</ele>
        <time>2015-09-06T06:43:05Z</time>
      </trkpt>
      <trkpt lat="47.7782" lon="-3.38376">
        <ele>33.78</ele>
        <time>2015-09-06T06:43:06Z</time>
      </trkpt>
      <trkpt lat="47.77819" lon="-3.38372">
        <ele>33.78</ele>
        <time>2015-09-06T06:43:07Z</time>
      </trkpt>
      <trkpt lat="47.77817" lon="-3.38367">
        <ele>33.3</ele>
        <time>2015-09-06T06:43:08Z</time>
      </trkpt>
      <trkpt lat="47.77815" lon="-3.38362">
        <ele>32.82</ele>
        <time>2015-09-06T06:43:09Z</time>
      </trkpt>
      <trkpt lat="47.77815" lon="-3.38356">
        <ele>31.86</ele>
        <time>2015-09-06T06:43:10Z</time>
      </trkpt>
      <trkpt lat="47.77813" lon="-3.38351">
        <ele>31.86</ele>
        <time>2015-09-06T06:43:11Z</time>
      </trkpt>
      <trkpt lat="47.77809" lon="-3.38348">
        <ele>31.38</ele>
        <time>2015-09-06T06:43:12Z</time>
      </trkpt>
      <trkpt lat="47.77804" lon="-3.38346">
        <ele>31.38</ele>
        <time>2015-09-06T06:43:13Z</time>
      </trkpt>
      <trkpt lat="47.778" lon="-3.38345">
        <ele>30.9</ele>
        <time>2015-09-06T06:43:14Z</time>
      </trkpt>
      <trkpt lat="47.77795" lon="-3.38346">
        <ele>30.9</ele>
        <time>2015-09-06T06:43:15Z</time>
      </trkpt>
      <trkpt lat="47.7779" lon="-3.38346">
        <ele>30.9</ele>
        <time>2015-09-06T06:43:16Z</time>
      </trkpt>
      <trkpt lat="47.77785" lon="-3.38348">
        <ele>29.94</ele>
        <time>2015-09-06T06:43:17Z</time>
      </trkpt>
      <trkpt lat="47.7778" lon="-3.38349">
        <ele>29.94</ele>
        <time>2015-09-06T06:43:18Z</time>
      </trkpt>
      <trkpt lat="47.77773" lon="-3.3835">
        <ele>29.46</ele>
        <time>2015-09-06T06:43:19Z</time>
      </trkpt>
      <trkpt lat="47.77767" lon="-3.38351">
        <ele>28.98</ele>
        <time>2015-09-06T06:43:20Z</time>
      </trkpt>
      <trkpt lat="47.77761" lon="-3.38352">
        <ele>28.5</ele>
        <time>2015-09-06T06:43:21Z</time>
      </trkpt>
      <trkpt lat="47.77755" lon="-3.38352">
        <ele>28.02</ele>
        <time>2015-09-06T06:43:22Z</time>
      </trkpt>
      <trkpt lat="47.77749" lon="-3.38353">
        <ele>27.05</ele>
        <time>2015-09-06T06:43:23Z</time>
      </trkpt>
      <trkpt lat="47.77743" lon="-3.38354">
        <ele>27.05</ele>
        <time>2015-09-06T06:43:24Z</time>
      </trkpt>
      <trkpt lat="47.77736" lon="-3.38353">
        <ele>26.57</ele>
        <time>2015-09-06T06:43:25Z</time>
      </trkpt>
      <trkpt lat="47.77732" lon="-3.3835">
        <ele>26.57</ele>
        <time>2015-09-06T06:43:26Z</time>
      </trkpt>
      <trkpt lat="47.77729" lon="-3.38343">
        <ele>26.57</ele>
        <time>2015-09-06T06:43:27Z</time>
      </trkpt>
      <trkpt lat="47.77727" lon="-3.38336">
        <ele>25.61</ele>
        <time>2015-09-06T06:43:28Z</time>
      </trkpt>
      <trkpt lat="47.77726" lon="-3.38326">
        <ele>25.61</ele>
        <time>2015-09-06T06:43:29Z</time>
      </trkpt>
      <trkpt lat="47.77725" lon="-3.3832">
        <ele>25.13</ele>
        <time>2015-09-06T06:43:30Z</time>
      </trkpt>
      <trkpt lat="47.77723" lon="-3.38312">
        <ele>25.13</ele>
        <time>2015-09-06T06:43:31Z</time>
      </trkpt>
      <trkpt lat="47.77722" lon="-3.38303">
        <ele>24.65</ele>
        <time>2015-09-06T06:43:32Z</time>
      </trkpt>
      <trkpt lat="47.7772" lon="-3.38295">
        <ele>24.65</ele>
        <time>2015-09-06T06:43:33Z</time>
      </trkpt>
      <trkpt lat="47.77719" lon="-3.38287">
        <ele>24.17</ele>
        <time>2015-09-06T06:43:34Z</time>
      </trkpt>
      <trkpt lat="47.77716" lon="-3.38278">
        <ele>24.17</ele>
        <time>2015-09-06T06:43:35Z</time>
      </trkpt>
      <trkpt lat="47.77714" lon="-3.3827">
        <ele>24.17</ele>
        <time>2015-09-06T06:43:36Z</time>
      </trkpt>
      <trkpt lat="47.77712" lon="-3.38262">
        <ele>24.17</ele>
        <time>2015-09-06T06:43:37Z</time>
      </trkpt>
      <trkpt lat="47.77709" lon="-3.38254">
        <ele>24.17</ele>
        <time>2015-09-06T06:43:38Z</time>
      </trkpt>
      <trkpt lat="47.77707" lon="-3.38247">
        <ele>24.17</ele>
        <time>2015-09-06T06:43:39Z</time>
      </trkpt>
      <trkpt lat="47.77705" lon="-3.3824">
        <ele>24.17</ele>
        <time>2015-09-06T06:43:40Z</time>
      </trkpt>
      <trkpt lat="47.77702" lon="-3.38233">
        <ele>24.17</ele>
        <time>2015-09-06T06:43:41Z</time>
      </trkpt>
      <trkpt lat="47.77698" lon="-3.38226">
        <ele>23.69</ele>
        <time>2015-09-06T06:43:42Z</time>
      </trkpt>
      <trkpt lat="47.77695" lon="-3.38219">
        <ele>23.69</ele>
        <time>2015-09-06T06:43:43Z</time>
      </trkpt>
      <trkpt lat="47.77692" lon="-3.38211">
        <ele>23.21</ele>
        <time>2015-09-06T06:43:44Z</time>
      </trkpt>
      <trkpt lat="47.77688" lon="-3.38205">
        <ele>22.73</ele>
        <time>2015-09-06T06:43:45Z</time>
      </trkpt>
      <trkpt lat="47.77683" lon="-3.38198">
        <ele>22.73</ele>
        <time>2015-09-06T06:43:46Z</time>
      </trkpt>
      <trkpt lat="47.77678" lon="-3.38192">
        <ele>22.73</ele>
        <time>2015-09-06T06:43:47Z</time>
      </trkpt>
      <trkpt lat="47.77673" lon="-3.38186">
        <ele>22.25</ele>
        <time>2015-09-06T06:43:48Z</time>
      </trkpt>
      <trkpt lat="47.77668" lon="-3.38181">
        <ele>22.25</ele>
        <time>2015-09-06T06:43:49Z</time>
      </trkpt>
      <trkpt lat="47.77663" lon="-3.38175">
        <ele>21.77</ele>
        <time>2015-09-06T06:43:50Z</time>
      </trkpt>
      <trkpt lat="47.77657" lon="-3.3817">
        <ele>21.77</ele>
        <time>2015-09-06T06:43:51Z</time>
      </trkpt>
      <trkpt lat="47.77652" lon="-3.38166">
        <ele>21.77</ele>
        <time>2015-09-06T06:43:52Z</time>
      </trkpt>
      <trkpt lat="47.77646" lon="-3.38161">
        <ele>21.77</ele>
        <time>2015-09-06T06:43:53Z</time>
      </trkpt>
      <trkpt lat="47.77641" lon="-3.38157">
        <ele>21.77</ele>
        <time>2015-09-06T06:43:54Z</time>
      </trkpt>
      <trkpt lat="47.77635" lon="-3.38152">
        <ele>21.77</ele>
        <time>2015-09-06T06:43:55Z</time>
      </trkpt>
      <trkpt lat="47.7763" lon="-3.38148">
        <ele>21.29</ele>
        <time>2015-09-06T06:43:56Z</time>
      </trkpt>
      <trkpt lat="47.77625" lon="-3.38143">
        <ele>21.77</ele>
        <time>2015-09-06T06:43:57Z</time>
      </trkpt>
      <trkpt lat="47.7762" lon="-3.38139">
        <ele>21.77</ele>
        <time>2015-09-06T06:43:58Z</time>
      </trkpt>
      <trkpt lat="47.77614" lon="-3.38135">
        <ele>21.77</ele>
        <time>2015-09-06T06:43:59Z</time>
      </trkpt>
      <trkpt lat="47.77609" lon="-3.38131">
        <ele>21.77</ele>
        <time>2015-09-06T06:44:00Z</time>
      </trkpt>
      <trkpt lat="47.77603" lon="-3.38126">
        <ele>21.77</ele>
        <time>2015-09-06T06:44:01Z</time>
      </trkpt>
      <trkpt lat="47.77598" lon="-3.38123">
        <ele>21.77</ele>
        <time>2015-09-06T06:44:02Z</time>
      </trkpt>
      <trkpt lat="47.77593" lon="-3.3812">
        <ele>21.77</ele>
        <time>2015-09-06T06:44:03Z</time>
      </trkpt>
      <trkpt lat="47.77588" lon="-3.38116">
        <ele>21.77</ele>
        <time>2015-09-06T06:44:04Z</time>
      </trkpt>
      <trkpt lat="47.77583" lon="-3.38111">
        <ele>21.77</ele>
        <time>2015-09-06T06:44:05Z</time>
      </trkpt>
      <trkpt lat="47.77579" lon="-3.38106">
        <ele>21.77</ele>
        <time>2015-09-06T06:44:06Z</time>
      </trkpt>
      <trkpt lat="47.77575" lon="-3.38099">
        <ele>21.77</ele>
        <time>2015-09-06T06:44:07Z</time>
      </trkpt>
      <trkpt lat="47.77572" lon="-3.3809">
        <ele>21.77</ele>
        <time>2015-09-06T06:44:08Z</time>
      </trkpt>
      <trkpt lat="47.77571" lon="-3.38084">
        <ele>21.77</ele>
        <time>2015-09-06T06:44:09Z</time>
      </trkpt>
      <trkpt lat="47.7757" lon="-3.38077">
        <ele>21.77</ele>
        <time>2015-09-06T06:44:10Z</time>
      </trkpt>
      <trkpt lat="47.77569" lon="-3.38069">
        <ele>21.77</ele>
        <time>2015-09-06T06:44:11Z</time>
      </trkpt>
      <trkpt lat="47.77568" lon="-3.38062">
        <ele>22.73</ele>
        <time>2015-09-06T06:44:12Z</time>
      </trkpt>
      <trkpt lat="47.77567" lon="-3.38055">
        <ele>23.21</ele>
        <time>2015-09-06T06:44:13Z</time>
      </trkpt>
      <trkpt lat="47.77566" lon="-3.38049">
        <ele>23.21</ele>
        <time>2015-09-06T06:44:14Z</time>
      </trkpt>
      <trkpt lat="47.77566" lon="-3.38042">
        <ele>23.21</ele>
        <time>2015-09-06T06:44:15Z</time>
      </trkpt>
      <trkpt lat="47.77566" lon="-3.38035">
        <ele>24.17</ele>
        <time>2015-09-06T06:44:16Z</time>
      </trkpt>
      <trkpt lat="47.77565" lon="-3.3803">
        <ele>24.17</ele>
        <time>2015-09-06T06:44:17Z</time>
      </trkpt>
      <trkpt lat="47.77564" lon="-3.38026">
        <ele>24.65</ele>
        <time>2015-09-06T06:44:18Z</time>
      </trkpt>
      <trkpt lat="47.77563" lon="-3.38023">
        <ele>24.65</ele>
        <time>2015-09-06T06:44:19Z</time>
      </trkpt>
      <trkpt lat="47.77562" lon="-3.3802">
        <ele>24.65</ele>
        <time>2015-09-06T06:44:20Z</time>
      </trkpt>
      <trkpt lat="47.77561" lon="-3.38017">
        <ele>24.65</ele>
        <time>2015-09-06T06:44:21Z</time>
      </trkpt>
      <trkpt lat="47.77562" lon="-3.38015">
        <ele>24.65</ele>
        <time>2015-09-06T06:44:22Z</time>
      </trkpt>
      <trkpt lat="47.77562" lon="-3.38012">
        <ele>24.65</ele>
        <time>2015-09-06T06:44:23Z</time>
      </trkpt>
      <trkpt lat="47.77563" lon="-3.3801">
        <ele>25.13</ele>
        <time>2015-09-06T06:44:24Z</time>
      </trkpt>
      <trkpt lat="47.77565" lon="-3.38009">
        <ele>25.61</ele>
        <time>2015-09-06T06:44:25Z</time>
      </trkpt>
      <trkpt lat="47.77566" lon="-3.38007">
        <ele>26.09</ele>
        <time>2015-09-06T06:44:26Z</time>
      </trkpt>
      <trkpt lat="47.77568" lon="-3.38005">
        <ele>26.09</ele>
        <time>2015-09-06T06:44:27Z</time>
      </trkpt>
      <trkpt lat="47.77569" lon="-3.38003">
        <ele>26.57</ele>
        <time>2015-09-06T06:44:28Z</time>
      </trkpt>
      <trkpt lat="47.77571" lon="-3.38002">
        <ele>26.57</ele>
        <time>2015-09-06T06:44:29Z</time>
      </trkpt>
      <trkpt lat="47.77573" lon="-3.38001">
        <ele>27.05</ele>
        <time>2015-09-06T06:44:30Z</time>
      </trkpt>
      <trkpt lat="47.77575" lon="-3.38001">
        <ele>27.05</ele>
        <time>2015-09-06T06:44:31Z</time>
      </trkpt>
      <trkpt lat="47.77577" lon="-3.38001">
        <ele>27.53</ele>
        <time>2015-09-06T06:44:32Z</time>
      </trkpt>
      <trkpt lat="47.77579" lon="-3.38001">
        <ele>27.53</ele>
        <time>2015-09-06T06:44:33Z</time>
      </trkpt>
      <trkpt lat="47.77581" lon="-3.38002">
        <ele>27.53</ele>
        <time>2015-09-06T06:44:34Z</time>
      </trkpt>
      <trkpt lat="47.77582" lon="-3.38004">
        <ele>27.53</ele>
        <time>2015-09-06T06:44:35Z</time>
      </trkpt>
      <trkpt lat="47.77584" lon="-3.38006">
        <ele>28.02</ele>
        <time>2015-09-06T06:44:36Z</time>
      </trkpt>
      <trkpt lat="47.77587" lon="-3.38007">
        <ele>28.02</ele>
        <time>2015-09-06T06:44:37Z</time>
      </trkpt>
      <trkpt lat="47.7759" lon="-3.38007">
        <ele>28.02</ele>
        <time>2015-09-06T06:44:38Z</time>
      </trkpt>
      <trkpt lat="47.77593" lon="-3.38007">
        <ele>28.02</ele>
        <time>2015-09-06T06:44:39Z</time>
      </trkpt>
      <trkpt lat="47.77595" lon="-3.38007">
        <ele>28.02</ele>
        <time>2015-09-06T06:44:40Z</time>
      </trkpt>
      <trkpt lat="47.77599" lon="-3.38009">
        <ele>28.5</ele>
        <time>2015-09-06T06:44:41Z</time>
      </trkpt>
      <trkpt lat="47.77601" lon="-3.38009">
        <ele>28.5</ele>
        <time>2015-09-06T06:44:42Z</time>
      </trkpt>
      <trkpt lat="47.77604" lon="-3.38009">
        <ele>28.98</ele>
        <time>2015-09-06T06:44:43Z</time>
      </trkpt>
      <trkpt lat="47.77606" lon="-3.38008">
        <ele>28.98</ele>
        <time>2015-09-06T06:44:44Z</time>
      </trkpt>
      <trkpt lat="47.77609" lon="-3.38007">
        <ele>29.46</ele>
        <time>2015-09-06T06:44:45Z</time>
      </trkpt>
      <trkpt lat="47.77611" lon="-3.38006">
        <ele>29.46</ele>
        <time>2015-09-06T06:44:46Z</time>
      </trkpt>
      <trkpt lat="47.77613" lon="-3.38004">
        <ele>29.46</ele>
        <time>2015-09-06T06:44:47Z</time>
      </trkpt>
      <trkpt lat="47.77615" lon="-3.38002">
        <ele>29.94</ele>
        <time>2015-09-06T06:44:48Z</time>
      </trkpt>
      <trkpt lat="47.77617" lon="-3.38">
        <ele>29.94</ele>
        <time>2015-09-06T06:44:49Z</time>
      </trkpt>
      <trkpt lat="47.77618" lon="-3.37998">
        <ele>29.94</ele>
        <time>2015-09-06T06:44:50Z</time>
      </trkpt>
      <trkpt lat="47.77619" lon="-3.37996">
        <ele>29.94</ele>
        <time>2015-09-06T06:44:51Z</time>
      </trkpt>
      <trkpt lat="47.77621" lon="-3.37994">
        <ele>30.42</ele>
        <time>2015-09-06T06:44:52Z</time>
      </trkpt>
      <trkpt lat="47.77622" lon="-3.37992">
        <ele>30.9</ele>
        <time>2015-09-06T06:44:53Z</time>
      </trkpt>
      <trkpt lat="47.77624" lon="-3.37991">
        <ele>30.9</ele>
        <time>2015-09-06T06:44:54Z</time>
      </trkpt>
      <trkpt lat="47.77627" lon="-3.37991">
        <ele>30.9</ele>
        <time>2015-09-06T06:44:55Z</time>
      </trkpt>
      <trkpt lat="47.77628" lon="-3.3799">
        <ele>30.9</ele>
        <time>2015-09-06T06:44:56Z</time>
      </trkpt>
      <trkpt lat="47.7763" lon="-3.37989">
        <ele>31.38</ele>
        <time>2015-09-06T06:44:57Z</time>
      </trkpt>
      <trkpt lat="47.77632" lon="-3.37988">
        <ele>31.38</ele>
        <time>2015-09-06T06:44:58Z</time>
      </trkpt>
      <trkpt lat="47.77633" lon="-3.37987">
        <ele>31.38</ele>
        <time>2015-09-06T06:44:59Z</time>
      </trkpt>
      <trkpt lat="47.77634" lon="-3.37984">
        <ele>31.86</ele>
        <time>2015-09-06T06:45:00Z</time>
      </trkpt>
      <trkpt lat="47.77635" lon="-3.37982">
        <ele>31.86</ele>
        <time>2015-09-06T06:45:01Z</time>
      </trkpt>
      <trkpt lat="47.77637" lon="-3.37979">
        <ele>32.34</ele>
        <time>2015-09-06T06:45:02Z</time>
      </trkpt>
      <trkpt lat="47.77638" lon="-3.37978">
        <ele>32.34</ele>
        <time>2015-09-06T06:45:03Z</time>
      </trkpt>
      <trkpt lat="47.77638" lon="-3.37975">
        <ele>32.82</ele>
        <time>2015-09-06T06:45:04Z</time>
      </trkpt>
      <trkpt lat="47.77639" lon="-3.37973">
        <ele>32.82</ele>
        <time>2015-09-06T06:45:05Z</time>
      </trkpt>
      <trkpt lat="47.7764" lon="-3.37971">
        <ele>32.82</ele>
        <time>2015-09-06T06:45:06Z</time>
      </trkpt>
      <trkpt lat="47.77642" lon="-3.37968">
        <ele>32.82</ele>
        <time>2015-09-06T06:45:07Z</time>
      </trkpt>
      <trkpt lat="47.77643" lon="-3.37967">
        <ele>32.82</ele>
        <time>2015-09-06T06:45:08Z</time>
      </trkpt>
      <trkpt lat="47.77644" lon="-3.37964">
        <ele>32.82</ele>
        <time>2015-09-06T06:45:09Z</time>
      </trkpt>
      <trkpt lat="47.77646" lon="-3.37961">
        <ele>32.82</ele>
        <time>2015-09-06T06:45:10Z</time>
      </trkpt>
      <trkpt lat="47.77647" lon="-3.37957">
        <ele>31.38</ele>
        <time>2015-09-06T06:45:11Z</time>
      </trkpt>
      <trkpt lat="47.7765" lon="-3.37953">
        <ele>31.38</ele>
        <time>2015-09-06T06:45:12Z</time>
      </trkpt>
      <trkpt lat="47.77653" lon="-3.3795">
        <ele>31.38</ele>
        <time>2015-09-06T06:45:13Z</time>
      </trkpt>
      <trkpt lat="47.77655" lon="-3.37948">
        <ele>31.38</ele>
        <time>2015-09-06T06:45:14Z</time>
      </trkpt>
      <trkpt lat="47.77656" lon="-3.37948">
        <ele>31.38</ele>
        <time>2015-09-06T06:45:15Z</time>
      </trkpt>
      <trkpt lat="47.77658" lon="-3.37947">
        <ele>31.38</ele>
        <time>2015-09-06T06:45:16Z</time>
      </trkpt>
      <trkpt lat="47.77659" lon="-3.37947">
        <ele>31.38</ele>
        <time>2015-09-06T06:45:17Z</time>
      </trkpt>
      <trkpt lat="47.77659" lon="-3.37946">
        <ele>31.38</ele>
        <time>2015-09-06T06:45:18Z</time>
      </trkpt>
      <trkpt lat="47.7766" lon="-3.37945">
        <ele>31.38</ele>
        <time>2015-09-06T06:45:19Z</time>
      </trkpt>
      <trkpt lat="47.77661" lon="-3.37945">
        <ele>31.38</ele>
        <time>2015-09-06T06:45:20Z</time>
      </trkpt>
      <trkpt lat="47.77662" lon="-3.37943">
        <ele>31.86</ele>
        <time>2015-09-06T06:45:21Z</time>
      </trkpt>
      <trkpt lat="47.77663" lon="-3.37942">
        <ele>31.86</ele>
        <time>2015-09-06T06:45:22Z</time>
      </trkpt>
      <trkpt lat="47.77664" lon="-3.37941">
        <ele>32.82</ele>
        <time>2015-09-06T06:45:23Z</time>
      </trkpt>
      <trkpt lat="47.77664" lon="-3.37941">
        <ele>32.82</ele>
        <time>2015-09-06T06:45:24Z</time>
      </trkpt>
      <trkpt lat="47.77666" lon="-3.37941">
        <ele>32.82</ele>
        <time>2015-09-06T06:45:25Z</time>
      </trkpt>
      <trkpt lat="47.77667" lon="-3.3794">
        <ele>32.82</ele>
        <time>2015-09-06T06:45:26Z</time>
      </trkpt>
      <trkpt lat="47.77669" lon="-3.37938">
        <ele>32.82</ele>
        <time>2015-09-06T06:45:27Z</time>
      </trkpt>
      <trkpt lat="47.7767" lon="-3.37937">
        <ele>32.82</ele>
        <time>2015-09-06T06:45:28Z</time>
      </trkpt>
      <trkpt lat="47.7767" lon="-3.37936">
        <ele>32.82</ele>
        <time>2015-09-06T06:45:29Z</time>
      </trkpt>
      <trkpt lat="47.7767" lon="-3.37936">
        <ele>32.82</ele>
        <time>2015-09-06T06:45:30Z</time>
      </trkpt>
      <trkpt lat="47.7767" lon="-3.37936">
        <ele>32.82</ele>
        <time>2015-09-06T06:45:31Z</time>
      </trkpt>
      <trkpt lat="47.77671" lon="-3.37935">
        <ele>32.82</ele>
        <time>2015-09-06T06:45:32Z</time>
      </trkpt>
      <trkpt lat="47.77672" lon="-3.37934">
        <ele>32.82</ele>
        <time>2015-09-06T06:45:33Z</time>
      </trkpt>
      <trkpt lat="47.77673" lon="-3.37932">
        <ele>32.82</ele>
        <time>2015-09-06T06:45:34Z</time>
      </trkpt>
      <trkpt lat="47.77674" lon="-3.37929">
        <ele>32.82</ele>
        <time>2015-09-06T06:45:35Z</time>
      </trkpt>
      <trkpt lat="47.77675" lon="-3.37926">
        <ele>32.82</ele>
        <time>2015-09-06T06:45:36Z</time>
      </trkpt>
      <trkpt lat="47.77677" lon="-3.37923">
        <ele>32.82</ele>
        <time>2015-09-06T06:45:37Z</time>
      </trkpt>
      <trkpt lat="47.77678" lon="-3.37921">
        <ele>32.82</ele>
        <time>2015-09-06T06:45:38Z</time>
      </trkpt>
      <trkpt lat="47.77679" lon="-3.37918">
        <ele>32.82</ele>
        <time>2015-09-06T06:45:39Z</time>
      </trkpt>
      <trkpt lat="47.77679" lon="-3.37915">
        <ele>33.3</ele>
        <time>2015-09-06T06:45:40Z</time>
      </trkpt>
      <trkpt lat="47.7768" lon="-3.37911">
        <ele>33.3</ele>
        <time>2015-09-06T06:45:41Z</time>
      </trkpt>
      <trkpt lat="47.77681" lon="-3.37908">
        <ele>33.78</ele>
        <time>2015-09-06T06:45:42Z</time>
      </trkpt>
      <trkpt lat="47.77682" lon="-3.37905">
        <ele>33.78</ele>
        <time>2015-09-06T06:45:43Z</time>
      </trkpt>
      <trkpt lat="47.77683" lon="-3.37901">
        <ele>33.78</ele>
        <time>2015-09-06T06:45:44Z</time>
      </trkpt>
      <trkpt lat="47.77684" lon="-3.37897">
        <ele>34.26</ele>
        <time>2015-09-06T06:45:45Z</time>
      </trkpt>
      <trkpt lat="47.77685" lon="-3.37893">
        <ele>34.26</ele>
        <time>2015-09-06T06:45:46Z</time>
      </trkpt>
      <trkpt lat="47.77686" lon="-3.3789">
        <ele>34.26</ele>
        <time>2015-09-06T06:45:47Z</time>
      </trkpt>
      <trkpt lat="47.77689" lon="-3.37888">
        <ele>34.26</ele>
        <time>2015-09-06T06:45:48Z</time>
      </trkpt>
      <trkpt lat="47.77692" lon="-3.37885">
        <ele>34.26</ele>
        <time>2015-09-06T06:45:49Z</time>
      </trkpt>
      <trkpt lat="47.77695" lon="-3.37884">
        <ele>34.26</ele>
        <time>2015-09-06T06:45:50Z</time>
      </trkpt>
      <trkpt lat="47.77698" lon="-3.37882">
        <ele>34.26</ele>
        <time>2015-09-06T06:45:51Z</time>
      </trkpt>
      <trkpt lat="47.77701" lon="-3.3788">
        <ele>34.26</ele>
        <time>2015-09-06T06:45:52Z</time>
      </trkpt>
      <trkpt lat="47.77703" lon="-3.37879">
        <ele>34.74</ele>
        <time>2015-09-06T06:45:53Z</time>
      </trkpt>
      <trkpt lat="47.77706" lon="-3.37877">
        <ele>34.74</ele>
        <time>2015-09-06T06:45:54Z</time>
      </trkpt>
      <trkpt lat="47.77709" lon="-3.37875">
        <ele>34.74</ele>
        <time>2015-09-06T06:45:55Z</time>
      </trkpt>
      <trkpt lat="47.77712" lon="-3.37873">
        <ele>34.74</ele>
        <time>2015-09-06T06:45:56Z</time>
      </trkpt>
      <trkpt lat="47.77714" lon="-3.37871">
        <ele>35.23</ele>
        <time>2015-09-06T06:45:57Z</time>
      </trkpt>
      <trkpt lat="47.77717" lon="-3.3787">
        <ele>35.23</ele>
        <time>2015-09-06T06:45:58Z</time>
      </trkpt>
      <trkpt lat="47.7772" lon="-3.37869">
        <ele>35.23</ele>
        <time>2015-09-06T06:45:59Z</time>
      </trkpt>
      <trkpt lat="47.77724" lon="-3.37866">
        <ele>35.23</ele>
        <time>2015-09-06T06:46:00Z</time>
      </trkpt>
      <trkpt lat="47.77727" lon="-3.37864">
        <ele>35.23</ele>
        <time>2015-09-06T06:46:01Z</time>
      </trkpt>
      <trkpt lat="47.77731" lon="-3.37861">
        <ele>35.23</ele>
        <time>2015-09-06T06:46:02Z</time>
      </trkpt>
      <trkpt lat="47.77734" lon="-3.37859">
        <ele>35.23</ele>
        <time>2015-09-06T06:46:03Z</time>
      </trkpt>
      <trkpt lat="47.77738" lon="-3.37856">
        <ele>35.71</ele>
        <time>2015-09-06T06:46:04Z</time>
      </trkpt>
      <trkpt lat="47.77742" lon="-3.37854">
        <ele>35.71</ele>
        <time>2015-09-06T06:46:05Z</time>
      </trkpt>
      <trkpt lat="47.77746" lon="-3.37852">
        <ele>35.71</ele>
        <time>2015-09-06T06:46:06Z</time>
      </trkpt>
      <trkpt lat="47.77751" lon="-3.37852">
        <ele>35.71</ele>
        <time>2015-09-06T06:46:07Z</time>
      </trkpt>
      <trkpt lat="47.77756" lon="-3.37851">
        <ele>35.71</ele>
        <time>2015-09-06T06:46:08Z</time>
      </trkpt>
      <trkpt lat="47.7776" lon="-3.37852">
        <ele>35.71</ele>
        <time>2015-09-06T06:46:09Z</time>
      </trkpt>
      <trkpt lat="47.77765" lon="-3.37853">
        <ele>35.71</ele>
        <time>2015-09-06T06:46:10Z</time>
      </trkpt>
      <trkpt lat="47.77769" lon="-3.37854">
        <ele>35.71</ele>
        <time>2015-09-06T06:46:11Z</time>
      </trkpt>
      <trkpt lat="47.77774" lon="-3.37855">
        <ele>35.71</ele>
        <time>2015-09-06T06:46:12Z</time>
      </trkpt>
      <trkpt lat="47.77778" lon="-3.37855">
        <ele>35.71</ele>
        <time>2015-09-06T06:46:13Z</time>
      </trkpt>
      <trkpt lat="47.77783" lon="-3.37856">
        <ele>35.71</ele>
        <time>2015-09-06T06:46:14Z</time>
      </trkpt>
      <trkpt lat="47.77789" lon="-3.37857">
        <ele>35.71</ele>
        <time>2015-09-06T06:46:15Z</time>
      </trkpt>
      <trkpt lat="47.77793" lon="-3.37858">
        <ele>35.71</ele>
        <time>2015-09-06T06:46:16Z</time>
      </trkpt>
      <trkpt lat="47.77799" lon="-3.37858">
        <ele>35.71</ele>
        <time>2015-09-06T06:46:17Z</time>
      </trkpt>
      <trkpt lat="47.77804" lon="-3.37859">
        <ele>35.71</ele>
        <time>2015-09-06T06:46:18Z</time>
      </trkpt>
      <trkpt lat="47.77809" lon="-3.3786">
        <ele>35.71</ele>
        <time>2015-09-06T06:46:19Z</time>
      </trkpt>
      <trkpt lat="47.77815" lon="-3.37861">
        <ele>35.71</ele>
        <time>2015-09-06T06:46:20Z</time>
      </trkpt>
      <trkpt lat="47.7782" lon="-3.37862">
        <ele>35.71</ele>
        <time>2015-09-06T06:46:21Z</time>
      </trkpt>
      <trkpt lat="47.77826" lon="-3.37863">
        <ele>34.26</ele>
        <time>2015-09-06T06:46:22Z</time>
      </trkpt>
      <trkpt lat="47.77832" lon="-3.37864">
        <ele>34.26</ele>
        <time>2015-09-06T06:46:23Z</time>
      </trkpt>
      <trkpt lat="47.77838" lon="-3.37865">
        <ele>34.26</ele>
        <time>2015-09-06T06:46:24Z</time>
      </trkpt>
      <trkpt lat="47.77844" lon="-3.37865">
        <ele>33.78</ele>
        <time>2015-09-06T06:46:25Z</time>
      </trkpt>
      <trkpt lat="47.7785" lon="-3.37867">
        <ele>33.78</ele>
        <time>2015-09-06T06:46:26Z</time>
      </trkpt>
      <trkpt lat="47.77855" lon="-3.37868">
        <ele>33.3</ele>
        <time>2015-09-06T06:46:27Z</time>
      </trkpt>
      <trkpt lat="47.77862" lon="-3.37869">
        <ele>33.3</ele>
        <time>2015-09-06T06:46:28Z</time>
      </trkpt>
      <trkpt lat="47.77868" lon="-3.3787">
        <ele>33.3</ele>
        <time>2015-09-06T06:46:29Z</time>
      </trkpt>
      <trkpt lat="47.77874" lon="-3.37872">
        <ele>32.82</ele>
        <time>2015-09-06T06:46:30Z</time>
      </trkpt>
      <trkpt lat="47.7788" lon="-3.37875">
        <ele>32.82</ele>
        <time>2015-09-06T06:46:31Z</time>
      </trkpt>
      <trkpt lat="47.77886" lon="-3.37877">
        <ele>32.82</ele>
        <time>2015-09-06T06:46:32Z</time>
      </trkpt>
      <trkpt lat="47.77892" lon="-3.3788">
        <ele>32.82</ele>
        <time>2015-09-06T06:46:33Z</time>
      </trkpt>
      <trkpt lat="47.77898" lon="-3.37882">
        <ele>32.82</ele>
        <time>2015-09-06T06:46:34Z</time>
      </trkpt>
      <trkpt lat="47.77904" lon="-3.37884">
        <ele>32.82</ele>
        <time>2015-09-06T06:46:35Z</time>
      </trkpt>
      <trkpt lat="47.7791" lon="-3.37887">
        <ele>32.82</ele>
        <time>2015-09-06T06:46:36Z</time>
      </trkpt>
      <trkpt lat="47.77915" lon="-3.37889">
        <ele>32.82</ele>
        <time>2015-09-06T06:46:37Z</time>
      </trkpt>
      <trkpt lat="47.77921" lon="-3.37892">
        <ele>32.82</ele>
        <time>2015-09-06T06:46:38Z</time>
      </trkpt>
      <trkpt lat="47.77926" lon="-3.37894">
        <ele>32.82</ele>
        <time>2015-09-06T06:46:39Z</time>
      </trkpt>
      <trkpt lat="47.77931" lon="-3.37897">
        <ele>34.26</ele>
        <time>2015-09-06T06:46:40Z</time>
      </trkpt>
      <trkpt lat="47.77936" lon="-3.379">
        <ele>34.26</ele>
        <time>2015-09-06T06:46:41Z</time>
      </trkpt>
      <trkpt lat="47.77941" lon="-3.37902">
        <ele>34.26</ele>
        <time>2015-09-06T06:46:42Z</time>
      </trkpt>
      <trkpt lat="47.77945" lon="-3.37905">
        <ele>34.26</ele>
        <time>2015-09-06T06:46:43Z</time>
      </trkpt>
      <trkpt lat="47.7795" lon="-3.37907">
        <ele>34.26</ele>
        <time>2015-09-06T06:46:44Z</time>
      </trkpt>
      <trkpt lat="47.77955" lon="-3.3791">
        <ele>34.26</ele>
        <time>2015-09-06T06:46:45Z</time>
      </trkpt>
      <trkpt lat="47.77959" lon="-3.37913">
        <ele>34.74</ele>
        <time>2015-09-06T06:46:46Z</time>
      </trkpt>
      <trkpt lat="47.77964" lon="-3.37915">
        <ele>34.74</ele>
        <time>2015-09-06T06:46:47Z</time>
      </trkpt>
      <trkpt lat="47.77969" lon="-3.37918">
        <ele>34.74</ele>
        <time>2015-09-06T06:46:48Z</time>
      </trkpt>
      <trkpt lat="47.77973" lon="-3.37921">
        <ele>34.74</ele>
        <time>2015-09-06T06:46:49Z</time>
      </trkpt>
      <trkpt lat="47.77979" lon="-3.37924">
        <ele>34.74</ele>
        <time>2015-09-06T06:46:50Z</time>
      </trkpt>
      <trkpt lat="47.77984" lon="-3.37926">
        <ele>34.74</ele>
        <time>2015-09-06T06:46:51Z</time>
      </trkpt>
      <trkpt lat="47.77989" lon="-3.37929">
        <ele>34.74</ele>
        <time>2015-09-06T06:46:52Z</time>
      </trkpt>
      <trkpt lat="47.77994" lon="-3.37931">
        <ele>34.74</ele>
        <time>2015-09-06T06:46:53Z</time>
      </trkpt>
      <trkpt lat="47.78" lon="-3.37932">
        <ele>34.74</ele>
        <time>2015-09-06T06:46:54Z</time>
      </trkpt>
      <trkpt lat="47.78005" lon="-3.37932">
        <ele>34.74</ele>
        <time>2015-09-06T06:46:55Z</time>
      </trkpt>
      <trkpt lat="47.78012" lon="-3.37931">
        <ele>32.82</ele>
        <time>2015-09-06T06:46:56Z</time>
      </trkpt>
      <trkpt lat="47.78018" lon="-3.37929">
        <ele>32.34</ele>
        <time>2015-09-06T06:46:57Z</time>
      </trkpt>
      <trkpt lat="47.78023" lon="-3.37926">
        <ele>32.34</ele>
        <time>2015-09-06T06:46:58Z</time>
      </trkpt>
      <trkpt lat="47.78028" lon="-3.37925">
        <ele>31.38</ele>
        <time>2015-09-06T06:46:59Z</time>
      </trkpt>
      <trkpt lat="47.78033" lon="-3.37926">
        <ele>31.38</ele>
        <time>2015-09-06T06:47:00Z</time>
      </trkpt>
      <trkpt lat="47.78037" lon="-3.37929">
        <ele>31.38</ele>
        <time>2015-09-06T06:47:01Z</time>
      </trkpt>
      <trkpt lat="47.78041" lon="-3.37931">
        <ele>30.9</ele>
        <time>2015-09-06T06:47:02Z</time>
      </trkpt>
      <trkpt lat="47.78044" lon="-3.37934">
        <ele>30.9</ele>
        <time>2015-09-06T06:47:03Z</time>
      </trkpt>
      <trkpt lat="47.78047" lon="-3.37936">
        <ele>30.9</ele>
        <time>2015-09-06T06:47:04Z</time>
      </trkpt>
      <trkpt lat="47.78049" lon="-3.37939">
        <ele>30.9</ele>
        <time>2015-09-06T06:47:05Z</time>
      </trkpt>
      <trkpt lat="47.78052" lon="-3.37942">
        <ele>30.9</ele>
        <time>2015-09-06T06:47:06Z</time>
      </trkpt>
      <trkpt lat="47.78054" lon="-3.37944">
        <ele>30.9</ele>
        <time>2015-09-06T06:47:07Z</time>
      </trkpt>
      <trkpt lat="47.78056" lon="-3.37946">
        <ele>30.9</ele>
        <time>2015-09-06T06:47:08Z</time>
      </trkpt>
      <trkpt lat="47.78059" lon="-3.37947">
        <ele>30.9</ele>
        <time>2015-09-06T06:47:09Z</time>
      </trkpt>
      <trkpt lat="47.78061" lon="-3.37949">
        <ele>30.9</ele>
        <time>2015-09-06T06:47:10Z</time>
      </trkpt>
      <trkpt lat="47.78063" lon="-3.37951">
        <ele>30.9</ele>
        <time>2015-09-06T06:47:11Z</time>
      </trkpt>
      <trkpt lat="47.78065" lon="-3.37952">
        <ele>30.9</ele>
        <time>2015-09-06T06:47:12Z</time>
      </trkpt>
      <trkpt lat="47.78068" lon="-3.37954">
        <ele>31.38</ele>
        <time>2015-09-06T06:47:13Z</time>
      </trkpt>
      <trkpt lat="47.7807" lon="-3.37956">
        <ele>32.34</ele>
        <time>2015-09-06T06:47:14Z</time>
      </trkpt>
      <trkpt lat="47.78073" lon="-3.37959">
        <ele>32.34</ele>
        <time>2015-09-06T06:47:15Z</time>
      </trkpt>
      <trkpt lat="47.78075" lon="-3.37961">
        <ele>32.34</ele>
        <time>2015-09-06T06:47:16Z</time>
      </trkpt>
      <trkpt lat="47.78077" lon="-3.37963">
        <ele>32.82</ele>
        <time>2015-09-06T06:47:17Z</time>
      </trkpt>
      <trkpt lat="47.78079" lon="-3.37966">
        <ele>32.82</ele>
        <time>2015-09-06T06:47:18Z</time>
      </trkpt>
      <trkpt lat="47.78082" lon="-3.37969">
        <ele>32.82</ele>
        <time>2015-09-06T06:47:19Z</time>
      </trkpt>
      <trkpt lat="47.78084" lon="-3.37971">
        <ele>32.82</ele>
        <time>2015-09-06T06:47:20Z</time>
      </trkpt>
      <trkpt lat="47.78088" lon="-3.37973">
        <ele>32.82</ele>
        <time>2015-09-06T06:47:21Z</time>
      </trkpt>
      <trkpt lat="47.78089" lon="-3.37972">
        <ele>32.82</ele>
        <time>2015-09-06T06:47:22Z</time>
      </trkpt>
      <trkpt lat="47.78092" lon="-3.37971">
        <ele>32.82</ele>
        <time>2015-09-06T06:47:23Z</time>
      </trkpt>
      <trkpt lat="47.78094" lon="-3.37968">
        <ele>32.82</ele>
        <time>2015-09-06T06:47:24Z</time>
      </trkpt>
      <trkpt lat="47.78097" lon="-3.37965">
        <ele>32.82</ele>
        <time>2015-09-06T06:47:25Z</time>
      </trkpt>
      <trkpt lat="47.78099" lon="-3.37963">
        <ele>32.82</ele>
        <time>2015-09-06T06:47:26Z</time>
      </trkpt>
      <trkpt lat="47.781" lon="-3.37962">
        <ele>32.82</ele>
        <time>2015-09-06T06:47:27Z</time>
      </trkpt>
      <trkpt lat="47.78102" lon="-3.37961">
        <ele>33.3</ele>
        <time>2015-09-06T06:47:28Z</time>
      </trkpt>
      <trkpt lat="47.78104" lon="-3.3796">
        <ele>33.3</ele>
        <time>2015-09-06T06:47:29Z</time>
      </trkpt>
      <trkpt lat="47.78105" lon="-3.3796">
        <ele>33.3</ele>
        <time>2015-09-06T06:47:30Z</time>
      </trkpt>
      <trkpt lat="47.78106" lon="-3.37958">
        <ele>33.3</ele>
        <time>2015-09-06T06:47:31Z</time>
      </trkpt>
      <trkpt lat="47.78108" lon="-3.37956">
        <ele>33.3</ele>
        <time>2015-09-06T06:47:32Z</time>
      </trkpt>
      <trkpt lat="47.78109" lon="-3.37954">
        <ele>33.3</ele>
        <time>2015-09-06T06:47:33Z</time>
      </trkpt>
      <trkpt lat="47.78112" lon="-3.37953">
        <ele>31.86</ele>
        <time>2015-09-06T06:47:34Z</time>
      </trkpt>
      <trkpt lat="47.78114" lon="-3.37951">
        <ele>31.86</ele>
        <time>2015-09-06T06:47:35Z</time>
      </trkpt>
      <trkpt lat="47.78117" lon="-3.37949">
        <ele>31.38</ele>
        <time>2015-09-06T06:47:36Z</time>
      </trkpt>
      <trkpt lat="47.78119" lon="-3.37947">
        <ele>31.38</ele>
        <time>2015-09-06T06:47:37Z</time>
      </trkpt>
      <trkpt lat="47.78121" lon="-3.37946">
        <ele>30.9</ele>
        <time>2015-09-06T06:47:38Z</time>
      </trkpt>
      <trkpt lat="47.78122" lon="-3.37945">
        <ele>30.9</ele>
        <time>2015-09-06T06:47:39Z</time>
      </trkpt>
      <trkpt lat="47.78124" lon="-3.37942">
        <ele>30.42</ele>
        <time>2015-09-06T06:47:40Z</time>
      </trkpt>
      <trkpt lat="47.78125" lon="-3.3794">
        <ele>29.94</ele>
        <time>2015-09-06T06:47:41Z</time>
      </trkpt>
      <trkpt lat="47.78127" lon="-3.37938">
        <ele>29.94</ele>
        <time>2015-09-06T06:47:42Z</time>
      </trkpt>
      <trkpt lat="47.78129" lon="-3.37936">
        <ele>29.46</ele>
        <time>2015-09-06T06:47:43Z</time>
      </trkpt>
      <trkpt lat="47.78131" lon="-3.37933">
        <ele>28.98</ele>
        <time>2015-09-06T06:47:44Z</time>
      </trkpt>
      <trkpt lat="47.78132" lon="-3.3793">
        <ele>28.98</ele>
        <time>2015-09-06T06:47:45Z</time>
      </trkpt>
      <trkpt lat="47.78134" lon="-3.37926">
        <ele>28.02</ele>
        <time>2015-09-06T06:47:46Z</time>
      </trkpt>
      <trkpt lat="47.78136" lon="-3.37922">
        <ele>27.53</ele>
        <time>2015-09-06T06:47:47Z</time>
      </trkpt>
      <trkpt lat="47.78139" lon="-3.37917">
        <ele>27.05</ele>
        <time>2015-09-06T06:47:48Z</time>
      </trkpt>
      <trkpt lat="47.78142" lon="-3.37911">
        <ele>26.57</ele>
        <time>2015-09-06T06:47:49Z</time>
      </trkpt>
      <trkpt lat="47.78145" lon="-3.37906">
        <ele>25.61</ele>
        <time>2015-09-06T06:47:50Z</time>
      </trkpt>
      <trkpt lat="47.78149" lon="-3.37901">
        <ele>25.13</ele>
        <time>2015-09-06T06:47:51Z</time>
      </trkpt>
      <trkpt lat="47.78153" lon="-3.37896">
        <ele>25.13</ele>
        <time>2015-09-06T06:47:52Z</time>
      </trkpt>
      <trkpt lat="47.78156" lon="-3.37892">
        <ele>24.65</ele>
        <time>2015-09-06T06:47:53Z</time>
      </trkpt>
      <trkpt lat="47.78159" lon="-3.37889">
        <ele>24.65</ele>
        <time>2015-09-06T06:47:54Z</time>
      </trkpt>
      <trkpt lat="47.78162" lon="-3.37889">
        <ele>24.17</ele>
        <time>2015-09-06T06:47:55Z</time>
      </trkpt>
      <trkpt lat="47.78166" lon="-3.37889">
        <ele>24.17</ele>
        <time>2015-09-06T06:47:56Z</time>
      </trkpt>
      <trkpt lat="47.78169" lon="-3.37892">
        <ele>23.69</ele>
        <time>2015-09-06T06:47:57Z</time>
      </trkpt>
      <trkpt lat="47.78171" lon="-3.37896">
        <ele>23.69</ele>
        <time>2015-09-06T06:47:58Z</time>
      </trkpt>
      <trkpt lat="47.78173" lon="-3.379">
        <ele>23.69</ele>
        <time>2015-09-06T06:47:59Z</time>
      </trkpt>
      <trkpt lat="47.78175" lon="-3.37904">
        <ele>23.21</ele>
        <time>2015-09-06T06:48:00Z</time>
      </trkpt>
      <trkpt lat="47.78177" lon="-3.37908">
        <ele>23.21</ele>
        <time>2015-09-06T06:48:01Z</time>
      </trkpt>
      <trkpt lat="47.7818" lon="-3.37912">
        <ele>23.21</ele>
        <time>2015-09-06T06:48:02Z</time>
      </trkpt>
      <trkpt lat="47.78183" lon="-3.37915">
        <ele>23.21</ele>
        <time>2015-09-06T06:48:03Z</time>
      </trkpt>
      <trkpt lat="47.78185" lon="-3.37919">
        <ele>22.25</ele>
        <time>2015-09-06T06:48:04Z</time>
      </trkpt>
      <trkpt lat="47.78187" lon="-3.37923">
        <ele>21.77</ele>
        <time>2015-09-06T06:48:05Z</time>
      </trkpt>
      <trkpt lat="47.7819" lon="-3.37927">
        <ele>21.29</ele>
        <time>2015-09-06T06:48:06Z</time>
      </trkpt>
      <trkpt lat="47.78192" lon="-3.3793">
        <ele>20.81</ele>
        <time>2015-09-06T06:48:07Z</time>
      </trkpt>
      <trkpt lat="47.78194" lon="-3.37933">
        <ele>19.36</ele>
        <time>2015-09-06T06:48:08Z</time>
      </trkpt>
      <trkpt lat="47.78196" lon="-3.37936">
        <ele>18.4</ele>
        <time>2015-09-06T06:48:09Z</time>
      </trkpt>
      <trkpt lat="47.78198" lon="-3.3794">
        <ele>17.44</ele>
        <time>2015-09-06T06:48:10Z</time>
      </trkpt>
      <trkpt lat="47.782" lon="-3.37943">
        <ele>16</ele>
        <time>2015-09-06T06:48:11Z</time>
      </trkpt>
      <trkpt lat="47.78202" lon="-3.37948">
        <ele>15.04</ele>
        <time>2015-09-06T06:48:12Z</time>
      </trkpt>
      <trkpt lat="47.78205" lon="-3.37953">
        <ele>13.12</ele>
        <time>2015-09-06T06:48:13Z</time>
      </trkpt>
      <trkpt lat="47.78207" lon="-3.37958">
        <ele>11.67</ele>
        <time>2015-09-06T06:48:14Z</time>
      </trkpt>
      <trkpt lat="47.78209" lon="-3.37964">
        <ele>10.23</ele>
        <time>2015-09-06T06:48:15Z</time>
      </trkpt>
      <trkpt lat="47.78213" lon="-3.37972">
        <ele>8.79</ele>
        <time>2015-09-06T06:48:16Z</time>
      </trkpt>
      <trkpt lat="47.78217" lon="-3.3798">
        <ele>7.35</ele>
        <time>2015-09-06T06:48:17Z</time>
      </trkpt>
      <trkpt lat="47.78221" lon="-3.37989">
        <ele>6.39</ele>
        <time>2015-09-06T06:48:18Z</time>
      </trkpt>
      <trkpt lat="47.78225" lon="-3.37998">
        <ele>5.91</ele>
        <time>2015-09-06T06:48:19Z</time>
      </trkpt>
      <trkpt lat="47.78229" lon="-3.38007">
        <ele>5.42</ele>
        <time>2015-09-06T06:48:20Z</time>
      </trkpt>
      <trkpt lat="47.78232" lon="-3.38015">
        <ele>5.42</ele>
        <time>2015-09-06T06:48:21Z</time>
      </trkpt>
      <trkpt lat="47.78235" lon="-3.38022">
        <ele>4.94</ele>
        <time>2015-09-06T06:48:22Z</time>
      </trkpt>
      <trkpt lat="47.78238" lon="-3.38028">
        <ele>4.46</ele>
        <time>2015-09-06T06:48:23Z</time>
      </trkpt>
      <trkpt lat="47.78241" lon="-3.38033">
        <ele>4.46</ele>
        <time>2015-09-06T06:48:24Z</time>
      </trkpt>
      <trkpt lat="47.78244" lon="-3.38038">
        <ele>3.98</ele>
        <time>2015-09-06T06:48:25Z</time>
      </trkpt>
      <trkpt lat="47.78246" lon="-3.38044">
        <ele>3.02</ele>
        <time>2015-09-06T06:48:26Z</time>
      </trkpt>
      <trkpt lat="47.78249" lon="-3.38048">
        <ele>2.06</ele>
        <time>2015-09-06T06:48:27Z</time>
      </trkpt>
      <trkpt lat="47.78251" lon="-3.38053">
        <ele>1.58</ele>
        <time>2015-09-06T06:48:28Z</time>
      </trkpt>
      <trkpt lat="47.78252" lon="-3.38057">
        <ele>1.1</ele>
        <time>2015-09-06T06:48:29Z</time>
      </trkpt>
      <trkpt lat="47.78253" lon="-3.38063">
        <ele>1.1</ele>
        <time>2015-09-06T06:48:30Z</time>
      </trkpt>
      <trkpt lat="47.78253" lon="-3.38068">
        <ele>1.1</ele>
        <time>2015-09-06T06:48:31Z</time>
      </trkpt>
      <trkpt lat="47.78252" lon="-3.38072">
        <ele>1.1</ele>
        <time>2015-09-06T06:48:32Z</time>
      </trkpt>
      <trkpt lat="47.7825" lon="-3.38075">
        <ele>1.1</ele>
        <time>2015-09-06T06:48:33Z</time>
      </trkpt>
      <trkpt lat="47.78248" lon="-3.38079">
        <ele>1.1</ele>
        <time>2015-09-06T06:48:34Z</time>
      </trkpt>
      <trkpt lat="47.78246" lon="-3.38084">
        <ele>1.1</ele>
        <time>2015-09-06T06:48:35Z</time>
      </trkpt>
      <trkpt lat="47.78244" lon="-3.38089">
        <ele>1.1</ele>
        <time>2015-09-06T06:48:36Z</time>
      </trkpt>
      <trkpt lat="47.78241" lon="-3.38094">
        <ele>1.1</ele>
        <time>2015-09-06T06:48:37Z</time>
      </trkpt>
      <trkpt lat="47.78238" lon="-3.38099">
        <ele>1.1</ele>
        <time>2015-09-06T06:48:38Z</time>
      </trkpt>
      <trkpt lat="47.78236" lon="-3.38103">
        <ele>2.54</ele>
        <time>2015-09-06T06:48:39Z</time>
      </trkpt>
      <trkpt lat="47.78233" lon="-3.38108">
        <ele>2.54</ele>
        <time>2015-09-06T06:48:40Z</time>
      </trkpt>
      <trkpt lat="47.7823" lon="-3.38114">
        <ele>3.02</ele>
        <time>2015-09-06T06:48:41Z</time>
      </trkpt>
      <trkpt lat="47.78227" lon="-3.38118">
        <ele>3.02</ele>
        <time>2015-09-06T06:48:42Z</time>
      </trkpt>
      <trkpt lat="47.78224" lon="-3.38122">
        <ele>3.98</ele>
        <time>2015-09-06T06:48:43Z</time>
      </trkpt>
      <trkpt lat="47.78222" lon="-3.38126">
        <ele>4.46</ele>
        <time>2015-09-06T06:48:44Z</time>
      </trkpt>
      <trkpt lat="47.78219" lon="-3.3813">
        <ele>4.46</ele>
        <time>2015-09-06T06:48:45Z</time>
      </trkpt>
      <trkpt lat="47.78217" lon="-3.38135">
        <ele>4.94</ele>
        <time>2015-09-06T06:48:46Z</time>
      </trkpt>
      <trkpt lat="47.78215" lon="-3.38138">
        <ele>4.94</ele>
        <time>2015-09-06T06:48:47Z</time>
      </trkpt>
      <trkpt lat="47.78213" lon="-3.38142">
        <ele>5.91</ele>
        <time>2015-09-06T06:48:48Z</time>
      </trkpt>
      <trkpt lat="47.78211" lon="-3.38145">
        <ele>5.91</ele>
        <time>2015-09-06T06:48:49Z</time>
      </trkpt>
      <trkpt lat="47.78209" lon="-3.38147">
        <ele>6.39</ele>
        <time>2015-09-06T06:48:50Z</time>
      </trkpt>
      <trkpt lat="47.78207" lon="-3.3815">
        <ele>6.39</ele>
        <time>2015-09-06T06:48:51Z</time>
      </trkpt>
      <trkpt lat="47.78204" lon="-3.38152">
        <ele>6.87</ele>
        <time>2015-09-06T06:48:52Z</time>
      </trkpt>
      <trkpt lat="47.78201" lon="-3.38154">
        <ele>6.87</ele>
        <time>2015-09-06T06:48:53Z</time>
      </trkpt>
      <trkpt lat="47.78198" lon="-3.38156">
        <ele>7.35</ele>
        <time>2015-09-06T06:48:54Z</time>
      </trkpt>
      <trkpt lat="47.78195" lon="-3.38157">
        <ele>7.35</ele>
        <time>2015-09-06T06:48:55Z</time>
      </trkpt>
      <trkpt lat="47.78192" lon="-3.38159">
        <ele>7.35</ele>
        <time>2015-09-06T06:48:56Z</time>
      </trkpt>
      <trkpt lat="47.78189" lon="-3.3816">
        <ele>7.83</ele>
        <time>2015-09-06T06:48:57Z</time>
      </trkpt>
      <trkpt lat="47.78186" lon="-3.38161">
        <ele>7.83</ele>
        <time>2015-09-06T06:48:58Z</time>
      </trkpt>
      <trkpt lat="47.78182" lon="-3.38163">
        <ele>7.83</ele>
        <time>2015-09-06T06:48:59Z</time>
      </trkpt>
      <trkpt lat="47.78178" lon="-3.38165">
        <ele>8.31</ele>
        <time>2015-09-06T06:49:00Z</time>
      </trkpt>
      <trkpt lat="47.78175" lon="-3.38166">
        <ele>8.31</ele>
        <time>2015-09-06T06:49:01Z</time>
      </trkpt>
      <trkpt lat="47.78171" lon="-3.38168">
        <ele>8.31</ele>
        <time>2015-09-06T06:49:02Z</time>
      </trkpt>
      <trkpt lat="47.78168" lon="-3.38172">
        <ele>8.31</ele>
        <time>2015-09-06T06:49:03Z</time>
      </trkpt>
      <trkpt lat="47.78168" lon="-3.38176">
        <ele>8.31</ele>
        <time>2015-09-06T06:49:04Z</time>
      </trkpt>
      <trkpt lat="47.78169" lon="-3.38179">
        <ele>8.31</ele>
        <time>2015-09-06T06:49:05Z</time>
      </trkpt>
      <trkpt lat="47.78172" lon="-3.38182">
        <ele>8.31</ele>
        <time>2015-09-06T06:49:06Z</time>
      </trkpt>
      <trkpt lat="47.78175" lon="-3.38183">
        <ele>9.27</ele>
        <time>2015-09-06T06:49:07Z</time>
      </trkpt>
      <trkpt lat="47.78177" lon="-3.38182">
        <ele>9.27</ele>
        <time>2015-09-06T06:49:08Z</time>
      </trkpt>
      <trkpt lat="47.7818" lon="-3.38181">
        <ele>9.27</ele>
        <time>2015-09-06T06:49:09Z</time>
      </trkpt>
      <trkpt lat="47.78185" lon="-3.3818">
        <ele>9.27</ele>
        <time>2015-09-06T06:49:10Z</time>
      </trkpt>
      <trkpt lat="47.7819" lon="-3.38182">
        <ele>8.31</ele>
        <time>2015-09-06T06:49:11Z</time>
      </trkpt>
      <trkpt lat="47.78194" lon="-3.38184">
        <ele>8.31</ele>
        <time>2015-09-06T06:49:12Z</time>
      </trkpt>
      <trkpt lat="47.78198" lon="-3.38184">
        <ele>8.31</ele>
        <time>2015-09-06T06:49:13Z</time>
      </trkpt>
      <trkpt lat="47.78201" lon="-3.38181">
        <ele>7.83</ele>
        <time>2015-09-06T06:49:14Z</time>
      </trkpt>
      <trkpt lat="47.78205" lon="-3.38179">
        <ele>7.83</ele>
        <time>2015-09-06T06:49:15Z</time>
      </trkpt>
      <trkpt lat="47.78209" lon="-3.38178">
        <ele>7.83</ele>
        <time>2015-09-06T06:49:16Z</time>
      </trkpt>
      <trkpt lat="47.78212" lon="-3.38178">
        <ele>8.79</ele>
        <time>2015-09-06T06:49:17Z</time>
      </trkpt>
      <trkpt lat="47.78214" lon="-3.38179">
        <ele>9.75</ele>
        <time>2015-09-06T06:49:18Z</time>
      </trkpt>
      <trkpt lat="47.78217" lon="-3.3818">
        <ele>9.75</ele>
        <time>2015-09-06T06:49:19Z</time>
      </trkpt>
      <trkpt lat="47.7822" lon="-3.38181">
        <ele>9.75</ele>
        <time>2015-09-06T06:49:20Z</time>
      </trkpt>
      <trkpt lat="47.78223" lon="-3.38183">
        <ele>9.27</ele>
        <time>2015-09-06T06:49:21Z</time>
      </trkpt>
      <trkpt lat="47.78225" lon="-3.38188">
        <ele>9.27</ele>
        <time>2015-09-06T06:49:22Z</time>
      </trkpt>
      <trkpt lat="47.78225" lon="-3.38193">
        <ele>9.75</ele>
        <time>2015-09-06T06:49:23Z</time>
      </trkpt>
      <trkpt lat="47.78225" lon="-3.38196">
        <ele>10.23</ele>
        <time>2015-09-06T06:49:24Z</time>
      </trkpt>
      <trkpt lat="47.78225" lon="-3.382">
        <ele>10.23</ele>
        <time>2015-09-06T06:49:25Z</time>
      </trkpt>
      <trkpt lat="47.78225" lon="-3.38204">
        <ele>10.71</ele>
        <time>2015-09-06T06:49:26Z</time>
      </trkpt>
      <trkpt lat="47.78224" lon="-3.38207">
        <ele>10.71</ele>
        <time>2015-09-06T06:49:27Z</time>
      </trkpt>
      <trkpt lat="47.78222" lon="-3.38209">
        <ele>11.67</ele>
        <time>2015-09-06T06:49:28Z</time>
      </trkpt>
      <trkpt lat="47.78221" lon="-3.38212">
        <ele>11.67</ele>
        <time>2015-09-06T06:49:29Z</time>
      </trkpt>
      <trkpt lat="47.7822" lon="-3.38214">
        <ele>12.63</ele>
        <time>2015-09-06T06:49:30Z</time>
      </trkpt>
      <trkpt lat="47.78219" lon="-3.38217">
        <ele>12.63</ele>
        <time>2015-09-06T06:49:31Z</time>
      </trkpt>
      <trkpt lat="47.78218" lon="-3.3822">
        <ele>12.63</ele>
        <time>2015-09-06T06:49:32Z</time>
      </trkpt>
      <trkpt lat="47.78217" lon="-3.38222">
        <ele>13.12</ele>
        <time>2015-09-06T06:49:33Z</time>
      </trkpt>
      <trkpt lat="47.78215" lon="-3.38225">
        <ele>13.12</ele>
        <time>2015-09-06T06:49:34Z</time>
      </trkpt>
      <trkpt lat="47.78214" lon="-3.38228">
        <ele>13.6</ele>
        <time>2015-09-06T06:49:35Z</time>
      </trkpt>
      <trkpt lat="47.78212" lon="-3.38231">
        <ele>13.6</ele>
        <time>2015-09-06T06:49:36Z</time>
      </trkpt>
      <trkpt lat="47.78211" lon="-3.38234">
        <ele>13.6</ele>
        <time>2015-09-06T06:49:37Z</time>
      </trkpt>
      <trkpt lat="47.78209" lon="-3.38237">
        <ele>14.08</ele>
        <time>2015-09-06T06:49:38Z</time>
      </trkpt>
      <trkpt lat="47.78207" lon="-3.3824">
        <ele>14.56</ele>
        <time>2015-09-06T06:49:39Z</time>
      </trkpt>
      <trkpt lat="47.78206" lon="-3.38244">
        <ele>14.56</ele>
        <time>2015-09-06T06:49:40Z</time>
      </trkpt>
      <trkpt lat="47.78205" lon="-3.38247">
        <ele>14.56</ele>
        <time>2015-09-06T06:49:41Z</time>
      </trkpt>
      <trkpt lat="47.78203" lon="-3.3825">
        <ele>14.56</ele>
        <time>2015-09-06T06:49:42Z</time>
      </trkpt>
      <trkpt lat="47.78202" lon="-3.38254">
        <ele>15.04</ele>
        <time>2015-09-06T06:49:43Z</time>
      </trkpt>
      <trkpt lat="47.782" lon="-3.38259">
        <ele>15.52</ele>
        <time>2015-09-06T06:49:44Z</time>
      </trkpt>
      <trkpt lat="47.78199" lon="-3.38263">
        <ele>15.52</ele>
        <time>2015-09-06T06:49:45Z</time>
      </trkpt>
      <trkpt lat="47.78199" lon="-3.38267">
        <ele>15.52</ele>
        <time>2015-09-06T06:49:46Z</time>
      </trkpt>
      <trkpt lat="47.78199" lon="-3.38272">
        <ele>15.52</ele>
        <time>2015-09-06T06:49:47Z</time>
      </trkpt>
      <trkpt lat="47.78198" lon="-3.38278">
        <ele>15.52</ele>
        <time>2015-09-06T06:49:48Z</time>
      </trkpt>
      <trkpt lat="47.78197" lon="-3.38282">
        <ele>15.52</ele>
        <time>2015-09-06T06:49:49Z</time>
      </trkpt>
      <trkpt lat="47.78196" lon="-3.38284">
        <ele>16</ele>
        <time>2015-09-06T06:49:50Z</time>
      </trkpt>
      <trkpt lat="47.78196" lon="-3.38286">
        <ele>16</ele>
        <time>2015-09-06T06:49:51Z</time>
      </trkpt>
      <trkpt lat="47.78196" lon="-3.38289">
        <ele>16.48</ele>
        <time>2015-09-06T06:49:52Z</time>
      </trkpt>
      <trkpt lat="47.78196" lon="-3.3829">
        <ele>16.48</ele>
        <time>2015-09-06T06:49:53Z</time>
      </trkpt>
      <trkpt lat="47.78197" lon="-3.38292">
        <ele>16.48</ele>
        <time>2015-09-06T06:49:54Z</time>
      </trkpt>
      <trkpt lat="47.782" lon="-3.38294">
        <ele>16.48</ele>
        <time>2015-09-06T06:49:55Z</time>
      </trkpt>
      <trkpt lat="47.78203" lon="-3.38295">
        <ele>14.56</ele>
        <time>2015-09-06T06:49:56Z</time>
      </trkpt>
      <trkpt lat="47.78205" lon="-3.38299">
        <ele>14.08</ele>
        <time>2015-09-06T06:49:57Z</time>
      </trkpt>
      <trkpt lat="47.78207" lon="-3.38304">
        <ele>14.08</ele>
        <time>2015-09-06T06:49:58Z</time>
      </trkpt>
      <trkpt lat="47.7821" lon="-3.38309">
        <ele>13.12</ele>
        <time>2015-09-06T06:49:59Z</time>
      </trkpt>
      <trkpt lat="47.78214" lon="-3.38314">
        <ele>12.63</ele>
        <time>2015-09-06T06:50:00Z</time>
      </trkpt>
      <trkpt lat="47.78218" lon="-3.38319">
        <ele>11.67</ele>
        <time>2015-09-06T06:50:01Z</time>
      </trkpt>
      <trkpt lat="47.78223" lon="-3.38324">
        <ele>10.71</ele>
        <time>2015-09-06T06:50:02Z</time>
      </trkpt>
      <trkpt lat="47.78229" lon="-3.38328">
        <ele>9.27</ele>
        <time>2015-09-06T06:50:03Z</time>
      </trkpt>
      <trkpt lat="47.78234" lon="-3.38334">
        <ele>7.83</ele>
        <time>2015-09-06T06:50:04Z</time>
      </trkpt>
      <trkpt lat="47.78239" lon="-3.3834">
        <ele>6.39</ele>
        <time>2015-09-06T06:50:05Z</time>
      </trkpt>
      <trkpt lat="47.78245" lon="-3.38346">
        <ele>5.42</ele>
        <time>2015-09-06T06:50:06Z</time>
      </trkpt>
      <trkpt lat="47.78249" lon="-3.38349">
        <ele>4.94</ele>
        <time>2015-09-06T06:50:07Z</time>
      </trkpt>
      <trkpt lat="47.78255" lon="-3.38351">
        <ele>3.98</ele>
        <time>2015-09-06T06:50:08Z</time>
      </trkpt>
      <trkpt lat="47.78261" lon="-3.38354">
        <ele>3.5</ele>
        <time>2015-09-06T06:50:09Z</time>
      </trkpt>
      <trkpt lat="47.78267" lon="-3.38359">
        <ele>3.5</ele>
        <time>2015-09-06T06:50:10Z</time>
      </trkpt>
      <trkpt lat="47.78273" lon="-3.38363">
        <ele>3.02</ele>
        <time>2015-09-06T06:50:11Z</time>
      </trkpt>
      <trkpt lat="47.78279" lon="-3.38366">
        <ele>2.54</ele>
        <time>2015-09-06T06:50:12Z</time>
      </trkpt>
      <trkpt lat="47.78285" lon="-3.3837">
        <ele>2.54</ele>
        <time>2015-09-06T06:50:13Z</time>
      </trkpt>
      <trkpt lat="47.78289" lon="-3.38373">
        <ele>2.06</ele>
        <time>2015-09-06T06:50:14Z</time>
      </trkpt>
      <trkpt lat="47.78295" lon="-3.38376">
        <ele>2.06</ele>
        <time>2015-09-06T06:50:15Z</time>
      </trkpt>
      <trkpt lat="47.78301" lon="-3.38379">
        <ele>1.58</ele>
        <time>2015-09-06T06:50:16Z</time>
      </trkpt>
      <trkpt lat="47.78307" lon="-3.38382">
        <ele>1.58</ele>
        <time>2015-09-06T06:50:17Z</time>
      </trkpt>
      <trkpt lat="47.78312" lon="-3.38384">
        <ele>1.58</ele>
        <time>2015-09-06T06:50:18Z</time>
      </trkpt>
      <trkpt lat="47.78317" lon="-3.38387">
        <ele>1.1</ele>
        <time>2015-09-06T06:50:19Z</time>
      </trkpt>
      <trkpt lat="47.78321" lon="-3.38394">
        <ele>1.1</ele>
        <time>2015-09-06T06:50:20Z</time>
      </trkpt>
      <trkpt lat="47.78322" lon="-3.38401">
        <ele>1.1</ele>
        <time>2015-09-06T06:50:21Z</time>
      </trkpt>
      <trkpt lat="47.78322" lon="-3.38407">
        <ele>1.1</ele>
        <time>2015-09-06T06:50:22Z</time>
      </trkpt>
      <trkpt lat="47.78323" lon="-3.38413">
        <ele>2.54</ele>
        <time>2015-09-06T06:50:23Z</time>
      </trkpt>
      <trkpt lat="47.78323" lon="-3.38418">
        <ele>3.02</ele>
        <time>2015-09-06T06:50:24Z</time>
      </trkpt>
      <trkpt lat="47.78324" lon="-3.38423">
        <ele>3.5</ele>
        <time>2015-09-06T06:50:25Z</time>
      </trkpt>
      <trkpt lat="47.78324" lon="-3.38427">
        <ele>3.98</ele>
        <time>2015-09-06T06:50:26Z</time>
      </trkpt>
      <trkpt lat="47.78324" lon="-3.38431">
        <ele>4.46</ele>
        <time>2015-09-06T06:50:27Z</time>
      </trkpt>
      <trkpt lat="47.78325" lon="-3.38435">
        <ele>4.94</ele>
        <time>2015-09-06T06:50:28Z</time>
      </trkpt>
      <trkpt lat="47.78326" lon="-3.38439">
        <ele>4.94</ele>
        <time>2015-09-06T06:50:29Z</time>
      </trkpt>
      <trkpt lat="47.78326" lon="-3.38443">
        <ele>5.91</ele>
        <time>2015-09-06T06:50:30Z</time>
      </trkpt>
      <trkpt lat="47.78327" lon="-3.38447">
        <ele>5.91</ele>
        <time>2015-09-06T06:50:31Z</time>
      </trkpt>
      <trkpt lat="47.78327" lon="-3.38451">
        <ele>5.91</ele>
        <time>2015-09-06T06:50:32Z</time>
      </trkpt>
      <trkpt lat="47.78328" lon="-3.38455">
        <ele>5.91</ele>
        <time>2015-09-06T06:50:33Z</time>
      </trkpt>
      <trkpt lat="47.78331" lon="-3.38461">
        <ele>5.91</ele>
        <time>2015-09-06T06:50:34Z</time>
      </trkpt>
      <trkpt lat="47.78334" lon="-3.38467">
        <ele>3.98</ele>
        <time>2015-09-06T06:50:35Z</time>
      </trkpt>
      <trkpt lat="47.78336" lon="-3.38474">
        <ele>3.5</ele>
        <time>2015-09-06T06:50:36Z</time>
      </trkpt>
      <trkpt lat="47.78338" lon="-3.38481">
        <ele>3.02</ele>
        <time>2015-09-06T06:50:37Z</time>
      </trkpt>
      <trkpt lat="47.7834" lon="-3.38489">
        <ele>3.02</ele>
        <time>2015-09-06T06:50:38Z</time>
      </trkpt>
      <trkpt lat="47.78343" lon="-3.38497">
        <ele>2.54</ele>
        <time>2015-09-06T06:50:39Z</time>
      </trkpt>
      <trkpt lat="47.78345" lon="-3.38505">
        <ele>2.54</ele>
        <time>2015-09-06T06:50:40Z</time>
      </trkpt>
      <trkpt lat="47.78347" lon="-3.38513">
        <ele>1.58</ele>
        <time>2015-09-06T06:50:41Z</time>
      </trkpt>
      <trkpt lat="47.78349" lon="-3.3852">
        <ele>1.58</ele>
        <time>2015-09-06T06:50:42Z</time>
      </trkpt>
      <trkpt lat="47.78352" lon="-3.38528">
        <ele>1.58</ele>
        <time>2015-09-06T06:50:43Z</time>
      </trkpt>
      <trkpt lat="47.78355" lon="-3.38536">
        <ele>1.58</ele>
        <time>2015-09-06T06:50:44Z</time>
      </trkpt>
      <trkpt lat="47.78357" lon="-3.38543">
        <ele>1.58</ele>
        <time>2015-09-06T06:50:45Z</time>
      </trkpt>
      <trkpt lat="47.7836" lon="-3.38548">
        <ele>1.58</ele>
        <time>2015-09-06T06:50:46Z</time>
      </trkpt>
      <trkpt lat="47.78364" lon="-3.38551">
        <ele>1.58</ele>
        <time>2015-09-06T06:50:47Z</time>
      </trkpt>
      <trkpt lat="47.78367" lon="-3.38553">
        <ele>1.58</ele>
        <time>2015-09-06T06:50:48Z</time>
      </trkpt>
      <trkpt lat="47.78371" lon="-3.38556">
        <ele>1.58</ele>
        <time>2015-09-06T06:50:49Z</time>
      </trkpt>
      <trkpt lat="47.78375" lon="-3.3856">
        <ele>1.58</ele>
        <time>2015-09-06T06:50:50Z</time>
      </trkpt>
      <trkpt lat="47.78378" lon="-3.38564">
        <ele>1.58</ele>
        <time>2015-09-06T06:50:51Z</time>
      </trkpt>
      <trkpt lat="47.78382" lon="-3.38567">
        <ele>1.58</ele>
        <time>2015-09-06T06:50:52Z</time>
      </trkpt>
      <trkpt lat="47.78386" lon="-3.3857">
        <ele>1.58</ele>
        <time>2015-09-06T06:50:53Z</time>
      </trkpt>
      <trkpt lat="47.7839" lon="-3.38573">
        <ele>1.58</ele>
        <time>2015-09-06T06:50:54Z</time>
      </trkpt>
      <trkpt lat="47.78394" lon="-3.38575">
        <ele>2.54</ele>
        <time>2015-09-06T06:50:55Z</time>
      </trkpt>
      <trkpt lat="47.78398" lon="-3.38577">
        <ele>2.54</ele>
        <time>2015-09-06T06:50:56Z</time>
      </trkpt>
      <trkpt lat="47.78401" lon="-3.38578">
        <ele>3.5</ele>
        <time>2015-09-06T06:50:57Z</time>
      </trkpt>
      <trkpt lat="47.78405" lon="-3.3858">
        <ele>3.5</ele>
        <time>2015-09-06T06:50:58Z</time>
      </trkpt>
      <trkpt lat="47.78407" lon="-3.38582">
        <ele>3.98</ele>
        <time>2015-09-06T06:50:59Z</time>
      </trkpt>
      <trkpt lat="47.78409" lon="-3.38583">
        <ele>3.98</ele>
        <time>2015-09-06T06:51:00Z</time>
      </trkpt>
      <trkpt lat="47.78411" lon="-3.38584">
        <ele>4.46</ele>
        <time>2015-09-06T06:51:01Z</time>
      </trkpt>
      <trkpt lat="47.78414" lon="-3.38585">
        <ele>4.46</ele>
        <time>2015-09-06T06:51:02Z</time>
      </trkpt>
      <trkpt lat="47.78416" lon="-3.38586">
        <ele>4.46</ele>
        <time>2015-09-06T06:51:03Z</time>
      </trkpt>
      <trkpt lat="47.78418" lon="-3.38587">
        <ele>5.42</ele>
        <time>2015-09-06T06:51:04Z</time>
      </trkpt>
      <trkpt lat="47.7842" lon="-3.38587">
        <ele>5.42</ele>
        <time>2015-09-06T06:51:05Z</time>
      </trkpt>
      <trkpt lat="47.78422" lon="-3.38587">
        <ele>5.91</ele>
        <time>2015-09-06T06:51:06Z</time>
      </trkpt>
      <trkpt lat="47.78423" lon="-3.38587">
        <ele>5.91</ele>
        <time>2015-09-06T06:51:07Z</time>
      </trkpt>
      <trkpt lat="47.78425" lon="-3.38587">
        <ele>6.39</ele>
        <time>2015-09-06T06:51:08Z</time>
      </trkpt>
      <trkpt lat="47.78426" lon="-3.38587">
        <ele>6.39</ele>
        <time>2015-09-06T06:51:09Z</time>
      </trkpt>
      <trkpt lat="47.78428" lon="-3.38587">
        <ele>6.87</ele>
        <time>2015-09-06T06:51:10Z</time>
      </trkpt>
      <trkpt lat="47.7843" lon="-3.38587">
        <ele>6.87</ele>
        <time>2015-09-06T06:51:11Z</time>
      </trkpt>
      <trkpt lat="47.78431" lon="-3.38587">
        <ele>7.35</ele>
        <time>2015-09-06T06:51:12Z</time>
      </trkpt>
      <trkpt lat="47.78433" lon="-3.38587">
        <ele>7.35</ele>
        <time>2015-09-06T06:51:13Z</time>
      </trkpt>
      <trkpt lat="47.78434" lon="-3.38587">
        <ele>7.35</ele>
        <time>2015-09-06T06:51:14Z</time>
      </trkpt>
      <trkpt lat="47.78436" lon="-3.38587">
        <ele>8.31</ele>
        <time>2015-09-06T06:51:15Z</time>
      </trkpt>
      <trkpt lat="47.78437" lon="-3.38588">
        <ele>8.79</ele>
        <time>2015-09-06T06:51:16Z</time>
      </trkpt>
      <trkpt lat="47.78439" lon="-3.38589">
        <ele>8.79</ele>
        <time>2015-09-06T06:51:17Z</time>
      </trkpt>
      <trkpt lat="47.7844" lon="-3.38589">
        <ele>9.27</ele>
        <time>2015-09-06T06:51:18Z</time>
      </trkpt>
      <trkpt lat="47.78442" lon="-3.3859">
        <ele>9.27</ele>
        <time>2015-09-06T06:51:19Z</time>
      </trkpt>
      <trkpt lat="47.78444" lon="-3.38591">
        <ele>9.75</ele>
        <time>2015-09-06T06:51:20Z</time>
      </trkpt>
      <trkpt lat="47.78445" lon="-3.38592">
        <ele>9.75</ele>
        <time>2015-09-06T06:51:21Z</time>
      </trkpt>
      <trkpt lat="47.78447" lon="-3.38593">
        <ele>10.23</ele>
        <time>2015-09-06T06:51:22Z</time>
      </trkpt>
      <trkpt lat="47.78449" lon="-3.38594">
        <ele>10.23</ele>
        <time>2015-09-06T06:51:23Z</time>
      </trkpt>
      <trkpt lat="47.78451" lon="-3.38595">
        <ele>11.19</ele>
        <time>2015-09-06T06:51:24Z</time>
      </trkpt>
      <trkpt lat="47.78453" lon="-3.38596">
        <ele>11.19</ele>
        <time>2015-09-06T06:51:25Z</time>
      </trkpt>
      <trkpt lat="47.78455" lon="-3.38596">
        <ele>11.67</ele>
        <time>2015-09-06T06:51:26Z</time>
      </trkpt>
      <trkpt lat="47.78456" lon="-3.38597">
        <ele>11.67</ele>
        <time>2015-09-06T06:51:27Z</time>
      </trkpt>
      <trkpt lat="47.78458" lon="-3.38598">
        <ele>12.15</ele>
        <time>2015-09-06T06:51:28Z</time>
      </trkpt>
      <trkpt lat="47.78459" lon="-3.38599">
        <ele>12.15</ele>
        <time>2015-09-06T06:51:29Z</time>
      </trkpt>
      <trkpt lat="47.78461" lon="-3.386">
        <ele>13.12</ele>
        <time>2015-09-06T06:51:30Z</time>
      </trkpt>
      <trkpt lat="47.78463" lon="-3.38601">
        <ele>13.12</ele>
        <time>2015-09-06T06:51:31Z</time>
      </trkpt>
      <trkpt lat="47.78465" lon="-3.38602">
        <ele>13.6</ele>
        <time>2015-09-06T06:51:32Z</time>
      </trkpt>
      <trkpt lat="47.78466" lon="-3.38603">
        <ele>13.6</ele>
        <time>2015-09-06T06:51:33Z</time>
      </trkpt>
      <trkpt lat="47.78467" lon="-3.38604">
        <ele>13.6</ele>
        <time>2015-09-06T06:51:34Z</time>
      </trkpt>
      <trkpt lat="47.78469" lon="-3.38606">
        <ele>14.08</ele>
        <time>2015-09-06T06:51:35Z</time>
      </trkpt>
      <trkpt lat="47.7847" lon="-3.38607">
        <ele>14.08</ele>
        <time>2015-09-06T06:51:36Z</time>
      </trkpt>
      <trkpt lat="47.78472" lon="-3.38608">
        <ele>14.56</ele>
        <time>2015-09-06T06:51:37Z</time>
      </trkpt>
      <trkpt lat="47.78473" lon="-3.3861">
        <ele>14.56</ele>
        <time>2015-09-06T06:51:38Z</time>
      </trkpt>
      <trkpt lat="47.78475" lon="-3.38611">
        <ele>15.04</ele>
        <time>2015-09-06T06:51:39Z</time>
      </trkpt>
      <trkpt lat="47.78476" lon="-3.38612">
        <ele>15.04</ele>
        <time>2015-09-06T06:51:40Z</time>
      </trkpt>
      <trkpt lat="47.78477" lon="-3.38614">
        <ele>15.52</ele>
        <time>2015-09-06T06:51:41Z</time>
      </trkpt>
      <trkpt lat="47.78479" lon="-3.38615">
        <ele>15.52</ele>
        <time>2015-09-06T06:51:42Z</time>
      </trkpt>
      <trkpt lat="47.7848" lon="-3.38617">
        <ele>16.48</ele>
        <time>2015-09-06T06:51:43Z</time>
      </trkpt>
      <trkpt lat="47.78482" lon="-3.38618">
        <ele>16.48</ele>
        <time>2015-09-06T06:51:44Z</time>
      </trkpt>
      <trkpt lat="47.78483" lon="-3.38619">
        <ele>16.96</ele>
        <time>2015-09-06T06:51:45Z</time>
      </trkpt>
      <trkpt lat="47.78484" lon="-3.38621">
        <ele>17.44</ele>
        <time>2015-09-06T06:51:46Z</time>
      </trkpt>
      <trkpt lat="47.78485" lon="-3.38622">
        <ele>17.44</ele>
        <time>2015-09-06T06:51:47Z</time>
      </trkpt>
      <trkpt lat="47.78486" lon="-3.38623">
        <ele>17.44</ele>
        <time>2015-09-06T06:51:48Z</time>
      </trkpt>
      <trkpt lat="47.78488" lon="-3.38624">
        <ele>17.92</ele>
        <time>2015-09-06T06:51:49Z</time>
      </trkpt>
      <trkpt lat="47.7849" lon="-3.38625">
        <ele>17.92</ele>
        <time>2015-09-06T06:51:50Z</time>
      </trkpt>
      <trkpt lat="47.78492" lon="-3.38627">
        <ele>17.92</ele>
        <time>2015-09-06T06:51:51Z</time>
      </trkpt>
      <trkpt lat="47.78494" lon="-3.38628">
        <ele>18.88</ele>
        <time>2015-09-06T06:51:52Z</time>
      </trkpt>
      <trkpt lat="47.78496" lon="-3.3863">
        <ele>19.36</ele>
        <time>2015-09-06T06:51:53Z</time>
      </trkpt>
      <trkpt lat="47.78499" lon="-3.38632">
        <ele>19.84</ele>
        <time>2015-09-06T06:51:54Z</time>
      </trkpt>
      <trkpt lat="47.78501" lon="-3.38634">
        <ele>19.84</ele>
        <time>2015-09-06T06:51:55Z</time>
      </trkpt>
      <trkpt lat="47.78503" lon="-3.38635">
        <ele>20.32</ele>
        <time>2015-09-06T06:51:56Z</time>
      </trkpt>
      <trkpt lat="47.78505" lon="-3.38637">
        <ele>20.81</ele>
        <time>2015-09-06T06:51:57Z</time>
      </trkpt>
      <trkpt lat="47.78506" lon="-3.38638">
        <ele>20.81</ele>
        <time>2015-09-06T06:51:58Z</time>
      </trkpt>
      <trkpt lat="47.78508" lon="-3.3864">
        <ele>21.77</ele>
        <time>2015-09-06T06:51:59Z</time>
      </trkpt>
      <trkpt lat="47.78509" lon="-3.38642">
        <ele>21.77</ele>
        <time>2015-09-06T06:52:00Z</time>
      </trkpt>
      <trkpt lat="47.78511" lon="-3.38643">
        <ele>22.25</ele>
        <time>2015-09-06T06:52:01Z</time>
      </trkpt>
      <trkpt lat="47.78511" lon="-3.38644">
        <ele>22.25</ele>
        <time>2015-09-06T06:52:02Z</time>
      </trkpt>
      <trkpt lat="47.78513" lon="-3.38646">
        <ele>22.73</ele>
        <time>2015-09-06T06:52:03Z</time>
      </trkpt>
      <trkpt lat="47.78514" lon="-3.38647">
        <ele>22.73</ele>
        <time>2015-09-06T06:52:04Z</time>
      </trkpt>
      <trkpt lat="47.78515" lon="-3.38648">
        <ele>22.73</ele>
        <time>2015-09-06T06:52:05Z</time>
      </trkpt>
      <trkpt lat="47.78516" lon="-3.38649">
        <ele>23.21</ele>
        <time>2015-09-06T06:52:06Z</time>
      </trkpt>
      <trkpt lat="47.78517" lon="-3.3865">
        <ele>23.21</ele>
        <time>2015-09-06T06:52:07Z</time>
      </trkpt>
      <trkpt lat="47.78518" lon="-3.38651">
        <ele>23.21</ele>
        <time>2015-09-06T06:52:08Z</time>
      </trkpt>
      <trkpt lat="47.78519" lon="-3.38653">
        <ele>23.21</ele>
        <time>2015-09-06T06:52:09Z</time>
      </trkpt>
      <trkpt lat="47.7852" lon="-3.38655">
        <ele>23.21</ele>
        <time>2015-09-06T06:52:10Z</time>
      </trkpt>
      <trkpt lat="47.78522" lon="-3.38657">
        <ele>23.69</ele>
        <time>2015-09-06T06:52:11Z</time>
      </trkpt>
      <trkpt lat="47.78523" lon="-3.38658">
        <ele>24.17</ele>
        <time>2015-09-06T06:52:12Z</time>
      </trkpt>
      <trkpt lat="47.78525" lon="-3.38659">
        <ele>24.17</ele>
        <time>2015-09-06T06:52:13Z</time>
      </trkpt>
      <trkpt lat="47.78526" lon="-3.3866">
        <ele>24.17</ele>
        <time>2015-09-06T06:52:14Z</time>
      </trkpt>
      <trkpt lat="47.78527" lon="-3.38662">
        <ele>24.17</ele>
        <time>2015-09-06T06:52:15Z</time>
      </trkpt>
      <trkpt lat="47.78528" lon="-3.38663">
        <ele>24.17</ele>
        <time>2015-09-06T06:52:16Z</time>
      </trkpt>
      <trkpt lat="47.7853" lon="-3.38665">
        <ele>25.13</ele>
        <time>2015-09-06T06:52:17Z</time>
      </trkpt>
      <trkpt lat="47.78531" lon="-3.38666">
        <ele>25.13</ele>
        <time>2015-09-06T06:52:18Z</time>
      </trkpt>
      <trkpt lat="47.78532" lon="-3.38667">
        <ele>25.13</ele>
        <time>2015-09-06T06:52:19Z</time>
      </trkpt>
      <trkpt lat="47.78533" lon="-3.38668">
        <ele>25.13</ele>
        <time>2015-09-06T06:52:20Z</time>
      </trkpt>
      <trkpt lat="47.78534" lon="-3.3867">
        <ele>25.61</ele>
        <time>2015-09-06T06:52:21Z</time>
      </trkpt>
      <trkpt lat="47.78536" lon="-3.38671">
        <ele>25.61</ele>
        <time>2015-09-06T06:52:22Z</time>
      </trkpt>
      <trkpt lat="47.78537" lon="-3.38673">
        <ele>25.61</ele>
        <time>2015-09-06T06:52:23Z</time>
      </trkpt>
      <trkpt lat="47.78539" lon="-3.38675">
        <ele>26.09</ele>
        <time>2015-09-06T06:52:24Z</time>
      </trkpt>
      <trkpt lat="47.7854" lon="-3.38676">
        <ele>26.09</ele>
        <time>2015-09-06T06:52:25Z</time>
      </trkpt>
      <trkpt lat="47.78541" lon="-3.38677">
        <ele>26.09</ele>
        <time>2015-09-06T06:52:26Z</time>
      </trkpt>
      <trkpt lat="47.78543" lon="-3.38679">
        <ele>27.05</ele>
        <time>2015-09-06T06:52:27Z</time>
      </trkpt>
      <trkpt lat="47.78544" lon="-3.38681">
        <ele>27.05</ele>
        <time>2015-09-06T06:52:28Z</time>
      </trkpt>
      <trkpt lat="47.78546" lon="-3.38683">
        <ele>27.05</ele>
        <time>2015-09-06T06:52:29Z</time>
      </trkpt>
      <trkpt lat="47.78547" lon="-3.38685">
        <ele>27.53</ele>
        <time>2015-09-06T06:52:30Z</time>
      </trkpt>
      <trkpt lat="47.78549" lon="-3.38687">
        <ele>27.53</ele>
        <time>2015-09-06T06:52:31Z</time>
      </trkpt>
      <trkpt lat="47.78551" lon="-3.38689">
        <ele>27.53</ele>
        <time>2015-09-06T06:52:32Z</time>
      </trkpt>
      <trkpt lat="47.78552" lon="-3.38691">
        <ele>27.53</ele>
        <time>2015-09-06T06:52:33Z</time>
      </trkpt>
      <trkpt lat="47.78554" lon="-3.38693">
        <ele>27.53</ele>
        <time>2015-09-06T06:52:34Z</time>
      </trkpt>
      <trkpt lat="47.78555" lon="-3.38694">
        <ele>27.53</ele>
        <time>2015-09-06T06:52:35Z</time>
      </trkpt>
      <trkpt lat="47.78557" lon="-3.38696">
        <ele>27.53</ele>
        <time>2015-09-06T06:52:36Z</time>
      </trkpt>
      <trkpt lat="47.78559" lon="-3.38697">
        <ele>28.02</ele>
        <time>2015-09-06T06:52:37Z</time>
      </trkpt>
      <trkpt lat="47.7856" lon="-3.38699">
        <ele>28.02</ele>
        <time>2015-09-06T06:52:38Z</time>
      </trkpt>
      <trkpt lat="47.78562" lon="-3.38701">
        <ele>28.02</ele>
        <time>2015-09-06T06:52:39Z</time>
      </trkpt>
      <trkpt lat="47.78563" lon="-3.38703">
        <ele>28.02</ele>
        <time>2015-09-06T06:52:40Z</time>
      </trkpt>
      <trkpt lat="47.78565" lon="-3.38705">
        <ele>28.02</ele>
        <time>2015-09-06T06:52:41Z</time>
      </trkpt>
      <trkpt lat="47.78566" lon="-3.38707">
        <ele>28.5</ele>
        <time>2015-09-06T06:52:42Z</time>
      </trkpt>
      <trkpt lat="47.78568" lon="-3.38709">
        <ele>28.5</ele>
        <time>2015-09-06T06:52:43Z</time>
      </trkpt>
      <trkpt lat="47.7857" lon="-3.38711">
        <ele>28.5</ele>
        <time>2015-09-06T06:52:44Z</time>
      </trkpt>
      <trkpt lat="47.78572" lon="-3.38713">
        <ele>28.5</ele>
        <time>2015-09-06T06:52:45Z</time>
      </trkpt>
      <trkpt lat="47.78574" lon="-3.38715">
        <ele>28.5</ele>
        <time>2015-09-06T06:52:46Z</time>
      </trkpt>
      <trkpt lat="47.78576" lon="-3.38717">
        <ele>28.5</ele>
        <time>2015-09-06T06:52:47Z</time>
      </trkpt>
      <trkpt lat="47.78579" lon="-3.38719">
        <ele>28.98</ele>
        <time>2015-09-06T06:52:48Z</time>
      </trkpt>
      <trkpt lat="47.78582" lon="-3.38721">
        <ele>28.98</ele>
        <time>2015-09-06T06:52:49Z</time>
      </trkpt>
      <trkpt lat="47.78585" lon="-3.38723">
        <ele>28.98</ele>
        <time>2015-09-06T06:52:50Z</time>
      </trkpt>
      <trkpt lat="47.78587" lon="-3.38725">
        <ele>28.98</ele>
        <time>2015-09-06T06:52:51Z</time>
      </trkpt>
      <trkpt lat="47.7859" lon="-3.38728">
        <ele>28.98</ele>
        <time>2015-09-06T06:52:52Z</time>
      </trkpt>
      <trkpt lat="47.78593" lon="-3.3873">
        <ele>29.46</ele>
        <time>2015-09-06T06:52:53Z</time>
      </trkpt>
      <trkpt lat="47.78596" lon="-3.38731">
        <ele>29.46</ele>
        <time>2015-09-06T06:52:54Z</time>
      </trkpt>
      <trkpt lat="47.78599" lon="-3.38734">
        <ele>29.46</ele>
        <time>2015-09-06T06:52:55Z</time>
      </trkpt>
      <trkpt lat="47.78603" lon="-3.38736">
        <ele>29.46</ele>
        <time>2015-09-06T06:52:56Z</time>
      </trkpt>
      <trkpt lat="47.78606" lon="-3.38737">
        <ele>29.94</ele>
        <time>2015-09-06T06:52:57Z</time>
      </trkpt>
      <trkpt lat="47.78609" lon="-3.38739">
        <ele>29.94</ele>
        <time>2015-09-06T06:52:58Z</time>
      </trkpt>
      <trkpt lat="47.78612" lon="-3.38741">
        <ele>29.94</ele>
        <time>2015-09-06T06:52:59Z</time>
      </trkpt>
      <trkpt lat="47.78615" lon="-3.38742">
        <ele>29.94</ele>
        <time>2015-09-06T06:53:00Z</time>
      </trkpt>
      <trkpt lat="47.78618" lon="-3.38744">
        <ele>29.94</ele>
        <time>2015-09-06T06:53:01Z</time>
      </trkpt>
      <trkpt lat="47.78622" lon="-3.38746">
        <ele>29.94</ele>
        <time>2015-09-06T06:53:02Z</time>
      </trkpt>
      <trkpt lat="47.78625" lon="-3.38747">
        <ele>29.94</ele>
        <time>2015-09-06T06:53:03Z</time>
      </trkpt>
      <trkpt lat="47.78628" lon="-3.38749">
        <ele>30.42</ele>
        <time>2015-09-06T06:53:04Z</time>
      </trkpt>
      <trkpt lat="47.78631" lon="-3.38751">
        <ele>30.42</ele>
        <time>2015-09-06T06:53:05Z</time>
      </trkpt>
      <trkpt lat="47.78634" lon="-3.38752">
        <ele>30.42</ele>
        <time>2015-09-06T06:53:06Z</time>
      </trkpt>
      <trkpt lat="47.78637" lon="-3.38754">
        <ele>30.42</ele>
        <time>2015-09-06T06:53:07Z</time>
      </trkpt>
      <trkpt lat="47.7864" lon="-3.38756">
        <ele>30.42</ele>
        <time>2015-09-06T06:53:08Z</time>
      </trkpt>
      <trkpt lat="47.78643" lon="-3.38758">
        <ele>30.42</ele>
        <time>2015-09-06T06:53:09Z</time>
      </trkpt>
      <trkpt lat="47.78646" lon="-3.3876">
        <ele>30.42</ele>
        <time>2015-09-06T06:53:10Z</time>
      </trkpt>
      <trkpt lat="47.78649" lon="-3.38762">
        <ele>30.42</ele>
        <time>2015-09-06T06:53:11Z</time>
      </trkpt>
      <trkpt lat="47.78653" lon="-3.38762">
        <ele>30.42</ele>
        <time>2015-09-06T06:53:12Z</time>
      </trkpt>
      <trkpt lat="47.78656" lon="-3.38761">
        <ele>30.42</ele>
        <time>2015-09-06T06:53:13Z</time>
      </trkpt>
      <trkpt lat="47.78659" lon="-3.38761">
        <ele>28.98</ele>
        <time>2015-09-06T06:53:14Z</time>
      </trkpt>
      <trkpt lat="47.78663" lon="-3.38761">
        <ele>28.98</ele>
        <time>2015-09-06T06:53:15Z</time>
      </trkpt>
      <trkpt lat="47.78668" lon="-3.38763">
        <ele>28.98</ele>
        <time>2015-09-06T06:53:16Z</time>
      </trkpt>
      <trkpt lat="47.78673" lon="-3.38766">
        <ele>28.98</ele>
        <time>2015-09-06T06:53:17Z</time>
      </trkpt>
      <trkpt lat="47.78678" lon="-3.38767">
        <ele>28.98</ele>
        <time>2015-09-06T06:53:18Z</time>
      </trkpt>
      <trkpt lat="47.78683" lon="-3.38768">
        <ele>28.98</ele>
        <time>2015-09-06T06:53:19Z</time>
      </trkpt>
      <trkpt lat="47.78685" lon="-3.38767">
        <ele>28.98</ele>
        <time>2015-09-06T06:53:20Z</time>
      </trkpt>
      <trkpt lat="47.78687" lon="-3.38765">
        <ele>28.98</ele>
        <time>2015-09-06T06:53:21Z</time>
      </trkpt>
      <trkpt lat="47.78687" lon="-3.38762">
        <ele>28.5</ele>
        <time>2015-09-06T06:53:22Z</time>
      </trkpt>
      <trkpt lat="47.78686" lon="-3.38758">
        <ele>28.5</ele>
        <time>2015-09-06T06:53:23Z</time>
      </trkpt>
      <trkpt lat="47.78686" lon="-3.38755">
        <ele>28.02</ele>
        <time>2015-09-06T06:53:24Z</time>
      </trkpt>
      <trkpt lat="47.78686" lon="-3.38751">
        <ele>28.02</ele>
        <time>2015-09-06T06:53:25Z</time>
      </trkpt>
      <trkpt lat="47.78686" lon="-3.38749">
        <ele>28.02</ele>
        <time>2015-09-06T06:53:26Z</time>
      </trkpt>
      <trkpt lat="47.78686" lon="-3.38749">
        <ele>27.53</ele>
        <time>2015-09-06T06:53:27Z</time>
      </trkpt>
      <trkpt lat="47.78686" lon="-3.38749">
        <ele>27.53</ele>
        <time>2015-09-06T06:53:28Z</time>
      </trkpt>
      <trkpt lat="47.78686" lon="-3.38749">
        <ele>27.53</ele>
        <time>2015-09-06T06:53:29Z</time>
      </trkpt>
      <trkpt lat="47.78686" lon="-3.38749">
        <ele>27.53</ele>
        <time>2015-09-06T06:53:30Z</time>
      </trkpt>
      <trkpt lat="47.78687" lon="-3.3875">
        <ele>27.53</ele>
        <time>2015-09-06T06:53:31Z</time>
      </trkpt>
      <trkpt lat="47.78687" lon="-3.3875">
        <ele>27.53</ele>
        <time>2015-09-06T06:53:32Z</time>
      </trkpt>
      <trkpt lat="47.78689" lon="-3.38752">
        <ele>27.05</ele>
        <time>2015-09-06T06:53:45Z</time>
      </trkpt>
      <trkpt lat="47.78688" lon="-3.38751">
        <ele>27.05</ele>
        <time>2015-09-06T06:53:46Z</time>
      </trkpt>
      <trkpt lat="47.78689" lon="-3.38752">
        <ele>27.05</ele>
        <time>2015-09-06T06:53:48Z</time>
      </trkpt>
      <trkpt lat="47.78688" lon="-3.38752">
        <ele>27.05</ele>
        <time>2015-09-06T06:53:49Z</time>
      </trkpt>
      <trkpt lat="47.78688" lon="-3.38752">
        <ele>27.05</ele>
        <time>2015-09-06T06:53:50Z</time>
      </trkpt>
      <trkpt lat="47.78688" lon="-3.38752">
        <ele>27.05</ele>
        <time>2015-09-06T06:53:51Z</time>
      </trkpt>
      <trkpt lat="47.78688" lon="-3.38753">
        <ele>27.05</ele>
        <time>2015-09-06T06:53:56Z</time>
      </trkpt>
      <trkpt lat="47.78687" lon="-3.38753">
        <ele>27.05</ele>
        <time>2015-09-06T06:53:57Z</time>
      </trkpt>
      <trkpt lat="47.78687" lon="-3.38753">
        <ele>27.05</ele>
        <time>2015-09-06T06:54:03Z</time>
      </trkpt>
      <trkpt lat="47.78687" lon="-3.38753">
        <ele>27.05</ele>
        <time>2015-09-06T06:54:04Z</time>
      </trkpt>
      <trkpt lat="47.78688" lon="-3.38753">
        <ele>27.05</ele>
        <time>2015-09-06T06:54:08Z</time>
      </trkpt>
      <trkpt lat="47.78688" lon="-3.38753">
        <ele>27.05</ele>
        <time>2015-09-06T06:54:09Z</time>
      </trkpt>
      <trkpt lat="47.78688" lon="-3.38753">
        <ele>27.05</ele>
        <time>2015-09-06T06:54:10Z</time>
      </trkpt>
      <trkpt lat="47.78687" lon="-3.38753">
        <ele>27.05</ele>
        <time>2015-09-06T06:54:11Z</time>
      </trkpt>
      <trkpt lat="47.78688" lon="-3.38753">
        <ele>27.05</ele>
        <time>2015-09-06T06:54:14Z</time>
      </trkpt>
      <trkpt lat="47.78688" lon="-3.38752">
        <ele>27.05</ele>
        <time>2015-09-06T06:54:15Z</time>
      </trkpt>
      <trkpt lat="47.78687" lon="-3.38752">
        <ele>27.05</ele>
        <time>2015-09-06T06:54:20Z</time>
      </trkpt>
      <trkpt lat="47.78687" lon="-3.38752">
        <ele>27.05</ele>
        <time>2015-09-06T06:54:21Z</time>
      </trkpt>
      <trkpt lat="47.78687" lon="-3.38752">
        <ele>27.05</ele>
        <time>2015-09-06T06:54:22Z</time>
      </trkpt>
      <trkpt lat="47.78687" lon="-3.38751">
        <ele>27.05</ele>
        <time>2015-09-06T06:54:23Z</time>
      </trkpt>
      <trkpt lat="47.78687" lon="-3.38752">
        <ele>27.05</ele>
        <time>2015-09-06T06:54:27Z</time>
      </trkpt>
      <trkpt lat="47.78687" lon="-3.38752">
        <ele>27.05</ele>
        <time>2015-09-06T06:54:28Z</time>
      </trkpt>
      <trkpt lat="47.78687" lon="-3.38751">
        <ele>27.05</ele>
        <time>2015-09-06T06:54:29Z</time>
      </trkpt>
      <trkpt lat="47.78687" lon="-3.38751">
        <ele>27.05</ele>
        <time>2015-09-06T06:54:30Z</time>
      </trkpt>
      <trkpt lat="47.78688" lon="-3.38751">
        <ele>27.05</ele>
        <time>2015-09-06T06:54:34Z</time>
      </trkpt>
      <trkpt lat="47.78688" lon="-3.38751">
        <ele>27.05</ele>
        <time>2015-09-06T06:54:35Z</time>
      </trkpt>
      <trkpt lat="47.78686" lon="-3.3875">
        <ele>27.05</ele>
        <time>2015-09-06T06:54:50Z</time>
      </trkpt>
      <trkpt lat="47.78686" lon="-3.38751">
        <ele>27.05</ele>
        <time>2015-09-06T06:54:51Z</time>
      </trkpt>
      <trkpt lat="47.78686" lon="-3.38751">
        <ele>27.05</ele>
        <time>2015-09-06T06:54:52Z</time>
      </trkpt>
      <trkpt lat="47.78686" lon="-3.38751">
        <ele>27.05</ele>
        <time>2015-09-06T06:54:53Z</time>
      </trkpt>
      <trkpt lat="47.78687" lon="-3.38751">
        <ele>27.05</ele>
        <time>2015-09-06T06:54:54Z</time>
      </trkpt>
      <trkpt lat="47.78687" lon="-3.38752">
        <ele>27.05</ele>
        <time>2015-09-06T06:54:55Z</time>
      </trkpt>
      <trkpt lat="47.78687" lon="-3.38752">
        <ele>27.05</ele>
        <time>2015-09-06T06:54:56Z</time>
      </trkpt>
      <trkpt lat="47.78688" lon="-3.38752">
        <ele>28.5</ele>
        <time>2015-09-06T06:55:01Z</time>
      </trkpt>
      <trkpt lat="47.78688" lon="-3.38753">
        <ele>28.5</ele>
        <time>2015-09-06T06:55:02Z</time>
      </trkpt>
      <trkpt lat="47.78688" lon="-3.38752">
        <ele>28.5</ele>
        <time>2015-09-06T06:55:03Z</time>
      </trkpt>
      <trkpt lat="47.78688" lon="-3.38752">
        <ele>28.5</ele>
        <time>2015-09-06T06:55:04Z</time>
      </trkpt>
      <trkpt lat="47.78688" lon="-3.38752">
        <ele>28.5</ele>
        <time>2015-09-06T06:55:05Z</time>
      </trkpt>
      <trkpt lat="47.78688" lon="-3.38752">
        <ele>28.5</ele>
        <time>2015-09-06T06:55:06Z</time>
      </trkpt>
      <trkpt lat="47.78689" lon="-3.38752">
        <ele>28.5</ele>
        <time>2015-09-06T06:55:07Z</time>
      </trkpt>
      <trkpt lat="47.78689" lon="-3.38752">
        <ele>28.5</ele>
        <time>2015-09-06T06:55:08Z</time>
      </trkpt>
      <trkpt lat="47.78689" lon="-3.38752">
        <ele>28.5</ele>
        <time>2015-09-06T06:55:09Z</time>
      </trkpt>
      <trkpt lat="47.7869" lon="-3.38753">
        <ele>28.5</ele>
        <time>2015-09-06T06:55:10Z</time>
      </trkpt>
      <trkpt lat="47.7869" lon="-3.38755">
        <ele>28.5</ele>
        <time>2015-09-06T06:55:11Z</time>
      </trkpt>
      <trkpt lat="47.7869" lon="-3.38756">
        <ele>28.5</ele>
        <time>2015-09-06T06:55:12Z</time>
      </trkpt>
      <trkpt lat="47.7869" lon="-3.38758">
        <ele>28.5</ele>
        <time>2015-09-06T06:55:13Z</time>
      </trkpt>
      <trkpt lat="47.7869" lon="-3.3876">
        <ele>28.5</ele>
        <time>2015-09-06T06:55:14Z</time>
      </trkpt>
      <trkpt lat="47.78691" lon="-3.38762">
        <ele>28.5</ele>
        <time>2015-09-06T06:55:15Z</time>
      </trkpt>
      <trkpt lat="47.78691" lon="-3.38763">
        <ele>28.5</ele>
        <time>2015-09-06T06:55:16Z</time>
      </trkpt>
      <trkpt lat="47.78692" lon="-3.38765">
        <ele>28.98</ele>
        <time>2015-09-06T06:55:17Z</time>
      </trkpt>
      <trkpt lat="47.78691" lon="-3.38767">
        <ele>28.98</ele>
        <time>2015-09-06T06:55:18Z</time>
      </trkpt>
      <trkpt lat="47.78691" lon="-3.38769">
        <ele>28.98</ele>
        <time>2015-09-06T06:55:19Z</time>
      </trkpt>
      <trkpt lat="47.78691" lon="-3.38771">
        <ele>28.98</ele>
        <time>2015-09-06T06:55:20Z</time>
      </trkpt>
      <trkpt lat="47.78691" lon="-3.38773">
        <ele>28.98</ele>
        <time>2015-09-06T06:55:21Z</time>
      </trkpt>
      <trkpt lat="47.78691" lon="-3.38774">
        <ele>29.46</ele>
        <time>2015-09-06T06:55:22Z</time>
      </trkpt>
      <trkpt lat="47.78691" lon="-3.38776">
        <ele>29.46</ele>
        <time>2015-09-06T06:55:23Z</time>
      </trkpt>
      <trkpt lat="47.78691" lon="-3.38777">
        <ele>29.46</ele>
        <time>2015-09-06T06:55:24Z</time>
      </trkpt>
      <trkpt lat="47.78691" lon="-3.38778">
        <ele>29.46</ele>
        <time>2015-09-06T06:55:25Z</time>
      </trkpt>
      <trkpt lat="47.78691" lon="-3.38779">
        <ele>29.46</ele>
        <time>2015-09-06T06:55:26Z</time>
      </trkpt>
      <trkpt lat="47.78691" lon="-3.38779">
        <ele>29.46</ele>
        <time>2015-09-06T06:55:27Z</time>
      </trkpt>
      <trkpt lat="47.78691" lon="-3.38779">
        <ele>29.46</ele>
        <time>2015-09-06T06:55:28Z</time>
      </trkpt>
      <trkpt lat="47.7869" lon="-3.3878">
        <ele>29.94</ele>
        <time>2015-09-06T06:55:29Z</time>
      </trkpt>
      <trkpt lat="47.7869" lon="-3.38781">
        <ele>29.94</ele>
        <time>2015-09-06T06:55:30Z</time>
      </trkpt>
      <trkpt lat="47.7869" lon="-3.38781">
        <ele>29.94</ele>
        <time>2015-09-06T06:55:31Z</time>
      </trkpt>
      <trkpt lat="47.7869" lon="-3.38781">
        <ele>29.94</ele>
        <time>2015-09-06T06:55:32Z</time>
      </trkpt>
      <trkpt lat="47.7869" lon="-3.38781">
        <ele>29.94</ele>
        <time>2015-09-06T06:55:33Z</time>
      </trkpt>
      <trkpt lat="47.78691" lon="-3.38782">
        <ele>29.94</ele>
        <time>2015-09-06T06:55:34Z</time>
      </trkpt>
      <trkpt lat="47.78691" lon="-3.38781">
        <ele>29.46</ele>
        <time>2015-09-06T06:55:36Z</time>
      </trkpt>
      <trkpt lat="47.78692" lon="-3.38781">
        <ele>29.94</ele>
        <time>2015-09-06T06:55:37Z</time>
      </trkpt>
      <trkpt lat="47.78693" lon="-3.3878">
        <ele>29.46</ele>
        <time>2015-09-06T06:55:38Z</time>
      </trkpt>
      <trkpt lat="47.78694" lon="-3.38778">
        <ele>29.46</ele>
        <time>2015-09-06T06:55:39Z</time>
      </trkpt>
      <trkpt lat="47.78696" lon="-3.38774">
        <ele>29.94</ele>
        <time>2015-09-06T06:55:40Z</time>
      </trkpt>
      <trkpt lat="47.78696" lon="-3.3877">
        <ele>28.5</ele>
        <time>2015-09-06T06:55:41Z</time>
      </trkpt>
      <trkpt lat="47.78697" lon="-3.38765">
        <ele>28.5</ele>
        <time>2015-09-06T06:55:42Z</time>
      </trkpt>
      <trkpt lat="47.78697" lon="-3.38759">
        <ele>27.53</ele>
        <time>2015-09-06T06:55:43Z</time>
      </trkpt>
      <trkpt lat="47.78698" lon="-3.38752">
        <ele>27.05</ele>
        <time>2015-09-06T06:55:44Z</time>
      </trkpt>
      <trkpt lat="47.78699" lon="-3.38744">
        <ele>26.57</ele>
        <time>2015-09-06T06:55:45Z</time>
      </trkpt>
      <trkpt lat="47.78699" lon="-3.38737">
        <ele>25.61</ele>
        <time>2015-09-06T06:55:46Z</time>
      </trkpt>
      <trkpt lat="47.787" lon="-3.38729">
        <ele>25.13</ele>
        <time>2015-09-06T06:55:47Z</time>
      </trkpt>
      <trkpt lat="47.78701" lon="-3.3872">
        <ele>24.17</ele>
        <time>2015-09-06T06:55:48Z</time>
      </trkpt>
      <trkpt lat="47.78702" lon="-3.38711">
        <ele>23.21</ele>
        <time>2015-09-06T06:55:49Z</time>
      </trkpt>
      <trkpt lat="47.78702" lon="-3.38701">
        <ele>22.25</ele>
        <time>2015-09-06T06:55:50Z</time>
      </trkpt>
      <trkpt lat="47.78703" lon="-3.38691">
        <ele>21.29</ele>
        <time>2015-09-06T06:55:51Z</time>
      </trkpt>
      <trkpt lat="47.78705" lon="-3.38682">
        <ele>20.81</ele>
        <time>2015-09-06T06:55:52Z</time>
      </trkpt>
      <trkpt lat="47.78706" lon="-3.38675">
        <ele>20.81</ele>
        <time>2015-09-06T06:55:53Z</time>
      </trkpt>
      <trkpt lat="47.78709" lon="-3.38669">
        <ele>19.36</ele>
        <time>2015-09-06T06:55:54Z</time>
      </trkpt>
      <trkpt lat="47.7871" lon="-3.38665">
        <ele>19.36</ele>
        <time>2015-09-06T06:55:55Z</time>
      </trkpt>
      <trkpt lat="47.78711" lon="-3.3866">
        <ele>18.88</ele>
        <time>2015-09-06T06:55:56Z</time>
      </trkpt>
      <trkpt lat="47.78711" lon="-3.38656">
        <ele>18.88</ele>
        <time>2015-09-06T06:55:57Z</time>
      </trkpt>
      <trkpt lat="47.78711" lon="-3.3865">
        <ele>17.92</ele>
        <time>2015-09-06T06:55:58Z</time>
      </trkpt>
      <trkpt lat="47.78711" lon="-3.38645">
        <ele>17.92</ele>
        <time>2015-09-06T06:55:59Z</time>
      </trkpt>
      <trkpt lat="47.7871" lon="-3.38641">
        <ele>17.44</ele>
        <time>2015-09-06T06:56:00Z</time>
      </trkpt>
      <trkpt lat="47.7871" lon="-3.38634">
        <ele>17.44</ele>
        <time>2015-09-06T06:56:01Z</time>
      </trkpt>
      <trkpt lat="47.78709" lon="-3.38628">
        <ele>17.44</ele>
        <time>2015-09-06T06:56:02Z</time>
      </trkpt>
      <trkpt lat="47.78709" lon="-3.38621">
        <ele>16.96</ele>
        <time>2015-09-06T06:56:03Z</time>
      </trkpt>
      <trkpt lat="47.78708" lon="-3.38614">
        <ele>16.96</ele>
        <time>2015-09-06T06:56:04Z</time>
      </trkpt>
      <trkpt lat="47.78707" lon="-3.38606">
        <ele>16.48</ele>
        <time>2015-09-06T06:56:05Z</time>
      </trkpt>
      <trkpt lat="47.78706" lon="-3.38598">
        <ele>16</ele>
        <time>2015-09-06T06:56:06Z</time>
      </trkpt>
      <trkpt lat="47.78705" lon="-3.3859">
        <ele>15.52</ele>
        <time>2015-09-06T06:56:07Z</time>
      </trkpt>
      <trkpt lat="47.78704" lon="-3.38582">
        <ele>15.52</ele>
        <time>2015-09-06T06:56:08Z</time>
      </trkpt>
      <trkpt lat="47.78703" lon="-3.38574">
        <ele>14.56</ele>
        <time>2015-09-06T06:56:09Z</time>
      </trkpt>
      <trkpt lat="47.78702" lon="-3.38565">
        <ele>14.56</ele>
        <time>2015-09-06T06:56:10Z</time>
      </trkpt>
      <trkpt lat="47.78701" lon="-3.38556">
        <ele>13.6</ele>
        <time>2015-09-06T06:56:11Z</time>
      </trkpt>
      <trkpt lat="47.78701" lon="-3.38549">
        <ele>13.6</ele>
        <time>2015-09-06T06:56:12Z</time>
      </trkpt>
      <trkpt lat="47.787" lon="-3.38541">
        <ele>13.12</ele>
        <time>2015-09-06T06:56:13Z</time>
      </trkpt>
      <trkpt lat="47.78699" lon="-3.38533">
        <ele>13.12</ele>
        <time>2015-09-06T06:56:14Z</time>
      </trkpt>
      <trkpt lat="47.78699" lon="-3.38526">
        <ele>12.15</ele>
        <time>2015-09-06T06:56:15Z</time>
      </trkpt>
      <trkpt lat="47.78698" lon="-3.38517">
        <ele>11.67</ele>
        <time>2015-09-06T06:56:16Z</time>
      </trkpt>
      <trkpt lat="47.78698" lon="-3.38509">
        <ele>11.67</ele>
        <time>2015-09-06T06:56:17Z</time>
      </trkpt>
      <trkpt lat="47.78698" lon="-3.385">
        <ele>11.67</ele>
        <time>2015-09-06T06:56:18Z</time>
      </trkpt>
      <trkpt lat="47.78698" lon="-3.38492">
        <ele>11.19</ele>
        <time>2015-09-06T06:56:19Z</time>
      </trkpt>
      <trkpt lat="47.78698" lon="-3.38483">
        <ele>10.23</ele>
        <time>2015-09-06T06:56:20Z</time>
      </trkpt>
      <trkpt lat="47.78698" lon="-3.38475">
        <ele>10.23</ele>
        <time>2015-09-06T06:56:21Z</time>
      </trkpt>
      <trkpt lat="47.78698" lon="-3.38466">
        <ele>9.75</ele>
        <time>2015-09-06T06:56:22Z</time>
      </trkpt>
      <trkpt lat="47.78698" lon="-3.38458">
        <ele>9.27</ele>
        <time>2015-09-06T06:56:23Z</time>
      </trkpt>
      <trkpt lat="47.78698" lon="-3.3845">
        <ele>9.27</ele>
        <time>2015-09-06T06:56:24Z</time>
      </trkpt>
      <trkpt lat="47.78697" lon="-3.38444">
        <ele>8.79</ele>
        <time>2015-09-06T06:56:25Z</time>
      </trkpt>
      <trkpt lat="47.78697" lon="-3.38439">
        <ele>8.79</ele>
        <time>2015-09-06T06:56:26Z</time>
      </trkpt>
      <trkpt lat="47.78697" lon="-3.38435">
        <ele>7.83</ele>
        <time>2015-09-06T06:56:27Z</time>
      </trkpt>
      <trkpt lat="47.78697" lon="-3.38431">
        <ele>7.83</ele>
        <time>2015-09-06T06:56:28Z</time>
      </trkpt>
      <trkpt lat="47.78696" lon="-3.38428">
        <ele>6.87</ele>
        <time>2015-09-06T06:56:29Z</time>
      </trkpt>
      <trkpt lat="47.78695" lon="-3.38424">
        <ele>6.39</ele>
        <time>2015-09-06T06:56:30Z</time>
      </trkpt>
      <trkpt lat="47.78693" lon="-3.38422">
        <ele>5.91</ele>
        <time>2015-09-06T06:56:31Z</time>
      </trkpt>
      <trkpt lat="47.78691" lon="-3.38419">
        <ele>4.94</ele>
        <time>2015-09-06T06:56:32Z</time>
      </trkpt>
      <trkpt lat="47.78688" lon="-3.38416">
        <ele>4.94</ele>
        <time>2015-09-06T06:56:33Z</time>
      </trkpt>
      <trkpt lat="47.78686" lon="-3.38415">
        <ele>4.46</ele>
        <time>2015-09-06T06:56:34Z</time>
      </trkpt>
      <trkpt lat="47.78684" lon="-3.38411">
        <ele>4.46</ele>
        <time>2015-09-06T06:56:35Z</time>
      </trkpt>
      <trkpt lat="47.78685" lon="-3.38407">
        <ele>3.98</ele>
        <time>2015-09-06T06:56:36Z</time>
      </trkpt>
      <trkpt lat="47.78686" lon="-3.38404">
        <ele>3.5</ele>
        <time>2015-09-06T06:56:37Z</time>
      </trkpt>
      <trkpt lat="47.78688" lon="-3.38401">
        <ele>3.02</ele>
        <time>2015-09-06T06:56:38Z</time>
      </trkpt>
      <trkpt lat="47.78691" lon="-3.384">
        <ele>2.54</ele>
        <time>2015-09-06T06:56:39Z</time>
      </trkpt>
      <trkpt lat="47.78694" lon="-3.38401">
        <ele>2.54</ele>
        <time>2015-09-06T06:56:40Z</time>
      </trkpt>
      <trkpt lat="47.78697" lon="-3.38403">
        <ele>2.06</ele>
        <time>2015-09-06T06:56:41Z</time>
      </trkpt>
      <trkpt lat="47.787" lon="-3.38404">
        <ele>2.06</ele>
        <time>2015-09-06T06:56:42Z</time>
      </trkpt>
      <trkpt lat="47.78702" lon="-3.38403">
        <ele>2.06</ele>
        <time>2015-09-06T06:56:43Z</time>
      </trkpt>
      <trkpt lat="47.78705" lon="-3.38403">
        <ele>2.06</ele>
        <time>2015-09-06T06:56:44Z</time>
      </trkpt>
      <trkpt lat="47.78707" lon="-3.38403">
        <ele>2.06</ele>
        <time>2015-09-06T06:56:45Z</time>
      </trkpt>
      <trkpt lat="47.78708" lon="-3.38403">
        <ele>2.06</ele>
        <time>2015-09-06T06:56:46Z</time>
      </trkpt>
      <trkpt lat="47.78709" lon="-3.38404">
        <ele>2.06</ele>
        <time>2015-09-06T06:56:47Z</time>
      </trkpt>
      <trkpt lat="47.7871" lon="-3.38405">
        <ele>2.06</ele>
        <time>2015-09-06T06:56:48Z</time>
      </trkpt>
      <trkpt lat="47.78709" lon="-3.38405">
        <ele>2.06</ele>
        <time>2015-09-06T06:56:49Z</time>
      </trkpt>
      <trkpt lat="47.7871" lon="-3.38406">
        <ele>2.06</ele>
        <time>2015-09-06T06:56:50Z</time>
      </trkpt>
      <trkpt lat="47.78711" lon="-3.38405">
        <ele>2.06</ele>
        <time>2015-09-06T06:56:51Z</time>
      </trkpt>
      <trkpt lat="47.78711" lon="-3.38404">
        <ele>1.58</ele>
        <time>2015-09-06T06:56:52Z</time>
      </trkpt>
      <trkpt lat="47.78711" lon="-3.38403">
        <ele>1.1</ele>
        <time>2015-09-06T06:56:53Z</time>
      </trkpt>
      <trkpt lat="47.78711" lon="-3.38403">
        <ele>1.1</ele>
        <time>2015-09-06T06:56:58Z</time>
      </trkpt>
      <trkpt lat="47.78712" lon="-3.38402">
        <ele>1.1</ele>
        <time>2015-09-06T06:56:59Z</time>
      </trkpt>
      <trkpt lat="47.78713" lon="-3.38402">
        <ele>1.1</ele>
        <time>2015-09-06T06:57:00Z</time>
      </trkpt>
      <trkpt lat="47.78714" lon="-3.38401">
        <ele>1.1</ele>
        <time>2015-09-06T06:57:01Z</time>
      </trkpt>
      <trkpt lat="47.78715" lon="-3.384">
        <ele>1.1</ele>
        <time>2015-09-06T06:57:02Z</time>
      </trkpt>
      <trkpt lat="47.78716" lon="-3.384">
        <ele>1.1</ele>
        <time>2015-09-06T06:57:03Z</time>
      </trkpt>
      <trkpt lat="47.78718" lon="-3.384">
        <ele>1.1</ele>
        <time>2015-09-06T06:57:04Z</time>
      </trkpt>
      <trkpt lat="47.78719" lon="-3.384">
        <ele>1.1</ele>
        <time>2015-09-06T06:57:05Z</time>
      </trkpt>
      <trkpt lat="47.7872" lon="-3.38401">
        <ele>1.1</ele>
        <time>2015-09-06T06:57:06Z</time>
      </trkpt>
      <trkpt lat="47.7872" lon="-3.38401">
        <ele>1.1</ele>
        <time>2015-09-06T06:57:07Z</time>
      </trkpt>
      <trkpt lat="47.7872" lon="-3.384">
        <ele>1.1</ele>
        <time>2015-09-06T06:57:08Z</time>
      </trkpt>
      <trkpt lat="47.78721" lon="-3.384">
        <ele>1.1</ele>
        <time>2015-09-06T06:57:09Z</time>
      </trkpt>
      <trkpt lat="47.78721" lon="-3.38401">
        <ele>1.1</ele>
        <time>2015-09-06T06:57:10Z</time>
      </trkpt>
      <trkpt lat="47.78721" lon="-3.38401">
        <ele>1.1</ele>
        <time>2015-09-06T06:57:11Z</time>
      </trkpt>
      <trkpt lat="47.78721" lon="-3.38401">
        <ele>1.1</ele>
        <time>2015-09-06T06:57:12Z</time>
      </trkpt>
      <trkpt lat="47.78721" lon="-3.38401">
        <ele>1.1</ele>
        <time>2015-09-06T06:57:18Z</time>
      </trkpt>
      <trkpt lat="47.78721" lon="-3.38401">
        <ele>1.1</ele>
        <time>2015-09-06T06:57:19Z</time>
      </trkpt>
      <trkpt lat="47.78722" lon="-3.38402">
        <ele>1.1</ele>
        <time>2015-09-06T06:57:20Z</time>
      </trkpt>
      <trkpt lat="47.78723" lon="-3.38404">
        <ele>1.1</ele>
        <time>2015-09-06T06:57:21Z</time>
      </trkpt>
      <trkpt lat="47.78723" lon="-3.38405">
        <ele>2.06</ele>
        <time>2015-09-06T06:57:22Z</time>
      </trkpt>
      <trkpt lat="47.78724" lon="-3.38407">
        <ele>2.06</ele>
        <time>2015-09-06T06:57:23Z</time>
      </trkpt>
      <trkpt lat="47.78725" lon="-3.38409">
        <ele>2.06</ele>
        <time>2015-09-06T06:57:24Z</time>
      </trkpt>
      <trkpt lat="47.78725" lon="-3.3841">
        <ele>2.06</ele>
        <time>2015-09-06T06:57:25Z</time>
      </trkpt>
      <trkpt lat="47.78725" lon="-3.38412">
        <ele>2.54</ele>
        <time>2015-09-06T06:57:26Z</time>
      </trkpt>
      <trkpt lat="47.78725" lon="-3.38414">
        <ele>2.54</ele>
        <time>2015-09-06T06:57:27Z</time>
      </trkpt>
      <trkpt lat="47.78726" lon="-3.38416">
        <ele>3.02</ele>
        <time>2015-09-06T06:57:28Z</time>
      </trkpt>
      <trkpt lat="47.78726" lon="-3.38418">
        <ele>3.02</ele>
        <time>2015-09-06T06:57:29Z</time>
      </trkpt>
      <trkpt lat="47.78726" lon="-3.3842">
        <ele>3.02</ele>
        <time>2015-09-06T06:57:30Z</time>
      </trkpt>
      <trkpt lat="47.78725" lon="-3.38422">
        <ele>3.5</ele>
        <time>2015-09-06T06:57:31Z</time>
      </trkpt>
      <trkpt lat="47.78725" lon="-3.38424">
        <ele>3.5</ele>
        <time>2015-09-06T06:57:32Z</time>
      </trkpt>
      <trkpt lat="47.78725" lon="-3.38426">
        <ele>4.46</ele>
        <time>2015-09-06T06:57:33Z</time>
      </trkpt>
      <trkpt lat="47.78724" lon="-3.38428">
        <ele>4.46</ele>
        <time>2015-09-06T06:57:34Z</time>
      </trkpt>
      <trkpt lat="47.78723" lon="-3.38431">
        <ele>4.94</ele>
        <time>2015-09-06T06:57:35Z</time>
      </trkpt>
      <trkpt lat="47.78723" lon="-3.38433">
        <ele>4.94</ele>
        <time>2015-09-06T06:57:36Z</time>
      </trkpt>
      <trkpt lat="47.78723" lon="-3.38436">
        <ele>5.42</ele>
        <time>2015-09-06T06:57:37Z</time>
      </trkpt>
      <trkpt lat="47.78724" lon="-3.38439">
        <ele>5.42</ele>
        <time>2015-09-06T06:57:38Z</time>
      </trkpt>
      <trkpt lat="47.78724" lon="-3.38443">
        <ele>5.42</ele>
        <time>2015-09-06T06:57:39Z</time>
      </trkpt>
      <trkpt lat="47.78725" lon="-3.38446">
        <ele>5.42</ele>
        <time>2015-09-06T06:57:40Z</time>
      </trkpt>
      <trkpt lat="47.78726" lon="-3.38448">
        <ele>5.42</ele>
        <time>2015-09-06T06:57:41Z</time>
      </trkpt>
      <trkpt lat="47.78727" lon="-3.38449">
        <ele>3.98</ele>
        <time>2015-09-06T06:57:42Z</time>
      </trkpt>
      <trkpt lat="47.78729" lon="-3.3845">
        <ele>3.02</ele>
        <time>2015-09-06T06:57:43Z</time>
      </trkpt>
      <trkpt lat="47.78732" lon="-3.38452">
        <ele>3.02</ele>
        <time>2015-09-06T06:57:44Z</time>
      </trkpt>
      <trkpt lat="47.78734" lon="-3.38455">
        <ele>3.02</ele>
        <time>2015-09-06T06:57:45Z</time>
      </trkpt>
      <trkpt lat="47.78736" lon="-3.38458">
        <ele>3.02</ele>
        <time>2015-09-06T06:57:46Z</time>
      </trkpt>
      <trkpt lat="47.78739" lon="-3.3846">
        <ele>3.02</ele>
        <time>2015-09-06T06:57:47Z</time>
      </trkpt>
      <trkpt lat="47.78742" lon="-3.3846">
        <ele>3.02</ele>
        <time>2015-09-06T06:57:48Z</time>
      </trkpt>
      <trkpt lat="47.78745" lon="-3.38461">
        <ele>3.02</ele>
        <time>2015-09-06T06:57:49Z</time>
      </trkpt>
      <trkpt lat="47.78748" lon="-3.38461">
        <ele>3.02</ele>
        <time>2015-09-06T06:57:50Z</time>
      </trkpt>
      <trkpt lat="47.78749" lon="-3.38459">
        <ele>3.02</ele>
        <time>2015-09-06T06:57:51Z</time>
      </trkpt>
      <trkpt lat="47.78751" lon="-3.38456">
        <ele>3.02</ele>
        <time>2015-09-06T06:57:52Z</time>
      </trkpt>
      <trkpt lat="47.78753" lon="-3.38453">
        <ele>3.02</ele>
        <time>2015-09-06T06:57:53Z</time>
      </trkpt>
      <trkpt lat="47.78755" lon="-3.38452">
        <ele>3.02</ele>
        <time>2015-09-06T06:57:54Z</time>
      </trkpt>
      <trkpt lat="47.78758" lon="-3.38451">
        <ele>3.02</ele>
        <time>2015-09-06T06:57:55Z</time>
      </trkpt>
      <trkpt lat="47.7876" lon="-3.38452">
        <ele>4.46</ele>
        <time>2015-09-06T06:57:56Z</time>
      </trkpt>
      <trkpt lat="47.78762" lon="-3.38454">
        <ele>4.94</ele>
        <time>2015-09-06T06:57:57Z</time>
      </trkpt>
      <trkpt lat="47.78763" lon="-3.38454">
        <ele>5.42</ele>
        <time>2015-09-06T06:57:58Z</time>
      </trkpt>
      <trkpt lat="47.7877" lon="-3.38456">
        <ele>8.79</ele>
        <time>2015-09-06T06:58:12Z</time>
      </trkpt>
      <trkpt lat="47.78771" lon="-3.38456">
        <ele>8.79</ele>
        <time>2015-09-06T06:58:13Z</time>
      </trkpt>
      <trkpt lat="47.78772" lon="-3.38456">
        <ele>9.27</ele>
        <time>2015-09-06T06:58:14Z</time>
      </trkpt>
      <trkpt lat="47.78773" lon="-3.38456">
        <ele>9.27</ele>
        <time>2015-09-06T06:58:15Z</time>
      </trkpt>
      <trkpt lat="47.78774" lon="-3.38456">
        <ele>9.27</ele>
        <time>2015-09-06T06:58:16Z</time>
      </trkpt>
      <trkpt lat="47.78775" lon="-3.38455">
        <ele>10.23</ele>
        <time>2015-09-06T06:58:17Z</time>
      </trkpt>
      <trkpt lat="47.78776" lon="-3.38455">
        <ele>10.23</ele>
        <time>2015-09-06T06:58:18Z</time>
      </trkpt>
      <trkpt lat="47.78776" lon="-3.38454">
        <ele>10.71</ele>
        <time>2015-09-06T06:58:19Z</time>
      </trkpt>
      <trkpt lat="47.78777" lon="-3.38453">
        <ele>10.71</ele>
        <time>2015-09-06T06:58:20Z</time>
      </trkpt>
      <trkpt lat="47.78777" lon="-3.38453">
        <ele>11.19</ele>
        <time>2015-09-06T06:58:21Z</time>
      </trkpt>
      <trkpt lat="47.78779" lon="-3.38453">
        <ele>11.19</ele>
        <time>2015-09-06T06:58:23Z</time>
      </trkpt>
      <trkpt lat="47.7878" lon="-3.38453">
        <ele>12.15</ele>
        <time>2015-09-06T06:58:24Z</time>
      </trkpt>
      <trkpt lat="47.78781" lon="-3.38454">
        <ele>12.15</ele>
        <time>2015-09-06T06:58:25Z</time>
      </trkpt>
      <trkpt lat="47.78781" lon="-3.38453">
        <ele>12.15</ele>
        <time>2015-09-06T06:58:26Z</time>
      </trkpt>
      <trkpt lat="47.78782" lon="-3.38452">
        <ele>12.15</ele>
        <time>2015-09-06T06:58:27Z</time>
      </trkpt>
      <trkpt lat="47.78785" lon="-3.38453">
        <ele>12.15</ele>
        <time>2015-09-06T06:58:32Z</time>
      </trkpt>
      <trkpt lat="47.78785" lon="-3.38452">
        <ele>12.63</ele>
        <time>2015-09-06T06:58:33Z</time>
      </trkpt>
      <trkpt lat="47.78787" lon="-3.3845">
        <ele>12.15</ele>
        <time>2015-09-06T06:58:34Z</time>
      </trkpt>
      <trkpt lat="47.78788" lon="-3.38449">
        <ele>12.63</ele>
        <time>2015-09-06T06:58:35Z</time>
      </trkpt>
      <trkpt lat="47.78789" lon="-3.38447">
        <ele>12.63</ele>
        <time>2015-09-06T06:58:36Z</time>
      </trkpt>
      <trkpt lat="47.78791" lon="-3.38446">
        <ele>12.63</ele>
        <time>2015-09-06T06:58:37Z</time>
      </trkpt>
      <trkpt lat="47.78792" lon="-3.38446">
        <ele>13.12</ele>
        <time>2015-09-06T06:58:38Z</time>
      </trkpt>
      <trkpt lat="47.78793" lon="-3.38446">
        <ele>13.12</ele>
        <time>2015-09-06T06:58:39Z</time>
      </trkpt>
      <trkpt lat="47.78794" lon="-3.38447">
        <ele>13.6</ele>
        <time>2015-09-06T06:58:40Z</time>
      </trkpt>
      <trkpt lat="47.78795" lon="-3.38448">
        <ele>13.6</ele>
        <time>2015-09-06T06:58:41Z</time>
      </trkpt>
      <trkpt lat="47.78796" lon="-3.3845">
        <ele>13.6</ele>
        <time>2015-09-06T06:58:42Z</time>
      </trkpt>
      <trkpt lat="47.78797" lon="-3.38452">
        <ele>13.6</ele>
        <time>2015-09-06T06:58:43Z</time>
      </trkpt>
      <trkpt lat="47.78799" lon="-3.38454">
        <ele>13.6</ele>
        <time>2015-09-06T06:58:44Z</time>
      </trkpt>
      <trkpt lat="47.788" lon="-3.38456">
        <ele>14.08</ele>
        <time>2015-09-06T06:58:45Z</time>
      </trkpt>
      <trkpt lat="47.78802" lon="-3.38458">
        <ele>14.08</ele>
        <time>2015-09-06T06:58:46Z</time>
      </trkpt>
      <trkpt lat="47.78803" lon="-3.38461">
        <ele>14.08</ele>
        <time>2015-09-06T06:58:47Z</time>
      </trkpt>
      <trkpt lat="47.78805" lon="-3.38464">
        <ele>14.08</ele>
        <time>2015-09-06T06:58:48Z</time>
      </trkpt>
      <trkpt lat="47.78807" lon="-3.38467">
        <ele>14.08</ele>
        <time>2015-09-06T06:58:49Z</time>
      </trkpt>
      <trkpt lat="47.78808" lon="-3.38471">
        <ele>14.08</ele>
        <time>2015-09-06T06:58:50Z</time>
      </trkpt>
      <trkpt lat="47.78809" lon="-3.38474">
        <ele>14.08</ele>
        <time>2015-09-06T06:58:51Z</time>
      </trkpt>
      <trkpt lat="47.7881" lon="-3.38478">
        <ele>14.08</ele>
        <time>2015-09-06T06:58:52Z</time>
      </trkpt>
      <trkpt lat="47.78812" lon="-3.38482">
        <ele>15.04</ele>
        <time>2015-09-06T06:58:53Z</time>
      </trkpt>
      <trkpt lat="47.78813" lon="-3.38485">
        <ele>15.04</ele>
        <time>2015-09-06T06:58:54Z</time>
      </trkpt>
      <trkpt lat="47.78815" lon="-3.38487">
        <ele>15.04</ele>
        <time>2015-09-06T06:58:55Z</time>
      </trkpt>
      <trkpt lat="47.78817" lon="-3.38488">
        <ele>15.52</ele>
        <time>2015-09-06T06:58:56Z</time>
      </trkpt>
      <trkpt lat="47.7882" lon="-3.38486">
        <ele>15.52</ele>
        <time>2015-09-06T06:58:57Z</time>
      </trkpt>
      <trkpt lat="47.78822" lon="-3.38485">
        <ele>15.52</ele>
        <time>2015-09-06T06:58:58Z</time>
      </trkpt>
      <trkpt lat="47.78825" lon="-3.38482">
        <ele>16</ele>
        <time>2015-09-06T06:58:59Z</time>
      </trkpt>
      <trkpt lat="47.78827" lon="-3.3848">
        <ele>16</ele>
        <time>2015-09-06T06:59:00Z</time>
      </trkpt>
      <trkpt lat="47.78829" lon="-3.38478">
        <ele>16</ele>
        <time>2015-09-06T06:59:01Z</time>
      </trkpt>
      <trkpt lat="47.78831" lon="-3.38475">
        <ele>16.48</ele>
        <time>2015-09-06T06:59:02Z</time>
      </trkpt>
      <trkpt lat="47.78834" lon="-3.38473">
        <ele>16.48</ele>
        <time>2015-09-06T06:59:03Z</time>
      </trkpt>
      <trkpt lat="47.78836" lon="-3.38469">
        <ele>16.48</ele>
        <time>2015-09-06T06:59:04Z</time>
      </trkpt>
      <trkpt lat="47.78839" lon="-3.38466">
        <ele>16.48</ele>
        <time>2015-09-06T06:59:05Z</time>
      </trkpt>
      <trkpt lat="47.78841" lon="-3.38462">
        <ele>16.96</ele>
        <time>2015-09-06T06:59:06Z</time>
      </trkpt>
      <trkpt lat="47.78844" lon="-3.38458">
        <ele>16.96</ele>
        <time>2015-09-06T06:59:07Z</time>
      </trkpt>
      <trkpt lat="47.78846" lon="-3.38453">
        <ele>17.44</ele>
        <time>2015-09-06T06:59:08Z</time>
      </trkpt>
      <trkpt lat="47.78849" lon="-3.38449">
        <ele>17.44</ele>
        <time>2015-09-06T06:59:09Z</time>
      </trkpt>
      <trkpt lat="47.78851" lon="-3.38444">
        <ele>17.44</ele>
        <time>2015-09-06T06:59:10Z</time>
      </trkpt>
      <trkpt lat="47.78854" lon="-3.3844">
        <ele>17.44</ele>
        <time>2015-09-06T06:59:11Z</time>
      </trkpt>
      <trkpt lat="47.78857" lon="-3.38436">
        <ele>17.44</ele>
        <time>2015-09-06T06:59:12Z</time>
      </trkpt>
      <trkpt lat="47.78859" lon="-3.38432">
        <ele>18.4</ele>
        <time>2015-09-06T06:59:13Z</time>
      </trkpt>
      <trkpt lat="47.78862" lon="-3.38428">
        <ele>18.4</ele>
        <time>2015-09-06T06:59:14Z</time>
      </trkpt>
      <trkpt lat="47.78864" lon="-3.38424">
        <ele>18.4</ele>
        <time>2015-09-06T06:59:15Z</time>
      </trkpt>
      <trkpt lat="47.78868" lon="-3.38421">
        <ele>18.4</ele>
        <time>2015-09-06T06:59:16Z</time>
      </trkpt>
      <trkpt lat="47.78871" lon="-3.38417">
        <ele>18.88</ele>
        <time>2015-09-06T06:59:17Z</time>
      </trkpt>
      <trkpt lat="47.78873" lon="-3.38413">
        <ele>18.88</ele>
        <time>2015-09-06T06:59:18Z</time>
      </trkpt>
      <trkpt lat="47.78875" lon="-3.38408">
        <ele>18.88</ele>
        <time>2015-09-06T06:59:19Z</time>
      </trkpt>
      <trkpt lat="47.78878" lon="-3.38403">
        <ele>19.36</ele>
        <time>2015-09-06T06:59:20Z</time>
      </trkpt>
      <trkpt lat="47.7888" lon="-3.38398">
        <ele>19.36</ele>
        <time>2015-09-06T06:59:21Z</time>
      </trkpt>
      <trkpt lat="47.78883" lon="-3.38393">
        <ele>19.84</ele>
        <time>2015-09-06T06:59:22Z</time>
      </trkpt>
      <trkpt lat="47.78885" lon="-3.38389">
        <ele>19.84</ele>
        <time>2015-09-06T06:59:23Z</time>
      </trkpt>
      <trkpt lat="47.78887" lon="-3.38385">
        <ele>20.32</ele>
        <time>2015-09-06T06:59:24Z</time>
      </trkpt>
      <trkpt lat="47.7889" lon="-3.38381">
        <ele>20.32</ele>
        <time>2015-09-06T06:59:25Z</time>
      </trkpt>
      <trkpt lat="47.78893" lon="-3.38379">
        <ele>20.81</ele>
        <time>2015-09-06T06:59:26Z</time>
      </trkpt>
      <trkpt lat="47.78897" lon="-3.3838">
        <ele>20.81</ele>
        <time>2015-09-06T06:59:27Z</time>
      </trkpt>
      <trkpt lat="47.789" lon="-3.38382">
        <ele>21.77</ele>
        <time>2015-09-06T06:59:28Z</time>
      </trkpt>
      <trkpt lat="47.78902" lon="-3.38385">
        <ele>21.77</ele>
        <time>2015-09-06T06:59:29Z</time>
      </trkpt>
      <trkpt lat="47.78904" lon="-3.3839">
        <ele>21.77</ele>
        <time>2015-09-06T06:59:30Z</time>
      </trkpt>
      <trkpt lat="47.78906" lon="-3.38394">
        <ele>21.77</ele>
        <time>2015-09-06T06:59:31Z</time>
      </trkpt>
      <trkpt lat="47.78908" lon="-3.38399">
        <ele>21.77</ele>
        <time>2015-09-06T06:59:32Z</time>
      </trkpt>
      <trkpt lat="47.7891" lon="-3.38403">
        <ele>22.73</ele>
        <time>2015-09-06T06:59:33Z</time>
      </trkpt>
      <trkpt lat="47.78913" lon="-3.38406">
        <ele>22.73</ele>
        <time>2015-09-06T06:59:34Z</time>
      </trkpt>
      <trkpt lat="47.78916" lon="-3.38409">
        <ele>23.21</ele>
        <time>2015-09-06T06:59:35Z</time>
      </trkpt>
      <trkpt lat="47.78918" lon="-3.38412">
        <ele>23.21</ele>
        <time>2015-09-06T06:59:36Z</time>
      </trkpt>
      <trkpt lat="47.78922" lon="-3.38414">
        <ele>23.69</ele>
        <time>2015-09-06T06:59:37Z</time>
      </trkpt>
      <trkpt lat="47.78925" lon="-3.38416">
        <ele>24.17</ele>
        <time>2015-09-06T06:59:38Z</time>
      </trkpt>
      <trkpt lat="47.78928" lon="-3.38419">
        <ele>24.65</ele>
        <time>2015-09-06T06:59:39Z</time>
      </trkpt>
      <trkpt lat="47.7893" lon="-3.38422">
        <ele>24.65</ele>
        <time>2015-09-06T06:59:40Z</time>
      </trkpt>
      <trkpt lat="47.78934" lon="-3.38424">
        <ele>25.13</ele>
        <time>2015-09-06T06:59:41Z</time>
      </trkpt>
      <trkpt lat="47.78937" lon="-3.38426">
        <ele>25.61</ele>
        <time>2015-09-06T06:59:42Z</time>
      </trkpt>
      <trkpt lat="47.78939" lon="-3.38428">
        <ele>25.61</ele>
        <time>2015-09-06T06:59:43Z</time>
      </trkpt>
      <trkpt lat="47.78942" lon="-3.38431">
        <ele>26.09</ele>
        <time>2015-09-06T06:59:44Z</time>
      </trkpt>
      <trkpt lat="47.78945" lon="-3.38433">
        <ele>26.09</ele>
        <time>2015-09-06T06:59:45Z</time>
      </trkpt>
      <trkpt lat="47.78948" lon="-3.38435">
        <ele>27.05</ele>
        <time>2015-09-06T06:59:46Z</time>
      </trkpt>
      <trkpt lat="47.7895" lon="-3.38437">
        <ele>27.05</ele>
        <time>2015-09-06T06:59:47Z</time>
      </trkpt>
      <trkpt lat="47.78953" lon="-3.3844">
        <ele>27.05</ele>
        <time>2015-09-06T06:59:48Z</time>
      </trkpt>
      <trkpt lat="47.78956" lon="-3.38442">
        <ele>27.53</ele>
        <time>2015-09-06T06:59:49Z</time>
      </trkpt>
      <trkpt lat="47.78959" lon="-3.38444">
        <ele>27.53</ele>
        <time>2015-09-06T06:59:50Z</time>
      </trkpt>
      <trkpt lat="47.78962" lon="-3.38446">
        <ele>28.5</ele>
        <time>2015-09-06T06:59:51Z</time>
      </trkpt>
      <trkpt lat="47.78965" lon="-3.38449">
        <ele>28.5</ele>
        <time>2015-09-06T06:59:52Z</time>
      </trkpt>
      <trkpt lat="47.78967" lon="-3.38451">
        <ele>28.98</ele>
        <time>2015-09-06T06:59:53Z</time>
      </trkpt>
      <trkpt lat="47.7897" lon="-3.38453">
        <ele>28.98</ele>
        <time>2015-09-06T06:59:54Z</time>
      </trkpt>
      <trkpt lat="47.78973" lon="-3.38456">
        <ele>28.98</ele>
        <time>2015-09-06T06:59:55Z</time>
      </trkpt>
      <trkpt lat="47.78976" lon="-3.38458">
        <ele>29.94</ele>
        <time>2015-09-06T06:59:56Z</time>
      </trkpt>
      <trkpt lat="47.78979" lon="-3.3846">
        <ele>29.94</ele>
        <time>2015-09-06T06:59:57Z</time>
      </trkpt>
      <trkpt lat="47.78982" lon="-3.38462">
        <ele>29.94</ele>
        <time>2015-09-06T06:59:58Z</time>
      </trkpt>
      <trkpt lat="47.78984" lon="-3.38464">
        <ele>30.42</ele>
        <time>2015-09-06T06:59:59Z</time>
      </trkpt>
      <trkpt lat="47.78987" lon="-3.38466">
        <ele>30.42</ele>
        <time>2015-09-06T07:00:00Z</time>
      </trkpt>
      <trkpt lat="47.7899" lon="-3.38468">
        <ele>30.42</ele>
        <time>2015-09-06T07:00:01Z</time>
      </trkpt>
      <trkpt lat="47.78993" lon="-3.38471">
        <ele>30.9</ele>
        <time>2015-09-06T07:00:02Z</time>
      </trkpt>
      <trkpt lat="47.78996" lon="-3.38472">
        <ele>30.9</ele>
        <time>2015-09-06T07:00:03Z</time>
      </trkpt>
      <trkpt lat="47.79" lon="-3.38472">
        <ele>31.38</ele>
        <time>2015-09-06T07:00:04Z</time>
      </trkpt>
      <trkpt lat="47.79003" lon="-3.38471">
        <ele>31.38</ele>
        <time>2015-09-06T07:00:05Z</time>
      </trkpt>
      <trkpt lat="47.79007" lon="-3.3847">
        <ele>31.38</ele>
        <time>2015-09-06T07:00:06Z</time>
      </trkpt>
      <trkpt lat="47.79009" lon="-3.38468">
        <ele>31.38</ele>
        <time>2015-09-06T07:00:07Z</time>
      </trkpt>
      <trkpt lat="47.79012" lon="-3.38465">
        <ele>31.38</ele>
        <time>2015-09-06T07:00:08Z</time>
      </trkpt>
      <trkpt lat="47.79015" lon="-3.38463">
        <ele>31.86</ele>
        <time>2015-09-06T07:00:09Z</time>
      </trkpt>
      <trkpt lat="47.79018" lon="-3.3846">
        <ele>31.86</ele>
        <time>2015-09-06T07:00:10Z</time>
      </trkpt>
      <trkpt lat="47.79021" lon="-3.38458">
        <ele>31.86</ele>
        <time>2015-09-06T07:00:11Z</time>
      </trkpt>
      <trkpt lat="47.79024" lon="-3.38456">
        <ele>31.86</ele>
        <time>2015-09-06T07:00:12Z</time>
      </trkpt>
      <trkpt lat="47.79028" lon="-3.38455">
        <ele>32.34</ele>
        <time>2015-09-06T07:00:13Z</time>
      </trkpt>
      <trkpt lat="47.79031" lon="-3.38454">
        <ele>32.34</ele>
        <time>2015-09-06T07:00:14Z</time>
      </trkpt>
      <trkpt lat="47.79034" lon="-3.38453">
        <ele>33.3</ele>
        <time>2015-09-06T07:00:15Z</time>
      </trkpt>
      <trkpt lat="47.79038" lon="-3.38453">
        <ele>33.3</ele>
        <time>2015-09-06T07:00:16Z</time>
      </trkpt>
      <trkpt lat="47.79041" lon="-3.38453">
        <ele>33.78</ele>
        <time>2015-09-06T07:00:17Z</time>
      </trkpt>
      <trkpt lat="47.79044" lon="-3.38453">
        <ele>33.78</ele>
        <time>2015-09-06T07:00:18Z</time>
      </trkpt>
      <trkpt lat="47.79047" lon="-3.38454">
        <ele>34.26</ele>
        <time>2015-09-06T07:00:19Z</time>
      </trkpt>
      <trkpt lat="47.7905" lon="-3.38455">
        <ele>34.26</ele>
        <time>2015-09-06T07:00:20Z</time>
      </trkpt>
      <trkpt lat="47.79053" lon="-3.38455">
        <ele>34.74</ele>
        <time>2015-09-06T07:00:21Z</time>
      </trkpt>
      <trkpt lat="47.79057" lon="-3.38456">
        <ele>34.74</ele>
        <time>2015-09-06T07:00:22Z</time>
      </trkpt>
      <trkpt lat="47.7906" lon="-3.38457">
        <ele>35.23</ele>
        <time>2015-09-06T07:00:23Z</time>
      </trkpt>
      <trkpt lat="47.79063" lon="-3.38458">
        <ele>35.23</ele>
        <time>2015-09-06T07:00:24Z</time>
      </trkpt>
      <trkpt lat="47.79066" lon="-3.38458">
        <ele>35.71</ele>
        <time>2015-09-06T07:00:25Z</time>
      </trkpt>
      <trkpt lat="47.7907" lon="-3.38459">
        <ele>35.71</ele>
        <time>2015-09-06T07:00:26Z</time>
      </trkpt>
      <trkpt lat="47.79073" lon="-3.3846">
        <ele>35.71</ele>
        <time>2015-09-06T07:00:27Z</time>
      </trkpt>
      <trkpt lat="47.79076" lon="-3.3846">
        <ele>36.19</ele>
        <time>2015-09-06T07:00:28Z</time>
      </trkpt>
      <trkpt lat="47.79079" lon="-3.38461">
        <ele>36.19</ele>
        <time>2015-09-06T07:00:29Z</time>
      </trkpt>
      <trkpt lat="47.79083" lon="-3.38461">
        <ele>36.19</ele>
        <time>2015-09-06T07:00:30Z</time>
      </trkpt>
      <trkpt lat="47.79086" lon="-3.38462">
        <ele>36.19</ele>
        <time>2015-09-06T07:00:31Z</time>
      </trkpt>
      <trkpt lat="47.7909" lon="-3.38463">
        <ele>36.67</ele>
        <time>2015-09-06T07:00:32Z</time>
      </trkpt>
      <trkpt lat="47.79093" lon="-3.38463">
        <ele>36.67</ele>
        <time>2015-09-06T07:00:33Z</time>
      </trkpt>
      <trkpt lat="47.79097" lon="-3.38464">
        <ele>36.67</ele>
        <time>2015-09-06T07:00:34Z</time>
      </trkpt>
      <trkpt lat="47.79101" lon="-3.38464">
        <ele>36.67</ele>
        <time>2015-09-06T07:00:35Z</time>
      </trkpt>
      <trkpt lat="47.79105" lon="-3.38464">
        <ele>36.67</ele>
        <time>2015-09-06T07:00:36Z</time>
      </trkpt>
      <trkpt lat="47.79108" lon="-3.38464">
        <ele>36.67</ele>
        <time>2015-09-06T07:00:37Z</time>
      </trkpt>
      <trkpt lat="47.79113" lon="-3.38464">
        <ele>37.15</ele>
        <time>2015-09-06T07:00:38Z</time>
      </trkpt>
      <trkpt lat="47.79116" lon="-3.38464">
        <ele>37.15</ele>
        <time>2015-09-06T07:00:39Z</time>
      </trkpt>
      <trkpt lat="47.79121" lon="-3.38464">
        <ele>37.15</ele>
        <time>2015-09-06T07:00:40Z</time>
      </trkpt>
      <trkpt lat="47.79124" lon="-3.38463">
        <ele>37.15</ele>
        <time>2015-09-06T07:00:41Z</time>
      </trkpt>
      <trkpt lat="47.79128" lon="-3.38463">
        <ele>37.15</ele>
        <time>2015-09-06T07:00:42Z</time>
      </trkpt>
      <trkpt lat="47.79132" lon="-3.38463">
        <ele>37.15</ele>
        <time>2015-09-06T07:00:43Z</time>
      </trkpt>
      <trkpt lat="47.79136" lon="-3.38462">
        <ele>37.15</ele>
        <time>2015-09-06T07:00:44Z</time>
      </trkpt>
      <trkpt lat="47.7914" lon="-3.38462">
        <ele>37.15</ele>
        <time>2015-09-06T07:00:45Z</time>
      </trkpt>
      <trkpt lat="47.79145" lon="-3.38461">
        <ele>37.15</ele>
        <time>2015-09-06T07:00:46Z</time>
      </trkpt>
      <trkpt lat="47.79149" lon="-3.38461">
        <ele>37.15</ele>
        <time>2015-09-06T07:00:47Z</time>
      </trkpt>
      <trkpt lat="47.79154" lon="-3.3846">
        <ele>37.15</ele>
        <time>2015-09-06T07:00:48Z</time>
      </trkpt>
      <trkpt lat="47.79158" lon="-3.3846">
        <ele>37.15</ele>
        <time>2015-09-06T07:00:49Z</time>
      </trkpt>
      <trkpt lat="47.79163" lon="-3.3846">
        <ele>37.15</ele>
        <time>2015-09-06T07:00:50Z</time>
      </trkpt>
      <trkpt lat="47.79169" lon="-3.3846">
        <ele>36.19</ele>
        <time>2015-09-06T07:00:51Z</time>
      </trkpt>
      <trkpt lat="47.79175" lon="-3.38459">
        <ele>35.23</ele>
        <time>2015-09-06T07:00:52Z</time>
      </trkpt>
      <trkpt lat="47.79181" lon="-3.38457">
        <ele>34.74</ele>
        <time>2015-09-06T07:00:53Z</time>
      </trkpt>
      <trkpt lat="47.79187" lon="-3.38456">
        <ele>34.26</ele>
        <time>2015-09-06T07:00:54Z</time>
      </trkpt>
      <trkpt lat="47.79194" lon="-3.38455">
        <ele>33.3</ele>
        <time>2015-09-06T07:00:55Z</time>
      </trkpt>
      <trkpt lat="47.79201" lon="-3.38454">
        <ele>32.82</ele>
        <time>2015-09-06T07:00:56Z</time>
      </trkpt>
      <trkpt lat="47.79208" lon="-3.38452">
        <ele>32.34</ele>
        <time>2015-09-06T07:00:57Z</time>
      </trkpt>
      <trkpt lat="47.79214" lon="-3.38451">
        <ele>31.38</ele>
        <time>2015-09-06T07:00:58Z</time>
      </trkpt>
      <trkpt lat="47.79221" lon="-3.3845">
        <ele>31.38</ele>
        <time>2015-09-06T07:00:59Z</time>
      </trkpt>
      <trkpt lat="47.79228" lon="-3.3845">
        <ele>30.9</ele>
        <time>2015-09-06T07:01:00Z</time>
      </trkpt>
      <trkpt lat="47.79235" lon="-3.3845">
        <ele>30.42</ele>
        <time>2015-09-06T07:01:01Z</time>
      </trkpt>
      <trkpt lat="47.79242" lon="-3.38451">
        <ele>29.94</ele>
        <time>2015-09-06T07:01:02Z</time>
      </trkpt>
      <trkpt lat="47.79249" lon="-3.38452">
        <ele>30.42</ele>
        <time>2015-09-06T07:01:03Z</time>
      </trkpt>
      <trkpt lat="47.79255" lon="-3.38454">
        <ele>30.42</ele>
        <time>2015-09-06T07:01:04Z</time>
      </trkpt>
      <trkpt lat="47.79261" lon="-3.38456">
        <ele>30.42</ele>
        <time>2015-09-06T07:01:05Z</time>
      </trkpt>
      <trkpt lat="47.79268" lon="-3.38456">
        <ele>29.94</ele>
        <time>2015-09-06T07:01:06Z</time>
      </trkpt>
      <trkpt lat="47.79274" lon="-3.38457">
        <ele>30.42</ele>
        <time>2015-09-06T07:01:07Z</time>
      </trkpt>
      <trkpt lat="47.79279" lon="-3.38458">
        <ele>29.94</ele>
        <time>2015-09-06T07:01:08Z</time>
      </trkpt>
      <trkpt lat="47.79283" lon="-3.38459">
        <ele>29.94</ele>
        <time>2015-09-06T07:01:09Z</time>
      </trkpt>
      <trkpt lat="47.79288" lon="-3.3846">
        <ele>29.94</ele>
        <time>2015-09-06T07:01:10Z</time>
      </trkpt>
      <trkpt lat="47.79292" lon="-3.38461">
        <ele>29.94</ele>
        <time>2015-09-06T07:01:11Z</time>
      </trkpt>
      <trkpt lat="47.79296" lon="-3.38462">
        <ele>30.42</ele>
        <time>2015-09-06T07:01:12Z</time>
      </trkpt>
      <trkpt lat="47.793" lon="-3.38461">
        <ele>30.42</ele>
        <time>2015-09-06T07:01:13Z</time>
      </trkpt>
      <trkpt lat="47.79305" lon="-3.38462">
        <ele>30.42</ele>
        <time>2015-09-06T07:01:14Z</time>
      </trkpt>
      <trkpt lat="47.79309" lon="-3.38462">
        <ele>30.42</ele>
        <time>2015-09-06T07:01:15Z</time>
      </trkpt>
      <trkpt lat="47.79313" lon="-3.38462">
        <ele>30.42</ele>
        <time>2015-09-06T07:01:16Z</time>
      </trkpt>
      <trkpt lat="47.79318" lon="-3.38461">
        <ele>30.42</ele>
        <time>2015-09-06T07:01:17Z</time>
      </trkpt>
      <trkpt lat="47.79322" lon="-3.3846">
        <ele>30.42</ele>
        <time>2015-09-06T07:01:18Z</time>
      </trkpt>
      <trkpt lat="47.79326" lon="-3.38459">
        <ele>30.42</ele>
        <time>2015-09-06T07:01:19Z</time>
      </trkpt>
      <trkpt lat="47.7933" lon="-3.38459">
        <ele>31.38</ele>
        <time>2015-09-06T07:01:20Z</time>
      </trkpt>
      <trkpt lat="47.79334" lon="-3.38459">
        <ele>31.38</ele>
        <time>2015-09-06T07:01:21Z</time>
      </trkpt>
      <trkpt lat="47.79338" lon="-3.38459">
        <ele>31.38</ele>
        <time>2015-09-06T07:01:22Z</time>
      </trkpt>
      <trkpt lat="47.79342" lon="-3.38459">
        <ele>31.38</ele>
        <time>2015-09-06T07:01:23Z</time>
      </trkpt>
      <trkpt lat="47.79346" lon="-3.3846">
        <ele>31.86</ele>
        <time>2015-09-06T07:01:24Z</time>
      </trkpt>
      <trkpt lat="47.79351" lon="-3.3846">
        <ele>31.86</ele>
        <time>2015-09-06T07:01:25Z</time>
      </trkpt>
      <trkpt lat="47.79355" lon="-3.3846">
        <ele>31.86</ele>
        <time>2015-09-06T07:01:26Z</time>
      </trkpt>
      <trkpt lat="47.7936" lon="-3.38459">
        <ele>31.86</ele>
        <time>2015-09-06T07:01:27Z</time>
      </trkpt>
      <trkpt lat="47.79365" lon="-3.38459">
        <ele>31.86</ele>
        <time>2015-09-06T07:01:28Z</time>
      </trkpt>
      <trkpt lat="47.79369" lon="-3.38459">
        <ele>31.86</ele>
        <time>2015-09-06T07:01:29Z</time>
      </trkpt>
      <trkpt lat="47.79374" lon="-3.38459">
        <ele>31.86</ele>
        <time>2015-09-06T07:01:30Z</time>
      </trkpt>
      <trkpt lat="47.79379" lon="-3.38459">
        <ele>31.86</ele>
        <time>2015-09-06T07:01:31Z</time>
      </trkpt>
      <trkpt lat="47.79383" lon="-3.38458">
        <ele>30.42</ele>
        <time>2015-09-06T07:01:32Z</time>
      </trkpt>
      <trkpt lat="47.79387" lon="-3.38457">
        <ele>30.42</ele>
        <time>2015-09-06T07:01:33Z</time>
      </trkpt>
      <trkpt lat="47.7939" lon="-3.38456">
        <ele>29.94</ele>
        <time>2015-09-06T07:01:34Z</time>
      </trkpt>
      <trkpt lat="47.79394" lon="-3.38455">
        <ele>29.94</ele>
        <time>2015-09-06T07:01:35Z</time>
      </trkpt>
      <trkpt lat="47.79397" lon="-3.38454">
        <ele>28.98</ele>
        <time>2015-09-06T07:01:36Z</time>
      </trkpt>
      <trkpt lat="47.794" lon="-3.38452">
        <ele>28.5</ele>
        <time>2015-09-06T07:01:37Z</time>
      </trkpt>
      <trkpt lat="47.79403" lon="-3.3845">
        <ele>28.02</ele>
        <time>2015-09-06T07:01:38Z</time>
      </trkpt>
      <trkpt lat="47.79406" lon="-3.38449">
        <ele>27.05</ele>
        <time>2015-09-06T07:01:39Z</time>
      </trkpt>
      <trkpt lat="47.7941" lon="-3.38447">
        <ele>26.57</ele>
        <time>2015-09-06T07:01:40Z</time>
      </trkpt>
      <trkpt lat="47.79414" lon="-3.38445">
        <ele>25.61</ele>
        <time>2015-09-06T07:01:41Z</time>
      </trkpt>
      <trkpt lat="47.79418" lon="-3.38443">
        <ele>24.65</ele>
        <time>2015-09-06T07:01:42Z</time>
      </trkpt>
      <trkpt lat="47.79422" lon="-3.38442">
        <ele>23.69</ele>
        <time>2015-09-06T07:01:43Z</time>
      </trkpt>
      <trkpt lat="47.79425" lon="-3.3844">
        <ele>23.21</ele>
        <time>2015-09-06T07:01:44Z</time>
      </trkpt>
      <trkpt lat="47.79428" lon="-3.38439">
        <ele>22.73</ele>
        <time>2015-09-06T07:01:45Z</time>
      </trkpt>
      <trkpt lat="47.7943" lon="-3.38438">
        <ele>22.25</ele>
        <time>2015-09-06T07:01:46Z</time>
      </trkpt>
      <trkpt lat="47.79433" lon="-3.38438">
        <ele>21.29</ele>
        <time>2015-09-06T07:01:47Z</time>
      </trkpt>
      <trkpt lat="47.79435" lon="-3.38437">
        <ele>20.32</ele>
        <time>2015-09-06T07:01:48Z</time>
      </trkpt>
      <trkpt lat="47.79437" lon="-3.38437">
        <ele>19.84</ele>
        <time>2015-09-06T07:01:49Z</time>
      </trkpt>
      <trkpt lat="47.79439" lon="-3.38437">
        <ele>18.88</ele>
        <time>2015-09-06T07:01:50Z</time>
      </trkpt>
      <trkpt lat="47.79441" lon="-3.38439">
        <ele>18.88</ele>
        <time>2015-09-06T07:01:51Z</time>
      </trkpt>
      <trkpt lat="47.79442" lon="-3.38442">
        <ele>19.36</ele>
        <time>2015-09-06T07:01:52Z</time>
      </trkpt>
      <trkpt lat="47.79444" lon="-3.38444">
        <ele>19.36</ele>
        <time>2015-09-06T07:01:53Z</time>
      </trkpt>
      <trkpt lat="47.79446" lon="-3.38446">
        <ele>19.36</ele>
        <time>2015-09-06T07:01:54Z</time>
      </trkpt>
      <trkpt lat="47.79448" lon="-3.38448">
        <ele>19.36</ele>
        <time>2015-09-06T07:01:55Z</time>
      </trkpt>
      <trkpt lat="47.7945" lon="-3.38449">
        <ele>19.36</ele>
        <time>2015-09-06T07:01:56Z</time>
      </trkpt>
      <trkpt lat="47.79453" lon="-3.38452">
        <ele>19.36</ele>
        <time>2015-09-06T07:01:57Z</time>
      </trkpt>
      <trkpt lat="47.79455" lon="-3.38455">
        <ele>19.36</ele>
        <time>2015-09-06T07:01:58Z</time>
      </trkpt>
      <trkpt lat="47.79458" lon="-3.38457">
        <ele>19.36</ele>
        <time>2015-09-06T07:01:59Z</time>
      </trkpt>
      <trkpt lat="47.79461" lon="-3.3846">
        <ele>19.36</ele>
        <time>2015-09-06T07:02:00Z</time>
      </trkpt>
      <trkpt lat="47.79464" lon="-3.38463">
        <ele>19.36</ele>
        <time>2015-09-06T07:02:01Z</time>
      </trkpt>
      <trkpt lat="47.79467" lon="-3.38466">
        <ele>19.36</ele>
        <time>2015-09-06T07:02:02Z</time>
      </trkpt>
      <trkpt lat="47.79469" lon="-3.38468">
        <ele>19.36</ele>
        <time>2015-09-06T07:02:03Z</time>
      </trkpt>
      <trkpt lat="47.79472" lon="-3.38471">
        <ele>19.36</ele>
        <time>2015-09-06T07:02:04Z</time>
      </trkpt>
      <trkpt lat="47.79475" lon="-3.38473">
        <ele>19.36</ele>
        <time>2015-09-06T07:02:05Z</time>
      </trkpt>
      <trkpt lat="47.79478" lon="-3.38476">
        <ele>19.36</ele>
        <time>2015-09-06T07:02:06Z</time>
      </trkpt>
      <trkpt lat="47.7948" lon="-3.38478">
        <ele>19.36</ele>
        <time>2015-09-06T07:02:07Z</time>
      </trkpt>
      <trkpt lat="47.79482" lon="-3.3848">
        <ele>19.36</ele>
        <time>2015-09-06T07:02:08Z</time>
      </trkpt>
      <trkpt lat="47.79484" lon="-3.38482">
        <ele>19.36</ele>
        <time>2015-09-06T07:02:09Z</time>
      </trkpt>
      <trkpt lat="47.79485" lon="-3.38484">
        <ele>19.36</ele>
        <time>2015-09-06T07:02:10Z</time>
      </trkpt>
      <trkpt lat="47.79486" lon="-3.38484">
        <ele>19.36</ele>
        <time>2015-09-06T07:02:11Z</time>
      </trkpt>
      <trkpt lat="47.79487" lon="-3.38484">
        <ele>19.36</ele>
        <time>2015-09-06T07:02:12Z</time>
      </trkpt>
      <trkpt lat="47.79487" lon="-3.38484">
        <ele>19.36</ele>
        <time>2015-09-06T07:02:13Z</time>
      </trkpt>
      <trkpt lat="47.79486" lon="-3.38483">
        <ele>19.36</ele>
        <time>2015-09-06T07:02:14Z</time>
      </trkpt>
      <trkpt lat="47.79485" lon="-3.38483">
        <ele>19.36</ele>
        <time>2015-09-06T07:02:15Z</time>
      </trkpt>
      <trkpt lat="47.79485" lon="-3.38482">
        <ele>19.36</ele>
        <time>2015-09-06T07:02:16Z</time>
      </trkpt>
      <trkpt lat="47.79484" lon="-3.38482">
        <ele>19.36</ele>
        <time>2015-09-06T07:02:17Z</time>
      </trkpt>
      <trkpt lat="47.79483" lon="-3.38482">
        <ele>19.36</ele>
        <time>2015-09-06T07:02:18Z</time>
      </trkpt>
      <trkpt lat="47.79482" lon="-3.38481">
        <ele>19.36</ele>
        <time>2015-09-06T07:02:19Z</time>
      </trkpt>
      <trkpt lat="47.79481" lon="-3.38479">
        <ele>19.36</ele>
        <time>2015-09-06T07:02:20Z</time>
      </trkpt>
      <trkpt lat="47.7948" lon="-3.38478">
        <ele>19.36</ele>
        <time>2015-09-06T07:02:21Z</time>
      </trkpt>
      <trkpt lat="47.79479" lon="-3.38477">
        <ele>19.36</ele>
        <time>2015-09-06T07:02:22Z</time>
      </trkpt>
      <trkpt lat="47.79478" lon="-3.38475">
        <ele>19.36</ele>
        <time>2015-09-06T07:02:23Z</time>
      </trkpt>
      <trkpt lat="47.79477" lon="-3.38473">
        <ele>19.36</ele>
        <time>2015-09-06T07:02:24Z</time>
      </trkpt>
      <trkpt lat="47.79475" lon="-3.38472">
        <ele>19.36</ele>
        <time>2015-09-06T07:02:25Z</time>
      </trkpt>
      <trkpt lat="47.79474" lon="-3.3847">
        <ele>19.36</ele>
        <time>2015-09-06T07:02:26Z</time>
      </trkpt>
      <trkpt lat="47.79472" lon="-3.38469">
        <ele>19.36</ele>
        <time>2015-09-06T07:02:27Z</time>
      </trkpt>
      <trkpt lat="47.7947" lon="-3.38467">
        <ele>19.36</ele>
        <time>2015-09-06T07:02:28Z</time>
      </trkpt>
      <trkpt lat="47.79469" lon="-3.38466">
        <ele>19.36</ele>
        <time>2015-09-06T07:02:29Z</time>
      </trkpt>
      <trkpt lat="47.79467" lon="-3.38465">
        <ele>19.36</ele>
        <time>2015-09-06T07:02:30Z</time>
      </trkpt>
      <trkpt lat="47.79466" lon="-3.38465">
        <ele>19.36</ele>
        <time>2015-09-06T07:02:31Z</time>
      </trkpt>
      <trkpt lat="47.79465" lon="-3.38464">
        <ele>19.36</ele>
        <time>2015-09-06T07:02:32Z</time>
      </trkpt>
      <trkpt lat="47.79464" lon="-3.38463">
        <ele>19.36</ele>
        <time>2015-09-06T07:02:33Z</time>
      </trkpt>
      <trkpt lat="47.79464" lon="-3.38462">
        <ele>19.36</ele>
        <time>2015-09-06T07:02:34Z</time>
      </trkpt>
      <trkpt lat="47.79464" lon="-3.3846">
        <ele>19.36</ele>
        <time>2015-09-06T07:02:35Z</time>
      </trkpt>
      <trkpt lat="47.79464" lon="-3.38459">
        <ele>19.36</ele>
        <time>2015-09-06T07:02:36Z</time>
      </trkpt>
      <trkpt lat="47.79465" lon="-3.38459">
        <ele>19.36</ele>
        <time>2015-09-06T07:02:37Z</time>
      </trkpt>
      <trkpt lat="47.79466" lon="-3.3846">
        <ele>19.36</ele>
        <time>2015-09-06T07:02:38Z</time>
      </trkpt>
      <trkpt lat="47.79467" lon="-3.38462">
        <ele>19.36</ele>
        <time>2015-09-06T07:02:39Z</time>
      </trkpt>
      <trkpt lat="47.79468" lon="-3.38464">
        <ele>19.36</ele>
        <time>2015-09-06T07:02:40Z</time>
      </trkpt>
      <trkpt lat="47.7947" lon="-3.38465">
        <ele>19.36</ele>
        <time>2015-09-06T07:02:41Z</time>
      </trkpt>
      <trkpt lat="47.79472" lon="-3.38467">
        <ele>19.36</ele>
        <time>2015-09-06T07:02:42Z</time>
      </trkpt>
      <trkpt lat="47.79473" lon="-3.38469">
        <ele>19.36</ele>
        <time>2015-09-06T07:02:43Z</time>
      </trkpt>
      <trkpt lat="47.79476" lon="-3.38472">
        <ele>19.36</ele>
        <time>2015-09-06T07:02:44Z</time>
      </trkpt>
      <trkpt lat="47.79478" lon="-3.38474">
        <ele>19.36</ele>
        <time>2015-09-06T07:02:45Z</time>
      </trkpt>
      <trkpt lat="47.79481" lon="-3.38476">
        <ele>19.36</ele>
        <time>2015-09-06T07:02:46Z</time>
      </trkpt>
      <trkpt lat="47.79483" lon="-3.38479">
        <ele>19.36</ele>
        <time>2015-09-06T07:02:47Z</time>
      </trkpt>
      <trkpt lat="47.79487" lon="-3.38482">
        <ele>19.36</ele>
        <time>2015-09-06T07:02:48Z</time>
      </trkpt>
      <trkpt lat="47.79489" lon="-3.38486">
        <ele>19.36</ele>
        <time>2015-09-06T07:02:49Z</time>
      </trkpt>
      <trkpt lat="47.79492" lon="-3.3849">
        <ele>19.36</ele>
        <time>2015-09-06T07:02:50Z</time>
      </trkpt>
      <trkpt lat="47.79495" lon="-3.38493">
        <ele>19.36</ele>
        <time>2015-09-06T07:02:51Z</time>
      </trkpt>
      <trkpt lat="47.79498" lon="-3.38497">
        <ele>19.36</ele>
        <time>2015-09-06T07:02:52Z</time>
      </trkpt>
      <trkpt lat="47.795" lon="-3.385">
        <ele>19.36</ele>
        <time>2015-09-06T07:02:53Z</time>
      </trkpt>
      <trkpt lat="47.79503" lon="-3.38504">
        <ele>19.36</ele>
        <time>2015-09-06T07:02:54Z</time>
      </trkpt>
      <trkpt lat="47.79506" lon="-3.38507">
        <ele>19.36</ele>
        <time>2015-09-06T07:02:55Z</time>
      </trkpt>
      <trkpt lat="47.79508" lon="-3.3851">
        <ele>19.36</ele>
        <time>2015-09-06T07:02:56Z</time>
      </trkpt>
      <trkpt lat="47.79511" lon="-3.38513">
        <ele>19.36</ele>
        <time>2015-09-06T07:02:57Z</time>
      </trkpt>
      <trkpt lat="47.79513" lon="-3.38516">
        <ele>19.36</ele>
        <time>2015-09-06T07:02:58Z</time>
      </trkpt>
      <trkpt lat="47.79516" lon="-3.38519">
        <ele>19.36</ele>
        <time>2015-09-06T07:02:59Z</time>
      </trkpt>
      <trkpt lat="47.79518" lon="-3.38522">
        <ele>19.36</ele>
        <time>2015-09-06T07:03:00Z</time>
      </trkpt>
      <trkpt lat="47.79521" lon="-3.38525">
        <ele>19.36</ele>
        <time>2015-09-06T07:03:01Z</time>
      </trkpt>
      <trkpt lat="47.79524" lon="-3.38528">
        <ele>19.36</ele>
        <time>2015-09-06T07:03:02Z</time>
      </trkpt>
      <trkpt lat="47.79527" lon="-3.38532">
        <ele>19.36</ele>
        <time>2015-09-06T07:03:03Z</time>
      </trkpt>
      <trkpt lat="47.79531" lon="-3.38536">
        <ele>19.36</ele>
        <time>2015-09-06T07:03:04Z</time>
      </trkpt>
      <trkpt lat="47.79535" lon="-3.38541">
        <ele>19.36</ele>
        <time>2015-09-06T07:03:05Z</time>
      </trkpt>
      <trkpt lat="47.79538" lon="-3.38546">
        <ele>19.36</ele>
        <time>2015-09-06T07:03:06Z</time>
      </trkpt>
      <trkpt lat="47.79542" lon="-3.38551">
        <ele>18.88</ele>
        <time>2015-09-06T07:03:07Z</time>
      </trkpt>
      <trkpt lat="47.79546" lon="-3.38556">
        <ele>18.88</ele>
        <time>2015-09-06T07:03:08Z</time>
      </trkpt>
      <trkpt lat="47.7955" lon="-3.38562">
        <ele>18.88</ele>
        <time>2015-09-06T07:03:09Z</time>
      </trkpt>
      <trkpt lat="47.79555" lon="-3.38568">
        <ele>18.88</ele>
        <time>2015-09-06T07:03:10Z</time>
      </trkpt>
      <trkpt lat="47.79558" lon="-3.38573">
        <ele>18.88</ele>
        <time>2015-09-06T07:03:11Z</time>
      </trkpt>
      <trkpt lat="47.79562" lon="-3.38579">
        <ele>18.88</ele>
        <time>2015-09-06T07:03:12Z</time>
      </trkpt>
      <trkpt lat="47.79565" lon="-3.38584">
        <ele>18.88</ele>
        <time>2015-09-06T07:03:13Z</time>
      </trkpt>
      <trkpt lat="47.79568" lon="-3.38589">
        <ele>18.88</ele>
        <time>2015-09-06T07:03:14Z</time>
      </trkpt>
      <trkpt lat="47.79571" lon="-3.38596">
        <ele>18.88</ele>
        <time>2015-09-06T07:03:15Z</time>
      </trkpt>
      <trkpt lat="47.79573" lon="-3.38602">
        <ele>19.36</ele>
        <time>2015-09-06T07:03:16Z</time>
      </trkpt>
      <trkpt lat="47.79575" lon="-3.38609">
        <ele>19.36</ele>
        <time>2015-09-06T07:03:17Z</time>
      </trkpt>
      <trkpt lat="47.79578" lon="-3.38619">
        <ele>19.36</ele>
        <time>2015-09-06T07:03:18Z</time>
      </trkpt>
      <trkpt lat="47.79582" lon="-3.38627">
        <ele>19.36</ele>
        <time>2015-09-06T07:03:19Z</time>
      </trkpt>
      <trkpt lat="47.79585" lon="-3.38634">
        <ele>19.36</ele>
        <time>2015-09-06T07:03:20Z</time>
      </trkpt>
      <trkpt lat="47.79589" lon="-3.3864">
        <ele>19.36</ele>
        <time>2015-09-06T07:03:21Z</time>
      </trkpt>
      <trkpt lat="47.79593" lon="-3.38645">
        <ele>19.36</ele>
        <time>2015-09-06T07:03:22Z</time>
      </trkpt>
      <trkpt lat="47.79597" lon="-3.38649">
        <ele>19.36</ele>
        <time>2015-09-06T07:03:23Z</time>
      </trkpt>
      <trkpt lat="47.79601" lon="-3.38653">
        <ele>19.36</ele>
        <time>2015-09-06T07:03:24Z</time>
      </trkpt>
      <trkpt lat="47.79606" lon="-3.38658">
        <ele>19.36</ele>
        <time>2015-09-06T07:03:25Z</time>
      </trkpt>
      <trkpt lat="47.79609" lon="-3.38663">
        <ele>19.36</ele>
        <time>2015-09-06T07:03:26Z</time>
      </trkpt>
      <trkpt lat="47.79613" lon="-3.3867">
        <ele>19.36</ele>
        <time>2015-09-06T07:03:27Z</time>
      </trkpt>
      <trkpt lat="47.79616" lon="-3.38677">
        <ele>19.36</ele>
        <time>2015-09-06T07:03:28Z</time>
      </trkpt>
      <trkpt lat="47.79618" lon="-3.38684">
        <ele>19.36</ele>
        <time>2015-09-06T07:03:29Z</time>
      </trkpt>
      <trkpt lat="47.79619" lon="-3.38692">
        <ele>19.36</ele>
        <time>2015-09-06T07:03:30Z</time>
      </trkpt>
      <trkpt lat="47.79621" lon="-3.387">
        <ele>19.36</ele>
        <time>2015-09-06T07:03:31Z</time>
      </trkpt>
      <trkpt lat="47.79623" lon="-3.38707">
        <ele>19.36</ele>
        <time>2015-09-06T07:03:32Z</time>
      </trkpt>
      <trkpt lat="47.79626" lon="-3.38714">
        <ele>19.36</ele>
        <time>2015-09-06T07:03:33Z</time>
      </trkpt>
      <trkpt lat="47.79628" lon="-3.38722">
        <ele>19.36</ele>
        <time>2015-09-06T07:03:34Z</time>
      </trkpt>
      <trkpt lat="47.79631" lon="-3.38729">
        <ele>19.36</ele>
        <time>2015-09-06T07:03:35Z</time>
      </trkpt>
      <trkpt lat="47.79633" lon="-3.38736">
        <ele>19.36</ele>
        <time>2015-09-06T07:03:36Z</time>
      </trkpt>
      <trkpt lat="47.79636" lon="-3.38744">
        <ele>19.36</ele>
        <time>2015-09-06T07:03:37Z</time>
      </trkpt>
      <trkpt lat="47.79639" lon="-3.38752">
        <ele>19.36</ele>
        <time>2015-09-06T07:03:38Z</time>
      </trkpt>
      <trkpt lat="47.79642" lon="-3.38759">
        <ele>19.36</ele>
        <time>2015-09-06T07:03:39Z</time>
      </trkpt>
      <trkpt lat="47.79645" lon="-3.38766">
        <ele>19.36</ele>
        <time>2015-09-06T07:03:40Z</time>
      </trkpt>
      <trkpt lat="47.79648" lon="-3.38772">
        <ele>19.36</ele>
        <time>2015-09-06T07:03:41Z</time>
      </trkpt>
      <trkpt lat="47.79651" lon="-3.38778">
        <ele>19.36</ele>
        <time>2015-09-06T07:03:42Z</time>
      </trkpt>
      <trkpt lat="47.79654" lon="-3.38784">
        <ele>19.36</ele>
        <time>2015-09-06T07:03:43Z</time>
      </trkpt>
      <trkpt lat="47.79658" lon="-3.3879">
        <ele>19.36</ele>
        <time>2015-09-06T07:03:44Z</time>
      </trkpt>
      <trkpt lat="47.79661" lon="-3.38795">
        <ele>19.36</ele>
        <time>2015-09-06T07:03:45Z</time>
      </trkpt>
      <trkpt lat="47.79664" lon="-3.388">
        <ele>19.36</ele>
        <time>2015-09-06T07:03:46Z</time>
      </trkpt>
      <trkpt lat="47.79666" lon="-3.38805">
        <ele>19.36</ele>
        <time>2015-09-06T07:03:47Z</time>
      </trkpt>
      <trkpt lat="47.79668" lon="-3.3881">
        <ele>19.36</ele>
        <time>2015-09-06T07:03:48Z</time>
      </trkpt>
      <trkpt lat="47.7967" lon="-3.38815">
        <ele>19.36</ele>
        <time>2015-09-06T07:03:49Z</time>
      </trkpt>
      <trkpt lat="47.79672" lon="-3.38819">
        <ele>19.36</ele>
        <time>2015-09-06T07:03:50Z</time>
      </trkpt>
      <trkpt lat="47.79674" lon="-3.38823">
        <ele>19.36</ele>
        <time>2015-09-06T07:03:51Z</time>
      </trkpt>
      <trkpt lat="47.79675" lon="-3.38826">
        <ele>19.36</ele>
        <time>2015-09-06T07:03:52Z</time>
      </trkpt>
      <trkpt lat="47.79676" lon="-3.3883">
        <ele>20.81</ele>
        <time>2015-09-06T07:03:53Z</time>
      </trkpt>
      <trkpt lat="47.79678" lon="-3.38834">
        <ele>20.81</ele>
        <time>2015-09-06T07:03:54Z</time>
      </trkpt>
      <trkpt lat="47.79679" lon="-3.38838">
        <ele>20.81</ele>
        <time>2015-09-06T07:03:55Z</time>
      </trkpt>
      <trkpt lat="47.79681" lon="-3.38843">
        <ele>20.81</ele>
        <time>2015-09-06T07:03:56Z</time>
      </trkpt>
      <trkpt lat="47.79683" lon="-3.38849">
        <ele>20.81</ele>
        <time>2015-09-06T07:03:57Z</time>
      </trkpt>
      <trkpt lat="47.79686" lon="-3.38854">
        <ele>20.81</ele>
        <time>2015-09-06T07:03:58Z</time>
      </trkpt>
      <trkpt lat="47.79689" lon="-3.38858">
        <ele>20.81</ele>
        <time>2015-09-06T07:03:59Z</time>
      </trkpt>
      <trkpt lat="47.79692" lon="-3.38863">
        <ele>20.81</ele>
        <time>2015-09-06T07:04:00Z</time>
      </trkpt>
      <trkpt lat="47.79695" lon="-3.38866">
        <ele>20.81</ele>
        <time>2015-09-06T07:04:01Z</time>
      </trkpt>
      <trkpt lat="47.79697" lon="-3.3887">
        <ele>20.81</ele>
        <time>2015-09-06T07:04:02Z</time>
      </trkpt>
      <trkpt lat="47.797" lon="-3.38873">
        <ele>20.81</ele>
        <time>2015-09-06T07:04:03Z</time>
      </trkpt>
      <trkpt lat="47.79703" lon="-3.38876">
        <ele>20.81</ele>
        <time>2015-09-06T07:04:04Z</time>
      </trkpt>
      <trkpt lat="47.79706" lon="-3.38879">
        <ele>20.81</ele>
        <time>2015-09-06T07:04:05Z</time>
      </trkpt>
      <trkpt lat="47.7971" lon="-3.38882">
        <ele>20.81</ele>
        <time>2015-09-06T07:04:06Z</time>
      </trkpt>
      <trkpt lat="47.79713" lon="-3.38885">
        <ele>20.81</ele>
        <time>2015-09-06T07:04:07Z</time>
      </trkpt>
      <trkpt lat="47.79716" lon="-3.38888">
        <ele>20.81</ele>
        <time>2015-09-06T07:04:08Z</time>
      </trkpt>
      <trkpt lat="47.7972" lon="-3.3889">
        <ele>20.81</ele>
        <time>2015-09-06T07:04:09Z</time>
      </trkpt>
      <trkpt lat="47.79724" lon="-3.38893">
        <ele>20.81</ele>
        <time>2015-09-06T07:04:10Z</time>
      </trkpt>
      <trkpt lat="47.79728" lon="-3.38896">
        <ele>20.81</ele>
        <time>2015-09-06T07:04:11Z</time>
      </trkpt>
      <trkpt lat="47.79732" lon="-3.38899">
        <ele>20.81</ele>
        <time>2015-09-06T07:04:12Z</time>
      </trkpt>
      <trkpt lat="47.79735" lon="-3.38902">
        <ele>20.81</ele>
        <time>2015-09-06T07:04:13Z</time>
      </trkpt>
      <trkpt lat="47.79738" lon="-3.38905">
        <ele>21.29</ele>
        <time>2015-09-06T07:04:14Z</time>
      </trkpt>
      <trkpt lat="47.79741" lon="-3.38908">
        <ele>21.77</ele>
        <time>2015-09-06T07:04:15Z</time>
      </trkpt>
      <trkpt lat="47.79744" lon="-3.38911">
        <ele>21.77</ele>
        <time>2015-09-06T07:04:16Z</time>
      </trkpt>
      <trkpt lat="47.79747" lon="-3.38915">
        <ele>22.25</ele>
        <time>2015-09-06T07:04:17Z</time>
      </trkpt>
      <trkpt lat="47.79749" lon="-3.38919">
        <ele>22.25</ele>
        <time>2015-09-06T07:04:18Z</time>
      </trkpt>
      <trkpt lat="47.79752" lon="-3.38922">
        <ele>22.25</ele>
        <time>2015-09-06T07:04:19Z</time>
      </trkpt>
      <trkpt lat="47.79755" lon="-3.38926">
        <ele>22.25</ele>
        <time>2015-09-06T07:04:20Z</time>
      </trkpt>
      <trkpt lat="47.79758" lon="-3.3893">
        <ele>20.81</ele>
        <time>2015-09-06T07:04:21Z</time>
      </trkpt>
      <trkpt lat="47.79758" lon="-3.38936">
        <ele>20.81</ele>
        <time>2015-09-06T07:04:22Z</time>
      </trkpt>
      <trkpt lat="47.79756" lon="-3.3894">
        <ele>20.81</ele>
        <time>2015-09-06T07:04:23Z</time>
      </trkpt>
      <trkpt lat="47.79755" lon="-3.38944">
        <ele>21.29</ele>
        <time>2015-09-06T07:04:24Z</time>
      </trkpt>
      <trkpt lat="47.79754" lon="-3.38946">
        <ele>21.29</ele>
        <time>2015-09-06T07:04:25Z</time>
      </trkpt>
      <trkpt lat="47.79753" lon="-3.38948">
        <ele>21.29</ele>
        <time>2015-09-06T07:04:26Z</time>
      </trkpt>
      <trkpt lat="47.79752" lon="-3.3895">
        <ele>22.73</ele>
        <time>2015-09-06T07:04:27Z</time>
      </trkpt>
      <trkpt lat="47.79753" lon="-3.38952">
        <ele>22.73</ele>
        <time>2015-09-06T07:04:28Z</time>
      </trkpt>
      <trkpt lat="47.79755" lon="-3.38955">
        <ele>22.73</ele>
        <time>2015-09-06T07:04:29Z</time>
      </trkpt>
      <trkpt lat="47.79756" lon="-3.38957">
        <ele>22.73</ele>
        <time>2015-09-06T07:04:30Z</time>
      </trkpt>
      <trkpt lat="47.79759" lon="-3.38958">
        <ele>22.73</ele>
        <time>2015-09-06T07:04:31Z</time>
      </trkpt>
      <trkpt lat="47.79761" lon="-3.38959">
        <ele>22.73</ele>
        <time>2015-09-06T07:04:32Z</time>
      </trkpt>
      <trkpt lat="47.79764" lon="-3.38959">
        <ele>22.73</ele>
        <time>2015-09-06T07:04:33Z</time>
      </trkpt>
      <trkpt lat="47.79767" lon="-3.3896">
        <ele>23.21</ele>
        <time>2015-09-06T07:04:34Z</time>
      </trkpt>
      <trkpt lat="47.7977" lon="-3.3896">
        <ele>23.21</ele>
        <time>2015-09-06T07:04:35Z</time>
      </trkpt>
      <trkpt lat="47.79773" lon="-3.38961">
        <ele>23.21</ele>
        <time>2015-09-06T07:04:36Z</time>
      </trkpt>
      <trkpt lat="47.79776" lon="-3.38961">
        <ele>23.69</ele>
        <time>2015-09-06T07:04:37Z</time>
      </trkpt>
      <trkpt lat="47.79779" lon="-3.38961">
        <ele>24.17</ele>
        <time>2015-09-06T07:04:38Z</time>
      </trkpt>
      <trkpt lat="47.79782" lon="-3.38962">
        <ele>24.17</ele>
        <time>2015-09-06T07:04:39Z</time>
      </trkpt>
      <trkpt lat="47.79784" lon="-3.38964">
        <ele>24.65</ele>
        <time>2015-09-06T07:04:40Z</time>
      </trkpt>
      <trkpt lat="47.79787" lon="-3.38966">
        <ele>24.65</ele>
        <time>2015-09-06T07:04:41Z</time>
      </trkpt>
      <trkpt lat="47.7979" lon="-3.38968">
        <ele>25.61</ele>
        <time>2015-09-06T07:04:42Z</time>
      </trkpt>
      <trkpt lat="47.79792" lon="-3.38972">
        <ele>25.13</ele>
        <time>2015-09-06T07:04:43Z</time>
      </trkpt>
      <trkpt lat="47.79794" lon="-3.38975">
        <ele>25.61</ele>
        <time>2015-09-06T07:04:44Z</time>
      </trkpt>
      <trkpt lat="47.79796" lon="-3.38978">
        <ele>25.61</ele>
        <time>2015-09-06T07:04:45Z</time>
      </trkpt>
      <trkpt lat="47.79799" lon="-3.38981">
        <ele>26.57</ele>
        <time>2015-09-06T07:04:46Z</time>
      </trkpt>
      <trkpt lat="47.79801" lon="-3.38984">
        <ele>26.57</ele>
        <time>2015-09-06T07:04:47Z</time>
      </trkpt>
      <trkpt lat="47.79803" lon="-3.38987">
        <ele>27.05</ele>
        <time>2015-09-06T07:04:48Z</time>
      </trkpt>
      <trkpt lat="47.79805" lon="-3.3899">
        <ele>27.53</ele>
        <time>2015-09-06T07:04:49Z</time>
      </trkpt>
      <trkpt lat="47.79806" lon="-3.38994">
        <ele>27.53</ele>
        <time>2015-09-06T07:04:50Z</time>
      </trkpt>
      <trkpt lat="47.79808" lon="-3.38997">
        <ele>28.02</ele>
        <time>2015-09-06T07:04:51Z</time>
      </trkpt>
      <trkpt lat="47.7981" lon="-3.39">
        <ele>28.02</ele>
        <time>2015-09-06T07:04:52Z</time>
      </trkpt>
      <trkpt lat="47.79811" lon="-3.39003">
        <ele>28.5</ele>
        <time>2015-09-06T07:04:53Z</time>
      </trkpt>
      <trkpt lat="47.79814" lon="-3.39005">
        <ele>28.5</ele>
        <time>2015-09-06T07:04:54Z</time>
      </trkpt>
      <trkpt lat="47.79815" lon="-3.39008">
        <ele>28.98</ele>
        <time>2015-09-06T07:04:55Z</time>
      </trkpt>
      <trkpt lat="47.79817" lon="-3.3901">
        <ele>28.98</ele>
        <time>2015-09-06T07:04:56Z</time>
      </trkpt>
      <trkpt lat="47.79819" lon="-3.39013">
        <ele>29.46</ele>
        <time>2015-09-06T07:04:57Z</time>
      </trkpt>
      <trkpt lat="47.79822" lon="-3.39015">
        <ele>29.46</ele>
        <time>2015-09-06T07:04:58Z</time>
      </trkpt>
      <trkpt lat="47.79825" lon="-3.39017">
        <ele>29.46</ele>
        <time>2015-09-06T07:04:59Z</time>
      </trkpt>
      <trkpt lat="47.79827" lon="-3.3902">
        <ele>29.46</ele>
        <time>2015-09-06T07:05:00Z</time>
      </trkpt>
      <trkpt lat="47.79829" lon="-3.39023">
        <ele>29.46</ele>
        <time>2015-09-06T07:05:01Z</time>
      </trkpt>
      <trkpt lat="47.79831" lon="-3.39026">
        <ele>29.46</ele>
        <time>2015-09-06T07:05:02Z</time>
      </trkpt>
      <trkpt lat="47.79832" lon="-3.39028">
        <ele>30.42</ele>
        <time>2015-09-06T07:05:03Z</time>
      </trkpt>
      <trkpt lat="47.79834" lon="-3.3903">
        <ele>30.42</ele>
        <time>2015-09-06T07:05:04Z</time>
      </trkpt>
      <trkpt lat="47.79836" lon="-3.39031">
        <ele>30.42</ele>
        <time>2015-09-06T07:05:05Z</time>
      </trkpt>
      <trkpt lat="47.79838" lon="-3.39032">
        <ele>30.42</ele>
        <time>2015-09-06T07:05:06Z</time>
      </trkpt>
      <trkpt lat="47.79841" lon="-3.39032">
        <ele>30.42</ele>
        <time>2015-09-06T07:05:07Z</time>
      </trkpt>
      <trkpt lat="47.79844" lon="-3.39034">
        <ele>30.42</ele>
        <time>2015-09-06T07:05:08Z</time>
      </trkpt>
      <trkpt lat="47.79847" lon="-3.39036">
        <ele>29.94</ele>
        <time>2015-09-06T07:05:09Z</time>
      </trkpt>
      <trkpt lat="47.79849" lon="-3.39038">
        <ele>29.94</ele>
        <time>2015-09-06T07:05:10Z</time>
      </trkpt>
      <trkpt lat="47.79852" lon="-3.39039">
        <ele>29.94</ele>
        <time>2015-09-06T07:05:11Z</time>
      </trkpt>
      <trkpt lat="47.79854" lon="-3.3904">
        <ele>28.98</ele>
        <time>2015-09-06T07:05:12Z</time>
      </trkpt>
      <trkpt lat="47.79857" lon="-3.3904">
        <ele>28.02</ele>
        <time>2015-09-06T07:05:13Z</time>
      </trkpt>
      <trkpt lat="47.79859" lon="-3.3904">
        <ele>27.53</ele>
        <time>2015-09-06T07:05:14Z</time>
      </trkpt>
      <trkpt lat="47.79862" lon="-3.39042">
        <ele>26.57</ele>
        <time>2015-09-06T07:05:15Z</time>
      </trkpt>
      <trkpt lat="47.79864" lon="-3.39042">
        <ele>26.09</ele>
        <time>2015-09-06T07:05:16Z</time>
      </trkpt>
      <trkpt lat="47.79867" lon="-3.39042">
        <ele>25.61</ele>
        <time>2015-09-06T07:05:17Z</time>
      </trkpt>
      <trkpt lat="47.7987" lon="-3.39042">
        <ele>24.65</ele>
        <time>2015-09-06T07:05:18Z</time>
      </trkpt>
      <trkpt lat="47.79873" lon="-3.39044">
        <ele>24.65</ele>
        <time>2015-09-06T07:05:19Z</time>
      </trkpt>
      <trkpt lat="47.79875" lon="-3.39046">
        <ele>24.65</ele>
        <time>2015-09-06T07:05:20Z</time>
      </trkpt>
      <trkpt lat="47.79878" lon="-3.39048">
        <ele>24.65</ele>
        <time>2015-09-06T07:05:21Z</time>
      </trkpt>
      <trkpt lat="47.79878" lon="-3.39051">
        <ele>24.65</ele>
        <time>2015-09-06T07:05:22Z</time>
      </trkpt>
      <trkpt lat="47.79879" lon="-3.39054">
        <ele>24.65</ele>
        <time>2015-09-06T07:05:23Z</time>
      </trkpt>
      <trkpt lat="47.79879" lon="-3.39056">
        <ele>24.65</ele>
        <time>2015-09-06T07:05:24Z</time>
      </trkpt>
      <trkpt lat="47.79879" lon="-3.39057">
        <ele>26.09</ele>
        <time>2015-09-06T07:05:25Z</time>
      </trkpt>
      <trkpt lat="47.79878" lon="-3.39059">
        <ele>26.09</ele>
        <time>2015-09-06T07:05:26Z</time>
      </trkpt>
      <trkpt lat="47.79879" lon="-3.3906">
        <ele>26.57</ele>
        <time>2015-09-06T07:05:27Z</time>
      </trkpt>
      <trkpt lat="47.79879" lon="-3.39062">
        <ele>26.57</ele>
        <time>2015-09-06T07:05:28Z</time>
      </trkpt>
      <trkpt lat="47.7988" lon="-3.39065">
        <ele>27.53</ele>
        <time>2015-09-06T07:05:29Z</time>
      </trkpt>
      <trkpt lat="47.79879" lon="-3.39067">
        <ele>27.53</ele>
        <time>2015-09-06T07:05:30Z</time>
      </trkpt>
      <trkpt lat="47.79878" lon="-3.39069">
        <ele>28.02</ele>
        <time>2015-09-06T07:05:31Z</time>
      </trkpt>
      <trkpt lat="47.79877" lon="-3.39071">
        <ele>28.5</ele>
        <time>2015-09-06T07:05:32Z</time>
      </trkpt>
      <trkpt lat="47.79876" lon="-3.39073">
        <ele>28.5</ele>
        <time>2015-09-06T07:05:33Z</time>
      </trkpt>
      <trkpt lat="47.79875" lon="-3.39075">
        <ele>29.46</ele>
        <time>2015-09-06T07:05:34Z</time>
      </trkpt>
      <trkpt lat="47.79874" lon="-3.39076">
        <ele>29.46</ele>
        <time>2015-09-06T07:05:35Z</time>
      </trkpt>
      <trkpt lat="47.79873" lon="-3.39077">
        <ele>29.94</ele>
        <time>2015-09-06T07:05:36Z</time>
      </trkpt>
      <trkpt lat="47.79871" lon="-3.39078">
        <ele>29.94</ele>
        <time>2015-09-06T07:05:37Z</time>
      </trkpt>
      <trkpt lat="47.7987" lon="-3.39078">
        <ele>30.9</ele>
        <time>2015-09-06T07:05:38Z</time>
      </trkpt>
      <trkpt lat="47.79869" lon="-3.39078">
        <ele>30.9</ele>
        <time>2015-09-06T07:05:39Z</time>
      </trkpt>
      <trkpt lat="47.79867" lon="-3.39078">
        <ele>31.38</ele>
        <time>2015-09-06T07:05:40Z</time>
      </trkpt>
      <trkpt lat="47.79866" lon="-3.39078">
        <ele>31.38</ele>
        <time>2015-09-06T07:05:41Z</time>
      </trkpt>
      <trkpt lat="47.79864" lon="-3.39078">
        <ele>31.86</ele>
        <time>2015-09-06T07:05:42Z</time>
      </trkpt>
      <trkpt lat="47.79862" lon="-3.39079">
        <ele>31.86</ele>
        <time>2015-09-06T07:05:43Z</time>
      </trkpt>
      <trkpt lat="47.79861" lon="-3.39079">
        <ele>32.34</ele>
        <time>2015-09-06T07:05:44Z</time>
      </trkpt>
      <trkpt lat="47.7986" lon="-3.39078">
        <ele>32.34</ele>
        <time>2015-09-06T07:05:45Z</time>
      </trkpt>
      <trkpt lat="47.79859" lon="-3.39077">
        <ele>32.82</ele>
        <time>2015-09-06T07:05:46Z</time>
      </trkpt>
      <trkpt lat="47.79858" lon="-3.39075">
        <ele>32.34</ele>
        <time>2015-09-06T07:05:47Z</time>
      </trkpt>
      <trkpt lat="47.79857" lon="-3.39074">
        <ele>32.82</ele>
        <time>2015-09-06T07:05:48Z</time>
      </trkpt>
      <trkpt lat="47.79855" lon="-3.39073">
        <ele>32.82</ele>
        <time>2015-09-06T07:05:49Z</time>
      </trkpt>
      <trkpt lat="47.79854" lon="-3.39072">
        <ele>32.82</ele>
        <time>2015-09-06T07:05:50Z</time>
      </trkpt>
      <trkpt lat="47.79852" lon="-3.39072">
        <ele>32.82</ele>
        <time>2015-09-06T07:05:51Z</time>
      </trkpt>
      <trkpt lat="47.7985" lon="-3.39072">
        <ele>32.82</ele>
        <time>2015-09-06T07:05:52Z</time>
      </trkpt>
      <trkpt lat="47.79849" lon="-3.39072">
        <ele>33.3</ele>
        <time>2015-09-06T07:05:53Z</time>
      </trkpt>
      <trkpt lat="47.79847" lon="-3.39071">
        <ele>33.3</ele>
        <time>2015-09-06T07:05:54Z</time>
      </trkpt>
      <trkpt lat="47.79846" lon="-3.3907">
        <ele>33.78</ele>
        <time>2015-09-06T07:05:55Z</time>
      </trkpt>
      <trkpt lat="47.79844" lon="-3.39071">
        <ele>33.78</ele>
        <time>2015-09-06T07:05:56Z</time>
      </trkpt>
      <trkpt lat="47.79843" lon="-3.39071">
        <ele>33.78</ele>
        <time>2015-09-06T07:05:57Z</time>
      </trkpt>
      <trkpt lat="47.79842" lon="-3.39072">
        <ele>33.78</ele>
        <time>2015-09-06T07:05:58Z</time>
      </trkpt>
      <trkpt lat="47.79842" lon="-3.39073">
        <ele>34.26</ele>
        <time>2015-09-06T07:05:59Z</time>
      </trkpt>
      <trkpt lat="47.79841" lon="-3.39075">
        <ele>34.74</ele>
        <time>2015-09-06T07:06:00Z</time>
      </trkpt>
      <trkpt lat="47.79841" lon="-3.39077">
        <ele>34.74</ele>
        <time>2015-09-06T07:06:01Z</time>
      </trkpt>
      <trkpt lat="47.7984" lon="-3.39079">
        <ele>35.23</ele>
        <time>2015-09-06T07:06:02Z</time>
      </trkpt>
      <trkpt lat="47.79839" lon="-3.3908">
        <ele>35.71</ele>
        <time>2015-09-06T07:06:03Z</time>
      </trkpt>
      <trkpt lat="47.79838" lon="-3.39081">
        <ele>35.71</ele>
        <time>2015-09-06T07:06:04Z</time>
      </trkpt>
      <trkpt lat="47.79837" lon="-3.39082">
        <ele>36.19</ele>
        <time>2015-09-06T07:06:05Z</time>
      </trkpt>
      <trkpt lat="47.79836" lon="-3.39083">
        <ele>36.19</ele>
        <time>2015-09-06T07:06:06Z</time>
      </trkpt>
      <trkpt lat="47.79834" lon="-3.39084">
        <ele>36.19</ele>
        <time>2015-09-06T07:06:07Z</time>
      </trkpt>
      <trkpt lat="47.79833" lon="-3.39085">
        <ele>37.15</ele>
        <time>2015-09-06T07:06:08Z</time>
      </trkpt>
      <trkpt lat="47.79831" lon="-3.39084">
        <ele>37.15</ele>
        <time>2015-09-06T07:06:09Z</time>
      </trkpt>
      <trkpt lat="47.7983" lon="-3.39083">
        <ele>37.15</ele>
        <time>2015-09-06T07:06:10Z</time>
      </trkpt>
      <trkpt lat="47.79828" lon="-3.39083">
        <ele>37.15</ele>
        <time>2015-09-06T07:06:11Z</time>
      </trkpt>
      <trkpt lat="47.79826" lon="-3.39085">
        <ele>37.15</ele>
        <time>2015-09-06T07:06:12Z</time>
      </trkpt>
      <trkpt lat="47.79824" lon="-3.39086">
        <ele>37.15</ele>
        <time>2015-09-06T07:06:13Z</time>
      </trkpt>
      <trkpt lat="47.79823" lon="-3.39087">
        <ele>38.11</ele>
        <time>2015-09-06T07:06:14Z</time>
      </trkpt>
      <trkpt lat="47.79821" lon="-3.39088">
        <ele>38.11</ele>
        <time>2015-09-06T07:06:15Z</time>
      </trkpt>
      <trkpt lat="47.79819" lon="-3.39088">
        <ele>38.59</ele>
        <time>2015-09-06T07:06:16Z</time>
      </trkpt>
      <trkpt lat="47.79816" lon="-3.39087">
        <ele>38.59</ele>
        <time>2015-09-06T07:06:17Z</time>
      </trkpt>
      <trkpt lat="47.79815" lon="-3.39085">
        <ele>38.59</ele>
        <time>2015-09-06T07:06:18Z</time>
      </trkpt>
      <trkpt lat="47.79812" lon="-3.39083">
        <ele>38.59</ele>
        <time>2015-09-06T07:06:19Z</time>
      </trkpt>
      <trkpt lat="47.7981" lon="-3.39084">
        <ele>38.59</ele>
        <time>2015-09-06T07:06:20Z</time>
      </trkpt>
      <trkpt lat="47.79807" lon="-3.39085">
        <ele>38.59</ele>
        <time>2015-09-06T07:06:21Z</time>
      </trkpt>
      <trkpt lat="47.79805" lon="-3.39084">
        <ele>38.59</ele>
        <time>2015-09-06T07:06:22Z</time>
      </trkpt>
      <trkpt lat="47.79803" lon="-3.39084">
        <ele>38.11</ele>
        <time>2015-09-06T07:06:23Z</time>
      </trkpt>
      <trkpt lat="47.79801" lon="-3.39085">
        <ele>38.11</ele>
        <time>2015-09-06T07:06:24Z</time>
      </trkpt>
      <trkpt lat="47.79799" lon="-3.39087">
        <ele>38.11</ele>
        <time>2015-09-06T07:06:25Z</time>
      </trkpt>
      <trkpt lat="47.79798" lon="-3.39089">
        <ele>38.11</ele>
        <time>2015-09-06T07:06:26Z</time>
      </trkpt>
      <trkpt lat="47.79797" lon="-3.39092">
        <ele>38.11</ele>
        <time>2015-09-06T07:06:27Z</time>
      </trkpt>
      <trkpt lat="47.79797" lon="-3.39094">
        <ele>38.11</ele>
        <time>2015-09-06T07:06:28Z</time>
      </trkpt>
      <trkpt lat="47.79798" lon="-3.39096">
        <ele>38.59</ele>
        <time>2015-09-06T07:06:29Z</time>
      </trkpt>
      <trkpt lat="47.79798" lon="-3.39098">
        <ele>38.59</ele>
        <time>2015-09-06T07:06:30Z</time>
      </trkpt>
      <trkpt lat="47.79799" lon="-3.391">
        <ele>39.07</ele>
        <time>2015-09-06T07:06:31Z</time>
      </trkpt>
      <trkpt lat="47.798" lon="-3.39102">
        <ele>39.07</ele>
        <time>2015-09-06T07:06:32Z</time>
      </trkpt>
      <trkpt lat="47.79802" lon="-3.39104">
        <ele>39.55</ele>
        <time>2015-09-06T07:06:33Z</time>
      </trkpt>
      <trkpt lat="47.79803" lon="-3.39105">
        <ele>39.55</ele>
        <time>2015-09-06T07:06:34Z</time>
      </trkpt>
      <trkpt lat="47.79805" lon="-3.39106">
        <ele>39.55</ele>
        <time>2015-09-06T07:06:35Z</time>
      </trkpt>
      <trkpt lat="47.79807" lon="-3.39107">
        <ele>39.55</ele>
        <time>2015-09-06T07:06:36Z</time>
      </trkpt>
      <trkpt lat="47.79809" lon="-3.39108">
        <ele>39.55</ele>
        <time>2015-09-06T07:06:37Z</time>
      </trkpt>
      <trkpt lat="47.79812" lon="-3.39109">
        <ele>39.55</ele>
        <time>2015-09-06T07:06:38Z</time>
      </trkpt>
      <trkpt lat="47.79814" lon="-3.3911">
        <ele>39.55</ele>
        <time>2015-09-06T07:06:39Z</time>
      </trkpt>
      <trkpt lat="47.79817" lon="-3.39112">
        <ele>39.55</ele>
        <time>2015-09-06T07:06:40Z</time>
      </trkpt>
      <trkpt lat="47.7982" lon="-3.39113">
        <ele>39.55</ele>
        <time>2015-09-06T07:06:41Z</time>
      </trkpt>
      <trkpt lat="47.79823" lon="-3.39113">
        <ele>38.59</ele>
        <time>2015-09-06T07:06:42Z</time>
      </trkpt>
      <trkpt lat="47.79826" lon="-3.39115">
        <ele>38.59</ele>
        <time>2015-09-06T07:06:43Z</time>
      </trkpt>
      <trkpt lat="47.79828" lon="-3.39119">
        <ele>38.11</ele>
        <time>2015-09-06T07:06:44Z</time>
      </trkpt>
      <trkpt lat="47.79829" lon="-3.39123">
        <ele>38.11</ele>
        <time>2015-09-06T07:06:45Z</time>
      </trkpt>
      <trkpt lat="47.7983" lon="-3.39127">
        <ele>38.11</ele>
        <time>2015-09-06T07:06:46Z</time>
      </trkpt>
      <trkpt lat="47.79831" lon="-3.3913">
        <ele>38.11</ele>
        <time>2015-09-06T07:06:47Z</time>
      </trkpt>
      <trkpt lat="47.79832" lon="-3.39133">
        <ele>38.11</ele>
        <time>2015-09-06T07:06:48Z</time>
      </trkpt>
      <trkpt lat="47.79834" lon="-3.39135">
        <ele>38.11</ele>
        <time>2015-09-06T07:06:49Z</time>
      </trkpt>
      <trkpt lat="47.79836" lon="-3.39138">
        <ele>38.11</ele>
        <time>2015-09-06T07:06:50Z</time>
      </trkpt>
      <trkpt lat="47.79839" lon="-3.39138">
        <ele>38.11</ele>
        <time>2015-09-06T07:06:51Z</time>
      </trkpt>
      <trkpt lat="47.79842" lon="-3.39139">
        <ele>37.63</ele>
        <time>2015-09-06T07:06:52Z</time>
      </trkpt>
      <trkpt lat="47.79844" lon="-3.39141">
        <ele>37.15</ele>
        <time>2015-09-06T07:06:53Z</time>
      </trkpt>
      <trkpt lat="47.79846" lon="-3.39143">
        <ele>36.67</ele>
        <time>2015-09-06T07:06:54Z</time>
      </trkpt>
      <trkpt lat="47.79847" lon="-3.39146">
        <ele>35.71</ele>
        <time>2015-09-06T07:06:55Z</time>
      </trkpt>
      <trkpt lat="47.79848" lon="-3.3915">
        <ele>35.23</ele>
        <time>2015-09-06T07:06:56Z</time>
      </trkpt>
      <trkpt lat="47.79848" lon="-3.39155">
        <ele>35.23</ele>
        <time>2015-09-06T07:06:57Z</time>
      </trkpt>
      <trkpt lat="47.79848" lon="-3.3916">
        <ele>34.74</ele>
        <time>2015-09-06T07:06:58Z</time>
      </trkpt>
      <trkpt lat="47.79848" lon="-3.39165">
        <ele>34.74</ele>
        <time>2015-09-06T07:06:59Z</time>
      </trkpt>
      <trkpt lat="47.79847" lon="-3.3917">
        <ele>34.26</ele>
        <time>2015-09-06T07:07:00Z</time>
      </trkpt>
      <trkpt lat="47.79846" lon="-3.39175">
        <ele>34.26</ele>
        <time>2015-09-06T07:07:01Z</time>
      </trkpt>
      <trkpt lat="47.79845" lon="-3.3918">
        <ele>33.3</ele>
        <time>2015-09-06T07:07:02Z</time>
      </trkpt>
      <trkpt lat="47.79843" lon="-3.39185">
        <ele>33.3</ele>
        <time>2015-09-06T07:07:03Z</time>
      </trkpt>
      <trkpt lat="47.79842" lon="-3.3919">
        <ele>32.82</ele>
        <time>2015-09-06T07:07:04Z</time>
      </trkpt>
      <trkpt lat="47.79842" lon="-3.39195">
        <ele>32.82</ele>
        <time>2015-09-06T07:07:05Z</time>
      </trkpt>
      <trkpt lat="47.7984" lon="-3.392">
        <ele>32.82</ele>
        <time>2015-09-06T07:07:06Z</time>
      </trkpt>
      <trkpt lat="47.79839" lon="-3.39206">
        <ele>32.82</ele>
        <time>2015-09-06T07:07:07Z</time>
      </trkpt>
      <trkpt lat="47.79837" lon="-3.3921">
        <ele>32.82</ele>
        <time>2015-09-06T07:07:08Z</time>
      </trkpt>
      <trkpt lat="47.79836" lon="-3.39213">
        <ele>32.82</ele>
        <time>2015-09-06T07:07:09Z</time>
      </trkpt>
      <trkpt lat="47.79835" lon="-3.39212">
        <ele>34.74</ele>
        <time>2015-09-06T07:07:10Z</time>
      </trkpt>
      <trkpt lat="47.79836" lon="-3.39219">
        <ele>34.74</ele>
        <time>2015-09-06T07:07:14Z</time>
      </trkpt>
      <trkpt lat="47.79836" lon="-3.39219">
        <ele>34.74</ele>
        <time>2015-09-06T07:07:15Z</time>
      </trkpt>
      <trkpt lat="47.79835" lon="-3.39219">
        <ele>34.74</ele>
        <time>2015-09-06T07:07:16Z</time>
      </trkpt>
      <trkpt lat="47.79835" lon="-3.39219">
        <ele>34.74</ele>
        <time>2015-09-06T07:07:17Z</time>
      </trkpt>
      <trkpt lat="47.79834" lon="-3.39218">
        <ele>34.74</ele>
        <time>2015-09-06T07:07:18Z</time>
      </trkpt>
      <trkpt lat="47.79834" lon="-3.39218">
        <ele>35.71</ele>
        <time>2015-09-06T07:07:19Z</time>
      </trkpt>
      <trkpt lat="47.79833" lon="-3.39217">
        <ele>35.71</ele>
        <time>2015-09-06T07:07:20Z</time>
      </trkpt>
      <trkpt lat="47.79833" lon="-3.39217">
        <ele>36.19</ele>
        <time>2015-09-06T07:07:21Z</time>
      </trkpt>
      <trkpt lat="47.79832" lon="-3.39217">
        <ele>36.19</ele>
        <time>2015-09-06T07:07:22Z</time>
      </trkpt>
      <trkpt lat="47.79832" lon="-3.39217">
        <ele>37.15</ele>
        <time>2015-09-06T07:07:23Z</time>
      </trkpt>
      <trkpt lat="47.79832" lon="-3.39217">
        <ele>37.15</ele>
        <time>2015-09-06T07:07:24Z</time>
      </trkpt>
      <trkpt lat="47.79831" lon="-3.39218">
        <ele>37.15</ele>
        <time>2015-09-06T07:07:25Z</time>
      </trkpt>
      <trkpt lat="47.79831" lon="-3.39217">
        <ele>37.63</ele>
        <time>2015-09-06T07:07:26Z</time>
      </trkpt>
      <trkpt lat="47.79831" lon="-3.39217">
        <ele>37.63</ele>
        <time>2015-09-06T07:07:27Z</time>
      </trkpt>
      <trkpt lat="47.79831" lon="-3.39218">
        <ele>38.11</ele>
        <time>2015-09-06T07:07:28Z</time>
      </trkpt>
      <trkpt lat="47.7983" lon="-3.39218">
        <ele>38.11</ele>
        <time>2015-09-06T07:07:29Z</time>
      </trkpt>
      <trkpt lat="47.7983" lon="-3.39218">
        <ele>38.59</ele>
        <time>2015-09-06T07:07:30Z</time>
      </trkpt>
      <trkpt lat="47.79829" lon="-3.39218">
        <ele>38.59</ele>
        <time>2015-09-06T07:07:31Z</time>
      </trkpt>
      <trkpt lat="47.79829" lon="-3.39218">
        <ele>38.59</ele>
        <time>2015-09-06T07:07:33Z</time>
      </trkpt>
      <trkpt lat="47.79829" lon="-3.39218">
        <ele>38.59</ele>
        <time>2015-09-06T07:07:34Z</time>
      </trkpt>
      <trkpt lat="47.79828" lon="-3.39215">
        <ele>38.59</ele>
        <time>2015-09-06T07:07:40Z</time>
      </trkpt>
      <trkpt lat="47.79827" lon="-3.39214">
        <ele>39.55</ele>
        <time>2015-09-06T07:07:41Z</time>
      </trkpt>
      <trkpt lat="47.79826" lon="-3.39213">
        <ele>39.55</ele>
        <time>2015-09-06T07:07:42Z</time>
      </trkpt>
      <trkpt lat="47.79825" lon="-3.39213">
        <ele>39.55</ele>
        <time>2015-09-06T07:07:43Z</time>
      </trkpt>
      <trkpt lat="47.79824" lon="-3.39212">
        <ele>39.55</ele>
        <time>2015-09-06T07:07:44Z</time>
      </trkpt>
      <trkpt lat="47.79822" lon="-3.39212">
        <ele>40.51</ele>
        <time>2015-09-06T07:07:45Z</time>
      </trkpt>
      <trkpt lat="47.79821" lon="-3.39212">
        <ele>40.51</ele>
        <time>2015-09-06T07:07:46Z</time>
      </trkpt>
      <trkpt lat="47.7982" lon="-3.39212">
        <ele>40.51</ele>
        <time>2015-09-06T07:07:47Z</time>
      </trkpt>
      <trkpt lat="47.79819" lon="-3.39213">
        <ele>40.51</ele>
        <time>2015-09-06T07:07:48Z</time>
      </trkpt>
      <trkpt lat="47.79817" lon="-3.39214">
        <ele>40.99</ele>
        <time>2015-09-06T07:07:49Z</time>
      </trkpt>
      <trkpt lat="47.79815" lon="-3.39215">
        <ele>40.99</ele>
        <time>2015-09-06T07:07:50Z</time>
      </trkpt>
      <trkpt lat="47.79813" lon="-3.39216">
        <ele>40.99</ele>
        <time>2015-09-06T07:07:51Z</time>
      </trkpt>
      <trkpt lat="47.79811" lon="-3.39217">
        <ele>41.47</ele>
        <time>2015-09-06T07:07:52Z</time>
      </trkpt>
      <trkpt lat="47.79809" lon="-3.39218">
        <ele>41.47</ele>
        <time>2015-09-06T07:07:53Z</time>
      </trkpt>
      <trkpt lat="47.79808" lon="-3.3922">
        <ele>41.47</ele>
        <time>2015-09-06T07:07:54Z</time>
      </trkpt>
      <trkpt lat="47.79805" lon="-3.39222">
        <ele>41.95</ele>
        <time>2015-09-06T07:07:55Z</time>
      </trkpt>
      <trkpt lat="47.79803" lon="-3.39224">
        <ele>41.95</ele>
        <time>2015-09-06T07:07:56Z</time>
      </trkpt>
      <trkpt lat="47.79801" lon="-3.39226">
        <ele>41.95</ele>
        <time>2015-09-06T07:07:57Z</time>
      </trkpt>
      <trkpt lat="47.79798" lon="-3.39228">
        <ele>41.95</ele>
        <time>2015-09-06T07:07:58Z</time>
      </trkpt>
      <trkpt lat="47.79795" lon="-3.39229">
        <ele>41.95</ele>
        <time>2015-09-06T07:07:59Z</time>
      </trkpt>
      <trkpt lat="47.79792" lon="-3.3923">
        <ele>41.95</ele>
        <time>2015-09-06T07:08:00Z</time>
      </trkpt>
      <trkpt lat="47.7979" lon="-3.39231">
        <ele>41.95</ele>
        <time>2015-09-06T07:08:01Z</time>
      </trkpt>
      <trkpt lat="47.79787" lon="-3.39232">
        <ele>42.44</ele>
        <time>2015-09-06T07:08:02Z</time>
      </trkpt>
      <trkpt lat="47.79785" lon="-3.39233">
        <ele>41.95</ele>
        <time>2015-09-06T07:08:03Z</time>
      </trkpt>
      <trkpt lat="47.79783" lon="-3.39233">
        <ele>41.95</ele>
        <time>2015-09-06T07:08:04Z</time>
      </trkpt>
      <trkpt lat="47.7978" lon="-3.39232">
        <ele>41.95</ele>
        <time>2015-09-06T07:08:05Z</time>
      </trkpt>
      <trkpt lat="47.79778" lon="-3.3923">
        <ele>41.95</ele>
        <time>2015-09-06T07:08:06Z</time>
      </trkpt>
      <trkpt lat="47.79775" lon="-3.39227">
        <ele>42.44</ele>
        <time>2015-09-06T07:08:07Z</time>
      </trkpt>
      <trkpt lat="47.79774" lon="-3.39225">
        <ele>42.44</ele>
        <time>2015-09-06T07:08:08Z</time>
      </trkpt>
      <trkpt lat="47.79773" lon="-3.39222">
        <ele>42.44</ele>
        <time>2015-09-06T07:08:09Z</time>
      </trkpt>
      <trkpt lat="47.79771" lon="-3.3922">
        <ele>42.44</ele>
        <time>2015-09-06T07:08:10Z</time>
      </trkpt>
      <trkpt lat="47.79769" lon="-3.39219">
        <ele>43.4</ele>
        <time>2015-09-06T07:08:11Z</time>
      </trkpt>
      <trkpt lat="47.79766" lon="-3.3922">
        <ele>43.4</ele>
        <time>2015-09-06T07:08:12Z</time>
      </trkpt>
      <trkpt lat="47.79764" lon="-3.39221">
        <ele>43.4</ele>
        <time>2015-09-06T07:08:13Z</time>
      </trkpt>
      <trkpt lat="47.79762" lon="-3.39223">
        <ele>43.4</ele>
        <time>2015-09-06T07:08:14Z</time>
      </trkpt>
      <trkpt lat="47.79761" lon="-3.39224">
        <ele>42.92</ele>
        <time>2015-09-06T07:08:15Z</time>
      </trkpt>
      <trkpt lat="47.79761" lon="-3.39226">
        <ele>43.4</ele>
        <time>2015-09-06T07:08:16Z</time>
      </trkpt>
      <trkpt lat="47.7976" lon="-3.39229">
        <ele>43.4</ele>
        <time>2015-09-06T07:08:17Z</time>
      </trkpt>
      <trkpt lat="47.79759" lon="-3.39231">
        <ele>43.4</ele>
        <time>2015-09-06T07:08:18Z</time>
      </trkpt>
      <trkpt lat="47.79756" lon="-3.39231">
        <ele>43.4</ele>
        <time>2015-09-06T07:08:19Z</time>
      </trkpt>
      <trkpt lat="47.79754" lon="-3.39231">
        <ele>42.92</ele>
        <time>2015-09-06T07:08:20Z</time>
      </trkpt>
      <trkpt lat="47.79752" lon="-3.39231">
        <ele>42.92</ele>
        <time>2015-09-06T07:08:21Z</time>
      </trkpt>
      <trkpt lat="47.7975" lon="-3.39232">
        <ele>42.92</ele>
        <time>2015-09-06T07:08:22Z</time>
      </trkpt>
      <trkpt lat="47.79747" lon="-3.39233">
        <ele>42.92</ele>
        <time>2015-09-06T07:08:23Z</time>
      </trkpt>
      <trkpt lat="47.79745" lon="-3.39235">
        <ele>42.92</ele>
        <time>2015-09-06T07:08:24Z</time>
      </trkpt>
      <trkpt lat="47.79742" lon="-3.39237">
        <ele>42.92</ele>
        <time>2015-09-06T07:08:25Z</time>
      </trkpt>
      <trkpt lat="47.79739" lon="-3.39238">
        <ele>42.92</ele>
        <time>2015-09-06T07:08:26Z</time>
      </trkpt>
      <trkpt lat="47.79736" lon="-3.3924">
        <ele>42.92</ele>
        <time>2015-09-06T07:08:27Z</time>
      </trkpt>
      <trkpt lat="47.79734" lon="-3.39241">
        <ele>42.92</ele>
        <time>2015-09-06T07:08:28Z</time>
      </trkpt>
      <trkpt lat="47.79732" lon="-3.39243">
        <ele>42.92</ele>
        <time>2015-09-06T07:08:29Z</time>
      </trkpt>
      <trkpt lat="47.7973" lon="-3.39245">
        <ele>42.92</ele>
        <time>2015-09-06T07:08:30Z</time>
      </trkpt>
      <trkpt lat="47.79729" lon="-3.39248">
        <ele>42.92</ele>
        <time>2015-09-06T07:08:31Z</time>
      </trkpt>
      <trkpt lat="47.79729" lon="-3.3925">
        <ele>42.92</ele>
        <time>2015-09-06T07:08:32Z</time>
      </trkpt>
      <trkpt lat="47.79729" lon="-3.39253">
        <ele>42.92</ele>
        <time>2015-09-06T07:08:33Z</time>
      </trkpt>
      <trkpt lat="47.79729" lon="-3.39255">
        <ele>42.92</ele>
        <time>2015-09-06T07:08:34Z</time>
      </trkpt>
      <trkpt lat="47.79728" lon="-3.39258">
        <ele>42.92</ele>
        <time>2015-09-06T07:08:35Z</time>
      </trkpt>
      <trkpt lat="47.79727" lon="-3.39261">
        <ele>41.47</ele>
        <time>2015-09-06T07:08:36Z</time>
      </trkpt>
      <trkpt lat="47.79726" lon="-3.39264">
        <ele>41.47</ele>
        <time>2015-09-06T07:08:37Z</time>
      </trkpt>
      <trkpt lat="47.79727" lon="-3.39266">
        <ele>41.47</ele>
        <time>2015-09-06T07:08:38Z</time>
      </trkpt>
      <trkpt lat="47.79727" lon="-3.39268">
        <ele>41.47</ele>
        <time>2015-09-06T07:08:39Z</time>
      </trkpt>
      <trkpt lat="47.79729" lon="-3.39269">
        <ele>41.47</ele>
        <time>2015-09-06T07:08:40Z</time>
      </trkpt>
      <trkpt lat="47.7973" lon="-3.39271">
        <ele>41.47</ele>
        <time>2015-09-06T07:08:41Z</time>
      </trkpt>
      <trkpt lat="47.79731" lon="-3.39274">
        <ele>40.99</ele>
        <time>2015-09-06T07:08:42Z</time>
      </trkpt>
      <trkpt lat="47.79733" lon="-3.39278">
        <ele>40.99</ele>
        <time>2015-09-06T07:08:43Z</time>
      </trkpt>
      <trkpt lat="47.79734" lon="-3.39281">
        <ele>40.51</ele>
        <time>2015-09-06T07:08:44Z</time>
      </trkpt>
      <trkpt lat="47.79737" lon="-3.39284">
        <ele>40.03</ele>
        <time>2015-09-06T07:08:45Z</time>
      </trkpt>
      <trkpt lat="47.79738" lon="-3.39286">
        <ele>39.55</ele>
        <time>2015-09-06T07:08:46Z</time>
      </trkpt>
      <trkpt lat="47.7974" lon="-3.39288">
        <ele>39.55</ele>
        <time>2015-09-06T07:08:47Z</time>
      </trkpt>
      <trkpt lat="47.79741" lon="-3.3929">
        <ele>38.59</ele>
        <time>2015-09-06T07:08:48Z</time>
      </trkpt>
      <trkpt lat="47.79743" lon="-3.39291">
        <ele>38.11</ele>
        <time>2015-09-06T07:08:49Z</time>
      </trkpt>
      <trkpt lat="47.79745" lon="-3.39292">
        <ele>37.63</ele>
        <time>2015-09-06T07:08:50Z</time>
      </trkpt>
      <trkpt lat="47.79747" lon="-3.39292">
        <ele>37.63</ele>
        <time>2015-09-06T07:08:51Z</time>
      </trkpt>
      <trkpt lat="47.79749" lon="-3.39292">
        <ele>37.63</ele>
        <time>2015-09-06T07:08:52Z</time>
      </trkpt>
      <trkpt lat="47.79752" lon="-3.39293">
        <ele>37.15</ele>
        <time>2015-09-06T07:08:53Z</time>
      </trkpt>
      <trkpt lat="47.79755" lon="-3.39294">
        <ele>36.19</ele>
        <time>2015-09-06T07:08:54Z</time>
      </trkpt>
      <trkpt lat="47.79758" lon="-3.39295">
        <ele>35.71</ele>
        <time>2015-09-06T07:08:55Z</time>
      </trkpt>
      <trkpt lat="47.79761" lon="-3.39296">
        <ele>34.74</ele>
        <time>2015-09-06T07:08:56Z</time>
      </trkpt>
      <trkpt lat="47.79764" lon="-3.39298">
        <ele>33.78</ele>
        <time>2015-09-06T07:08:57Z</time>
      </trkpt>
      <trkpt lat="47.79768" lon="-3.39302">
        <ele>32.82</ele>
        <time>2015-09-06T07:08:58Z</time>
      </trkpt>
      <trkpt lat="47.79771" lon="-3.39303">
        <ele>32.82</ele>
        <time>2015-09-06T07:08:59Z</time>
      </trkpt>
      <trkpt lat="47.79774" lon="-3.39303">
        <ele>32.82</ele>
        <time>2015-09-06T07:09:00Z</time>
      </trkpt>
      <trkpt lat="47.79778" lon="-3.39301">
        <ele>32.34</ele>
        <time>2015-09-06T07:09:01Z</time>
      </trkpt>
      <trkpt lat="47.7978" lon="-3.393">
        <ele>32.82</ele>
        <time>2015-09-06T07:09:02Z</time>
      </trkpt>
      <trkpt lat="47.79783" lon="-3.393">
        <ele>32.34</ele>
        <time>2015-09-06T07:09:03Z</time>
      </trkpt>
      <trkpt lat="47.79787" lon="-3.393">
        <ele>32.34</ele>
        <time>2015-09-06T07:09:04Z</time>
      </trkpt>
      <trkpt lat="47.79791" lon="-3.39299">
        <ele>32.34</ele>
        <time>2015-09-06T07:09:05Z</time>
      </trkpt>
      <trkpt lat="47.79794" lon="-3.39297">
        <ele>32.34</ele>
        <time>2015-09-06T07:09:06Z</time>
      </trkpt>
      <trkpt lat="47.79796" lon="-3.39294">
        <ele>32.34</ele>
        <time>2015-09-06T07:09:07Z</time>
      </trkpt>
      <trkpt lat="47.79798" lon="-3.39291">
        <ele>32.34</ele>
        <time>2015-09-06T07:09:08Z</time>
      </trkpt>
      <trkpt lat="47.79799" lon="-3.39288">
        <ele>32.34</ele>
        <time>2015-09-06T07:09:09Z</time>
      </trkpt>
      <trkpt lat="47.79801" lon="-3.39285">
        <ele>32.34</ele>
        <time>2015-09-06T07:09:10Z</time>
      </trkpt>
      <trkpt lat="47.79802" lon="-3.39283">
        <ele>32.34</ele>
        <time>2015-09-06T07:09:11Z</time>
      </trkpt>
      <trkpt lat="47.79805" lon="-3.39282">
        <ele>32.82</ele>
        <time>2015-09-06T07:09:12Z</time>
      </trkpt>
      <trkpt lat="47.79808" lon="-3.39283">
        <ele>32.34</ele>
        <time>2015-09-06T07:09:13Z</time>
      </trkpt>
      <trkpt lat="47.79811" lon="-3.39283">
        <ele>31.38</ele>
        <time>2015-09-06T07:09:14Z</time>
      </trkpt>
      <trkpt lat="47.79814" lon="-3.39282">
        <ele>30.9</ele>
        <time>2015-09-06T07:09:15Z</time>
      </trkpt>
      <trkpt lat="47.79818" lon="-3.39278">
        <ele>30.42</ele>
        <time>2015-09-06T07:09:16Z</time>
      </trkpt>
      <trkpt lat="47.79821" lon="-3.39274">
        <ele>29.94</ele>
        <time>2015-09-06T07:09:17Z</time>
      </trkpt>
      <trkpt lat="47.79825" lon="-3.3927">
        <ele>29.94</ele>
        <time>2015-09-06T07:09:18Z</time>
      </trkpt>
      <trkpt lat="47.79829" lon="-3.39268">
        <ele>29.46</ele>
        <time>2015-09-06T07:09:19Z</time>
      </trkpt>
      <trkpt lat="47.79831" lon="-3.39265">
        <ele>28.5</ele>
        <time>2015-09-06T07:09:20Z</time>
      </trkpt>
      <trkpt lat="47.79832" lon="-3.39263">
        <ele>28.02</ele>
        <time>2015-09-06T07:09:21Z</time>
      </trkpt>
      <trkpt lat="47.79835" lon="-3.3926">
        <ele>27.05</ele>
        <time>2015-09-06T07:09:22Z</time>
      </trkpt>
      <trkpt lat="47.79839" lon="-3.39256">
        <ele>26.57</ele>
        <time>2015-09-06T07:09:23Z</time>
      </trkpt>
      <trkpt lat="47.79842" lon="-3.39251">
        <ele>26.57</ele>
        <time>2015-09-06T07:09:24Z</time>
      </trkpt>
      <trkpt lat="47.79845" lon="-3.39247">
        <ele>26.57</ele>
        <time>2015-09-06T07:09:25Z</time>
      </trkpt>
      <trkpt lat="47.79849" lon="-3.39242">
        <ele>26.09</ele>
        <time>2015-09-06T07:09:26Z</time>
      </trkpt>
      <trkpt lat="47.79853" lon="-3.39239">
        <ele>26.09</ele>
        <time>2015-09-06T07:09:27Z</time>
      </trkpt>
      <trkpt lat="47.79857" lon="-3.39234">
        <ele>26.09</ele>
        <time>2015-09-06T07:09:28Z</time>
      </trkpt>
      <trkpt lat="47.79859" lon="-3.39229">
        <ele>26.09</ele>
        <time>2015-09-06T07:09:29Z</time>
      </trkpt>
      <trkpt lat="47.7986" lon="-3.39222">
        <ele>25.61</ele>
        <time>2015-09-06T07:09:30Z</time>
      </trkpt>
      <trkpt lat="47.79861" lon="-3.39216">
        <ele>25.61</ele>
        <time>2015-09-06T07:09:31Z</time>
      </trkpt>
      <trkpt lat="47.79862" lon="-3.39211">
        <ele>25.13</ele>
        <time>2015-09-06T07:09:32Z</time>
      </trkpt>
      <trkpt lat="47.79863" lon="-3.39206">
        <ele>25.13</ele>
        <time>2015-09-06T07:09:33Z</time>
      </trkpt>
      <trkpt lat="47.79863" lon="-3.392">
        <ele>25.13</ele>
        <time>2015-09-06T07:09:34Z</time>
      </trkpt>
      <trkpt lat="47.79864" lon="-3.39194">
        <ele>25.13</ele>
        <time>2015-09-06T07:09:35Z</time>
      </trkpt>
      <trkpt lat="47.79865" lon="-3.39189">
        <ele>25.13</ele>
        <time>2015-09-06T07:09:36Z</time>
      </trkpt>
      <trkpt lat="47.79867" lon="-3.39183">
        <ele>25.13</ele>
        <time>2015-09-06T07:09:37Z</time>
      </trkpt>
      <trkpt lat="47.79869" lon="-3.39177">
        <ele>25.13</ele>
        <time>2015-09-06T07:09:38Z</time>
      </trkpt>
      <trkpt lat="47.79871" lon="-3.39171">
        <ele>25.13</ele>
        <time>2015-09-06T07:09:39Z</time>
      </trkpt>
      <trkpt lat="47.79874" lon="-3.39165">
        <ele>25.13</ele>
        <time>2015-09-06T07:09:40Z</time>
      </trkpt>
      <trkpt lat="47.79876" lon="-3.39161">
        <ele>25.13</ele>
        <time>2015-09-06T07:09:41Z</time>
      </trkpt>
      <trkpt lat="47.79879" lon="-3.39156">
        <ele>24.17</ele>
        <time>2015-09-06T07:09:42Z</time>
      </trkpt>
      <trkpt lat="47.79882" lon="-3.39151">
        <ele>23.21</ele>
        <time>2015-09-06T07:09:43Z</time>
      </trkpt>
      <trkpt lat="47.79885" lon="-3.39146">
        <ele>22.25</ele>
        <time>2015-09-06T07:09:44Z</time>
      </trkpt>
      <trkpt lat="47.79888" lon="-3.3914">
        <ele>21.29</ele>
        <time>2015-09-06T07:09:45Z</time>
      </trkpt>
      <trkpt lat="47.79892" lon="-3.39134">
        <ele>20.81</ele>
        <time>2015-09-06T07:09:46Z</time>
      </trkpt>
      <trkpt lat="47.79896" lon="-3.39128">
        <ele>19.84</ele>
        <time>2015-09-06T07:09:47Z</time>
      </trkpt>
      <trkpt lat="47.79899" lon="-3.39122">
        <ele>19.36</ele>
        <time>2015-09-06T07:09:48Z</time>
      </trkpt>
      <trkpt lat="47.79902" lon="-3.39117">
        <ele>19.36</ele>
        <time>2015-09-06T07:09:49Z</time>
      </trkpt>
      <trkpt lat="47.79905" lon="-3.39113">
        <ele>19.36</ele>
        <time>2015-09-06T07:09:50Z</time>
      </trkpt>
      <trkpt lat="47.79907" lon="-3.39111">
        <ele>19.36</ele>
        <time>2015-09-06T07:09:51Z</time>
      </trkpt>
      <trkpt lat="47.79909" lon="-3.3911">
        <ele>18.4</ele>
        <time>2015-09-06T07:09:52Z</time>
      </trkpt>
      <trkpt lat="47.79911" lon="-3.39111">
        <ele>17.44</ele>
        <time>2015-09-06T07:09:53Z</time>
      </trkpt>
      <trkpt lat="47.79912" lon="-3.39111">
        <ele>16.48</ele>
        <time>2015-09-06T07:09:54Z</time>
      </trkpt>
      <trkpt lat="47.79914" lon="-3.3911">
        <ele>15.52</ele>
        <time>2015-09-06T07:09:55Z</time>
      </trkpt>
      <trkpt lat="47.79916" lon="-3.39108">
        <ele>15.04</ele>
        <time>2015-09-06T07:09:56Z</time>
      </trkpt>
      <trkpt lat="47.79918" lon="-3.39104">
        <ele>15.04</ele>
        <time>2015-09-06T07:09:57Z</time>
      </trkpt>
      <trkpt lat="47.7992" lon="-3.39101">
        <ele>15.04</ele>
        <time>2015-09-06T07:09:58Z</time>
      </trkpt>
      <trkpt lat="47.79923" lon="-3.39098">
        <ele>14.08</ele>
        <time>2015-09-06T07:09:59Z</time>
      </trkpt>
      <trkpt lat="47.79926" lon="-3.39094">
        <ele>13.12</ele>
        <time>2015-09-06T07:10:00Z</time>
      </trkpt>
      <trkpt lat="47.7993" lon="-3.39091">
        <ele>13.12</ele>
        <time>2015-09-06T07:10:01Z</time>
      </trkpt>
      <trkpt lat="47.79933" lon="-3.39088">
        <ele>12.63</ele>
        <time>2015-09-06T07:10:02Z</time>
      </trkpt>
      <trkpt lat="47.79936" lon="-3.39086">
        <ele>12.63</ele>
        <time>2015-09-06T07:10:03Z</time>
      </trkpt>
      <trkpt lat="47.79939" lon="-3.39086">
        <ele>12.63</ele>
        <time>2015-09-06T07:10:04Z</time>
      </trkpt>
      <trkpt lat="47.79941" lon="-3.39085">
        <ele>11.19</ele>
        <time>2015-09-06T07:10:05Z</time>
      </trkpt>
      <trkpt lat="47.79943" lon="-3.39084">
        <ele>10.71</ele>
        <time>2015-09-06T07:10:06Z</time>
      </trkpt>
      <trkpt lat="47.79945" lon="-3.39083">
        <ele>10.71</ele>
        <time>2015-09-06T07:10:07Z</time>
      </trkpt>
      <trkpt lat="47.79947" lon="-3.39081">
        <ele>10.23</ele>
        <time>2015-09-06T07:10:08Z</time>
      </trkpt>
      <trkpt lat="47.79949" lon="-3.39078">
        <ele>10.23</ele>
        <time>2015-09-06T07:10:09Z</time>
      </trkpt>
      <trkpt lat="47.7995" lon="-3.39076">
        <ele>10.23</ele>
        <time>2015-09-06T07:10:10Z</time>
      </trkpt>
      <trkpt lat="47.79952" lon="-3.39073">
        <ele>10.23</ele>
        <time>2015-09-06T07:10:11Z</time>
      </trkpt>
      <trkpt lat="47.79953" lon="-3.3907">
        <ele>10.23</ele>
        <time>2015-09-06T07:10:12Z</time>
      </trkpt>
      <trkpt lat="47.79955" lon="-3.39067">
        <ele>10.23</ele>
        <time>2015-09-06T07:10:13Z</time>
      </trkpt>
      <trkpt lat="47.79956" lon="-3.39064">
        <ele>11.67</ele>
        <time>2015-09-06T07:10:14Z</time>
      </trkpt>
      <trkpt lat="47.79957" lon="-3.39063">
        <ele>11.67</ele>
        <time>2015-09-06T07:10:15Z</time>
      </trkpt>
      <trkpt lat="47.79958" lon="-3.39062">
        <ele>11.67</ele>
        <time>2015-09-06T07:10:16Z</time>
      </trkpt>
      <trkpt lat="47.7996" lon="-3.39061">
        <ele>11.67</ele>
        <time>2015-09-06T07:10:17Z</time>
      </trkpt>
      <trkpt lat="47.79963" lon="-3.39059">
        <ele>10.23</ele>
        <time>2015-09-06T07:10:18Z</time>
      </trkpt>
      <trkpt lat="47.79965" lon="-3.39056">
        <ele>10.23</ele>
        <time>2015-09-06T07:10:19Z</time>
      </trkpt>
      <trkpt lat="47.79968" lon="-3.39053">
        <ele>10.23</ele>
        <time>2015-09-06T07:10:20Z</time>
      </trkpt>
      <trkpt lat="47.79971" lon="-3.39049">
        <ele>10.23</ele>
        <time>2015-09-06T07:10:21Z</time>
      </trkpt>
      <trkpt lat="47.79973" lon="-3.39045">
        <ele>10.23</ele>
        <time>2015-09-06T07:10:22Z</time>
      </trkpt>
      <trkpt lat="47.79977" lon="-3.3904">
        <ele>10.23</ele>
        <time>2015-09-06T07:10:23Z</time>
      </trkpt>
      <trkpt lat="47.7998" lon="-3.39036">
        <ele>10.23</ele>
        <time>2015-09-06T07:10:24Z</time>
      </trkpt>
      <trkpt lat="47.79983" lon="-3.39031">
        <ele>10.23</ele>
        <time>2015-09-06T07:10:25Z</time>
      </trkpt>
      <trkpt lat="47.79986" lon="-3.39027">
        <ele>10.23</ele>
        <time>2015-09-06T07:10:26Z</time>
      </trkpt>
      <trkpt lat="47.7999" lon="-3.39023">
        <ele>9.75</ele>
        <time>2015-09-06T07:10:27Z</time>
      </trkpt>
      <trkpt lat="47.79992" lon="-3.39018">
        <ele>9.27</ele>
        <time>2015-09-06T07:10:28Z</time>
      </trkpt>
      <trkpt lat="47.79995" lon="-3.39013">
        <ele>9.27</ele>
        <time>2015-09-06T07:10:29Z</time>
      </trkpt>
      <trkpt lat="47.79997" lon="-3.39009">
        <ele>8.79</ele>
        <time>2015-09-06T07:10:30Z</time>
      </trkpt>
      <trkpt lat="47.79999" lon="-3.39005">
        <ele>8.79</ele>
        <time>2015-09-06T07:10:31Z</time>
      </trkpt>
      <trkpt lat="47.80001" lon="-3.39001">
        <ele>8.79</ele>
        <time>2015-09-06T07:10:32Z</time>
      </trkpt>
      <trkpt lat="47.80003" lon="-3.38998">
        <ele>8.79</ele>
        <time>2015-09-06T07:10:33Z</time>
      </trkpt>
      <trkpt lat="47.80005" lon="-3.38994">
        <ele>8.79</ele>
        <time>2015-09-06T07:10:34Z</time>
      </trkpt>
      <trkpt lat="47.80007" lon="-3.38991">
        <ele>8.79</ele>
        <time>2015-09-06T07:10:35Z</time>
      </trkpt>
      <trkpt lat="47.80009" lon="-3.38987">
        <ele>8.31</ele>
        <time>2015-09-06T07:10:36Z</time>
      </trkpt>
      <trkpt lat="47.80011" lon="-3.38982">
        <ele>8.31</ele>
        <time>2015-09-06T07:10:37Z</time>
      </trkpt>
      <trkpt lat="47.80014" lon="-3.38977">
        <ele>7.35</ele>
        <time>2015-09-06T07:10:38Z</time>
      </trkpt>
      <trkpt lat="47.80018" lon="-3.38971">
        <ele>6.87</ele>
        <time>2015-09-06T07:10:39Z</time>
      </trkpt>
      <trkpt lat="47.80021" lon="-3.38964">
        <ele>6.87</ele>
        <time>2015-09-06T07:10:40Z</time>
      </trkpt>
      <trkpt lat="47.80024" lon="-3.38958">
        <ele>6.39</ele>
        <time>2015-09-06T07:10:41Z</time>
      </trkpt>
      <trkpt lat="47.80028" lon="-3.38953">
        <ele>6.39</ele>
        <time>2015-09-06T07:10:42Z</time>
      </trkpt>
      <trkpt lat="47.80031" lon="-3.3895">
        <ele>5.91</ele>
        <time>2015-09-06T07:10:43Z</time>
      </trkpt>
      <trkpt lat="47.80034" lon="-3.3895">
        <ele>5.91</ele>
        <time>2015-09-06T07:10:44Z</time>
      </trkpt>
      <trkpt lat="47.80036" lon="-3.38952">
        <ele>5.42</ele>
        <time>2015-09-06T07:10:45Z</time>
      </trkpt>
      <trkpt lat="47.80039" lon="-3.38956">
        <ele>4.94</ele>
        <time>2015-09-06T07:10:46Z</time>
      </trkpt>
      <trkpt lat="47.80042" lon="-3.3896">
        <ele>4.46</ele>
        <time>2015-09-06T07:10:47Z</time>
      </trkpt>
      <trkpt lat="47.80046" lon="-3.38965">
        <ele>4.46</ele>
        <time>2015-09-06T07:10:48Z</time>
      </trkpt>
      <trkpt lat="47.8005" lon="-3.38969">
        <ele>4.46</ele>
        <time>2015-09-06T07:10:49Z</time>
      </trkpt>
      <trkpt lat="47.80055" lon="-3.38973">
        <ele>4.46</ele>
        <time>2015-09-06T07:10:50Z</time>
      </trkpt>
      <trkpt lat="47.80059" lon="-3.38976">
        <ele>4.46</ele>
        <time>2015-09-06T07:10:51Z</time>
      </trkpt>
      <trkpt lat="47.80063" lon="-3.38979">
        <ele>4.46</ele>
        <time>2015-09-06T07:10:52Z</time>
      </trkpt>
      <trkpt lat="47.80067" lon="-3.38981">
        <ele>4.46</ele>
        <time>2015-09-06T07:10:53Z</time>
      </trkpt>
      <trkpt lat="47.80073" lon="-3.38982">
        <ele>4.46</ele>
        <time>2015-09-06T07:10:54Z</time>
      </trkpt>
      <trkpt lat="47.80078" lon="-3.38981">
        <ele>4.46</ele>
        <time>2015-09-06T07:10:55Z</time>
      </trkpt>
      <trkpt lat="47.80083" lon="-3.38979">
        <ele>4.46</ele>
        <time>2015-09-06T07:10:56Z</time>
      </trkpt>
      <trkpt lat="47.80088" lon="-3.38976">
        <ele>5.91</ele>
        <time>2015-09-06T07:10:57Z</time>
      </trkpt>
      <trkpt lat="47.80093" lon="-3.38974">
        <ele>5.91</ele>
        <time>2015-09-06T07:10:58Z</time>
      </trkpt>
      <trkpt lat="47.80098" lon="-3.38972">
        <ele>6.39</ele>
        <time>2015-09-06T07:10:59Z</time>
      </trkpt>
      <trkpt lat="47.80104" lon="-3.38969">
        <ele>6.39</ele>
        <time>2015-09-06T07:11:00Z</time>
      </trkpt>
      <trkpt lat="47.80109" lon="-3.38967">
        <ele>6.39</ele>
        <time>2015-09-06T07:11:01Z</time>
      </trkpt>
      <trkpt lat="47.80115" lon="-3.38965">
        <ele>7.35</ele>
        <time>2015-09-06T07:11:02Z</time>
      </trkpt>
      <trkpt lat="47.80119" lon="-3.38963">
        <ele>7.35</ele>
        <time>2015-09-06T07:11:03Z</time>
      </trkpt>
      <trkpt lat="47.80124" lon="-3.38961">
        <ele>7.35</ele>
        <time>2015-09-06T07:11:04Z</time>
      </trkpt>
      <trkpt lat="47.80129" lon="-3.38959">
        <ele>7.83</ele>
        <time>2015-09-06T07:11:05Z</time>
      </trkpt>
      <trkpt lat="47.80132" lon="-3.38958">
        <ele>7.83</ele>
        <time>2015-09-06T07:11:06Z</time>
      </trkpt>
      <trkpt lat="47.80136" lon="-3.38958">
        <ele>8.31</ele>
        <time>2015-09-06T07:11:07Z</time>
      </trkpt>
      <trkpt lat="47.80139" lon="-3.3896">
        <ele>8.31</ele>
        <time>2015-09-06T07:11:08Z</time>
      </trkpt>
      <trkpt lat="47.8014" lon="-3.38964">
        <ele>8.79</ele>
        <time>2015-09-06T07:11:09Z</time>
      </trkpt>
      <trkpt lat="47.80139" lon="-3.38969">
        <ele>8.79</ele>
        <time>2015-09-06T07:11:10Z</time>
      </trkpt>
      <trkpt lat="47.80138" lon="-3.38972">
        <ele>9.27</ele>
        <time>2015-09-06T07:11:11Z</time>
      </trkpt>
      <trkpt lat="47.80137" lon="-3.38976">
        <ele>9.27</ele>
        <time>2015-09-06T07:11:12Z</time>
      </trkpt>
      <trkpt lat="47.80135" lon="-3.3898">
        <ele>10.23</ele>
        <time>2015-09-06T07:11:13Z</time>
      </trkpt>
      <trkpt lat="47.80134" lon="-3.38984">
        <ele>10.23</ele>
        <time>2015-09-06T07:11:14Z</time>
      </trkpt>
      <trkpt lat="47.80133" lon="-3.38989">
        <ele>10.71</ele>
        <time>2015-09-06T07:11:15Z</time>
      </trkpt>
      <trkpt lat="47.80132" lon="-3.38994">
        <ele>10.71</ele>
        <time>2015-09-06T07:11:16Z</time>
      </trkpt>
      <trkpt lat="47.80131" lon="-3.38999">
        <ele>11.19</ele>
        <time>2015-09-06T07:11:17Z</time>
      </trkpt>
      <trkpt lat="47.80129" lon="-3.39004">
        <ele>11.19</ele>
        <time>2015-09-06T07:11:18Z</time>
      </trkpt>
      <trkpt lat="47.80128" lon="-3.39008">
        <ele>11.19</ele>
        <time>2015-09-06T07:11:19Z</time>
      </trkpt>
      <trkpt lat="47.80126" lon="-3.39013">
        <ele>11.67</ele>
        <time>2015-09-06T07:11:20Z</time>
      </trkpt>
      <trkpt lat="47.80125" lon="-3.39018">
        <ele>11.67</ele>
        <time>2015-09-06T07:11:21Z</time>
      </trkpt>
      <trkpt lat="47.80123" lon="-3.39022">
        <ele>12.15</ele>
        <time>2015-09-06T07:11:22Z</time>
      </trkpt>
      <trkpt lat="47.8012" lon="-3.39026">
        <ele>12.15</ele>
        <time>2015-09-06T07:11:23Z</time>
      </trkpt>
      <trkpt lat="47.80118" lon="-3.39029">
        <ele>12.15</ele>
        <time>2015-09-06T07:11:24Z</time>
      </trkpt>
      <trkpt lat="47.80116" lon="-3.39033">
        <ele>12.63</ele>
        <time>2015-09-06T07:11:25Z</time>
      </trkpt>
      <trkpt lat="47.80114" lon="-3.39037">
        <ele>12.63</ele>
        <time>2015-09-06T07:11:26Z</time>
      </trkpt>
      <trkpt lat="47.80112" lon="-3.39041">
        <ele>13.12</ele>
        <time>2015-09-06T07:11:27Z</time>
      </trkpt>
      <trkpt lat="47.8011" lon="-3.39045">
        <ele>12.63</ele>
        <time>2015-09-06T07:11:28Z</time>
      </trkpt>
      <trkpt lat="47.80107" lon="-3.39049">
        <ele>13.6</ele>
        <time>2015-09-06T07:11:29Z</time>
      </trkpt>
      <trkpt lat="47.80105" lon="-3.39052">
        <ele>13.6</ele>
        <time>2015-09-06T07:11:30Z</time>
      </trkpt>
      <trkpt lat="47.80102" lon="-3.39056">
        <ele>13.6</ele>
        <time>2015-09-06T07:11:31Z</time>
      </trkpt>
      <trkpt lat="47.801" lon="-3.3906">
        <ele>14.08</ele>
        <time>2015-09-06T07:11:32Z</time>
      </trkpt>
      <trkpt lat="47.80097" lon="-3.39063">
        <ele>14.08</ele>
        <time>2015-09-06T07:11:33Z</time>
      </trkpt>
      <trkpt lat="47.80094" lon="-3.39067">
        <ele>14.56</ele>
        <time>2015-09-06T07:11:34Z</time>
      </trkpt>
      <trkpt lat="47.80091" lon="-3.3907">
        <ele>14.56</ele>
        <time>2015-09-06T07:11:35Z</time>
      </trkpt>
      <trkpt lat="47.80088" lon="-3.39074">
        <ele>14.56</ele>
        <time>2015-09-06T07:11:36Z</time>
      </trkpt>
      <trkpt lat="47.80086" lon="-3.39078">
        <ele>15.04</ele>
        <time>2015-09-06T07:11:37Z</time>
      </trkpt>
      <trkpt lat="47.80083" lon="-3.39083">
        <ele>15.52</ele>
        <time>2015-09-06T07:11:38Z</time>
      </trkpt>
      <trkpt lat="47.80081" lon="-3.39087">
        <ele>16</ele>
        <time>2015-09-06T07:11:39Z</time>
      </trkpt>
      <trkpt lat="47.80078" lon="-3.3909">
        <ele>16</ele>
        <time>2015-09-06T07:11:40Z</time>
      </trkpt>
      <trkpt lat="47.80076" lon="-3.39093">
        <ele>16.48</ele>
        <time>2015-09-06T07:11:41Z</time>
      </trkpt>
      <trkpt lat="47.80074" lon="-3.39096">
        <ele>16.48</ele>
        <time>2015-09-06T07:11:42Z</time>
      </trkpt>
      <trkpt lat="47.80072" lon="-3.39098">
        <ele>16.96</ele>
        <time>2015-09-06T07:11:43Z</time>
      </trkpt>
      <trkpt lat="47.80069" lon="-3.39098">
        <ele>16.96</ele>
        <time>2015-09-06T07:11:44Z</time>
      </trkpt>
      <trkpt lat="47.80067" lon="-3.39099">
        <ele>16.96</ele>
        <time>2015-09-06T07:11:45Z</time>
      </trkpt>
      <trkpt lat="47.80066" lon="-3.39101">
        <ele>16.96</ele>
        <time>2015-09-06T07:11:46Z</time>
      </trkpt>
      <trkpt lat="47.80065" lon="-3.39105">
        <ele>17.44</ele>
        <time>2015-09-06T07:11:47Z</time>
      </trkpt>
      <trkpt lat="47.80065" lon="-3.39109">
        <ele>17.44</ele>
        <time>2015-09-06T07:11:48Z</time>
      </trkpt>
      <trkpt lat="47.80065" lon="-3.39113">
        <ele>17.44</ele>
        <time>2015-09-06T07:11:49Z</time>
      </trkpt>
      <trkpt lat="47.80065" lon="-3.39117">
        <ele>17.92</ele>
        <time>2015-09-06T07:11:50Z</time>
      </trkpt>
      <trkpt lat="47.80068" lon="-3.3912">
        <ele>17.92</ele>
        <time>2015-09-06T07:11:51Z</time>
      </trkpt>
      <trkpt lat="47.8007" lon="-3.39121">
        <ele>17.92</ele>
        <time>2015-09-06T07:11:52Z</time>
      </trkpt>
      <trkpt lat="47.80074" lon="-3.39122">
        <ele>18.4</ele>
        <time>2015-09-06T07:11:53Z</time>
      </trkpt>
      <trkpt lat="47.80077" lon="-3.39123">
        <ele>18.4</ele>
        <time>2015-09-06T07:11:54Z</time>
      </trkpt>
      <trkpt lat="47.80081" lon="-3.39124">
        <ele>18.4</ele>
        <time>2015-09-06T07:11:55Z</time>
      </trkpt>
      <trkpt lat="47.80085" lon="-3.39124">
        <ele>18.4</ele>
        <time>2015-09-06T07:11:56Z</time>
      </trkpt>
      <trkpt lat="47.80089" lon="-3.39125">
        <ele>18.4</ele>
        <time>2015-09-06T07:11:57Z</time>
      </trkpt>
      <trkpt lat="47.80093" lon="-3.39126">
        <ele>18.4</ele>
        <time>2015-09-06T07:11:58Z</time>
      </trkpt>
      <trkpt lat="47.80097" lon="-3.39127">
        <ele>18.4</ele>
        <time>2015-09-06T07:11:59Z</time>
      </trkpt>
      <trkpt lat="47.80102" lon="-3.39128">
        <ele>18.4</ele>
        <time>2015-09-06T07:12:00Z</time>
      </trkpt>
      <trkpt lat="47.80106" lon="-3.3913">
        <ele>18.4</ele>
        <time>2015-09-06T07:12:01Z</time>
      </trkpt>
      <trkpt lat="47.8011" lon="-3.39132">
        <ele>18.4</ele>
        <time>2015-09-06T07:12:02Z</time>
      </trkpt>
      <trkpt lat="47.80114" lon="-3.39135">
        <ele>18.4</ele>
        <time>2015-09-06T07:12:03Z</time>
      </trkpt>
      <trkpt lat="47.80118" lon="-3.39138">
        <ele>18.4</ele>
        <time>2015-09-06T07:12:04Z</time>
      </trkpt>
      <trkpt lat="47.80121" lon="-3.39142">
        <ele>18.4</ele>
        <time>2015-09-06T07:12:05Z</time>
      </trkpt>
      <trkpt lat="47.80123" lon="-3.39147">
        <ele>18.88</ele>
        <time>2015-09-06T07:12:06Z</time>
      </trkpt>
      <trkpt lat="47.80126" lon="-3.39152">
        <ele>18.88</ele>
        <time>2015-09-06T07:12:07Z</time>
      </trkpt>
      <trkpt lat="47.80127" lon="-3.39156">
        <ele>19.36</ele>
        <time>2015-09-06T07:12:08Z</time>
      </trkpt>
      <trkpt lat="47.80129" lon="-3.39161">
        <ele>19.36</ele>
        <time>2015-09-06T07:12:09Z</time>
      </trkpt>
      <trkpt lat="47.8013" lon="-3.39167">
        <ele>19.36</ele>
        <time>2015-09-06T07:12:10Z</time>
      </trkpt>
      <trkpt lat="47.80131" lon="-3.39172">
        <ele>19.36</ele>
        <time>2015-09-06T07:12:11Z</time>
      </trkpt>
      <trkpt lat="47.80133" lon="-3.39177">
        <ele>19.84</ele>
        <time>2015-09-06T07:12:12Z</time>
      </trkpt>
      <trkpt lat="47.80135" lon="-3.39182">
        <ele>19.84</ele>
        <time>2015-09-06T07:12:13Z</time>
      </trkpt>
      <trkpt lat="47.80137" lon="-3.39188">
        <ele>19.84</ele>
        <time>2015-09-06T07:12:14Z</time>
      </trkpt>
      <trkpt lat="47.80139" lon="-3.39194">
        <ele>19.84</ele>
        <time>2015-09-06T07:12:15Z</time>
      </trkpt>
      <trkpt lat="47.80141" lon="-3.392">
        <ele>19.84</ele>
        <time>2015-09-06T07:12:16Z</time>
      </trkpt>
      <trkpt lat="47.80144" lon="-3.39206">
        <ele>19.84</ele>
        <time>2015-09-06T07:12:17Z</time>
      </trkpt>
      <trkpt lat="47.80146" lon="-3.39212">
        <ele>19.84</ele>
        <time>2015-09-06T07:12:18Z</time>
      </trkpt>
      <trkpt lat="47.80149" lon="-3.39219">
        <ele>18.4</ele>
        <time>2015-09-06T07:12:19Z</time>
      </trkpt>
      <trkpt lat="47.80151" lon="-3.39227">
        <ele>17.92</ele>
        <time>2015-09-06T07:12:20Z</time>
      </trkpt>
      <trkpt lat="47.80152" lon="-3.39236">
        <ele>17.44</ele>
        <time>2015-09-06T07:12:21Z</time>
      </trkpt>
      <trkpt lat="47.80152" lon="-3.39246">
        <ele>16.96</ele>
        <time>2015-09-06T07:12:22Z</time>
      </trkpt>
      <trkpt lat="47.80149" lon="-3.39255">
        <ele>16.48</ele>
        <time>2015-09-06T07:12:23Z</time>
      </trkpt>
      <trkpt lat="47.80146" lon="-3.39264">
        <ele>16.48</ele>
        <time>2015-09-06T07:12:24Z</time>
      </trkpt>
      <trkpt lat="47.80142" lon="-3.39273">
        <ele>15.52</ele>
        <time>2015-09-06T07:12:25Z</time>
      </trkpt>
      <trkpt lat="47.80138" lon="-3.39281">
        <ele>15.52</ele>
        <time>2015-09-06T07:12:26Z</time>
      </trkpt>
      <trkpt lat="47.80133" lon="-3.39289">
        <ele>15.52</ele>
        <time>2015-09-06T07:12:27Z</time>
      </trkpt>
      <trkpt lat="47.80129" lon="-3.39297">
        <ele>15.04</ele>
        <time>2015-09-06T07:12:28Z</time>
      </trkpt>
      <trkpt lat="47.80126" lon="-3.39305">
        <ele>15.04</ele>
        <time>2015-09-06T07:12:29Z</time>
      </trkpt>
      <trkpt lat="47.80123" lon="-3.39313">
        <ele>15.04</ele>
        <time>2015-09-06T07:12:30Z</time>
      </trkpt>
      <trkpt lat="47.8012" lon="-3.3932">
        <ele>15.04</ele>
        <time>2015-09-06T07:12:31Z</time>
      </trkpt>
      <trkpt lat="47.80117" lon="-3.39327">
        <ele>15.04</ele>
        <time>2015-09-06T07:12:32Z</time>
      </trkpt>
      <trkpt lat="47.80114" lon="-3.39335">
        <ele>15.04</ele>
        <time>2015-09-06T07:12:33Z</time>
      </trkpt>
      <trkpt lat="47.80111" lon="-3.39341">
        <ele>14.56</ele>
        <time>2015-09-06T07:12:34Z</time>
      </trkpt>
      <trkpt lat="47.80107" lon="-3.39347">
        <ele>14.56</ele>
        <time>2015-09-06T07:12:35Z</time>
      </trkpt>
      <trkpt lat="47.80104" lon="-3.39352">
        <ele>14.56</ele>
        <time>2015-09-06T07:12:36Z</time>
      </trkpt>
      <trkpt lat="47.801" lon="-3.39357">
        <ele>14.56</ele>
        <time>2015-09-06T07:12:37Z</time>
      </trkpt>
      <trkpt lat="47.80096" lon="-3.39362">
        <ele>14.56</ele>
        <time>2015-09-06T07:12:38Z</time>
      </trkpt>
      <trkpt lat="47.80092" lon="-3.39366">
        <ele>14.56</ele>
        <time>2015-09-06T07:12:39Z</time>
      </trkpt>
      <trkpt lat="47.80089" lon="-3.3937">
        <ele>14.56</ele>
        <time>2015-09-06T07:12:40Z</time>
      </trkpt>
      <trkpt lat="47.80087" lon="-3.39374">
        <ele>16</ele>
        <time>2015-09-06T07:12:41Z</time>
      </trkpt>
      <trkpt lat="47.80085" lon="-3.39378">
        <ele>16</ele>
        <time>2015-09-06T07:12:42Z</time>
      </trkpt>
      <trkpt lat="47.80082" lon="-3.39383">
        <ele>16</ele>
        <time>2015-09-06T07:12:43Z</time>
      </trkpt>
      <trkpt lat="47.8008" lon="-3.39388">
        <ele>16.48</ele>
        <time>2015-09-06T07:12:44Z</time>
      </trkpt>
      <trkpt lat="47.80077" lon="-3.39393">
        <ele>16.48</ele>
        <time>2015-09-06T07:12:45Z</time>
      </trkpt>
      <trkpt lat="47.80075" lon="-3.39398">
        <ele>16.48</ele>
        <time>2015-09-06T07:12:46Z</time>
      </trkpt>
      <trkpt lat="47.80073" lon="-3.39404">
        <ele>16.96</ele>
        <time>2015-09-06T07:12:47Z</time>
      </trkpt>
      <trkpt lat="47.80071" lon="-3.3941">
        <ele>16.96</ele>
        <time>2015-09-06T07:12:48Z</time>
      </trkpt>
      <trkpt lat="47.80069" lon="-3.39416">
        <ele>16.96</ele>
        <time>2015-09-06T07:12:49Z</time>
      </trkpt>
      <trkpt lat="47.80068" lon="-3.39422">
        <ele>17.44</ele>
        <time>2015-09-06T07:12:50Z</time>
      </trkpt>
      <trkpt lat="47.80066" lon="-3.39429">
        <ele>17.44</ele>
        <time>2015-09-06T07:12:51Z</time>
      </trkpt>
      <trkpt lat="47.80066" lon="-3.39436">
        <ele>17.44</ele>
        <time>2015-09-06T07:12:52Z</time>
      </trkpt>
      <trkpt lat="47.80066" lon="-3.39443">
        <ele>17.44</ele>
        <time>2015-09-06T07:12:53Z</time>
      </trkpt>
      <trkpt lat="47.80068" lon="-3.39449">
        <ele>17.44</ele>
        <time>2015-09-06T07:12:54Z</time>
      </trkpt>
      <trkpt lat="47.80071" lon="-3.39455">
        <ele>17.92</ele>
        <time>2015-09-06T07:12:55Z</time>
      </trkpt>
      <trkpt lat="47.80074" lon="-3.3946">
        <ele>17.92</ele>
        <time>2015-09-06T07:12:56Z</time>
      </trkpt>
      <trkpt lat="47.80076" lon="-3.39465">
        <ele>17.92</ele>
        <time>2015-09-06T07:12:57Z</time>
      </trkpt>
      <trkpt lat="47.80079" lon="-3.3947">
        <ele>17.92</ele>
        <time>2015-09-06T07:12:58Z</time>
      </trkpt>
      <trkpt lat="47.80082" lon="-3.39475">
        <ele>18.4</ele>
        <time>2015-09-06T07:12:59Z</time>
      </trkpt>
      <trkpt lat="47.80085" lon="-3.3948">
        <ele>18.4</ele>
        <time>2015-09-06T07:13:00Z</time>
      </trkpt>
      <trkpt lat="47.80087" lon="-3.39484">
        <ele>19.36</ele>
        <time>2015-09-06T07:13:01Z</time>
      </trkpt>
      <trkpt lat="47.8009" lon="-3.39489">
        <ele>19.36</ele>
        <time>2015-09-06T07:13:02Z</time>
      </trkpt>
      <trkpt lat="47.80092" lon="-3.39492">
        <ele>19.84</ele>
        <time>2015-09-06T07:13:03Z</time>
      </trkpt>
      <trkpt lat="47.80094" lon="-3.39495">
        <ele>19.84</ele>
        <time>2015-09-06T07:13:04Z</time>
      </trkpt>
      <trkpt lat="47.80096" lon="-3.39497">
        <ele>20.81</ele>
        <time>2015-09-06T07:13:05Z</time>
      </trkpt>
      <trkpt lat="47.80098" lon="-3.39499">
        <ele>20.81</ele>
        <time>2015-09-06T07:13:06Z</time>
      </trkpt>
      <trkpt lat="47.80099" lon="-3.39501">
        <ele>21.29</ele>
        <time>2015-09-06T07:13:07Z</time>
      </trkpt>
      <trkpt lat="47.80101" lon="-3.39503">
        <ele>21.29</ele>
        <time>2015-09-06T07:13:08Z</time>
      </trkpt>
      <trkpt lat="47.80103" lon="-3.39503">
        <ele>21.77</ele>
        <time>2015-09-06T07:13:09Z</time>
      </trkpt>
      <trkpt lat="47.80105" lon="-3.39504">
        <ele>21.77</ele>
        <time>2015-09-06T07:13:10Z</time>
      </trkpt>
      <trkpt lat="47.80106" lon="-3.39504">
        <ele>21.77</ele>
        <time>2015-09-06T07:13:11Z</time>
      </trkpt>
      <trkpt lat="47.80108" lon="-3.39505">
        <ele>22.25</ele>
        <time>2015-09-06T07:13:12Z</time>
      </trkpt>
      <trkpt lat="47.8011" lon="-3.39506">
        <ele>22.25</ele>
        <time>2015-09-06T07:13:13Z</time>
      </trkpt>
      <trkpt lat="47.80112" lon="-3.39507">
        <ele>22.73</ele>
        <time>2015-09-06T07:13:14Z</time>
      </trkpt>
      <trkpt lat="47.80114" lon="-3.39507">
        <ele>22.73</ele>
        <time>2015-09-06T07:13:15Z</time>
      </trkpt>
      <trkpt lat="47.80116" lon="-3.39508">
        <ele>22.73</ele>
        <time>2015-09-06T07:13:16Z</time>
      </trkpt>
      <trkpt lat="47.80118" lon="-3.39508">
        <ele>23.21</ele>
        <time>2015-09-06T07:13:17Z</time>
      </trkpt>
      <trkpt lat="47.8012" lon="-3.39509">
        <ele>23.21</ele>
        <time>2015-09-06T07:13:18Z</time>
      </trkpt>
      <trkpt lat="47.80122" lon="-3.39509">
        <ele>23.21</ele>
        <time>2015-09-06T07:13:19Z</time>
      </trkpt>
      <trkpt lat="47.80124" lon="-3.3951">
        <ele>23.69</ele>
        <time>2015-09-06T07:13:20Z</time>
      </trkpt>
      <trkpt lat="47.80126" lon="-3.39511">
        <ele>23.69</ele>
        <time>2015-09-06T07:13:21Z</time>
      </trkpt>
      <trkpt lat="47.80127" lon="-3.39512">
        <ele>23.69</ele>
        <time>2015-09-06T07:13:22Z</time>
      </trkpt>
      <trkpt lat="47.80129" lon="-3.39512">
        <ele>24.17</ele>
        <time>2015-09-06T07:13:23Z</time>
      </trkpt>
      <trkpt lat="47.80131" lon="-3.39513">
        <ele>24.17</ele>
        <time>2015-09-06T07:13:24Z</time>
      </trkpt>
      <trkpt lat="47.80133" lon="-3.39514">
        <ele>24.65</ele>
        <time>2015-09-06T07:13:25Z</time>
      </trkpt>
      <trkpt lat="47.80135" lon="-3.39515">
        <ele>24.65</ele>
        <time>2015-09-06T07:13:26Z</time>
      </trkpt>
      <trkpt lat="47.80136" lon="-3.39516">
        <ele>24.65</ele>
        <time>2015-09-06T07:13:27Z</time>
      </trkpt>
      <trkpt lat="47.80138" lon="-3.39516">
        <ele>25.13</ele>
        <time>2015-09-06T07:13:28Z</time>
      </trkpt>
      <trkpt lat="47.8014" lon="-3.39517">
        <ele>25.13</ele>
        <time>2015-09-06T07:13:29Z</time>
      </trkpt>
      <trkpt lat="47.80143" lon="-3.39517">
        <ele>25.13</ele>
        <time>2015-09-06T07:13:30Z</time>
      </trkpt>
      <trkpt lat="47.80145" lon="-3.39518">
        <ele>25.13</ele>
        <time>2015-09-06T07:13:31Z</time>
      </trkpt>
      <trkpt lat="47.80147" lon="-3.39519">
        <ele>25.61</ele>
        <time>2015-09-06T07:13:32Z</time>
      </trkpt>
      <trkpt lat="47.80149" lon="-3.39519">
        <ele>26.09</ele>
        <time>2015-09-06T07:13:33Z</time>
      </trkpt>
      <trkpt lat="47.80151" lon="-3.3952">
        <ele>26.09</ele>
        <time>2015-09-06T07:13:34Z</time>
      </trkpt>
      <trkpt lat="47.80153" lon="-3.39521">
        <ele>26.09</ele>
        <time>2015-09-06T07:13:35Z</time>
      </trkpt>
      <trkpt lat="47.80156" lon="-3.39522">
        <ele>26.57</ele>
        <time>2015-09-06T07:13:36Z</time>
      </trkpt>
      <trkpt lat="47.80158" lon="-3.39522">
        <ele>26.57</ele>
        <time>2015-09-06T07:13:37Z</time>
      </trkpt>
      <trkpt lat="47.8016" lon="-3.39523">
        <ele>26.57</ele>
        <time>2015-09-06T07:13:38Z</time>
      </trkpt>
      <trkpt lat="47.80162" lon="-3.39524">
        <ele>27.05</ele>
        <time>2015-09-06T07:13:39Z</time>
      </trkpt>
      <trkpt lat="47.80165" lon="-3.39524">
        <ele>27.05</ele>
        <time>2015-09-06T07:13:40Z</time>
      </trkpt>
      <trkpt lat="47.80167" lon="-3.39526">
        <ele>27.05</ele>
        <time>2015-09-06T07:13:41Z</time>
      </trkpt>
      <trkpt lat="47.80169" lon="-3.39527">
        <ele>27.53</ele>
        <time>2015-09-06T07:13:42Z</time>
      </trkpt>
      <trkpt lat="47.80171" lon="-3.39527">
        <ele>27.53</ele>
        <time>2015-09-06T07:13:43Z</time>
      </trkpt>
      <trkpt lat="47.80174" lon="-3.39529">
        <ele>27.53</ele>
        <time>2015-09-06T07:13:44Z</time>
      </trkpt>
      <trkpt lat="47.80176" lon="-3.39529">
        <ele>28.5</ele>
        <time>2015-09-06T07:13:45Z</time>
      </trkpt>
      <trkpt lat="47.80178" lon="-3.3953">
        <ele>28.5</ele>
        <time>2015-09-06T07:13:46Z</time>
      </trkpt>
      <trkpt lat="47.8018" lon="-3.39531">
        <ele>28.5</ele>
        <time>2015-09-06T07:13:47Z</time>
      </trkpt>
      <trkpt lat="47.80183" lon="-3.39532">
        <ele>28.98</ele>
        <time>2015-09-06T07:13:48Z</time>
      </trkpt>
      <trkpt lat="47.80185" lon="-3.39533">
        <ele>28.98</ele>
        <time>2015-09-06T07:13:49Z</time>
      </trkpt>
      <trkpt lat="47.80188" lon="-3.39534">
        <ele>28.98</ele>
        <time>2015-09-06T07:13:50Z</time>
      </trkpt>
      <trkpt lat="47.8019" lon="-3.39535">
        <ele>29.46</ele>
        <time>2015-09-06T07:13:51Z</time>
      </trkpt>
      <trkpt lat="47.80192" lon="-3.39536">
        <ele>29.46</ele>
        <time>2015-09-06T07:13:52Z</time>
      </trkpt>
      <trkpt lat="47.80194" lon="-3.39537">
        <ele>29.46</ele>
        <time>2015-09-06T07:13:53Z</time>
      </trkpt>
      <trkpt lat="47.80197" lon="-3.39537">
        <ele>29.46</ele>
        <time>2015-09-06T07:13:54Z</time>
      </trkpt>
      <trkpt lat="47.80199" lon="-3.39538">
        <ele>29.46</ele>
        <time>2015-09-06T07:13:55Z</time>
      </trkpt>
      <trkpt lat="47.80201" lon="-3.39539">
        <ele>29.46</ele>
        <time>2015-09-06T07:13:56Z</time>
      </trkpt>
      <trkpt lat="47.80204" lon="-3.39541">
        <ele>29.94</ele>
        <time>2015-09-06T07:13:57Z</time>
      </trkpt>
      <trkpt lat="47.80205" lon="-3.39544">
        <ele>30.42</ele>
        <time>2015-09-06T07:13:58Z</time>
      </trkpt>
      <trkpt lat="47.80206" lon="-3.39547">
        <ele>30.42</ele>
        <time>2015-09-06T07:13:59Z</time>
      </trkpt>
      <trkpt lat="47.80207" lon="-3.3955">
        <ele>30.42</ele>
        <time>2015-09-06T07:14:00Z</time>
      </trkpt>
      <trkpt lat="47.80207" lon="-3.39553">
        <ele>30.9</ele>
        <time>2015-09-06T07:14:01Z</time>
      </trkpt>
      <trkpt lat="47.80208" lon="-3.39555">
        <ele>30.9</ele>
        <time>2015-09-06T07:14:02Z</time>
      </trkpt>
      <trkpt lat="47.80208" lon="-3.39558">
        <ele>31.38</ele>
        <time>2015-09-06T07:14:03Z</time>
      </trkpt>
      <trkpt lat="47.80208" lon="-3.39561">
        <ele>31.86</ele>
        <time>2015-09-06T07:14:04Z</time>
      </trkpt>
      <trkpt lat="47.80208" lon="-3.39564">
        <ele>31.86</ele>
        <time>2015-09-06T07:14:05Z</time>
      </trkpt>
      <trkpt lat="47.80208" lon="-3.39567">
        <ele>32.34</ele>
        <time>2015-09-06T07:14:06Z</time>
      </trkpt>
      <trkpt lat="47.80208" lon="-3.3957">
        <ele>32.34</ele>
        <time>2015-09-06T07:14:07Z</time>
      </trkpt>
      <trkpt lat="47.80208" lon="-3.39574">
        <ele>32.34</ele>
        <time>2015-09-06T07:14:08Z</time>
      </trkpt>
      <trkpt lat="47.80208" lon="-3.39577">
        <ele>32.82</ele>
        <time>2015-09-06T07:14:09Z</time>
      </trkpt>
      <trkpt lat="47.80208" lon="-3.39581">
        <ele>32.82</ele>
        <time>2015-09-06T07:14:10Z</time>
      </trkpt>
      <trkpt lat="47.80208" lon="-3.39584">
        <ele>33.3</ele>
        <time>2015-09-06T07:14:11Z</time>
      </trkpt>
      <trkpt lat="47.80208" lon="-3.39587">
        <ele>33.3</ele>
        <time>2015-09-06T07:14:12Z</time>
      </trkpt>
      <trkpt lat="47.80208" lon="-3.3959">
        <ele>33.3</ele>
        <time>2015-09-06T07:14:13Z</time>
      </trkpt>
      <trkpt lat="47.80207" lon="-3.39593">
        <ele>33.78</ele>
        <time>2015-09-06T07:14:14Z</time>
      </trkpt>
      <trkpt lat="47.80207" lon="-3.39596">
        <ele>33.78</ele>
        <time>2015-09-06T07:14:15Z</time>
      </trkpt>
      <trkpt lat="47.80208" lon="-3.39598">
        <ele>34.26</ele>
        <time>2015-09-06T07:14:16Z</time>
      </trkpt>
      <trkpt lat="47.80208" lon="-3.396">
        <ele>34.26</ele>
        <time>2015-09-06T07:14:17Z</time>
      </trkpt>
      <trkpt lat="47.80208" lon="-3.39603">
        <ele>34.26</ele>
        <time>2015-09-06T07:14:18Z</time>
      </trkpt>
      <trkpt lat="47.80208" lon="-3.39605">
        <ele>34.74</ele>
        <time>2015-09-06T07:14:19Z</time>
      </trkpt>
      <trkpt lat="47.80208" lon="-3.39608">
        <ele>34.74</ele>
        <time>2015-09-06T07:14:20Z</time>
      </trkpt>
      <trkpt lat="47.80208" lon="-3.39611">
        <ele>35.23</ele>
        <time>2015-09-06T07:14:21Z</time>
      </trkpt>
      <trkpt lat="47.80209" lon="-3.39613">
        <ele>35.23</ele>
        <time>2015-09-06T07:14:22Z</time>
      </trkpt>
      <trkpt lat="47.80209" lon="-3.39616">
        <ele>35.23</ele>
        <time>2015-09-06T07:14:23Z</time>
      </trkpt>
      <trkpt lat="47.80209" lon="-3.39618">
        <ele>35.71</ele>
        <time>2015-09-06T07:14:24Z</time>
      </trkpt>
      <trkpt lat="47.80209" lon="-3.39621">
        <ele>36.19</ele>
        <time>2015-09-06T07:14:25Z</time>
      </trkpt>
      <trkpt lat="47.8021" lon="-3.39623">
        <ele>36.19</ele>
        <time>2015-09-06T07:14:26Z</time>
      </trkpt>
      <trkpt lat="47.8021" lon="-3.39626">
        <ele>36.19</ele>
        <time>2015-09-06T07:14:27Z</time>
      </trkpt>
      <trkpt lat="47.8021" lon="-3.39629">
        <ele>36.67</ele>
        <time>2015-09-06T07:14:28Z</time>
      </trkpt>
      <trkpt lat="47.80211" lon="-3.39631">
        <ele>36.67</ele>
        <time>2015-09-06T07:14:29Z</time>
      </trkpt>
      <trkpt lat="47.80211" lon="-3.39634">
        <ele>36.67</ele>
        <time>2015-09-06T07:14:30Z</time>
      </trkpt>
      <trkpt lat="47.80212" lon="-3.39636">
        <ele>37.15</ele>
        <time>2015-09-06T07:14:31Z</time>
      </trkpt>
      <trkpt lat="47.80212" lon="-3.39639">
        <ele>37.15</ele>
        <time>2015-09-06T07:14:32Z</time>
      </trkpt>
      <trkpt lat="47.80212" lon="-3.39641">
        <ele>37.63</ele>
        <time>2015-09-06T07:14:33Z</time>
      </trkpt>
      <trkpt lat="47.80213" lon="-3.39644">
        <ele>37.63</ele>
        <time>2015-09-06T07:14:34Z</time>
      </trkpt>
      <trkpt lat="47.80213" lon="-3.39646">
        <ele>37.63</ele>
        <time>2015-09-06T07:14:35Z</time>
      </trkpt>
      <trkpt lat="47.80213" lon="-3.39648">
        <ele>38.11</ele>
        <time>2015-09-06T07:14:36Z</time>
      </trkpt>
      <trkpt lat="47.80214" lon="-3.3965">
        <ele>38.11</ele>
        <time>2015-09-06T07:14:37Z</time>
      </trkpt>
      <trkpt lat="47.80214" lon="-3.39653">
        <ele>38.11</ele>
        <time>2015-09-06T07:14:38Z</time>
      </trkpt>
      <trkpt lat="47.80215" lon="-3.39655">
        <ele>39.07</ele>
        <time>2015-09-06T07:14:39Z</time>
      </trkpt>
      <trkpt lat="47.80215" lon="-3.39657">
        <ele>39.07</ele>
        <time>2015-09-06T07:14:40Z</time>
      </trkpt>
      <trkpt lat="47.80216" lon="-3.39659">
        <ele>39.55</ele>
        <time>2015-09-06T07:14:41Z</time>
      </trkpt>
      <trkpt lat="47.80216" lon="-3.39661">
        <ele>39.55</ele>
        <time>2015-09-06T07:14:42Z</time>
      </trkpt>
      <trkpt lat="47.80216" lon="-3.39663">
        <ele>40.03</ele>
        <time>2015-09-06T07:14:43Z</time>
      </trkpt>
      <trkpt lat="47.80217" lon="-3.39665">
        <ele>40.03</ele>
        <time>2015-09-06T07:14:44Z</time>
      </trkpt>
      <trkpt lat="47.80218" lon="-3.39668">
        <ele>40.51</ele>
        <time>2015-09-06T07:14:45Z</time>
      </trkpt>
      <trkpt lat="47.80219" lon="-3.3967">
        <ele>40.51</ele>
        <time>2015-09-06T07:14:46Z</time>
      </trkpt>
      <trkpt lat="47.8022" lon="-3.39672">
        <ele>40.99</ele>
        <time>2015-09-06T07:14:47Z</time>
      </trkpt>
      <trkpt lat="47.8022" lon="-3.39674">
        <ele>41.47</ele>
        <time>2015-09-06T07:14:48Z</time>
      </trkpt>
      <trkpt lat="47.80221" lon="-3.39677">
        <ele>41.95</ele>
        <time>2015-09-06T07:14:49Z</time>
      </trkpt>
      <trkpt lat="47.80222" lon="-3.39679">
        <ele>41.95</ele>
        <time>2015-09-06T07:14:50Z</time>
      </trkpt>
      <trkpt lat="47.80222" lon="-3.39682">
        <ele>41.95</ele>
        <time>2015-09-06T07:14:51Z</time>
      </trkpt>
      <trkpt lat="47.80223" lon="-3.39684">
        <ele>41.95</ele>
        <time>2015-09-06T07:14:52Z</time>
      </trkpt>
      <trkpt lat="47.80224" lon="-3.39686">
        <ele>42.44</ele>
        <time>2015-09-06T07:14:53Z</time>
      </trkpt>
      <trkpt lat="47.80225" lon="-3.39688">
        <ele>42.92</ele>
        <time>2015-09-06T07:14:54Z</time>
      </trkpt>
      <trkpt lat="47.80225" lon="-3.3969">
        <ele>43.4</ele>
        <time>2015-09-06T07:14:55Z</time>
      </trkpt>
      <trkpt lat="47.80226" lon="-3.39692">
        <ele>43.4</ele>
        <time>2015-09-06T07:14:56Z</time>
      </trkpt>
      <trkpt lat="47.80227" lon="-3.39695">
        <ele>43.88</ele>
        <time>2015-09-06T07:14:57Z</time>
      </trkpt>
      <trkpt lat="47.80228" lon="-3.39698">
        <ele>43.88</ele>
        <time>2015-09-06T07:14:58Z</time>
      </trkpt>
      <trkpt lat="47.80229" lon="-3.39701">
        <ele>43.88</ele>
        <time>2015-09-06T07:14:59Z</time>
      </trkpt>
      <trkpt lat="47.8023" lon="-3.39704">
        <ele>44.36</ele>
        <time>2015-09-06T07:15:00Z</time>
      </trkpt>
      <trkpt lat="47.8023" lon="-3.39706">
        <ele>44.36</ele>
        <time>2015-09-06T07:15:01Z</time>
      </trkpt>
      <trkpt lat="47.80231" lon="-3.39709">
        <ele>44.84</ele>
        <time>2015-09-06T07:15:02Z</time>
      </trkpt>
      <trkpt lat="47.80232" lon="-3.39711">
        <ele>44.84</ele>
        <time>2015-09-06T07:15:03Z</time>
      </trkpt>
      <trkpt lat="47.80233" lon="-3.39713">
        <ele>45.32</ele>
        <time>2015-09-06T07:15:04Z</time>
      </trkpt>
      <trkpt lat="47.80234" lon="-3.39715">
        <ele>45.32</ele>
        <time>2015-09-06T07:15:05Z</time>
      </trkpt>
      <trkpt lat="47.80234" lon="-3.39718">
        <ele>45.8</ele>
        <time>2015-09-06T07:15:06Z</time>
      </trkpt>
      <trkpt lat="47.80235" lon="-3.3972">
        <ele>45.8</ele>
        <time>2015-09-06T07:15:07Z</time>
      </trkpt>
      <trkpt lat="47.80236" lon="-3.39723">
        <ele>46.28</ele>
        <time>2015-09-06T07:15:08Z</time>
      </trkpt>
      <trkpt lat="47.80237" lon="-3.39726">
        <ele>46.28</ele>
        <time>2015-09-06T07:15:09Z</time>
      </trkpt>
      <trkpt lat="47.80238" lon="-3.39728">
        <ele>46.28</ele>
        <time>2015-09-06T07:15:10Z</time>
      </trkpt>
      <trkpt lat="47.80239" lon="-3.39731">
        <ele>46.76</ele>
        <time>2015-09-06T07:15:11Z</time>
      </trkpt>
      <trkpt lat="47.8024" lon="-3.39733">
        <ele>46.76</ele>
        <time>2015-09-06T07:15:12Z</time>
      </trkpt>
      <trkpt lat="47.80241" lon="-3.39735">
        <ele>46.76</ele>
        <time>2015-09-06T07:15:13Z</time>
      </trkpt>
      <trkpt lat="47.80242" lon="-3.39737">
        <ele>46.76</ele>
        <time>2015-09-06T07:15:14Z</time>
      </trkpt>
      <trkpt lat="47.80244" lon="-3.39739">
        <ele>46.76</ele>
        <time>2015-09-06T07:15:15Z</time>
      </trkpt>
      <trkpt lat="47.80246" lon="-3.3974">
        <ele>46.76</ele>
        <time>2015-09-06T07:15:16Z</time>
      </trkpt>
      <trkpt lat="47.80248" lon="-3.39741">
        <ele>46.76</ele>
        <time>2015-09-06T07:15:17Z</time>
      </trkpt>
      <trkpt lat="47.80251" lon="-3.39742">
        <ele>46.76</ele>
        <time>2015-09-06T07:15:18Z</time>
      </trkpt>
      <trkpt lat="47.80253" lon="-3.39743">
        <ele>46.76</ele>
        <time>2015-09-06T07:15:19Z</time>
      </trkpt>
      <trkpt lat="47.80256" lon="-3.39744">
        <ele>46.76</ele>
        <time>2015-09-06T07:15:20Z</time>
      </trkpt>
      <trkpt lat="47.80258" lon="-3.39744">
        <ele>46.76</ele>
        <time>2015-09-06T07:15:21Z</time>
      </trkpt>
      <trkpt lat="47.80261" lon="-3.39743">
        <ele>46.76</ele>
        <time>2015-09-06T07:15:22Z</time>
      </trkpt>
      <trkpt lat="47.80264" lon="-3.39742">
        <ele>46.76</ele>
        <time>2015-09-06T07:15:23Z</time>
      </trkpt>
      <trkpt lat="47.80266" lon="-3.3974">
        <ele>47.24</ele>
        <time>2015-09-06T07:15:24Z</time>
      </trkpt>
      <trkpt lat="47.80267" lon="-3.39737">
        <ele>47.24</ele>
        <time>2015-09-06T07:15:25Z</time>
      </trkpt>
      <trkpt lat="47.80269" lon="-3.39735">
        <ele>47.24</ele>
        <time>2015-09-06T07:15:26Z</time>
      </trkpt>
      <trkpt lat="47.80271" lon="-3.39733">
        <ele>47.24</ele>
        <time>2015-09-06T07:15:27Z</time>
      </trkpt>
      <trkpt lat="47.80273" lon="-3.3973">
        <ele>47.24</ele>
        <time>2015-09-06T07:15:28Z</time>
      </trkpt>
      <trkpt lat="47.80275" lon="-3.39727">
        <ele>47.24</ele>
        <time>2015-09-06T07:15:29Z</time>
      </trkpt>
      <trkpt lat="47.80277" lon="-3.39724">
        <ele>47.24</ele>
        <time>2015-09-06T07:15:30Z</time>
      </trkpt>
      <trkpt lat="47.80279" lon="-3.39721">
        <ele>47.24</ele>
        <time>2015-09-06T07:15:31Z</time>
      </trkpt>
      <trkpt lat="47.80281" lon="-3.3972">
        <ele>47.24</ele>
        <time>2015-09-06T07:15:32Z</time>
      </trkpt>
      <trkpt lat="47.80284" lon="-3.39719">
        <ele>47.24</ele>
        <time>2015-09-06T07:15:33Z</time>
      </trkpt>
      <trkpt lat="47.80287" lon="-3.39718">
        <ele>47.24</ele>
        <time>2015-09-06T07:15:34Z</time>
      </trkpt>
      <trkpt lat="47.8029" lon="-3.39718">
        <ele>47.24</ele>
        <time>2015-09-06T07:15:35Z</time>
      </trkpt>
      <trkpt lat="47.80292" lon="-3.39718">
        <ele>47.24</ele>
        <time>2015-09-06T07:15:36Z</time>
      </trkpt>
      <trkpt lat="47.80295" lon="-3.39718">
        <ele>47.24</ele>
        <time>2015-09-06T07:15:37Z</time>
      </trkpt>
      <trkpt lat="47.80298" lon="-3.39718">
        <ele>47.72</ele>
        <time>2015-09-06T07:15:38Z</time>
      </trkpt>
      <trkpt lat="47.803" lon="-3.39719">
        <ele>47.72</ele>
        <time>2015-09-06T07:15:39Z</time>
      </trkpt>
      <trkpt lat="47.80303" lon="-3.39719">
        <ele>47.72</ele>
        <time>2015-09-06T07:15:40Z</time>
      </trkpt>
      <trkpt lat="47.80306" lon="-3.39718">
        <ele>47.72</ele>
        <time>2015-09-06T07:15:41Z</time>
      </trkpt>
      <trkpt lat="47.80309" lon="-3.39717">
        <ele>47.72</ele>
        <time>2015-09-06T07:15:42Z</time>
      </trkpt>
      <trkpt lat="47.80312" lon="-3.39717">
        <ele>47.72</ele>
        <time>2015-09-06T07:15:43Z</time>
      </trkpt>
      <trkpt lat="47.80314" lon="-3.39716">
        <ele>47.72</ele>
        <time>2015-09-06T07:15:44Z</time>
      </trkpt>
      <trkpt lat="47.80317" lon="-3.39716">
        <ele>47.72</ele>
        <time>2015-09-06T07:15:45Z</time>
      </trkpt>
      <trkpt lat="47.8032" lon="-3.39716">
        <ele>48.2</ele>
        <time>2015-09-06T07:15:46Z</time>
      </trkpt>
      <trkpt lat="47.80323" lon="-3.39715">
        <ele>48.2</ele>
        <time>2015-09-06T07:15:47Z</time>
      </trkpt>
      <trkpt lat="47.80326" lon="-3.39715">
        <ele>48.2</ele>
        <time>2015-09-06T07:15:48Z</time>
      </trkpt>
      <trkpt lat="47.8033" lon="-3.39715">
        <ele>48.2</ele>
        <time>2015-09-06T07:15:49Z</time>
      </trkpt>
      <trkpt lat="47.80333" lon="-3.39715">
        <ele>48.2</ele>
        <time>2015-09-06T07:15:50Z</time>
      </trkpt>
      <trkpt lat="47.80336" lon="-3.39714">
        <ele>48.2</ele>
        <time>2015-09-06T07:15:51Z</time>
      </trkpt>
      <trkpt lat="47.80339" lon="-3.39713">
        <ele>48.2</ele>
        <time>2015-09-06T07:15:52Z</time>
      </trkpt>
      <trkpt lat="47.80342" lon="-3.39713">
        <ele>48.2</ele>
        <time>2015-09-06T07:15:53Z</time>
      </trkpt>
      <trkpt lat="47.80345" lon="-3.39713">
        <ele>48.68</ele>
        <time>2015-09-06T07:15:54Z</time>
      </trkpt>
      <trkpt lat="47.80348" lon="-3.39713">
        <ele>48.68</ele>
        <time>2015-09-06T07:15:55Z</time>
      </trkpt>
      <trkpt lat="47.8035" lon="-3.39713">
        <ele>48.68</ele>
        <time>2015-09-06T07:15:56Z</time>
      </trkpt>
      <trkpt lat="47.80353" lon="-3.39713">
        <ele>49.16</ele>
        <time>2015-09-06T07:15:57Z</time>
      </trkpt>
      <trkpt lat="47.80356" lon="-3.39713">
        <ele>49.16</ele>
        <time>2015-09-06T07:15:58Z</time>
      </trkpt>
      <trkpt lat="47.80358" lon="-3.39714">
        <ele>49.65</ele>
        <time>2015-09-06T07:15:59Z</time>
      </trkpt>
      <trkpt lat="47.80361" lon="-3.39714">
        <ele>49.65</ele>
        <time>2015-09-06T07:16:00Z</time>
      </trkpt>
      <trkpt lat="47.80364" lon="-3.39715">
        <ele>50.13</ele>
        <time>2015-09-06T07:16:01Z</time>
      </trkpt>
      <trkpt lat="47.80366" lon="-3.39717">
        <ele>50.13</ele>
        <time>2015-09-06T07:16:02Z</time>
      </trkpt>
      <trkpt lat="47.80368" lon="-3.3972">
        <ele>50.13</ele>
        <time>2015-09-06T07:16:03Z</time>
      </trkpt>
      <trkpt lat="47.8037" lon="-3.39722">
        <ele>50.61</ele>
        <time>2015-09-06T07:16:04Z</time>
      </trkpt>
      <trkpt lat="47.80372" lon="-3.39725">
        <ele>50.61</ele>
        <time>2015-09-06T07:16:05Z</time>
      </trkpt>
      <trkpt lat="47.80373" lon="-3.39727">
        <ele>50.61</ele>
        <time>2015-09-06T07:16:06Z</time>
      </trkpt>
      <trkpt lat="47.80375" lon="-3.3973">
        <ele>50.61</ele>
        <time>2015-09-06T07:16:07Z</time>
      </trkpt>
      <trkpt lat="47.80376" lon="-3.39731">
        <ele>50.61</ele>
        <time>2015-09-06T07:16:08Z</time>
      </trkpt>
      <trkpt lat="47.80378" lon="-3.39734">
        <ele>50.61</ele>
        <time>2015-09-06T07:16:09Z</time>
      </trkpt>
      <trkpt lat="47.80379" lon="-3.39736">
        <ele>50.61</ele>
        <time>2015-09-06T07:16:10Z</time>
      </trkpt>
      <trkpt lat="47.80381" lon="-3.39738">
        <ele>51.09</ele>
        <time>2015-09-06T07:16:11Z</time>
      </trkpt>
      <trkpt lat="47.80382" lon="-3.3974">
        <ele>51.09</ele>
        <time>2015-09-06T07:16:12Z</time>
      </trkpt>
      <trkpt lat="47.80384" lon="-3.39741">
        <ele>51.09</ele>
        <time>2015-09-06T07:16:13Z</time>
      </trkpt>
      <trkpt lat="47.80386" lon="-3.39743">
        <ele>51.09</ele>
        <time>2015-09-06T07:16:14Z</time>
      </trkpt>
      <trkpt lat="47.80388" lon="-3.39745">
        <ele>51.09</ele>
        <time>2015-09-06T07:16:15Z</time>
      </trkpt>
      <trkpt lat="47.80389" lon="-3.39747">
        <ele>51.09</ele>
        <time>2015-09-06T07:16:16Z</time>
      </trkpt>
      <trkpt lat="47.80391" lon="-3.3975">
        <ele>51.09</ele>
        <time>2015-09-06T07:16:17Z</time>
      </trkpt>
      <trkpt lat="47.80393" lon="-3.39752">
        <ele>51.09</ele>
        <time>2015-09-06T07:16:18Z</time>
      </trkpt>
      <trkpt lat="47.80396" lon="-3.39755">
        <ele>51.09</ele>
        <time>2015-09-06T07:16:19Z</time>
      </trkpt>
      <trkpt lat="47.80398" lon="-3.39757">
        <ele>51.09</ele>
        <time>2015-09-06T07:16:20Z</time>
      </trkpt>
      <trkpt lat="47.804" lon="-3.39757">
        <ele>51.09</ele>
        <time>2015-09-06T07:16:21Z</time>
      </trkpt>
      <trkpt lat="47.80402" lon="-3.39757">
        <ele>51.09</ele>
        <time>2015-09-06T07:16:22Z</time>
      </trkpt>
      <trkpt lat="47.80405" lon="-3.39757">
        <ele>51.09</ele>
        <time>2015-09-06T07:16:23Z</time>
      </trkpt>
      <trkpt lat="47.80408" lon="-3.39758">
        <ele>51.09</ele>
        <time>2015-09-06T07:16:24Z</time>
      </trkpt>
      <trkpt lat="47.80412" lon="-3.39758">
        <ele>51.09</ele>
        <time>2015-09-06T07:16:25Z</time>
      </trkpt>
      <trkpt lat="47.80415" lon="-3.39759">
        <ele>51.09</ele>
        <time>2015-09-06T07:16:26Z</time>
      </trkpt>
      <trkpt lat="47.80418" lon="-3.3976">
        <ele>51.09</ele>
        <time>2015-09-06T07:16:27Z</time>
      </trkpt>
      <trkpt lat="47.80421" lon="-3.39761">
        <ele>51.09</ele>
        <time>2015-09-06T07:16:28Z</time>
      </trkpt>
      <trkpt lat="47.80424" lon="-3.39764">
        <ele>51.09</ele>
        <time>2015-09-06T07:16:29Z</time>
      </trkpt>
      <trkpt lat="47.80427" lon="-3.39767">
        <ele>51.09</ele>
        <time>2015-09-06T07:16:30Z</time>
      </trkpt>
      <trkpt lat="47.80429" lon="-3.39771">
        <ele>51.09</ele>
        <time>2015-09-06T07:16:31Z</time>
      </trkpt>
      <trkpt lat="47.8043" lon="-3.39774">
        <ele>50.13</ele>
        <time>2015-09-06T07:16:32Z</time>
      </trkpt>
      <trkpt lat="47.80432" lon="-3.39777">
        <ele>49.65</ele>
        <time>2015-09-06T07:16:33Z</time>
      </trkpt>
      <trkpt lat="47.80434" lon="-3.39777">
        <ele>49.65</ele>
        <time>2015-09-06T07:16:34Z</time>
      </trkpt>
      <trkpt lat="47.80437" lon="-3.39778">
        <ele>49.65</ele>
        <time>2015-09-06T07:16:35Z</time>
      </trkpt>
      <trkpt lat="47.80439" lon="-3.39778">
        <ele>49.65</ele>
        <time>2015-09-06T07:16:36Z</time>
      </trkpt>
      <trkpt lat="47.80441" lon="-3.39777">
        <ele>49.65</ele>
        <time>2015-09-06T07:16:37Z</time>
      </trkpt>
      <trkpt lat="47.80445" lon="-3.39776">
        <ele>49.65</ele>
        <time>2015-09-06T07:16:38Z</time>
      </trkpt>
      <trkpt lat="47.80448" lon="-3.39775">
        <ele>49.65</ele>
        <time>2015-09-06T07:16:39Z</time>
      </trkpt>
      <trkpt lat="47.80449" lon="-3.39774">
        <ele>49.65</ele>
        <time>2015-09-06T07:16:40Z</time>
      </trkpt>
      <trkpt lat="47.8045" lon="-3.39773">
        <ele>49.65</ele>
        <time>2015-09-06T07:16:41Z</time>
      </trkpt>
      <trkpt lat="47.80451" lon="-3.39772">
        <ele>49.65</ele>
        <time>2015-09-06T07:16:42Z</time>
      </trkpt>
      <trkpt lat="47.80452" lon="-3.39771">
        <ele>49.65</ele>
        <time>2015-09-06T07:16:43Z</time>
      </trkpt>
      <trkpt lat="47.80454" lon="-3.3977">
        <ele>49.65</ele>
        <time>2015-09-06T07:16:44Z</time>
      </trkpt>
      <trkpt lat="47.80455" lon="-3.39769">
        <ele>49.65</ele>
        <time>2015-09-06T07:16:45Z</time>
      </trkpt>
      <trkpt lat="47.80457" lon="-3.39767">
        <ele>49.65</ele>
        <time>2015-09-06T07:16:46Z</time>
      </trkpt>
      <trkpt lat="47.80458" lon="-3.39764">
        <ele>49.65</ele>
        <time>2015-09-06T07:16:47Z</time>
      </trkpt>
      <trkpt lat="47.80459" lon="-3.39762">
        <ele>49.65</ele>
        <time>2015-09-06T07:16:48Z</time>
      </trkpt>
      <trkpt lat="47.8046" lon="-3.3976">
        <ele>49.65</ele>
        <time>2015-09-06T07:16:49Z</time>
      </trkpt>
      <trkpt lat="47.80461" lon="-3.39756">
        <ele>49.65</ele>
        <time>2015-09-06T07:16:50Z</time>
      </trkpt>
      <trkpt lat="47.80462" lon="-3.39752">
        <ele>49.65</ele>
        <time>2015-09-06T07:16:51Z</time>
      </trkpt>
      <trkpt lat="47.80463" lon="-3.39747">
        <ele>49.65</ele>
        <time>2015-09-06T07:16:52Z</time>
      </trkpt>
      <trkpt lat="47.80462" lon="-3.39742">
        <ele>49.65</ele>
        <time>2015-09-06T07:16:53Z</time>
      </trkpt>
      <trkpt lat="47.80462" lon="-3.39738">
        <ele>49.65</ele>
        <time>2015-09-06T07:16:54Z</time>
      </trkpt>
      <trkpt lat="47.80464" lon="-3.39735">
        <ele>49.65</ele>
        <time>2015-09-06T07:16:55Z</time>
      </trkpt>
      <trkpt lat="47.80465" lon="-3.39732">
        <ele>49.65</ele>
        <time>2015-09-06T07:16:56Z</time>
      </trkpt>
      <trkpt lat="47.80467" lon="-3.39728">
        <ele>49.65</ele>
        <time>2015-09-06T07:16:57Z</time>
      </trkpt>
      <trkpt lat="47.80469" lon="-3.39725">
        <ele>49.65</ele>
        <time>2015-09-06T07:16:58Z</time>
      </trkpt>
      <trkpt lat="47.80471" lon="-3.39722">
        <ele>49.16</ele>
        <time>2015-09-06T07:16:59Z</time>
      </trkpt>
      <trkpt lat="47.80473" lon="-3.39719">
        <ele>49.16</ele>
        <time>2015-09-06T07:17:00Z</time>
      </trkpt>
      <trkpt lat="47.80474" lon="-3.39715">
        <ele>49.16</ele>
        <time>2015-09-06T07:17:01Z</time>
      </trkpt>
      <trkpt lat="47.80475" lon="-3.39711">
        <ele>49.16</ele>
        <time>2015-09-06T07:17:02Z</time>
      </trkpt>
      <trkpt lat="47.80475" lon="-3.39708">
        <ele>49.16</ele>
        <time>2015-09-06T07:17:03Z</time>
      </trkpt>
      <trkpt lat="47.80476" lon="-3.39704">
        <ele>49.16</ele>
        <time>2015-09-06T07:17:04Z</time>
      </trkpt>
      <trkpt lat="47.80478" lon="-3.39701">
        <ele>48.68</ele>
        <time>2015-09-06T07:17:05Z</time>
      </trkpt>
      <trkpt lat="47.80481" lon="-3.39698">
        <ele>48.68</ele>
        <time>2015-09-06T07:17:06Z</time>
      </trkpt>
      <trkpt lat="47.80484" lon="-3.39694">
        <ele>48.2</ele>
        <time>2015-09-06T07:17:07Z</time>
      </trkpt>
      <trkpt lat="47.80487" lon="-3.39691">
        <ele>48.2</ele>
        <time>2015-09-06T07:17:08Z</time>
      </trkpt>
      <trkpt lat="47.80488" lon="-3.39687">
        <ele>48.2</ele>
        <time>2015-09-06T07:17:09Z</time>
      </trkpt>
      <trkpt lat="47.80489" lon="-3.39684">
        <ele>48.2</ele>
        <time>2015-09-06T07:17:10Z</time>
      </trkpt>
      <trkpt lat="47.80489" lon="-3.3968">
        <ele>48.2</ele>
        <time>2015-09-06T07:17:11Z</time>
      </trkpt>
      <trkpt lat="47.80489" lon="-3.39677">
        <ele>48.2</ele>
        <time>2015-09-06T07:17:12Z</time>
      </trkpt>
      <trkpt lat="47.80488" lon="-3.39674">
        <ele>48.2</ele>
        <time>2015-09-06T07:17:13Z</time>
      </trkpt>
      <trkpt lat="47.80488" lon="-3.3967">
        <ele>48.2</ele>
        <time>2015-09-06T07:17:14Z</time>
      </trkpt>
      <trkpt lat="47.80489" lon="-3.39666">
        <ele>47.72</ele>
        <time>2015-09-06T07:17:15Z</time>
      </trkpt>
      <trkpt lat="47.80489" lon="-3.39661">
        <ele>47.72</ele>
        <time>2015-09-06T07:17:16Z</time>
      </trkpt>
      <trkpt lat="47.80491" lon="-3.39659">
        <ele>47.72</ele>
        <time>2015-09-06T07:17:17Z</time>
      </trkpt>
      <trkpt lat="47.80493" lon="-3.39656">
        <ele>47.72</ele>
        <time>2015-09-06T07:17:18Z</time>
      </trkpt>
      <trkpt lat="47.80495" lon="-3.39654">
        <ele>47.24</ele>
        <time>2015-09-06T07:17:19Z</time>
      </trkpt>
      <trkpt lat="47.80496" lon="-3.39651">
        <ele>47.24</ele>
        <time>2015-09-06T07:17:20Z</time>
      </trkpt>
      <trkpt lat="47.80498" lon="-3.39647">
        <ele>47.24</ele>
        <time>2015-09-06T07:17:21Z</time>
      </trkpt>
      <trkpt lat="47.80502" lon="-3.39646">
        <ele>46.76</ele>
        <time>2015-09-06T07:17:22Z</time>
      </trkpt>
      <trkpt lat="47.80505" lon="-3.39646">
        <ele>46.76</ele>
        <time>2015-09-06T07:17:23Z</time>
      </trkpt>
      <trkpt lat="47.80508" lon="-3.39646">
        <ele>46.76</ele>
        <time>2015-09-06T07:17:24Z</time>
      </trkpt>
      <trkpt lat="47.80512" lon="-3.39646">
        <ele>46.28</ele>
        <time>2015-09-06T07:17:25Z</time>
      </trkpt>
      <trkpt lat="47.80514" lon="-3.39646">
        <ele>46.28</ele>
        <time>2015-09-06T07:17:26Z</time>
      </trkpt>
      <trkpt lat="47.80517" lon="-3.39645">
        <ele>46.28</ele>
        <time>2015-09-06T07:17:27Z</time>
      </trkpt>
      <trkpt lat="47.8052" lon="-3.39641">
        <ele>45.8</ele>
        <time>2015-09-06T07:17:28Z</time>
      </trkpt>
      <trkpt lat="47.80523" lon="-3.39637">
        <ele>45.32</ele>
        <time>2015-09-06T07:17:29Z</time>
      </trkpt>
      <trkpt lat="47.80525" lon="-3.39633">
        <ele>45.32</ele>
        <time>2015-09-06T07:17:30Z</time>
      </trkpt>
      <trkpt lat="47.80527" lon="-3.39629">
        <ele>45.32</ele>
        <time>2015-09-06T07:17:31Z</time>
      </trkpt>
      <trkpt lat="47.80528" lon="-3.39625">
        <ele>45.32</ele>
        <time>2015-09-06T07:17:32Z</time>
      </trkpt>
      <trkpt lat="47.80528" lon="-3.39621">
        <ele>44.84</ele>
        <time>2015-09-06T07:17:33Z</time>
      </trkpt>
      <trkpt lat="47.80527" lon="-3.39617">
        <ele>44.84</ele>
        <time>2015-09-06T07:17:34Z</time>
      </trkpt>
      <trkpt lat="47.80527" lon="-3.39611">
        <ele>44.84</ele>
        <time>2015-09-06T07:17:35Z</time>
      </trkpt>
      <trkpt lat="47.80526" lon="-3.39606">
        <ele>44.84</ele>
        <time>2015-09-06T07:17:36Z</time>
      </trkpt>
      <trkpt lat="47.80525" lon="-3.39602">
        <ele>44.84</ele>
        <time>2015-09-06T07:17:37Z</time>
      </trkpt>
      <trkpt lat="47.80524" lon="-3.39599">
        <ele>44.84</ele>
        <time>2015-09-06T07:17:38Z</time>
      </trkpt>
      <trkpt lat="47.80524" lon="-3.39595">
        <ele>44.84</ele>
        <time>2015-09-06T07:17:39Z</time>
      </trkpt>
      <trkpt lat="47.80523" lon="-3.3959">
        <ele>44.84</ele>
        <time>2015-09-06T07:17:40Z</time>
      </trkpt>
      <trkpt lat="47.80523" lon="-3.39586">
        <ele>44.84</ele>
        <time>2015-09-06T07:17:41Z</time>
      </trkpt>
      <trkpt lat="47.80522" lon="-3.39581">
        <ele>43.88</ele>
        <time>2015-09-06T07:17:42Z</time>
      </trkpt>
      <trkpt lat="47.80523" lon="-3.39578">
        <ele>43.88</ele>
        <time>2015-09-06T07:17:43Z</time>
      </trkpt>
      <trkpt lat="47.80525" lon="-3.39575">
        <ele>44.36</ele>
        <time>2015-09-06T07:17:44Z</time>
      </trkpt>
      <trkpt lat="47.80527" lon="-3.39573">
        <ele>43.4</ele>
        <time>2015-09-06T07:17:45Z</time>
      </trkpt>
      <trkpt lat="47.80529" lon="-3.39572">
        <ele>42.92</ele>
        <time>2015-09-06T07:17:46Z</time>
      </trkpt>
      <trkpt lat="47.80532" lon="-3.39571">
        <ele>42.92</ele>
        <time>2015-09-06T07:17:47Z</time>
      </trkpt>
      <trkpt lat="47.80535" lon="-3.3957">
        <ele>42.44</ele>
        <time>2015-09-06T07:17:48Z</time>
      </trkpt>
      <trkpt lat="47.80538" lon="-3.3957">
        <ele>42.92</ele>
        <time>2015-09-06T07:17:49Z</time>
      </trkpt>
      <trkpt lat="47.80542" lon="-3.39571">
        <ele>41.95</ele>
        <time>2015-09-06T07:17:50Z</time>
      </trkpt>
      <trkpt lat="47.80545" lon="-3.39574">
        <ele>41.95</ele>
        <time>2015-09-06T07:17:51Z</time>
      </trkpt>
      <trkpt lat="47.80546" lon="-3.39577">
        <ele>41.95</ele>
        <time>2015-09-06T07:17:52Z</time>
      </trkpt>
      <trkpt lat="47.80548" lon="-3.39581">
        <ele>41.95</ele>
        <time>2015-09-06T07:17:53Z</time>
      </trkpt>
      <trkpt lat="47.80547" lon="-3.39584">
        <ele>41.95</ele>
        <time>2015-09-06T07:17:54Z</time>
      </trkpt>
      <trkpt lat="47.80547" lon="-3.39587">
        <ele>41.95</ele>
        <time>2015-09-06T07:17:55Z</time>
      </trkpt>
      <trkpt lat="47.80547" lon="-3.3959">
        <ele>41.95</ele>
        <time>2015-09-06T07:17:56Z</time>
      </trkpt>
      <trkpt lat="47.80547" lon="-3.39593">
        <ele>41.95</ele>
        <time>2015-09-06T07:17:57Z</time>
      </trkpt>
      <trkpt lat="47.80546" lon="-3.39596">
        <ele>41.95</ele>
        <time>2015-09-06T07:17:58Z</time>
      </trkpt>
      <trkpt lat="47.80545" lon="-3.39599">
        <ele>43.4</ele>
        <time>2015-09-06T07:17:59Z</time>
      </trkpt>
      <trkpt lat="47.80544" lon="-3.39601">
        <ele>43.88</ele>
        <time>2015-09-06T07:18:00Z</time>
      </trkpt>
      <trkpt lat="47.80545" lon="-3.39603">
        <ele>43.88</ele>
        <time>2015-09-06T07:18:01Z</time>
      </trkpt>
      <trkpt lat="47.80545" lon="-3.39606">
        <ele>44.36</ele>
        <time>2015-09-06T07:18:02Z</time>
      </trkpt>
      <trkpt lat="47.80546" lon="-3.39607">
        <ele>44.36</ele>
        <time>2015-09-06T07:18:03Z</time>
      </trkpt>
      <trkpt lat="47.80546" lon="-3.3961">
        <ele>44.36</ele>
        <time>2015-09-06T07:18:04Z</time>
      </trkpt>
      <trkpt lat="47.80546" lon="-3.39613">
        <ele>44.36</ele>
        <time>2015-09-06T07:18:05Z</time>
      </trkpt>
      <trkpt lat="47.80545" lon="-3.39616">
        <ele>44.84</ele>
        <time>2015-09-06T07:18:06Z</time>
      </trkpt>
      <trkpt lat="47.80544" lon="-3.39619">
        <ele>44.84</ele>
        <time>2015-09-06T07:18:07Z</time>
      </trkpt>
      <trkpt lat="47.80543" lon="-3.39621">
        <ele>45.32</ele>
        <time>2015-09-06T07:18:08Z</time>
      </trkpt>
      <trkpt lat="47.80542" lon="-3.39623">
        <ele>45.32</ele>
        <time>2015-09-06T07:18:09Z</time>
      </trkpt>
      <trkpt lat="47.80541" lon="-3.39626">
        <ele>45.32</ele>
        <time>2015-09-06T07:18:10Z</time>
      </trkpt>
      <trkpt lat="47.80541" lon="-3.3963">
        <ele>45.32</ele>
        <time>2015-09-06T07:18:11Z</time>
      </trkpt>
      <trkpt lat="47.8054" lon="-3.39634">
        <ele>45.8</ele>
        <time>2015-09-06T07:18:12Z</time>
      </trkpt>
      <trkpt lat="47.80539" lon="-3.39637">
        <ele>45.8</ele>
        <time>2015-09-06T07:18:13Z</time>
      </trkpt>
      <trkpt lat="47.80538" lon="-3.3964">
        <ele>45.8</ele>
        <time>2015-09-06T07:18:14Z</time>
      </trkpt>
      <trkpt lat="47.80538" lon="-3.39644">
        <ele>45.8</ele>
        <time>2015-09-06T07:18:15Z</time>
      </trkpt>
      <trkpt lat="47.80538" lon="-3.39647">
        <ele>46.28</ele>
        <time>2015-09-06T07:18:16Z</time>
      </trkpt>
      <trkpt lat="47.80537" lon="-3.39649">
        <ele>46.28</ele>
        <time>2015-09-06T07:18:17Z</time>
      </trkpt>
      <trkpt lat="47.80536" lon="-3.39652">
        <ele>46.28</ele>
        <time>2015-09-06T07:18:18Z</time>
      </trkpt>
      <trkpt lat="47.80534" lon="-3.39655">
        <ele>46.28</ele>
        <time>2015-09-06T07:18:19Z</time>
      </trkpt>
      <trkpt lat="47.80533" lon="-3.39659">
        <ele>46.28</ele>
        <time>2015-09-06T07:18:20Z</time>
      </trkpt>
      <trkpt lat="47.80532" lon="-3.39662">
        <ele>46.76</ele>
        <time>2015-09-06T07:18:21Z</time>
      </trkpt>
      <trkpt lat="47.80531" lon="-3.39665">
        <ele>46.76</ele>
        <time>2015-09-06T07:18:22Z</time>
      </trkpt>
      <trkpt lat="47.8053" lon="-3.39667">
        <ele>46.76</ele>
        <time>2015-09-06T07:18:23Z</time>
      </trkpt>
      <trkpt lat="47.80528" lon="-3.39669">
        <ele>46.76</ele>
        <time>2015-09-06T07:18:24Z</time>
      </trkpt>
      <trkpt lat="47.80526" lon="-3.39671">
        <ele>46.76</ele>
        <time>2015-09-06T07:18:25Z</time>
      </trkpt>
      <trkpt lat="47.80524" lon="-3.39674">
        <ele>47.24</ele>
        <time>2015-09-06T07:18:26Z</time>
      </trkpt>
      <trkpt lat="47.80522" lon="-3.39676">
        <ele>47.24</ele>
        <time>2015-09-06T07:18:27Z</time>
      </trkpt>
      <trkpt lat="47.80521" lon="-3.39678">
        <ele>47.72</ele>
        <time>2015-09-06T07:18:28Z</time>
      </trkpt>
      <trkpt lat="47.80519" lon="-3.39678">
        <ele>47.72</ele>
        <time>2015-09-06T07:18:29Z</time>
      </trkpt>
      <trkpt lat="47.80518" lon="-3.39679">
        <ele>48.2</ele>
        <time>2015-09-06T07:18:30Z</time>
      </trkpt>
      <trkpt lat="47.80517" lon="-3.39681">
        <ele>48.2</ele>
        <time>2015-09-06T07:18:31Z</time>
      </trkpt>
      <trkpt lat="47.80517" lon="-3.39682">
        <ele>48.2</ele>
        <time>2015-09-06T07:18:32Z</time>
      </trkpt>
      <trkpt lat="47.80516" lon="-3.39684">
        <ele>48.2</ele>
        <time>2015-09-06T07:18:33Z</time>
      </trkpt>
      <trkpt lat="47.80516" lon="-3.39686">
        <ele>48.2</ele>
        <time>2015-09-06T07:18:34Z</time>
      </trkpt>
      <trkpt lat="47.80516" lon="-3.3969">
        <ele>48.2</ele>
        <time>2015-09-06T07:18:35Z</time>
      </trkpt>
      <trkpt lat="47.80518" lon="-3.39692">
        <ele>48.2</ele>
        <time>2015-09-06T07:18:36Z</time>
      </trkpt>
      <trkpt lat="47.80519" lon="-3.39694">
        <ele>48.2</ele>
        <time>2015-09-06T07:18:37Z</time>
      </trkpt>
      <trkpt lat="47.80521" lon="-3.39695">
        <ele>48.2</ele>
        <time>2015-09-06T07:18:38Z</time>
      </trkpt>
      <trkpt lat="47.80524" lon="-3.39696">
        <ele>46.76</ele>
        <time>2015-09-06T07:18:39Z</time>
      </trkpt>
      <trkpt lat="47.80527" lon="-3.39697">
        <ele>46.76</ele>
        <time>2015-09-06T07:18:40Z</time>
      </trkpt>
      <trkpt lat="47.8053" lon="-3.39697">
        <ele>46.28</ele>
        <time>2015-09-06T07:18:41Z</time>
      </trkpt>
      <trkpt lat="47.80533" lon="-3.39697">
        <ele>46.28</ele>
        <time>2015-09-06T07:18:42Z</time>
      </trkpt>
      <trkpt lat="47.80535" lon="-3.39699">
        <ele>45.8</ele>
        <time>2015-09-06T07:18:43Z</time>
      </trkpt>
      <trkpt lat="47.80536" lon="-3.39703">
        <ele>45.8</ele>
        <time>2015-09-06T07:18:44Z</time>
      </trkpt>
      <trkpt lat="47.80536" lon="-3.39706">
        <ele>45.32</ele>
        <time>2015-09-06T07:18:45Z</time>
      </trkpt>
      <trkpt lat="47.80534" lon="-3.39708">
        <ele>45.32</ele>
        <time>2015-09-06T07:18:46Z</time>
      </trkpt>
      <trkpt lat="47.80533" lon="-3.39711">
        <ele>44.84</ele>
        <time>2015-09-06T07:18:47Z</time>
      </trkpt>
      <trkpt lat="47.80531" lon="-3.39713">
        <ele>44.84</ele>
        <time>2015-09-06T07:18:48Z</time>
      </trkpt>
      <trkpt lat="47.8053" lon="-3.39715">
        <ele>44.84</ele>
        <time>2015-09-06T07:18:49Z</time>
      </trkpt>
      <trkpt lat="47.80528" lon="-3.39717">
        <ele>44.84</ele>
        <time>2015-09-06T07:18:50Z</time>
      </trkpt>
      <trkpt lat="47.80526" lon="-3.39719">
        <ele>44.84</ele>
        <time>2015-09-06T07:18:51Z</time>
      </trkpt>
      <trkpt lat="47.80525" lon="-3.3972">
        <ele>46.28</ele>
        <time>2015-09-06T07:18:52Z</time>
      </trkpt>
      <trkpt lat="47.80522" lon="-3.39722">
        <ele>46.28</ele>
        <time>2015-09-06T07:18:53Z</time>
      </trkpt>
      <trkpt lat="47.80521" lon="-3.39723">
        <ele>47.24</ele>
        <time>2015-09-06T07:18:54Z</time>
      </trkpt>
      <trkpt lat="47.80519" lon="-3.39726">
        <ele>47.24</ele>
        <time>2015-09-06T07:18:55Z</time>
      </trkpt>
      <trkpt lat="47.80518" lon="-3.39728">
        <ele>47.24</ele>
        <time>2015-09-06T07:18:56Z</time>
      </trkpt>
      <trkpt lat="47.80516" lon="-3.39731">
        <ele>46.76</ele>
        <time>2015-09-06T07:18:57Z</time>
      </trkpt>
      <trkpt lat="47.80515" lon="-3.39734">
        <ele>47.24</ele>
        <time>2015-09-06T07:18:58Z</time>
      </trkpt>
      <trkpt lat="47.80514" lon="-3.39737">
        <ele>47.24</ele>
        <time>2015-09-06T07:18:59Z</time>
      </trkpt>
      <trkpt lat="47.80512" lon="-3.39739">
        <ele>47.24</ele>
        <time>2015-09-06T07:19:00Z</time>
      </trkpt>
      <trkpt lat="47.80511" lon="-3.39741">
        <ele>47.24</ele>
        <time>2015-09-06T07:19:01Z</time>
      </trkpt>
      <trkpt lat="47.80509" lon="-3.39743">
        <ele>47.24</ele>
        <time>2015-09-06T07:19:02Z</time>
      </trkpt>
      <trkpt lat="47.80507" lon="-3.39746">
        <ele>47.24</ele>
        <time>2015-09-06T07:19:03Z</time>
      </trkpt>
      <trkpt lat="47.80506" lon="-3.39748">
        <ele>47.72</ele>
        <time>2015-09-06T07:19:04Z</time>
      </trkpt>
      <trkpt lat="47.80505" lon="-3.39751">
        <ele>47.72</ele>
        <time>2015-09-06T07:19:05Z</time>
      </trkpt>
      <trkpt lat="47.80503" lon="-3.39753">
        <ele>47.72</ele>
        <time>2015-09-06T07:19:06Z</time>
      </trkpt>
      <trkpt lat="47.80502" lon="-3.39756">
        <ele>47.72</ele>
        <time>2015-09-06T07:19:07Z</time>
      </trkpt>
      <trkpt lat="47.80501" lon="-3.3976">
        <ele>47.72</ele>
        <time>2015-09-06T07:19:08Z</time>
      </trkpt>
      <trkpt lat="47.805" lon="-3.39763">
        <ele>47.72</ele>
        <time>2015-09-06T07:19:09Z</time>
      </trkpt>
      <trkpt lat="47.80499" lon="-3.39766">
        <ele>47.72</ele>
        <time>2015-09-06T07:19:10Z</time>
      </trkpt>
      <trkpt lat="47.80498" lon="-3.39769">
        <ele>47.72</ele>
        <time>2015-09-06T07:19:11Z</time>
      </trkpt>
      <trkpt lat="47.80496" lon="-3.39772">
        <ele>47.72</ele>
        <time>2015-09-06T07:19:12Z</time>
      </trkpt>
      <trkpt lat="47.80493" lon="-3.39774">
        <ele>47.72</ele>
        <time>2015-09-06T07:19:13Z</time>
      </trkpt>
      <trkpt lat="47.80492" lon="-3.39775">
        <ele>47.72</ele>
        <time>2015-09-06T07:19:14Z</time>
      </trkpt>
      <trkpt lat="47.80491" lon="-3.39776">
        <ele>47.72</ele>
        <time>2015-09-06T07:19:15Z</time>
      </trkpt>
      <trkpt lat="47.8049" lon="-3.39778">
        <ele>47.72</ele>
        <time>2015-09-06T07:19:16Z</time>
      </trkpt>
      <trkpt lat="47.80489" lon="-3.39781">
        <ele>47.72</ele>
        <time>2015-09-06T07:19:17Z</time>
      </trkpt>
      <trkpt lat="47.80488" lon="-3.39783">
        <ele>47.72</ele>
        <time>2015-09-06T07:19:18Z</time>
      </trkpt>
      <trkpt lat="47.80486" lon="-3.39785">
        <ele>47.72</ele>
        <time>2015-09-06T07:19:19Z</time>
      </trkpt>
      <trkpt lat="47.80484" lon="-3.39786">
        <ele>47.72</ele>
        <time>2015-09-06T07:19:20Z</time>
      </trkpt>
      <trkpt lat="47.80482" lon="-3.39787">
        <ele>47.72</ele>
        <time>2015-09-06T07:19:21Z</time>
      </trkpt>
      <trkpt lat="47.8048" lon="-3.39787">
        <ele>47.72</ele>
        <time>2015-09-06T07:19:22Z</time>
      </trkpt>
      <trkpt lat="47.80478" lon="-3.39787">
        <ele>47.72</ele>
        <time>2015-09-06T07:19:23Z</time>
      </trkpt>
      <trkpt lat="47.80476" lon="-3.39785">
        <ele>48.68</ele>
        <time>2015-09-06T07:19:24Z</time>
      </trkpt>
      <trkpt lat="47.80474" lon="-3.39785">
        <ele>48.68</ele>
        <time>2015-09-06T07:19:25Z</time>
      </trkpt>
      <trkpt lat="47.80472" lon="-3.39784">
        <ele>48.68</ele>
        <time>2015-09-06T07:19:26Z</time>
      </trkpt>
      <trkpt lat="47.8047" lon="-3.39784">
        <ele>49.16</ele>
        <time>2015-09-06T07:19:27Z</time>
      </trkpt>
      <trkpt lat="47.80468" lon="-3.39785">
        <ele>49.16</ele>
        <time>2015-09-06T07:19:28Z</time>
      </trkpt>
      <trkpt lat="47.80466" lon="-3.39786">
        <ele>49.16</ele>
        <time>2015-09-06T07:19:29Z</time>
      </trkpt>
      <trkpt lat="47.80465" lon="-3.39789">
        <ele>49.16</ele>
        <time>2015-09-06T07:19:30Z</time>
      </trkpt>
      <trkpt lat="47.80465" lon="-3.39792">
        <ele>49.16</ele>
        <time>2015-09-06T07:19:31Z</time>
      </trkpt>
      <trkpt lat="47.80465" lon="-3.39796">
        <ele>49.16</ele>
        <time>2015-09-06T07:19:32Z</time>
      </trkpt>
      <trkpt lat="47.80466" lon="-3.39798">
        <ele>49.16</ele>
        <time>2015-09-06T07:19:33Z</time>
      </trkpt>
      <trkpt lat="47.80467" lon="-3.39799">
        <ele>47.72</ele>
        <time>2015-09-06T07:19:34Z</time>
      </trkpt>
      <trkpt lat="47.80469" lon="-3.398">
        <ele>47.72</ele>
        <time>2015-09-06T07:19:35Z</time>
      </trkpt>
      <trkpt lat="47.80471" lon="-3.39801">
        <ele>47.72</ele>
        <time>2015-09-06T07:19:36Z</time>
      </trkpt>
      <trkpt lat="47.80474" lon="-3.39801">
        <ele>47.24</ele>
        <time>2015-09-06T07:19:37Z</time>
      </trkpt>
      <trkpt lat="47.80477" lon="-3.39802">
        <ele>47.24</ele>
        <time>2015-09-06T07:19:38Z</time>
      </trkpt>
      <trkpt lat="47.80482" lon="-3.39804">
        <ele>46.28</ele>
        <time>2015-09-06T07:19:39Z</time>
      </trkpt>
      <trkpt lat="47.80486" lon="-3.39806">
        <ele>45.8</ele>
        <time>2015-09-06T07:19:40Z</time>
      </trkpt>
      <trkpt lat="47.80491" lon="-3.39807">
        <ele>45.32</ele>
        <time>2015-09-06T07:19:41Z</time>
      </trkpt>
      <trkpt lat="47.80495" lon="-3.39808">
        <ele>44.84</ele>
        <time>2015-09-06T07:19:42Z</time>
      </trkpt>
      <trkpt lat="47.80498" lon="-3.39809">
        <ele>44.36</ele>
        <time>2015-09-06T07:19:43Z</time>
      </trkpt>
      <trkpt lat="47.80501" lon="-3.39809">
        <ele>43.4</ele>
        <time>2015-09-06T07:19:44Z</time>
      </trkpt>
      <trkpt lat="47.80504" lon="-3.39806">
        <ele>43.4</ele>
        <time>2015-09-06T07:19:45Z</time>
      </trkpt>
      <trkpt lat="47.80505" lon="-3.39804">
        <ele>43.4</ele>
        <time>2015-09-06T07:19:46Z</time>
      </trkpt>
      <trkpt lat="47.80506" lon="-3.39803">
        <ele>43.4</ele>
        <time>2015-09-06T07:19:47Z</time>
      </trkpt>
      <trkpt lat="47.80509" lon="-3.39803">
        <ele>43.4</ele>
        <time>2015-09-06T07:19:48Z</time>
      </trkpt>
      <trkpt lat="47.80512" lon="-3.39802">
        <ele>42.92</ele>
        <time>2015-09-06T07:19:49Z</time>
      </trkpt>
      <trkpt lat="47.80515" lon="-3.39801">
        <ele>41.95</ele>
        <time>2015-09-06T07:19:50Z</time>
      </trkpt>
      <trkpt lat="47.80518" lon="-3.398">
        <ele>40.99</ele>
        <time>2015-09-06T07:19:51Z</time>
      </trkpt>
      <trkpt lat="47.8052" lon="-3.39798">
        <ele>40.03</ele>
        <time>2015-09-06T07:19:52Z</time>
      </trkpt>
      <trkpt lat="47.80523" lon="-3.39796">
        <ele>39.55</ele>
        <time>2015-09-06T07:19:53Z</time>
      </trkpt>
      <trkpt lat="47.80526" lon="-3.39794">
        <ele>39.07</ele>
        <time>2015-09-06T07:19:54Z</time>
      </trkpt>
      <trkpt lat="47.80528" lon="-3.39791">
        <ele>38.11</ele>
        <time>2015-09-06T07:19:55Z</time>
      </trkpt>
      <trkpt lat="47.80532" lon="-3.3979">
        <ele>37.15</ele>
        <time>2015-09-06T07:19:56Z</time>
      </trkpt>
      <trkpt lat="47.80535" lon="-3.39788">
        <ele>36.19</ele>
        <time>2015-09-06T07:19:57Z</time>
      </trkpt>
      <trkpt lat="47.80538" lon="-3.39787">
        <ele>35.23</ele>
        <time>2015-09-06T07:19:58Z</time>
      </trkpt>
      <trkpt lat="47.80541" lon="-3.39784">
        <ele>34.74</ele>
        <time>2015-09-06T07:19:59Z</time>
      </trkpt>
      <trkpt lat="47.80544" lon="-3.39781">
        <ele>34.26</ele>
        <time>2015-09-06T07:20:00Z</time>
      </trkpt>
      <trkpt lat="47.80547" lon="-3.39778">
        <ele>34.26</ele>
        <time>2015-09-06T07:20:01Z</time>
      </trkpt>
      <trkpt lat="47.80551" lon="-3.39776">
        <ele>33.3</ele>
        <time>2015-09-06T07:20:02Z</time>
      </trkpt>
      <trkpt lat="47.80555" lon="-3.39775">
        <ele>32.82</ele>
        <time>2015-09-06T07:20:03Z</time>
      </trkpt>
      <trkpt lat="47.80559" lon="-3.39774">
        <ele>31.86</ele>
        <time>2015-09-06T07:20:04Z</time>
      </trkpt>
      <trkpt lat="47.80563" lon="-3.39773">
        <ele>31.38</ele>
        <time>2015-09-06T07:20:05Z</time>
      </trkpt>
      <trkpt lat="47.80567" lon="-3.39771">
        <ele>30.42</ele>
        <time>2015-09-06T07:20:06Z</time>
      </trkpt>
      <trkpt lat="47.80569" lon="-3.39771">
        <ele>29.94</ele>
        <time>2015-09-06T07:20:07Z</time>
      </trkpt>
      <trkpt lat="47.80571" lon="-3.3977">
        <ele>29.94</ele>
        <time>2015-09-06T07:20:08Z</time>
      </trkpt>
      <trkpt lat="47.80573" lon="-3.39771">
        <ele>29.46</ele>
        <time>2015-09-06T07:20:09Z</time>
      </trkpt>
      <trkpt lat="47.80574" lon="-3.39772">
        <ele>29.46</ele>
        <time>2015-09-06T07:20:10Z</time>
      </trkpt>
      <trkpt lat="47.80576" lon="-3.39771">
        <ele>28.5</ele>
        <time>2015-09-06T07:20:11Z</time>
      </trkpt>
      <trkpt lat="47.8058" lon="-3.3977">
        <ele>28.02</ele>
        <time>2015-09-06T07:20:12Z</time>
      </trkpt>
      <trkpt lat="47.80583" lon="-3.39768">
        <ele>27.53</ele>
        <time>2015-09-06T07:20:13Z</time>
      </trkpt>
      <trkpt lat="47.80586" lon="-3.39765">
        <ele>27.53</ele>
        <time>2015-09-06T07:20:14Z</time>
      </trkpt>
      <trkpt lat="47.80589" lon="-3.39762">
        <ele>27.05</ele>
        <time>2015-09-06T07:20:15Z</time>
      </trkpt>
      <trkpt lat="47.80592" lon="-3.39759">
        <ele>27.05</ele>
        <time>2015-09-06T07:20:16Z</time>
      </trkpt>
      <trkpt lat="47.80595" lon="-3.39757">
        <ele>27.05</ele>
        <time>2015-09-06T07:20:17Z</time>
      </trkpt>
      <trkpt lat="47.80598" lon="-3.39753">
        <ele>26.09</ele>
        <time>2015-09-06T07:20:18Z</time>
      </trkpt>
      <trkpt lat="47.80602" lon="-3.39749">
        <ele>25.13</ele>
        <time>2015-09-06T07:20:19Z</time>
      </trkpt>
      <trkpt lat="47.80605" lon="-3.39746">
        <ele>25.61</ele>
        <time>2015-09-06T07:20:20Z</time>
      </trkpt>
      <trkpt lat="47.8061" lon="-3.39743">
        <ele>24.65</ele>
        <time>2015-09-06T07:20:21Z</time>
      </trkpt>
      <trkpt lat="47.80613" lon="-3.3974">
        <ele>24.17</ele>
        <time>2015-09-06T07:20:22Z</time>
      </trkpt>
      <trkpt lat="47.80617" lon="-3.39739">
        <ele>23.21</ele>
        <time>2015-09-06T07:20:23Z</time>
      </trkpt>
      <trkpt lat="47.80621" lon="-3.3974">
        <ele>22.73</ele>
        <time>2015-09-06T07:20:24Z</time>
      </trkpt>
      <trkpt lat="47.80625" lon="-3.39742">
        <ele>22.25</ele>
        <time>2015-09-06T07:20:25Z</time>
      </trkpt>
      <trkpt lat="47.80627" lon="-3.39745">
        <ele>21.77</ele>
        <time>2015-09-06T07:20:26Z</time>
      </trkpt>
      <trkpt lat="47.8063" lon="-3.39749">
        <ele>20.81</ele>
        <time>2015-09-06T07:20:27Z</time>
      </trkpt>
      <trkpt lat="47.80638" lon="-3.3975">
        <ele>19.84</ele>
        <time>2015-09-06T07:20:28Z</time>
      </trkpt>
      <trkpt lat="47.80642" lon="-3.39753">
        <ele>19.36</ele>
        <time>2015-09-06T07:20:29Z</time>
      </trkpt>
      <trkpt lat="47.80647" lon="-3.39756">
        <ele>18.88</ele>
        <time>2015-09-06T07:20:30Z</time>
      </trkpt>
      <trkpt lat="47.80651" lon="-3.3976">
        <ele>17.92</ele>
        <time>2015-09-06T07:20:31Z</time>
      </trkpt>
      <trkpt lat="47.80654" lon="-3.39762">
        <ele>17.44</ele>
        <time>2015-09-06T07:20:32Z</time>
      </trkpt>
      <trkpt lat="47.80657" lon="-3.39765">
        <ele>16.96</ele>
        <time>2015-09-06T07:20:33Z</time>
      </trkpt>
      <trkpt lat="47.80661" lon="-3.39767">
        <ele>16.48</ele>
        <time>2015-09-06T07:20:34Z</time>
      </trkpt>
      <trkpt lat="47.80664" lon="-3.39767">
        <ele>16.48</ele>
        <time>2015-09-06T07:20:35Z</time>
      </trkpt>
      <trkpt lat="47.80667" lon="-3.39767">
        <ele>16</ele>
        <time>2015-09-06T07:20:36Z</time>
      </trkpt>
      <trkpt lat="47.8067" lon="-3.39769">
        <ele>16</ele>
        <time>2015-09-06T07:20:37Z</time>
      </trkpt>
      <trkpt lat="47.80672" lon="-3.39772">
        <ele>16</ele>
        <time>2015-09-06T07:20:38Z</time>
      </trkpt>
      <trkpt lat="47.80674" lon="-3.39775">
        <ele>16</ele>
        <time>2015-09-06T07:20:39Z</time>
      </trkpt>
      <trkpt lat="47.80675" lon="-3.39778">
        <ele>16.48</ele>
        <time>2015-09-06T07:20:40Z</time>
      </trkpt>
      <trkpt lat="47.80677" lon="-3.39779">
        <ele>17.92</ele>
        <time>2015-09-06T07:20:41Z</time>
      </trkpt>
      <trkpt lat="47.80678" lon="-3.39778">
        <ele>17.92</ele>
        <time>2015-09-06T07:20:42Z</time>
      </trkpt>
      <trkpt lat="47.8068" lon="-3.39777">
        <ele>17.92</ele>
        <time>2015-09-06T07:20:43Z</time>
      </trkpt>
      <trkpt lat="47.80683" lon="-3.39775">
        <ele>17.92</ele>
        <time>2015-09-06T07:20:44Z</time>
      </trkpt>
      <trkpt lat="47.80685" lon="-3.39773">
        <ele>17.92</ele>
        <time>2015-09-06T07:20:45Z</time>
      </trkpt>
      <trkpt lat="47.80689" lon="-3.39773">
        <ele>17.92</ele>
        <time>2015-09-06T07:20:46Z</time>
      </trkpt>
      <trkpt lat="47.80692" lon="-3.39776">
        <ele>16</ele>
        <time>2015-09-06T07:20:47Z</time>
      </trkpt>
      <trkpt lat="47.80695" lon="-3.39778">
        <ele>16</ele>
        <time>2015-09-06T07:20:48Z</time>
      </trkpt>
      <trkpt lat="47.80698" lon="-3.39782">
        <ele>15.52</ele>
        <time>2015-09-06T07:20:49Z</time>
      </trkpt>
      <trkpt lat="47.80701" lon="-3.39787">
        <ele>15.52</ele>
        <time>2015-09-06T07:20:50Z</time>
      </trkpt>
      <trkpt lat="47.80703" lon="-3.39793">
        <ele>15.04</ele>
        <time>2015-09-06T07:20:51Z</time>
      </trkpt>
      <trkpt lat="47.80705" lon="-3.39798">
        <ele>15.04</ele>
        <time>2015-09-06T07:20:52Z</time>
      </trkpt>
      <trkpt lat="47.80706" lon="-3.39802">
        <ele>15.04</ele>
        <time>2015-09-06T07:20:53Z</time>
      </trkpt>
      <trkpt lat="47.80708" lon="-3.39807">
        <ele>14.56</ele>
        <time>2015-09-06T07:20:54Z</time>
      </trkpt>
      <trkpt lat="47.80709" lon="-3.39812">
        <ele>14.08</ele>
        <time>2015-09-06T07:20:55Z</time>
      </trkpt>
      <trkpt lat="47.8071" lon="-3.39818">
        <ele>14.08</ele>
        <time>2015-09-06T07:20:56Z</time>
      </trkpt>
      <trkpt lat="47.80711" lon="-3.39826">
        <ele>13.12</ele>
        <time>2015-09-06T07:20:57Z</time>
      </trkpt>
      <trkpt lat="47.80712" lon="-3.39833">
        <ele>13.12</ele>
        <time>2015-09-06T07:20:58Z</time>
      </trkpt>
      <trkpt lat="47.80714" lon="-3.39841">
        <ele>12.63</ele>
        <time>2015-09-06T07:20:59Z</time>
      </trkpt>
      <trkpt lat="47.80716" lon="-3.39848">
        <ele>12.15</ele>
        <time>2015-09-06T07:21:00Z</time>
      </trkpt>
      <trkpt lat="47.80718" lon="-3.39855">
        <ele>12.15</ele>
        <time>2015-09-06T07:21:01Z</time>
      </trkpt>
      <trkpt lat="47.80721" lon="-3.39861">
        <ele>12.15</ele>
        <time>2015-09-06T07:21:02Z</time>
      </trkpt>
      <trkpt lat="47.80725" lon="-3.39867">
        <ele>11.67</ele>
        <time>2015-09-06T07:21:03Z</time>
      </trkpt>
      <trkpt lat="47.80728" lon="-3.39872">
        <ele>11.67</ele>
        <time>2015-09-06T07:21:04Z</time>
      </trkpt>
      <trkpt lat="47.80732" lon="-3.39876">
        <ele>11.67</ele>
        <time>2015-09-06T07:21:05Z</time>
      </trkpt>
      <trkpt lat="47.80737" lon="-3.39881">
        <ele>11.67</ele>
        <time>2015-09-06T07:21:06Z</time>
      </trkpt>
      <trkpt lat="47.80742" lon="-3.39885">
        <ele>11.19</ele>
        <time>2015-09-06T07:21:07Z</time>
      </trkpt>
      <trkpt lat="47.80748" lon="-3.39889">
        <ele>11.19</ele>
        <time>2015-09-06T07:21:08Z</time>
      </trkpt>
      <trkpt lat="47.80753" lon="-3.39892">
        <ele>11.19</ele>
        <time>2015-09-06T07:21:09Z</time>
      </trkpt>
      <trkpt lat="47.80758" lon="-3.39895">
        <ele>11.19</ele>
        <time>2015-09-06T07:21:10Z</time>
      </trkpt>
      <trkpt lat="47.80763" lon="-3.39898">
        <ele>11.19</ele>
        <time>2015-09-06T07:21:11Z</time>
      </trkpt>
      <trkpt lat="47.80768" lon="-3.399">
        <ele>11.19</ele>
        <time>2015-09-06T07:21:12Z</time>
      </trkpt>
      <trkpt lat="47.80773" lon="-3.39903">
        <ele>11.19</ele>
        <time>2015-09-06T07:21:13Z</time>
      </trkpt>
      <trkpt lat="47.80778" lon="-3.39906">
        <ele>11.19</ele>
        <time>2015-09-06T07:21:14Z</time>
      </trkpt>
      <trkpt lat="47.80782" lon="-3.39908">
        <ele>11.19</ele>
        <time>2015-09-06T07:21:15Z</time>
      </trkpt>
      <trkpt lat="47.80787" lon="-3.39912">
        <ele>11.19</ele>
        <time>2015-09-06T07:21:16Z</time>
      </trkpt>
      <trkpt lat="47.80791" lon="-3.39916">
        <ele>11.19</ele>
        <time>2015-09-06T07:21:17Z</time>
      </trkpt>
      <trkpt lat="47.80795" lon="-3.39922">
        <ele>12.63</ele>
        <time>2015-09-06T07:21:18Z</time>
      </trkpt>
      <trkpt lat="47.80798" lon="-3.39926">
        <ele>13.6</ele>
        <time>2015-09-06T07:21:19Z</time>
      </trkpt>
      <trkpt lat="47.80801" lon="-3.39929">
        <ele>14.08</ele>
        <time>2015-09-06T07:21:20Z</time>
      </trkpt>
      <trkpt lat="47.80804" lon="-3.39931">
        <ele>14.08</ele>
        <time>2015-09-06T07:21:21Z</time>
      </trkpt>
      <trkpt lat="47.80808" lon="-3.39934">
        <ele>14.56</ele>
        <time>2015-09-06T07:21:22Z</time>
      </trkpt>
      <trkpt lat="47.80811" lon="-3.39936">
        <ele>14.56</ele>
        <time>2015-09-06T07:21:23Z</time>
      </trkpt>
      <trkpt lat="47.80815" lon="-3.39937">
        <ele>14.56</ele>
        <time>2015-09-06T07:21:24Z</time>
      </trkpt>
      <trkpt lat="47.80819" lon="-3.39938">
        <ele>14.56</ele>
        <time>2015-09-06T07:21:25Z</time>
      </trkpt>
      <trkpt lat="47.80823" lon="-3.3994">
        <ele>14.56</ele>
        <time>2015-09-06T07:21:26Z</time>
      </trkpt>
      <trkpt lat="47.80828" lon="-3.39941">
        <ele>14.56</ele>
        <time>2015-09-06T07:21:27Z</time>
      </trkpt>
      <trkpt lat="47.80831" lon="-3.39943">
        <ele>14.56</ele>
        <time>2015-09-06T07:21:28Z</time>
      </trkpt>
      <trkpt lat="47.80835" lon="-3.39945">
        <ele>14.56</ele>
        <time>2015-09-06T07:21:29Z</time>
      </trkpt>
      <trkpt lat="47.8084" lon="-3.39948">
        <ele>14.56</ele>
        <time>2015-09-06T07:21:30Z</time>
      </trkpt>
      <trkpt lat="47.80844" lon="-3.3995">
        <ele>14.56</ele>
        <time>2015-09-06T07:21:31Z</time>
      </trkpt>
      <trkpt lat="47.80848" lon="-3.39953">
        <ele>14.56</ele>
        <time>2015-09-06T07:21:32Z</time>
      </trkpt>
      <trkpt lat="47.80852" lon="-3.39955">
        <ele>14.56</ele>
        <time>2015-09-06T07:21:33Z</time>
      </trkpt>
      <trkpt lat="47.80856" lon="-3.39957">
        <ele>14.56</ele>
        <time>2015-09-06T07:21:34Z</time>
      </trkpt>
      <trkpt lat="47.80859" lon="-3.39959">
        <ele>14.56</ele>
        <time>2015-09-06T07:21:35Z</time>
      </trkpt>
      <trkpt lat="47.80863" lon="-3.39962">
        <ele>13.6</ele>
        <time>2015-09-06T07:21:36Z</time>
      </trkpt>
      <trkpt lat="47.80866" lon="-3.39964">
        <ele>13.6</ele>
        <time>2015-09-06T07:21:37Z</time>
      </trkpt>
      <trkpt lat="47.80868" lon="-3.39967">
        <ele>13.12</ele>
        <time>2015-09-06T07:21:38Z</time>
      </trkpt>
      <trkpt lat="47.80872" lon="-3.39971">
        <ele>13.12</ele>
        <time>2015-09-06T07:21:39Z</time>
      </trkpt>
      <trkpt lat="47.80875" lon="-3.39976">
        <ele>12.15</ele>
        <time>2015-09-06T07:21:40Z</time>
      </trkpt>
      <trkpt lat="47.80877" lon="-3.39981">
        <ele>11.67</ele>
        <time>2015-09-06T07:21:41Z</time>
      </trkpt>
      <trkpt lat="47.8088" lon="-3.39986">
        <ele>11.19</ele>
        <time>2015-09-06T07:21:42Z</time>
      </trkpt>
      <trkpt lat="47.80883" lon="-3.39991">
        <ele>10.23</ele>
        <time>2015-09-06T07:21:43Z</time>
      </trkpt>
      <trkpt lat="47.80885" lon="-3.39997">
        <ele>9.75</ele>
        <time>2015-09-06T07:21:44Z</time>
      </trkpt>
      <trkpt lat="47.80887" lon="-3.40001">
        <ele>9.75</ele>
        <time>2015-09-06T07:21:45Z</time>
      </trkpt>
      <trkpt lat="47.80888" lon="-3.40005">
        <ele>8.79</ele>
        <time>2015-09-06T07:21:46Z</time>
      </trkpt>
      <trkpt lat="47.80891" lon="-3.4001">
        <ele>8.31</ele>
        <time>2015-09-06T07:21:47Z</time>
      </trkpt>
      <trkpt lat="47.80894" lon="-3.40015">
        <ele>7.35</ele>
        <time>2015-09-06T07:21:48Z</time>
      </trkpt>
      <trkpt lat="47.80896" lon="-3.40022">
        <ele>7.35</ele>
        <time>2015-09-06T07:21:49Z</time>
      </trkpt>
      <trkpt lat="47.80898" lon="-3.4003">
        <ele>6.39</ele>
        <time>2015-09-06T07:21:50Z</time>
      </trkpt>
      <trkpt lat="47.80899" lon="-3.40038">
        <ele>6.39</ele>
        <time>2015-09-06T07:21:51Z</time>
      </trkpt>
      <trkpt lat="47.809" lon="-3.40046">
        <ele>6.87</ele>
        <time>2015-09-06T07:21:52Z</time>
      </trkpt>
      <trkpt lat="47.80902" lon="-3.40054">
        <ele>6.87</ele>
        <time>2015-09-06T07:21:53Z</time>
      </trkpt>
      <trkpt lat="47.80903" lon="-3.40062">
        <ele>6.39</ele>
        <time>2015-09-06T07:21:54Z</time>
      </trkpt>
      <trkpt lat="47.80904" lon="-3.40072">
        <ele>6.39</ele>
        <time>2015-09-06T07:21:55Z</time>
      </trkpt>
      <trkpt lat="47.80905" lon="-3.40081">
        <ele>6.39</ele>
        <time>2015-09-06T07:21:56Z</time>
      </trkpt>
      <trkpt lat="47.80906" lon="-3.40091">
        <ele>5.42</ele>
        <time>2015-09-06T07:21:57Z</time>
      </trkpt>
      <trkpt lat="47.80907" lon="-3.40101">
        <ele>4.94</ele>
        <time>2015-09-06T07:21:58Z</time>
      </trkpt>
      <trkpt lat="47.80907" lon="-3.40111">
        <ele>5.42</ele>
        <time>2015-09-06T07:21:59Z</time>
      </trkpt>
      <trkpt lat="47.80907" lon="-3.40122">
        <ele>4.94</ele>
        <time>2015-09-06T07:22:00Z</time>
      </trkpt>
      <trkpt lat="47.80906" lon="-3.40132">
        <ele>5.42</ele>
        <time>2015-09-06T07:22:01Z</time>
      </trkpt>
      <trkpt lat="47.80904" lon="-3.40142">
        <ele>4.94</ele>
        <time>2015-09-06T07:22:02Z</time>
      </trkpt>
      <trkpt lat="47.80902" lon="-3.40151">
        <ele>4.94</ele>
        <time>2015-09-06T07:22:03Z</time>
      </trkpt>
      <trkpt lat="47.809" lon="-3.4016">
        <ele>4.94</ele>
        <time>2015-09-06T07:22:04Z</time>
      </trkpt>
      <trkpt lat="47.80898" lon="-3.40169">
        <ele>4.94</ele>
        <time>2015-09-06T07:22:05Z</time>
      </trkpt>
      <trkpt lat="47.80895" lon="-3.40177">
        <ele>4.94</ele>
        <time>2015-09-06T07:22:06Z</time>
      </trkpt>
      <trkpt lat="47.80893" lon="-3.40184">
        <ele>4.94</ele>
        <time>2015-09-06T07:22:07Z</time>
      </trkpt>
      <trkpt lat="47.80891" lon="-3.40192">
        <ele>4.94</ele>
        <time>2015-09-06T07:22:08Z</time>
      </trkpt>
      <trkpt lat="47.80888" lon="-3.40201">
        <ele>4.94</ele>
        <time>2015-09-06T07:22:09Z</time>
      </trkpt>
      <trkpt lat="47.80886" lon="-3.40209">
        <ele>4.94</ele>
        <time>2015-09-06T07:22:10Z</time>
      </trkpt>
      <trkpt lat="47.80883" lon="-3.40218">
        <ele>4.94</ele>
        <time>2015-09-06T07:22:11Z</time>
      </trkpt>
      <trkpt lat="47.8088" lon="-3.40225">
        <ele>4.94</ele>
        <time>2015-09-06T07:22:12Z</time>
      </trkpt>
      <trkpt lat="47.80877" lon="-3.40233">
        <ele>4.94</ele>
        <time>2015-09-06T07:22:13Z</time>
      </trkpt>
      <trkpt lat="47.80874" lon="-3.40242">
        <ele>4.94</ele>
        <time>2015-09-06T07:22:14Z</time>
      </trkpt>
      <trkpt lat="47.80872" lon="-3.40249">
        <ele>4.94</ele>
        <time>2015-09-06T07:22:15Z</time>
      </trkpt>
      <trkpt lat="47.80869" lon="-3.40257">
        <ele>4.94</ele>
        <time>2015-09-06T07:22:16Z</time>
      </trkpt>
      <trkpt lat="47.80866" lon="-3.40264">
        <ele>4.94</ele>
        <time>2015-09-06T07:22:17Z</time>
      </trkpt>
      <trkpt lat="47.80862" lon="-3.40271">
        <ele>4.94</ele>
        <time>2015-09-06T07:22:18Z</time>
      </trkpt>
      <trkpt lat="47.80859" lon="-3.40278">
        <ele>4.94</ele>
        <time>2015-09-06T07:22:19Z</time>
      </trkpt>
      <trkpt lat="47.80856" lon="-3.40284">
        <ele>4.94</ele>
        <time>2015-09-06T07:22:20Z</time>
      </trkpt>
      <trkpt lat="47.80853" lon="-3.4029">
        <ele>4.94</ele>
        <time>2015-09-06T07:22:21Z</time>
      </trkpt>
      <trkpt lat="47.80851" lon="-3.40296">
        <ele>4.94</ele>
        <time>2015-09-06T07:22:22Z</time>
      </trkpt>
      <trkpt lat="47.80849" lon="-3.40303">
        <ele>4.94</ele>
        <time>2015-09-06T07:22:23Z</time>
      </trkpt>
      <trkpt lat="47.80846" lon="-3.40311">
        <ele>4.94</ele>
        <time>2015-09-06T07:22:24Z</time>
      </trkpt>
      <trkpt lat="47.80843" lon="-3.40318">
        <ele>4.94</ele>
        <time>2015-09-06T07:22:25Z</time>
      </trkpt>
      <trkpt lat="47.80841" lon="-3.40324">
        <ele>4.94</ele>
        <time>2015-09-06T07:22:26Z</time>
      </trkpt>
      <trkpt lat="47.80838" lon="-3.40331">
        <ele>4.94</ele>
        <time>2015-09-06T07:22:27Z</time>
      </trkpt>
      <trkpt lat="47.80836" lon="-3.40337">
        <ele>4.94</ele>
        <time>2015-09-06T07:22:28Z</time>
      </trkpt>
      <trkpt lat="47.80833" lon="-3.40343">
        <ele>4.94</ele>
        <time>2015-09-06T07:22:29Z</time>
      </trkpt>
      <trkpt lat="47.80831" lon="-3.40349">
        <ele>5.91</ele>
        <time>2015-09-06T07:22:30Z</time>
      </trkpt>
      <trkpt lat="47.80829" lon="-3.40357">
        <ele>5.91</ele>
        <time>2015-09-06T07:22:31Z</time>
      </trkpt>
      <trkpt lat="47.80827" lon="-3.40363">
        <ele>6.39</ele>
        <time>2015-09-06T07:22:32Z</time>
      </trkpt>
      <trkpt lat="47.80825" lon="-3.40369">
        <ele>6.39</ele>
        <time>2015-09-06T07:22:33Z</time>
      </trkpt>
      <trkpt lat="47.80823" lon="-3.40374">
        <ele>6.39</ele>
        <time>2015-09-06T07:22:34Z</time>
      </trkpt>
      <trkpt lat="47.80821" lon="-3.4038">
        <ele>6.39</ele>
        <time>2015-09-06T07:22:35Z</time>
      </trkpt>
      <trkpt lat="47.80819" lon="-3.40385">
        <ele>6.39</ele>
        <time>2015-09-06T07:22:36Z</time>
      </trkpt>
      <trkpt lat="47.80816" lon="-3.40391">
        <ele>7.35</ele>
        <time>2015-09-06T07:22:37Z</time>
      </trkpt>
      <trkpt lat="47.80814" lon="-3.40396">
        <ele>7.35</ele>
        <time>2015-09-06T07:22:38Z</time>
      </trkpt>
      <trkpt lat="47.80812" lon="-3.404">
        <ele>7.35</ele>
        <time>2015-09-06T07:22:39Z</time>
      </trkpt>
      <trkpt lat="47.80809" lon="-3.40405">
        <ele>7.35</ele>
        <time>2015-09-06T07:22:40Z</time>
      </trkpt>
      <trkpt lat="47.80807" lon="-3.40411">
        <ele>7.35</ele>
        <time>2015-09-06T07:22:41Z</time>
      </trkpt>
      <trkpt lat="47.80804" lon="-3.40416">
        <ele>7.35</ele>
        <time>2015-09-06T07:22:42Z</time>
      </trkpt>
      <trkpt lat="47.80802" lon="-3.40421">
        <ele>7.35</ele>
        <time>2015-09-06T07:22:43Z</time>
      </trkpt>
      <trkpt lat="47.808" lon="-3.40424">
        <ele>7.35</ele>
        <time>2015-09-06T07:22:44Z</time>
      </trkpt>
      <trkpt lat="47.80796" lon="-3.40427">
        <ele>7.35</ele>
        <time>2015-09-06T07:22:45Z</time>
      </trkpt>
      <trkpt lat="47.80792" lon="-3.4043">
        <ele>7.35</ele>
        <time>2015-09-06T07:22:46Z</time>
      </trkpt>
      <trkpt lat="47.80789" lon="-3.40433">
        <ele>7.35</ele>
        <time>2015-09-06T07:22:47Z</time>
      </trkpt>
      <trkpt lat="47.80785" lon="-3.40435">
        <ele>7.35</ele>
        <time>2015-09-06T07:22:48Z</time>
      </trkpt>
      <trkpt lat="47.80781" lon="-3.40437">
        <ele>7.83</ele>
        <time>2015-09-06T07:22:49Z</time>
      </trkpt>
      <trkpt lat="47.80776" lon="-3.40438">
        <ele>7.83</ele>
        <time>2015-09-06T07:22:50Z</time>
      </trkpt>
      <trkpt lat="47.80772" lon="-3.40439">
        <ele>7.83</ele>
        <time>2015-09-06T07:22:51Z</time>
      </trkpt>
      <trkpt lat="47.80768" lon="-3.4044">
        <ele>8.31</ele>
        <time>2015-09-06T07:22:52Z</time>
      </trkpt>
      <trkpt lat="47.80764" lon="-3.40441">
        <ele>8.31</ele>
        <time>2015-09-06T07:22:53Z</time>
      </trkpt>
      <trkpt lat="47.8076" lon="-3.40442">
        <ele>8.31</ele>
        <time>2015-09-06T07:22:54Z</time>
      </trkpt>
      <trkpt lat="47.80756" lon="-3.40443">
        <ele>8.79</ele>
        <time>2015-09-06T07:22:55Z</time>
      </trkpt>
      <trkpt lat="47.80752" lon="-3.40444">
        <ele>8.79</ele>
        <time>2015-09-06T07:22:56Z</time>
      </trkpt>
      <trkpt lat="47.80748" lon="-3.40444">
        <ele>9.27</ele>
        <time>2015-09-06T07:22:57Z</time>
      </trkpt>
      <trkpt lat="47.80744" lon="-3.40444">
        <ele>9.75</ele>
        <time>2015-09-06T07:22:58Z</time>
      </trkpt>
      <trkpt lat="47.8074" lon="-3.40444">
        <ele>9.75</ele>
        <time>2015-09-06T07:22:59Z</time>
      </trkpt>
      <trkpt lat="47.80737" lon="-3.40444">
        <ele>9.75</ele>
        <time>2015-09-06T07:23:00Z</time>
      </trkpt>
      <trkpt lat="47.80733" lon="-3.40444">
        <ele>10.23</ele>
        <time>2015-09-06T07:23:01Z</time>
      </trkpt>
      <trkpt lat="47.80729" lon="-3.40444">
        <ele>10.23</ele>
        <time>2015-09-06T07:23:02Z</time>
      </trkpt>
      <trkpt lat="47.80725" lon="-3.40444">
        <ele>10.71</ele>
        <time>2015-09-06T07:23:03Z</time>
      </trkpt>
      <trkpt lat="47.80722" lon="-3.40444">
        <ele>10.71</ele>
        <time>2015-09-06T07:23:04Z</time>
      </trkpt>
      <trkpt lat="47.80718" lon="-3.40444">
        <ele>10.71</ele>
        <time>2015-09-06T07:23:05Z</time>
      </trkpt>
      <trkpt lat="47.80715" lon="-3.40445">
        <ele>11.19</ele>
        <time>2015-09-06T07:23:06Z</time>
      </trkpt>
      <trkpt lat="47.80711" lon="-3.40445">
        <ele>11.19</ele>
        <time>2015-09-06T07:23:07Z</time>
      </trkpt>
      <trkpt lat="47.80707" lon="-3.40444">
        <ele>11.67</ele>
        <time>2015-09-06T07:23:08Z</time>
      </trkpt>
      <trkpt lat="47.80704" lon="-3.40444">
        <ele>11.67</ele>
        <time>2015-09-06T07:23:09Z</time>
      </trkpt>
      <trkpt lat="47.807" lon="-3.40444">
        <ele>12.63</ele>
        <time>2015-09-06T07:23:10Z</time>
      </trkpt>
      <trkpt lat="47.80697" lon="-3.40444">
        <ele>12.63</ele>
        <time>2015-09-06T07:23:11Z</time>
      </trkpt>
      <trkpt lat="47.80693" lon="-3.40444">
        <ele>13.12</ele>
        <time>2015-09-06T07:23:12Z</time>
      </trkpt>
      <trkpt lat="47.80689" lon="-3.40444">
        <ele>13.12</ele>
        <time>2015-09-06T07:23:13Z</time>
      </trkpt>
      <trkpt lat="47.80685" lon="-3.40445">
        <ele>13.6</ele>
        <time>2015-09-06T07:23:14Z</time>
      </trkpt>
      <trkpt lat="47.80681" lon="-3.40445">
        <ele>13.6</ele>
        <time>2015-09-06T07:23:15Z</time>
      </trkpt>
      <trkpt lat="47.80678" lon="-3.40445">
        <ele>14.08</ele>
        <time>2015-09-06T07:23:16Z</time>
      </trkpt>
      <trkpt lat="47.80674" lon="-3.40445">
        <ele>14.08</ele>
        <time>2015-09-06T07:23:17Z</time>
      </trkpt>
      <trkpt lat="47.80671" lon="-3.40446">
        <ele>14.56</ele>
        <time>2015-09-06T07:23:18Z</time>
      </trkpt>
      <trkpt lat="47.80667" lon="-3.40448">
        <ele>14.56</ele>
        <time>2015-09-06T07:23:19Z</time>
      </trkpt>
      <trkpt lat="47.80663" lon="-3.40449">
        <ele>14.56</ele>
        <time>2015-09-06T07:23:20Z</time>
      </trkpt>
      <trkpt lat="47.8066" lon="-3.40451">
        <ele>14.56</ele>
        <time>2015-09-06T07:23:21Z</time>
      </trkpt>
      <trkpt lat="47.80656" lon="-3.40452">
        <ele>15.52</ele>
        <time>2015-09-06T07:23:22Z</time>
      </trkpt>
      <trkpt lat="47.80653" lon="-3.40454">
        <ele>15.52</ele>
        <time>2015-09-06T07:23:23Z</time>
      </trkpt>
      <trkpt lat="47.80649" lon="-3.40456">
        <ele>16</ele>
        <time>2015-09-06T07:23:24Z</time>
      </trkpt>
      <trkpt lat="47.80646" lon="-3.40458">
        <ele>16</ele>
        <time>2015-09-06T07:23:25Z</time>
      </trkpt>
      <trkpt lat="47.80643" lon="-3.40459">
        <ele>16.48</ele>
        <time>2015-09-06T07:23:26Z</time>
      </trkpt>
      <trkpt lat="47.80639" lon="-3.40461">
        <ele>16.48</ele>
        <time>2015-09-06T07:23:27Z</time>
      </trkpt>
      <trkpt lat="47.80636" lon="-3.40463">
        <ele>16.96</ele>
        <time>2015-09-06T07:23:28Z</time>
      </trkpt>
      <trkpt lat="47.80633" lon="-3.40464">
        <ele>16.96</ele>
        <time>2015-09-06T07:23:29Z</time>
      </trkpt>
      <trkpt lat="47.8063" lon="-3.40465">
        <ele>17.44</ele>
        <time>2015-09-06T07:23:30Z</time>
      </trkpt>
      <trkpt lat="47.80626" lon="-3.40466">
        <ele>17.44</ele>
        <time>2015-09-06T07:23:31Z</time>
      </trkpt>
      <trkpt lat="47.80623" lon="-3.40467">
        <ele>17.44</ele>
        <time>2015-09-06T07:23:32Z</time>
      </trkpt>
      <trkpt lat="47.8062" lon="-3.40467">
        <ele>17.92</ele>
        <time>2015-09-06T07:23:33Z</time>
      </trkpt>
      <trkpt lat="47.80616" lon="-3.40467">
        <ele>18.4</ele>
        <time>2015-09-06T07:23:34Z</time>
      </trkpt>
      <trkpt lat="47.80612" lon="-3.40466">
        <ele>18.88</ele>
        <time>2015-09-06T07:23:35Z</time>
      </trkpt>
      <trkpt lat="47.80608" lon="-3.40465">
        <ele>18.88</ele>
        <time>2015-09-06T07:23:36Z</time>
      </trkpt>
      <trkpt lat="47.80605" lon="-3.40464">
        <ele>18.88</ele>
        <time>2015-09-06T07:23:37Z</time>
      </trkpt>
      <trkpt lat="47.80601" lon="-3.40463">
        <ele>19.36</ele>
        <time>2015-09-06T07:23:38Z</time>
      </trkpt>
      <trkpt lat="47.80598" lon="-3.40461">
        <ele>19.36</ele>
        <time>2015-09-06T07:23:39Z</time>
      </trkpt>
      <trkpt lat="47.80594" lon="-3.4046">
        <ele>19.84</ele>
        <time>2015-09-06T07:23:40Z</time>
      </trkpt>
      <trkpt lat="47.8059" lon="-3.40458">
        <ele>19.84</ele>
        <time>2015-09-06T07:23:41Z</time>
      </trkpt>
      <trkpt lat="47.80587" lon="-3.40456">
        <ele>20.81</ele>
        <time>2015-09-06T07:23:42Z</time>
      </trkpt>
      <trkpt lat="47.80584" lon="-3.40455">
        <ele>20.81</ele>
        <time>2015-09-06T07:23:43Z</time>
      </trkpt>
      <trkpt lat="47.8058" lon="-3.40454">
        <ele>21.29</ele>
        <time>2015-09-06T07:23:44Z</time>
      </trkpt>
      <trkpt lat="47.80577" lon="-3.40453">
        <ele>21.29</ele>
        <time>2015-09-06T07:23:45Z</time>
      </trkpt>
      <trkpt lat="47.80574" lon="-3.40452">
        <ele>21.77</ele>
        <time>2015-09-06T07:23:46Z</time>
      </trkpt>
      <trkpt lat="47.8057" lon="-3.40451">
        <ele>21.77</ele>
        <time>2015-09-06T07:23:47Z</time>
      </trkpt>
      <trkpt lat="47.80566" lon="-3.4045">
        <ele>21.77</ele>
        <time>2015-09-06T07:23:48Z</time>
      </trkpt>
      <trkpt lat="47.80563" lon="-3.40449">
        <ele>21.77</ele>
        <time>2015-09-06T07:23:49Z</time>
      </trkpt>
      <trkpt lat="47.8056" lon="-3.40449">
        <ele>21.77</ele>
        <time>2015-09-06T07:23:50Z</time>
      </trkpt>
      <trkpt lat="47.80556" lon="-3.40449">
        <ele>22.25</ele>
        <time>2015-09-06T07:23:51Z</time>
      </trkpt>
      <trkpt lat="47.80553" lon="-3.40448">
        <ele>22.25</ele>
        <time>2015-09-06T07:23:52Z</time>
      </trkpt>
      <trkpt lat="47.80549" lon="-3.40447">
        <ele>22.25</ele>
        <time>2015-09-06T07:23:53Z</time>
      </trkpt>
      <trkpt lat="47.80546" lon="-3.40447">
        <ele>23.21</ele>
        <time>2015-09-06T07:23:54Z</time>
      </trkpt>
      <trkpt lat="47.80542" lon="-3.40447">
        <ele>23.21</ele>
        <time>2015-09-06T07:23:55Z</time>
      </trkpt>
      <trkpt lat="47.80538" lon="-3.40447">
        <ele>23.21</ele>
        <time>2015-09-06T07:23:56Z</time>
      </trkpt>
      <trkpt lat="47.80535" lon="-3.40447">
        <ele>23.69</ele>
        <time>2015-09-06T07:23:57Z</time>
      </trkpt>
      <trkpt lat="47.80532" lon="-3.40449">
        <ele>23.69</ele>
        <time>2015-09-06T07:23:58Z</time>
      </trkpt>
      <trkpt lat="47.80531" lon="-3.40452">
        <ele>23.21</ele>
        <time>2015-09-06T07:23:59Z</time>
      </trkpt>
      <trkpt lat="47.8053" lon="-3.40455">
        <ele>23.21</ele>
        <time>2015-09-06T07:24:00Z</time>
      </trkpt>
      <trkpt lat="47.80531" lon="-3.40458">
        <ele>23.69</ele>
        <time>2015-09-06T07:24:01Z</time>
      </trkpt>
      <trkpt lat="47.80532" lon="-3.40461">
        <ele>23.69</ele>
        <time>2015-09-06T07:24:02Z</time>
      </trkpt>
      <trkpt lat="47.80533" lon="-3.40464">
        <ele>23.69</ele>
        <time>2015-09-06T07:24:03Z</time>
      </trkpt>
      <trkpt lat="47.80534" lon="-3.40467">
        <ele>24.17</ele>
        <time>2015-09-06T07:24:04Z</time>
      </trkpt>
      <trkpt lat="47.80535" lon="-3.4047">
        <ele>24.17</ele>
        <time>2015-09-06T07:24:05Z</time>
      </trkpt>
      <trkpt lat="47.80535" lon="-3.40473">
        <ele>24.17</ele>
        <time>2015-09-06T07:24:06Z</time>
      </trkpt>
      <trkpt lat="47.80536" lon="-3.40476">
        <ele>24.17</ele>
        <time>2015-09-06T07:24:07Z</time>
      </trkpt>
      <trkpt lat="47.80537" lon="-3.40478">
        <ele>24.17</ele>
        <time>2015-09-06T07:24:08Z</time>
      </trkpt>
      <trkpt lat="47.80538" lon="-3.4048">
        <ele>24.65</ele>
        <time>2015-09-06T07:24:09Z</time>
      </trkpt>
      <trkpt lat="47.80539" lon="-3.40483">
        <ele>24.65</ele>
        <time>2015-09-06T07:24:10Z</time>
      </trkpt>
      <trkpt lat="47.8054" lon="-3.40485">
        <ele>25.13</ele>
        <time>2015-09-06T07:24:11Z</time>
      </trkpt>
      <trkpt lat="47.80541" lon="-3.40487">
        <ele>25.13</ele>
        <time>2015-09-06T07:24:12Z</time>
      </trkpt>
      <trkpt lat="47.80542" lon="-3.40489">
        <ele>25.13</ele>
        <time>2015-09-06T07:24:13Z</time>
      </trkpt>
      <trkpt lat="47.80543" lon="-3.40491">
        <ele>25.61</ele>
        <time>2015-09-06T07:24:14Z</time>
      </trkpt>
      <trkpt lat="47.80544" lon="-3.40494">
        <ele>25.61</ele>
        <time>2015-09-06T07:24:15Z</time>
      </trkpt>
      <trkpt lat="47.80544" lon="-3.40496">
        <ele>25.61</ele>
        <time>2015-09-06T07:24:16Z</time>
      </trkpt>
      <trkpt lat="47.80545" lon="-3.40499">
        <ele>26.09</ele>
        <time>2015-09-06T07:24:17Z</time>
      </trkpt>
      <trkpt lat="47.80545" lon="-3.40501">
        <ele>26.09</ele>
        <time>2015-09-06T07:24:18Z</time>
      </trkpt>
      <trkpt lat="47.80546" lon="-3.40503">
        <ele>26.57</ele>
        <time>2015-09-06T07:24:19Z</time>
      </trkpt>
      <trkpt lat="47.80546" lon="-3.40506">
        <ele>26.57</ele>
        <time>2015-09-06T07:24:20Z</time>
      </trkpt>
      <trkpt lat="47.80547" lon="-3.40508">
        <ele>27.05</ele>
        <time>2015-09-06T07:24:21Z</time>
      </trkpt>
      <trkpt lat="47.80547" lon="-3.40511">
        <ele>27.05</ele>
        <time>2015-09-06T07:24:22Z</time>
      </trkpt>
      <trkpt lat="47.80547" lon="-3.40513">
        <ele>27.53</ele>
        <time>2015-09-06T07:24:23Z</time>
      </trkpt>
      <trkpt lat="47.80547" lon="-3.40515">
        <ele>28.02</ele>
        <time>2015-09-06T07:24:24Z</time>
      </trkpt>
      <trkpt lat="47.80547" lon="-3.40518">
        <ele>28.02</ele>
        <time>2015-09-06T07:24:25Z</time>
      </trkpt>
      <trkpt lat="47.80547" lon="-3.4052">
        <ele>28.02</ele>
        <time>2015-09-06T07:24:26Z</time>
      </trkpt>
      <trkpt lat="47.80547" lon="-3.40522">
        <ele>28.5</ele>
        <time>2015-09-06T07:24:27Z</time>
      </trkpt>
      <trkpt lat="47.80547" lon="-3.40525">
        <ele>28.5</ele>
        <time>2015-09-06T07:24:28Z</time>
      </trkpt>
      <trkpt lat="47.80547" lon="-3.40527">
        <ele>29.46</ele>
        <time>2015-09-06T07:24:29Z</time>
      </trkpt>
      <trkpt lat="47.80546" lon="-3.4053">
        <ele>29.46</ele>
        <time>2015-09-06T07:24:30Z</time>
      </trkpt>
      <trkpt lat="47.80546" lon="-3.40532">
        <ele>29.46</ele>
        <time>2015-09-06T07:24:31Z</time>
      </trkpt>
      <trkpt lat="47.80546" lon="-3.40535">
        <ele>29.94</ele>
        <time>2015-09-06T07:24:32Z</time>
      </trkpt>
      <trkpt lat="47.80546" lon="-3.40537">
        <ele>29.94</ele>
        <time>2015-09-06T07:24:33Z</time>
      </trkpt>
      <trkpt lat="47.80546" lon="-3.40539">
        <ele>30.42</ele>
        <time>2015-09-06T07:24:34Z</time>
      </trkpt>
      <trkpt lat="47.80546" lon="-3.40542">
        <ele>30.42</ele>
        <time>2015-09-06T07:24:35Z</time>
      </trkpt>
      <trkpt lat="47.80546" lon="-3.40544">
        <ele>30.42</ele>
        <time>2015-09-06T07:24:36Z</time>
      </trkpt>
      <trkpt lat="47.80545" lon="-3.40546">
        <ele>30.9</ele>
        <time>2015-09-06T07:24:37Z</time>
      </trkpt>
      <trkpt lat="47.80545" lon="-3.40549">
        <ele>30.9</ele>
        <time>2015-09-06T07:24:38Z</time>
      </trkpt>
      <trkpt lat="47.80545" lon="-3.40551">
        <ele>31.38</ele>
        <time>2015-09-06T07:24:39Z</time>
      </trkpt>
      <trkpt lat="47.80545" lon="-3.40554">
        <ele>31.38</ele>
        <time>2015-09-06T07:24:40Z</time>
      </trkpt>
      <trkpt lat="47.80545" lon="-3.40557">
        <ele>31.86</ele>
        <time>2015-09-06T07:24:41Z</time>
      </trkpt>
      <trkpt lat="47.80545" lon="-3.4056">
        <ele>31.86</ele>
        <time>2015-09-06T07:24:42Z</time>
      </trkpt>
      <trkpt lat="47.80545" lon="-3.40563">
        <ele>31.86</ele>
        <time>2015-09-06T07:24:43Z</time>
      </trkpt>
      <trkpt lat="47.80545" lon="-3.40566">
        <ele>32.34</ele>
        <time>2015-09-06T07:24:44Z</time>
      </trkpt>
      <trkpt lat="47.80544" lon="-3.40569">
        <ele>32.34</ele>
        <time>2015-09-06T07:24:45Z</time>
      </trkpt>
      <trkpt lat="47.80544" lon="-3.40572">
        <ele>32.34</ele>
        <time>2015-09-06T07:24:46Z</time>
      </trkpt>
      <trkpt lat="47.80544" lon="-3.40575">
        <ele>32.82</ele>
        <time>2015-09-06T07:24:47Z</time>
      </trkpt>
      <trkpt lat="47.80544" lon="-3.40578">
        <ele>32.82</ele>
        <time>2015-09-06T07:24:48Z</time>
      </trkpt>
      <trkpt lat="47.80544" lon="-3.40581">
        <ele>32.82</ele>
        <time>2015-09-06T07:24:49Z</time>
      </trkpt>
      <trkpt lat="47.80544" lon="-3.40584">
        <ele>33.3</ele>
        <time>2015-09-06T07:24:50Z</time>
      </trkpt>
      <trkpt lat="47.80544" lon="-3.40586">
        <ele>33.3</ele>
        <time>2015-09-06T07:24:51Z</time>
      </trkpt>
      <trkpt lat="47.80544" lon="-3.40589">
        <ele>33.78</ele>
        <time>2015-09-06T07:24:52Z</time>
      </trkpt>
      <trkpt lat="47.80544" lon="-3.40592">
        <ele>34.26</ele>
        <time>2015-09-06T07:24:53Z</time>
      </trkpt>
      <trkpt lat="47.80544" lon="-3.40595">
        <ele>34.26</ele>
        <time>2015-09-06T07:24:54Z</time>
      </trkpt>
      <trkpt lat="47.80544" lon="-3.40598">
        <ele>34.26</ele>
        <time>2015-09-06T07:24:55Z</time>
      </trkpt>
      <trkpt lat="47.80544" lon="-3.40601">
        <ele>34.26</ele>
        <time>2015-09-06T07:24:56Z</time>
      </trkpt>
      <trkpt lat="47.80543" lon="-3.40603">
        <ele>34.26</ele>
        <time>2015-09-06T07:24:57Z</time>
      </trkpt>
      <trkpt lat="47.80543" lon="-3.40606">
        <ele>34.26</ele>
        <time>2015-09-06T07:24:58Z</time>
      </trkpt>
      <trkpt lat="47.80543" lon="-3.40609">
        <ele>35.23</ele>
        <time>2015-09-06T07:24:59Z</time>
      </trkpt>
      <trkpt lat="47.80542" lon="-3.40612">
        <ele>35.23</ele>
        <time>2015-09-06T07:25:00Z</time>
      </trkpt>
      <trkpt lat="47.80542" lon="-3.40614">
        <ele>35.71</ele>
        <time>2015-09-06T07:25:01Z</time>
      </trkpt>
      <trkpt lat="47.80542" lon="-3.40617">
        <ele>35.71</ele>
        <time>2015-09-06T07:25:02Z</time>
      </trkpt>
      <trkpt lat="47.80542" lon="-3.4062">
        <ele>35.71</ele>
        <time>2015-09-06T07:25:03Z</time>
      </trkpt>
      <trkpt lat="47.80541" lon="-3.40623">
        <ele>35.71</ele>
        <time>2015-09-06T07:25:04Z</time>
      </trkpt>
      <trkpt lat="47.80541" lon="-3.40626">
        <ele>35.71</ele>
        <time>2015-09-06T07:25:05Z</time>
      </trkpt>
      <trkpt lat="47.80541" lon="-3.40629">
        <ele>35.71</ele>
        <time>2015-09-06T07:25:06Z</time>
      </trkpt>
      <trkpt lat="47.80541" lon="-3.40632">
        <ele>35.71</ele>
        <time>2015-09-06T07:25:07Z</time>
      </trkpt>
      <trkpt lat="47.80541" lon="-3.40635">
        <ele>36.19</ele>
        <time>2015-09-06T07:25:08Z</time>
      </trkpt>
      <trkpt lat="47.80541" lon="-3.40638">
        <ele>36.19</ele>
        <time>2015-09-06T07:25:09Z</time>
      </trkpt>
      <trkpt lat="47.80541" lon="-3.4064">
        <ele>36.67</ele>
        <time>2015-09-06T07:25:10Z</time>
      </trkpt>
      <trkpt lat="47.80541" lon="-3.40643">
        <ele>36.67</ele>
        <time>2015-09-06T07:25:11Z</time>
      </trkpt>
      <trkpt lat="47.80541" lon="-3.40646">
        <ele>36.67</ele>
        <time>2015-09-06T07:25:12Z</time>
      </trkpt>
      <trkpt lat="47.80541" lon="-3.40649">
        <ele>37.15</ele>
        <time>2015-09-06T07:25:13Z</time>
      </trkpt>
      <trkpt lat="47.80541" lon="-3.40652">
        <ele>37.15</ele>
        <time>2015-09-06T07:25:14Z</time>
      </trkpt>
      <trkpt lat="47.80541" lon="-3.40655">
        <ele>37.15</ele>
        <time>2015-09-06T07:25:15Z</time>
      </trkpt>
      <trkpt lat="47.80541" lon="-3.40659">
        <ele>37.63</ele>
        <time>2015-09-06T07:25:16Z</time>
      </trkpt>
      <trkpt lat="47.80542" lon="-3.40663">
        <ele>37.63</ele>
        <time>2015-09-06T07:25:17Z</time>
      </trkpt>
      <trkpt lat="47.80542" lon="-3.40667">
        <ele>37.63</ele>
        <time>2015-09-06T07:25:18Z</time>
      </trkpt>
      <trkpt lat="47.80543" lon="-3.40671">
        <ele>37.63</ele>
        <time>2015-09-06T07:25:19Z</time>
      </trkpt>
      <trkpt lat="47.80545" lon="-3.40673">
        <ele>37.63</ele>
        <time>2015-09-06T07:25:20Z</time>
      </trkpt>
      <trkpt lat="47.80547" lon="-3.40675">
        <ele>37.63</ele>
        <time>2015-09-06T07:25:21Z</time>
      </trkpt>
      <trkpt lat="47.8055" lon="-3.40676">
        <ele>37.63</ele>
        <time>2015-09-06T07:25:22Z</time>
      </trkpt>
      <trkpt lat="47.80553" lon="-3.40676">
        <ele>37.63</ele>
        <time>2015-09-06T07:25:23Z</time>
      </trkpt>
      <trkpt lat="47.80556" lon="-3.40676">
        <ele>37.63</ele>
        <time>2015-09-06T07:25:24Z</time>
      </trkpt>
      <trkpt lat="47.80559" lon="-3.40677">
        <ele>37.63</ele>
        <time>2015-09-06T07:25:25Z</time>
      </trkpt>
      <trkpt lat="47.80563" lon="-3.40677">
        <ele>37.63</ele>
        <time>2015-09-06T07:25:26Z</time>
      </trkpt>
      <trkpt lat="47.80566" lon="-3.40678">
        <ele>37.63</ele>
        <time>2015-09-06T07:25:27Z</time>
      </trkpt>
      <trkpt lat="47.80569" lon="-3.40679">
        <ele>37.63</ele>
        <time>2015-09-06T07:25:28Z</time>
      </trkpt>
      <trkpt lat="47.80572" lon="-3.40681">
        <ele>37.63</ele>
        <time>2015-09-06T07:25:29Z</time>
      </trkpt>
      <trkpt lat="47.80575" lon="-3.40683">
        <ele>37.63</ele>
        <time>2015-09-06T07:25:30Z</time>
      </trkpt>
      <trkpt lat="47.80578" lon="-3.40684">
        <ele>37.63</ele>
        <time>2015-09-06T07:25:31Z</time>
      </trkpt>
      <trkpt lat="47.80581" lon="-3.40686">
        <ele>37.63</ele>
        <time>2015-09-06T07:25:32Z</time>
      </trkpt>
      <trkpt lat="47.80585" lon="-3.40687">
        <ele>37.63</ele>
        <time>2015-09-06T07:25:33Z</time>
      </trkpt>
      <trkpt lat="47.80588" lon="-3.40688">
        <ele>37.63</ele>
        <time>2015-09-06T07:25:34Z</time>
      </trkpt>
      <trkpt lat="47.80591" lon="-3.40688">
        <ele>37.63</ele>
        <time>2015-09-06T07:25:35Z</time>
      </trkpt>
      <trkpt lat="47.80595" lon="-3.40688">
        <ele>37.63</ele>
        <time>2015-09-06T07:25:36Z</time>
      </trkpt>
      <trkpt lat="47.80598" lon="-3.40688">
        <ele>37.63</ele>
        <time>2015-09-06T07:25:37Z</time>
      </trkpt>
      <trkpt lat="47.80601" lon="-3.40689">
        <ele>37.63</ele>
        <time>2015-09-06T07:25:38Z</time>
      </trkpt>
      <trkpt lat="47.80604" lon="-3.4069">
        <ele>37.63</ele>
        <time>2015-09-06T07:25:39Z</time>
      </trkpt>
      <trkpt lat="47.80608" lon="-3.40691">
        <ele>37.63</ele>
        <time>2015-09-06T07:25:40Z</time>
      </trkpt>
      <trkpt lat="47.80611" lon="-3.40691">
        <ele>37.63</ele>
        <time>2015-09-06T07:25:41Z</time>
      </trkpt>
      <trkpt lat="47.80615" lon="-3.40692">
        <ele>37.63</ele>
        <time>2015-09-06T07:25:42Z</time>
      </trkpt>
      <trkpt lat="47.80619" lon="-3.40692">
        <ele>37.63</ele>
        <time>2015-09-06T07:25:43Z</time>
      </trkpt>
      <trkpt lat="47.80622" lon="-3.40692">
        <ele>37.63</ele>
        <time>2015-09-06T07:25:44Z</time>
      </trkpt>
      <trkpt lat="47.80627" lon="-3.40692">
        <ele>37.63</ele>
        <time>2015-09-06T07:25:45Z</time>
      </trkpt>
      <trkpt lat="47.80631" lon="-3.40693">
        <ele>37.63</ele>
        <time>2015-09-06T07:25:46Z</time>
      </trkpt>
      <trkpt lat="47.80635" lon="-3.40694">
        <ele>36.67</ele>
        <time>2015-09-06T07:25:47Z</time>
      </trkpt>
      <trkpt lat="47.8064" lon="-3.40695">
        <ele>36.19</ele>
        <time>2015-09-06T07:25:48Z</time>
      </trkpt>
      <trkpt lat="47.80645" lon="-3.40695">
        <ele>36.19</ele>
        <time>2015-09-06T07:25:49Z</time>
      </trkpt>
      <trkpt lat="47.80649" lon="-3.40694">
        <ele>35.23</ele>
        <time>2015-09-06T07:25:50Z</time>
      </trkpt>
      <trkpt lat="47.80654" lon="-3.40692">
        <ele>35.23</ele>
        <time>2015-09-06T07:25:51Z</time>
      </trkpt>
      <trkpt lat="47.80658" lon="-3.4069">
        <ele>35.23</ele>
        <time>2015-09-06T07:25:52Z</time>
      </trkpt>
      <trkpt lat="47.80662" lon="-3.40686">
        <ele>35.23</ele>
        <time>2015-09-06T07:25:53Z</time>
      </trkpt>
      <trkpt lat="47.80665" lon="-3.40683">
        <ele>35.23</ele>
        <time>2015-09-06T07:25:54Z</time>
      </trkpt>
      <trkpt lat="47.80668" lon="-3.40682">
        <ele>35.23</ele>
        <time>2015-09-06T07:25:55Z</time>
      </trkpt>
      <trkpt lat="47.80672" lon="-3.4068">
        <ele>35.23</ele>
        <time>2015-09-06T07:25:56Z</time>
      </trkpt>
      <trkpt lat="47.80677" lon="-3.40679">
        <ele>34.26</ele>
        <time>2015-09-06T07:25:57Z</time>
      </trkpt>
      <trkpt lat="47.80682" lon="-3.4068">
        <ele>33.3</ele>
        <time>2015-09-06T07:25:58Z</time>
      </trkpt>
      <trkpt lat="47.80688" lon="-3.40681">
        <ele>32.34</ele>
        <time>2015-09-06T07:25:59Z</time>
      </trkpt>
      <trkpt lat="47.80694" lon="-3.40684">
        <ele>30.9</ele>
        <time>2015-09-06T07:26:00Z</time>
      </trkpt>
      <trkpt lat="47.80701" lon="-3.40687">
        <ele>28.98</ele>
        <time>2015-09-06T07:26:01Z</time>
      </trkpt>
      <trkpt lat="47.80706" lon="-3.40689">
        <ele>27.53</ele>
        <time>2015-09-06T07:26:02Z</time>
      </trkpt>
      <trkpt lat="47.80712" lon="-3.40689">
        <ele>26.57</ele>
        <time>2015-09-06T07:26:03Z</time>
      </trkpt>
      <trkpt lat="47.80717" lon="-3.40687">
        <ele>25.13</ele>
        <time>2015-09-06T07:26:04Z</time>
      </trkpt>
      <trkpt lat="47.80722" lon="-3.40683">
        <ele>24.17</ele>
        <time>2015-09-06T07:26:05Z</time>
      </trkpt>
      <trkpt lat="47.80728" lon="-3.40678">
        <ele>23.21</ele>
        <time>2015-09-06T07:26:06Z</time>
      </trkpt>
      <trkpt lat="47.80732" lon="-3.40672">
        <ele>22.73</ele>
        <time>2015-09-06T07:26:07Z</time>
      </trkpt>
      <trkpt lat="47.80736" lon="-3.40664">
        <ele>21.77</ele>
        <time>2015-09-06T07:26:08Z</time>
      </trkpt>
      <trkpt lat="47.8074" lon="-3.40654">
        <ele>21.29</ele>
        <time>2015-09-06T07:26:09Z</time>
      </trkpt>
      <trkpt lat="47.80743" lon="-3.40646">
        <ele>21.29</ele>
        <time>2015-09-06T07:26:10Z</time>
      </trkpt>
      <trkpt lat="47.80745" lon="-3.40636">
        <ele>20.32</ele>
        <time>2015-09-06T07:26:11Z</time>
      </trkpt>
      <trkpt lat="47.80746" lon="-3.40627">
        <ele>20.81</ele>
        <time>2015-09-06T07:26:12Z</time>
      </trkpt>
      <trkpt lat="47.80747" lon="-3.40619">
        <ele>20.81</ele>
        <time>2015-09-06T07:26:13Z</time>
      </trkpt>
      <trkpt lat="47.80748" lon="-3.40612">
        <ele>19.84</ele>
        <time>2015-09-06T07:26:14Z</time>
      </trkpt>
      <trkpt lat="47.80749" lon="-3.40607">
        <ele>19.84</ele>
        <time>2015-09-06T07:26:15Z</time>
      </trkpt>
      <trkpt lat="47.80751" lon="-3.40603">
        <ele>19.84</ele>
        <time>2015-09-06T07:26:16Z</time>
      </trkpt>
      <trkpt lat="47.80752" lon="-3.40601">
        <ele>19.36</ele>
        <time>2015-09-06T07:26:17Z</time>
      </trkpt>
      <trkpt lat="47.80754" lon="-3.406">
        <ele>18.4</ele>
        <time>2015-09-06T07:26:18Z</time>
      </trkpt>
      <trkpt lat="47.80757" lon="-3.406">
        <ele>17.92</ele>
        <time>2015-09-06T07:26:19Z</time>
      </trkpt>
      <trkpt lat="47.80759" lon="-3.40602">
        <ele>16.96</ele>
        <time>2015-09-06T07:26:20Z</time>
      </trkpt>
      <trkpt lat="47.80761" lon="-3.40604">
        <ele>15.52</ele>
        <time>2015-09-06T07:26:21Z</time>
      </trkpt>
      <trkpt lat="47.80763" lon="-3.40606">
        <ele>14.08</ele>
        <time>2015-09-06T07:26:22Z</time>
      </trkpt>
      <trkpt lat="47.80765" lon="-3.40607">
        <ele>13.12</ele>
        <time>2015-09-06T07:26:23Z</time>
      </trkpt>
      <trkpt lat="47.80767" lon="-3.40609">
        <ele>12.15</ele>
        <time>2015-09-06T07:26:24Z</time>
      </trkpt>
      <trkpt lat="47.80769" lon="-3.40611">
        <ele>10.23</ele>
        <time>2015-09-06T07:26:25Z</time>
      </trkpt>
      <trkpt lat="47.80771" lon="-3.40615">
        <ele>9.75</ele>
        <time>2015-09-06T07:26:26Z</time>
      </trkpt>
      <trkpt lat="47.80773" lon="-3.4062">
        <ele>8.31</ele>
        <time>2015-09-06T07:26:27Z</time>
      </trkpt>
      <trkpt lat="47.80773" lon="-3.40627">
        <ele>8.31</ele>
        <time>2015-09-06T07:26:28Z</time>
      </trkpt>
      <trkpt lat="47.80774" lon="-3.40633">
        <ele>8.31</ele>
        <time>2015-09-06T07:26:29Z</time>
      </trkpt>
      <trkpt lat="47.80774" lon="-3.4064">
        <ele>9.27</ele>
        <time>2015-09-06T07:26:30Z</time>
      </trkpt>
      <trkpt lat="47.80774" lon="-3.40646">
        <ele>9.27</ele>
        <time>2015-09-06T07:26:31Z</time>
      </trkpt>
      <trkpt lat="47.80774" lon="-3.40653">
        <ele>8.79</ele>
        <time>2015-09-06T07:26:32Z</time>
      </trkpt>
      <trkpt lat="47.80774" lon="-3.40659">
        <ele>8.79</ele>
        <time>2015-09-06T07:26:33Z</time>
      </trkpt>
      <trkpt lat="47.80775" lon="-3.40667">
        <ele>8.79</ele>
        <time>2015-09-06T07:26:34Z</time>
      </trkpt>
      <trkpt lat="47.80776" lon="-3.40674">
        <ele>8.79</ele>
        <time>2015-09-06T07:26:35Z</time>
      </trkpt>
      <trkpt lat="47.80777" lon="-3.40682">
        <ele>8.79</ele>
        <time>2015-09-06T07:26:36Z</time>
      </trkpt>
      <trkpt lat="47.80777" lon="-3.40689">
        <ele>9.27</ele>
        <time>2015-09-06T07:26:37Z</time>
      </trkpt>
      <trkpt lat="47.80777" lon="-3.40698">
        <ele>9.27</ele>
        <time>2015-09-06T07:26:38Z</time>
      </trkpt>
      <trkpt lat="47.80777" lon="-3.40705">
        <ele>9.27</ele>
        <time>2015-09-06T07:26:39Z</time>
      </trkpt>
      <trkpt lat="47.80777" lon="-3.40713">
        <ele>9.27</ele>
        <time>2015-09-06T07:26:40Z</time>
      </trkpt>
      <trkpt lat="47.80778" lon="-3.40721">
        <ele>9.27</ele>
        <time>2015-09-06T07:26:41Z</time>
      </trkpt>
      <trkpt lat="47.80778" lon="-3.4073">
        <ele>9.27</ele>
        <time>2015-09-06T07:26:42Z</time>
      </trkpt>
      <trkpt lat="47.80778" lon="-3.40739">
        <ele>9.27</ele>
        <time>2015-09-06T07:26:43Z</time>
      </trkpt>
      <trkpt lat="47.80778" lon="-3.40747">
        <ele>9.27</ele>
        <time>2015-09-06T07:26:44Z</time>
      </trkpt>
      <trkpt lat="47.80777" lon="-3.40755">
        <ele>9.27</ele>
        <time>2015-09-06T07:26:45Z</time>
      </trkpt>
      <trkpt lat="47.80777" lon="-3.40764">
        <ele>9.27</ele>
        <time>2015-09-06T07:26:46Z</time>
      </trkpt>
      <trkpt lat="47.80778" lon="-3.40772">
        <ele>9.27</ele>
        <time>2015-09-06T07:26:47Z</time>
      </trkpt>
      <trkpt lat="47.80778" lon="-3.40779">
        <ele>9.27</ele>
        <time>2015-09-06T07:26:48Z</time>
      </trkpt>
      <trkpt lat="47.80779" lon="-3.40787">
        <ele>9.27</ele>
        <time>2015-09-06T07:26:49Z</time>
      </trkpt>
      <trkpt lat="47.80779" lon="-3.40795">
        <ele>9.27</ele>
        <time>2015-09-06T07:26:50Z</time>
      </trkpt>
      <trkpt lat="47.80779" lon="-3.40804">
        <ele>9.27</ele>
        <time>2015-09-06T07:26:51Z</time>
      </trkpt>
      <trkpt lat="47.80779" lon="-3.40812">
        <ele>9.27</ele>
        <time>2015-09-06T07:26:52Z</time>
      </trkpt>
      <trkpt lat="47.8078" lon="-3.40822">
        <ele>9.27</ele>
        <time>2015-09-06T07:26:53Z</time>
      </trkpt>
      <trkpt lat="47.80782" lon="-3.4083">
        <ele>9.27</ele>
        <time>2015-09-06T07:26:54Z</time>
      </trkpt>
      <trkpt lat="47.80786" lon="-3.40837">
        <ele>9.27</ele>
        <time>2015-09-06T07:26:55Z</time>
      </trkpt>
      <trkpt lat="47.80791" lon="-3.40842">
        <ele>9.27</ele>
        <time>2015-09-06T07:26:56Z</time>
      </trkpt>
      <trkpt lat="47.80796" lon="-3.40846">
        <ele>9.27</ele>
        <time>2015-09-06T07:26:57Z</time>
      </trkpt>
      <trkpt lat="47.80801" lon="-3.40848">
        <ele>9.27</ele>
        <time>2015-09-06T07:26:58Z</time>
      </trkpt>
      <trkpt lat="47.80807" lon="-3.40852">
        <ele>9.27</ele>
        <time>2015-09-06T07:26:59Z</time>
      </trkpt>
      <trkpt lat="47.80812" lon="-3.40856">
        <ele>9.27</ele>
        <time>2015-09-06T07:27:00Z</time>
      </trkpt>
      <trkpt lat="47.80817" lon="-3.40861">
        <ele>9.27</ele>
        <time>2015-09-06T07:27:01Z</time>
      </trkpt>
      <trkpt lat="47.80822" lon="-3.40866">
        <ele>9.27</ele>
        <time>2015-09-06T07:27:02Z</time>
      </trkpt>
      <trkpt lat="47.80826" lon="-3.40871">
        <ele>9.27</ele>
        <time>2015-09-06T07:27:03Z</time>
      </trkpt>
      <trkpt lat="47.80831" lon="-3.40875">
        <ele>9.27</ele>
        <time>2015-09-06T07:27:04Z</time>
      </trkpt>
      <trkpt lat="47.80836" lon="-3.40879">
        <ele>9.27</ele>
        <time>2015-09-06T07:27:05Z</time>
      </trkpt>
      <trkpt lat="47.80841" lon="-3.40885">
        <ele>9.27</ele>
        <time>2015-09-06T07:27:06Z</time>
      </trkpt>
      <trkpt lat="47.80846" lon="-3.4089">
        <ele>9.27</ele>
        <time>2015-09-06T07:27:07Z</time>
      </trkpt>
      <trkpt lat="47.80851" lon="-3.40896">
        <ele>9.27</ele>
        <time>2015-09-06T07:27:08Z</time>
      </trkpt>
      <trkpt lat="47.80855" lon="-3.40901">
        <ele>9.27</ele>
        <time>2015-09-06T07:27:09Z</time>
      </trkpt>
      <trkpt lat="47.8086" lon="-3.40907">
        <ele>9.27</ele>
        <time>2015-09-06T07:27:10Z</time>
      </trkpt>
      <trkpt lat="47.80864" lon="-3.40912">
        <ele>9.27</ele>
        <time>2015-09-06T07:27:11Z</time>
      </trkpt>
      <trkpt lat="47.80868" lon="-3.40918">
        <ele>9.27</ele>
        <time>2015-09-06T07:27:12Z</time>
      </trkpt>
      <trkpt lat="47.80872" lon="-3.40923">
        <ele>9.27</ele>
        <time>2015-09-06T07:27:13Z</time>
      </trkpt>
      <trkpt lat="47.80877" lon="-3.40928">
        <ele>9.27</ele>
        <time>2015-09-06T07:27:14Z</time>
      </trkpt>
      <trkpt lat="47.80881" lon="-3.40934">
        <ele>9.27</ele>
        <time>2015-09-06T07:27:15Z</time>
      </trkpt>
      <trkpt lat="47.80885" lon="-3.4094">
        <ele>9.27</ele>
        <time>2015-09-06T07:27:16Z</time>
      </trkpt>
      <trkpt lat="47.80889" lon="-3.40946">
        <ele>9.27</ele>
        <time>2015-09-06T07:27:17Z</time>
      </trkpt>
      <trkpt lat="47.80893" lon="-3.40951">
        <ele>9.27</ele>
        <time>2015-09-06T07:27:18Z</time>
      </trkpt>
      <trkpt lat="47.80897" lon="-3.40957">
        <ele>9.27</ele>
        <time>2015-09-06T07:27:19Z</time>
      </trkpt>
      <trkpt lat="47.80901" lon="-3.40964">
        <ele>9.27</ele>
        <time>2015-09-06T07:27:20Z</time>
      </trkpt>
      <trkpt lat="47.80904" lon="-3.4097">
        <ele>9.27</ele>
        <time>2015-09-06T07:27:21Z</time>
      </trkpt>
      <trkpt lat="47.80908" lon="-3.40976">
        <ele>10.71</ele>
        <time>2015-09-06T07:27:22Z</time>
      </trkpt>
      <trkpt lat="47.80912" lon="-3.40982">
        <ele>10.71</ele>
        <time>2015-09-06T07:27:23Z</time>
      </trkpt>
      <trkpt lat="47.80915" lon="-3.40988">
        <ele>10.71</ele>
        <time>2015-09-06T07:27:24Z</time>
      </trkpt>
      <trkpt lat="47.80919" lon="-3.40995">
        <ele>10.71</ele>
        <time>2015-09-06T07:27:25Z</time>
      </trkpt>
      <trkpt lat="47.80923" lon="-3.41003">
        <ele>10.71</ele>
        <time>2015-09-06T07:27:26Z</time>
      </trkpt>
      <trkpt lat="47.80927" lon="-3.41011">
        <ele>10.71</ele>
        <time>2015-09-06T07:27:27Z</time>
      </trkpt>
      <trkpt lat="47.80929" lon="-3.41019">
        <ele>10.71</ele>
        <time>2015-09-06T07:27:28Z</time>
      </trkpt>
      <trkpt lat="47.80929" lon="-3.41027">
        <ele>11.19</ele>
        <time>2015-09-06T07:27:29Z</time>
      </trkpt>
      <trkpt lat="47.8093" lon="-3.41034">
        <ele>11.19</ele>
        <time>2015-09-06T07:27:30Z</time>
      </trkpt>
      <trkpt lat="47.8093" lon="-3.41041">
        <ele>11.67</ele>
        <time>2015-09-06T07:27:31Z</time>
      </trkpt>
      <trkpt lat="47.8093" lon="-3.41048">
        <ele>11.67</ele>
        <time>2015-09-06T07:27:32Z</time>
      </trkpt>
      <trkpt lat="47.8093" lon="-3.41055">
        <ele>12.15</ele>
        <time>2015-09-06T07:27:33Z</time>
      </trkpt>
      <trkpt lat="47.8093" lon="-3.41061">
        <ele>12.15</ele>
        <time>2015-09-06T07:27:34Z</time>
      </trkpt>
      <trkpt lat="47.8093" lon="-3.41066">
        <ele>12.15</ele>
        <time>2015-09-06T07:27:35Z</time>
      </trkpt>
      <trkpt lat="47.80931" lon="-3.41072">
        <ele>12.63</ele>
        <time>2015-09-06T07:27:36Z</time>
      </trkpt>
      <trkpt lat="47.80932" lon="-3.41077">
        <ele>12.63</ele>
        <time>2015-09-06T07:27:37Z</time>
      </trkpt>
      <trkpt lat="47.80932" lon="-3.41081">
        <ele>13.12</ele>
        <time>2015-09-06T07:27:38Z</time>
      </trkpt>
      <trkpt lat="47.80931" lon="-3.41084">
        <ele>13.12</ele>
        <time>2015-09-06T07:27:39Z</time>
      </trkpt>
      <trkpt lat="47.8093" lon="-3.41085">
        <ele>13.6</ele>
        <time>2015-09-06T07:27:40Z</time>
      </trkpt>
      <trkpt lat="47.80929" lon="-3.41085">
        <ele>13.6</ele>
        <time>2015-09-06T07:27:41Z</time>
      </trkpt>
      <trkpt lat="47.80928" lon="-3.41084">
        <ele>14.56</ele>
        <time>2015-09-06T07:27:42Z</time>
      </trkpt>
      <trkpt lat="47.80927" lon="-3.41083">
        <ele>14.56</ele>
        <time>2015-09-06T07:27:43Z</time>
      </trkpt>
      <trkpt lat="47.80926" lon="-3.41082">
        <ele>15.04</ele>
        <time>2015-09-06T07:27:44Z</time>
      </trkpt>
      <trkpt lat="47.80925" lon="-3.41082">
        <ele>15.52</ele>
        <time>2015-09-06T07:27:45Z</time>
      </trkpt>
      <trkpt lat="47.80924" lon="-3.41083">
        <ele>15.52</ele>
        <time>2015-09-06T07:27:46Z</time>
      </trkpt>
      <trkpt lat="47.80924" lon="-3.41084">
        <ele>16</ele>
        <time>2015-09-06T07:27:47Z</time>
      </trkpt>
      <trkpt lat="47.80924" lon="-3.41086">
        <ele>16.48</ele>
        <time>2015-09-06T07:27:48Z</time>
      </trkpt>
      <trkpt lat="47.80923" lon="-3.41087">
        <ele>16.48</ele>
        <time>2015-09-06T07:27:49Z</time>
      </trkpt>
      <trkpt lat="47.80924" lon="-3.41089">
        <ele>17.44</ele>
        <time>2015-09-06T07:27:50Z</time>
      </trkpt>
      <trkpt lat="47.80924" lon="-3.41091">
        <ele>17.44</ele>
        <time>2015-09-06T07:27:51Z</time>
      </trkpt>
      <trkpt lat="47.80924" lon="-3.41093">
        <ele>18.4</ele>
        <time>2015-09-06T07:27:52Z</time>
      </trkpt>
      <trkpt lat="47.80924" lon="-3.41095">
        <ele>18.4</ele>
        <time>2015-09-06T07:27:53Z</time>
      </trkpt>
      <trkpt lat="47.80923" lon="-3.41097">
        <ele>18.88</ele>
        <time>2015-09-06T07:27:54Z</time>
      </trkpt>
      <trkpt lat="47.80923" lon="-3.41098">
        <ele>18.88</ele>
        <time>2015-09-06T07:27:55Z</time>
      </trkpt>
      <trkpt lat="47.80922" lon="-3.41099">
        <ele>19.36</ele>
        <time>2015-09-06T07:27:56Z</time>
      </trkpt>
      <trkpt lat="47.80921" lon="-3.41101">
        <ele>19.36</ele>
        <time>2015-09-06T07:27:57Z</time>
      </trkpt>
      <trkpt lat="47.8092" lon="-3.41102">
        <ele>19.84</ele>
        <time>2015-09-06T07:27:58Z</time>
      </trkpt>
      <trkpt lat="47.80919" lon="-3.41104">
        <ele>19.84</ele>
        <time>2015-09-06T07:27:59Z</time>
      </trkpt>
      <trkpt lat="47.80917" lon="-3.41106">
        <ele>19.84</ele>
        <time>2015-09-06T07:28:00Z</time>
      </trkpt>
      <trkpt lat="47.80917" lon="-3.41108">
        <ele>20.32</ele>
        <time>2015-09-06T07:28:01Z</time>
      </trkpt>
      <trkpt lat="47.80917" lon="-3.4111">
        <ele>20.32</ele>
        <time>2015-09-06T07:28:02Z</time>
      </trkpt>
      <trkpt lat="47.80917" lon="-3.41111">
        <ele>20.32</ele>
        <time>2015-09-06T07:28:03Z</time>
      </trkpt>
      <trkpt lat="47.80918" lon="-3.41111">
        <ele>20.32</ele>
        <time>2015-09-06T07:28:04Z</time>
      </trkpt>
      <trkpt lat="47.80919" lon="-3.4111">
        <ele>20.81</ele>
        <time>2015-09-06T07:28:05Z</time>
      </trkpt>
      <trkpt lat="47.80921" lon="-3.41109">
        <ele>20.81</ele>
        <time>2015-09-06T07:28:06Z</time>
      </trkpt>
      <trkpt lat="47.80923" lon="-3.41108">
        <ele>20.81</ele>
        <time>2015-09-06T07:28:07Z</time>
      </trkpt>
      <trkpt lat="47.80925" lon="-3.41107">
        <ele>20.81</ele>
        <time>2015-09-06T07:28:08Z</time>
      </trkpt>
      <trkpt lat="47.80927" lon="-3.41106">
        <ele>20.81</ele>
        <time>2015-09-06T07:28:09Z</time>
      </trkpt>
      <trkpt lat="47.80928" lon="-3.41105">
        <ele>20.81</ele>
        <time>2015-09-06T07:28:10Z</time>
      </trkpt>
      <trkpt lat="47.8093" lon="-3.41103">
        <ele>21.29</ele>
        <time>2015-09-06T07:28:11Z</time>
      </trkpt>
      <trkpt lat="47.80933" lon="-3.41102">
        <ele>21.29</ele>
        <time>2015-09-06T07:28:12Z</time>
      </trkpt>
      <trkpt lat="47.80935" lon="-3.41101">
        <ele>21.29</ele>
        <time>2015-09-06T07:28:13Z</time>
      </trkpt>
      <trkpt lat="47.80938" lon="-3.41099">
        <ele>21.29</ele>
        <time>2015-09-06T07:28:14Z</time>
      </trkpt>
      <trkpt lat="47.80941" lon="-3.41096">
        <ele>21.29</ele>
        <time>2015-09-06T07:28:15Z</time>
      </trkpt>
      <trkpt lat="47.80944" lon="-3.41094">
        <ele>21.29</ele>
        <time>2015-09-06T07:28:16Z</time>
      </trkpt>
      <trkpt lat="47.80947" lon="-3.41091">
        <ele>21.29</ele>
        <time>2015-09-06T07:28:17Z</time>
      </trkpt>
      <trkpt lat="47.80951" lon="-3.41089">
        <ele>21.29</ele>
        <time>2015-09-06T07:28:18Z</time>
      </trkpt>
      <trkpt lat="47.80954" lon="-3.41086">
        <ele>21.29</ele>
        <time>2015-09-06T07:28:19Z</time>
      </trkpt>
      <trkpt lat="47.80957" lon="-3.41083">
        <ele>21.29</ele>
        <time>2015-09-06T07:28:20Z</time>
      </trkpt>
      <trkpt lat="47.8096" lon="-3.4108">
        <ele>21.29</ele>
        <time>2015-09-06T07:28:21Z</time>
      </trkpt>
      <trkpt lat="47.80964" lon="-3.41077">
        <ele>21.29</ele>
        <time>2015-09-06T07:28:22Z</time>
      </trkpt>
      <trkpt lat="47.80967" lon="-3.41074">
        <ele>21.29</ele>
        <time>2015-09-06T07:28:23Z</time>
      </trkpt>
      <trkpt lat="47.80971" lon="-3.41071">
        <ele>21.29</ele>
        <time>2015-09-06T07:28:24Z</time>
      </trkpt>
      <trkpt lat="47.80974" lon="-3.41069">
        <ele>21.29</ele>
        <time>2015-09-06T07:28:25Z</time>
      </trkpt>
      <trkpt lat="47.80978" lon="-3.41066">
        <ele>21.29</ele>
        <time>2015-09-06T07:28:26Z</time>
      </trkpt>
      <trkpt lat="47.80982" lon="-3.41063">
        <ele>21.29</ele>
        <time>2015-09-06T07:28:27Z</time>
      </trkpt>
      <trkpt lat="47.80986" lon="-3.4106">
        <ele>21.29</ele>
        <time>2015-09-06T07:28:28Z</time>
      </trkpt>
      <trkpt lat="47.8099" lon="-3.41056">
        <ele>21.29</ele>
        <time>2015-09-06T07:28:29Z</time>
      </trkpt>
      <trkpt lat="47.80994" lon="-3.41053">
        <ele>21.29</ele>
        <time>2015-09-06T07:28:30Z</time>
      </trkpt>
      <trkpt lat="47.80998" lon="-3.4105">
        <ele>21.29</ele>
        <time>2015-09-06T07:28:31Z</time>
      </trkpt>
      <trkpt lat="47.81002" lon="-3.41046">
        <ele>21.29</ele>
        <time>2015-09-06T07:28:32Z</time>
      </trkpt>
      <trkpt lat="47.81006" lon="-3.41042">
        <ele>21.29</ele>
        <time>2015-09-06T07:28:33Z</time>
      </trkpt>
      <trkpt lat="47.8101" lon="-3.41038">
        <ele>21.29</ele>
        <time>2015-09-06T07:28:34Z</time>
      </trkpt>
      <trkpt lat="47.81013" lon="-3.41034">
        <ele>21.29</ele>
        <time>2015-09-06T07:28:35Z</time>
      </trkpt>
      <trkpt lat="47.81017" lon="-3.41031">
        <ele>21.29</ele>
        <time>2015-09-06T07:28:36Z</time>
      </trkpt>
      <trkpt lat="47.81021" lon="-3.41028">
        <ele>21.29</ele>
        <time>2015-09-06T07:28:37Z</time>
      </trkpt>
      <trkpt lat="47.81024" lon="-3.41025">
        <ele>21.77</ele>
        <time>2015-09-06T07:28:38Z</time>
      </trkpt>
      <trkpt lat="47.81028" lon="-3.41022">
        <ele>21.77</ele>
        <time>2015-09-06T07:28:39Z</time>
      </trkpt>
      <trkpt lat="47.81031" lon="-3.41019">
        <ele>21.77</ele>
        <time>2015-09-06T07:28:40Z</time>
      </trkpt>
      <trkpt lat="47.81035" lon="-3.41015">
        <ele>22.25</ele>
        <time>2015-09-06T07:28:41Z</time>
      </trkpt>
      <trkpt lat="47.81038" lon="-3.41012">
        <ele>22.25</ele>
        <time>2015-09-06T07:28:42Z</time>
      </trkpt>
      <trkpt lat="47.81042" lon="-3.41008">
        <ele>22.25</ele>
        <time>2015-09-06T07:28:43Z</time>
      </trkpt>
      <trkpt lat="47.81046" lon="-3.41005">
        <ele>22.25</ele>
        <time>2015-09-06T07:28:44Z</time>
      </trkpt>
      <trkpt lat="47.8105" lon="-3.41002">
        <ele>22.73</ele>
        <time>2015-09-06T07:28:45Z</time>
      </trkpt>
      <trkpt lat="47.81053" lon="-3.40999">
        <ele>22.73</ele>
        <time>2015-09-06T07:28:46Z</time>
      </trkpt>
      <trkpt lat="47.81057" lon="-3.40996">
        <ele>23.21</ele>
        <time>2015-09-06T07:28:47Z</time>
      </trkpt>
      <trkpt lat="47.81061" lon="-3.40992">
        <ele>23.21</ele>
        <time>2015-09-06T07:28:48Z</time>
      </trkpt>
      <trkpt lat="47.81065" lon="-3.40989">
        <ele>23.21</ele>
        <time>2015-09-06T07:28:49Z</time>
      </trkpt>
      <trkpt lat="47.81068" lon="-3.40985">
        <ele>24.17</ele>
        <time>2015-09-06T07:28:50Z</time>
      </trkpt>
      <trkpt lat="47.81071" lon="-3.40982">
        <ele>24.17</ele>
        <time>2015-09-06T07:28:51Z</time>
      </trkpt>
      <trkpt lat="47.81075" lon="-3.40979">
        <ele>24.65</ele>
        <time>2015-09-06T07:28:52Z</time>
      </trkpt>
      <trkpt lat="47.81078" lon="-3.40976">
        <ele>24.65</ele>
        <time>2015-09-06T07:28:53Z</time>
      </trkpt>
      <trkpt lat="47.81082" lon="-3.40972">
        <ele>24.65</ele>
        <time>2015-09-06T07:28:54Z</time>
      </trkpt>
      <trkpt lat="47.81086" lon="-3.40968">
        <ele>24.65</ele>
        <time>2015-09-06T07:28:55Z</time>
      </trkpt>
      <trkpt lat="47.81091" lon="-3.40964">
        <ele>24.65</ele>
        <time>2015-09-06T07:28:56Z</time>
      </trkpt>
      <trkpt lat="47.81095" lon="-3.40961">
        <ele>24.65</ele>
        <time>2015-09-06T07:28:57Z</time>
      </trkpt>
      <trkpt lat="47.81099" lon="-3.40957">
        <ele>25.13</ele>
        <time>2015-09-06T07:28:58Z</time>
      </trkpt>
      <trkpt lat="47.81103" lon="-3.40953">
        <ele>25.13</ele>
        <time>2015-09-06T07:28:59Z</time>
      </trkpt>
      <trkpt lat="47.81107" lon="-3.4095">
        <ele>25.13</ele>
        <time>2015-09-06T07:29:00Z</time>
      </trkpt>
      <trkpt lat="47.81111" lon="-3.40946">
        <ele>25.61</ele>
        <time>2015-09-06T07:29:01Z</time>
      </trkpt>
      <trkpt lat="47.81115" lon="-3.40943">
        <ele>25.61</ele>
        <time>2015-09-06T07:29:02Z</time>
      </trkpt>
      <trkpt lat="47.81119" lon="-3.4094">
        <ele>25.61</ele>
        <time>2015-09-06T07:29:03Z</time>
      </trkpt>
      <trkpt lat="47.81122" lon="-3.40937">
        <ele>25.61</ele>
        <time>2015-09-06T07:29:04Z</time>
      </trkpt>
      <trkpt lat="47.81126" lon="-3.40932">
        <ele>26.09</ele>
        <time>2015-09-06T07:29:05Z</time>
      </trkpt>
      <trkpt lat="47.8113" lon="-3.40928">
        <ele>26.09</ele>
        <time>2015-09-06T07:29:06Z</time>
      </trkpt>
      <trkpt lat="47.81134" lon="-3.40925">
        <ele>26.57</ele>
        <time>2015-09-06T07:29:07Z</time>
      </trkpt>
      <trkpt lat="47.81138" lon="-3.40921">
        <ele>26.57</ele>
        <time>2015-09-06T07:29:08Z</time>
      </trkpt>
      <trkpt lat="47.81142" lon="-3.40918">
        <ele>26.57</ele>
        <time>2015-09-06T07:29:09Z</time>
      </trkpt>
      <trkpt lat="47.81146" lon="-3.40914">
        <ele>26.57</ele>
        <time>2015-09-06T07:29:10Z</time>
      </trkpt>
      <trkpt lat="47.8115" lon="-3.4091">
        <ele>26.57</ele>
        <time>2015-09-06T07:29:11Z</time>
      </trkpt>
      <trkpt lat="47.81154" lon="-3.40906">
        <ele>27.53</ele>
        <time>2015-09-06T07:29:12Z</time>
      </trkpt>
      <trkpt lat="47.81158" lon="-3.40901">
        <ele>27.53</ele>
        <time>2015-09-06T07:29:13Z</time>
      </trkpt>
      <trkpt lat="47.81161" lon="-3.40898">
        <ele>27.53</ele>
        <time>2015-09-06T07:29:14Z</time>
      </trkpt>
      <trkpt lat="47.81165" lon="-3.40894">
        <ele>28.02</ele>
        <time>2015-09-06T07:29:15Z</time>
      </trkpt>
      <trkpt lat="47.81169" lon="-3.4089">
        <ele>28.02</ele>
        <time>2015-09-06T07:29:16Z</time>
      </trkpt>
      <trkpt lat="47.81172" lon="-3.40886">
        <ele>28.02</ele>
        <time>2015-09-06T07:29:17Z</time>
      </trkpt>
      <trkpt lat="47.81176" lon="-3.40881">
        <ele>28.5</ele>
        <time>2015-09-06T07:29:18Z</time>
      </trkpt>
      <trkpt lat="47.81179" lon="-3.40877">
        <ele>28.5</ele>
        <time>2015-09-06T07:29:19Z</time>
      </trkpt>
      <trkpt lat="47.81183" lon="-3.40872">
        <ele>28.5</ele>
        <time>2015-09-06T07:29:20Z</time>
      </trkpt>
      <trkpt lat="47.81186" lon="-3.40868">
        <ele>28.5</ele>
        <time>2015-09-06T07:29:21Z</time>
      </trkpt>
      <trkpt lat="47.81189" lon="-3.40863">
        <ele>28.98</ele>
        <time>2015-09-06T07:29:22Z</time>
      </trkpt>
      <trkpt lat="47.81193" lon="-3.40858">
        <ele>28.98</ele>
        <time>2015-09-06T07:29:23Z</time>
      </trkpt>
      <trkpt lat="47.81196" lon="-3.40853">
        <ele>28.98</ele>
        <time>2015-09-06T07:29:24Z</time>
      </trkpt>
      <trkpt lat="47.81199" lon="-3.40848">
        <ele>28.98</ele>
        <time>2015-09-06T07:29:25Z</time>
      </trkpt>
      <trkpt lat="47.81202" lon="-3.40843">
        <ele>28.98</ele>
        <time>2015-09-06T07:29:26Z</time>
      </trkpt>
      <trkpt lat="47.81205" lon="-3.40839">
        <ele>28.98</ele>
        <time>2015-09-06T07:29:27Z</time>
      </trkpt>
      <trkpt lat="47.81209" lon="-3.40834">
        <ele>28.98</ele>
        <time>2015-09-06T07:29:28Z</time>
      </trkpt>
      <trkpt lat="47.81213" lon="-3.40829">
        <ele>29.46</ele>
        <time>2015-09-06T07:29:29Z</time>
      </trkpt>
      <trkpt lat="47.81216" lon="-3.40824">
        <ele>29.46</ele>
        <time>2015-09-06T07:29:30Z</time>
      </trkpt>
      <trkpt lat="47.81219" lon="-3.40819">
        <ele>29.46</ele>
        <time>2015-09-06T07:29:31Z</time>
      </trkpt>
      <trkpt lat="47.81223" lon="-3.40814">
        <ele>29.46</ele>
        <time>2015-09-06T07:29:32Z</time>
      </trkpt>
      <trkpt lat="47.81226" lon="-3.40809">
        <ele>29.94</ele>
        <time>2015-09-06T07:29:33Z</time>
      </trkpt>
      <trkpt lat="47.81229" lon="-3.40804">
        <ele>29.94</ele>
        <time>2015-09-06T07:29:34Z</time>
      </trkpt>
      <trkpt lat="47.81233" lon="-3.408">
        <ele>29.94</ele>
        <time>2015-09-06T07:29:35Z</time>
      </trkpt>
      <trkpt lat="47.81236" lon="-3.40796">
        <ele>30.42</ele>
        <time>2015-09-06T07:29:36Z</time>
      </trkpt>
      <trkpt lat="47.81238" lon="-3.40792">
        <ele>30.9</ele>
        <time>2015-09-06T07:29:37Z</time>
      </trkpt>
      <trkpt lat="47.81241" lon="-3.4079">
        <ele>31.38</ele>
        <time>2015-09-06T07:29:38Z</time>
      </trkpt>
      <trkpt lat="47.81244" lon="-3.40789">
        <ele>31.38</ele>
        <time>2015-09-06T07:29:39Z</time>
      </trkpt>
      <trkpt lat="47.81247" lon="-3.40788">
        <ele>31.86</ele>
        <time>2015-09-06T07:29:40Z</time>
      </trkpt>
      <trkpt lat="47.81249" lon="-3.4079">
        <ele>31.86</ele>
        <time>2015-09-06T07:29:41Z</time>
      </trkpt>
      <trkpt lat="47.81251" lon="-3.40792">
        <ele>32.34</ele>
        <time>2015-09-06T07:29:42Z</time>
      </trkpt>
      <trkpt lat="47.81253" lon="-3.40795">
        <ele>32.34</ele>
        <time>2015-09-06T07:29:43Z</time>
      </trkpt>
      <trkpt lat="47.81255" lon="-3.40798">
        <ele>32.34</ele>
        <time>2015-09-06T07:29:44Z</time>
      </trkpt>
      <trkpt lat="47.81257" lon="-3.408">
        <ele>32.82</ele>
        <time>2015-09-06T07:29:45Z</time>
      </trkpt>
      <trkpt lat="47.81258" lon="-3.40803">
        <ele>32.82</ele>
        <time>2015-09-06T07:29:46Z</time>
      </trkpt>
      <trkpt lat="47.8126" lon="-3.40807">
        <ele>32.82</ele>
        <time>2015-09-06T07:29:47Z</time>
      </trkpt>
      <trkpt lat="47.81262" lon="-3.4081">
        <ele>33.3</ele>
        <time>2015-09-06T07:29:48Z</time>
      </trkpt>
      <trkpt lat="47.81264" lon="-3.40813">
        <ele>33.3</ele>
        <time>2015-09-06T07:29:49Z</time>
      </trkpt>
      <trkpt lat="47.81266" lon="-3.40816">
        <ele>33.3</ele>
        <time>2015-09-06T07:29:50Z</time>
      </trkpt>
      <trkpt lat="47.81267" lon="-3.40818">
        <ele>33.78</ele>
        <time>2015-09-06T07:29:51Z</time>
      </trkpt>
      <trkpt lat="47.81268" lon="-3.4082">
        <ele>33.78</ele>
        <time>2015-09-06T07:29:52Z</time>
      </trkpt>
      <trkpt lat="47.81269" lon="-3.40822">
        <ele>33.78</ele>
        <time>2015-09-06T07:29:53Z</time>
      </trkpt>
      <trkpt lat="47.8127" lon="-3.40824">
        <ele>33.78</ele>
        <time>2015-09-06T07:29:54Z</time>
      </trkpt>
      <trkpt lat="47.81271" lon="-3.40826">
        <ele>33.78</ele>
        <time>2015-09-06T07:29:55Z</time>
      </trkpt>
      <trkpt lat="47.81271" lon="-3.4083">
        <ele>33.78</ele>
        <time>2015-09-06T07:29:56Z</time>
      </trkpt>
      <trkpt lat="47.81271" lon="-3.40834">
        <ele>33.78</ele>
        <time>2015-09-06T07:29:57Z</time>
      </trkpt>
      <trkpt lat="47.81269" lon="-3.40838">
        <ele>33.78</ele>
        <time>2015-09-06T07:29:58Z</time>
      </trkpt>
      <trkpt lat="47.81266" lon="-3.40842">
        <ele>33.78</ele>
        <time>2015-09-06T07:29:59Z</time>
      </trkpt>
      <trkpt lat="47.81263" lon="-3.40844">
        <ele>33.78</ele>
        <time>2015-09-06T07:30:00Z</time>
      </trkpt>
      <trkpt lat="47.81259" lon="-3.40846">
        <ele>33.78</ele>
        <time>2015-09-06T07:30:01Z</time>
      </trkpt>
      <trkpt lat="47.81256" lon="-3.40849">
        <ele>33.78</ele>
        <time>2015-09-06T07:30:02Z</time>
      </trkpt>
      <trkpt lat="47.81252" lon="-3.40852">
        <ele>32.34</ele>
        <time>2015-09-06T07:30:03Z</time>
      </trkpt>
      <trkpt lat="47.81248" lon="-3.40855">
        <ele>32.34</ele>
        <time>2015-09-06T07:30:04Z</time>
      </trkpt>
      <trkpt lat="47.81243" lon="-3.40858">
        <ele>31.86</ele>
        <time>2015-09-06T07:30:05Z</time>
      </trkpt>
      <trkpt lat="47.81238" lon="-3.4086">
        <ele>31.38</ele>
        <time>2015-09-06T07:30:06Z</time>
      </trkpt>
      <trkpt lat="47.81233" lon="-3.40864">
        <ele>31.38</ele>
        <time>2015-09-06T07:30:07Z</time>
      </trkpt>
      <trkpt lat="47.81228" lon="-3.40867">
        <ele>30.9</ele>
        <time>2015-09-06T07:30:08Z</time>
      </trkpt>
      <trkpt lat="47.81223" lon="-3.4087">
        <ele>30.9</ele>
        <time>2015-09-06T07:30:09Z</time>
      </trkpt>
      <trkpt lat="47.81217" lon="-3.40874">
        <ele>30.42</ele>
        <time>2015-09-06T07:30:10Z</time>
      </trkpt>
      <trkpt lat="47.81212" lon="-3.40877">
        <ele>29.94</ele>
        <time>2015-09-06T07:30:11Z</time>
      </trkpt>
      <trkpt lat="47.81206" lon="-3.40882">
        <ele>29.94</ele>
        <time>2015-09-06T07:30:12Z</time>
      </trkpt>
      <trkpt lat="47.81201" lon="-3.40886">
        <ele>29.46</ele>
        <time>2015-09-06T07:30:13Z</time>
      </trkpt>
      <trkpt lat="47.81195" lon="-3.40891">
        <ele>29.46</ele>
        <time>2015-09-06T07:30:14Z</time>
      </trkpt>
      <trkpt lat="47.81189" lon="-3.40895">
        <ele>28.5</ele>
        <time>2015-09-06T07:30:15Z</time>
      </trkpt>
      <trkpt lat="47.81182" lon="-3.409">
        <ele>28.5</ele>
        <time>2015-09-06T07:30:16Z</time>
      </trkpt>
      <trkpt lat="47.81176" lon="-3.40904">
        <ele>28.02</ele>
        <time>2015-09-06T07:30:17Z</time>
      </trkpt>
      <trkpt lat="47.8117" lon="-3.40908">
        <ele>27.53</ele>
        <time>2015-09-06T07:30:18Z</time>
      </trkpt>
      <trkpt lat="47.81164" lon="-3.40913">
        <ele>27.53</ele>
        <time>2015-09-06T07:30:19Z</time>
      </trkpt>
      <trkpt lat="47.81158" lon="-3.40918">
        <ele>26.57</ele>
        <time>2015-09-06T07:30:20Z</time>
      </trkpt>
      <trkpt lat="47.81152" lon="-3.40922">
        <ele>26.57</ele>
        <time>2015-09-06T07:30:21Z</time>
      </trkpt>
      <trkpt lat="47.81147" lon="-3.40927">
        <ele>26.09</ele>
        <time>2015-09-06T07:30:22Z</time>
      </trkpt>
      <trkpt lat="47.81142" lon="-3.40932">
        <ele>26.09</ele>
        <time>2015-09-06T07:30:23Z</time>
      </trkpt>
      <trkpt lat="47.81138" lon="-3.40936">
        <ele>25.13</ele>
        <time>2015-09-06T07:30:24Z</time>
      </trkpt>
      <trkpt lat="47.81135" lon="-3.40941">
        <ele>25.13</ele>
        <time>2015-09-06T07:30:25Z</time>
      </trkpt>
      <trkpt lat="47.81133" lon="-3.40949">
        <ele>24.65</ele>
        <time>2015-09-06T07:30:26Z</time>
      </trkpt>
      <trkpt lat="47.81133" lon="-3.40956">
        <ele>24.65</ele>
        <time>2015-09-06T07:30:27Z</time>
      </trkpt>
      <trkpt lat="47.81134" lon="-3.40963">
        <ele>24.65</ele>
        <time>2015-09-06T07:30:28Z</time>
      </trkpt>
      <trkpt lat="47.81135" lon="-3.40971">
        <ele>24.65</ele>
        <time>2015-09-06T07:30:29Z</time>
      </trkpt>
      <trkpt lat="47.81135" lon="-3.40978">
        <ele>24.17</ele>
        <time>2015-09-06T07:30:30Z</time>
      </trkpt>
      <trkpt lat="47.81135" lon="-3.40985">
        <ele>24.17</ele>
        <time>2015-09-06T07:30:31Z</time>
      </trkpt>
      <trkpt lat="47.81134" lon="-3.40992">
        <ele>24.17</ele>
        <time>2015-09-06T07:30:32Z</time>
      </trkpt>
      <trkpt lat="47.81134" lon="-3.40998">
        <ele>24.17</ele>
        <time>2015-09-06T07:30:33Z</time>
      </trkpt>
      <trkpt lat="47.81133" lon="-3.41003">
        <ele>24.17</ele>
        <time>2015-09-06T07:30:34Z</time>
      </trkpt>
      <trkpt lat="47.81133" lon="-3.4101">
        <ele>24.17</ele>
        <time>2015-09-06T07:30:35Z</time>
      </trkpt>
      <trkpt lat="47.81133" lon="-3.41016">
        <ele>24.17</ele>
        <time>2015-09-06T07:30:36Z</time>
      </trkpt>
      <trkpt lat="47.81132" lon="-3.41023">
        <ele>24.17</ele>
        <time>2015-09-06T07:30:37Z</time>
      </trkpt>
      <trkpt lat="47.81132" lon="-3.41029">
        <ele>24.17</ele>
        <time>2015-09-06T07:30:38Z</time>
      </trkpt>
      <trkpt lat="47.81132" lon="-3.41035">
        <ele>24.65</ele>
        <time>2015-09-06T07:30:39Z</time>
      </trkpt>
      <trkpt lat="47.81132" lon="-3.41041">
        <ele>24.65</ele>
        <time>2015-09-06T07:30:40Z</time>
      </trkpt>
      <trkpt lat="47.81132" lon="-3.41048">
        <ele>24.65</ele>
        <time>2015-09-06T07:30:41Z</time>
      </trkpt>
      <trkpt lat="47.81132" lon="-3.41055">
        <ele>24.65</ele>
        <time>2015-09-06T07:30:42Z</time>
      </trkpt>
      <trkpt lat="47.81132" lon="-3.41062">
        <ele>24.65</ele>
        <time>2015-09-06T07:30:43Z</time>
      </trkpt>
      <trkpt lat="47.81132" lon="-3.41069">
        <ele>24.17</ele>
        <time>2015-09-06T07:30:44Z</time>
      </trkpt>
      <trkpt lat="47.81132" lon="-3.41077">
        <ele>24.17</ele>
        <time>2015-09-06T07:30:45Z</time>
      </trkpt>
      <trkpt lat="47.81132" lon="-3.41083">
        <ele>24.17</ele>
        <time>2015-09-06T07:30:46Z</time>
      </trkpt>
      <trkpt lat="47.81133" lon="-3.41091">
        <ele>24.17</ele>
        <time>2015-09-06T07:30:47Z</time>
      </trkpt>
      <trkpt lat="47.81133" lon="-3.41099">
        <ele>24.17</ele>
        <time>2015-09-06T07:30:48Z</time>
      </trkpt>
      <trkpt lat="47.81134" lon="-3.41105">
        <ele>24.17</ele>
        <time>2015-09-06T07:30:49Z</time>
      </trkpt>
      <trkpt lat="47.81134" lon="-3.41112">
        <ele>24.17</ele>
        <time>2015-09-06T07:30:50Z</time>
      </trkpt>
      <trkpt lat="47.81134" lon="-3.41119">
        <ele>24.17</ele>
        <time>2015-09-06T07:30:51Z</time>
      </trkpt>
      <trkpt lat="47.81135" lon="-3.41127">
        <ele>24.17</ele>
        <time>2015-09-06T07:30:52Z</time>
      </trkpt>
      <trkpt lat="47.81136" lon="-3.41134">
        <ele>24.17</ele>
        <time>2015-09-06T07:30:53Z</time>
      </trkpt>
      <trkpt lat="47.81137" lon="-3.4114">
        <ele>23.69</ele>
        <time>2015-09-06T07:30:54Z</time>
      </trkpt>
      <trkpt lat="47.81139" lon="-3.41144">
        <ele>23.69</ele>
        <time>2015-09-06T07:30:55Z</time>
      </trkpt>
      <trkpt lat="47.81142" lon="-3.41149">
        <ele>23.69</ele>
        <time>2015-09-06T07:30:56Z</time>
      </trkpt>
      <trkpt lat="47.81144" lon="-3.41154">
        <ele>24.17</ele>
        <time>2015-09-06T07:30:57Z</time>
      </trkpt>
      <trkpt lat="47.81147" lon="-3.41158">
        <ele>23.69</ele>
        <time>2015-09-06T07:30:58Z</time>
      </trkpt>
      <trkpt lat="47.81149" lon="-3.41162">
        <ele>23.69</ele>
        <time>2015-09-06T07:30:59Z</time>
      </trkpt>
      <trkpt lat="47.8115" lon="-3.41166">
        <ele>24.17</ele>
        <time>2015-09-06T07:31:00Z</time>
      </trkpt>
      <trkpt lat="47.81152" lon="-3.4117">
        <ele>24.17</ele>
        <time>2015-09-06T07:31:01Z</time>
      </trkpt>
      <trkpt lat="47.81155" lon="-3.41174">
        <ele>23.69</ele>
        <time>2015-09-06T07:31:02Z</time>
      </trkpt>
      <trkpt lat="47.81157" lon="-3.41177">
        <ele>25.13</ele>
        <time>2015-09-06T07:31:03Z</time>
      </trkpt>
      <trkpt lat="47.8116" lon="-3.4118">
        <ele>25.61</ele>
        <time>2015-09-06T07:31:04Z</time>
      </trkpt>
      <trkpt lat="47.81162" lon="-3.41181">
        <ele>26.09</ele>
        <time>2015-09-06T07:31:05Z</time>
      </trkpt>
      <trkpt lat="47.81164" lon="-3.41183">
        <ele>26.09</ele>
        <time>2015-09-06T07:31:06Z</time>
      </trkpt>
      <trkpt lat="47.81166" lon="-3.41185">
        <ele>26.57</ele>
        <time>2015-09-06T07:31:07Z</time>
      </trkpt>
      <trkpt lat="47.81167" lon="-3.41186">
        <ele>26.57</ele>
        <time>2015-09-06T07:31:08Z</time>
      </trkpt>
      <trkpt lat="47.81169" lon="-3.41187">
        <ele>27.05</ele>
        <time>2015-09-06T07:31:09Z</time>
      </trkpt>
      <trkpt lat="47.81171" lon="-3.41189">
        <ele>27.05</ele>
        <time>2015-09-06T07:31:10Z</time>
      </trkpt>
      <trkpt lat="47.81172" lon="-3.41191">
        <ele>27.05</ele>
        <time>2015-09-06T07:31:11Z</time>
      </trkpt>
      <trkpt lat="47.81174" lon="-3.41193">
        <ele>28.02</ele>
        <time>2015-09-06T07:31:12Z</time>
      </trkpt>
      <trkpt lat="47.81176" lon="-3.41194">
        <ele>28.02</ele>
        <time>2015-09-06T07:31:13Z</time>
      </trkpt>
      <trkpt lat="47.81178" lon="-3.41196">
        <ele>28.5</ele>
        <time>2015-09-06T07:31:14Z</time>
      </trkpt>
      <trkpt lat="47.8118" lon="-3.41199">
        <ele>28.5</ele>
        <time>2015-09-06T07:31:15Z</time>
      </trkpt>
      <trkpt lat="47.81181" lon="-3.41202">
        <ele>28.98</ele>
        <time>2015-09-06T07:31:16Z</time>
      </trkpt>
      <trkpt lat="47.81183" lon="-3.41204">
        <ele>29.46</ele>
        <time>2015-09-06T07:31:17Z</time>
      </trkpt>
      <trkpt lat="47.81184" lon="-3.41206">
        <ele>29.46</ele>
        <time>2015-09-06T07:31:18Z</time>
      </trkpt>
      <trkpt lat="47.81186" lon="-3.41208">
        <ele>29.94</ele>
        <time>2015-09-06T07:31:19Z</time>
      </trkpt>
      <trkpt lat="47.81188" lon="-3.4121">
        <ele>29.94</ele>
        <time>2015-09-06T07:31:20Z</time>
      </trkpt>
      <trkpt lat="47.81189" lon="-3.41212">
        <ele>30.42</ele>
        <time>2015-09-06T07:31:21Z</time>
      </trkpt>
      <trkpt lat="47.81191" lon="-3.41214">
        <ele>30.42</ele>
        <time>2015-09-06T07:31:22Z</time>
      </trkpt>
      <trkpt lat="47.81193" lon="-3.41215">
        <ele>30.9</ele>
        <time>2015-09-06T07:31:23Z</time>
      </trkpt>
      <trkpt lat="47.81194" lon="-3.41216">
        <ele>30.9</ele>
        <time>2015-09-06T07:31:24Z</time>
      </trkpt>
      <trkpt lat="47.81195" lon="-3.41219">
        <ele>30.9</ele>
        <time>2015-09-06T07:31:25Z</time>
      </trkpt>
      <trkpt lat="47.81196" lon="-3.41221">
        <ele>31.86</ele>
        <time>2015-09-06T07:31:26Z</time>
      </trkpt>
      <trkpt lat="47.81197" lon="-3.41225">
        <ele>31.86</ele>
        <time>2015-09-06T07:31:27Z</time>
      </trkpt>
      <trkpt lat="47.81199" lon="-3.41228">
        <ele>31.86</ele>
        <time>2015-09-06T07:31:28Z</time>
      </trkpt>
      <trkpt lat="47.812" lon="-3.41232">
        <ele>31.86</ele>
        <time>2015-09-06T07:31:29Z</time>
      </trkpt>
      <trkpt lat="47.81202" lon="-3.41234">
        <ele>31.86</ele>
        <time>2015-09-06T07:31:30Z</time>
      </trkpt>
      <trkpt lat="47.81204" lon="-3.41237">
        <ele>31.86</ele>
        <time>2015-09-06T07:31:31Z</time>
      </trkpt>
      <trkpt lat="47.81206" lon="-3.41239">
        <ele>31.86</ele>
        <time>2015-09-06T07:31:32Z</time>
      </trkpt>
      <trkpt lat="47.81208" lon="-3.41242">
        <ele>32.34</ele>
        <time>2015-09-06T07:31:33Z</time>
      </trkpt>
      <trkpt lat="47.8121" lon="-3.41245">
        <ele>32.34</ele>
        <time>2015-09-06T07:31:34Z</time>
      </trkpt>
      <trkpt lat="47.81211" lon="-3.41248">
        <ele>32.82</ele>
        <time>2015-09-06T07:31:35Z</time>
      </trkpt>
      <trkpt lat="47.81213" lon="-3.4125">
        <ele>32.82</ele>
        <time>2015-09-06T07:31:36Z</time>
      </trkpt>
      <trkpt lat="47.81215" lon="-3.41253">
        <ele>33.3</ele>
        <time>2015-09-06T07:31:37Z</time>
      </trkpt>
      <trkpt lat="47.81217" lon="-3.41256">
        <ele>33.3</ele>
        <time>2015-09-06T07:31:38Z</time>
      </trkpt>
      <trkpt lat="47.81219" lon="-3.41259">
        <ele>33.3</ele>
        <time>2015-09-06T07:31:39Z</time>
      </trkpt>
      <trkpt lat="47.8122" lon="-3.41262">
        <ele>33.78</ele>
        <time>2015-09-06T07:31:40Z</time>
      </trkpt>
      <trkpt lat="47.81222" lon="-3.41265">
        <ele>33.78</ele>
        <time>2015-09-06T07:31:41Z</time>
      </trkpt>
      <trkpt lat="47.81224" lon="-3.41267">
        <ele>33.78</ele>
        <time>2015-09-06T07:31:42Z</time>
      </trkpt>
      <trkpt lat="47.81226" lon="-3.41269">
        <ele>34.26</ele>
        <time>2015-09-06T07:31:43Z</time>
      </trkpt>
      <trkpt lat="47.81227" lon="-3.41272">
        <ele>34.26</ele>
        <time>2015-09-06T07:31:44Z</time>
      </trkpt>
      <trkpt lat="47.81229" lon="-3.41275">
        <ele>34.74</ele>
        <time>2015-09-06T07:31:45Z</time>
      </trkpt>
      <trkpt lat="47.8123" lon="-3.41278">
        <ele>34.74</ele>
        <time>2015-09-06T07:31:46Z</time>
      </trkpt>
      <trkpt lat="47.81232" lon="-3.41281">
        <ele>34.74</ele>
        <time>2015-09-06T07:31:47Z</time>
      </trkpt>
      <trkpt lat="47.81233" lon="-3.41283">
        <ele>35.23</ele>
        <time>2015-09-06T07:31:48Z</time>
      </trkpt>
      <trkpt lat="47.81235" lon="-3.41285">
        <ele>35.23</ele>
        <time>2015-09-06T07:31:49Z</time>
      </trkpt>
      <trkpt lat="47.81236" lon="-3.41288">
        <ele>35.23</ele>
        <time>2015-09-06T07:31:50Z</time>
      </trkpt>
      <trkpt lat="47.81237" lon="-3.4129">
        <ele>35.71</ele>
        <time>2015-09-06T07:31:51Z</time>
      </trkpt>
      <trkpt lat="47.81239" lon="-3.41293">
        <ele>35.71</ele>
        <time>2015-09-06T07:31:52Z</time>
      </trkpt>
      <trkpt lat="47.8124" lon="-3.41296">
        <ele>36.19</ele>
        <time>2015-09-06T07:31:53Z</time>
      </trkpt>
      <trkpt lat="47.81241" lon="-3.41298">
        <ele>36.67</ele>
        <time>2015-09-06T07:31:54Z</time>
      </trkpt>
      <trkpt lat="47.81242" lon="-3.41299">
        <ele>36.67</ele>
        <time>2015-09-06T07:31:55Z</time>
      </trkpt>
      <trkpt lat="47.81243" lon="-3.41301">
        <ele>36.67</ele>
        <time>2015-09-06T07:31:56Z</time>
      </trkpt>
      <trkpt lat="47.81245" lon="-3.41304">
        <ele>37.15</ele>
        <time>2015-09-06T07:31:57Z</time>
      </trkpt>
      <trkpt lat="47.81246" lon="-3.41306">
        <ele>37.15</ele>
        <time>2015-09-06T07:31:58Z</time>
      </trkpt>
      <trkpt lat="47.81248" lon="-3.41308">
        <ele>37.15</ele>
        <time>2015-09-06T07:31:59Z</time>
      </trkpt>
      <trkpt lat="47.8125" lon="-3.41309">
        <ele>37.15</ele>
        <time>2015-09-06T07:32:00Z</time>
      </trkpt>
      <trkpt lat="47.81251" lon="-3.41311">
        <ele>37.63</ele>
        <time>2015-09-06T07:32:01Z</time>
      </trkpt>
      <trkpt lat="47.81253" lon="-3.41312">
        <ele>37.63</ele>
        <time>2015-09-06T07:32:02Z</time>
      </trkpt>
      <trkpt lat="47.81254" lon="-3.41314">
        <ele>37.63</ele>
        <time>2015-09-06T07:32:03Z</time>
      </trkpt>
      <trkpt lat="47.81256" lon="-3.41315">
        <ele>37.63</ele>
        <time>2015-09-06T07:32:04Z</time>
      </trkpt>
      <trkpt lat="47.81257" lon="-3.41317">
        <ele>38.11</ele>
        <time>2015-09-06T07:32:05Z</time>
      </trkpt>
      <trkpt lat="47.81259" lon="-3.41318">
        <ele>38.11</ele>
        <time>2015-09-06T07:32:06Z</time>
      </trkpt>
      <trkpt lat="47.81261" lon="-3.41319">
        <ele>38.11</ele>
        <time>2015-09-06T07:32:07Z</time>
      </trkpt>
      <trkpt lat="47.81263" lon="-3.4132">
        <ele>38.59</ele>
        <time>2015-09-06T07:32:08Z</time>
      </trkpt>
      <trkpt lat="47.81265" lon="-3.4132">
        <ele>38.59</ele>
        <time>2015-09-06T07:32:09Z</time>
      </trkpt>
      <trkpt lat="47.81267" lon="-3.41321">
        <ele>38.59</ele>
        <time>2015-09-06T07:32:10Z</time>
      </trkpt>
      <trkpt lat="47.81269" lon="-3.41322">
        <ele>38.59</ele>
        <time>2015-09-06T07:32:11Z</time>
      </trkpt>
      <trkpt lat="47.81271" lon="-3.41322">
        <ele>39.07</ele>
        <time>2015-09-06T07:32:12Z</time>
      </trkpt>
      <trkpt lat="47.81274" lon="-3.41324">
        <ele>39.07</ele>
        <time>2015-09-06T07:32:13Z</time>
      </trkpt>
      <trkpt lat="47.81277" lon="-3.41324">
        <ele>39.07</ele>
        <time>2015-09-06T07:32:14Z</time>
      </trkpt>
      <trkpt lat="47.81279" lon="-3.41325">
        <ele>39.07</ele>
        <time>2015-09-06T07:32:15Z</time>
      </trkpt>
      <trkpt lat="47.81281" lon="-3.41325">
        <ele>39.55</ele>
        <time>2015-09-06T07:32:16Z</time>
      </trkpt>
      <trkpt lat="47.81283" lon="-3.41326">
        <ele>39.55</ele>
        <time>2015-09-06T07:32:17Z</time>
      </trkpt>
      <trkpt lat="47.81285" lon="-3.41327">
        <ele>39.55</ele>
        <time>2015-09-06T07:32:18Z</time>
      </trkpt>
      <trkpt lat="47.81287" lon="-3.41328">
        <ele>39.55</ele>
        <time>2015-09-06T07:32:19Z</time>
      </trkpt>
      <trkpt lat="47.81289" lon="-3.41328">
        <ele>39.55</ele>
        <time>2015-09-06T07:32:20Z</time>
      </trkpt>
      <trkpt lat="47.81292" lon="-3.41328">
        <ele>39.55</ele>
        <time>2015-09-06T07:32:21Z</time>
      </trkpt>
      <trkpt lat="47.81294" lon="-3.41327">
        <ele>39.55</ele>
        <time>2015-09-06T07:32:22Z</time>
      </trkpt>
      <trkpt lat="47.81297" lon="-3.41327">
        <ele>40.03</ele>
        <time>2015-09-06T07:32:23Z</time>
      </trkpt>
      <trkpt lat="47.813" lon="-3.41327">
        <ele>40.03</ele>
        <time>2015-09-06T07:32:24Z</time>
      </trkpt>
      <trkpt lat="47.81302" lon="-3.41326">
        <ele>40.03</ele>
        <time>2015-09-06T07:32:25Z</time>
      </trkpt>
      <trkpt lat="47.81304" lon="-3.41325">
        <ele>40.03</ele>
        <time>2015-09-06T07:32:26Z</time>
      </trkpt>
      <trkpt lat="47.81307" lon="-3.41325">
        <ele>40.03</ele>
        <time>2015-09-06T07:32:27Z</time>
      </trkpt>
      <trkpt lat="47.81309" lon="-3.41325">
        <ele>40.03</ele>
        <time>2015-09-06T07:32:28Z</time>
      </trkpt>
      <trkpt lat="47.81312" lon="-3.41325">
        <ele>40.51</ele>
        <time>2015-09-06T07:32:29Z</time>
      </trkpt>
      <trkpt lat="47.81315" lon="-3.41325">
        <ele>40.03</ele>
        <time>2015-09-06T07:32:30Z</time>
      </trkpt>
      <trkpt lat="47.81318" lon="-3.41325">
        <ele>40.03</ele>
        <time>2015-09-06T07:32:31Z</time>
      </trkpt>
      <trkpt lat="47.81321" lon="-3.41324">
        <ele>40.51</ele>
        <time>2015-09-06T07:32:32Z</time>
      </trkpt>
      <trkpt lat="47.81324" lon="-3.41324">
        <ele>40.51</ele>
        <time>2015-09-06T07:32:33Z</time>
      </trkpt>
      <trkpt lat="47.81326" lon="-3.41324">
        <ele>40.99</ele>
        <time>2015-09-06T07:32:34Z</time>
      </trkpt>
      <trkpt lat="47.81328" lon="-3.41323">
        <ele>40.99</ele>
        <time>2015-09-06T07:32:35Z</time>
      </trkpt>
      <trkpt lat="47.81331" lon="-3.41323">
        <ele>40.99</ele>
        <time>2015-09-06T07:32:36Z</time>
      </trkpt>
      <trkpt lat="47.81334" lon="-3.41324">
        <ele>40.99</ele>
        <time>2015-09-06T07:32:37Z</time>
      </trkpt>
      <trkpt lat="47.81338" lon="-3.41323">
        <ele>40.99</ele>
        <time>2015-09-06T07:32:38Z</time>
      </trkpt>
      <trkpt lat="47.8134" lon="-3.41323">
        <ele>40.99</ele>
        <time>2015-09-06T07:32:39Z</time>
      </trkpt>
      <trkpt lat="47.81344" lon="-3.41324">
        <ele>40.99</ele>
        <time>2015-09-06T07:32:40Z</time>
      </trkpt>
      <trkpt lat="47.81347" lon="-3.41326">
        <ele>40.99</ele>
        <time>2015-09-06T07:32:41Z</time>
      </trkpt>
      <trkpt lat="47.81351" lon="-3.41327">
        <ele>40.99</ele>
        <time>2015-09-06T07:32:42Z</time>
      </trkpt>
      <trkpt lat="47.81354" lon="-3.4133">
        <ele>40.99</ele>
        <time>2015-09-06T07:32:43Z</time>
      </trkpt>
      <trkpt lat="47.81357" lon="-3.41332">
        <ele>40.99</ele>
        <time>2015-09-06T07:32:44Z</time>
      </trkpt>
      <trkpt lat="47.81361" lon="-3.41336">
        <ele>40.03</ele>
        <time>2015-09-06T07:32:45Z</time>
      </trkpt>
      <trkpt lat="47.81365" lon="-3.41338">
        <ele>40.03</ele>
        <time>2015-09-06T07:32:46Z</time>
      </trkpt>
      <trkpt lat="47.81368" lon="-3.41341">
        <ele>40.03</ele>
        <time>2015-09-06T07:32:47Z</time>
      </trkpt>
      <trkpt lat="47.81372" lon="-3.41343">
        <ele>40.03</ele>
        <time>2015-09-06T07:32:48Z</time>
      </trkpt>
      <trkpt lat="47.81375" lon="-3.41346">
        <ele>40.03</ele>
        <time>2015-09-06T07:32:49Z</time>
      </trkpt>
      <trkpt lat="47.81378" lon="-3.41349">
        <ele>40.03</ele>
        <time>2015-09-06T07:32:50Z</time>
      </trkpt>
      <trkpt lat="47.81381" lon="-3.41352">
        <ele>40.03</ele>
        <time>2015-09-06T07:32:51Z</time>
      </trkpt>
      <trkpt lat="47.81384" lon="-3.41354">
        <ele>39.55</ele>
        <time>2015-09-06T07:32:52Z</time>
      </trkpt>
      <trkpt lat="47.81387" lon="-3.41357">
        <ele>39.55</ele>
        <time>2015-09-06T07:32:53Z</time>
      </trkpt>
      <trkpt lat="47.8139" lon="-3.41359">
        <ele>39.55</ele>
        <time>2015-09-06T07:32:54Z</time>
      </trkpt>
      <trkpt lat="47.81392" lon="-3.41362">
        <ele>39.55</ele>
        <time>2015-09-06T07:32:55Z</time>
      </trkpt>
      <trkpt lat="47.81394" lon="-3.41364">
        <ele>39.07</ele>
        <time>2015-09-06T07:32:56Z</time>
      </trkpt>
      <trkpt lat="47.81395" lon="-3.41366">
        <ele>39.07</ele>
        <time>2015-09-06T07:32:57Z</time>
      </trkpt>
      <trkpt lat="47.81394" lon="-3.41368">
        <ele>39.07</ele>
        <time>2015-09-06T07:32:58Z</time>
      </trkpt>
      <trkpt lat="47.81393" lon="-3.41369">
        <ele>38.59</ele>
        <time>2015-09-06T07:32:59Z</time>
      </trkpt>
      <trkpt lat="47.81392" lon="-3.4137">
        <ele>38.11</ele>
        <time>2015-09-06T07:33:00Z</time>
      </trkpt>
      <trkpt lat="47.81389" lon="-3.4137">
        <ele>37.63</ele>
        <time>2015-09-06T07:33:01Z</time>
      </trkpt>
      <trkpt lat="47.81386" lon="-3.4137">
        <ele>36.67</ele>
        <time>2015-09-06T07:33:02Z</time>
      </trkpt>
      <trkpt lat="47.81384" lon="-3.41369">
        <ele>36.19</ele>
        <time>2015-09-06T07:33:03Z</time>
      </trkpt>
      <trkpt lat="47.81381" lon="-3.41371">
        <ele>35.23</ele>
        <time>2015-09-06T07:33:04Z</time>
      </trkpt>
      <trkpt lat="47.81378" lon="-3.4137">
        <ele>34.74</ele>
        <time>2015-09-06T07:33:05Z</time>
      </trkpt>
      <trkpt lat="47.81374" lon="-3.41371">
        <ele>34.26</ele>
        <time>2015-09-06T07:33:06Z</time>
      </trkpt>
      <trkpt lat="47.81371" lon="-3.41372">
        <ele>33.78</ele>
        <time>2015-09-06T07:33:07Z</time>
      </trkpt>
      <trkpt lat="47.81368" lon="-3.41374">
        <ele>32.82</ele>
        <time>2015-09-06T07:33:08Z</time>
      </trkpt>
      <trkpt lat="47.81365" lon="-3.41378">
        <ele>30.9</ele>
        <time>2015-09-06T07:33:09Z</time>
      </trkpt>
      <trkpt lat="47.81363" lon="-3.41382">
        <ele>29.46</ele>
        <time>2015-09-06T07:33:10Z</time>
      </trkpt>
      <trkpt lat="47.81361" lon="-3.41388">
        <ele>28.5</ele>
        <time>2015-09-06T07:33:11Z</time>
      </trkpt>
      <trkpt lat="47.81359" lon="-3.41394">
        <ele>28.02</ele>
        <time>2015-09-06T07:33:12Z</time>
      </trkpt>
      <trkpt lat="47.81358" lon="-3.41403">
        <ele>27.05</ele>
        <time>2015-09-06T07:33:13Z</time>
      </trkpt>
      <trkpt lat="47.81356" lon="-3.4141">
        <ele>26.57</ele>
        <time>2015-09-06T07:33:14Z</time>
      </trkpt>
      <trkpt lat="47.81354" lon="-3.41417">
        <ele>26.57</ele>
        <time>2015-09-06T07:33:15Z</time>
      </trkpt>
      <trkpt lat="47.81351" lon="-3.41421">
        <ele>26.09</ele>
        <time>2015-09-06T07:33:16Z</time>
      </trkpt>
      <trkpt lat="47.81347" lon="-3.41425">
        <ele>25.13</ele>
        <time>2015-09-06T07:33:17Z</time>
      </trkpt>
      <trkpt lat="47.81343" lon="-3.41429">
        <ele>24.17</ele>
        <time>2015-09-06T07:33:18Z</time>
      </trkpt>
      <trkpt lat="47.81337" lon="-3.41434">
        <ele>23.21</ele>
        <time>2015-09-06T07:33:19Z</time>
      </trkpt>
      <trkpt lat="47.81332" lon="-3.41437">
        <ele>22.73</ele>
        <time>2015-09-06T07:33:20Z</time>
      </trkpt>
      <trkpt lat="47.81327" lon="-3.4144">
        <ele>21.29</ele>
        <time>2015-09-06T07:33:21Z</time>
      </trkpt>
      <trkpt lat="47.81321" lon="-3.41443">
        <ele>20.81</ele>
        <time>2015-09-06T07:33:22Z</time>
      </trkpt>
      <trkpt lat="47.81316" lon="-3.41447">
        <ele>19.84</ele>
        <time>2015-09-06T07:33:23Z</time>
      </trkpt>
      <trkpt lat="47.8131" lon="-3.4145">
        <ele>18.88</ele>
        <time>2015-09-06T07:33:24Z</time>
      </trkpt>
      <trkpt lat="47.81305" lon="-3.41453">
        <ele>17.92</ele>
        <time>2015-09-06T07:33:25Z</time>
      </trkpt>
      <trkpt lat="47.81301" lon="-3.41456">
        <ele>16.96</ele>
        <time>2015-09-06T07:33:26Z</time>
      </trkpt>
      <trkpt lat="47.81296" lon="-3.41461">
        <ele>16.48</ele>
        <time>2015-09-06T07:33:27Z</time>
      </trkpt>
      <trkpt lat="47.81292" lon="-3.41466">
        <ele>16</ele>
        <time>2015-09-06T07:33:28Z</time>
      </trkpt>
      <trkpt lat="47.81291" lon="-3.41473">
        <ele>15.04</ele>
        <time>2015-09-06T07:33:29Z</time>
      </trkpt>
      <trkpt lat="47.81291" lon="-3.41479">
        <ele>14.08</ele>
        <time>2015-09-06T07:33:30Z</time>
      </trkpt>
      <trkpt lat="47.81293" lon="-3.41487">
        <ele>13.6</ele>
        <time>2015-09-06T07:33:31Z</time>
      </trkpt>
      <trkpt lat="47.81295" lon="-3.41493">
        <ele>12.63</ele>
        <time>2015-09-06T07:33:32Z</time>
      </trkpt>
      <trkpt lat="47.81299" lon="-3.41498">
        <ele>12.15</ele>
        <time>2015-09-06T07:33:33Z</time>
      </trkpt>
      <trkpt lat="47.81303" lon="-3.41503">
        <ele>12.15</ele>
        <time>2015-09-06T07:33:34Z</time>
      </trkpt>
      <trkpt lat="47.81307" lon="-3.41509">
        <ele>11.67</ele>
        <time>2015-09-06T07:33:35Z</time>
      </trkpt>
      <trkpt lat="47.81311" lon="-3.41514">
        <ele>11.67</ele>
        <time>2015-09-06T07:33:36Z</time>
      </trkpt>
      <trkpt lat="47.81314" lon="-3.41519">
        <ele>11.19</ele>
        <time>2015-09-06T07:33:37Z</time>
      </trkpt>
      <trkpt lat="47.81316" lon="-3.41524">
        <ele>11.19</ele>
        <time>2015-09-06T07:33:38Z</time>
      </trkpt>
      <trkpt lat="47.81318" lon="-3.41527">
        <ele>11.19</ele>
        <time>2015-09-06T07:33:39Z</time>
      </trkpt>
      <trkpt lat="47.81321" lon="-3.4153">
        <ele>11.19</ele>
        <time>2015-09-06T07:33:40Z</time>
      </trkpt>
      <trkpt lat="47.81323" lon="-3.41533">
        <ele>11.19</ele>
        <time>2015-09-06T07:33:41Z</time>
      </trkpt>
      <trkpt lat="47.81325" lon="-3.41537">
        <ele>11.19</ele>
        <time>2015-09-06T07:33:42Z</time>
      </trkpt>
      <trkpt lat="47.81327" lon="-3.4154">
        <ele>11.19</ele>
        <time>2015-09-06T07:33:43Z</time>
      </trkpt>
      <trkpt lat="47.81328" lon="-3.41544">
        <ele>11.19</ele>
        <time>2015-09-06T07:33:44Z</time>
      </trkpt>
      <trkpt lat="47.8133" lon="-3.41547">
        <ele>11.19</ele>
        <time>2015-09-06T07:33:45Z</time>
      </trkpt>
      <trkpt lat="47.81331" lon="-3.41551">
        <ele>11.19</ele>
        <time>2015-09-06T07:33:46Z</time>
      </trkpt>
      <trkpt lat="47.81333" lon="-3.41555">
        <ele>11.19</ele>
        <time>2015-09-06T07:33:47Z</time>
      </trkpt>
      <trkpt lat="47.81335" lon="-3.4156">
        <ele>11.19</ele>
        <time>2015-09-06T07:33:48Z</time>
      </trkpt>
      <trkpt lat="47.81337" lon="-3.41564">
        <ele>11.19</ele>
        <time>2015-09-06T07:33:49Z</time>
      </trkpt>
      <trkpt lat="47.81338" lon="-3.41568">
        <ele>11.19</ele>
        <time>2015-09-06T07:33:50Z</time>
      </trkpt>
      <trkpt lat="47.8134" lon="-3.41573">
        <ele>11.19</ele>
        <time>2015-09-06T07:33:51Z</time>
      </trkpt>
      <trkpt lat="47.81341" lon="-3.41577">
        <ele>11.19</ele>
        <time>2015-09-06T07:33:52Z</time>
      </trkpt>
      <trkpt lat="47.81342" lon="-3.41583">
        <ele>11.19</ele>
        <time>2015-09-06T07:33:53Z</time>
      </trkpt>
      <trkpt lat="47.81342" lon="-3.41588">
        <ele>11.19</ele>
        <time>2015-09-06T07:33:54Z</time>
      </trkpt>
      <trkpt lat="47.81343" lon="-3.41593">
        <ele>11.19</ele>
        <time>2015-09-06T07:33:55Z</time>
      </trkpt>
      <trkpt lat="47.81343" lon="-3.41597">
        <ele>11.19</ele>
        <time>2015-09-06T07:33:56Z</time>
      </trkpt>
      <trkpt lat="47.81342" lon="-3.41602">
        <ele>11.19</ele>
        <time>2015-09-06T07:33:57Z</time>
      </trkpt>
      <trkpt lat="47.81341" lon="-3.41606">
        <ele>11.19</ele>
        <time>2015-09-06T07:33:58Z</time>
      </trkpt>
      <trkpt lat="47.8134" lon="-3.41611">
        <ele>11.19</ele>
        <time>2015-09-06T07:33:59Z</time>
      </trkpt>
      <trkpt lat="47.8134" lon="-3.41615">
        <ele>11.19</ele>
        <time>2015-09-06T07:34:00Z</time>
      </trkpt>
      <trkpt lat="47.81339" lon="-3.41619">
        <ele>11.19</ele>
        <time>2015-09-06T07:34:01Z</time>
      </trkpt>
      <trkpt lat="47.81338" lon="-3.41622">
        <ele>11.19</ele>
        <time>2015-09-06T07:34:02Z</time>
      </trkpt>
      <trkpt lat="47.81338" lon="-3.41625">
        <ele>11.19</ele>
        <time>2015-09-06T07:34:03Z</time>
      </trkpt>
      <trkpt lat="47.81337" lon="-3.41628">
        <ele>11.19</ele>
        <time>2015-09-06T07:34:04Z</time>
      </trkpt>
      <trkpt lat="47.81335" lon="-3.41631">
        <ele>11.19</ele>
        <time>2015-09-06T07:34:05Z</time>
      </trkpt>
      <trkpt lat="47.81334" lon="-3.41634">
        <ele>11.19</ele>
        <time>2015-09-06T07:34:06Z</time>
      </trkpt>
      <trkpt lat="47.81333" lon="-3.41638">
        <ele>11.19</ele>
        <time>2015-09-06T07:34:07Z</time>
      </trkpt>
      <trkpt lat="47.81331" lon="-3.41642">
        <ele>11.19</ele>
        <time>2015-09-06T07:34:08Z</time>
      </trkpt>
      <trkpt lat="47.8133" lon="-3.41646">
        <ele>11.19</ele>
        <time>2015-09-06T07:34:09Z</time>
      </trkpt>
      <trkpt lat="47.81329" lon="-3.41651">
        <ele>11.19</ele>
        <time>2015-09-06T07:34:10Z</time>
      </trkpt>
      <trkpt lat="47.81328" lon="-3.41656">
        <ele>12.15</ele>
        <time>2015-09-06T07:34:11Z</time>
      </trkpt>
      <trkpt lat="47.81326" lon="-3.41661">
        <ele>12.15</ele>
        <time>2015-09-06T07:34:12Z</time>
      </trkpt>
      <trkpt lat="47.81325" lon="-3.41664">
        <ele>12.15</ele>
        <time>2015-09-06T07:34:13Z</time>
      </trkpt>
      <trkpt lat="47.81324" lon="-3.41669">
        <ele>12.63</ele>
        <time>2015-09-06T07:34:14Z</time>
      </trkpt>
      <trkpt lat="47.81323" lon="-3.41673">
        <ele>12.63</ele>
        <time>2015-09-06T07:34:15Z</time>
      </trkpt>
      <trkpt lat="47.81321" lon="-3.41678">
        <ele>13.12</ele>
        <time>2015-09-06T07:34:16Z</time>
      </trkpt>
      <trkpt lat="47.8132" lon="-3.41683">
        <ele>12.63</ele>
        <time>2015-09-06T07:34:17Z</time>
      </trkpt>
      <trkpt lat="47.81319" lon="-3.41687">
        <ele>13.12</ele>
        <time>2015-09-06T07:34:18Z</time>
      </trkpt>
      <trkpt lat="47.81318" lon="-3.41692">
        <ele>13.12</ele>
        <time>2015-09-06T07:34:19Z</time>
      </trkpt>
      <trkpt lat="47.81317" lon="-3.41698">
        <ele>13.12</ele>
        <time>2015-09-06T07:34:20Z</time>
      </trkpt>
      <trkpt lat="47.81315" lon="-3.41704">
        <ele>13.12</ele>
        <time>2015-09-06T07:34:21Z</time>
      </trkpt>
      <trkpt lat="47.81315" lon="-3.41711">
        <ele>13.12</ele>
        <time>2015-09-06T07:34:22Z</time>
      </trkpt>
      <trkpt lat="47.81314" lon="-3.41716">
        <ele>14.08</ele>
        <time>2015-09-06T07:34:23Z</time>
      </trkpt>
      <trkpt lat="47.81314" lon="-3.4172">
        <ele>14.56</ele>
        <time>2015-09-06T07:34:24Z</time>
      </trkpt>
      <trkpt lat="47.81314" lon="-3.41724">
        <ele>15.04</ele>
        <time>2015-09-06T07:34:25Z</time>
      </trkpt>
      <trkpt lat="47.81313" lon="-3.41727">
        <ele>15.04</ele>
        <time>2015-09-06T07:34:26Z</time>
      </trkpt>
      <trkpt lat="47.81313" lon="-3.4173">
        <ele>16</ele>
        <time>2015-09-06T07:34:27Z</time>
      </trkpt>
      <trkpt lat="47.81313" lon="-3.41733">
        <ele>16</ele>
        <time>2015-09-06T07:34:28Z</time>
      </trkpt>
      <trkpt lat="47.81312" lon="-3.41736">
        <ele>16.48</ele>
        <time>2015-09-06T07:34:29Z</time>
      </trkpt>
      <trkpt lat="47.81311" lon="-3.41738">
        <ele>16.48</ele>
        <time>2015-09-06T07:34:30Z</time>
      </trkpt>
      <trkpt lat="47.81311" lon="-3.41741">
        <ele>17.44</ele>
        <time>2015-09-06T07:34:31Z</time>
      </trkpt>
      <trkpt lat="47.8131" lon="-3.41744">
        <ele>17.44</ele>
        <time>2015-09-06T07:34:32Z</time>
      </trkpt>
      <trkpt lat="47.81309" lon="-3.41748">
        <ele>17.92</ele>
        <time>2015-09-06T07:34:33Z</time>
      </trkpt>
      <trkpt lat="47.81309" lon="-3.41751">
        <ele>17.92</ele>
        <time>2015-09-06T07:34:34Z</time>
      </trkpt>
      <trkpt lat="47.81308" lon="-3.41754">
        <ele>18.4</ele>
        <time>2015-09-06T07:34:35Z</time>
      </trkpt>
      <trkpt lat="47.81308" lon="-3.41757">
        <ele>18.4</ele>
        <time>2015-09-06T07:34:36Z</time>
      </trkpt>
      <trkpt lat="47.81307" lon="-3.4176">
        <ele>18.4</ele>
        <time>2015-09-06T07:34:37Z</time>
      </trkpt>
      <trkpt lat="47.81307" lon="-3.41762">
        <ele>18.88</ele>
        <time>2015-09-06T07:34:38Z</time>
      </trkpt>
      <trkpt lat="47.81307" lon="-3.41764">
        <ele>18.88</ele>
        <time>2015-09-06T07:34:39Z</time>
      </trkpt>
      <trkpt lat="47.81307" lon="-3.41766">
        <ele>19.84</ele>
        <time>2015-09-06T07:34:40Z</time>
      </trkpt>
      <trkpt lat="47.81307" lon="-3.41767">
        <ele>19.84</ele>
        <time>2015-09-06T07:34:41Z</time>
      </trkpt>
      <trkpt lat="47.81307" lon="-3.41769">
        <ele>19.84</ele>
        <time>2015-09-06T07:34:42Z</time>
      </trkpt>
      <trkpt lat="47.81307" lon="-3.41772">
        <ele>20.32</ele>
        <time>2015-09-06T07:34:43Z</time>
      </trkpt>
      <trkpt lat="47.81307" lon="-3.41775">
        <ele>20.32</ele>
        <time>2015-09-06T07:34:44Z</time>
      </trkpt>
      <trkpt lat="47.81307" lon="-3.41779">
        <ele>20.32</ele>
        <time>2015-09-06T07:34:45Z</time>
      </trkpt>
      <trkpt lat="47.81308" lon="-3.41782">
        <ele>20.32</ele>
        <time>2015-09-06T07:34:46Z</time>
      </trkpt>
      <trkpt lat="47.81309" lon="-3.41784">
        <ele>20.32</ele>
        <time>2015-09-06T07:34:47Z</time>
      </trkpt>
      <trkpt lat="47.8131" lon="-3.41787">
        <ele>20.81</ele>
        <time>2015-09-06T07:34:48Z</time>
      </trkpt>
      <trkpt lat="47.81311" lon="-3.41789">
        <ele>20.32</ele>
        <time>2015-09-06T07:34:49Z</time>
      </trkpt>
      <trkpt lat="47.81311" lon="-3.41792">
        <ele>20.81</ele>
        <time>2015-09-06T07:34:50Z</time>
      </trkpt>
      <trkpt lat="47.81312" lon="-3.41797">
        <ele>20.81</ele>
        <time>2015-09-06T07:34:51Z</time>
      </trkpt>
      <trkpt lat="47.81312" lon="-3.41803">
        <ele>20.81</ele>
        <time>2015-09-06T07:34:52Z</time>
      </trkpt>
      <trkpt lat="47.81312" lon="-3.41807">
        <ele>20.81</ele>
        <time>2015-09-06T07:34:53Z</time>
      </trkpt>
      <trkpt lat="47.81312" lon="-3.41811">
        <ele>20.81</ele>
        <time>2015-09-06T07:34:54Z</time>
      </trkpt>
      <trkpt lat="47.81313" lon="-3.41814">
        <ele>20.81</ele>
        <time>2015-09-06T07:34:55Z</time>
      </trkpt>
      <trkpt lat="47.81314" lon="-3.41817">
        <ele>20.81</ele>
        <time>2015-09-06T07:34:56Z</time>
      </trkpt>
      <trkpt lat="47.81314" lon="-3.41819">
        <ele>20.81</ele>
        <time>2015-09-06T07:34:57Z</time>
      </trkpt>
      <trkpt lat="47.81316" lon="-3.41822">
        <ele>19.84</ele>
        <time>2015-09-06T07:34:58Z</time>
      </trkpt>
      <trkpt lat="47.81317" lon="-3.41823">
        <ele>19.84</ele>
        <time>2015-09-06T07:34:59Z</time>
      </trkpt>
      <trkpt lat="47.81319" lon="-3.41825">
        <ele>19.84</ele>
        <time>2015-09-06T07:35:00Z</time>
      </trkpt>
      <trkpt lat="47.8132" lon="-3.41827">
        <ele>19.36</ele>
        <time>2015-09-06T07:35:01Z</time>
      </trkpt>
      <trkpt lat="47.81322" lon="-3.41829">
        <ele>19.36</ele>
        <time>2015-09-06T07:35:02Z</time>
      </trkpt>
      <trkpt lat="47.81324" lon="-3.4183">
        <ele>19.36</ele>
        <time>2015-09-06T07:35:03Z</time>
      </trkpt>
      <trkpt lat="47.81326" lon="-3.41832">
        <ele>19.36</ele>
        <time>2015-09-06T07:35:04Z</time>
      </trkpt>
      <trkpt lat="47.81328" lon="-3.41833">
        <ele>19.36</ele>
        <time>2015-09-06T07:35:05Z</time>
      </trkpt>
      <trkpt lat="47.81329" lon="-3.41835">
        <ele>19.84</ele>
        <time>2015-09-06T07:35:06Z</time>
      </trkpt>
      <trkpt lat="47.81331" lon="-3.41836">
        <ele>19.36</ele>
        <time>2015-09-06T07:35:07Z</time>
      </trkpt>
      <trkpt lat="47.81332" lon="-3.41838">
        <ele>19.36</ele>
        <time>2015-09-06T07:35:08Z</time>
      </trkpt>
      <trkpt lat="47.81334" lon="-3.41839">
        <ele>19.36</ele>
        <time>2015-09-06T07:35:09Z</time>
      </trkpt>
      <trkpt lat="47.81335" lon="-3.4184">
        <ele>19.36</ele>
        <time>2015-09-06T07:35:10Z</time>
      </trkpt>
      <trkpt lat="47.81337" lon="-3.41841">
        <ele>19.36</ele>
        <time>2015-09-06T07:35:11Z</time>
      </trkpt>
      <trkpt lat="47.81339" lon="-3.41842">
        <ele>19.84</ele>
        <time>2015-09-06T07:35:12Z</time>
      </trkpt>
      <trkpt lat="47.81341" lon="-3.41843">
        <ele>19.84</ele>
        <time>2015-09-06T07:35:13Z</time>
      </trkpt>
      <trkpt lat="47.81343" lon="-3.41844">
        <ele>19.84</ele>
        <time>2015-09-06T07:35:14Z</time>
      </trkpt>
      <trkpt lat="47.81345" lon="-3.41846">
        <ele>19.84</ele>
        <time>2015-09-06T07:35:15Z</time>
      </trkpt>
      <trkpt lat="47.81348" lon="-3.41847">
        <ele>19.84</ele>
        <time>2015-09-06T07:35:16Z</time>
      </trkpt>
      <trkpt lat="47.81351" lon="-3.4185">
        <ele>19.84</ele>
        <time>2015-09-06T07:35:17Z</time>
      </trkpt>
      <trkpt lat="47.81354" lon="-3.41851">
        <ele>19.84</ele>
        <time>2015-09-06T07:35:18Z</time>
      </trkpt>
      <trkpt lat="47.81357" lon="-3.41853">
        <ele>19.84</ele>
        <time>2015-09-06T07:35:19Z</time>
      </trkpt>
      <trkpt lat="47.81359" lon="-3.41855">
        <ele>19.84</ele>
        <time>2015-09-06T07:35:20Z</time>
      </trkpt>
      <trkpt lat="47.81361" lon="-3.41857">
        <ele>19.84</ele>
        <time>2015-09-06T07:35:21Z</time>
      </trkpt>
      <trkpt lat="47.81363" lon="-3.41861">
        <ele>19.84</ele>
        <time>2015-09-06T07:35:22Z</time>
      </trkpt>
      <trkpt lat="47.81365" lon="-3.41864">
        <ele>19.84</ele>
        <time>2015-09-06T07:35:23Z</time>
      </trkpt>
      <trkpt lat="47.81368" lon="-3.41866">
        <ele>19.84</ele>
        <time>2015-09-06T07:35:24Z</time>
      </trkpt>
      <trkpt lat="47.8137" lon="-3.41869">
        <ele>19.84</ele>
        <time>2015-09-06T07:35:25Z</time>
      </trkpt>
      <trkpt lat="47.81373" lon="-3.41872">
        <ele>19.84</ele>
        <time>2015-09-06T07:35:26Z</time>
      </trkpt>
      <trkpt lat="47.81375" lon="-3.41875">
        <ele>19.84</ele>
        <time>2015-09-06T07:35:27Z</time>
      </trkpt>
      <trkpt lat="47.81378" lon="-3.41878">
        <ele>19.84</ele>
        <time>2015-09-06T07:35:28Z</time>
      </trkpt>
      <trkpt lat="47.81381" lon="-3.4188">
        <ele>19.84</ele>
        <time>2015-09-06T07:35:29Z</time>
      </trkpt>
      <trkpt lat="47.81384" lon="-3.41883">
        <ele>19.84</ele>
        <time>2015-09-06T07:35:30Z</time>
      </trkpt>
      <trkpt lat="47.81387" lon="-3.41885">
        <ele>19.84</ele>
        <time>2015-09-06T07:35:31Z</time>
      </trkpt>
      <trkpt lat="47.81389" lon="-3.41887">
        <ele>19.84</ele>
        <time>2015-09-06T07:35:32Z</time>
      </trkpt>
      <trkpt lat="47.81391" lon="-3.41889">
        <ele>19.84</ele>
        <time>2015-09-06T07:35:33Z</time>
      </trkpt>
      <trkpt lat="47.81394" lon="-3.41891">
        <ele>19.84</ele>
        <time>2015-09-06T07:35:34Z</time>
      </trkpt>
      <trkpt lat="47.81396" lon="-3.41893">
        <ele>19.84</ele>
        <time>2015-09-06T07:35:35Z</time>
      </trkpt>
      <trkpt lat="47.81398" lon="-3.41895">
        <ele>19.84</ele>
        <time>2015-09-06T07:35:36Z</time>
      </trkpt>
      <trkpt lat="47.814" lon="-3.41897">
        <ele>19.84</ele>
        <time>2015-09-06T07:35:37Z</time>
      </trkpt>
      <trkpt lat="47.81402" lon="-3.41899">
        <ele>19.84</ele>
        <time>2015-09-06T07:35:38Z</time>
      </trkpt>
      <trkpt lat="47.81405" lon="-3.41901">
        <ele>19.84</ele>
        <time>2015-09-06T07:35:39Z</time>
      </trkpt>
      <trkpt lat="47.81407" lon="-3.41904">
        <ele>19.84</ele>
        <time>2015-09-06T07:35:40Z</time>
      </trkpt>
      <trkpt lat="47.8141" lon="-3.41906">
        <ele>19.84</ele>
        <time>2015-09-06T07:35:41Z</time>
      </trkpt>
      <trkpt lat="47.81412" lon="-3.41908">
        <ele>19.84</ele>
        <time>2015-09-06T07:35:42Z</time>
      </trkpt>
      <trkpt lat="47.81415" lon="-3.4191">
        <ele>19.84</ele>
        <time>2015-09-06T07:35:43Z</time>
      </trkpt>
      <trkpt lat="47.81417" lon="-3.41912">
        <ele>19.84</ele>
        <time>2015-09-06T07:35:44Z</time>
      </trkpt>
      <trkpt lat="47.8142" lon="-3.41914">
        <ele>19.84</ele>
        <time>2015-09-06T07:35:45Z</time>
      </trkpt>
      <trkpt lat="47.81422" lon="-3.41916">
        <ele>19.84</ele>
        <time>2015-09-06T07:35:46Z</time>
      </trkpt>
      <trkpt lat="47.81424" lon="-3.41917">
        <ele>19.84</ele>
        <time>2015-09-06T07:35:47Z</time>
      </trkpt>
      <trkpt lat="47.81426" lon="-3.41919">
        <ele>19.84</ele>
        <time>2015-09-06T07:35:48Z</time>
      </trkpt>
      <trkpt lat="47.81429" lon="-3.4192">
        <ele>19.84</ele>
        <time>2015-09-06T07:35:49Z</time>
      </trkpt>
      <trkpt lat="47.81431" lon="-3.41922">
        <ele>19.84</ele>
        <time>2015-09-06T07:35:50Z</time>
      </trkpt>
      <trkpt lat="47.81433" lon="-3.41924">
        <ele>19.84</ele>
        <time>2015-09-06T07:35:51Z</time>
      </trkpt>
      <trkpt lat="47.81435" lon="-3.41926">
        <ele>19.84</ele>
        <time>2015-09-06T07:35:52Z</time>
      </trkpt>
      <trkpt lat="47.81437" lon="-3.41927">
        <ele>19.84</ele>
        <time>2015-09-06T07:35:53Z</time>
      </trkpt>
      <trkpt lat="47.81439" lon="-3.41928">
        <ele>19.84</ele>
        <time>2015-09-06T07:35:54Z</time>
      </trkpt>
      <trkpt lat="47.81442" lon="-3.4193">
        <ele>19.84</ele>
        <time>2015-09-06T07:35:55Z</time>
      </trkpt>
      <trkpt lat="47.81446" lon="-3.41934">
        <ele>19.84</ele>
        <time>2015-09-06T07:35:56Z</time>
      </trkpt>
      <trkpt lat="47.81448" lon="-3.41936">
        <ele>19.84</ele>
        <time>2015-09-06T07:35:57Z</time>
      </trkpt>
      <trkpt lat="47.81451" lon="-3.41938">
        <ele>19.84</ele>
        <time>2015-09-06T07:35:58Z</time>
      </trkpt>
      <trkpt lat="47.81453" lon="-3.41938">
        <ele>19.84</ele>
        <time>2015-09-06T07:35:59Z</time>
      </trkpt>
      <trkpt lat="47.81456" lon="-3.4194">
        <ele>19.84</ele>
        <time>2015-09-06T07:36:00Z</time>
      </trkpt>
      <trkpt lat="47.81458" lon="-3.4194">
        <ele>19.84</ele>
        <time>2015-09-06T07:36:01Z</time>
      </trkpt>
      <trkpt lat="47.81461" lon="-3.41944">
        <ele>19.84</ele>
        <time>2015-09-06T07:36:02Z</time>
      </trkpt>
      <trkpt lat="47.81463" lon="-3.41945">
        <ele>19.84</ele>
        <time>2015-09-06T07:36:03Z</time>
      </trkpt>
      <trkpt lat="47.81465" lon="-3.41945">
        <ele>19.84</ele>
        <time>2015-09-06T07:36:04Z</time>
      </trkpt>
      <trkpt lat="47.81467" lon="-3.41946">
        <ele>18.88</ele>
        <time>2015-09-06T07:36:05Z</time>
      </trkpt>
      <trkpt lat="47.81469" lon="-3.41948">
        <ele>17.92</ele>
        <time>2015-09-06T07:36:06Z</time>
      </trkpt>
      <trkpt lat="47.81472" lon="-3.41951">
        <ele>16.96</ele>
        <time>2015-09-06T07:36:07Z</time>
      </trkpt>
      <trkpt lat="47.81474" lon="-3.41954">
        <ele>15.52</ele>
        <time>2015-09-06T07:36:08Z</time>
      </trkpt>
      <trkpt lat="47.81475" lon="-3.41957">
        <ele>15.04</ele>
        <time>2015-09-06T07:36:09Z</time>
      </trkpt>
      <trkpt lat="47.81476" lon="-3.41961">
        <ele>14.08</ele>
        <time>2015-09-06T07:36:10Z</time>
      </trkpt>
      <trkpt lat="47.81476" lon="-3.41965">
        <ele>13.6</ele>
        <time>2015-09-06T07:36:11Z</time>
      </trkpt>
      <trkpt lat="47.81478" lon="-3.41967">
        <ele>13.6</ele>
        <time>2015-09-06T07:36:12Z</time>
      </trkpt>
      <trkpt lat="47.81479" lon="-3.41969">
        <ele>13.6</ele>
        <time>2015-09-06T07:36:13Z</time>
      </trkpt>
      <trkpt lat="47.8148" lon="-3.4197">
        <ele>13.6</ele>
        <time>2015-09-06T07:36:14Z</time>
      </trkpt>
      <trkpt lat="47.81482" lon="-3.41973">
        <ele>13.6</ele>
        <time>2015-09-06T07:36:20Z</time>
      </trkpt>
      <trkpt lat="47.81482" lon="-3.41974">
        <ele>13.6</ele>
        <time>2015-09-06T07:36:21Z</time>
      </trkpt>
      <trkpt lat="47.81483" lon="-3.41975">
        <ele>13.6</ele>
        <time>2015-09-06T07:36:22Z</time>
      </trkpt>
      <trkpt lat="47.81484" lon="-3.41976">
        <ele>13.6</ele>
        <time>2015-09-06T07:36:24Z</time>
      </trkpt>
      <trkpt lat="47.81485" lon="-3.41977">
        <ele>15.04</ele>
        <time>2015-09-06T07:36:25Z</time>
      </trkpt>
      <trkpt lat="47.81485" lon="-3.41978">
        <ele>15.52</ele>
        <time>2015-09-06T07:36:26Z</time>
      </trkpt>
      <trkpt lat="47.81486" lon="-3.41979">
        <ele>15.52</ele>
        <time>2015-09-06T07:36:27Z</time>
      </trkpt>
      <trkpt lat="47.81486" lon="-3.41981">
        <ele>15.52</ele>
        <time>2015-09-06T07:36:28Z</time>
      </trkpt>
      <trkpt lat="47.81487" lon="-3.41983">
        <ele>15.52</ele>
        <time>2015-09-06T07:36:29Z</time>
      </trkpt>
      <trkpt lat="47.81487" lon="-3.41985">
        <ele>16</ele>
        <time>2015-09-06T07:36:30Z</time>
      </trkpt>
      <trkpt lat="47.81487" lon="-3.41987">
        <ele>16</ele>
        <time>2015-09-06T07:36:31Z</time>
      </trkpt>
      <trkpt lat="47.81487" lon="-3.4199">
        <ele>16</ele>
        <time>2015-09-06T07:36:32Z</time>
      </trkpt>
      <trkpt lat="47.81487" lon="-3.41993">
        <ele>16</ele>
        <time>2015-09-06T07:36:33Z</time>
      </trkpt>
      <trkpt lat="47.81486" lon="-3.41996">
        <ele>16</ele>
        <time>2015-09-06T07:36:34Z</time>
      </trkpt>
      <trkpt lat="47.81485" lon="-3.42">
        <ele>16</ele>
        <time>2015-09-06T07:36:35Z</time>
      </trkpt>
      <trkpt lat="47.81485" lon="-3.42004">
        <ele>16</ele>
        <time>2015-09-06T07:36:36Z</time>
      </trkpt>
      <trkpt lat="47.81485" lon="-3.42009">
        <ele>16</ele>
        <time>2015-09-06T07:36:37Z</time>
      </trkpt>
      <trkpt lat="47.81486" lon="-3.42014">
        <ele>16</ele>
        <time>2015-09-06T07:36:38Z</time>
      </trkpt>
      <trkpt lat="47.81488" lon="-3.42018">
        <ele>15.52</ele>
        <time>2015-09-06T07:36:39Z</time>
      </trkpt>
      <trkpt lat="47.81492" lon="-3.4202">
        <ele>15.52</ele>
        <time>2015-09-06T07:36:40Z</time>
      </trkpt>
      <trkpt lat="47.81495" lon="-3.42023">
        <ele>15.52</ele>
        <time>2015-09-06T07:36:41Z</time>
      </trkpt>
      <trkpt lat="47.815" lon="-3.42026">
        <ele>15.52</ele>
        <time>2015-09-06T07:36:42Z</time>
      </trkpt>
      <trkpt lat="47.81504" lon="-3.4203">
        <ele>14.56</ele>
        <time>2015-09-06T07:36:43Z</time>
      </trkpt>
      <trkpt lat="47.81508" lon="-3.42033">
        <ele>14.56</ele>
        <time>2015-09-06T07:36:44Z</time>
      </trkpt>
      <trkpt lat="47.81511" lon="-3.42038">
        <ele>14.56</ele>
        <time>2015-09-06T07:36:45Z</time>
      </trkpt>
      <trkpt lat="47.81513" lon="-3.42044">
        <ele>14.56</ele>
        <time>2015-09-06T07:36:46Z</time>
      </trkpt>
      <trkpt lat="47.81515" lon="-3.4205">
        <ele>14.56</ele>
        <time>2015-09-06T07:36:47Z</time>
      </trkpt>
      <trkpt lat="47.81514" lon="-3.42057">
        <ele>14.56</ele>
        <time>2015-09-06T07:36:48Z</time>
      </trkpt>
      <trkpt lat="47.81513" lon="-3.42064">
        <ele>14.56</ele>
        <time>2015-09-06T07:36:49Z</time>
      </trkpt>
      <trkpt lat="47.81511" lon="-3.4207">
        <ele>14.56</ele>
        <time>2015-09-06T07:36:50Z</time>
      </trkpt>
      <trkpt lat="47.81509" lon="-3.42076">
        <ele>14.56</ele>
        <time>2015-09-06T07:36:51Z</time>
      </trkpt>
      <trkpt lat="47.81506" lon="-3.42081">
        <ele>14.56</ele>
        <time>2015-09-06T07:36:52Z</time>
      </trkpt>
      <trkpt lat="47.81504" lon="-3.42086">
        <ele>14.56</ele>
        <time>2015-09-06T07:36:53Z</time>
      </trkpt>
      <trkpt lat="47.81501" lon="-3.42092">
        <ele>14.56</ele>
        <time>2015-09-06T07:36:54Z</time>
      </trkpt>
      <trkpt lat="47.81498" lon="-3.42097">
        <ele>14.56</ele>
        <time>2015-09-06T07:36:55Z</time>
      </trkpt>
      <trkpt lat="47.81494" lon="-3.42102">
        <ele>14.56</ele>
        <time>2015-09-06T07:36:56Z</time>
      </trkpt>
      <trkpt lat="47.81492" lon="-3.42106">
        <ele>14.56</ele>
        <time>2015-09-06T07:36:57Z</time>
      </trkpt>
      <trkpt lat="47.81491" lon="-3.42111">
        <ele>14.56</ele>
        <time>2015-09-06T07:36:58Z</time>
      </trkpt>
      <trkpt lat="47.81491" lon="-3.42115">
        <ele>14.56</ele>
        <time>2015-09-06T07:36:59Z</time>
      </trkpt>
      <trkpt lat="47.81493" lon="-3.42117">
        <ele>14.56</ele>
        <time>2015-09-06T07:37:00Z</time>
      </trkpt>
      <trkpt lat="47.81495" lon="-3.42119">
        <ele>14.56</ele>
        <time>2015-09-06T07:37:01Z</time>
      </trkpt>
      <trkpt lat="47.81497" lon="-3.42121">
        <ele>14.56</ele>
        <time>2015-09-06T07:37:02Z</time>
      </trkpt>
      <trkpt lat="47.81499" lon="-3.42124">
        <ele>16</ele>
        <time>2015-09-06T07:37:03Z</time>
      </trkpt>
      <trkpt lat="47.81501" lon="-3.42125">
        <ele>16</ele>
        <time>2015-09-06T07:37:04Z</time>
      </trkpt>
      <trkpt lat="47.81503" lon="-3.42127">
        <ele>16</ele>
        <time>2015-09-06T07:37:05Z</time>
      </trkpt>
      <trkpt lat="47.81506" lon="-3.4213">
        <ele>16</ele>
        <time>2015-09-06T07:37:06Z</time>
      </trkpt>
      <trkpt lat="47.81508" lon="-3.42133">
        <ele>16.48</ele>
        <time>2015-09-06T07:37:07Z</time>
      </trkpt>
      <trkpt lat="47.81509" lon="-3.42136">
        <ele>16.48</ele>
        <time>2015-09-06T07:37:08Z</time>
      </trkpt>
      <trkpt lat="47.81511" lon="-3.42139">
        <ele>16.48</ele>
        <time>2015-09-06T07:37:09Z</time>
      </trkpt>
      <trkpt lat="47.81513" lon="-3.42141">
        <ele>16.48</ele>
        <time>2015-09-06T07:37:10Z</time>
      </trkpt>
      <trkpt lat="47.81516" lon="-3.42144">
        <ele>16.48</ele>
        <time>2015-09-06T07:37:11Z</time>
      </trkpt>
      <trkpt lat="47.81519" lon="-3.42147">
        <ele>16.48</ele>
        <time>2015-09-06T07:37:12Z</time>
      </trkpt>
      <trkpt lat="47.81522" lon="-3.42151">
        <ele>16.48</ele>
        <time>2015-09-06T07:37:13Z</time>
      </trkpt>
      <trkpt lat="47.81525" lon="-3.42155">
        <ele>16.48</ele>
        <time>2015-09-06T07:37:14Z</time>
      </trkpt>
      <trkpt lat="47.81528" lon="-3.4216">
        <ele>16.48</ele>
        <time>2015-09-06T07:37:15Z</time>
      </trkpt>
      <trkpt lat="47.8153" lon="-3.42164">
        <ele>16.48</ele>
        <time>2015-09-06T07:37:16Z</time>
      </trkpt>
      <trkpt lat="47.81532" lon="-3.42169">
        <ele>16.48</ele>
        <time>2015-09-06T07:37:17Z</time>
      </trkpt>
      <trkpt lat="47.81533" lon="-3.42173">
        <ele>16.48</ele>
        <time>2015-09-06T07:37:18Z</time>
      </trkpt>
      <trkpt lat="47.81536" lon="-3.42178">
        <ele>16.48</ele>
        <time>2015-09-06T07:37:19Z</time>
      </trkpt>
      <trkpt lat="47.81538" lon="-3.42182">
        <ele>16.48</ele>
        <time>2015-09-06T07:37:20Z</time>
      </trkpt>
      <trkpt lat="47.8154" lon="-3.42188">
        <ele>16.48</ele>
        <time>2015-09-06T07:37:21Z</time>
      </trkpt>
      <trkpt lat="47.81542" lon="-3.42193">
        <ele>16.48</ele>
        <time>2015-09-06T07:37:22Z</time>
      </trkpt>
      <trkpt lat="47.81545" lon="-3.42198">
        <ele>16.48</ele>
        <time>2015-09-06T07:37:23Z</time>
      </trkpt>
      <trkpt lat="47.81547" lon="-3.42203">
        <ele>16.48</ele>
        <time>2015-09-06T07:37:24Z</time>
      </trkpt>
      <trkpt lat="47.81548" lon="-3.42208">
        <ele>16.96</ele>
        <time>2015-09-06T07:37:25Z</time>
      </trkpt>
      <trkpt lat="47.8155" lon="-3.42212">
        <ele>16.96</ele>
        <time>2015-09-06T07:37:26Z</time>
      </trkpt>
      <trkpt lat="47.81552" lon="-3.42217">
        <ele>16.96</ele>
        <time>2015-09-06T07:37:27Z</time>
      </trkpt>
      <trkpt lat="47.81554" lon="-3.42222">
        <ele>16.96</ele>
        <time>2015-09-06T07:37:28Z</time>
      </trkpt>
      <trkpt lat="47.81557" lon="-3.42228">
        <ele>16.96</ele>
        <time>2015-09-06T07:37:29Z</time>
      </trkpt>
      <trkpt lat="47.8156" lon="-3.42233">
        <ele>16.96</ele>
        <time>2015-09-06T07:37:30Z</time>
      </trkpt>
      <trkpt lat="47.81562" lon="-3.42239">
        <ele>16.96</ele>
        <time>2015-09-06T07:37:31Z</time>
      </trkpt>
      <trkpt lat="47.81564" lon="-3.42245">
        <ele>16.96</ele>
        <time>2015-09-06T07:37:32Z</time>
      </trkpt>
      <trkpt lat="47.81566" lon="-3.42252">
        <ele>16.96</ele>
        <time>2015-09-06T07:37:33Z</time>
      </trkpt>
      <trkpt lat="47.81568" lon="-3.42258">
        <ele>16.96</ele>
        <time>2015-09-06T07:37:34Z</time>
      </trkpt>
      <trkpt lat="47.81569" lon="-3.42265">
        <ele>16.96</ele>
        <time>2015-09-06T07:37:35Z</time>
      </trkpt>
      <trkpt lat="47.8157" lon="-3.42271">
        <ele>16.96</ele>
        <time>2015-09-06T07:37:36Z</time>
      </trkpt>
      <trkpt lat="47.81572" lon="-3.42278">
        <ele>16.96</ele>
        <time>2015-09-06T07:37:37Z</time>
      </trkpt>
      <trkpt lat="47.81574" lon="-3.42284">
        <ele>16.96</ele>
        <time>2015-09-06T07:37:38Z</time>
      </trkpt>
      <trkpt lat="47.81577" lon="-3.4229">
        <ele>16.96</ele>
        <time>2015-09-06T07:37:39Z</time>
      </trkpt>
      <trkpt lat="47.81579" lon="-3.42297">
        <ele>16.96</ele>
        <time>2015-09-06T07:37:40Z</time>
      </trkpt>
      <trkpt lat="47.81581" lon="-3.42303">
        <ele>16.96</ele>
        <time>2015-09-06T07:37:41Z</time>
      </trkpt>
      <trkpt lat="47.81584" lon="-3.42309">
        <ele>16.96</ele>
        <time>2015-09-06T07:37:42Z</time>
      </trkpt>
      <trkpt lat="47.81587" lon="-3.42316">
        <ele>16.96</ele>
        <time>2015-09-06T07:37:43Z</time>
      </trkpt>
      <trkpt lat="47.8159" lon="-3.42323">
        <ele>16.96</ele>
        <time>2015-09-06T07:37:44Z</time>
      </trkpt>
      <trkpt lat="47.81593" lon="-3.42329">
        <ele>16.96</ele>
        <time>2015-09-06T07:37:45Z</time>
      </trkpt>
      <trkpt lat="47.81596" lon="-3.42336">
        <ele>16.96</ele>
        <time>2015-09-06T07:37:46Z</time>
      </trkpt>
      <trkpt lat="47.81598" lon="-3.42343">
        <ele>16.96</ele>
        <time>2015-09-06T07:37:47Z</time>
      </trkpt>
      <trkpt lat="47.81601" lon="-3.4235">
        <ele>16.96</ele>
        <time>2015-09-06T07:37:48Z</time>
      </trkpt>
      <trkpt lat="47.81603" lon="-3.42357">
        <ele>16.96</ele>
        <time>2015-09-06T07:37:49Z</time>
      </trkpt>
      <trkpt lat="47.81605" lon="-3.42364">
        <ele>16.96</ele>
        <time>2015-09-06T07:37:50Z</time>
      </trkpt>
      <trkpt lat="47.81607" lon="-3.42371">
        <ele>16.96</ele>
        <time>2015-09-06T07:37:51Z</time>
      </trkpt>
      <trkpt lat="47.81609" lon="-3.42377">
        <ele>16.96</ele>
        <time>2015-09-06T07:37:52Z</time>
      </trkpt>
      <trkpt lat="47.81611" lon="-3.42384">
        <ele>16.96</ele>
        <time>2015-09-06T07:37:53Z</time>
      </trkpt>
      <trkpt lat="47.81613" lon="-3.42389">
        <ele>16.96</ele>
        <time>2015-09-06T07:37:54Z</time>
      </trkpt>
      <trkpt lat="47.81616" lon="-3.42395">
        <ele>16.96</ele>
        <time>2015-09-06T07:37:55Z</time>
      </trkpt>
      <trkpt lat="47.81618" lon="-3.42401">
        <ele>16.96</ele>
        <time>2015-09-06T07:37:56Z</time>
      </trkpt>
      <trkpt lat="47.8162" lon="-3.42407">
        <ele>16.96</ele>
        <time>2015-09-06T07:37:57Z</time>
      </trkpt>
      <trkpt lat="47.81623" lon="-3.42413">
        <ele>16.96</ele>
        <time>2015-09-06T07:37:58Z</time>
      </trkpt>
      <trkpt lat="47.81626" lon="-3.4242">
        <ele>16.96</ele>
        <time>2015-09-06T07:37:59Z</time>
      </trkpt>
      <trkpt lat="47.81629" lon="-3.42426">
        <ele>16.96</ele>
        <time>2015-09-06T07:38:00Z</time>
      </trkpt>
      <trkpt lat="47.81632" lon="-3.42432">
        <ele>16.96</ele>
        <time>2015-09-06T07:38:01Z</time>
      </trkpt>
      <trkpt lat="47.81635" lon="-3.42438">
        <ele>16</ele>
        <time>2015-09-06T07:38:02Z</time>
      </trkpt>
      <trkpt lat="47.81638" lon="-3.42444">
        <ele>16</ele>
        <time>2015-09-06T07:38:03Z</time>
      </trkpt>
      <trkpt lat="47.8164" lon="-3.42451">
        <ele>16</ele>
        <time>2015-09-06T07:38:04Z</time>
      </trkpt>
      <trkpt lat="47.81643" lon="-3.42457">
        <ele>15.52</ele>
        <time>2015-09-06T07:38:05Z</time>
      </trkpt>
      <trkpt lat="47.81646" lon="-3.42464">
        <ele>15.52</ele>
        <time>2015-09-06T07:38:06Z</time>
      </trkpt>
      <trkpt lat="47.81649" lon="-3.4247">
        <ele>15.52</ele>
        <time>2015-09-06T07:38:07Z</time>
      </trkpt>
      <trkpt lat="47.81652" lon="-3.42477">
        <ele>15.52</ele>
        <time>2015-09-06T07:38:08Z</time>
      </trkpt>
      <trkpt lat="47.81655" lon="-3.42484">
        <ele>15.52</ele>
        <time>2015-09-06T07:38:09Z</time>
      </trkpt>
      <trkpt lat="47.81658" lon="-3.4249">
        <ele>15.52</ele>
        <time>2015-09-06T07:38:10Z</time>
      </trkpt>
      <trkpt lat="47.81661" lon="-3.42496">
        <ele>15.52</ele>
        <time>2015-09-06T07:38:11Z</time>
      </trkpt>
      <trkpt lat="47.81663" lon="-3.42503">
        <ele>15.52</ele>
        <time>2015-09-06T07:38:12Z</time>
      </trkpt>
      <trkpt lat="47.81664" lon="-3.42509">
        <ele>15.52</ele>
        <time>2015-09-06T07:38:13Z</time>
      </trkpt>
      <trkpt lat="47.81665" lon="-3.42515">
        <ele>16.48</ele>
        <time>2015-09-06T07:38:14Z</time>
      </trkpt>
      <trkpt lat="47.81664" lon="-3.42521">
        <ele>16.96</ele>
        <time>2015-09-06T07:38:15Z</time>
      </trkpt>
      <trkpt lat="47.81663" lon="-3.42525">
        <ele>16.96</ele>
        <time>2015-09-06T07:38:16Z</time>
      </trkpt>
      <trkpt lat="47.81661" lon="-3.42527">
        <ele>17.92</ele>
        <time>2015-09-06T07:38:17Z</time>
      </trkpt>
      <trkpt lat="47.8166" lon="-3.42529">
        <ele>17.92</ele>
        <time>2015-09-06T07:38:18Z</time>
      </trkpt>
      <trkpt lat="47.81658" lon="-3.42532">
        <ele>18.4</ele>
        <time>2015-09-06T07:38:19Z</time>
      </trkpt>
      <trkpt lat="47.81656" lon="-3.42533">
        <ele>18.4</ele>
        <time>2015-09-06T07:38:20Z</time>
      </trkpt>
      <trkpt lat="47.81654" lon="-3.42534">
        <ele>18.4</ele>
        <time>2015-09-06T07:38:21Z</time>
      </trkpt>
      <trkpt lat="47.81652" lon="-3.42536">
        <ele>18.88</ele>
        <time>2015-09-06T07:38:22Z</time>
      </trkpt>
      <trkpt lat="47.81651" lon="-3.42536">
        <ele>18.88</ele>
        <time>2015-09-06T07:38:23Z</time>
      </trkpt>
      <trkpt lat="47.81649" lon="-3.42537">
        <ele>19.36</ele>
        <time>2015-09-06T07:38:24Z</time>
      </trkpt>
      <trkpt lat="47.81647" lon="-3.42538">
        <ele>19.36</ele>
        <time>2015-09-06T07:38:25Z</time>
      </trkpt>
      <trkpt lat="47.81646" lon="-3.42539">
        <ele>19.36</ele>
        <time>2015-09-06T07:38:26Z</time>
      </trkpt>
      <trkpt lat="47.81645" lon="-3.4254">
        <ele>19.36</ele>
        <time>2015-09-06T07:38:27Z</time>
      </trkpt>
      <trkpt lat="47.81643" lon="-3.42541">
        <ele>19.84</ele>
        <time>2015-09-06T07:38:28Z</time>
      </trkpt>
      <trkpt lat="47.81641" lon="-3.42541">
        <ele>19.84</ele>
        <time>2015-09-06T07:38:29Z</time>
      </trkpt>
      <trkpt lat="47.8164" lon="-3.42542">
        <ele>20.32</ele>
        <time>2015-09-06T07:38:30Z</time>
      </trkpt>
      <trkpt lat="47.81638" lon="-3.42543">
        <ele>20.32</ele>
        <time>2015-09-06T07:38:31Z</time>
      </trkpt>
      <trkpt lat="47.81636" lon="-3.42543">
        <ele>20.81</ele>
        <time>2015-09-06T07:38:32Z</time>
      </trkpt>
      <trkpt lat="47.81634" lon="-3.42544">
        <ele>20.81</ele>
        <time>2015-09-06T07:38:33Z</time>
      </trkpt>
      <trkpt lat="47.81633" lon="-3.42545">
        <ele>20.81</ele>
        <time>2015-09-06T07:38:34Z</time>
      </trkpt>
      <trkpt lat="47.81631" lon="-3.42545">
        <ele>21.29</ele>
        <time>2015-09-06T07:38:35Z</time>
      </trkpt>
      <trkpt lat="47.8163" lon="-3.42545">
        <ele>21.29</ele>
        <time>2015-09-06T07:38:36Z</time>
      </trkpt>
      <trkpt lat="47.81629" lon="-3.42546">
        <ele>21.77</ele>
        <time>2015-09-06T07:38:37Z</time>
      </trkpt>
      <trkpt lat="47.81627" lon="-3.42546">
        <ele>21.77</ele>
        <time>2015-09-06T07:38:38Z</time>
      </trkpt>
      <trkpt lat="47.81625" lon="-3.42546">
        <ele>21.77</ele>
        <time>2015-09-06T07:38:39Z</time>
      </trkpt>
      <trkpt lat="47.81623" lon="-3.42547">
        <ele>22.25</ele>
        <time>2015-09-06T07:38:40Z</time>
      </trkpt>
      <trkpt lat="47.81621" lon="-3.42547">
        <ele>22.25</ele>
        <time>2015-09-06T07:38:41Z</time>
      </trkpt>
      <trkpt lat="47.8162" lon="-3.42547">
        <ele>22.25</ele>
        <time>2015-09-06T07:38:42Z</time>
      </trkpt>
      <trkpt lat="47.81618" lon="-3.42547">
        <ele>23.21</ele>
        <time>2015-09-06T07:38:43Z</time>
      </trkpt>
      <trkpt lat="47.81616" lon="-3.42547">
        <ele>23.21</ele>
        <time>2015-09-06T07:38:44Z</time>
      </trkpt>
      <trkpt lat="47.81614" lon="-3.42548">
        <ele>23.69</ele>
        <time>2015-09-06T07:38:45Z</time>
      </trkpt>
      <trkpt lat="47.81612" lon="-3.42548">
        <ele>23.69</ele>
        <time>2015-09-06T07:38:46Z</time>
      </trkpt>
      <trkpt lat="47.8161" lon="-3.42549">
        <ele>23.69</ele>
        <time>2015-09-06T07:38:47Z</time>
      </trkpt>
      <trkpt lat="47.81607" lon="-3.42551">
        <ele>23.69</ele>
        <time>2015-09-06T07:38:48Z</time>
      </trkpt>
      <trkpt lat="47.81604" lon="-3.42553">
        <ele>23.69</ele>
        <time>2015-09-06T07:38:49Z</time>
      </trkpt>
      <trkpt lat="47.816" lon="-3.42554">
        <ele>23.69</ele>
        <time>2015-09-06T07:38:50Z</time>
      </trkpt>
      <trkpt lat="47.81597" lon="-3.42555">
        <ele>23.69</ele>
        <time>2015-09-06T07:38:51Z</time>
      </trkpt>
      <trkpt lat="47.81594" lon="-3.42554">
        <ele>23.69</ele>
        <time>2015-09-06T07:38:52Z</time>
      </trkpt>
      <trkpt lat="47.81592" lon="-3.42554">
        <ele>23.69</ele>
        <time>2015-09-06T07:38:53Z</time>
      </trkpt>
      <trkpt lat="47.8159" lon="-3.42553">
        <ele>24.17</ele>
        <time>2015-09-06T07:38:54Z</time>
      </trkpt>
      <trkpt lat="47.81589" lon="-3.42552">
        <ele>24.17</ele>
        <time>2015-09-06T07:38:55Z</time>
      </trkpt>
      <trkpt lat="47.81587" lon="-3.42551">
        <ele>24.65</ele>
        <time>2015-09-06T07:38:56Z</time>
      </trkpt>
      <trkpt lat="47.81586" lon="-3.4255">
        <ele>24.65</ele>
        <time>2015-09-06T07:38:57Z</time>
      </trkpt>
      <trkpt lat="47.81585" lon="-3.42549">
        <ele>24.65</ele>
        <time>2015-09-06T07:38:58Z</time>
      </trkpt>
      <trkpt lat="47.81585" lon="-3.42548">
        <ele>25.13</ele>
        <time>2015-09-06T07:38:59Z</time>
      </trkpt>
      <trkpt lat="47.81584" lon="-3.42547">
        <ele>25.61</ele>
        <time>2015-09-06T07:39:01Z</time>
      </trkpt>
      <trkpt lat="47.81583" lon="-3.42546">
        <ele>26.09</ele>
        <time>2015-09-06T07:39:02Z</time>
      </trkpt>
      <trkpt lat="47.81582" lon="-3.42545">
        <ele>26.09</ele>
        <time>2015-09-06T07:39:03Z</time>
      </trkpt>
      <trkpt lat="47.81581" lon="-3.42543">
        <ele>26.57</ele>
        <time>2015-09-06T07:39:04Z</time>
      </trkpt>
      <trkpt lat="47.8158" lon="-3.42542">
        <ele>26.57</ele>
        <time>2015-09-06T07:39:05Z</time>
      </trkpt>
      <trkpt lat="47.81579" lon="-3.42541">
        <ele>27.05</ele>
        <time>2015-09-06T07:39:06Z</time>
      </trkpt>
      <trkpt lat="47.81578" lon="-3.4254">
        <ele>27.05</ele>
        <time>2015-09-06T07:39:07Z</time>
      </trkpt>
      <trkpt lat="47.81575" lon="-3.42538">
        <ele>28.5</ele>
        <time>2015-09-06T07:39:10Z</time>
      </trkpt>
      <trkpt lat="47.81574" lon="-3.42536">
        <ele>28.5</ele>
        <time>2015-09-06T07:39:11Z</time>
      </trkpt>
      <trkpt lat="47.81572" lon="-3.42535">
        <ele>28.98</ele>
        <time>2015-09-06T07:39:12Z</time>
      </trkpt>
      <trkpt lat="47.81571" lon="-3.42533">
        <ele>28.98</ele>
        <time>2015-09-06T07:39:13Z</time>
      </trkpt>
      <trkpt lat="47.8157" lon="-3.42531">
        <ele>29.46</ele>
        <time>2015-09-06T07:39:14Z</time>
      </trkpt>
      <trkpt lat="47.8157" lon="-3.42531">
        <ele>29.46</ele>
        <time>2015-09-06T07:39:15Z</time>
      </trkpt>
      <trkpt lat="47.81567" lon="-3.42526">
        <ele>29.94</ele>
        <time>2015-09-06T07:39:18Z</time>
      </trkpt>
      <trkpt lat="47.81566" lon="-3.42524">
        <ele>30.9</ele>
        <time>2015-09-06T07:39:19Z</time>
      </trkpt>
      <trkpt lat="47.81565" lon="-3.42522">
        <ele>30.9</ele>
        <time>2015-09-06T07:39:20Z</time>
      </trkpt>
      <trkpt lat="47.81564" lon="-3.42521">
        <ele>31.38</ele>
        <time>2015-09-06T07:39:21Z</time>
      </trkpt>
      <trkpt lat="47.81563" lon="-3.42519">
        <ele>31.38</ele>
        <time>2015-09-06T07:39:22Z</time>
      </trkpt>
      <trkpt lat="47.81562" lon="-3.42517">
        <ele>31.86</ele>
        <time>2015-09-06T07:39:23Z</time>
      </trkpt>
      <trkpt lat="47.81562" lon="-3.42515">
        <ele>31.86</ele>
        <time>2015-09-06T07:39:24Z</time>
      </trkpt>
      <trkpt lat="47.81561" lon="-3.42514">
        <ele>32.34</ele>
        <time>2015-09-06T07:39:25Z</time>
      </trkpt>
      <trkpt lat="47.8156" lon="-3.42512">
        <ele>32.82</ele>
        <time>2015-09-06T07:39:26Z</time>
      </trkpt>
      <trkpt lat="47.81559" lon="-3.4251">
        <ele>33.3</ele>
        <time>2015-09-06T07:39:27Z</time>
      </trkpt>
      <trkpt lat="47.81559" lon="-3.42508">
        <ele>33.3</ele>
        <time>2015-09-06T07:39:28Z</time>
      </trkpt>
      <trkpt lat="47.81558" lon="-3.42506">
        <ele>33.78</ele>
        <time>2015-09-06T07:39:29Z</time>
      </trkpt>
      <trkpt lat="47.81557" lon="-3.42504">
        <ele>33.78</ele>
        <time>2015-09-06T07:39:30Z</time>
      </trkpt>
      <trkpt lat="47.81556" lon="-3.42502">
        <ele>34.74</ele>
        <time>2015-09-06T07:39:31Z</time>
      </trkpt>
      <trkpt lat="47.81555" lon="-3.42501">
        <ele>34.74</ele>
        <time>2015-09-06T07:39:32Z</time>
      </trkpt>
      <trkpt lat="47.81555" lon="-3.42498">
        <ele>35.23</ele>
        <time>2015-09-06T07:39:33Z</time>
      </trkpt>
      <trkpt lat="47.81554" lon="-3.42496">
        <ele>35.23</ele>
        <time>2015-09-06T07:39:34Z</time>
      </trkpt>
      <trkpt lat="47.81554" lon="-3.42494">
        <ele>36.19</ele>
        <time>2015-09-06T07:39:35Z</time>
      </trkpt>
      <trkpt lat="47.81553" lon="-3.42492">
        <ele>36.19</ele>
        <time>2015-09-06T07:39:36Z</time>
      </trkpt>
      <trkpt lat="47.81553" lon="-3.4249">
        <ele>36.67</ele>
        <time>2015-09-06T07:39:37Z</time>
      </trkpt>
      <trkpt lat="47.81552" lon="-3.42488">
        <ele>36.67</ele>
        <time>2015-09-06T07:39:38Z</time>
      </trkpt>
      <trkpt lat="47.81551" lon="-3.42487">
        <ele>36.67</ele>
        <time>2015-09-06T07:39:39Z</time>
      </trkpt>
      <trkpt lat="47.81551" lon="-3.42486">
        <ele>37.15</ele>
        <time>2015-09-06T07:39:40Z</time>
      </trkpt>
      <trkpt lat="47.81549" lon="-3.42485">
        <ele>37.15</ele>
        <time>2015-09-06T07:39:41Z</time>
      </trkpt>
      <trkpt lat="47.81548" lon="-3.42484">
        <ele>37.15</ele>
        <time>2015-09-06T07:39:42Z</time>
      </trkpt>
      <trkpt lat="47.81546" lon="-3.42483">
        <ele>37.15</ele>
        <time>2015-09-06T07:39:43Z</time>
      </trkpt>
      <trkpt lat="47.81544" lon="-3.42482">
        <ele>37.63</ele>
        <time>2015-09-06T07:39:44Z</time>
      </trkpt>
      <trkpt lat="47.81542" lon="-3.42482">
        <ele>37.63</ele>
        <time>2015-09-06T07:39:45Z</time>
      </trkpt>
      <trkpt lat="47.81541" lon="-3.42481">
        <ele>37.63</ele>
        <time>2015-09-06T07:39:46Z</time>
      </trkpt>
      <trkpt lat="47.81539" lon="-3.42481">
        <ele>37.63</ele>
        <time>2015-09-06T07:39:47Z</time>
      </trkpt>
      <trkpt lat="47.81537" lon="-3.42481">
        <ele>38.11</ele>
        <time>2015-09-06T07:39:48Z</time>
      </trkpt>
      <trkpt lat="47.81535" lon="-3.4248">
        <ele>38.11</ele>
        <time>2015-09-06T07:39:49Z</time>
      </trkpt>
      <trkpt lat="47.81533" lon="-3.4248">
        <ele>38.11</ele>
        <time>2015-09-06T07:39:50Z</time>
      </trkpt>
      <trkpt lat="47.81531" lon="-3.42479">
        <ele>38.59</ele>
        <time>2015-09-06T07:39:51Z</time>
      </trkpt>
      <trkpt lat="47.81529" lon="-3.42479">
        <ele>38.59</ele>
        <time>2015-09-06T07:39:52Z</time>
      </trkpt>
      <trkpt lat="47.81528" lon="-3.42478">
        <ele>39.07</ele>
        <time>2015-09-06T07:39:53Z</time>
      </trkpt>
      <trkpt lat="47.81526" lon="-3.42477">
        <ele>39.07</ele>
        <time>2015-09-06T07:39:54Z</time>
      </trkpt>
      <trkpt lat="47.81524" lon="-3.42477">
        <ele>39.55</ele>
        <time>2015-09-06T07:39:55Z</time>
      </trkpt>
      <trkpt lat="47.81523" lon="-3.42476">
        <ele>39.55</ele>
        <time>2015-09-06T07:39:56Z</time>
      </trkpt>
      <trkpt lat="47.81521" lon="-3.42475">
        <ele>39.55</ele>
        <time>2015-09-06T07:39:57Z</time>
      </trkpt>
      <trkpt lat="47.8152" lon="-3.42475">
        <ele>40.03</ele>
        <time>2015-09-06T07:39:58Z</time>
      </trkpt>
      <trkpt lat="47.81519" lon="-3.42474">
        <ele>40.03</ele>
        <time>2015-09-06T07:39:59Z</time>
      </trkpt>
      <trkpt lat="47.81518" lon="-3.42473">
        <ele>40.51</ele>
        <time>2015-09-06T07:40:00Z</time>
      </trkpt>
      <trkpt lat="47.81516" lon="-3.42472">
        <ele>40.51</ele>
        <time>2015-09-06T07:40:01Z</time>
      </trkpt>
      <trkpt lat="47.81515" lon="-3.42472">
        <ele>40.99</ele>
        <time>2015-09-06T07:40:02Z</time>
      </trkpt>
      <trkpt lat="47.81513" lon="-3.42471">
        <ele>40.99</ele>
        <time>2015-09-06T07:40:03Z</time>
      </trkpt>
      <trkpt lat="47.81512" lon="-3.4247">
        <ele>41.47</ele>
        <time>2015-09-06T07:40:04Z</time>
      </trkpt>
      <trkpt lat="47.81511" lon="-3.4247">
        <ele>41.47</ele>
        <time>2015-09-06T07:40:05Z</time>
      </trkpt>
      <trkpt lat="47.81509" lon="-3.42469">
        <ele>41.47</ele>
        <time>2015-09-06T07:40:06Z</time>
      </trkpt>
      <trkpt lat="47.81508" lon="-3.42468">
        <ele>41.95</ele>
        <time>2015-09-06T07:40:07Z</time>
      </trkpt>
      <trkpt lat="47.81507" lon="-3.42467">
        <ele>41.95</ele>
        <time>2015-09-06T07:40:08Z</time>
      </trkpt>
      <trkpt lat="47.81506" lon="-3.42467">
        <ele>41.95</ele>
        <time>2015-09-06T07:40:09Z</time>
      </trkpt>
      <trkpt lat="47.81505" lon="-3.42466">
        <ele>42.44</ele>
        <time>2015-09-06T07:40:10Z</time>
      </trkpt>
      <trkpt lat="47.81504" lon="-3.42465">
        <ele>42.44</ele>
        <time>2015-09-06T07:40:11Z</time>
      </trkpt>
      <trkpt lat="47.81503" lon="-3.42464">
        <ele>42.44</ele>
        <time>2015-09-06T07:40:12Z</time>
      </trkpt>
      <trkpt lat="47.81501" lon="-3.42463">
        <ele>42.92</ele>
        <time>2015-09-06T07:40:13Z</time>
      </trkpt>
      <trkpt lat="47.815" lon="-3.42463">
        <ele>42.92</ele>
        <time>2015-09-06T07:40:14Z</time>
      </trkpt>
      <trkpt lat="47.81498" lon="-3.42462">
        <ele>43.4</ele>
        <time>2015-09-06T07:40:15Z</time>
      </trkpt>
      <trkpt lat="47.81497" lon="-3.42462">
        <ele>43.4</ele>
        <time>2015-09-06T07:40:16Z</time>
      </trkpt>
      <trkpt lat="47.81496" lon="-3.42461">
        <ele>43.88</ele>
        <time>2015-09-06T07:40:17Z</time>
      </trkpt>
      <trkpt lat="47.81494" lon="-3.42461">
        <ele>43.4</ele>
        <time>2015-09-06T07:40:18Z</time>
      </trkpt>
      <trkpt lat="47.81493" lon="-3.4246">
        <ele>43.88</ele>
        <time>2015-09-06T07:40:19Z</time>
      </trkpt>
      <trkpt lat="47.81491" lon="-3.4246">
        <ele>43.88</ele>
        <time>2015-09-06T07:40:20Z</time>
      </trkpt>
      <trkpt lat="47.8149" lon="-3.42459">
        <ele>44.36</ele>
        <time>2015-09-06T07:40:21Z</time>
      </trkpt>
      <trkpt lat="47.81489" lon="-3.42459">
        <ele>44.36</ele>
        <time>2015-09-06T07:40:22Z</time>
      </trkpt>
      <trkpt lat="47.81488" lon="-3.42458">
        <ele>44.36</ele>
        <time>2015-09-06T07:40:23Z</time>
      </trkpt>
      <trkpt lat="47.81487" lon="-3.42457">
        <ele>44.84</ele>
        <time>2015-09-06T07:40:24Z</time>
      </trkpt>
      <trkpt lat="47.81486" lon="-3.42457">
        <ele>44.84</ele>
        <time>2015-09-06T07:40:25Z</time>
      </trkpt>
      <trkpt lat="47.81485" lon="-3.42456">
        <ele>44.84</ele>
        <time>2015-09-06T07:40:26Z</time>
      </trkpt>
      <trkpt lat="47.81484" lon="-3.42456">
        <ele>44.84</ele>
        <time>2015-09-06T07:40:27Z</time>
      </trkpt>
      <trkpt lat="47.81483" lon="-3.42455">
        <ele>45.8</ele>
        <time>2015-09-06T07:40:28Z</time>
      </trkpt>
      <trkpt lat="47.81482" lon="-3.42455">
        <ele>45.8</ele>
        <time>2015-09-06T07:40:29Z</time>
      </trkpt>
      <trkpt lat="47.8148" lon="-3.42454">
        <ele>45.8</ele>
        <time>2015-09-06T07:40:30Z</time>
      </trkpt>
      <trkpt lat="47.81479" lon="-3.42454">
        <ele>45.8</ele>
        <time>2015-09-06T07:40:31Z</time>
      </trkpt>
      <trkpt lat="47.81477" lon="-3.42453">
        <ele>46.28</ele>
        <time>2015-09-06T07:40:32Z</time>
      </trkpt>
      <trkpt lat="47.81476" lon="-3.42453">
        <ele>46.28</ele>
        <time>2015-09-06T07:40:33Z</time>
      </trkpt>
      <trkpt lat="47.81475" lon="-3.42453">
        <ele>46.28</ele>
        <time>2015-09-06T07:40:34Z</time>
      </trkpt>
      <trkpt lat="47.81473" lon="-3.42453">
        <ele>46.28</ele>
        <time>2015-09-06T07:40:35Z</time>
      </trkpt>
      <trkpt lat="47.81471" lon="-3.42452">
        <ele>46.28</ele>
        <time>2015-09-06T07:40:36Z</time>
      </trkpt>
      <trkpt lat="47.81469" lon="-3.42452">
        <ele>46.28</ele>
        <time>2015-09-06T07:40:37Z</time>
      </trkpt>
      <trkpt lat="47.81467" lon="-3.42452">
        <ele>46.76</ele>
        <time>2015-09-06T07:40:38Z</time>
      </trkpt>
      <trkpt lat="47.81465" lon="-3.42451">
        <ele>46.76</ele>
        <time>2015-09-06T07:40:39Z</time>
      </trkpt>
      <trkpt lat="47.81463" lon="-3.42451">
        <ele>46.76</ele>
        <time>2015-09-06T07:40:40Z</time>
      </trkpt>
      <trkpt lat="47.8146" lon="-3.42451">
        <ele>47.24</ele>
        <time>2015-09-06T07:40:41Z</time>
      </trkpt>
      <trkpt lat="47.81457" lon="-3.42451">
        <ele>47.24</ele>
        <time>2015-09-06T07:40:42Z</time>
      </trkpt>
      <trkpt lat="47.81454" lon="-3.4245">
        <ele>47.24</ele>
        <time>2015-09-06T07:40:43Z</time>
      </trkpt>
      <trkpt lat="47.81452" lon="-3.42449">
        <ele>47.72</ele>
        <time>2015-09-06T07:40:44Z</time>
      </trkpt>
      <trkpt lat="47.81449" lon="-3.42449">
        <ele>47.72</ele>
        <time>2015-09-06T07:40:45Z</time>
      </trkpt>
      <trkpt lat="47.81447" lon="-3.42449">
        <ele>47.72</ele>
        <time>2015-09-06T07:40:46Z</time>
      </trkpt>
      <trkpt lat="47.81444" lon="-3.42449">
        <ele>47.72</ele>
        <time>2015-09-06T07:40:47Z</time>
      </trkpt>
      <trkpt lat="47.81442" lon="-3.42449">
        <ele>47.72</ele>
        <time>2015-09-06T07:40:48Z</time>
      </trkpt>
      <trkpt lat="47.81439" lon="-3.42448">
        <ele>47.72</ele>
        <time>2015-09-06T07:40:49Z</time>
      </trkpt>
      <trkpt lat="47.81436" lon="-3.42448">
        <ele>47.72</ele>
        <time>2015-09-06T07:40:50Z</time>
      </trkpt>
      <trkpt lat="47.81433" lon="-3.42448">
        <ele>47.72</ele>
        <time>2015-09-06T07:40:51Z</time>
      </trkpt>
      <trkpt lat="47.81431" lon="-3.42448">
        <ele>48.2</ele>
        <time>2015-09-06T07:40:52Z</time>
      </trkpt>
      <trkpt lat="47.81428" lon="-3.42448">
        <ele>48.2</ele>
        <time>2015-09-06T07:40:53Z</time>
      </trkpt>
      <trkpt lat="47.81425" lon="-3.42448">
        <ele>48.2</ele>
        <time>2015-09-06T07:40:54Z</time>
      </trkpt>
      <trkpt lat="47.81422" lon="-3.42447">
        <ele>48.2</ele>
        <time>2015-09-06T07:40:55Z</time>
      </trkpt>
      <trkpt lat="47.81419" lon="-3.42447">
        <ele>48.2</ele>
        <time>2015-09-06T07:40:56Z</time>
      </trkpt>
      <trkpt lat="47.81416" lon="-3.42447">
        <ele>48.2</ele>
        <time>2015-09-06T07:40:57Z</time>
      </trkpt>
      <trkpt lat="47.81412" lon="-3.42447">
        <ele>48.2</ele>
        <time>2015-09-06T07:40:58Z</time>
      </trkpt>
      <trkpt lat="47.81409" lon="-3.42447">
        <ele>48.2</ele>
        <time>2015-09-06T07:40:59Z</time>
      </trkpt>
      <trkpt lat="47.81406" lon="-3.42446">
        <ele>48.2</ele>
        <time>2015-09-06T07:41:00Z</time>
      </trkpt>
      <trkpt lat="47.81402" lon="-3.42446">
        <ele>48.2</ele>
        <time>2015-09-06T07:41:01Z</time>
      </trkpt>
      <trkpt lat="47.81398" lon="-3.42445">
        <ele>48.2</ele>
        <time>2015-09-06T07:41:02Z</time>
      </trkpt>
      <trkpt lat="47.81395" lon="-3.42445">
        <ele>48.2</ele>
        <time>2015-09-06T07:41:03Z</time>
      </trkpt>
      <trkpt lat="47.81391" lon="-3.42444">
        <ele>48.2</ele>
        <time>2015-09-06T07:41:04Z</time>
      </trkpt>
      <trkpt lat="47.81387" lon="-3.42444">
        <ele>48.2</ele>
        <time>2015-09-06T07:41:05Z</time>
      </trkpt>
      <trkpt lat="47.81383" lon="-3.42443">
        <ele>48.2</ele>
        <time>2015-09-06T07:41:06Z</time>
      </trkpt>
      <trkpt lat="47.81378" lon="-3.42443">
        <ele>48.2</ele>
        <time>2015-09-06T07:41:07Z</time>
      </trkpt>
      <trkpt lat="47.81373" lon="-3.42443">
        <ele>48.2</ele>
        <time>2015-09-06T07:41:08Z</time>
      </trkpt>
      <trkpt lat="47.81368" lon="-3.42443">
        <ele>48.2</ele>
        <time>2015-09-06T07:41:09Z</time>
      </trkpt>
      <trkpt lat="47.81363" lon="-3.42442">
        <ele>48.2</ele>
        <time>2015-09-06T07:41:10Z</time>
      </trkpt>
      <trkpt lat="47.81359" lon="-3.42443">
        <ele>48.2</ele>
        <time>2015-09-06T07:41:11Z</time>
      </trkpt>
      <trkpt lat="47.81355" lon="-3.42444">
        <ele>48.2</ele>
        <time>2015-09-06T07:41:12Z</time>
      </trkpt>
      <trkpt lat="47.81352" lon="-3.42449">
        <ele>48.2</ele>
        <time>2015-09-06T07:41:13Z</time>
      </trkpt>
      <trkpt lat="47.81352" lon="-3.42453">
        <ele>48.2</ele>
        <time>2015-09-06T07:41:14Z</time>
      </trkpt>
      <trkpt lat="47.81352" lon="-3.42457">
        <ele>48.2</ele>
        <time>2015-09-06T07:41:15Z</time>
      </trkpt>
      <trkpt lat="47.81352" lon="-3.42462">
        <ele>48.2</ele>
        <time>2015-09-06T07:41:16Z</time>
      </trkpt>
      <trkpt lat="47.81353" lon="-3.42466">
        <ele>48.2</ele>
        <time>2015-09-06T07:41:17Z</time>
      </trkpt>
      <trkpt lat="47.81353" lon="-3.4247">
        <ele>48.2</ele>
        <time>2015-09-06T07:41:18Z</time>
      </trkpt>
      <trkpt lat="47.81353" lon="-3.42475">
        <ele>48.2</ele>
        <time>2015-09-06T07:41:19Z</time>
      </trkpt>
      <trkpt lat="47.81353" lon="-3.42479">
        <ele>48.2</ele>
        <time>2015-09-06T07:41:20Z</time>
      </trkpt>
      <trkpt lat="47.81352" lon="-3.42484">
        <ele>48.68</ele>
        <time>2015-09-06T07:41:21Z</time>
      </trkpt>
      <trkpt lat="47.81352" lon="-3.42488">
        <ele>48.68</ele>
        <time>2015-09-06T07:41:22Z</time>
      </trkpt>
      <trkpt lat="47.81352" lon="-3.42493">
        <ele>49.16</ele>
        <time>2015-09-06T07:41:23Z</time>
      </trkpt>
      <trkpt lat="47.81352" lon="-3.42497">
        <ele>49.16</ele>
        <time>2015-09-06T07:41:24Z</time>
      </trkpt>
      <trkpt lat="47.81352" lon="-3.42502">
        <ele>49.65</ele>
        <time>2015-09-06T07:41:25Z</time>
      </trkpt>
      <trkpt lat="47.81352" lon="-3.42507">
        <ele>49.65</ele>
        <time>2015-09-06T07:41:26Z</time>
      </trkpt>
      <trkpt lat="47.81351" lon="-3.42512">
        <ele>49.65</ele>
        <time>2015-09-06T07:41:27Z</time>
      </trkpt>
      <trkpt lat="47.81351" lon="-3.42516">
        <ele>50.13</ele>
        <time>2015-09-06T07:41:28Z</time>
      </trkpt>
      <trkpt lat="47.81351" lon="-3.42521">
        <ele>50.13</ele>
        <time>2015-09-06T07:41:29Z</time>
      </trkpt>
      <trkpt lat="47.81351" lon="-3.42526">
        <ele>50.61</ele>
        <time>2015-09-06T07:41:30Z</time>
      </trkpt>
      <trkpt lat="47.81351" lon="-3.42531">
        <ele>51.09</ele>
        <time>2015-09-06T07:41:31Z</time>
      </trkpt>
      <trkpt lat="47.81351" lon="-3.42536">
        <ele>51.09</ele>
        <time>2015-09-06T07:41:32Z</time>
      </trkpt>
      <trkpt lat="47.81351" lon="-3.42541">
        <ele>51.57</ele>
        <time>2015-09-06T07:41:33Z</time>
      </trkpt>
      <trkpt lat="47.81351" lon="-3.42546">
        <ele>51.57</ele>
        <time>2015-09-06T07:41:34Z</time>
      </trkpt>
      <trkpt lat="47.8135" lon="-3.42551">
        <ele>52.05</ele>
        <time>2015-09-06T07:41:35Z</time>
      </trkpt>
      <trkpt lat="47.8135" lon="-3.42556">
        <ele>52.05</ele>
        <time>2015-09-06T07:41:36Z</time>
      </trkpt>
      <trkpt lat="47.8135" lon="-3.42561">
        <ele>52.05</ele>
        <time>2015-09-06T07:41:37Z</time>
      </trkpt>
      <trkpt lat="47.81349" lon="-3.42566">
        <ele>52.53</ele>
        <time>2015-09-06T07:41:38Z</time>
      </trkpt>
      <trkpt lat="47.81349" lon="-3.42571">
        <ele>52.53</ele>
        <time>2015-09-06T07:41:39Z</time>
      </trkpt>
      <trkpt lat="47.81349" lon="-3.42577">
        <ele>53.01</ele>
        <time>2015-09-06T07:41:40Z</time>
      </trkpt>
      <trkpt lat="47.81349" lon="-3.42581">
        <ele>53.01</ele>
        <time>2015-09-06T07:41:41Z</time>
      </trkpt>
      <trkpt lat="47.81349" lon="-3.42587">
        <ele>53.49</ele>
        <time>2015-09-06T07:41:42Z</time>
      </trkpt>
      <trkpt lat="47.81349" lon="-3.42593">
        <ele>53.49</ele>
        <time>2015-09-06T07:41:43Z</time>
      </trkpt>
      <trkpt lat="47.81349" lon="-3.42598">
        <ele>53.49</ele>
        <time>2015-09-06T07:41:44Z</time>
      </trkpt>
      <trkpt lat="47.81349" lon="-3.42603">
        <ele>53.97</ele>
        <time>2015-09-06T07:41:45Z</time>
      </trkpt>
      <trkpt lat="47.81349" lon="-3.42608">
        <ele>53.97</ele>
        <time>2015-09-06T07:41:46Z</time>
      </trkpt>
      <trkpt lat="47.81348" lon="-3.42614">
        <ele>53.97</ele>
        <time>2015-09-06T07:41:47Z</time>
      </trkpt>
      <trkpt lat="47.81348" lon="-3.4262">
        <ele>54.45</ele>
        <time>2015-09-06T07:41:48Z</time>
      </trkpt>
      <trkpt lat="47.81348" lon="-3.42625">
        <ele>54.45</ele>
        <time>2015-09-06T07:41:49Z</time>
      </trkpt>
      <trkpt lat="47.81348" lon="-3.42631">
        <ele>54.93</ele>
        <time>2015-09-06T07:41:50Z</time>
      </trkpt>
      <trkpt lat="47.81348" lon="-3.42636">
        <ele>54.93</ele>
        <time>2015-09-06T07:41:51Z</time>
      </trkpt>
      <trkpt lat="47.81348" lon="-3.42641">
        <ele>54.93</ele>
        <time>2015-09-06T07:41:52Z</time>
      </trkpt>
      <trkpt lat="47.81348" lon="-3.42647">
        <ele>55.41</ele>
        <time>2015-09-06T07:41:53Z</time>
      </trkpt>
      <trkpt lat="47.81348" lon="-3.42653">
        <ele>55.41</ele>
        <time>2015-09-06T07:41:54Z</time>
      </trkpt>
      <trkpt lat="47.81347" lon="-3.42659">
        <ele>55.41</ele>
        <time>2015-09-06T07:41:55Z</time>
      </trkpt>
      <trkpt lat="47.81347" lon="-3.42665">
        <ele>55.41</ele>
        <time>2015-09-06T07:41:56Z</time>
      </trkpt>
      <trkpt lat="47.81347" lon="-3.42671">
        <ele>55.41</ele>
        <time>2015-09-06T07:41:57Z</time>
      </trkpt>
      <trkpt lat="47.81347" lon="-3.42677">
        <ele>55.89</ele>
        <time>2015-09-06T07:41:58Z</time>
      </trkpt>
      <trkpt lat="47.81347" lon="-3.42683">
        <ele>55.89</ele>
        <time>2015-09-06T07:41:59Z</time>
      </trkpt>
      <trkpt lat="47.81346" lon="-3.42689">
        <ele>55.89</ele>
        <time>2015-09-06T07:42:00Z</time>
      </trkpt>
      <trkpt lat="47.81346" lon="-3.42695">
        <ele>55.89</ele>
        <time>2015-09-06T07:42:01Z</time>
      </trkpt>
      <trkpt lat="47.81346" lon="-3.42702">
        <ele>55.89</ele>
        <time>2015-09-06T07:42:02Z</time>
      </trkpt>
      <trkpt lat="47.81346" lon="-3.42708">
        <ele>55.89</ele>
        <time>2015-09-06T07:42:03Z</time>
      </trkpt>
      <trkpt lat="47.81346" lon="-3.42715">
        <ele>55.89</ele>
        <time>2015-09-06T07:42:04Z</time>
      </trkpt>
      <trkpt lat="47.81346" lon="-3.42722">
        <ele>55.89</ele>
        <time>2015-09-06T07:42:05Z</time>
      </trkpt>
      <trkpt lat="47.81345" lon="-3.42728">
        <ele>55.89</ele>
        <time>2015-09-06T07:42:06Z</time>
      </trkpt>
      <trkpt lat="47.81345" lon="-3.42735">
        <ele>55.89</ele>
        <time>2015-09-06T07:42:07Z</time>
      </trkpt>
      <trkpt lat="47.81345" lon="-3.42742">
        <ele>55.89</ele>
        <time>2015-09-06T07:42:08Z</time>
      </trkpt>
      <trkpt lat="47.81345" lon="-3.42749">
        <ele>55.89</ele>
        <time>2015-09-06T07:42:09Z</time>
      </trkpt>
      <trkpt lat="47.81345" lon="-3.42756">
        <ele>55.89</ele>
        <time>2015-09-06T07:42:10Z</time>
      </trkpt>
      <trkpt lat="47.81345" lon="-3.42764">
        <ele>55.89</ele>
        <time>2015-09-06T07:42:11Z</time>
      </trkpt>
      <trkpt lat="47.81344" lon="-3.42771">
        <ele>55.89</ele>
        <time>2015-09-06T07:42:12Z</time>
      </trkpt>
      <trkpt lat="47.81344" lon="-3.42779">
        <ele>55.89</ele>
        <time>2015-09-06T07:42:13Z</time>
      </trkpt>
      <trkpt lat="47.81344" lon="-3.42786">
        <ele>55.89</ele>
        <time>2015-09-06T07:42:14Z</time>
      </trkpt>
      <trkpt lat="47.81344" lon="-3.42794">
        <ele>55.89</ele>
        <time>2015-09-06T07:42:15Z</time>
      </trkpt>
      <trkpt lat="47.81344" lon="-3.42802">
        <ele>55.89</ele>
        <time>2015-09-06T07:42:16Z</time>
      </trkpt>
      <trkpt lat="47.81344" lon="-3.42806">
        <ele>55.89</ele>
        <time>2015-09-06T07:42:17Z</time>
      </trkpt>
      <trkpt lat="47.81345" lon="-3.42808">
        <ele>55.89</ele>
        <time>2015-09-06T07:42:18Z</time>
      </trkpt>
      <trkpt lat="47.81347" lon="-3.42808">
        <ele>55.89</ele>
        <time>2015-09-06T07:42:19Z</time>
      </trkpt>
      <trkpt lat="47.8135" lon="-3.42807">
        <ele>55.89</ele>
        <time>2015-09-06T07:42:20Z</time>
      </trkpt>
      <trkpt lat="47.81352" lon="-3.42806">
        <ele>55.89</ele>
        <time>2015-09-06T07:42:21Z</time>
      </trkpt>
      <trkpt lat="47.81355" lon="-3.42805">
        <ele>55.89</ele>
        <time>2015-09-06T07:42:22Z</time>
      </trkpt>
      <trkpt lat="47.81358" lon="-3.42805">
        <ele>55.89</ele>
        <time>2015-09-06T07:42:23Z</time>
      </trkpt>
      <trkpt lat="47.81362" lon="-3.42805">
        <ele>55.89</ele>
        <time>2015-09-06T07:42:24Z</time>
      </trkpt>
      <trkpt lat="47.81366" lon="-3.42805">
        <ele>55.89</ele>
        <time>2015-09-06T07:42:25Z</time>
      </trkpt>
      <trkpt lat="47.8137" lon="-3.42805">
        <ele>55.89</ele>
        <time>2015-09-06T07:42:26Z</time>
      </trkpt>
      <trkpt lat="47.81375" lon="-3.42805">
        <ele>55.89</ele>
        <time>2015-09-06T07:42:27Z</time>
      </trkpt>
      <trkpt lat="47.81379" lon="-3.42806">
        <ele>54.45</ele>
        <time>2015-09-06T07:42:28Z</time>
      </trkpt>
      <trkpt lat="47.81384" lon="-3.42806">
        <ele>54.45</ele>
        <time>2015-09-06T07:42:29Z</time>
      </trkpt>
      <trkpt lat="47.81389" lon="-3.42805">
        <ele>53.97</ele>
        <time>2015-09-06T07:42:30Z</time>
      </trkpt>
      <trkpt lat="47.81395" lon="-3.42806">
        <ele>53.01</ele>
        <time>2015-09-06T07:42:31Z</time>
      </trkpt>
      <trkpt lat="47.814" lon="-3.42806">
        <ele>52.53</ele>
        <time>2015-09-06T07:42:32Z</time>
      </trkpt>
      <trkpt lat="47.81406" lon="-3.42806">
        <ele>51.57</ele>
        <time>2015-09-06T07:42:33Z</time>
      </trkpt>
      <trkpt lat="47.81411" lon="-3.42806">
        <ele>51.09</ele>
        <time>2015-09-06T07:42:34Z</time>
      </trkpt>
      <trkpt lat="47.81416" lon="-3.42806">
        <ele>50.61</ele>
        <time>2015-09-06T07:42:35Z</time>
      </trkpt>
      <trkpt lat="47.81421" lon="-3.42806">
        <ele>50.13</ele>
        <time>2015-09-06T07:42:36Z</time>
      </trkpt>
      <trkpt lat="47.81426" lon="-3.42806">
        <ele>49.16</ele>
        <time>2015-09-06T07:42:37Z</time>
      </trkpt>
      <trkpt lat="47.81431" lon="-3.42806">
        <ele>48.2</ele>
        <time>2015-09-06T07:42:38Z</time>
      </trkpt>
      <trkpt lat="47.81436" lon="-3.42806">
        <ele>47.24</ele>
        <time>2015-09-06T07:42:39Z</time>
      </trkpt>
      <trkpt lat="47.81442" lon="-3.42806">
        <ele>45.8</ele>
        <time>2015-09-06T07:42:40Z</time>
      </trkpt>
      <trkpt lat="47.81447" lon="-3.42807">
        <ele>44.84</ele>
        <time>2015-09-06T07:42:41Z</time>
      </trkpt>
      <trkpt lat="47.81453" lon="-3.42808">
        <ele>43.4</ele>
        <time>2015-09-06T07:42:42Z</time>
      </trkpt>
      <trkpt lat="47.81457" lon="-3.42809">
        <ele>42.44</ele>
        <time>2015-09-06T07:42:43Z</time>
      </trkpt>
      <trkpt lat="47.81462" lon="-3.42809">
        <ele>40.99</ele>
        <time>2015-09-06T07:42:44Z</time>
      </trkpt>
      <trkpt lat="47.81467" lon="-3.42808">
        <ele>40.51</ele>
        <time>2015-09-06T07:42:45Z</time>
      </trkpt>
      <trkpt lat="47.81471" lon="-3.42805">
        <ele>39.55</ele>
        <time>2015-09-06T07:42:46Z</time>
      </trkpt>
      <trkpt lat="47.81475" lon="-3.428">
        <ele>38.59</ele>
        <time>2015-09-06T07:42:47Z</time>
      </trkpt>
      <trkpt lat="47.81478" lon="-3.42795">
        <ele>38.11</ele>
        <time>2015-09-06T07:42:48Z</time>
      </trkpt>
      <trkpt lat="47.81482" lon="-3.42792">
        <ele>37.63</ele>
        <time>2015-09-06T07:42:49Z</time>
      </trkpt>
      <trkpt lat="47.81486" lon="-3.4279">
        <ele>37.15</ele>
        <time>2015-09-06T07:42:50Z</time>
      </trkpt>
      <trkpt lat="47.81491" lon="-3.42789">
        <ele>37.15</ele>
        <time>2015-09-06T07:42:51Z</time>
      </trkpt>
      <trkpt lat="47.81496" lon="-3.42788">
        <ele>36.19</ele>
        <time>2015-09-06T07:42:52Z</time>
      </trkpt>
      <trkpt lat="47.81501" lon="-3.42788">
        <ele>36.19</ele>
        <time>2015-09-06T07:42:53Z</time>
      </trkpt>
      <trkpt lat="47.81506" lon="-3.42787">
        <ele>35.23</ele>
        <time>2015-09-06T07:42:54Z</time>
      </trkpt>
      <trkpt lat="47.81511" lon="-3.42788">
        <ele>34.74</ele>
        <time>2015-09-06T07:42:55Z</time>
      </trkpt>
      <trkpt lat="47.81516" lon="-3.42789">
        <ele>34.74</ele>
        <time>2015-09-06T07:42:56Z</time>
      </trkpt>
      <trkpt lat="47.81521" lon="-3.42791">
        <ele>34.26</ele>
        <time>2015-09-06T07:42:57Z</time>
      </trkpt>
      <trkpt lat="47.81523" lon="-3.42794">
        <ele>34.26</ele>
        <time>2015-09-06T07:42:58Z</time>
      </trkpt>
      <trkpt lat="47.81525" lon="-3.42798">
        <ele>33.78</ele>
        <time>2015-09-06T07:42:59Z</time>
      </trkpt>
      <trkpt lat="47.81527" lon="-3.42802">
        <ele>33.78</ele>
        <time>2015-09-06T07:43:00Z</time>
      </trkpt>
      <trkpt lat="47.81527" lon="-3.42806">
        <ele>33.78</ele>
        <time>2015-09-06T07:43:01Z</time>
      </trkpt>
      <trkpt lat="47.81527" lon="-3.42811">
        <ele>33.78</ele>
        <time>2015-09-06T07:43:02Z</time>
      </trkpt>
      <trkpt lat="47.81527" lon="-3.42816">
        <ele>33.78</ele>
        <time>2015-09-06T07:43:03Z</time>
      </trkpt>
      <trkpt lat="47.81527" lon="-3.42821">
        <ele>33.3</ele>
        <time>2015-09-06T07:43:04Z</time>
      </trkpt>
      <trkpt lat="47.81526" lon="-3.42826">
        <ele>33.3</ele>
        <time>2015-09-06T07:43:05Z</time>
      </trkpt>
      <trkpt lat="47.81526" lon="-3.42831">
        <ele>33.3</ele>
        <time>2015-09-06T07:43:06Z</time>
      </trkpt>
      <trkpt lat="47.81526" lon="-3.42836">
        <ele>33.3</ele>
        <time>2015-09-06T07:43:07Z</time>
      </trkpt>
      <trkpt lat="47.81526" lon="-3.42841">
        <ele>33.3</ele>
        <time>2015-09-06T07:43:08Z</time>
      </trkpt>
      <trkpt lat="47.81526" lon="-3.42846">
        <ele>33.3</ele>
        <time>2015-09-06T07:43:09Z</time>
      </trkpt>
      <trkpt lat="47.81527" lon="-3.42851">
        <ele>33.3</ele>
        <time>2015-09-06T07:43:10Z</time>
      </trkpt>
      <trkpt lat="47.81528" lon="-3.42856">
        <ele>33.78</ele>
        <time>2015-09-06T07:43:11Z</time>
      </trkpt>
      <trkpt lat="47.81527" lon="-3.42862">
        <ele>33.78</ele>
        <time>2015-09-06T07:43:12Z</time>
      </trkpt>
      <trkpt lat="47.81527" lon="-3.42866">
        <ele>33.78</ele>
        <time>2015-09-06T07:43:13Z</time>
      </trkpt>
      <trkpt lat="47.81527" lon="-3.4287">
        <ele>33.78</ele>
        <time>2015-09-06T07:43:14Z</time>
      </trkpt>
      <trkpt lat="47.81527" lon="-3.42875">
        <ele>33.78</ele>
        <time>2015-09-06T07:43:15Z</time>
      </trkpt>
      <trkpt lat="47.81528" lon="-3.42879">
        <ele>34.74</ele>
        <time>2015-09-06T07:43:16Z</time>
      </trkpt>
      <trkpt lat="47.81528" lon="-3.42884">
        <ele>34.74</ele>
        <time>2015-09-06T07:43:17Z</time>
      </trkpt>
      <trkpt lat="47.81527" lon="-3.42888">
        <ele>34.74</ele>
        <time>2015-09-06T07:43:18Z</time>
      </trkpt>
      <trkpt lat="47.81527" lon="-3.42892">
        <ele>35.23</ele>
        <time>2015-09-06T07:43:19Z</time>
      </trkpt>
      <trkpt lat="47.81528" lon="-3.42896">
        <ele>35.23</ele>
        <time>2015-09-06T07:43:20Z</time>
      </trkpt>
      <trkpt lat="47.81528" lon="-3.42899">
        <ele>35.71</ele>
        <time>2015-09-06T07:43:21Z</time>
      </trkpt>
      <trkpt lat="47.81529" lon="-3.42902">
        <ele>35.71</ele>
        <time>2015-09-06T07:43:22Z</time>
      </trkpt>
      <trkpt lat="47.81529" lon="-3.42904">
        <ele>35.71</ele>
        <time>2015-09-06T07:43:23Z</time>
      </trkpt>
      <trkpt lat="47.81529" lon="-3.42906">
        <ele>36.19</ele>
        <time>2015-09-06T07:43:24Z</time>
      </trkpt>
      <trkpt lat="47.81528" lon="-3.4291">
        <ele>36.19</ele>
        <time>2015-09-06T07:43:25Z</time>
      </trkpt>
      <trkpt lat="47.81529" lon="-3.42914">
        <ele>36.19</ele>
        <time>2015-09-06T07:43:26Z</time>
      </trkpt>
      <trkpt lat="47.81529" lon="-3.42919">
        <ele>36.19</ele>
        <time>2015-09-06T07:43:27Z</time>
      </trkpt>
      <trkpt lat="47.81529" lon="-3.42924">
        <ele>36.19</ele>
        <time>2015-09-06T07:43:28Z</time>
      </trkpt>
      <trkpt lat="47.81529" lon="-3.4293">
        <ele>36.19</ele>
        <time>2015-09-06T07:43:29Z</time>
      </trkpt>
      <trkpt lat="47.81529" lon="-3.42935">
        <ele>36.19</ele>
        <time>2015-09-06T07:43:30Z</time>
      </trkpt>
      <trkpt lat="47.81529" lon="-3.4294">
        <ele>36.19</ele>
        <time>2015-09-06T07:43:31Z</time>
      </trkpt>
      <trkpt lat="47.81529" lon="-3.42946">
        <ele>36.19</ele>
        <time>2015-09-06T07:43:32Z</time>
      </trkpt>
      <trkpt lat="47.8153" lon="-3.42953">
        <ele>36.19</ele>
        <time>2015-09-06T07:43:33Z</time>
      </trkpt>
      <trkpt lat="47.8153" lon="-3.4296">
        <ele>36.19</ele>
        <time>2015-09-06T07:43:34Z</time>
      </trkpt>
      <trkpt lat="47.81531" lon="-3.42966">
        <ele>36.19</ele>
        <time>2015-09-06T07:43:35Z</time>
      </trkpt>
      <trkpt lat="47.81533" lon="-3.42971">
        <ele>36.19</ele>
        <time>2015-09-06T07:43:36Z</time>
      </trkpt>
      <trkpt lat="47.81536" lon="-3.42974">
        <ele>34.74</ele>
        <time>2015-09-06T07:43:37Z</time>
      </trkpt>
      <trkpt lat="47.8154" lon="-3.42976">
        <ele>34.26</ele>
        <time>2015-09-06T07:43:38Z</time>
      </trkpt>
      <trkpt lat="47.81546" lon="-3.42977">
        <ele>33.3</ele>
        <time>2015-09-06T07:43:39Z</time>
      </trkpt>
      <trkpt lat="47.81551" lon="-3.42979">
        <ele>31.86</ele>
        <time>2015-09-06T07:43:40Z</time>
      </trkpt>
      <trkpt lat="47.81556" lon="-3.4298">
        <ele>30.9</ele>
        <time>2015-09-06T07:43:41Z</time>
      </trkpt>
      <trkpt lat="47.81562" lon="-3.42981">
        <ele>29.46</ele>
        <time>2015-09-06T07:43:42Z</time>
      </trkpt>
      <trkpt lat="47.81567" lon="-3.42981">
        <ele>28.5</ele>
        <time>2015-09-06T07:43:43Z</time>
      </trkpt>
      <trkpt lat="47.81572" lon="-3.42982">
        <ele>28.02</ele>
        <time>2015-09-06T07:43:44Z</time>
      </trkpt>
      <trkpt lat="47.81578" lon="-3.42983">
        <ele>27.05</ele>
        <time>2015-09-06T07:43:45Z</time>
      </trkpt>
      <trkpt lat="47.81584" lon="-3.42984">
        <ele>26.09</ele>
        <time>2015-09-06T07:43:46Z</time>
      </trkpt>
      <trkpt lat="47.81589" lon="-3.42983">
        <ele>25.61</ele>
        <time>2015-09-06T07:43:47Z</time>
      </trkpt>
      <trkpt lat="47.81593" lon="-3.42981">
        <ele>24.65</ele>
        <time>2015-09-06T07:43:48Z</time>
      </trkpt>
      <trkpt lat="47.81596" lon="-3.42977">
        <ele>24.65</ele>
        <time>2015-09-06T07:43:49Z</time>
      </trkpt>
      <trkpt lat="47.81598" lon="-3.42971">
        <ele>23.69</ele>
        <time>2015-09-06T07:43:50Z</time>
      </trkpt>
      <trkpt lat="47.816" lon="-3.42967">
        <ele>23.69</ele>
        <time>2015-09-06T07:43:51Z</time>
      </trkpt>
      <trkpt lat="47.81604" lon="-3.42962">
        <ele>22.73</ele>
        <time>2015-09-06T07:43:52Z</time>
      </trkpt>
      <trkpt lat="47.81608" lon="-3.42958">
        <ele>22.25</ele>
        <time>2015-09-06T07:43:53Z</time>
      </trkpt>
      <trkpt lat="47.81613" lon="-3.42955">
        <ele>21.77</ele>
        <time>2015-09-06T07:43:54Z</time>
      </trkpt>
      <trkpt lat="47.81618" lon="-3.42952">
        <ele>20.81</ele>
        <time>2015-09-06T07:43:55Z</time>
      </trkpt>
      <trkpt lat="47.81624" lon="-3.4295">
        <ele>20.81</ele>
        <time>2015-09-06T07:43:56Z</time>
      </trkpt>
      <trkpt lat="47.81629" lon="-3.42948">
        <ele>19.84</ele>
        <time>2015-09-06T07:43:57Z</time>
      </trkpt>
      <trkpt lat="47.81632" lon="-3.42947">
        <ele>19.84</ele>
        <time>2015-09-06T07:43:58Z</time>
      </trkpt>
      <trkpt lat="47.81634" lon="-3.42947">
        <ele>19.84</ele>
        <time>2015-09-06T07:43:59Z</time>
      </trkpt>
      <trkpt lat="47.81636" lon="-3.4295">
        <ele>19.84</ele>
        <time>2015-09-06T07:44:00Z</time>
      </trkpt>
      <trkpt lat="47.81636" lon="-3.42951">
        <ele>19.84</ele>
        <time>2015-09-06T07:44:01Z</time>
      </trkpt>
      <trkpt lat="47.81635" lon="-3.42952">
        <ele>19.84</ele>
        <time>2015-09-06T07:44:02Z</time>
      </trkpt>
      <trkpt lat="47.81634" lon="-3.42953">
        <ele>19.84</ele>
        <time>2015-09-06T07:44:03Z</time>
      </trkpt>
      <trkpt lat="47.81633" lon="-3.42955">
        <ele>21.29</ele>
        <time>2015-09-06T07:44:04Z</time>
      </trkpt>
      <trkpt lat="47.81632" lon="-3.42958">
        <ele>21.29</ele>
        <time>2015-09-06T07:44:05Z</time>
      </trkpt>
      <trkpt lat="47.81631" lon="-3.4296">
        <ele>21.77</ele>
        <time>2015-09-06T07:44:06Z</time>
      </trkpt>
      <trkpt lat="47.8163" lon="-3.42962">
        <ele>21.77</ele>
        <time>2015-09-06T07:44:07Z</time>
      </trkpt>
      <trkpt lat="47.81629" lon="-3.42964">
        <ele>21.77</ele>
        <time>2015-09-06T07:44:08Z</time>
      </trkpt>
      <trkpt lat="47.81628" lon="-3.42966">
        <ele>22.25</ele>
        <time>2015-09-06T07:44:09Z</time>
      </trkpt>
      <trkpt lat="47.81627" lon="-3.42968">
        <ele>22.25</ele>
        <time>2015-09-06T07:44:10Z</time>
      </trkpt>
      <trkpt lat="47.81626" lon="-3.4297">
        <ele>22.73</ele>
        <time>2015-09-06T07:44:11Z</time>
      </trkpt>
      <trkpt lat="47.81625" lon="-3.42972">
        <ele>23.21</ele>
        <time>2015-09-06T07:44:12Z</time>
      </trkpt>
      <trkpt lat="47.81625" lon="-3.42974">
        <ele>23.21</ele>
        <time>2015-09-06T07:44:13Z</time>
      </trkpt>
      <trkpt lat="47.81626" lon="-3.42977">
        <ele>23.21</ele>
        <time>2015-09-06T07:44:14Z</time>
      </trkpt>
      <trkpt lat="47.81626" lon="-3.4298">
        <ele>23.21</ele>
        <time>2015-09-06T07:44:15Z</time>
      </trkpt>
      <trkpt lat="47.81627" lon="-3.42984">
        <ele>21.77</ele>
        <time>2015-09-06T07:44:16Z</time>
      </trkpt>
      <trkpt lat="47.81627" lon="-3.42988">
        <ele>21.29</ele>
        <time>2015-09-06T07:44:17Z</time>
      </trkpt>
      <trkpt lat="47.81627" lon="-3.42991">
        <ele>20.81</ele>
        <time>2015-09-06T07:44:18Z</time>
      </trkpt>
      <trkpt lat="47.81627" lon="-3.42995">
        <ele>20.81</ele>
        <time>2015-09-06T07:44:19Z</time>
      </trkpt>
      <trkpt lat="47.81628" lon="-3.43">
        <ele>20.32</ele>
        <time>2015-09-06T07:44:20Z</time>
      </trkpt>
      <trkpt lat="47.81629" lon="-3.43003">
        <ele>20.32</ele>
        <time>2015-09-06T07:44:21Z</time>
      </trkpt>
      <trkpt lat="47.81631" lon="-3.43007">
        <ele>19.36</ele>
        <time>2015-09-06T07:44:22Z</time>
      </trkpt>
      <trkpt lat="47.81632" lon="-3.43011">
        <ele>18.4</ele>
        <time>2015-09-06T07:44:23Z</time>
      </trkpt>
      <trkpt lat="47.81632" lon="-3.43014">
        <ele>18.4</ele>
        <time>2015-09-06T07:44:24Z</time>
      </trkpt>
      <trkpt lat="47.81632" lon="-3.43017">
        <ele>18.4</ele>
        <time>2015-09-06T07:44:25Z</time>
      </trkpt>
      <trkpt lat="47.81632" lon="-3.43022">
        <ele>17.44</ele>
        <time>2015-09-06T07:44:26Z</time>
      </trkpt>
      <trkpt lat="47.81632" lon="-3.43026">
        <ele>16.96</ele>
        <time>2015-09-06T07:44:27Z</time>
      </trkpt>
      <trkpt lat="47.81631" lon="-3.43029">
        <ele>16.96</ele>
        <time>2015-09-06T07:44:28Z</time>
      </trkpt>
      <trkpt lat="47.8163" lon="-3.43033">
        <ele>16.96</ele>
        <time>2015-09-06T07:44:29Z</time>
      </trkpt>
      <trkpt lat="47.8163" lon="-3.43036">
        <ele>16.96</ele>
        <time>2015-09-06T07:44:30Z</time>
      </trkpt>
      <trkpt lat="47.8163" lon="-3.43041">
        <ele>16</ele>
        <time>2015-09-06T07:44:31Z</time>
      </trkpt>
      <trkpt lat="47.81632" lon="-3.43046">
        <ele>15.52</ele>
        <time>2015-09-06T07:44:32Z</time>
      </trkpt>
      <trkpt lat="47.81633" lon="-3.43052">
        <ele>15.52</ele>
        <time>2015-09-06T07:44:33Z</time>
      </trkpt>
      <trkpt lat="47.81634" lon="-3.43058">
        <ele>15.52</ele>
        <time>2015-09-06T07:44:34Z</time>
      </trkpt>
      <trkpt lat="47.81635" lon="-3.43064">
        <ele>15.52</ele>
        <time>2015-09-06T07:44:35Z</time>
      </trkpt>
      <trkpt lat="47.81636" lon="-3.43069">
        <ele>15.52</ele>
        <time>2015-09-06T07:44:36Z</time>
      </trkpt>
      <trkpt lat="47.81638" lon="-3.43072">
        <ele>15.52</ele>
        <time>2015-09-06T07:44:37Z</time>
      </trkpt>
      <trkpt lat="47.8164" lon="-3.43075">
        <ele>15.52</ele>
        <time>2015-09-06T07:44:38Z</time>
      </trkpt>
      <trkpt lat="47.81642" lon="-3.43078">
        <ele>15.52</ele>
        <time>2015-09-06T07:44:39Z</time>
      </trkpt>
      <trkpt lat="47.81645" lon="-3.43081">
        <ele>15.52</ele>
        <time>2015-09-06T07:44:40Z</time>
      </trkpt>
      <trkpt lat="47.81647" lon="-3.43086">
        <ele>15.52</ele>
        <time>2015-09-06T07:44:41Z</time>
      </trkpt>
      <trkpt lat="47.8165" lon="-3.4309">
        <ele>15.52</ele>
        <time>2015-09-06T07:44:42Z</time>
      </trkpt>
      <trkpt lat="47.81652" lon="-3.43092">
        <ele>15.52</ele>
        <time>2015-09-06T07:44:43Z</time>
      </trkpt>
      <trkpt lat="47.81654" lon="-3.43095">
        <ele>15.52</ele>
        <time>2015-09-06T07:44:44Z</time>
      </trkpt>
      <trkpt lat="47.81656" lon="-3.43097">
        <ele>15.52</ele>
        <time>2015-09-06T07:44:45Z</time>
      </trkpt>
      <trkpt lat="47.81658" lon="-3.43099">
        <ele>15.52</ele>
        <time>2015-09-06T07:44:46Z</time>
      </trkpt>
      <trkpt lat="47.8166" lon="-3.43102">
        <ele>15.52</ele>
        <time>2015-09-06T07:44:47Z</time>
      </trkpt>
      <trkpt lat="47.81662" lon="-3.43104">
        <ele>15.52</ele>
        <time>2015-09-06T07:44:48Z</time>
      </trkpt>
      <trkpt lat="47.81664" lon="-3.43106">
        <ele>15.52</ele>
        <time>2015-09-06T07:44:49Z</time>
      </trkpt>
      <trkpt lat="47.81667" lon="-3.43107">
        <ele>15.52</ele>
        <time>2015-09-06T07:44:50Z</time>
      </trkpt>
      <trkpt lat="47.81669" lon="-3.43107">
        <ele>15.52</ele>
        <time>2015-09-06T07:44:51Z</time>
      </trkpt>
      <trkpt lat="47.81673" lon="-3.43107">
        <ele>15.52</ele>
        <time>2015-09-06T07:44:52Z</time>
      </trkpt>
      <trkpt lat="47.81676" lon="-3.43108">
        <ele>15.52</ele>
        <time>2015-09-06T07:44:53Z</time>
      </trkpt>
      <trkpt lat="47.81679" lon="-3.43108">
        <ele>15.52</ele>
        <time>2015-09-06T07:44:54Z</time>
      </trkpt>
      <trkpt lat="47.81682" lon="-3.43108">
        <ele>15.52</ele>
        <time>2015-09-06T07:44:55Z</time>
      </trkpt>
      <trkpt lat="47.81686" lon="-3.43107">
        <ele>15.52</ele>
        <time>2015-09-06T07:44:56Z</time>
      </trkpt>
      <trkpt lat="47.81689" lon="-3.43106">
        <ele>15.52</ele>
        <time>2015-09-06T07:44:57Z</time>
      </trkpt>
      <trkpt lat="47.81694" lon="-3.43105">
        <ele>15.52</ele>
        <time>2015-09-06T07:44:58Z</time>
      </trkpt>
      <trkpt lat="47.81698" lon="-3.43104">
        <ele>15.52</ele>
        <time>2015-09-06T07:44:59Z</time>
      </trkpt>
      <trkpt lat="47.81702" lon="-3.43103">
        <ele>15.52</ele>
        <time>2015-09-06T07:45:00Z</time>
      </trkpt>
      <trkpt lat="47.81707" lon="-3.43102">
        <ele>15.52</ele>
        <time>2015-09-06T07:45:01Z</time>
      </trkpt>
      <trkpt lat="47.81711" lon="-3.43102">
        <ele>15.52</ele>
        <time>2015-09-06T07:45:02Z</time>
      </trkpt>
      <trkpt lat="47.81715" lon="-3.43103">
        <ele>15.52</ele>
        <time>2015-09-06T07:45:03Z</time>
      </trkpt>
      <trkpt lat="47.8172" lon="-3.43105">
        <ele>15.52</ele>
        <time>2015-09-06T07:45:04Z</time>
      </trkpt>
      <trkpt lat="47.81724" lon="-3.43107">
        <ele>15.52</ele>
        <time>2015-09-06T07:45:05Z</time>
      </trkpt>
      <trkpt lat="47.81727" lon="-3.43108">
        <ele>15.52</ele>
        <time>2015-09-06T07:45:06Z</time>
      </trkpt>
      <trkpt lat="47.81731" lon="-3.4311">
        <ele>15.52</ele>
        <time>2015-09-06T07:45:07Z</time>
      </trkpt>
      <trkpt lat="47.81736" lon="-3.43113">
        <ele>15.52</ele>
        <time>2015-09-06T07:45:08Z</time>
      </trkpt>
      <trkpt lat="47.8174" lon="-3.43114">
        <ele>15.52</ele>
        <time>2015-09-06T07:45:09Z</time>
      </trkpt>
      <trkpt lat="47.81744" lon="-3.43115">
        <ele>15.52</ele>
        <time>2015-09-06T07:45:10Z</time>
      </trkpt>
      <trkpt lat="47.81748" lon="-3.43115">
        <ele>15.52</ele>
        <time>2015-09-06T07:45:11Z</time>
      </trkpt>
      <trkpt lat="47.81752" lon="-3.43115">
        <ele>15.52</ele>
        <time>2015-09-06T07:45:12Z</time>
      </trkpt>
      <trkpt lat="47.81757" lon="-3.43114">
        <ele>15.52</ele>
        <time>2015-09-06T07:45:13Z</time>
      </trkpt>
      <trkpt lat="47.81761" lon="-3.43113">
        <ele>15.52</ele>
        <time>2015-09-06T07:45:14Z</time>
      </trkpt>
      <trkpt lat="47.81766" lon="-3.43112">
        <ele>15.52</ele>
        <time>2015-09-06T07:45:15Z</time>
      </trkpt>
      <trkpt lat="47.81771" lon="-3.4311">
        <ele>15.52</ele>
        <time>2015-09-06T07:45:16Z</time>
      </trkpt>
      <trkpt lat="47.81775" lon="-3.43109">
        <ele>15.52</ele>
        <time>2015-09-06T07:45:17Z</time>
      </trkpt>
      <trkpt lat="47.8178" lon="-3.43107">
        <ele>15.52</ele>
        <time>2015-09-06T07:45:18Z</time>
      </trkpt>
      <trkpt lat="47.81784" lon="-3.43103">
        <ele>15.52</ele>
        <time>2015-09-06T07:45:19Z</time>
      </trkpt>
      <trkpt lat="47.81788" lon="-3.431">
        <ele>15.52</ele>
        <time>2015-09-06T07:45:20Z</time>
      </trkpt>
      <trkpt lat="47.81791" lon="-3.43096">
        <ele>15.52</ele>
        <time>2015-09-06T07:45:21Z</time>
      </trkpt>
      <trkpt lat="47.81796" lon="-3.43092">
        <ele>15.52</ele>
        <time>2015-09-06T07:45:22Z</time>
      </trkpt>
      <trkpt lat="47.818" lon="-3.43089">
        <ele>15.52</ele>
        <time>2015-09-06T07:45:23Z</time>
      </trkpt>
      <trkpt lat="47.81804" lon="-3.43086">
        <ele>15.52</ele>
        <time>2015-09-06T07:45:24Z</time>
      </trkpt>
      <trkpt lat="47.81809" lon="-3.43084">
        <ele>15.52</ele>
        <time>2015-09-06T07:45:25Z</time>
      </trkpt>
      <trkpt lat="47.81814" lon="-3.43081">
        <ele>15.52</ele>
        <time>2015-09-06T07:45:26Z</time>
      </trkpt>
      <trkpt lat="47.81818" lon="-3.4308">
        <ele>15.52</ele>
        <time>2015-09-06T07:45:27Z</time>
      </trkpt>
      <trkpt lat="47.81823" lon="-3.43078">
        <ele>15.52</ele>
        <time>2015-09-06T07:45:28Z</time>
      </trkpt>
      <trkpt lat="47.81827" lon="-3.43077">
        <ele>15.52</ele>
        <time>2015-09-06T07:45:29Z</time>
      </trkpt>
      <trkpt lat="47.81832" lon="-3.43076">
        <ele>16</ele>
        <time>2015-09-06T07:45:30Z</time>
      </trkpt>
      <trkpt lat="47.81836" lon="-3.43074">
        <ele>16</ele>
        <time>2015-09-06T07:45:31Z</time>
      </trkpt>
      <trkpt lat="47.81841" lon="-3.43073">
        <ele>16</ele>
        <time>2015-09-06T07:45:32Z</time>
      </trkpt>
      <trkpt lat="47.81845" lon="-3.43072">
        <ele>16</ele>
        <time>2015-09-06T07:45:33Z</time>
      </trkpt>
      <trkpt lat="47.8185" lon="-3.43071">
        <ele>16</ele>
        <time>2015-09-06T07:45:34Z</time>
      </trkpt>
      <trkpt lat="47.81856" lon="-3.4307">
        <ele>16</ele>
        <time>2015-09-06T07:45:35Z</time>
      </trkpt>
      <trkpt lat="47.81861" lon="-3.43069">
        <ele>16</ele>
        <time>2015-09-06T07:45:36Z</time>
      </trkpt>
      <trkpt lat="47.81866" lon="-3.43069">
        <ele>16</ele>
        <time>2015-09-06T07:45:37Z</time>
      </trkpt>
      <trkpt lat="47.81871" lon="-3.4307">
        <ele>16</ele>
        <time>2015-09-06T07:45:38Z</time>
      </trkpt>
      <trkpt lat="47.81875" lon="-3.4307">
        <ele>16</ele>
        <time>2015-09-06T07:45:39Z</time>
      </trkpt>
      <trkpt lat="47.81881" lon="-3.4307">
        <ele>16</ele>
        <time>2015-09-06T07:45:40Z</time>
      </trkpt>
      <trkpt lat="47.81885" lon="-3.43071">
        <ele>16</ele>
        <time>2015-09-06T07:45:41Z</time>
      </trkpt>
      <trkpt lat="47.81889" lon="-3.43072">
        <ele>16</ele>
        <time>2015-09-06T07:45:42Z</time>
      </trkpt>
      <trkpt lat="47.81894" lon="-3.43074">
        <ele>16</ele>
        <time>2015-09-06T07:45:43Z</time>
      </trkpt>
      <trkpt lat="47.81899" lon="-3.43076">
        <ele>16</ele>
        <time>2015-09-06T07:45:44Z</time>
      </trkpt>
      <trkpt lat="47.81904" lon="-3.43078">
        <ele>16</ele>
        <time>2015-09-06T07:45:45Z</time>
      </trkpt>
      <trkpt lat="47.81908" lon="-3.43079">
        <ele>16</ele>
        <time>2015-09-06T07:45:46Z</time>
      </trkpt>
      <trkpt lat="47.81912" lon="-3.43081">
        <ele>16</ele>
        <time>2015-09-06T07:45:47Z</time>
      </trkpt>
      <trkpt lat="47.81917" lon="-3.43082">
        <ele>16</ele>
        <time>2015-09-06T07:45:48Z</time>
      </trkpt>
      <trkpt lat="47.81921" lon="-3.43084">
        <ele>16</ele>
        <time>2015-09-06T07:45:49Z</time>
      </trkpt>
      <trkpt lat="47.81925" lon="-3.43087">
        <ele>16</ele>
        <time>2015-09-06T07:45:50Z</time>
      </trkpt>
      <trkpt lat="47.8193" lon="-3.4309">
        <ele>16</ele>
        <time>2015-09-06T07:45:51Z</time>
      </trkpt>
      <trkpt lat="47.81933" lon="-3.43093">
        <ele>16</ele>
        <time>2015-09-06T07:45:52Z</time>
      </trkpt>
      <trkpt lat="47.81937" lon="-3.43096">
        <ele>16</ele>
        <time>2015-09-06T07:45:53Z</time>
      </trkpt>
      <trkpt lat="47.81941" lon="-3.43099">
        <ele>16</ele>
        <time>2015-09-06T07:45:54Z</time>
      </trkpt>
      <trkpt lat="47.81944" lon="-3.43102">
        <ele>16</ele>
        <time>2015-09-06T07:45:55Z</time>
      </trkpt>
      <trkpt lat="47.81948" lon="-3.43105">
        <ele>16</ele>
        <time>2015-09-06T07:45:56Z</time>
      </trkpt>
      <trkpt lat="47.81951" lon="-3.43108">
        <ele>16</ele>
        <time>2015-09-06T07:45:57Z</time>
      </trkpt>
      <trkpt lat="47.81955" lon="-3.43111">
        <ele>16</ele>
        <time>2015-09-06T07:45:58Z</time>
      </trkpt>
      <trkpt lat="47.81959" lon="-3.43114">
        <ele>16</ele>
        <time>2015-09-06T07:45:59Z</time>
      </trkpt>
      <trkpt lat="47.81964" lon="-3.43117">
        <ele>16</ele>
        <time>2015-09-06T07:46:00Z</time>
      </trkpt>
      <trkpt lat="47.8197" lon="-3.4312">
        <ele>16</ele>
        <time>2015-09-06T07:46:01Z</time>
      </trkpt>
      <trkpt lat="47.81974" lon="-3.43124">
        <ele>16</ele>
        <time>2015-09-06T07:46:02Z</time>
      </trkpt>
      <trkpt lat="47.81979" lon="-3.43128">
        <ele>16</ele>
        <time>2015-09-06T07:46:03Z</time>
      </trkpt>
      <trkpt lat="47.81984" lon="-3.43132">
        <ele>16</ele>
        <time>2015-09-06T07:46:04Z</time>
      </trkpt>
      <trkpt lat="47.81988" lon="-3.43136">
        <ele>16</ele>
        <time>2015-09-06T07:46:05Z</time>
      </trkpt>
      <trkpt lat="47.81993" lon="-3.43141">
        <ele>16</ele>
        <time>2015-09-06T07:46:06Z</time>
      </trkpt>
      <trkpt lat="47.81997" lon="-3.43145">
        <ele>16</ele>
        <time>2015-09-06T07:46:07Z</time>
      </trkpt>
      <trkpt lat="47.82001" lon="-3.4315">
        <ele>16</ele>
        <time>2015-09-06T07:46:08Z</time>
      </trkpt>
      <trkpt lat="47.82005" lon="-3.43153">
        <ele>16</ele>
        <time>2015-09-06T07:46:09Z</time>
      </trkpt>
      <trkpt lat="47.82009" lon="-3.43156">
        <ele>16</ele>
        <time>2015-09-06T07:46:10Z</time>
      </trkpt>
      <trkpt lat="47.82012" lon="-3.43157">
        <ele>16</ele>
        <time>2015-09-06T07:46:11Z</time>
      </trkpt>
      <trkpt lat="47.82016" lon="-3.43158">
        <ele>16</ele>
        <time>2015-09-06T07:46:12Z</time>
      </trkpt>
      <trkpt lat="47.82021" lon="-3.43158">
        <ele>16</ele>
        <time>2015-09-06T07:46:13Z</time>
      </trkpt>
      <trkpt lat="47.82026" lon="-3.43157">
        <ele>16</ele>
        <time>2015-09-06T07:46:14Z</time>
      </trkpt>
      <trkpt lat="47.82031" lon="-3.43156">
        <ele>16</ele>
        <time>2015-09-06T07:46:15Z</time>
      </trkpt>
      <trkpt lat="47.82035" lon="-3.43155">
        <ele>16</ele>
        <time>2015-09-06T07:46:16Z</time>
      </trkpt>
      <trkpt lat="47.8204" lon="-3.43153">
        <ele>16</ele>
        <time>2015-09-06T07:46:17Z</time>
      </trkpt>
      <trkpt lat="47.82045" lon="-3.43152">
        <ele>16</ele>
        <time>2015-09-06T07:46:18Z</time>
      </trkpt>
      <trkpt lat="47.82049" lon="-3.43152">
        <ele>16</ele>
        <time>2015-09-06T07:46:19Z</time>
      </trkpt>
      <trkpt lat="47.82054" lon="-3.43152">
        <ele>16</ele>
        <time>2015-09-06T07:46:20Z</time>
      </trkpt>
      <trkpt lat="47.82059" lon="-3.43154">
        <ele>16</ele>
        <time>2015-09-06T07:46:21Z</time>
      </trkpt>
      <trkpt lat="47.82064" lon="-3.43155">
        <ele>16</ele>
        <time>2015-09-06T07:46:22Z</time>
      </trkpt>
      <trkpt lat="47.82069" lon="-3.43158">
        <ele>16</ele>
        <time>2015-09-06T07:46:23Z</time>
      </trkpt>
      <trkpt lat="47.82074" lon="-3.43161">
        <ele>16</ele>
        <time>2015-09-06T07:46:24Z</time>
      </trkpt>
      <trkpt lat="47.82078" lon="-3.43165">
        <ele>16</ele>
        <time>2015-09-06T07:46:25Z</time>
      </trkpt>
      <trkpt lat="47.82082" lon="-3.43169">
        <ele>16</ele>
        <time>2015-09-06T07:46:26Z</time>
      </trkpt>
      <trkpt lat="47.82085" lon="-3.43174">
        <ele>16</ele>
        <time>2015-09-06T07:46:27Z</time>
      </trkpt>
      <trkpt lat="47.82088" lon="-3.4318">
        <ele>16</ele>
        <time>2015-09-06T07:46:28Z</time>
      </trkpt>
      <trkpt lat="47.82091" lon="-3.43187">
        <ele>16</ele>
        <time>2015-09-06T07:46:29Z</time>
      </trkpt>
      <trkpt lat="47.82093" lon="-3.43194">
        <ele>16</ele>
        <time>2015-09-06T07:46:30Z</time>
      </trkpt>
      <trkpt lat="47.82094" lon="-3.43201">
        <ele>16</ele>
        <time>2015-09-06T07:46:31Z</time>
      </trkpt>
      <trkpt lat="47.82094" lon="-3.43208">
        <ele>16</ele>
        <time>2015-09-06T07:46:32Z</time>
      </trkpt>
      <trkpt lat="47.82093" lon="-3.43214">
        <ele>16</ele>
        <time>2015-09-06T07:46:33Z</time>
      </trkpt>
      <trkpt lat="47.82092" lon="-3.43218">
        <ele>17.44</ele>
        <time>2015-09-06T07:46:34Z</time>
      </trkpt>
      <trkpt lat="47.8209" lon="-3.43223">
        <ele>17.44</ele>
        <time>2015-09-06T07:46:35Z</time>
      </trkpt>
      <trkpt lat="47.82088" lon="-3.43228">
        <ele>17.44</ele>
        <time>2015-09-06T07:46:36Z</time>
      </trkpt>
      <trkpt lat="47.82086" lon="-3.43233">
        <ele>17.92</ele>
        <time>2015-09-06T07:46:37Z</time>
      </trkpt>
      <trkpt lat="47.82084" lon="-3.43237">
        <ele>17.92</ele>
        <time>2015-09-06T07:46:38Z</time>
      </trkpt>
      <trkpt lat="47.82081" lon="-3.43241">
        <ele>17.92</ele>
        <time>2015-09-06T07:46:39Z</time>
      </trkpt>
      <trkpt lat="47.82079" lon="-3.43244">
        <ele>18.4</ele>
        <time>2015-09-06T07:46:40Z</time>
      </trkpt>
      <trkpt lat="47.82076" lon="-3.43247">
        <ele>18.4</ele>
        <time>2015-09-06T07:46:41Z</time>
      </trkpt>
      <trkpt lat="47.82073" lon="-3.43251">
        <ele>18.4</ele>
        <time>2015-09-06T07:46:42Z</time>
      </trkpt>
      <trkpt lat="47.82071" lon="-3.43255">
        <ele>18.4</ele>
        <time>2015-09-06T07:46:43Z</time>
      </trkpt>
      <trkpt lat="47.82069" lon="-3.43258">
        <ele>18.4</ele>
        <time>2015-09-06T07:46:44Z</time>
      </trkpt>
      <trkpt lat="47.82066" lon="-3.43262">
        <ele>18.88</ele>
        <time>2015-09-06T07:46:45Z</time>
      </trkpt>
      <trkpt lat="47.82064" lon="-3.43265">
        <ele>18.88</ele>
        <time>2015-09-06T07:46:46Z</time>
      </trkpt>
      <trkpt lat="47.82061" lon="-3.43267">
        <ele>19.36</ele>
        <time>2015-09-06T07:46:47Z</time>
      </trkpt>
      <trkpt lat="47.82058" lon="-3.43269">
        <ele>19.36</ele>
        <time>2015-09-06T07:46:48Z</time>
      </trkpt>
      <trkpt lat="47.82056" lon="-3.4327">
        <ele>19.84</ele>
        <time>2015-09-06T07:46:49Z</time>
      </trkpt>
      <trkpt lat="47.82053" lon="-3.4327">
        <ele>19.84</ele>
        <time>2015-09-06T07:46:50Z</time>
      </trkpt>
      <trkpt lat="47.82051" lon="-3.4327">
        <ele>20.32</ele>
        <time>2015-09-06T07:46:51Z</time>
      </trkpt>
      <trkpt lat="47.82049" lon="-3.43269">
        <ele>20.32</ele>
        <time>2015-09-06T07:46:52Z</time>
      </trkpt>
      <trkpt lat="47.82048" lon="-3.43269">
        <ele>20.32</ele>
        <time>2015-09-06T07:46:53Z</time>
      </trkpt>
      <trkpt lat="47.82046" lon="-3.43269">
        <ele>20.81</ele>
        <time>2015-09-06T07:46:54Z</time>
      </trkpt>
      <trkpt lat="47.82044" lon="-3.43268">
        <ele>20.81</ele>
        <time>2015-09-06T07:46:55Z</time>
      </trkpt>
      <trkpt lat="47.82042" lon="-3.43267">
        <ele>20.81</ele>
        <time>2015-09-06T07:46:56Z</time>
      </trkpt>
      <trkpt lat="47.82041" lon="-3.43267">
        <ele>21.29</ele>
        <time>2015-09-06T07:46:57Z</time>
      </trkpt>
      <trkpt lat="47.8204" lon="-3.43266">
        <ele>21.29</ele>
        <time>2015-09-06T07:46:58Z</time>
      </trkpt>
      <trkpt lat="47.82038" lon="-3.43264">
        <ele>21.77</ele>
        <time>2015-09-06T07:46:59Z</time>
      </trkpt>
      <trkpt lat="47.82037" lon="-3.43263">
        <ele>21.77</ele>
        <time>2015-09-06T07:47:00Z</time>
      </trkpt>
      <trkpt lat="47.82035" lon="-3.43262">
        <ele>22.25</ele>
        <time>2015-09-06T07:47:01Z</time>
      </trkpt>
      <trkpt lat="47.82034" lon="-3.43261">
        <ele>22.25</ele>
        <time>2015-09-06T07:47:02Z</time>
      </trkpt>
      <trkpt lat="47.82033" lon="-3.4326">
        <ele>22.25</ele>
        <time>2015-09-06T07:47:03Z</time>
      </trkpt>
      <trkpt lat="47.82033" lon="-3.43259">
        <ele>22.73</ele>
        <time>2015-09-06T07:47:04Z</time>
      </trkpt>
      <trkpt lat="47.82032" lon="-3.43258">
        <ele>22.73</ele>
        <time>2015-09-06T07:47:05Z</time>
      </trkpt>
      <trkpt lat="47.82031" lon="-3.43257">
        <ele>22.73</ele>
        <time>2015-09-06T07:47:06Z</time>
      </trkpt>
      <trkpt lat="47.8203" lon="-3.43256">
        <ele>23.69</ele>
        <time>2015-09-06T07:47:07Z</time>
      </trkpt>
      <trkpt lat="47.82029" lon="-3.43254">
        <ele>23.69</ele>
        <time>2015-09-06T07:47:08Z</time>
      </trkpt>
      <trkpt lat="47.82028" lon="-3.43252">
        <ele>24.17</ele>
        <time>2015-09-06T07:47:09Z</time>
      </trkpt>
      <trkpt lat="47.82026" lon="-3.4325">
        <ele>24.17</ele>
        <time>2015-09-06T07:47:10Z</time>
      </trkpt>
      <trkpt lat="47.82025" lon="-3.43248">
        <ele>24.17</ele>
        <time>2015-09-06T07:47:11Z</time>
      </trkpt>
      <trkpt lat="47.82023" lon="-3.43245">
        <ele>24.65</ele>
        <time>2015-09-06T07:47:12Z</time>
      </trkpt>
      <trkpt lat="47.82022" lon="-3.43244">
        <ele>24.65</ele>
        <time>2015-09-06T07:47:13Z</time>
      </trkpt>
      <trkpt lat="47.82021" lon="-3.43242">
        <ele>24.65</ele>
        <time>2015-09-06T07:47:14Z</time>
      </trkpt>
      <trkpt lat="47.82019" lon="-3.43241">
        <ele>25.13</ele>
        <time>2015-09-06T07:47:15Z</time>
      </trkpt>
      <trkpt lat="47.82018" lon="-3.43239">
        <ele>25.13</ele>
        <time>2015-09-06T07:47:16Z</time>
      </trkpt>
      <trkpt lat="47.82017" lon="-3.43237">
        <ele>25.13</ele>
        <time>2015-09-06T07:47:17Z</time>
      </trkpt>
      <trkpt lat="47.82015" lon="-3.43235">
        <ele>25.13</ele>
        <time>2015-09-06T07:47:18Z</time>
      </trkpt>
      <trkpt lat="47.82014" lon="-3.43232">
        <ele>25.13</ele>
        <time>2015-09-06T07:47:19Z</time>
      </trkpt>
      <trkpt lat="47.82013" lon="-3.43229">
        <ele>25.61</ele>
        <time>2015-09-06T07:47:20Z</time>
      </trkpt>
      <trkpt lat="47.82011" lon="-3.43226">
        <ele>25.61</ele>
        <time>2015-09-06T07:47:21Z</time>
      </trkpt>
      <trkpt lat="47.8201" lon="-3.43224">
        <ele>25.61</ele>
        <time>2015-09-06T07:47:22Z</time>
      </trkpt>
      <trkpt lat="47.82007" lon="-3.43221">
        <ele>25.61</ele>
        <time>2015-09-06T07:47:23Z</time>
      </trkpt>
      <trkpt lat="47.82005" lon="-3.43218">
        <ele>26.09</ele>
        <time>2015-09-06T07:47:24Z</time>
      </trkpt>
      <trkpt lat="47.82003" lon="-3.43216">
        <ele>26.09</ele>
        <time>2015-09-06T07:47:25Z</time>
      </trkpt>
      <trkpt lat="47.82002" lon="-3.43213">
        <ele>26.09</ele>
        <time>2015-09-06T07:47:26Z</time>
      </trkpt>
      <trkpt lat="47.82" lon="-3.4321">
        <ele>27.05</ele>
        <time>2015-09-06T07:47:27Z</time>
      </trkpt>
      <trkpt lat="47.81998" lon="-3.43208">
        <ele>27.05</ele>
        <time>2015-09-06T07:47:28Z</time>
      </trkpt>
      <trkpt lat="47.81996" lon="-3.43207">
        <ele>27.53</ele>
        <time>2015-09-06T07:47:29Z</time>
      </trkpt>
      <trkpt lat="47.81994" lon="-3.43205">
        <ele>27.53</ele>
        <time>2015-09-06T07:47:30Z</time>
      </trkpt>
      <trkpt lat="47.81992" lon="-3.43203">
        <ele>27.53</ele>
        <time>2015-09-06T07:47:31Z</time>
      </trkpt>
      <trkpt lat="47.8199" lon="-3.432">
        <ele>28.02</ele>
        <time>2015-09-06T07:47:32Z</time>
      </trkpt>
      <trkpt lat="47.81987" lon="-3.43198">
        <ele>28.02</ele>
        <time>2015-09-06T07:47:33Z</time>
      </trkpt>
      <trkpt lat="47.81985" lon="-3.43195">
        <ele>28.02</ele>
        <time>2015-09-06T07:47:34Z</time>
      </trkpt>
      <trkpt lat="47.81982" lon="-3.43193">
        <ele>28.02</ele>
        <time>2015-09-06T07:47:35Z</time>
      </trkpt>
      <trkpt lat="47.8198" lon="-3.43192">
        <ele>28.02</ele>
        <time>2015-09-06T07:47:36Z</time>
      </trkpt>
      <trkpt lat="47.81978" lon="-3.4319">
        <ele>28.5</ele>
        <time>2015-09-06T07:47:37Z</time>
      </trkpt>
      <trkpt lat="47.81975" lon="-3.43189">
        <ele>28.5</ele>
        <time>2015-09-06T07:47:38Z</time>
      </trkpt>
      <trkpt lat="47.81973" lon="-3.43189">
        <ele>28.98</ele>
        <time>2015-09-06T07:47:39Z</time>
      </trkpt>
      <trkpt lat="47.81971" lon="-3.43189">
        <ele>28.98</ele>
        <time>2015-09-06T07:47:40Z</time>
      </trkpt>
      <trkpt lat="47.81969" lon="-3.43189">
        <ele>29.46</ele>
        <time>2015-09-06T07:47:41Z</time>
      </trkpt>
      <trkpt lat="47.81967" lon="-3.43189">
        <ele>29.46</ele>
        <time>2015-09-06T07:47:42Z</time>
      </trkpt>
      <trkpt lat="47.81964" lon="-3.43189">
        <ele>29.46</ele>
        <time>2015-09-06T07:47:43Z</time>
      </trkpt>
      <trkpt lat="47.81962" lon="-3.4319">
        <ele>29.94</ele>
        <time>2015-09-06T07:47:44Z</time>
      </trkpt>
      <trkpt lat="47.8196" lon="-3.4319">
        <ele>29.94</ele>
        <time>2015-09-06T07:47:45Z</time>
      </trkpt>
      <trkpt lat="47.81958" lon="-3.4319">
        <ele>30.42</ele>
        <time>2015-09-06T07:47:46Z</time>
      </trkpt>
      <trkpt lat="47.81956" lon="-3.43191">
        <ele>30.42</ele>
        <time>2015-09-06T07:47:47Z</time>
      </trkpt>
      <trkpt lat="47.81954" lon="-3.43192">
        <ele>30.9</ele>
        <time>2015-09-06T07:47:48Z</time>
      </trkpt>
      <trkpt lat="47.81952" lon="-3.43192">
        <ele>30.9</ele>
        <time>2015-09-06T07:47:49Z</time>
      </trkpt>
      <trkpt lat="47.81951" lon="-3.43193">
        <ele>31.38</ele>
        <time>2015-09-06T07:47:50Z</time>
      </trkpt>
      <trkpt lat="47.81949" lon="-3.43194">
        <ele>31.38</ele>
        <time>2015-09-06T07:47:51Z</time>
      </trkpt>
      <trkpt lat="47.81947" lon="-3.43195">
        <ele>31.38</ele>
        <time>2015-09-06T07:47:52Z</time>
      </trkpt>
      <trkpt lat="47.81945" lon="-3.43197">
        <ele>31.38</ele>
        <time>2015-09-06T07:47:53Z</time>
      </trkpt>
      <trkpt lat="47.81943" lon="-3.43199">
        <ele>32.34</ele>
        <time>2015-09-06T07:47:54Z</time>
      </trkpt>
      <trkpt lat="47.81942" lon="-3.432">
        <ele>32.34</ele>
        <time>2015-09-06T07:47:55Z</time>
      </trkpt>
      <trkpt lat="47.81939" lon="-3.432">
        <ele>32.34</ele>
        <time>2015-09-06T07:47:56Z</time>
      </trkpt>
      <trkpt lat="47.81937" lon="-3.43201">
        <ele>32.34</ele>
        <time>2015-09-06T07:47:57Z</time>
      </trkpt>
      <trkpt lat="47.81935" lon="-3.43201">
        <ele>32.82</ele>
        <time>2015-09-06T07:47:58Z</time>
      </trkpt>
      <trkpt lat="47.81932" lon="-3.432">
        <ele>32.82</ele>
        <time>2015-09-06T07:47:59Z</time>
      </trkpt>
      <trkpt lat="47.8193" lon="-3.432">
        <ele>32.82</ele>
        <time>2015-09-06T07:48:00Z</time>
      </trkpt>
      <trkpt lat="47.81927" lon="-3.432">
        <ele>32.82</ele>
        <time>2015-09-06T07:48:01Z</time>
      </trkpt>
      <trkpt lat="47.81925" lon="-3.432">
        <ele>32.82</ele>
        <time>2015-09-06T07:48:02Z</time>
      </trkpt>
      <trkpt lat="47.81922" lon="-3.432">
        <ele>32.82</ele>
        <time>2015-09-06T07:48:03Z</time>
      </trkpt>
      <trkpt lat="47.8192" lon="-3.43201">
        <ele>32.82</ele>
        <time>2015-09-06T07:48:04Z</time>
      </trkpt>
      <trkpt lat="47.81917" lon="-3.43201">
        <ele>32.82</ele>
        <time>2015-09-06T07:48:05Z</time>
      </trkpt>
      <trkpt lat="47.81914" lon="-3.43201">
        <ele>32.82</ele>
        <time>2015-09-06T07:48:06Z</time>
      </trkpt>
      <trkpt lat="47.81912" lon="-3.43201">
        <ele>32.82</ele>
        <time>2015-09-06T07:48:07Z</time>
      </trkpt>
      <trkpt lat="47.8191" lon="-3.43202">
        <ele>32.82</ele>
        <time>2015-09-06T07:48:08Z</time>
      </trkpt>
      <trkpt lat="47.81907" lon="-3.43203">
        <ele>33.3</ele>
        <time>2015-09-06T07:48:09Z</time>
      </trkpt>
      <trkpt lat="47.81905" lon="-3.43203">
        <ele>33.3</ele>
        <time>2015-09-06T07:48:10Z</time>
      </trkpt>
      <trkpt lat="47.81902" lon="-3.43204">
        <ele>33.3</ele>
        <time>2015-09-06T07:48:11Z</time>
      </trkpt>
      <trkpt lat="47.81899" lon="-3.43204">
        <ele>33.3</ele>
        <time>2015-09-06T07:48:12Z</time>
      </trkpt>
      <trkpt lat="47.81897" lon="-3.43205">
        <ele>33.3</ele>
        <time>2015-09-06T07:48:13Z</time>
      </trkpt>
      <trkpt lat="47.81894" lon="-3.43205">
        <ele>33.78</ele>
        <time>2015-09-06T07:48:14Z</time>
      </trkpt>
      <trkpt lat="47.81891" lon="-3.43206">
        <ele>33.78</ele>
        <time>2015-09-06T07:48:15Z</time>
      </trkpt>
      <trkpt lat="47.81888" lon="-3.43207">
        <ele>33.78</ele>
        <time>2015-09-06T07:48:16Z</time>
      </trkpt>
      <trkpt lat="47.81885" lon="-3.43208">
        <ele>33.78</ele>
        <time>2015-09-06T07:48:17Z</time>
      </trkpt>
      <trkpt lat="47.81883" lon="-3.43209">
        <ele>33.78</ele>
        <time>2015-09-06T07:48:18Z</time>
      </trkpt>
      <trkpt lat="47.8188" lon="-3.4321">
        <ele>33.78</ele>
        <time>2015-09-06T07:48:19Z</time>
      </trkpt>
      <trkpt lat="47.81878" lon="-3.43211">
        <ele>34.26</ele>
        <time>2015-09-06T07:48:20Z</time>
      </trkpt>
      <trkpt lat="47.81876" lon="-3.43213">
        <ele>34.26</ele>
        <time>2015-09-06T07:48:21Z</time>
      </trkpt>
      <trkpt lat="47.81873" lon="-3.43214">
        <ele>34.26</ele>
        <time>2015-09-06T07:48:22Z</time>
      </trkpt>
      <trkpt lat="47.81871" lon="-3.43216">
        <ele>34.74</ele>
        <time>2015-09-06T07:48:23Z</time>
      </trkpt>
      <trkpt lat="47.81869" lon="-3.43218">
        <ele>34.74</ele>
        <time>2015-09-06T07:48:24Z</time>
      </trkpt>
      <trkpt lat="47.81866" lon="-3.43221">
        <ele>34.74</ele>
        <time>2015-09-06T07:48:25Z</time>
      </trkpt>
      <trkpt lat="47.81864" lon="-3.43223">
        <ele>35.23</ele>
        <time>2015-09-06T07:48:26Z</time>
      </trkpt>
      <trkpt lat="47.81862" lon="-3.43225">
        <ele>35.23</ele>
        <time>2015-09-06T07:48:27Z</time>
      </trkpt>
      <trkpt lat="47.81859" lon="-3.43227">
        <ele>35.23</ele>
        <time>2015-09-06T07:48:28Z</time>
      </trkpt>
      <trkpt lat="47.81857" lon="-3.43229">
        <ele>35.71</ele>
        <time>2015-09-06T07:48:29Z</time>
      </trkpt>
      <trkpt lat="47.81855" lon="-3.43232">
        <ele>35.71</ele>
        <time>2015-09-06T07:48:30Z</time>
      </trkpt>
      <trkpt lat="47.81853" lon="-3.43234">
        <ele>35.71</ele>
        <time>2015-09-06T07:48:31Z</time>
      </trkpt>
      <trkpt lat="47.8185" lon="-3.43237">
        <ele>35.71</ele>
        <time>2015-09-06T07:48:32Z</time>
      </trkpt>
      <trkpt lat="47.81848" lon="-3.43239">
        <ele>36.67</ele>
        <time>2015-09-06T07:48:33Z</time>
      </trkpt>
      <trkpt lat="47.81845" lon="-3.43243">
        <ele>36.67</ele>
        <time>2015-09-06T07:48:34Z</time>
      </trkpt>
      <trkpt lat="47.81842" lon="-3.43245">
        <ele>36.67</ele>
        <time>2015-09-06T07:48:35Z</time>
      </trkpt>
      <trkpt lat="47.81839" lon="-3.43247">
        <ele>37.15</ele>
        <time>2015-09-06T07:48:36Z</time>
      </trkpt>
      <trkpt lat="47.81837" lon="-3.43249">
        <ele>37.15</ele>
        <time>2015-09-06T07:48:37Z</time>
      </trkpt>
      <trkpt lat="47.81835" lon="-3.43252">
        <ele>37.15</ele>
        <time>2015-09-06T07:48:38Z</time>
      </trkpt>
      <trkpt lat="47.81832" lon="-3.43254">
        <ele>37.63</ele>
        <time>2015-09-06T07:48:39Z</time>
      </trkpt>
      <trkpt lat="47.81831" lon="-3.43256">
        <ele>37.63</ele>
        <time>2015-09-06T07:48:40Z</time>
      </trkpt>
      <trkpt lat="47.81829" lon="-3.43258">
        <ele>37.63</ele>
        <time>2015-09-06T07:48:41Z</time>
      </trkpt>
      <trkpt lat="47.81827" lon="-3.4326">
        <ele>38.11</ele>
        <time>2015-09-06T07:48:42Z</time>
      </trkpt>
      <trkpt lat="47.81826" lon="-3.43262">
        <ele>38.11</ele>
        <time>2015-09-06T07:48:43Z</time>
      </trkpt>
      <trkpt lat="47.81824" lon="-3.43264">
        <ele>38.11</ele>
        <time>2015-09-06T07:48:44Z</time>
      </trkpt>
      <trkpt lat="47.81823" lon="-3.43267">
        <ele>39.07</ele>
        <time>2015-09-06T07:48:45Z</time>
      </trkpt>
      <trkpt lat="47.81822" lon="-3.43269">
        <ele>39.07</ele>
        <time>2015-09-06T07:48:46Z</time>
      </trkpt>
      <trkpt lat="47.8182" lon="-3.43271">
        <ele>39.55</ele>
        <time>2015-09-06T07:48:47Z</time>
      </trkpt>
      <trkpt lat="47.81819" lon="-3.43273">
        <ele>39.55</ele>
        <time>2015-09-06T07:48:48Z</time>
      </trkpt>
      <trkpt lat="47.81817" lon="-3.43275">
        <ele>39.55</ele>
        <time>2015-09-06T07:48:49Z</time>
      </trkpt>
      <trkpt lat="47.81816" lon="-3.43278">
        <ele>40.03</ele>
        <time>2015-09-06T07:48:50Z</time>
      </trkpt>
      <trkpt lat="47.81814" lon="-3.4328">
        <ele>40.03</ele>
        <time>2015-09-06T07:48:51Z</time>
      </trkpt>
      <trkpt lat="47.81813" lon="-3.43282">
        <ele>40.51</ele>
        <time>2015-09-06T07:48:52Z</time>
      </trkpt>
      <trkpt lat="47.81812" lon="-3.43284">
        <ele>40.51</ele>
        <time>2015-09-06T07:48:53Z</time>
      </trkpt>
      <trkpt lat="47.8181" lon="-3.43286">
        <ele>40.51</ele>
        <time>2015-09-06T07:48:54Z</time>
      </trkpt>
      <trkpt lat="47.81809" lon="-3.43289">
        <ele>40.51</ele>
        <time>2015-09-06T07:48:55Z</time>
      </trkpt>
      <trkpt lat="47.81808" lon="-3.43292">
        <ele>40.51</ele>
        <time>2015-09-06T07:48:56Z</time>
      </trkpt>
      <trkpt lat="47.81807" lon="-3.43294">
        <ele>40.99</ele>
        <time>2015-09-06T07:48:57Z</time>
      </trkpt>
      <trkpt lat="47.81806" lon="-3.43296">
        <ele>40.99</ele>
        <time>2015-09-06T07:48:58Z</time>
      </trkpt>
      <trkpt lat="47.81805" lon="-3.43298">
        <ele>40.99</ele>
        <time>2015-09-06T07:48:59Z</time>
      </trkpt>
      <trkpt lat="47.81803" lon="-3.433">
        <ele>40.99</ele>
        <time>2015-09-06T07:49:00Z</time>
      </trkpt>
      <trkpt lat="47.81801" lon="-3.43302">
        <ele>40.99</ele>
        <time>2015-09-06T07:49:01Z</time>
      </trkpt>
      <trkpt lat="47.81799" lon="-3.43304">
        <ele>41.47</ele>
        <time>2015-09-06T07:49:02Z</time>
      </trkpt>
      <trkpt lat="47.81796" lon="-3.43306">
        <ele>41.47</ele>
        <time>2015-09-06T07:49:03Z</time>
      </trkpt>
      <trkpt lat="47.81794" lon="-3.43307">
        <ele>41.47</ele>
        <time>2015-09-06T07:49:04Z</time>
      </trkpt>
      <trkpt lat="47.81791" lon="-3.4331">
        <ele>41.47</ele>
        <time>2015-09-06T07:49:05Z</time>
      </trkpt>
      <trkpt lat="47.81787" lon="-3.43312">
        <ele>41.47</ele>
        <time>2015-09-06T07:49:06Z</time>
      </trkpt>
      <trkpt lat="47.81785" lon="-3.43313">
        <ele>41.47</ele>
        <time>2015-09-06T07:49:07Z</time>
      </trkpt>
      <trkpt lat="47.81782" lon="-3.43315">
        <ele>41.47</ele>
        <time>2015-09-06T07:49:08Z</time>
      </trkpt>
      <trkpt lat="47.81779" lon="-3.43316">
        <ele>41.47</ele>
        <time>2015-09-06T07:49:09Z</time>
      </trkpt>
      <trkpt lat="47.81776" lon="-3.43318">
        <ele>41.47</ele>
        <time>2015-09-06T07:49:10Z</time>
      </trkpt>
      <trkpt lat="47.81773" lon="-3.43319">
        <ele>41.47</ele>
        <time>2015-09-06T07:49:11Z</time>
      </trkpt>
      <trkpt lat="47.8177" lon="-3.4332">
        <ele>41.47</ele>
        <time>2015-09-06T07:49:12Z</time>
      </trkpt>
      <trkpt lat="47.81766" lon="-3.43321">
        <ele>41.95</ele>
        <time>2015-09-06T07:49:13Z</time>
      </trkpt>
      <trkpt lat="47.81763" lon="-3.43322">
        <ele>41.95</ele>
        <time>2015-09-06T07:49:14Z</time>
      </trkpt>
      <trkpt lat="47.8176" lon="-3.43323">
        <ele>41.95</ele>
        <time>2015-09-06T07:49:15Z</time>
      </trkpt>
      <trkpt lat="47.81756" lon="-3.43324">
        <ele>41.95</ele>
        <time>2015-09-06T07:49:16Z</time>
      </trkpt>
      <trkpt lat="47.81752" lon="-3.43325">
        <ele>41.95</ele>
        <time>2015-09-06T07:49:17Z</time>
      </trkpt>
      <trkpt lat="47.81748" lon="-3.43326">
        <ele>41.95</ele>
        <time>2015-09-06T07:49:18Z</time>
      </trkpt>
      <trkpt lat="47.81743" lon="-3.43328">
        <ele>41.95</ele>
        <time>2015-09-06T07:49:19Z</time>
      </trkpt>
      <trkpt lat="47.81739" lon="-3.43329">
        <ele>41.95</ele>
        <time>2015-09-06T07:49:20Z</time>
      </trkpt>
      <trkpt lat="47.81735" lon="-3.4333">
        <ele>41.95</ele>
        <time>2015-09-06T07:49:21Z</time>
      </trkpt>
      <trkpt lat="47.8173" lon="-3.43331">
        <ele>41.95</ele>
        <time>2015-09-06T07:49:22Z</time>
      </trkpt>
      <trkpt lat="47.81725" lon="-3.43333">
        <ele>41.95</ele>
        <time>2015-09-06T07:49:23Z</time>
      </trkpt>
      <trkpt lat="47.8172" lon="-3.43335">
        <ele>41.95</ele>
        <time>2015-09-06T07:49:24Z</time>
      </trkpt>
      <trkpt lat="47.81715" lon="-3.43337">
        <ele>41.95</ele>
        <time>2015-09-06T07:49:25Z</time>
      </trkpt>
      <trkpt lat="47.8171" lon="-3.43339">
        <ele>41.95</ele>
        <time>2015-09-06T07:49:26Z</time>
      </trkpt>
      <trkpt lat="47.81705" lon="-3.43341">
        <ele>41.95</ele>
        <time>2015-09-06T07:49:27Z</time>
      </trkpt>
      <trkpt lat="47.81701" lon="-3.43343">
        <ele>41.95</ele>
        <time>2015-09-06T07:49:28Z</time>
      </trkpt>
      <trkpt lat="47.81696" lon="-3.43344">
        <ele>41.95</ele>
        <time>2015-09-06T07:49:29Z</time>
      </trkpt>
      <trkpt lat="47.81692" lon="-3.43346">
        <ele>41.95</ele>
        <time>2015-09-06T07:49:30Z</time>
      </trkpt>
      <trkpt lat="47.81687" lon="-3.43348">
        <ele>41.95</ele>
        <time>2015-09-06T07:49:31Z</time>
      </trkpt>
      <trkpt lat="47.81682" lon="-3.4335">
        <ele>41.95</ele>
        <time>2015-09-06T07:49:32Z</time>
      </trkpt>
      <trkpt lat="47.81678" lon="-3.43351">
        <ele>41.95</ele>
        <time>2015-09-06T07:49:33Z</time>
      </trkpt>
      <trkpt lat="47.81673" lon="-3.43353">
        <ele>41.95</ele>
        <time>2015-09-06T07:49:34Z</time>
      </trkpt>
      <trkpt lat="47.81669" lon="-3.43355">
        <ele>41.95</ele>
        <time>2015-09-06T07:49:35Z</time>
      </trkpt>
      <trkpt lat="47.81664" lon="-3.43357">
        <ele>41.95</ele>
        <time>2015-09-06T07:49:36Z</time>
      </trkpt>
      <trkpt lat="47.8166" lon="-3.43359">
        <ele>41.95</ele>
        <time>2015-09-06T07:49:37Z</time>
      </trkpt>
      <trkpt lat="47.81655" lon="-3.43362">
        <ele>41.95</ele>
        <time>2015-09-06T07:49:38Z</time>
      </trkpt>
      <trkpt lat="47.81651" lon="-3.43364">
        <ele>41.95</ele>
        <time>2015-09-06T07:49:39Z</time>
      </trkpt>
      <trkpt lat="47.81647" lon="-3.43366">
        <ele>42.44</ele>
        <time>2015-09-06T07:49:40Z</time>
      </trkpt>
      <trkpt lat="47.81642" lon="-3.43368">
        <ele>42.44</ele>
        <time>2015-09-06T07:49:41Z</time>
      </trkpt>
      <trkpt lat="47.81638" lon="-3.4337">
        <ele>42.44</ele>
        <time>2015-09-06T07:49:42Z</time>
      </trkpt>
      <trkpt lat="47.81633" lon="-3.43372">
        <ele>42.44</ele>
        <time>2015-09-06T07:49:43Z</time>
      </trkpt>
      <trkpt lat="47.81629" lon="-3.43374">
        <ele>42.44</ele>
        <time>2015-09-06T07:49:44Z</time>
      </trkpt>
      <trkpt lat="47.81625" lon="-3.43376">
        <ele>42.44</ele>
        <time>2015-09-06T07:49:45Z</time>
      </trkpt>
      <trkpt lat="47.8162" lon="-3.43378">
        <ele>42.44</ele>
        <time>2015-09-06T07:49:46Z</time>
      </trkpt>
      <trkpt lat="47.81616" lon="-3.4338">
        <ele>42.44</ele>
        <time>2015-09-06T07:49:47Z</time>
      </trkpt>
      <trkpt lat="47.81611" lon="-3.43381">
        <ele>42.44</ele>
        <time>2015-09-06T07:49:48Z</time>
      </trkpt>
      <trkpt lat="47.81607" lon="-3.43383">
        <ele>43.4</ele>
        <time>2015-09-06T07:49:49Z</time>
      </trkpt>
      <trkpt lat="47.81602" lon="-3.43385">
        <ele>43.4</ele>
        <time>2015-09-06T07:49:50Z</time>
      </trkpt>
      <trkpt lat="47.81598" lon="-3.43387">
        <ele>43.4</ele>
        <time>2015-09-06T07:49:51Z</time>
      </trkpt>
      <trkpt lat="47.81593" lon="-3.43389">
        <ele>43.4</ele>
        <time>2015-09-06T07:49:52Z</time>
      </trkpt>
      <trkpt lat="47.81589" lon="-3.43391">
        <ele>42.92</ele>
        <time>2015-09-06T07:49:53Z</time>
      </trkpt>
      <trkpt lat="47.81585" lon="-3.43392">
        <ele>42.92</ele>
        <time>2015-09-06T07:49:54Z</time>
      </trkpt>
      <trkpt lat="47.8158" lon="-3.43394">
        <ele>42.92</ele>
        <time>2015-09-06T07:49:55Z</time>
      </trkpt>
      <trkpt lat="47.81576" lon="-3.43396">
        <ele>42.92</ele>
        <time>2015-09-06T07:49:56Z</time>
      </trkpt>
      <trkpt lat="47.81572" lon="-3.43398">
        <ele>42.92</ele>
        <time>2015-09-06T07:49:57Z</time>
      </trkpt>
      <trkpt lat="47.81568" lon="-3.434">
        <ele>42.92</ele>
        <time>2015-09-06T07:49:58Z</time>
      </trkpt>
      <trkpt lat="47.81565" lon="-3.43401">
        <ele>42.92</ele>
        <time>2015-09-06T07:49:59Z</time>
      </trkpt>
      <trkpt lat="47.81562" lon="-3.43403">
        <ele>42.92</ele>
        <time>2015-09-06T07:50:00Z</time>
      </trkpt>
      <trkpt lat="47.81561" lon="-3.43406">
        <ele>41.95</ele>
        <time>2015-09-06T07:50:01Z</time>
      </trkpt>
      <trkpt lat="47.81561" lon="-3.43408">
        <ele>41.95</ele>
        <time>2015-09-06T07:50:02Z</time>
      </trkpt>
      <trkpt lat="47.81563" lon="-3.43411">
        <ele>41.47</ele>
        <time>2015-09-06T07:50:03Z</time>
      </trkpt>
      <trkpt lat="47.81566" lon="-3.43413">
        <ele>41.47</ele>
        <time>2015-09-06T07:50:04Z</time>
      </trkpt>
      <trkpt lat="47.8157" lon="-3.43414">
        <ele>40.99</ele>
        <time>2015-09-06T07:50:05Z</time>
      </trkpt>
      <trkpt lat="47.81574" lon="-3.43414">
        <ele>40.99</ele>
        <time>2015-09-06T07:50:06Z</time>
      </trkpt>
      <trkpt lat="47.81578" lon="-3.43416">
        <ele>40.03</ele>
        <time>2015-09-06T07:50:07Z</time>
      </trkpt>
      <trkpt lat="47.81583" lon="-3.43418">
        <ele>40.03</ele>
        <time>2015-09-06T07:50:08Z</time>
      </trkpt>
      <trkpt lat="47.81587" lon="-3.43421">
        <ele>39.55</ele>
        <time>2015-09-06T07:50:09Z</time>
      </trkpt>
      <trkpt lat="47.81592" lon="-3.43424">
        <ele>39.55</ele>
        <time>2015-09-06T07:50:10Z</time>
      </trkpt>
      <trkpt lat="47.81597" lon="-3.43427">
        <ele>39.07</ele>
        <time>2015-09-06T07:50:11Z</time>
      </trkpt>
      <trkpt lat="47.81603" lon="-3.43431">
        <ele>38.59</ele>
        <time>2015-09-06T07:50:12Z</time>
      </trkpt>
      <trkpt lat="47.81608" lon="-3.43434">
        <ele>38.59</ele>
        <time>2015-09-06T07:50:13Z</time>
      </trkpt>
      <trkpt lat="47.81614" lon="-3.43437">
        <ele>38.11</ele>
        <time>2015-09-06T07:50:14Z</time>
      </trkpt>
      <trkpt lat="47.8162" lon="-3.43441">
        <ele>38.11</ele>
        <time>2015-09-06T07:50:15Z</time>
      </trkpt>
      <trkpt lat="47.81625" lon="-3.43445">
        <ele>37.15</ele>
        <time>2015-09-06T07:50:16Z</time>
      </trkpt>
      <trkpt lat="47.81631" lon="-3.43449">
        <ele>36.67</ele>
        <time>2015-09-06T07:50:17Z</time>
      </trkpt>
      <trkpt lat="47.81638" lon="-3.43453">
        <ele>36.19</ele>
        <time>2015-09-06T07:50:18Z</time>
      </trkpt>
      <trkpt lat="47.81644" lon="-3.43456">
        <ele>36.19</ele>
        <time>2015-09-06T07:50:19Z</time>
      </trkpt>
      <trkpt lat="47.81651" lon="-3.4346">
        <ele>35.23</ele>
        <time>2015-09-06T07:50:20Z</time>
      </trkpt>
      <trkpt lat="47.81657" lon="-3.43464">
        <ele>34.74</ele>
        <time>2015-09-06T07:50:21Z</time>
      </trkpt>
      <trkpt lat="47.81663" lon="-3.43468">
        <ele>34.74</ele>
        <time>2015-09-06T07:50:22Z</time>
      </trkpt>
      <trkpt lat="47.8167" lon="-3.43473">
        <ele>34.26</ele>
        <time>2015-09-06T07:50:23Z</time>
      </trkpt>
      <trkpt lat="47.81677" lon="-3.43477">
        <ele>33.78</ele>
        <time>2015-09-06T07:50:24Z</time>
      </trkpt>
      <trkpt lat="47.81684" lon="-3.43481">
        <ele>33.78</ele>
        <time>2015-09-06T07:50:25Z</time>
      </trkpt>
      <trkpt lat="47.81691" lon="-3.43485">
        <ele>33.3</ele>
        <time>2015-09-06T07:50:26Z</time>
      </trkpt>
      <trkpt lat="47.81698" lon="-3.4349">
        <ele>32.82</ele>
        <time>2015-09-06T07:50:27Z</time>
      </trkpt>
      <trkpt lat="47.81704" lon="-3.43494">
        <ele>32.82</ele>
        <time>2015-09-06T07:50:28Z</time>
      </trkpt>
      <trkpt lat="47.81711" lon="-3.43498">
        <ele>32.34</ele>
        <time>2015-09-06T07:50:29Z</time>
      </trkpt>
      <trkpt lat="47.81717" lon="-3.43502">
        <ele>32.34</ele>
        <time>2015-09-06T07:50:30Z</time>
      </trkpt>
      <trkpt lat="47.81725" lon="-3.43506">
        <ele>31.86</ele>
        <time>2015-09-06T07:50:31Z</time>
      </trkpt>
      <trkpt lat="47.81731" lon="-3.43509">
        <ele>31.86</ele>
        <time>2015-09-06T07:50:32Z</time>
      </trkpt>
      <trkpt lat="47.81738" lon="-3.43513">
        <ele>31.38</ele>
        <time>2015-09-06T07:50:33Z</time>
      </trkpt>
      <trkpt lat="47.81745" lon="-3.43517">
        <ele>31.38</ele>
        <time>2015-09-06T07:50:34Z</time>
      </trkpt>
      <trkpt lat="47.81751" lon="-3.43521">
        <ele>30.9</ele>
        <time>2015-09-06T07:50:35Z</time>
      </trkpt>
      <trkpt lat="47.81758" lon="-3.43524">
        <ele>30.9</ele>
        <time>2015-09-06T07:50:36Z</time>
      </trkpt>
      <trkpt lat="47.81765" lon="-3.43527">
        <ele>30.9</ele>
        <time>2015-09-06T07:50:37Z</time>
      </trkpt>
      <trkpt lat="47.81772" lon="-3.43528">
        <ele>30.42</ele>
        <time>2015-09-06T07:50:38Z</time>
      </trkpt>
      <trkpt lat="47.81778" lon="-3.43529">
        <ele>30.42</ele>
        <time>2015-09-06T07:50:39Z</time>
      </trkpt>
      <trkpt lat="47.81785" lon="-3.4353">
        <ele>30.42</ele>
        <time>2015-09-06T07:50:40Z</time>
      </trkpt>
      <trkpt lat="47.81791" lon="-3.43532">
        <ele>29.94</ele>
        <time>2015-09-06T07:50:41Z</time>
      </trkpt>
      <trkpt lat="47.81797" lon="-3.43535">
        <ele>29.94</ele>
        <time>2015-09-06T07:50:42Z</time>
      </trkpt>
      <trkpt lat="47.818" lon="-3.43541">
        <ele>29.94</ele>
        <time>2015-09-06T07:50:43Z</time>
      </trkpt>
      <trkpt lat="47.81802" lon="-3.4355">
        <ele>29.94</ele>
        <time>2015-09-06T07:50:44Z</time>
      </trkpt>
      <trkpt lat="47.81803" lon="-3.43557">
        <ele>29.94</ele>
        <time>2015-09-06T07:50:45Z</time>
      </trkpt>
      <trkpt lat="47.81804" lon="-3.43564">
        <ele>29.94</ele>
        <time>2015-09-06T07:50:46Z</time>
      </trkpt>
      <trkpt lat="47.81805" lon="-3.43571">
        <ele>29.94</ele>
        <time>2015-09-06T07:50:47Z</time>
      </trkpt>
      <trkpt lat="47.81806" lon="-3.43579">
        <ele>31.38</ele>
        <time>2015-09-06T07:50:48Z</time>
      </trkpt>
      <trkpt lat="47.81807" lon="-3.43586">
        <ele>31.38</ele>
        <time>2015-09-06T07:50:49Z</time>
      </trkpt>
      <trkpt lat="47.81807" lon="-3.43593">
        <ele>31.86</ele>
        <time>2015-09-06T07:50:50Z</time>
      </trkpt>
      <trkpt lat="47.81808" lon="-3.436">
        <ele>32.34</ele>
        <time>2015-09-06T07:50:51Z</time>
      </trkpt>
      <trkpt lat="47.81809" lon="-3.43606">
        <ele>32.34</ele>
        <time>2015-09-06T07:50:52Z</time>
      </trkpt>
      <trkpt lat="47.8181" lon="-3.43614">
        <ele>32.82</ele>
        <time>2015-09-06T07:50:53Z</time>
      </trkpt>
      <trkpt lat="47.81811" lon="-3.4362">
        <ele>32.82</ele>
        <time>2015-09-06T07:50:54Z</time>
      </trkpt>
      <trkpt lat="47.81812" lon="-3.43627">
        <ele>32.82</ele>
        <time>2015-09-06T07:50:55Z</time>
      </trkpt>
      <trkpt lat="47.81813" lon="-3.43634">
        <ele>33.3</ele>
        <time>2015-09-06T07:50:56Z</time>
      </trkpt>
      <trkpt lat="47.81813" lon="-3.43641">
        <ele>33.3</ele>
        <time>2015-09-06T07:50:57Z</time>
      </trkpt>
      <trkpt lat="47.81814" lon="-3.43648">
        <ele>33.3</ele>
        <time>2015-09-06T07:50:58Z</time>
      </trkpt>
      <trkpt lat="47.81815" lon="-3.43655">
        <ele>33.78</ele>
        <time>2015-09-06T07:50:59Z</time>
      </trkpt>
      <trkpt lat="47.81816" lon="-3.43661">
        <ele>33.78</ele>
        <time>2015-09-06T07:51:00Z</time>
      </trkpt>
      <trkpt lat="47.81817" lon="-3.43668">
        <ele>33.78</ele>
        <time>2015-09-06T07:51:01Z</time>
      </trkpt>
      <trkpt lat="47.81817" lon="-3.43675">
        <ele>33.78</ele>
        <time>2015-09-06T07:51:02Z</time>
      </trkpt>
      <trkpt lat="47.81818" lon="-3.43682">
        <ele>34.26</ele>
        <time>2015-09-06T07:51:03Z</time>
      </trkpt>
      <trkpt lat="47.81819" lon="-3.43689">
        <ele>34.26</ele>
        <time>2015-09-06T07:51:04Z</time>
      </trkpt>
      <trkpt lat="47.8182" lon="-3.43696">
        <ele>34.26</ele>
        <time>2015-09-06T07:51:05Z</time>
      </trkpt>
      <trkpt lat="47.81821" lon="-3.43702">
        <ele>34.74</ele>
        <time>2015-09-06T07:51:06Z</time>
      </trkpt>
      <trkpt lat="47.81822" lon="-3.43709">
        <ele>35.23</ele>
        <time>2015-09-06T07:51:07Z</time>
      </trkpt>
      <trkpt lat="47.81822" lon="-3.43716">
        <ele>35.23</ele>
        <time>2015-09-06T07:51:08Z</time>
      </trkpt>
      <trkpt lat="47.81823" lon="-3.43722">
        <ele>35.71</ele>
        <time>2015-09-06T07:51:09Z</time>
      </trkpt>
      <trkpt lat="47.81824" lon="-3.43728">
        <ele>35.71</ele>
        <time>2015-09-06T07:51:10Z</time>
      </trkpt>
      <trkpt lat="47.81825" lon="-3.43734">
        <ele>36.19</ele>
        <time>2015-09-06T07:51:11Z</time>
      </trkpt>
      <trkpt lat="47.81824" lon="-3.4374">
        <ele>36.19</ele>
        <time>2015-09-06T07:51:12Z</time>
      </trkpt>
      <trkpt lat="47.81824" lon="-3.43747">
        <ele>36.67</ele>
        <time>2015-09-06T07:51:13Z</time>
      </trkpt>
      <trkpt lat="47.81823" lon="-3.43753">
        <ele>36.67</ele>
        <time>2015-09-06T07:51:14Z</time>
      </trkpt>
      <trkpt lat="47.81821" lon="-3.43759">
        <ele>36.67</ele>
        <time>2015-09-06T07:51:15Z</time>
      </trkpt>
      <trkpt lat="47.81819" lon="-3.43765">
        <ele>36.67</ele>
        <time>2015-09-06T07:51:16Z</time>
      </trkpt>
      <trkpt lat="47.81817" lon="-3.43771">
        <ele>36.67</ele>
        <time>2015-09-06T07:51:17Z</time>
      </trkpt>
      <trkpt lat="47.81816" lon="-3.43778">
        <ele>37.15</ele>
        <time>2015-09-06T07:51:18Z</time>
      </trkpt>
      <trkpt lat="47.81814" lon="-3.43784">
        <ele>37.15</ele>
        <time>2015-09-06T07:51:19Z</time>
      </trkpt>
      <trkpt lat="47.81812" lon="-3.4379">
        <ele>37.15</ele>
        <time>2015-09-06T07:51:20Z</time>
      </trkpt>
      <trkpt lat="47.8181" lon="-3.43797">
        <ele>37.15</ele>
        <time>2015-09-06T07:51:21Z</time>
      </trkpt>
      <trkpt lat="47.81808" lon="-3.43803">
        <ele>37.15</ele>
        <time>2015-09-06T07:51:22Z</time>
      </trkpt>
      <trkpt lat="47.81806" lon="-3.4381">
        <ele>37.15</ele>
        <time>2015-09-06T07:51:23Z</time>
      </trkpt>
      <trkpt lat="47.81804" lon="-3.43816">
        <ele>37.63</ele>
        <time>2015-09-06T07:51:24Z</time>
      </trkpt>
      <trkpt lat="47.81802" lon="-3.43822">
        <ele>37.63</ele>
        <time>2015-09-06T07:51:25Z</time>
      </trkpt>
      <trkpt lat="47.818" lon="-3.43828">
        <ele>37.63</ele>
        <time>2015-09-06T07:51:26Z</time>
      </trkpt>
      <trkpt lat="47.81798" lon="-3.43835">
        <ele>37.63</ele>
        <time>2015-09-06T07:51:27Z</time>
      </trkpt>
      <trkpt lat="47.81797" lon="-3.43841">
        <ele>38.11</ele>
        <time>2015-09-06T07:51:28Z</time>
      </trkpt>
      <trkpt lat="47.81795" lon="-3.43847">
        <ele>38.11</ele>
        <time>2015-09-06T07:51:29Z</time>
      </trkpt>
      <trkpt lat="47.81793" lon="-3.43853">
        <ele>38.59</ele>
        <time>2015-09-06T07:51:30Z</time>
      </trkpt>
      <trkpt lat="47.81791" lon="-3.43859">
        <ele>38.59</ele>
        <time>2015-09-06T07:51:31Z</time>
      </trkpt>
      <trkpt lat="47.81789" lon="-3.43865">
        <ele>38.59</ele>
        <time>2015-09-06T07:51:32Z</time>
      </trkpt>
      <trkpt lat="47.81788" lon="-3.43871">
        <ele>38.59</ele>
        <time>2015-09-06T07:51:33Z</time>
      </trkpt>
      <trkpt lat="47.81786" lon="-3.43877">
        <ele>38.59</ele>
        <time>2015-09-06T07:51:34Z</time>
      </trkpt>
      <trkpt lat="47.81784" lon="-3.43883">
        <ele>39.07</ele>
        <time>2015-09-06T07:51:35Z</time>
      </trkpt>
      <trkpt lat="47.81782" lon="-3.43888">
        <ele>39.07</ele>
        <time>2015-09-06T07:51:36Z</time>
      </trkpt>
      <trkpt lat="47.8178" lon="-3.43894">
        <ele>39.07</ele>
        <time>2015-09-06T07:51:37Z</time>
      </trkpt>
      <trkpt lat="47.81778" lon="-3.439">
        <ele>39.07</ele>
        <time>2015-09-06T07:51:38Z</time>
      </trkpt>
      <trkpt lat="47.81776" lon="-3.43906">
        <ele>39.55</ele>
        <time>2015-09-06T07:51:39Z</time>
      </trkpt>
      <trkpt lat="47.81775" lon="-3.43912">
        <ele>39.55</ele>
        <time>2015-09-06T07:51:40Z</time>
      </trkpt>
      <trkpt lat="47.81773" lon="-3.43917">
        <ele>39.55</ele>
        <time>2015-09-06T07:51:41Z</time>
      </trkpt>
      <trkpt lat="47.81771" lon="-3.43923">
        <ele>40.03</ele>
        <time>2015-09-06T07:51:42Z</time>
      </trkpt>
      <trkpt lat="47.81769" lon="-3.4393">
        <ele>40.03</ele>
        <time>2015-09-06T07:51:43Z</time>
      </trkpt>
      <trkpt lat="47.81767" lon="-3.43935">
        <ele>40.03</ele>
        <time>2015-09-06T07:51:44Z</time>
      </trkpt>
      <trkpt lat="47.81766" lon="-3.43941">
        <ele>40.03</ele>
        <time>2015-09-06T07:51:45Z</time>
      </trkpt>
      <trkpt lat="47.81764" lon="-3.43947">
        <ele>40.03</ele>
        <time>2015-09-06T07:51:46Z</time>
      </trkpt>
      <trkpt lat="47.81762" lon="-3.43954">
        <ele>40.03</ele>
        <time>2015-09-06T07:51:47Z</time>
      </trkpt>
      <trkpt lat="47.8176" lon="-3.4396">
        <ele>40.03</ele>
        <time>2015-09-06T07:51:48Z</time>
      </trkpt>
      <trkpt lat="47.81758" lon="-3.43966">
        <ele>40.03</ele>
        <time>2015-09-06T07:51:49Z</time>
      </trkpt>
      <trkpt lat="47.81756" lon="-3.43973">
        <ele>40.03</ele>
        <time>2015-09-06T07:51:50Z</time>
      </trkpt>
      <trkpt lat="47.81754" lon="-3.43979">
        <ele>40.03</ele>
        <time>2015-09-06T07:51:51Z</time>
      </trkpt>
      <trkpt lat="47.81752" lon="-3.43985">
        <ele>40.03</ele>
        <time>2015-09-06T07:51:52Z</time>
      </trkpt>
      <trkpt lat="47.8175" lon="-3.43992">
        <ele>40.03</ele>
        <time>2015-09-06T07:51:53Z</time>
      </trkpt>
      <trkpt lat="47.81748" lon="-3.43998">
        <ele>40.03</ele>
        <time>2015-09-06T07:51:54Z</time>
      </trkpt>
      <trkpt lat="47.81746" lon="-3.44004">
        <ele>40.51</ele>
        <time>2015-09-06T07:51:55Z</time>
      </trkpt>
      <trkpt lat="47.81744" lon="-3.44011">
        <ele>40.51</ele>
        <time>2015-09-06T07:51:56Z</time>
      </trkpt>
      <trkpt lat="47.81742" lon="-3.44017">
        <ele>40.51</ele>
        <time>2015-09-06T07:51:57Z</time>
      </trkpt>
      <trkpt lat="47.8174" lon="-3.44023">
        <ele>40.51</ele>
        <time>2015-09-06T07:51:58Z</time>
      </trkpt>
      <trkpt lat="47.81739" lon="-3.44029">
        <ele>40.51</ele>
        <time>2015-09-06T07:51:59Z</time>
      </trkpt>
      <trkpt lat="47.81738" lon="-3.44036">
        <ele>40.51</ele>
        <time>2015-09-06T07:52:00Z</time>
      </trkpt>
      <trkpt lat="47.81738" lon="-3.44042">
        <ele>40.51</ele>
        <time>2015-09-06T07:52:01Z</time>
      </trkpt>
      <trkpt lat="47.81739" lon="-3.44048">
        <ele>40.51</ele>
        <time>2015-09-06T07:52:02Z</time>
      </trkpt>
      <trkpt lat="47.81741" lon="-3.44054">
        <ele>40.99</ele>
        <time>2015-09-06T07:52:03Z</time>
      </trkpt>
      <trkpt lat="47.81744" lon="-3.44057">
        <ele>40.99</ele>
        <time>2015-09-06T07:52:04Z</time>
      </trkpt>
      <trkpt lat="47.81747" lon="-3.4406">
        <ele>40.99</ele>
        <time>2015-09-06T07:52:05Z</time>
      </trkpt>
      <trkpt lat="47.81751" lon="-3.44062">
        <ele>40.99</ele>
        <time>2015-09-06T07:52:06Z</time>
      </trkpt>
      <trkpt lat="47.81755" lon="-3.44065">
        <ele>40.99</ele>
        <time>2015-09-06T07:52:07Z</time>
      </trkpt>
      <trkpt lat="47.81759" lon="-3.44067">
        <ele>40.99</ele>
        <time>2015-09-06T07:52:08Z</time>
      </trkpt>
      <trkpt lat="47.81763" lon="-3.4407">
        <ele>41.95</ele>
        <time>2015-09-06T07:52:09Z</time>
      </trkpt>
      <trkpt lat="47.81767" lon="-3.44073">
        <ele>41.95</ele>
        <time>2015-09-06T07:52:10Z</time>
      </trkpt>
      <trkpt lat="47.81771" lon="-3.44075">
        <ele>41.95</ele>
        <time>2015-09-06T07:52:11Z</time>
      </trkpt>
      <trkpt lat="47.81775" lon="-3.44078">
        <ele>41.95</ele>
        <time>2015-09-06T07:52:12Z</time>
      </trkpt>
      <trkpt lat="47.81779" lon="-3.44081">
        <ele>41.95</ele>
        <time>2015-09-06T07:52:13Z</time>
      </trkpt>
      <trkpt lat="47.81783" lon="-3.44084">
        <ele>41.95</ele>
        <time>2015-09-06T07:52:14Z</time>
      </trkpt>
      <trkpt lat="47.81787" lon="-3.44087">
        <ele>41.95</ele>
        <time>2015-09-06T07:52:15Z</time>
      </trkpt>
      <trkpt lat="47.81791" lon="-3.44089">
        <ele>41.95</ele>
        <time>2015-09-06T07:52:16Z</time>
      </trkpt>
      <trkpt lat="47.81795" lon="-3.44092">
        <ele>42.44</ele>
        <time>2015-09-06T07:52:17Z</time>
      </trkpt>
      <trkpt lat="47.818" lon="-3.44095">
        <ele>42.44</ele>
        <time>2015-09-06T07:52:18Z</time>
      </trkpt>
      <trkpt lat="47.81804" lon="-3.44097">
        <ele>42.44</ele>
        <time>2015-09-06T07:52:19Z</time>
      </trkpt>
      <trkpt lat="47.81809" lon="-3.441">
        <ele>42.44</ele>
        <time>2015-09-06T07:52:20Z</time>
      </trkpt>
      <trkpt lat="47.81813" lon="-3.44103">
        <ele>42.44</ele>
        <time>2015-09-06T07:52:21Z</time>
      </trkpt>
      <trkpt lat="47.81818" lon="-3.44105">
        <ele>42.44</ele>
        <time>2015-09-06T07:52:22Z</time>
      </trkpt>
      <trkpt lat="47.81824" lon="-3.44108">
        <ele>42.44</ele>
        <time>2015-09-06T07:52:23Z</time>
      </trkpt>
      <trkpt lat="47.8183" lon="-3.44111">
        <ele>40.99</ele>
        <time>2015-09-06T07:52:24Z</time>
      </trkpt>
      <trkpt lat="47.81836" lon="-3.44114">
        <ele>40.99</ele>
        <time>2015-09-06T07:52:25Z</time>
      </trkpt>
      <trkpt lat="47.81842" lon="-3.44117">
        <ele>40.51</ele>
        <time>2015-09-06T07:52:26Z</time>
      </trkpt>
      <trkpt lat="47.8185" lon="-3.44121">
        <ele>39.55</ele>
        <time>2015-09-06T07:52:27Z</time>
      </trkpt>
      <trkpt lat="47.81858" lon="-3.44124">
        <ele>39.07</ele>
        <time>2015-09-06T07:52:28Z</time>
      </trkpt>
      <trkpt lat="47.81864" lon="-3.44126">
        <ele>38.59</ele>
        <time>2015-09-06T07:52:29Z</time>
      </trkpt>
      <trkpt lat="47.81874" lon="-3.4413">
        <ele>38.11</ele>
        <time>2015-09-06T07:52:30Z</time>
      </trkpt>
      <trkpt lat="47.81882" lon="-3.44131">
        <ele>37.15</ele>
        <time>2015-09-06T07:52:31Z</time>
      </trkpt>
      <trkpt lat="47.81889" lon="-3.44132">
        <ele>36.67</ele>
        <time>2015-09-06T07:52:32Z</time>
      </trkpt>
      <trkpt lat="47.81899" lon="-3.44134">
        <ele>36.19</ele>
        <time>2015-09-06T07:52:33Z</time>
      </trkpt>
      <trkpt lat="47.81908" lon="-3.44135">
        <ele>35.23</ele>
        <time>2015-09-06T07:52:34Z</time>
      </trkpt>
      <trkpt lat="47.81916" lon="-3.44136">
        <ele>34.74</ele>
        <time>2015-09-06T07:52:35Z</time>
      </trkpt>
      <trkpt lat="47.81927" lon="-3.44138">
        <ele>34.26</ele>
        <time>2015-09-06T07:52:36Z</time>
      </trkpt>
      <trkpt lat="47.81935" lon="-3.44138">
        <ele>33.3</ele>
        <time>2015-09-06T07:52:37Z</time>
      </trkpt>
      <trkpt lat="47.81944" lon="-3.44138">
        <ele>33.3</ele>
        <time>2015-09-06T07:52:38Z</time>
      </trkpt>
      <trkpt lat="47.81953" lon="-3.44137">
        <ele>32.82</ele>
        <time>2015-09-06T07:52:39Z</time>
      </trkpt>
      <trkpt lat="47.81959" lon="-3.44135">
        <ele>32.34</ele>
        <time>2015-09-06T07:52:40Z</time>
      </trkpt>
      <trkpt lat="47.81964" lon="-3.44135">
        <ele>32.34</ele>
        <time>2015-09-06T07:52:41Z</time>
      </trkpt>
      <trkpt lat="47.81967" lon="-3.44135">
        <ele>32.34</ele>
        <time>2015-09-06T07:52:42Z</time>
      </trkpt>
      <trkpt lat="47.8197" lon="-3.44136">
        <ele>32.34</ele>
        <time>2015-09-06T07:52:43Z</time>
      </trkpt>
      <trkpt lat="47.81972" lon="-3.44136">
        <ele>32.34</ele>
        <time>2015-09-06T07:52:44Z</time>
      </trkpt>
      <trkpt lat="47.81972" lon="-3.44137">
        <ele>32.34</ele>
        <time>2015-09-06T07:52:45Z</time>
      </trkpt>
      <trkpt lat="47.81972" lon="-3.44136">
        <ele>32.82</ele>
        <time>2015-09-06T07:52:46Z</time>
      </trkpt>
      <trkpt lat="47.81972" lon="-3.44137">
        <ele>32.82</ele>
        <time>2015-09-06T07:52:49Z</time>
      </trkpt>
      <trkpt lat="47.81971" lon="-3.44137">
        <ele>32.82</ele>
        <time>2015-09-06T07:52:50Z</time>
      </trkpt>
      <trkpt lat="47.81971" lon="-3.44137">
        <ele>32.82</ele>
        <time>2015-09-06T07:52:51Z</time>
      </trkpt>
      <trkpt lat="47.81968" lon="-3.4414">
        <ele>32.82</ele>
        <time>2015-09-06T07:53:50Z</time>
      </trkpt>
      <trkpt lat="47.81968" lon="-3.44139">
        <ele>32.82</ele>
        <time>2015-09-06T07:53:51Z</time>
      </trkpt>
      <trkpt lat="47.81969" lon="-3.44138">
        <ele>32.82</ele>
        <time>2015-09-06T07:53:52Z</time>
      </trkpt>
      <trkpt lat="47.81969" lon="-3.44137">
        <ele>32.82</ele>
        <time>2015-09-06T07:53:53Z</time>
      </trkpt>
      <trkpt lat="47.81969" lon="-3.44135">
        <ele>32.82</ele>
        <time>2015-09-06T07:53:54Z</time>
      </trkpt>
      <trkpt lat="47.81969" lon="-3.44134">
        <ele>32.82</ele>
        <time>2015-09-06T07:53:55Z</time>
      </trkpt>
      <trkpt lat="47.81968" lon="-3.44133">
        <ele>32.82</ele>
        <time>2015-09-06T07:53:56Z</time>
      </trkpt>
      <trkpt lat="47.81969" lon="-3.44132">
        <ele>32.82</ele>
        <time>2015-09-06T07:53:57Z</time>
      </trkpt>
      <trkpt lat="47.81969" lon="-3.44132">
        <ele>32.82</ele>
        <time>2015-09-06T07:53:58Z</time>
      </trkpt>
      <trkpt lat="47.81969" lon="-3.44131">
        <ele>32.82</ele>
        <time>2015-09-06T07:53:59Z</time>
      </trkpt>
      <trkpt lat="47.81969" lon="-3.44132">
        <ele>32.82</ele>
        <time>2015-09-06T07:54:00Z</time>
      </trkpt>
      <trkpt lat="47.81968" lon="-3.44132">
        <ele>32.82</ele>
        <time>2015-09-06T07:54:01Z</time>
      </trkpt>
      <trkpt lat="47.81969" lon="-3.44132">
        <ele>32.82</ele>
        <time>2015-09-06T07:54:02Z</time>
      </trkpt>
      <trkpt lat="47.81968" lon="-3.44133">
        <ele>32.82</ele>
        <time>2015-09-06T07:54:03Z</time>
      </trkpt>
      <trkpt lat="47.81967" lon="-3.44134">
        <ele>32.82</ele>
        <time>2015-09-06T07:54:04Z</time>
      </trkpt>
      <trkpt lat="47.81966" lon="-3.44135">
        <ele>32.82</ele>
        <time>2015-09-06T07:54:05Z</time>
      </trkpt>
      <trkpt lat="47.81965" lon="-3.44136">
        <ele>32.82</ele>
        <time>2015-09-06T07:54:06Z</time>
      </trkpt>
      <trkpt lat="47.81963" lon="-3.44138">
        <ele>32.82</ele>
        <time>2015-09-06T07:54:07Z</time>
      </trkpt>
      <trkpt lat="47.81962" lon="-3.44141">
        <ele>32.82</ele>
        <time>2015-09-06T07:54:08Z</time>
      </trkpt>
      <trkpt lat="47.81961" lon="-3.44147">
        <ele>32.82</ele>
        <time>2015-09-06T07:54:09Z</time>
      </trkpt>
      <trkpt lat="47.81962" lon="-3.44151">
        <ele>32.82</ele>
        <time>2015-09-06T07:54:10Z</time>
      </trkpt>
      <trkpt lat="47.81964" lon="-3.44155">
        <ele>32.34</ele>
        <time>2015-09-06T07:54:11Z</time>
      </trkpt>
      <trkpt lat="47.81966" lon="-3.4416">
        <ele>32.34</ele>
        <time>2015-09-06T07:54:12Z</time>
      </trkpt>
      <trkpt lat="47.81968" lon="-3.44167">
        <ele>32.34</ele>
        <time>2015-09-06T07:54:13Z</time>
      </trkpt>
      <trkpt lat="47.8197" lon="-3.44173">
        <ele>31.86</ele>
        <time>2015-09-06T07:54:14Z</time>
      </trkpt>
      <trkpt lat="47.81972" lon="-3.44181">
        <ele>31.38</ele>
        <time>2015-09-06T07:54:15Z</time>
      </trkpt>
      <trkpt lat="47.81972" lon="-3.4419">
        <ele>31.38</ele>
        <time>2015-09-06T07:54:16Z</time>
      </trkpt>
      <trkpt lat="47.81971" lon="-3.442">
        <ele>30.42</ele>
        <time>2015-09-06T07:54:17Z</time>
      </trkpt>
      <trkpt lat="47.81969" lon="-3.44211">
        <ele>30.42</ele>
        <time>2015-09-06T07:54:18Z</time>
      </trkpt>
      <trkpt lat="47.81967" lon="-3.44221">
        <ele>29.46</ele>
        <time>2015-09-06T07:54:19Z</time>
      </trkpt>
      <trkpt lat="47.81964" lon="-3.44231">
        <ele>29.46</ele>
        <time>2015-09-06T07:54:20Z</time>
      </trkpt>
      <trkpt lat="47.81961" lon="-3.44242">
        <ele>28.5</ele>
        <time>2015-09-06T07:54:21Z</time>
      </trkpt>
      <trkpt lat="47.81958" lon="-3.44252">
        <ele>28.5</ele>
        <time>2015-09-06T07:54:22Z</time>
      </trkpt>
      <trkpt lat="47.81955" lon="-3.44263">
        <ele>28.02</ele>
        <time>2015-09-06T07:54:23Z</time>
      </trkpt>
      <trkpt lat="47.81951" lon="-3.44274">
        <ele>28.02</ele>
        <time>2015-09-06T07:54:24Z</time>
      </trkpt>
      <trkpt lat="47.81949" lon="-3.44282">
        <ele>27.53</ele>
        <time>2015-09-06T07:54:25Z</time>
      </trkpt>
      <trkpt lat="47.81947" lon="-3.44289">
        <ele>27.53</ele>
        <time>2015-09-06T07:54:26Z</time>
      </trkpt>
      <trkpt lat="47.81945" lon="-3.44294">
        <ele>27.53</ele>
        <time>2015-09-06T07:54:27Z</time>
      </trkpt>
      <trkpt lat="47.81943" lon="-3.44298">
        <ele>27.05</ele>
        <time>2015-09-06T07:54:28Z</time>
      </trkpt>
      <trkpt lat="47.81941" lon="-3.44299">
        <ele>27.05</ele>
        <time>2015-09-06T07:54:29Z</time>
      </trkpt>
      <trkpt lat="47.8194" lon="-3.44298">
        <ele>27.05</ele>
        <time>2015-09-06T07:54:30Z</time>
      </trkpt>
      <trkpt lat="47.81939" lon="-3.44296">
        <ele>27.05</ele>
        <time>2015-09-06T07:54:31Z</time>
      </trkpt>
      <trkpt lat="47.81939" lon="-3.44293">
        <ele>27.05</ele>
        <time>2015-09-06T07:54:32Z</time>
      </trkpt>
      <trkpt lat="47.81939" lon="-3.44291">
        <ele>27.05</ele>
        <time>2015-09-06T07:54:33Z</time>
      </trkpt>
      <trkpt lat="47.81938" lon="-3.44288">
        <ele>26.57</ele>
        <time>2015-09-06T07:54:34Z</time>
      </trkpt>
      <trkpt lat="47.81937" lon="-3.44283">
        <ele>26.57</ele>
        <time>2015-09-06T07:54:35Z</time>
      </trkpt>
      <trkpt lat="47.81936" lon="-3.44278">
        <ele>26.57</ele>
        <time>2015-09-06T07:54:36Z</time>
      </trkpt>
      <trkpt lat="47.81935" lon="-3.44274">
        <ele>26.57</ele>
        <time>2015-09-06T07:54:37Z</time>
      </trkpt>
      <trkpt lat="47.81933" lon="-3.44271">
        <ele>26.57</ele>
        <time>2015-09-06T07:54:38Z</time>
      </trkpt>
      <trkpt lat="47.81932" lon="-3.44268">
        <ele>26.57</ele>
        <time>2015-09-06T07:54:39Z</time>
      </trkpt>
      <trkpt lat="47.8193" lon="-3.44265">
        <ele>26.57</ele>
        <time>2015-09-06T07:54:40Z</time>
      </trkpt>
      <trkpt lat="47.81928" lon="-3.44263">
        <ele>26.57</ele>
        <time>2015-09-06T07:54:41Z</time>
      </trkpt>
      <trkpt lat="47.81926" lon="-3.44261">
        <ele>26.57</ele>
        <time>2015-09-06T07:54:42Z</time>
      </trkpt>
      <trkpt lat="47.81924" lon="-3.4426">
        <ele>26.57</ele>
        <time>2015-09-06T07:54:43Z</time>
      </trkpt>
      <trkpt lat="47.81921" lon="-3.4426">
        <ele>26.57</ele>
        <time>2015-09-06T07:54:44Z</time>
      </trkpt>
      <trkpt lat="47.81918" lon="-3.4426">
        <ele>26.57</ele>
        <time>2015-09-06T07:54:45Z</time>
      </trkpt>
      <trkpt lat="47.81914" lon="-3.4426">
        <ele>26.57</ele>
        <time>2015-09-06T07:54:46Z</time>
      </trkpt>
      <trkpt lat="47.81911" lon="-3.44259">
        <ele>26.57</ele>
        <time>2015-09-06T07:54:47Z</time>
      </trkpt>
      <trkpt lat="47.81907" lon="-3.44259">
        <ele>26.57</ele>
        <time>2015-09-06T07:54:48Z</time>
      </trkpt>
      <trkpt lat="47.81904" lon="-3.44258">
        <ele>26.57</ele>
        <time>2015-09-06T07:54:49Z</time>
      </trkpt>
      <trkpt lat="47.81901" lon="-3.44258">
        <ele>26.57</ele>
        <time>2015-09-06T07:54:50Z</time>
      </trkpt>
      <trkpt lat="47.81898" lon="-3.44258">
        <ele>26.57</ele>
        <time>2015-09-06T07:54:51Z</time>
      </trkpt>
      <trkpt lat="47.81894" lon="-3.44258">
        <ele>26.57</ele>
        <time>2015-09-06T07:54:52Z</time>
      </trkpt>
      <trkpt lat="47.81891" lon="-3.44258">
        <ele>26.57</ele>
        <time>2015-09-06T07:54:53Z</time>
      </trkpt>
      <trkpt lat="47.81888" lon="-3.44259">
        <ele>26.57</ele>
        <time>2015-09-06T07:54:54Z</time>
      </trkpt>
      <trkpt lat="47.81884" lon="-3.44259">
        <ele>26.57</ele>
        <time>2015-09-06T07:54:55Z</time>
      </trkpt>
      <trkpt lat="47.8188" lon="-3.44261">
        <ele>26.57</ele>
        <time>2015-09-06T07:54:56Z</time>
      </trkpt>
      <trkpt lat="47.81877" lon="-3.44263">
        <ele>26.57</ele>
        <time>2015-09-06T07:54:57Z</time>
      </trkpt>
      <trkpt lat="47.81874" lon="-3.44266">
        <ele>26.57</ele>
        <time>2015-09-06T07:54:58Z</time>
      </trkpt>
      <trkpt lat="47.81871" lon="-3.44268">
        <ele>26.57</ele>
        <time>2015-09-06T07:54:59Z</time>
      </trkpt>
      <trkpt lat="47.81869" lon="-3.4427">
        <ele>26.57</ele>
        <time>2015-09-06T07:55:00Z</time>
      </trkpt>
      <trkpt lat="47.81867" lon="-3.44272">
        <ele>26.57</ele>
        <time>2015-09-06T07:55:01Z</time>
      </trkpt>
      <trkpt lat="47.81864" lon="-3.44273">
        <ele>26.57</ele>
        <time>2015-09-06T07:55:02Z</time>
      </trkpt>
      <trkpt lat="47.81862" lon="-3.44274">
        <ele>26.57</ele>
        <time>2015-09-06T07:55:03Z</time>
      </trkpt>
      <trkpt lat="47.81859" lon="-3.44275">
        <ele>26.57</ele>
        <time>2015-09-06T07:55:04Z</time>
      </trkpt>
      <trkpt lat="47.81857" lon="-3.44277">
        <ele>26.57</ele>
        <time>2015-09-06T07:55:05Z</time>
      </trkpt>
      <trkpt lat="47.81855" lon="-3.44278">
        <ele>26.57</ele>
        <time>2015-09-06T07:55:06Z</time>
      </trkpt>
      <trkpt lat="47.81852" lon="-3.44279">
        <ele>26.57</ele>
        <time>2015-09-06T07:55:07Z</time>
      </trkpt>
      <trkpt lat="47.81849" lon="-3.4428">
        <ele>26.57</ele>
        <time>2015-09-06T07:55:08Z</time>
      </trkpt>
      <trkpt lat="47.81847" lon="-3.44281">
        <ele>26.57</ele>
        <time>2015-09-06T07:55:09Z</time>
      </trkpt>
      <trkpt lat="47.81845" lon="-3.44282">
        <ele>26.57</ele>
        <time>2015-09-06T07:55:10Z</time>
      </trkpt>
      <trkpt lat="47.81842" lon="-3.44282">
        <ele>26.57</ele>
        <time>2015-09-06T07:55:11Z</time>
      </trkpt>
      <trkpt lat="47.8184" lon="-3.44282">
        <ele>26.57</ele>
        <time>2015-09-06T07:55:12Z</time>
      </trkpt>
      <trkpt lat="47.81838" lon="-3.44283">
        <ele>28.02</ele>
        <time>2015-09-06T07:55:13Z</time>
      </trkpt>
      <trkpt lat="47.81836" lon="-3.44284">
        <ele>28.02</ele>
        <time>2015-09-06T07:55:14Z</time>
      </trkpt>
      <trkpt lat="47.81833" lon="-3.44284">
        <ele>28.02</ele>
        <time>2015-09-06T07:55:15Z</time>
      </trkpt>
      <trkpt lat="47.81831" lon="-3.44284">
        <ele>28.02</ele>
        <time>2015-09-06T07:55:16Z</time>
      </trkpt>
      <trkpt lat="47.81829" lon="-3.44285">
        <ele>28.5</ele>
        <time>2015-09-06T07:55:17Z</time>
      </trkpt>
      <trkpt lat="47.81827" lon="-3.44286">
        <ele>28.5</ele>
        <time>2015-09-06T07:55:18Z</time>
      </trkpt>
      <trkpt lat="47.81825" lon="-3.44288">
        <ele>28.5</ele>
        <time>2015-09-06T07:55:19Z</time>
      </trkpt>
      <trkpt lat="47.81822" lon="-3.44289">
        <ele>28.5</ele>
        <time>2015-09-06T07:55:20Z</time>
      </trkpt>
      <trkpt lat="47.8182" lon="-3.44289">
        <ele>28.98</ele>
        <time>2015-09-06T07:55:21Z</time>
      </trkpt>
      <trkpt lat="47.81817" lon="-3.44289">
        <ele>29.46</ele>
        <time>2015-09-06T07:55:22Z</time>
      </trkpt>
      <trkpt lat="47.81816" lon="-3.4429">
        <ele>29.46</ele>
        <time>2015-09-06T07:55:23Z</time>
      </trkpt>
      <trkpt lat="47.81816" lon="-3.44292">
        <ele>29.46</ele>
        <time>2015-09-06T07:55:24Z</time>
      </trkpt>
      <trkpt lat="47.81814" lon="-3.44295">
        <ele>29.46</ele>
        <time>2015-09-06T07:55:25Z</time>
      </trkpt>
      <trkpt lat="47.81812" lon="-3.44297">
        <ele>29.46</ele>
        <time>2015-09-06T07:55:26Z</time>
      </trkpt>
      <trkpt lat="47.8181" lon="-3.44299">
        <ele>29.46</ele>
        <time>2015-09-06T07:55:27Z</time>
      </trkpt>
      <trkpt lat="47.81809" lon="-3.44302">
        <ele>28.02</ele>
        <time>2015-09-06T07:55:28Z</time>
      </trkpt>
      <trkpt lat="47.81808" lon="-3.44305">
        <ele>27.53</ele>
        <time>2015-09-06T07:55:29Z</time>
      </trkpt>
      <trkpt lat="47.81807" lon="-3.44308">
        <ele>27.05</ele>
        <time>2015-09-06T07:55:30Z</time>
      </trkpt>
      <trkpt lat="47.81806" lon="-3.44311">
        <ele>26.09</ele>
        <time>2015-09-06T07:55:31Z</time>
      </trkpt>
      <trkpt lat="47.81803" lon="-3.44315">
        <ele>26.09</ele>
        <time>2015-09-06T07:55:32Z</time>
      </trkpt>
      <trkpt lat="47.818" lon="-3.44318">
        <ele>26.09</ele>
        <time>2015-09-06T07:55:33Z</time>
      </trkpt>
      <trkpt lat="47.81798" lon="-3.4432">
        <ele>26.09</ele>
        <time>2015-09-06T07:55:34Z</time>
      </trkpt>
      <trkpt lat="47.81796" lon="-3.44322">
        <ele>26.09</ele>
        <time>2015-09-06T07:55:35Z</time>
      </trkpt>
      <trkpt lat="47.81794" lon="-3.44324">
        <ele>26.09</ele>
        <time>2015-09-06T07:55:36Z</time>
      </trkpt>
      <trkpt lat="47.81792" lon="-3.44326">
        <ele>26.09</ele>
        <time>2015-09-06T07:55:37Z</time>
      </trkpt>
      <trkpt lat="47.8179" lon="-3.44329">
        <ele>26.09</ele>
        <time>2015-09-06T07:55:38Z</time>
      </trkpt>
      <trkpt lat="47.81788" lon="-3.44331">
        <ele>26.09</ele>
        <time>2015-09-06T07:55:39Z</time>
      </trkpt>
      <trkpt lat="47.81786" lon="-3.44333">
        <ele>26.09</ele>
        <time>2015-09-06T07:55:40Z</time>
      </trkpt>
      <trkpt lat="47.81783" lon="-3.44337">
        <ele>26.09</ele>
        <time>2015-09-06T07:55:41Z</time>
      </trkpt>
      <trkpt lat="47.81779" lon="-3.44341">
        <ele>26.57</ele>
        <time>2015-09-06T07:55:42Z</time>
      </trkpt>
      <trkpt lat="47.81775" lon="-3.44345">
        <ele>26.57</ele>
        <time>2015-09-06T07:55:43Z</time>
      </trkpt>
      <trkpt lat="47.81773" lon="-3.44349">
        <ele>26.57</ele>
        <time>2015-09-06T07:55:44Z</time>
      </trkpt>
      <trkpt lat="47.81769" lon="-3.44353">
        <ele>26.57</ele>
        <time>2015-09-06T07:55:45Z</time>
      </trkpt>
      <trkpt lat="47.81766" lon="-3.44357">
        <ele>26.57</ele>
        <time>2015-09-06T07:55:46Z</time>
      </trkpt>
      <trkpt lat="47.81763" lon="-3.4436">
        <ele>26.57</ele>
        <time>2015-09-06T07:55:47Z</time>
      </trkpt>
      <trkpt lat="47.8176" lon="-3.44364">
        <ele>26.57</ele>
        <time>2015-09-06T07:55:48Z</time>
      </trkpt>
      <trkpt lat="47.81757" lon="-3.44368">
        <ele>26.57</ele>
        <time>2015-09-06T07:55:49Z</time>
      </trkpt>
      <trkpt lat="47.81754" lon="-3.44372">
        <ele>26.57</ele>
        <time>2015-09-06T07:55:50Z</time>
      </trkpt>
      <trkpt lat="47.81751" lon="-3.44376">
        <ele>26.57</ele>
        <time>2015-09-06T07:55:51Z</time>
      </trkpt>
      <trkpt lat="47.81747" lon="-3.4438">
        <ele>26.57</ele>
        <time>2015-09-06T07:55:52Z</time>
      </trkpt>
      <trkpt lat="47.81744" lon="-3.44384">
        <ele>26.57</ele>
        <time>2015-09-06T07:55:53Z</time>
      </trkpt>
      <trkpt lat="47.8174" lon="-3.44388">
        <ele>26.57</ele>
        <time>2015-09-06T07:55:54Z</time>
      </trkpt>
      <trkpt lat="47.81736" lon="-3.44392">
        <ele>26.57</ele>
        <time>2015-09-06T07:55:55Z</time>
      </trkpt>
      <trkpt lat="47.81732" lon="-3.44395">
        <ele>26.57</ele>
        <time>2015-09-06T07:55:56Z</time>
      </trkpt>
      <trkpt lat="47.81728" lon="-3.44398">
        <ele>26.57</ele>
        <time>2015-09-06T07:55:57Z</time>
      </trkpt>
      <trkpt lat="47.81725" lon="-3.44401">
        <ele>26.57</ele>
        <time>2015-09-06T07:55:58Z</time>
      </trkpt>
      <trkpt lat="47.81722" lon="-3.44404">
        <ele>26.57</ele>
        <time>2015-09-06T07:55:59Z</time>
      </trkpt>
      <trkpt lat="47.81718" lon="-3.44407">
        <ele>27.53</ele>
        <time>2015-09-06T07:56:00Z</time>
      </trkpt>
      <trkpt lat="47.81715" lon="-3.44411">
        <ele>27.53</ele>
        <time>2015-09-06T07:56:01Z</time>
      </trkpt>
      <trkpt lat="47.81713" lon="-3.44414">
        <ele>27.53</ele>
        <time>2015-09-06T07:56:02Z</time>
      </trkpt>
      <trkpt lat="47.8171" lon="-3.44418">
        <ele>27.53</ele>
        <time>2015-09-06T07:56:03Z</time>
      </trkpt>
      <trkpt lat="47.81707" lon="-3.44423">
        <ele>27.53</ele>
        <time>2015-09-06T07:56:04Z</time>
      </trkpt>
      <trkpt lat="47.81704" lon="-3.44428">
        <ele>27.53</ele>
        <time>2015-09-06T07:56:05Z</time>
      </trkpt>
      <trkpt lat="47.81701" lon="-3.44432">
        <ele>27.53</ele>
        <time>2015-09-06T07:56:06Z</time>
      </trkpt>
      <trkpt lat="47.81699" lon="-3.44436">
        <ele>27.53</ele>
        <time>2015-09-06T07:56:07Z</time>
      </trkpt>
      <trkpt lat="47.81698" lon="-3.4444">
        <ele>27.53</ele>
        <time>2015-09-06T07:56:08Z</time>
      </trkpt>
      <trkpt lat="47.81695" lon="-3.44444">
        <ele>27.53</ele>
        <time>2015-09-06T07:56:09Z</time>
      </trkpt>
      <trkpt lat="47.81692" lon="-3.44448">
        <ele>28.5</ele>
        <time>2015-09-06T07:56:10Z</time>
      </trkpt>
      <trkpt lat="47.81689" lon="-3.44453">
        <ele>28.5</ele>
        <time>2015-09-06T07:56:11Z</time>
      </trkpt>
      <trkpt lat="47.81686" lon="-3.44457">
        <ele>28.98</ele>
        <time>2015-09-06T07:56:12Z</time>
      </trkpt>
      <trkpt lat="47.81684" lon="-3.44461">
        <ele>28.98</ele>
        <time>2015-09-06T07:56:13Z</time>
      </trkpt>
      <trkpt lat="47.81681" lon="-3.44466">
        <ele>28.98</ele>
        <time>2015-09-06T07:56:14Z</time>
      </trkpt>
      <trkpt lat="47.81679" lon="-3.4447">
        <ele>29.46</ele>
        <time>2015-09-06T07:56:15Z</time>
      </trkpt>
      <trkpt lat="47.81676" lon="-3.44475">
        <ele>29.46</ele>
        <time>2015-09-06T07:56:16Z</time>
      </trkpt>
      <trkpt lat="47.81673" lon="-3.4448">
        <ele>29.46</ele>
        <time>2015-09-06T07:56:17Z</time>
      </trkpt>
      <trkpt lat="47.8167" lon="-3.44485">
        <ele>29.46</ele>
        <time>2015-09-06T07:56:18Z</time>
      </trkpt>
      <trkpt lat="47.81668" lon="-3.44489">
        <ele>29.94</ele>
        <time>2015-09-06T07:56:19Z</time>
      </trkpt>
      <trkpt lat="47.81665" lon="-3.44494">
        <ele>29.94</ele>
        <time>2015-09-06T07:56:20Z</time>
      </trkpt>
      <trkpt lat="47.81662" lon="-3.44499">
        <ele>29.94</ele>
        <time>2015-09-06T07:56:21Z</time>
      </trkpt>
      <trkpt lat="47.81659" lon="-3.44505">
        <ele>29.94</ele>
        <time>2015-09-06T07:56:22Z</time>
      </trkpt>
      <trkpt lat="47.81656" lon="-3.4451">
        <ele>29.94</ele>
        <time>2015-09-06T07:56:23Z</time>
      </trkpt>
      <trkpt lat="47.81654" lon="-3.44516">
        <ele>29.94</ele>
        <time>2015-09-06T07:56:24Z</time>
      </trkpt>
      <trkpt lat="47.81652" lon="-3.44521">
        <ele>29.94</ele>
        <time>2015-09-06T07:56:25Z</time>
      </trkpt>
      <trkpt lat="47.81649" lon="-3.44527">
        <ele>29.94</ele>
        <time>2015-09-06T07:56:26Z</time>
      </trkpt>
      <trkpt lat="47.81647" lon="-3.44532">
        <ele>29.94</ele>
        <time>2015-09-06T07:56:27Z</time>
      </trkpt>
      <trkpt lat="47.81644" lon="-3.44537">
        <ele>29.94</ele>
        <time>2015-09-06T07:56:28Z</time>
      </trkpt>
      <trkpt lat="47.8164" lon="-3.44542">
        <ele>29.94</ele>
        <time>2015-09-06T07:56:29Z</time>
      </trkpt>
      <trkpt lat="47.81635" lon="-3.44547">
        <ele>28.5</ele>
        <time>2015-09-06T07:56:30Z</time>
      </trkpt>
      <trkpt lat="47.8163" lon="-3.4455">
        <ele>28.5</ele>
        <time>2015-09-06T07:56:31Z</time>
      </trkpt>
      <trkpt lat="47.81625" lon="-3.44552">
        <ele>28.5</ele>
        <time>2015-09-06T07:56:32Z</time>
      </trkpt>
      <trkpt lat="47.8162" lon="-3.44553">
        <ele>28.98</ele>
        <time>2015-09-06T07:56:33Z</time>
      </trkpt>
      <trkpt lat="47.81617" lon="-3.44555">
        <ele>28.98</ele>
        <time>2015-09-06T07:56:34Z</time>
      </trkpt>
      <trkpt lat="47.81614" lon="-3.44557">
        <ele>30.42</ele>
        <time>2015-09-06T07:56:35Z</time>
      </trkpt>
      <trkpt lat="47.81611" lon="-3.44559">
        <ele>30.42</ele>
        <time>2015-09-06T07:56:36Z</time>
      </trkpt>
      <trkpt lat="47.81609" lon="-3.44561">
        <ele>30.9</ele>
        <time>2015-09-06T07:56:37Z</time>
      </trkpt>
      <trkpt lat="47.81606" lon="-3.44564">
        <ele>30.9</ele>
        <time>2015-09-06T07:56:38Z</time>
      </trkpt>
      <trkpt lat="47.81604" lon="-3.44568">
        <ele>31.38</ele>
        <time>2015-09-06T07:56:39Z</time>
      </trkpt>
      <trkpt lat="47.81601" lon="-3.44571">
        <ele>31.38</ele>
        <time>2015-09-06T07:56:40Z</time>
      </trkpt>
      <trkpt lat="47.816" lon="-3.44575">
        <ele>31.38</ele>
        <time>2015-09-06T07:56:41Z</time>
      </trkpt>
      <trkpt lat="47.81598" lon="-3.44579">
        <ele>31.86</ele>
        <time>2015-09-06T07:56:42Z</time>
      </trkpt>
      <trkpt lat="47.81596" lon="-3.44582">
        <ele>31.86</ele>
        <time>2015-09-06T07:56:43Z</time>
      </trkpt>
      <trkpt lat="47.81594" lon="-3.44586">
        <ele>31.86</ele>
        <time>2015-09-06T07:56:44Z</time>
      </trkpt>
      <trkpt lat="47.81593" lon="-3.4459">
        <ele>31.86</ele>
        <time>2015-09-06T07:56:45Z</time>
      </trkpt>
      <trkpt lat="47.81591" lon="-3.44594">
        <ele>32.34</ele>
        <time>2015-09-06T07:56:46Z</time>
      </trkpt>
      <trkpt lat="47.81589" lon="-3.44598">
        <ele>32.34</ele>
        <time>2015-09-06T07:56:47Z</time>
      </trkpt>
      <trkpt lat="47.81588" lon="-3.44601">
        <ele>32.34</ele>
        <time>2015-09-06T07:56:48Z</time>
      </trkpt>
      <trkpt lat="47.81586" lon="-3.44606">
        <ele>32.34</ele>
        <time>2015-09-06T07:56:49Z</time>
      </trkpt>
      <trkpt lat="47.81585" lon="-3.4461">
        <ele>32.34</ele>
        <time>2015-09-06T07:56:50Z</time>
      </trkpt>
      <trkpt lat="47.81583" lon="-3.44614">
        <ele>32.34</ele>
        <time>2015-09-06T07:56:51Z</time>
      </trkpt>
      <trkpt lat="47.81581" lon="-3.44619">
        <ele>32.34</ele>
        <time>2015-09-06T07:56:52Z</time>
      </trkpt>
      <trkpt lat="47.8158" lon="-3.44623">
        <ele>32.34</ele>
        <time>2015-09-06T07:56:53Z</time>
      </trkpt>
      <trkpt lat="47.81578" lon="-3.44627">
        <ele>32.82</ele>
        <time>2015-09-06T07:56:54Z</time>
      </trkpt>
      <trkpt lat="47.81576" lon="-3.44631">
        <ele>32.82</ele>
        <time>2015-09-06T07:56:55Z</time>
      </trkpt>
      <trkpt lat="47.81574" lon="-3.44635">
        <ele>32.82</ele>
        <time>2015-09-06T07:56:56Z</time>
      </trkpt>
      <trkpt lat="47.81572" lon="-3.4464">
        <ele>32.82</ele>
        <time>2015-09-06T07:56:57Z</time>
      </trkpt>
      <trkpt lat="47.81571" lon="-3.44645">
        <ele>32.82</ele>
        <time>2015-09-06T07:56:58Z</time>
      </trkpt>
      <trkpt lat="47.81569" lon="-3.4465">
        <ele>32.82</ele>
        <time>2015-09-06T07:56:59Z</time>
      </trkpt>
      <trkpt lat="47.81567" lon="-3.44655">
        <ele>32.82</ele>
        <time>2015-09-06T07:57:00Z</time>
      </trkpt>
      <trkpt lat="47.81565" lon="-3.4466">
        <ele>33.3</ele>
        <time>2015-09-06T07:57:01Z</time>
      </trkpt>
      <trkpt lat="47.81563" lon="-3.44665">
        <ele>33.3</ele>
        <time>2015-09-06T07:57:02Z</time>
      </trkpt>
      <trkpt lat="47.81562" lon="-3.4467">
        <ele>33.3</ele>
        <time>2015-09-06T07:57:03Z</time>
      </trkpt>
      <trkpt lat="47.81561" lon="-3.44675">
        <ele>33.3</ele>
        <time>2015-09-06T07:57:04Z</time>
      </trkpt>
      <trkpt lat="47.8156" lon="-3.44681">
        <ele>33.78</ele>
        <time>2015-09-06T07:57:05Z</time>
      </trkpt>
      <trkpt lat="47.81559" lon="-3.44686">
        <ele>33.78</ele>
        <time>2015-09-06T07:57:06Z</time>
      </trkpt>
      <trkpt lat="47.81557" lon="-3.44691">
        <ele>33.78</ele>
        <time>2015-09-06T07:57:07Z</time>
      </trkpt>
      <trkpt lat="47.81556" lon="-3.44696">
        <ele>33.78</ele>
        <time>2015-09-06T07:57:08Z</time>
      </trkpt>
      <trkpt lat="47.81554" lon="-3.44701">
        <ele>33.78</ele>
        <time>2015-09-06T07:57:09Z</time>
      </trkpt>
      <trkpt lat="47.81553" lon="-3.44706">
        <ele>33.78</ele>
        <time>2015-09-06T07:57:10Z</time>
      </trkpt>
      <trkpt lat="47.81551" lon="-3.44712">
        <ele>33.78</ele>
        <time>2015-09-06T07:57:11Z</time>
      </trkpt>
      <trkpt lat="47.81549" lon="-3.44716">
        <ele>33.78</ele>
        <time>2015-09-06T07:57:12Z</time>
      </trkpt>
      <trkpt lat="47.81547" lon="-3.44721">
        <ele>33.78</ele>
        <time>2015-09-06T07:57:13Z</time>
      </trkpt>
      <trkpt lat="47.81546" lon="-3.44726">
        <ele>34.26</ele>
        <time>2015-09-06T07:57:14Z</time>
      </trkpt>
      <trkpt lat="47.81545" lon="-3.44731">
        <ele>34.26</ele>
        <time>2015-09-06T07:57:15Z</time>
      </trkpt>
      <trkpt lat="47.81544" lon="-3.44736">
        <ele>34.26</ele>
        <time>2015-09-06T07:57:16Z</time>
      </trkpt>
      <trkpt lat="47.81543" lon="-3.44741">
        <ele>34.26</ele>
        <time>2015-09-06T07:57:17Z</time>
      </trkpt>
      <trkpt lat="47.81541" lon="-3.44746">
        <ele>34.26</ele>
        <time>2015-09-06T07:57:18Z</time>
      </trkpt>
      <trkpt lat="47.81538" lon="-3.4475">
        <ele>34.26</ele>
        <time>2015-09-06T07:57:19Z</time>
      </trkpt>
      <trkpt lat="47.81535" lon="-3.44753">
        <ele>35.23</ele>
        <time>2015-09-06T07:57:20Z</time>
      </trkpt>
      <trkpt lat="47.81531" lon="-3.44756">
        <ele>35.23</ele>
        <time>2015-09-06T07:57:21Z</time>
      </trkpt>
      <trkpt lat="47.81527" lon="-3.44758">
        <ele>35.71</ele>
        <time>2015-09-06T07:57:22Z</time>
      </trkpt>
      <trkpt lat="47.81523" lon="-3.4476">
        <ele>35.71</ele>
        <time>2015-09-06T07:57:23Z</time>
      </trkpt>
      <trkpt lat="47.8152" lon="-3.44761">
        <ele>36.19</ele>
        <time>2015-09-06T07:57:24Z</time>
      </trkpt>
      <trkpt lat="47.81517" lon="-3.44762">
        <ele>36.19</ele>
        <time>2015-09-06T07:57:25Z</time>
      </trkpt>
      <trkpt lat="47.81513" lon="-3.44763">
        <ele>36.67</ele>
        <time>2015-09-06T07:57:26Z</time>
      </trkpt>
      <trkpt lat="47.81509" lon="-3.44763">
        <ele>36.67</ele>
        <time>2015-09-06T07:57:27Z</time>
      </trkpt>
      <trkpt lat="47.81505" lon="-3.44764">
        <ele>36.67</ele>
        <time>2015-09-06T07:57:28Z</time>
      </trkpt>
      <trkpt lat="47.81501" lon="-3.44765">
        <ele>36.67</ele>
        <time>2015-09-06T07:57:29Z</time>
      </trkpt>
      <trkpt lat="47.81497" lon="-3.44766">
        <ele>36.67</ele>
        <time>2015-09-06T07:57:30Z</time>
      </trkpt>
      <trkpt lat="47.81493" lon="-3.44767">
        <ele>36.67</ele>
        <time>2015-09-06T07:57:31Z</time>
      </trkpt>
      <trkpt lat="47.8149" lon="-3.44768">
        <ele>36.67</ele>
        <time>2015-09-06T07:57:32Z</time>
      </trkpt>
      <trkpt lat="47.81486" lon="-3.44769">
        <ele>36.67</ele>
        <time>2015-09-06T07:57:33Z</time>
      </trkpt>
      <trkpt lat="47.81481" lon="-3.4477">
        <ele>36.67</ele>
        <time>2015-09-06T07:57:34Z</time>
      </trkpt>
      <trkpt lat="47.81476" lon="-3.44771">
        <ele>36.67</ele>
        <time>2015-09-06T07:57:35Z</time>
      </trkpt>
      <trkpt lat="47.81472" lon="-3.44773">
        <ele>36.67</ele>
        <time>2015-09-06T07:57:36Z</time>
      </trkpt>
      <trkpt lat="47.81467" lon="-3.44774">
        <ele>36.67</ele>
        <time>2015-09-06T07:57:37Z</time>
      </trkpt>
      <trkpt lat="47.81462" lon="-3.44775">
        <ele>36.67</ele>
        <time>2015-09-06T07:57:38Z</time>
      </trkpt>
      <trkpt lat="47.81457" lon="-3.44777">
        <ele>36.67</ele>
        <time>2015-09-06T07:57:39Z</time>
      </trkpt>
      <trkpt lat="47.81452" lon="-3.4478">
        <ele>35.23</ele>
        <time>2015-09-06T07:57:40Z</time>
      </trkpt>
      <trkpt lat="47.81447" lon="-3.44782">
        <ele>35.23</ele>
        <time>2015-09-06T07:57:41Z</time>
      </trkpt>
      <trkpt lat="47.81442" lon="-3.44785">
        <ele>35.23</ele>
        <time>2015-09-06T07:57:42Z</time>
      </trkpt>
      <trkpt lat="47.81437" lon="-3.44789">
        <ele>34.74</ele>
        <time>2015-09-06T07:57:43Z</time>
      </trkpt>
      <trkpt lat="47.81432" lon="-3.44792">
        <ele>34.74</ele>
        <time>2015-09-06T07:57:44Z</time>
      </trkpt>
      <trkpt lat="47.81427" lon="-3.44795">
        <ele>34.26</ele>
        <time>2015-09-06T07:57:45Z</time>
      </trkpt>
      <trkpt lat="47.81422" lon="-3.44798">
        <ele>34.26</ele>
        <time>2015-09-06T07:57:46Z</time>
      </trkpt>
      <trkpt lat="47.81417" lon="-3.44801">
        <ele>34.26</ele>
        <time>2015-09-06T07:57:47Z</time>
      </trkpt>
      <trkpt lat="47.81412" lon="-3.44804">
        <ele>34.26</ele>
        <time>2015-09-06T07:57:48Z</time>
      </trkpt>
      <trkpt lat="47.81408" lon="-3.44807">
        <ele>33.78</ele>
        <time>2015-09-06T07:57:49Z</time>
      </trkpt>
      <trkpt lat="47.81403" lon="-3.44811">
        <ele>33.78</ele>
        <time>2015-09-06T07:57:50Z</time>
      </trkpt>
      <trkpt lat="47.81398" lon="-3.44815">
        <ele>33.78</ele>
        <time>2015-09-06T07:57:51Z</time>
      </trkpt>
      <trkpt lat="47.81392" lon="-3.44818">
        <ele>33.78</ele>
        <time>2015-09-06T07:57:52Z</time>
      </trkpt>
      <trkpt lat="47.81387" lon="-3.44822">
        <ele>33.78</ele>
        <time>2015-09-06T07:57:53Z</time>
      </trkpt>
      <trkpt lat="47.81382" lon="-3.44826">
        <ele>33.78</ele>
        <time>2015-09-06T07:57:54Z</time>
      </trkpt>
      <trkpt lat="47.81377" lon="-3.44829">
        <ele>33.78</ele>
        <time>2015-09-06T07:57:55Z</time>
      </trkpt>
      <trkpt lat="47.81372" lon="-3.44832">
        <ele>33.78</ele>
        <time>2015-09-06T07:57:56Z</time>
      </trkpt>
      <trkpt lat="47.81367" lon="-3.44835">
        <ele>33.78</ele>
        <time>2015-09-06T07:57:57Z</time>
      </trkpt>
      <trkpt lat="47.81362" lon="-3.44837">
        <ele>33.78</ele>
        <time>2015-09-06T07:57:58Z</time>
      </trkpt>
      <trkpt lat="47.81357" lon="-3.44839">
        <ele>33.78</ele>
        <time>2015-09-06T07:57:59Z</time>
      </trkpt>
      <trkpt lat="47.81353" lon="-3.4484">
        <ele>33.78</ele>
        <time>2015-09-06T07:58:00Z</time>
      </trkpt>
      <trkpt lat="47.81347" lon="-3.44841">
        <ele>33.78</ele>
        <time>2015-09-06T07:58:01Z</time>
      </trkpt>
      <trkpt lat="47.81342" lon="-3.44842">
        <ele>33.78</ele>
        <time>2015-09-06T07:58:02Z</time>
      </trkpt>
      <trkpt lat="47.81337" lon="-3.44842">
        <ele>33.78</ele>
        <time>2015-09-06T07:58:03Z</time>
      </trkpt>
      <trkpt lat="47.81332" lon="-3.44841">
        <ele>33.78</ele>
        <time>2015-09-06T07:58:04Z</time>
      </trkpt>
      <trkpt lat="47.81327" lon="-3.4484">
        <ele>33.78</ele>
        <time>2015-09-06T07:58:05Z</time>
      </trkpt>
      <trkpt lat="47.81322" lon="-3.44839">
        <ele>33.78</ele>
        <time>2015-09-06T07:58:06Z</time>
      </trkpt>
      <trkpt lat="47.81317" lon="-3.44837">
        <ele>33.78</ele>
        <time>2015-09-06T07:58:07Z</time>
      </trkpt>
      <trkpt lat="47.81312" lon="-3.44836">
        <ele>33.78</ele>
        <time>2015-09-06T07:58:08Z</time>
      </trkpt>
      <trkpt lat="47.81307" lon="-3.44834">
        <ele>33.78</ele>
        <time>2015-09-06T07:58:09Z</time>
      </trkpt>
      <trkpt lat="47.81302" lon="-3.44832">
        <ele>33.78</ele>
        <time>2015-09-06T07:58:10Z</time>
      </trkpt>
      <trkpt lat="47.81297" lon="-3.44831">
        <ele>33.78</ele>
        <time>2015-09-06T07:58:11Z</time>
      </trkpt>
      <trkpt lat="47.81292" lon="-3.44829">
        <ele>33.78</ele>
        <time>2015-09-06T07:58:12Z</time>
      </trkpt>
      <trkpt lat="47.81287" lon="-3.44827">
        <ele>33.78</ele>
        <time>2015-09-06T07:58:13Z</time>
      </trkpt>
      <trkpt lat="47.81282" lon="-3.44826">
        <ele>33.78</ele>
        <time>2015-09-06T07:58:14Z</time>
      </trkpt>
      <trkpt lat="47.81278" lon="-3.44825">
        <ele>33.78</ele>
        <time>2015-09-06T07:58:15Z</time>
      </trkpt>
      <trkpt lat="47.81273" lon="-3.44825">
        <ele>33.78</ele>
        <time>2015-09-06T07:58:16Z</time>
      </trkpt>
      <trkpt lat="47.81268" lon="-3.44824">
        <ele>33.78</ele>
        <time>2015-09-06T07:58:17Z</time>
      </trkpt>
      <trkpt lat="47.81262" lon="-3.44824">
        <ele>33.78</ele>
        <time>2015-09-06T07:58:18Z</time>
      </trkpt>
      <trkpt lat="47.81257" lon="-3.44824">
        <ele>33.78</ele>
        <time>2015-09-06T07:58:19Z</time>
      </trkpt>
      <trkpt lat="47.81252" lon="-3.44824">
        <ele>33.78</ele>
        <time>2015-09-06T07:58:20Z</time>
      </trkpt>
      <trkpt lat="47.81247" lon="-3.44824">
        <ele>33.78</ele>
        <time>2015-09-06T07:58:21Z</time>
      </trkpt>
      <trkpt lat="47.81242" lon="-3.44824">
        <ele>33.78</ele>
        <time>2015-09-06T07:58:22Z</time>
      </trkpt>
      <trkpt lat="47.81236" lon="-3.44824">
        <ele>33.78</ele>
        <time>2015-09-06T07:58:23Z</time>
      </trkpt>
      <trkpt lat="47.81232" lon="-3.44824">
        <ele>33.78</ele>
        <time>2015-09-06T07:58:24Z</time>
      </trkpt>
      <trkpt lat="47.81227" lon="-3.44824">
        <ele>33.78</ele>
        <time>2015-09-06T07:58:25Z</time>
      </trkpt>
      <trkpt lat="47.81222" lon="-3.44823">
        <ele>33.78</ele>
        <time>2015-09-06T07:58:26Z</time>
      </trkpt>
      <trkpt lat="47.81218" lon="-3.44824">
        <ele>33.78</ele>
        <time>2015-09-06T07:58:27Z</time>
      </trkpt>
      <trkpt lat="47.81213" lon="-3.44824">
        <ele>33.78</ele>
        <time>2015-09-06T07:58:28Z</time>
      </trkpt>
      <trkpt lat="47.81209" lon="-3.44824">
        <ele>35.23</ele>
        <time>2015-09-06T07:58:29Z</time>
      </trkpt>
      <trkpt lat="47.81204" lon="-3.44824">
        <ele>35.23</ele>
        <time>2015-09-06T07:58:30Z</time>
      </trkpt>
      <trkpt lat="47.812" lon="-3.44825">
        <ele>35.71</ele>
        <time>2015-09-06T07:58:31Z</time>
      </trkpt>
      <trkpt lat="47.81197" lon="-3.44825">
        <ele>35.71</ele>
        <time>2015-09-06T07:58:32Z</time>
      </trkpt>
      <trkpt lat="47.81194" lon="-3.44826">
        <ele>36.19</ele>
        <time>2015-09-06T07:58:33Z</time>
      </trkpt>
      <trkpt lat="47.81191" lon="-3.44827">
        <ele>36.19</ele>
        <time>2015-09-06T07:58:34Z</time>
      </trkpt>
      <trkpt lat="47.81189" lon="-3.44828">
        <ele>36.19</ele>
        <time>2015-09-06T07:58:35Z</time>
      </trkpt>
      <trkpt lat="47.81187" lon="-3.44828">
        <ele>36.67</ele>
        <time>2015-09-06T07:58:36Z</time>
      </trkpt>
      <trkpt lat="47.81184" lon="-3.44828">
        <ele>36.67</ele>
        <time>2015-09-06T07:58:37Z</time>
      </trkpt>
      <trkpt lat="47.81182" lon="-3.44828">
        <ele>36.67</ele>
        <time>2015-09-06T07:58:38Z</time>
      </trkpt>
      <trkpt lat="47.8118" lon="-3.44828">
        <ele>37.15</ele>
        <time>2015-09-06T07:58:39Z</time>
      </trkpt>
      <trkpt lat="47.81177" lon="-3.44828">
        <ele>37.15</ele>
        <time>2015-09-06T07:58:40Z</time>
      </trkpt>
      <trkpt lat="47.81175" lon="-3.44829">
        <ele>37.63</ele>
        <time>2015-09-06T07:58:41Z</time>
      </trkpt>
      <trkpt lat="47.81172" lon="-3.44829">
        <ele>37.63</ele>
        <time>2015-09-06T07:58:42Z</time>
      </trkpt>
      <trkpt lat="47.8117" lon="-3.44829">
        <ele>38.11</ele>
        <time>2015-09-06T07:58:43Z</time>
      </trkpt>
      <trkpt lat="47.81167" lon="-3.44829">
        <ele>38.11</ele>
        <time>2015-09-06T07:58:44Z</time>
      </trkpt>
      <trkpt lat="47.81165" lon="-3.44828">
        <ele>38.59</ele>
        <time>2015-09-06T07:58:45Z</time>
      </trkpt>
      <trkpt lat="47.81163" lon="-3.44828">
        <ele>38.59</ele>
        <time>2015-09-06T07:58:46Z</time>
      </trkpt>
      <trkpt lat="47.81161" lon="-3.44828">
        <ele>38.59</ele>
        <time>2015-09-06T07:58:47Z</time>
      </trkpt>
      <trkpt lat="47.81159" lon="-3.44828">
        <ele>39.07</ele>
        <time>2015-09-06T07:58:48Z</time>
      </trkpt>
      <trkpt lat="47.81157" lon="-3.44827">
        <ele>39.07</ele>
        <time>2015-09-06T07:58:49Z</time>
      </trkpt>
      <trkpt lat="47.81155" lon="-3.44827">
        <ele>39.55</ele>
        <time>2015-09-06T07:58:50Z</time>
      </trkpt>
      <trkpt lat="47.81153" lon="-3.44828">
        <ele>39.55</ele>
        <time>2015-09-06T07:58:51Z</time>
      </trkpt>
      <trkpt lat="47.81151" lon="-3.44827">
        <ele>40.03</ele>
        <time>2015-09-06T07:58:52Z</time>
      </trkpt>
      <trkpt lat="47.81149" lon="-3.44826">
        <ele>40.03</ele>
        <time>2015-09-06T07:58:53Z</time>
      </trkpt>
      <trkpt lat="47.81147" lon="-3.44825">
        <ele>40.03</ele>
        <time>2015-09-06T07:58:54Z</time>
      </trkpt>
      <trkpt lat="47.81146" lon="-3.44823">
        <ele>40.51</ele>
        <time>2015-09-06T07:58:55Z</time>
      </trkpt>
      <trkpt lat="47.81144" lon="-3.44822">
        <ele>40.51</ele>
        <time>2015-09-06T07:58:56Z</time>
      </trkpt>
      <trkpt lat="47.81142" lon="-3.44821">
        <ele>40.99</ele>
        <time>2015-09-06T07:58:57Z</time>
      </trkpt>
      <trkpt lat="47.8114" lon="-3.44819">
        <ele>41.47</ele>
        <time>2015-09-06T07:58:58Z</time>
      </trkpt>
      <trkpt lat="47.81138" lon="-3.44817">
        <ele>41.47</ele>
        <time>2015-09-06T07:58:59Z</time>
      </trkpt>
      <trkpt lat="47.81137" lon="-3.44815">
        <ele>41.47</ele>
        <time>2015-09-06T07:59:00Z</time>
      </trkpt>
      <trkpt lat="47.81135" lon="-3.44813">
        <ele>41.47</ele>
        <time>2015-09-06T07:59:01Z</time>
      </trkpt>
      <trkpt lat="47.81134" lon="-3.44811">
        <ele>41.95</ele>
        <time>2015-09-06T07:59:02Z</time>
      </trkpt>
      <trkpt lat="47.81133" lon="-3.44808">
        <ele>41.47</ele>
        <time>2015-09-06T07:59:03Z</time>
      </trkpt>
      <trkpt lat="47.81132" lon="-3.44805">
        <ele>41.47</ele>
        <time>2015-09-06T07:59:04Z</time>
      </trkpt>
      <trkpt lat="47.81131" lon="-3.44802">
        <ele>42.44</ele>
        <time>2015-09-06T07:59:05Z</time>
      </trkpt>
      <trkpt lat="47.8113" lon="-3.44799">
        <ele>42.44</ele>
        <time>2015-09-06T07:59:06Z</time>
      </trkpt>
      <trkpt lat="47.8113" lon="-3.44796">
        <ele>42.44</ele>
        <time>2015-09-06T07:59:07Z</time>
      </trkpt>
      <trkpt lat="47.8113" lon="-3.44793">
        <ele>42.92</ele>
        <time>2015-09-06T07:59:08Z</time>
      </trkpt>
      <trkpt lat="47.8113" lon="-3.4479">
        <ele>42.92</ele>
        <time>2015-09-06T07:59:09Z</time>
      </trkpt>
      <trkpt lat="47.81131" lon="-3.44787">
        <ele>42.92</ele>
        <time>2015-09-06T07:59:10Z</time>
      </trkpt>
      <trkpt lat="47.81131" lon="-3.44784">
        <ele>42.92</ele>
        <time>2015-09-06T07:59:11Z</time>
      </trkpt>
      <trkpt lat="47.81131" lon="-3.4478">
        <ele>43.4</ele>
        <time>2015-09-06T07:59:12Z</time>
      </trkpt>
      <trkpt lat="47.81132" lon="-3.44777">
        <ele>43.4</ele>
        <time>2015-09-06T07:59:13Z</time>
      </trkpt>
      <trkpt lat="47.81132" lon="-3.44774">
        <ele>43.4</ele>
        <time>2015-09-06T07:59:14Z</time>
      </trkpt>
      <trkpt lat="47.81133" lon="-3.44769">
        <ele>43.4</ele>
        <time>2015-09-06T07:59:15Z</time>
      </trkpt>
      <trkpt lat="47.81133" lon="-3.44766">
        <ele>43.4</ele>
        <time>2015-09-06T07:59:16Z</time>
      </trkpt>
      <trkpt lat="47.81133" lon="-3.44762">
        <ele>43.88</ele>
        <time>2015-09-06T07:59:17Z</time>
      </trkpt>
      <trkpt lat="47.81134" lon="-3.44758">
        <ele>43.88</ele>
        <time>2015-09-06T07:59:18Z</time>
      </trkpt>
      <trkpt lat="47.81134" lon="-3.44754">
        <ele>43.88</ele>
        <time>2015-09-06T07:59:19Z</time>
      </trkpt>
      <trkpt lat="47.81135" lon="-3.4475">
        <ele>43.88</ele>
        <time>2015-09-06T07:59:20Z</time>
      </trkpt>
      <trkpt lat="47.81136" lon="-3.44746">
        <ele>43.88</ele>
        <time>2015-09-06T07:59:21Z</time>
      </trkpt>
      <trkpt lat="47.81136" lon="-3.44742">
        <ele>43.88</ele>
        <time>2015-09-06T07:59:22Z</time>
      </trkpt>
      <trkpt lat="47.81137" lon="-3.44738">
        <ele>43.88</ele>
        <time>2015-09-06T07:59:23Z</time>
      </trkpt>
      <trkpt lat="47.81137" lon="-3.44733">
        <ele>43.88</ele>
        <time>2015-09-06T07:59:24Z</time>
      </trkpt>
      <trkpt lat="47.81137" lon="-3.44729">
        <ele>43.88</ele>
        <time>2015-09-06T07:59:25Z</time>
      </trkpt>
      <trkpt lat="47.81138" lon="-3.44725">
        <ele>43.88</ele>
        <time>2015-09-06T07:59:26Z</time>
      </trkpt>
      <trkpt lat="47.81138" lon="-3.4472">
        <ele>43.88</ele>
        <time>2015-09-06T07:59:27Z</time>
      </trkpt>
      <trkpt lat="47.81138" lon="-3.44716">
        <ele>43.88</ele>
        <time>2015-09-06T07:59:28Z</time>
      </trkpt>
      <trkpt lat="47.81139" lon="-3.44711">
        <ele>44.36</ele>
        <time>2015-09-06T07:59:29Z</time>
      </trkpt>
      <trkpt lat="47.81139" lon="-3.44707">
        <ele>44.36</ele>
        <time>2015-09-06T07:59:30Z</time>
      </trkpt>
      <trkpt lat="47.81139" lon="-3.44702">
        <ele>44.36</ele>
        <time>2015-09-06T07:59:31Z</time>
      </trkpt>
      <trkpt lat="47.8114" lon="-3.44697">
        <ele>44.36</ele>
        <time>2015-09-06T07:59:32Z</time>
      </trkpt>
      <trkpt lat="47.8114" lon="-3.44693">
        <ele>44.36</ele>
        <time>2015-09-06T07:59:33Z</time>
      </trkpt>
      <trkpt lat="47.8114" lon="-3.44688">
        <ele>44.84</ele>
        <time>2015-09-06T07:59:34Z</time>
      </trkpt>
      <trkpt lat="47.81141" lon="-3.44683">
        <ele>44.84</ele>
        <time>2015-09-06T07:59:35Z</time>
      </trkpt>
      <trkpt lat="47.81141" lon="-3.44677">
        <ele>44.84</ele>
        <time>2015-09-06T07:59:36Z</time>
      </trkpt>
      <trkpt lat="47.81142" lon="-3.44671">
        <ele>44.84</ele>
        <time>2015-09-06T07:59:37Z</time>
      </trkpt>
      <trkpt lat="47.81142" lon="-3.44666">
        <ele>45.32</ele>
        <time>2015-09-06T07:59:38Z</time>
      </trkpt>
      <trkpt lat="47.81143" lon="-3.44661">
        <ele>45.32</ele>
        <time>2015-09-06T07:59:39Z</time>
      </trkpt>
      <trkpt lat="47.81143" lon="-3.44655">
        <ele>45.32</ele>
        <time>2015-09-06T07:59:40Z</time>
      </trkpt>
      <trkpt lat="47.81144" lon="-3.4465">
        <ele>45.32</ele>
        <time>2015-09-06T07:59:41Z</time>
      </trkpt>
      <trkpt lat="47.81145" lon="-3.44644">
        <ele>45.8</ele>
        <time>2015-09-06T07:59:42Z</time>
      </trkpt>
      <trkpt lat="47.81145" lon="-3.44638">
        <ele>45.8</ele>
        <time>2015-09-06T07:59:43Z</time>
      </trkpt>
      <trkpt lat="47.81146" lon="-3.44632">
        <ele>45.8</ele>
        <time>2015-09-06T07:59:44Z</time>
      </trkpt>
      <trkpt lat="47.81146" lon="-3.44626">
        <ele>45.8</ele>
        <time>2015-09-06T07:59:45Z</time>
      </trkpt>
      <trkpt lat="47.81147" lon="-3.4462">
        <ele>45.8</ele>
        <time>2015-09-06T07:59:46Z</time>
      </trkpt>
      <trkpt lat="47.81147" lon="-3.44614">
        <ele>46.28</ele>
        <time>2015-09-06T07:59:47Z</time>
      </trkpt>
      <trkpt lat="47.81148" lon="-3.44608">
        <ele>46.28</ele>
        <time>2015-09-06T07:59:48Z</time>
      </trkpt>
      <trkpt lat="47.81148" lon="-3.44602">
        <ele>46.28</ele>
        <time>2015-09-06T07:59:49Z</time>
      </trkpt>
      <trkpt lat="47.81148" lon="-3.44595">
        <ele>46.28</ele>
        <time>2015-09-06T07:59:50Z</time>
      </trkpt>
      <trkpt lat="47.81149" lon="-3.44589">
        <ele>46.76</ele>
        <time>2015-09-06T07:59:51Z</time>
      </trkpt>
      <trkpt lat="47.81149" lon="-3.44582">
        <ele>46.76</ele>
        <time>2015-09-06T07:59:52Z</time>
      </trkpt>
      <trkpt lat="47.8115" lon="-3.44576">
        <ele>46.76</ele>
        <time>2015-09-06T07:59:53Z</time>
      </trkpt>
      <trkpt lat="47.8115" lon="-3.4457">
        <ele>46.76</ele>
        <time>2015-09-06T07:59:54Z</time>
      </trkpt>
      <trkpt lat="47.81151" lon="-3.44563">
        <ele>46.76</ele>
        <time>2015-09-06T07:59:55Z</time>
      </trkpt>
      <trkpt lat="47.81152" lon="-3.44557">
        <ele>46.76</ele>
        <time>2015-09-06T07:59:56Z</time>
      </trkpt>
      <trkpt lat="47.81152" lon="-3.44551">
        <ele>47.24</ele>
        <time>2015-09-06T07:59:57Z</time>
      </trkpt>
      <trkpt lat="47.81153" lon="-3.44545">
        <ele>47.24</ele>
        <time>2015-09-06T07:59:58Z</time>
      </trkpt>
      <trkpt lat="47.81153" lon="-3.44539">
        <ele>47.24</ele>
        <time>2015-09-06T07:59:59Z</time>
      </trkpt>
      <trkpt lat="47.81154" lon="-3.44532">
        <ele>47.24</ele>
        <time>2015-09-06T08:00:00Z</time>
      </trkpt>
      <trkpt lat="47.81155" lon="-3.44526">
        <ele>47.24</ele>
        <time>2015-09-06T08:00:01Z</time>
      </trkpt>
      <trkpt lat="47.81155" lon="-3.4452">
        <ele>47.24</ele>
        <time>2015-09-06T08:00:02Z</time>
      </trkpt>
      <trkpt lat="47.81156" lon="-3.44513">
        <ele>47.24</ele>
        <time>2015-09-06T08:00:03Z</time>
      </trkpt>
      <trkpt lat="47.81156" lon="-3.44507">
        <ele>47.24</ele>
        <time>2015-09-06T08:00:04Z</time>
      </trkpt>
      <trkpt lat="47.81157" lon="-3.445">
        <ele>47.24</ele>
        <time>2015-09-06T08:00:05Z</time>
      </trkpt>
      <trkpt lat="47.81157" lon="-3.44493">
        <ele>47.24</ele>
        <time>2015-09-06T08:00:06Z</time>
      </trkpt>
      <trkpt lat="47.81158" lon="-3.44486">
        <ele>47.24</ele>
        <time>2015-09-06T08:00:07Z</time>
      </trkpt>
      <trkpt lat="47.81159" lon="-3.44479">
        <ele>47.24</ele>
        <time>2015-09-06T08:00:08Z</time>
      </trkpt>
      <trkpt lat="47.81159" lon="-3.44472">
        <ele>47.24</ele>
        <time>2015-09-06T08:00:09Z</time>
      </trkpt>
      <trkpt lat="47.8116" lon="-3.44464">
        <ele>47.24</ele>
        <time>2015-09-06T08:00:10Z</time>
      </trkpt>
      <trkpt lat="47.8116" lon="-3.44457">
        <ele>47.24</ele>
        <time>2015-09-06T08:00:11Z</time>
      </trkpt>
      <trkpt lat="47.81161" lon="-3.4445">
        <ele>47.24</ele>
        <time>2015-09-06T08:00:12Z</time>
      </trkpt>
      <trkpt lat="47.81162" lon="-3.44442">
        <ele>47.24</ele>
        <time>2015-09-06T08:00:13Z</time>
      </trkpt>
      <trkpt lat="47.81162" lon="-3.44434">
        <ele>47.24</ele>
        <time>2015-09-06T08:00:14Z</time>
      </trkpt>
      <trkpt lat="47.81163" lon="-3.44426">
        <ele>47.24</ele>
        <time>2015-09-06T08:00:15Z</time>
      </trkpt>
      <trkpt lat="47.81164" lon="-3.44418">
        <ele>47.24</ele>
        <time>2015-09-06T08:00:16Z</time>
      </trkpt>
      <trkpt lat="47.81164" lon="-3.4441">
        <ele>47.24</ele>
        <time>2015-09-06T08:00:17Z</time>
      </trkpt>
      <trkpt lat="47.81165" lon="-3.44401">
        <ele>47.24</ele>
        <time>2015-09-06T08:00:18Z</time>
      </trkpt>
      <trkpt lat="47.81166" lon="-3.44393">
        <ele>46.28</ele>
        <time>2015-09-06T08:00:19Z</time>
      </trkpt>
      <trkpt lat="47.81167" lon="-3.44384">
        <ele>46.28</ele>
        <time>2015-09-06T08:00:20Z</time>
      </trkpt>
      <trkpt lat="47.81168" lon="-3.44376">
        <ele>46.28</ele>
        <time>2015-09-06T08:00:21Z</time>
      </trkpt>
      <trkpt lat="47.81168" lon="-3.44367">
        <ele>46.28</ele>
        <time>2015-09-06T08:00:22Z</time>
      </trkpt>
      <trkpt lat="47.81168" lon="-3.44359">
        <ele>45.8</ele>
        <time>2015-09-06T08:00:23Z</time>
      </trkpt>
      <trkpt lat="47.81168" lon="-3.4435">
        <ele>45.32</ele>
        <time>2015-09-06T08:00:24Z</time>
      </trkpt>
      <trkpt lat="47.81167" lon="-3.44343">
        <ele>45.32</ele>
        <time>2015-09-06T08:00:25Z</time>
      </trkpt>
      <trkpt lat="47.81165" lon="-3.44335">
        <ele>45.32</ele>
        <time>2015-09-06T08:00:26Z</time>
      </trkpt>
      <trkpt lat="47.81163" lon="-3.44327">
        <ele>45.32</ele>
        <time>2015-09-06T08:00:27Z</time>
      </trkpt>
      <trkpt lat="47.81161" lon="-3.44319">
        <ele>45.32</ele>
        <time>2015-09-06T08:00:28Z</time>
      </trkpt>
      <trkpt lat="47.81159" lon="-3.44312">
        <ele>45.32</ele>
        <time>2015-09-06T08:00:29Z</time>
      </trkpt>
      <trkpt lat="47.81156" lon="-3.44304">
        <ele>45.32</ele>
        <time>2015-09-06T08:00:30Z</time>
      </trkpt>
      <trkpt lat="47.81155" lon="-3.44296">
        <ele>45.32</ele>
        <time>2015-09-06T08:00:31Z</time>
      </trkpt>
      <trkpt lat="47.81154" lon="-3.44289">
        <ele>45.32</ele>
        <time>2015-09-06T08:00:32Z</time>
      </trkpt>
      <trkpt lat="47.81153" lon="-3.44281">
        <ele>45.32</ele>
        <time>2015-09-06T08:00:33Z</time>
      </trkpt>
      <trkpt lat="47.81153" lon="-3.44274">
        <ele>45.32</ele>
        <time>2015-09-06T08:00:34Z</time>
      </trkpt>
      <trkpt lat="47.81153" lon="-3.44266">
        <ele>45.32</ele>
        <time>2015-09-06T08:00:35Z</time>
      </trkpt>
      <trkpt lat="47.81152" lon="-3.44259">
        <ele>45.8</ele>
        <time>2015-09-06T08:00:36Z</time>
      </trkpt>
      <trkpt lat="47.81152" lon="-3.44252">
        <ele>45.8</ele>
        <time>2015-09-06T08:00:37Z</time>
      </trkpt>
      <trkpt lat="47.81153" lon="-3.44244">
        <ele>45.8</ele>
        <time>2015-09-06T08:00:38Z</time>
      </trkpt>
      <trkpt lat="47.81153" lon="-3.44237">
        <ele>45.8</ele>
        <time>2015-09-06T08:00:39Z</time>
      </trkpt>
      <trkpt lat="47.81153" lon="-3.44229">
        <ele>45.8</ele>
        <time>2015-09-06T08:00:40Z</time>
      </trkpt>
      <trkpt lat="47.81153" lon="-3.44222">
        <ele>45.8</ele>
        <time>2015-09-06T08:00:41Z</time>
      </trkpt>
      <trkpt lat="47.81153" lon="-3.44214">
        <ele>46.76</ele>
        <time>2015-09-06T08:00:42Z</time>
      </trkpt>
      <trkpt lat="47.81153" lon="-3.44206">
        <ele>46.76</ele>
        <time>2015-09-06T08:00:43Z</time>
      </trkpt>
      <trkpt lat="47.81153" lon="-3.44199">
        <ele>46.76</ele>
        <time>2015-09-06T08:00:44Z</time>
      </trkpt>
      <trkpt lat="47.81153" lon="-3.44192">
        <ele>46.76</ele>
        <time>2015-09-06T08:00:45Z</time>
      </trkpt>
      <trkpt lat="47.81154" lon="-3.44184">
        <ele>47.24</ele>
        <time>2015-09-06T08:00:46Z</time>
      </trkpt>
      <trkpt lat="47.81155" lon="-3.44177">
        <ele>47.24</ele>
        <time>2015-09-06T08:00:47Z</time>
      </trkpt>
      <trkpt lat="47.81155" lon="-3.44169">
        <ele>47.24</ele>
        <time>2015-09-06T08:00:48Z</time>
      </trkpt>
      <trkpt lat="47.81155" lon="-3.44162">
        <ele>47.24</ele>
        <time>2015-09-06T08:00:49Z</time>
      </trkpt>
      <trkpt lat="47.81154" lon="-3.44155">
        <ele>47.24</ele>
        <time>2015-09-06T08:00:50Z</time>
      </trkpt>
      <trkpt lat="47.8115" lon="-3.4415">
        <ele>47.72</ele>
        <time>2015-09-06T08:00:51Z</time>
      </trkpt>
      <trkpt lat="47.81146" lon="-3.44148">
        <ele>47.72</ele>
        <time>2015-09-06T08:00:52Z</time>
      </trkpt>
      <trkpt lat="47.81142" lon="-3.44147">
        <ele>47.72</ele>
        <time>2015-09-06T08:00:53Z</time>
      </trkpt>
      <trkpt lat="47.81138" lon="-3.44146">
        <ele>47.72</ele>
        <time>2015-09-06T08:00:54Z</time>
      </trkpt>
      <trkpt lat="47.81133" lon="-3.44144">
        <ele>47.72</ele>
        <time>2015-09-06T08:00:55Z</time>
      </trkpt>
      <trkpt lat="47.81127" lon="-3.44142">
        <ele>47.72</ele>
        <time>2015-09-06T08:00:56Z</time>
      </trkpt>
      <trkpt lat="47.81122" lon="-3.4414">
        <ele>47.72</ele>
        <time>2015-09-06T08:00:57Z</time>
      </trkpt>
      <trkpt lat="47.81117" lon="-3.44138">
        <ele>47.72</ele>
        <time>2015-09-06T08:00:58Z</time>
      </trkpt>
      <trkpt lat="47.81112" lon="-3.44136">
        <ele>47.72</ele>
        <time>2015-09-06T08:00:59Z</time>
      </trkpt>
      <trkpt lat="47.81106" lon="-3.44135">
        <ele>47.72</ele>
        <time>2015-09-06T08:01:00Z</time>
      </trkpt>
      <trkpt lat="47.81101" lon="-3.44134">
        <ele>47.72</ele>
        <time>2015-09-06T08:01:01Z</time>
      </trkpt>
      <trkpt lat="47.81096" lon="-3.44133">
        <ele>47.72</ele>
        <time>2015-09-06T08:01:02Z</time>
      </trkpt>
      <trkpt lat="47.8109" lon="-3.44133">
        <ele>47.72</ele>
        <time>2015-09-06T08:01:03Z</time>
      </trkpt>
      <trkpt lat="47.81085" lon="-3.44133">
        <ele>47.72</ele>
        <time>2015-09-06T08:01:04Z</time>
      </trkpt>
      <trkpt lat="47.81079" lon="-3.44133">
        <ele>47.72</ele>
        <time>2015-09-06T08:01:05Z</time>
      </trkpt>
      <trkpt lat="47.81073" lon="-3.44133">
        <ele>47.72</ele>
        <time>2015-09-06T08:01:06Z</time>
      </trkpt>
      <trkpt lat="47.81067" lon="-3.44133">
        <ele>47.72</ele>
        <time>2015-09-06T08:01:07Z</time>
      </trkpt>
      <trkpt lat="47.81062" lon="-3.44133">
        <ele>47.72</ele>
        <time>2015-09-06T08:01:08Z</time>
      </trkpt>
      <trkpt lat="47.81055" lon="-3.44133">
        <ele>47.72</ele>
        <time>2015-09-06T08:01:09Z</time>
      </trkpt>
      <trkpt lat="47.8105" lon="-3.44134">
        <ele>47.72</ele>
        <time>2015-09-06T08:01:10Z</time>
      </trkpt>
      <trkpt lat="47.81045" lon="-3.44134">
        <ele>47.72</ele>
        <time>2015-09-06T08:01:11Z</time>
      </trkpt>
      <trkpt lat="47.8104" lon="-3.44134">
        <ele>47.72</ele>
        <time>2015-09-06T08:01:12Z</time>
      </trkpt>
      <trkpt lat="47.81034" lon="-3.44135">
        <ele>47.72</ele>
        <time>2015-09-06T08:01:13Z</time>
      </trkpt>
      <trkpt lat="47.81029" lon="-3.44135">
        <ele>47.72</ele>
        <time>2015-09-06T08:01:14Z</time>
      </trkpt>
      <trkpt lat="47.81023" lon="-3.44135">
        <ele>48.2</ele>
        <time>2015-09-06T08:01:15Z</time>
      </trkpt>
      <trkpt lat="47.81018" lon="-3.44136">
        <ele>48.2</ele>
        <time>2015-09-06T08:01:16Z</time>
      </trkpt>
      <trkpt lat="47.81014" lon="-3.44136">
        <ele>48.2</ele>
        <time>2015-09-06T08:01:17Z</time>
      </trkpt>
      <trkpt lat="47.81009" lon="-3.44136">
        <ele>48.2</ele>
        <time>2015-09-06T08:01:18Z</time>
      </trkpt>
      <trkpt lat="47.81003" lon="-3.44136">
        <ele>48.68</ele>
        <time>2015-09-06T08:01:19Z</time>
      </trkpt>
      <trkpt lat="47.80999" lon="-3.44136">
        <ele>48.68</ele>
        <time>2015-09-06T08:01:20Z</time>
      </trkpt>
      <trkpt lat="47.80994" lon="-3.44137">
        <ele>48.68</ele>
        <time>2015-09-06T08:01:21Z</time>
      </trkpt>
      <trkpt lat="47.80989" lon="-3.44137">
        <ele>49.16</ele>
        <time>2015-09-06T08:01:22Z</time>
      </trkpt>
      <trkpt lat="47.80984" lon="-3.44137">
        <ele>49.16</ele>
        <time>2015-09-06T08:01:23Z</time>
      </trkpt>
      <trkpt lat="47.8098" lon="-3.44137">
        <ele>49.16</ele>
        <time>2015-09-06T08:01:24Z</time>
      </trkpt>
      <trkpt lat="47.80975" lon="-3.44138">
        <ele>50.13</ele>
        <time>2015-09-06T08:01:25Z</time>
      </trkpt>
      <trkpt lat="47.80971" lon="-3.44138">
        <ele>50.13</ele>
        <time>2015-09-06T08:01:26Z</time>
      </trkpt>
      <trkpt lat="47.80968" lon="-3.44139">
        <ele>50.61</ele>
        <time>2015-09-06T08:01:27Z</time>
      </trkpt>
      <trkpt lat="47.80964" lon="-3.44141">
        <ele>50.61</ele>
        <time>2015-09-06T08:01:28Z</time>
      </trkpt>
      <trkpt lat="47.80961" lon="-3.44145">
        <ele>50.13</ele>
        <time>2015-09-06T08:01:29Z</time>
      </trkpt>
      <trkpt lat="47.80959" lon="-3.44148">
        <ele>50.61</ele>
        <time>2015-09-06T08:01:30Z</time>
      </trkpt>
      <trkpt lat="47.80958" lon="-3.44154">
        <ele>50.61</ele>
        <time>2015-09-06T08:01:31Z</time>
      </trkpt>
      <trkpt lat="47.80957" lon="-3.44161">
        <ele>50.61</ele>
        <time>2015-09-06T08:01:32Z</time>
      </trkpt>
      <trkpt lat="47.80957" lon="-3.44168">
        <ele>50.61</ele>
        <time>2015-09-06T08:01:33Z</time>
      </trkpt>
      <trkpt lat="47.80957" lon="-3.44176">
        <ele>50.13</ele>
        <time>2015-09-06T08:01:34Z</time>
      </trkpt>
      <trkpt lat="47.80957" lon="-3.44184">
        <ele>49.16</ele>
        <time>2015-09-06T08:01:35Z</time>
      </trkpt>
      <trkpt lat="47.80957" lon="-3.44192">
        <ele>49.16</ele>
        <time>2015-09-06T08:01:36Z</time>
      </trkpt>
      <trkpt lat="47.80958" lon="-3.44202">
        <ele>49.16</ele>
        <time>2015-09-06T08:01:37Z</time>
      </trkpt>
      <trkpt lat="47.80958" lon="-3.4421">
        <ele>49.16</ele>
        <time>2015-09-06T08:01:38Z</time>
      </trkpt>
      <trkpt lat="47.80959" lon="-3.44221">
        <ele>48.68</ele>
        <time>2015-09-06T08:01:39Z</time>
      </trkpt>
      <trkpt lat="47.80959" lon="-3.44227">
        <ele>48.68</ele>
        <time>2015-09-06T08:01:40Z</time>
      </trkpt>
      <trkpt lat="47.80959" lon="-3.44236">
        <ele>48.68</ele>
        <time>2015-09-06T08:01:41Z</time>
      </trkpt>
      <trkpt lat="47.80959" lon="-3.44245">
        <ele>48.68</ele>
        <time>2015-09-06T08:01:42Z</time>
      </trkpt>
      <trkpt lat="47.80958" lon="-3.44253">
        <ele>48.68</ele>
        <time>2015-09-06T08:01:43Z</time>
      </trkpt>
      <trkpt lat="47.80957" lon="-3.44261">
        <ele>48.68</ele>
        <time>2015-09-06T08:01:44Z</time>
      </trkpt>
      <trkpt lat="47.80956" lon="-3.44269">
        <ele>48.68</ele>
        <time>2015-09-06T08:01:45Z</time>
      </trkpt>
      <trkpt lat="47.80954" lon="-3.44278">
        <ele>48.68</ele>
        <time>2015-09-06T08:01:46Z</time>
      </trkpt>
      <trkpt lat="47.80954" lon="-3.44286">
        <ele>48.2</ele>
        <time>2015-09-06T08:01:47Z</time>
      </trkpt>
      <trkpt lat="47.80952" lon="-3.44295">
        <ele>48.2</ele>
        <time>2015-09-06T08:01:48Z</time>
      </trkpt>
      <trkpt lat="47.80951" lon="-3.44304">
        <ele>48.2</ele>
        <time>2015-09-06T08:01:49Z</time>
      </trkpt>
      <trkpt lat="47.8095" lon="-3.44312">
        <ele>48.2</ele>
        <time>2015-09-06T08:01:50Z</time>
      </trkpt>
      <trkpt lat="47.80948" lon="-3.44321">
        <ele>47.72</ele>
        <time>2015-09-06T08:01:51Z</time>
      </trkpt>
      <trkpt lat="47.80947" lon="-3.4433">
        <ele>47.72</ele>
        <time>2015-09-06T08:01:52Z</time>
      </trkpt>
      <trkpt lat="47.80945" lon="-3.44339">
        <ele>47.24</ele>
        <time>2015-09-06T08:01:53Z</time>
      </trkpt>
      <trkpt lat="47.80943" lon="-3.4435">
        <ele>47.24</ele>
        <time>2015-09-06T08:01:54Z</time>
      </trkpt>
      <trkpt lat="47.80941" lon="-3.44359">
        <ele>46.76</ele>
        <time>2015-09-06T08:01:55Z</time>
      </trkpt>
      <trkpt lat="47.8094" lon="-3.44369">
        <ele>46.28</ele>
        <time>2015-09-06T08:01:56Z</time>
      </trkpt>
      <trkpt lat="47.80938" lon="-3.44379">
        <ele>45.8</ele>
        <time>2015-09-06T08:01:57Z</time>
      </trkpt>
      <trkpt lat="47.80936" lon="-3.44389">
        <ele>45.32</ele>
        <time>2015-09-06T08:01:58Z</time>
      </trkpt>
      <trkpt lat="47.80934" lon="-3.44399">
        <ele>45.32</ele>
        <time>2015-09-06T08:01:59Z</time>
      </trkpt>
      <trkpt lat="47.80932" lon="-3.4441">
        <ele>44.84</ele>
        <time>2015-09-06T08:02:00Z</time>
      </trkpt>
      <trkpt lat="47.8093" lon="-3.4442">
        <ele>44.84</ele>
        <time>2015-09-06T08:02:01Z</time>
      </trkpt>
      <trkpt lat="47.80928" lon="-3.44431">
        <ele>44.84</ele>
        <time>2015-09-06T08:02:02Z</time>
      </trkpt>
      <trkpt lat="47.80926" lon="-3.44441">
        <ele>44.84</ele>
        <time>2015-09-06T08:02:03Z</time>
      </trkpt>
      <trkpt lat="47.80924" lon="-3.44451">
        <ele>43.88</ele>
        <time>2015-09-06T08:02:04Z</time>
      </trkpt>
      <trkpt lat="47.80923" lon="-3.44462">
        <ele>43.88</ele>
        <time>2015-09-06T08:02:05Z</time>
      </trkpt>
      <trkpt lat="47.80921" lon="-3.44472">
        <ele>43.88</ele>
        <time>2015-09-06T08:02:06Z</time>
      </trkpt>
      <trkpt lat="47.8092" lon="-3.44484">
        <ele>42.92</ele>
        <time>2015-09-06T08:02:07Z</time>
      </trkpt>
      <trkpt lat="47.80918" lon="-3.44494">
        <ele>42.44</ele>
        <time>2015-09-06T08:02:08Z</time>
      </trkpt>
      <trkpt lat="47.80917" lon="-3.44506">
        <ele>41.95</ele>
        <time>2015-09-06T08:02:09Z</time>
      </trkpt>
      <trkpt lat="47.80915" lon="-3.44517">
        <ele>41.47</ele>
        <time>2015-09-06T08:02:10Z</time>
      </trkpt>
      <trkpt lat="47.80914" lon="-3.44529">
        <ele>40.99</ele>
        <time>2015-09-06T08:02:11Z</time>
      </trkpt>
      <trkpt lat="47.80912" lon="-3.4454">
        <ele>40.99</ele>
        <time>2015-09-06T08:02:12Z</time>
      </trkpt>
      <trkpt lat="47.8091" lon="-3.44551">
        <ele>40.03</ele>
        <time>2015-09-06T08:02:13Z</time>
      </trkpt>
      <trkpt lat="47.80907" lon="-3.44561">
        <ele>40.03</ele>
        <time>2015-09-06T08:02:14Z</time>
      </trkpt>
      <trkpt lat="47.80904" lon="-3.44569">
        <ele>40.03</ele>
        <time>2015-09-06T08:02:15Z</time>
      </trkpt>
      <trkpt lat="47.809" lon="-3.44578">
        <ele>40.03</ele>
        <time>2015-09-06T08:02:16Z</time>
      </trkpt>
      <trkpt lat="47.80898" lon="-3.44586">
        <ele>40.03</ele>
        <time>2015-09-06T08:02:17Z</time>
      </trkpt>
      <trkpt lat="47.80895" lon="-3.44593">
        <ele>40.03</ele>
        <time>2015-09-06T08:02:18Z</time>
      </trkpt>
      <trkpt lat="47.80891" lon="-3.44598">
        <ele>40.03</ele>
        <time>2015-09-06T08:02:19Z</time>
      </trkpt>
      <trkpt lat="47.80886" lon="-3.44599">
        <ele>40.03</ele>
        <time>2015-09-06T08:02:20Z</time>
      </trkpt>
      <trkpt lat="47.8088" lon="-3.44597">
        <ele>40.03</ele>
        <time>2015-09-06T08:02:21Z</time>
      </trkpt>
      <trkpt lat="47.80876" lon="-3.44595">
        <ele>40.51</ele>
        <time>2015-09-06T08:02:22Z</time>
      </trkpt>
      <trkpt lat="47.80871" lon="-3.44592">
        <ele>40.51</ele>
        <time>2015-09-06T08:02:23Z</time>
      </trkpt>
      <trkpt lat="47.80866" lon="-3.44589">
        <ele>40.51</ele>
        <time>2015-09-06T08:02:24Z</time>
      </trkpt>
      <trkpt lat="47.80862" lon="-3.44586">
        <ele>40.51</ele>
        <time>2015-09-06T08:02:25Z</time>
      </trkpt>
      <trkpt lat="47.80858" lon="-3.44583">
        <ele>40.51</ele>
        <time>2015-09-06T08:02:26Z</time>
      </trkpt>
      <trkpt lat="47.80853" lon="-3.44579">
        <ele>40.51</ele>
        <time>2015-09-06T08:02:27Z</time>
      </trkpt>
      <trkpt lat="47.80849" lon="-3.44576">
        <ele>40.51</ele>
        <time>2015-09-06T08:02:28Z</time>
      </trkpt>
      <trkpt lat="47.80844" lon="-3.44573">
        <ele>40.51</ele>
        <time>2015-09-06T08:02:29Z</time>
      </trkpt>
      <trkpt lat="47.8084" lon="-3.4457">
        <ele>41.47</ele>
        <time>2015-09-06T08:02:30Z</time>
      </trkpt>
      <trkpt lat="47.80836" lon="-3.44568">
        <ele>41.47</ele>
        <time>2015-09-06T08:02:31Z</time>
      </trkpt>
      <trkpt lat="47.80831" lon="-3.44565">
        <ele>41.47</ele>
        <time>2015-09-06T08:02:32Z</time>
      </trkpt>
      <trkpt lat="47.80827" lon="-3.44563">
        <ele>41.95</ele>
        <time>2015-09-06T08:02:33Z</time>
      </trkpt>
      <trkpt lat="47.80823" lon="-3.44561">
        <ele>41.95</ele>
        <time>2015-09-06T08:02:34Z</time>
      </trkpt>
      <trkpt lat="47.80819" lon="-3.44558">
        <ele>41.95</ele>
        <time>2015-09-06T08:02:35Z</time>
      </trkpt>
      <trkpt lat="47.80814" lon="-3.44556">
        <ele>41.95</ele>
        <time>2015-09-06T08:02:36Z</time>
      </trkpt>
      <trkpt lat="47.8081" lon="-3.44553">
        <ele>42.44</ele>
        <time>2015-09-06T08:02:37Z</time>
      </trkpt>
      <trkpt lat="47.80805" lon="-3.44551">
        <ele>42.44</ele>
        <time>2015-09-06T08:02:38Z</time>
      </trkpt>
      <trkpt lat="47.80801" lon="-3.44549">
        <ele>42.44</ele>
        <time>2015-09-06T08:02:39Z</time>
      </trkpt>
      <trkpt lat="47.80796" lon="-3.44547">
        <ele>42.44</ele>
        <time>2015-09-06T08:02:40Z</time>
      </trkpt>
      <trkpt lat="47.80791" lon="-3.44545">
        <ele>42.92</ele>
        <time>2015-09-06T08:02:41Z</time>
      </trkpt>
      <trkpt lat="47.80787" lon="-3.44543">
        <ele>42.92</ele>
        <time>2015-09-06T08:02:42Z</time>
      </trkpt>
      <trkpt lat="47.80782" lon="-3.44541">
        <ele>42.92</ele>
        <time>2015-09-06T08:02:43Z</time>
      </trkpt>
      <trkpt lat="47.80777" lon="-3.44539">
        <ele>42.92</ele>
        <time>2015-09-06T08:02:44Z</time>
      </trkpt>
      <trkpt lat="47.80772" lon="-3.44537">
        <ele>42.92</ele>
        <time>2015-09-06T08:02:45Z</time>
      </trkpt>
      <trkpt lat="47.80767" lon="-3.44534">
        <ele>42.92</ele>
        <time>2015-09-06T08:02:46Z</time>
      </trkpt>
      <trkpt lat="47.80762" lon="-3.44533">
        <ele>42.92</ele>
        <time>2015-09-06T08:02:47Z</time>
      </trkpt>
      <trkpt lat="47.80757" lon="-3.44531">
        <ele>42.92</ele>
        <time>2015-09-06T08:02:48Z</time>
      </trkpt>
      <trkpt lat="47.80752" lon="-3.44528">
        <ele>42.92</ele>
        <time>2015-09-06T08:02:49Z</time>
      </trkpt>
      <trkpt lat="47.80746" lon="-3.44526">
        <ele>42.92</ele>
        <time>2015-09-06T08:02:50Z</time>
      </trkpt>
      <trkpt lat="47.80741" lon="-3.44524">
        <ele>42.92</ele>
        <time>2015-09-06T08:02:51Z</time>
      </trkpt>
      <trkpt lat="47.80735" lon="-3.44522">
        <ele>42.92</ele>
        <time>2015-09-06T08:02:52Z</time>
      </trkpt>
      <trkpt lat="47.8073" lon="-3.4452">
        <ele>42.92</ele>
        <time>2015-09-06T08:02:53Z</time>
      </trkpt>
      <trkpt lat="47.80725" lon="-3.44518">
        <ele>42.92</ele>
        <time>2015-09-06T08:02:54Z</time>
      </trkpt>
      <trkpt lat="47.80719" lon="-3.44516">
        <ele>42.92</ele>
        <time>2015-09-06T08:02:55Z</time>
      </trkpt>
      <trkpt lat="47.80714" lon="-3.44513">
        <ele>42.92</ele>
        <time>2015-09-06T08:02:56Z</time>
      </trkpt>
      <trkpt lat="47.80707" lon="-3.44511">
        <ele>42.92</ele>
        <time>2015-09-06T08:02:57Z</time>
      </trkpt>
      <trkpt lat="47.80702" lon="-3.44509">
        <ele>42.92</ele>
        <time>2015-09-06T08:02:58Z</time>
      </trkpt>
      <trkpt lat="47.80697" lon="-3.44506">
        <ele>42.92</ele>
        <time>2015-09-06T08:02:59Z</time>
      </trkpt>
      <trkpt lat="47.80691" lon="-3.44504">
        <ele>42.92</ele>
        <time>2015-09-06T08:03:00Z</time>
      </trkpt>
      <trkpt lat="47.80686" lon="-3.44502">
        <ele>42.92</ele>
        <time>2015-09-06T08:03:01Z</time>
      </trkpt>
      <trkpt lat="47.8068" lon="-3.445">
        <ele>42.92</ele>
        <time>2015-09-06T08:03:02Z</time>
      </trkpt>
      <trkpt lat="47.80676" lon="-3.445">
        <ele>42.92</ele>
        <time>2015-09-06T08:03:03Z</time>
      </trkpt>
      <trkpt lat="47.80672" lon="-3.44503">
        <ele>42.92</ele>
        <time>2015-09-06T08:03:04Z</time>
      </trkpt>
      <trkpt lat="47.80667" lon="-3.4451">
        <ele>42.92</ele>
        <time>2015-09-06T08:03:05Z</time>
      </trkpt>
      <trkpt lat="47.80666" lon="-3.44514">
        <ele>42.92</ele>
        <time>2015-09-06T08:03:06Z</time>
      </trkpt>
      <trkpt lat="47.80665" lon="-3.44522">
        <ele>42.92</ele>
        <time>2015-09-06T08:03:07Z</time>
      </trkpt>
      <trkpt lat="47.80664" lon="-3.4453">
        <ele>42.92</ele>
        <time>2015-09-06T08:03:08Z</time>
      </trkpt>
      <trkpt lat="47.80664" lon="-3.44538">
        <ele>42.92</ele>
        <time>2015-09-06T08:03:09Z</time>
      </trkpt>
      <trkpt lat="47.80665" lon="-3.44546">
        <ele>42.92</ele>
        <time>2015-09-06T08:03:10Z</time>
      </trkpt>
      <trkpt lat="47.80665" lon="-3.44555">
        <ele>42.92</ele>
        <time>2015-09-06T08:03:11Z</time>
      </trkpt>
      <trkpt lat="47.80665" lon="-3.44563">
        <ele>42.92</ele>
        <time>2015-09-06T08:03:12Z</time>
      </trkpt>
      <trkpt lat="47.80665" lon="-3.44572">
        <ele>42.92</ele>
        <time>2015-09-06T08:03:13Z</time>
      </trkpt>
      <trkpt lat="47.80664" lon="-3.44581">
        <ele>41.47</ele>
        <time>2015-09-06T08:03:14Z</time>
      </trkpt>
      <trkpt lat="47.80664" lon="-3.44589">
        <ele>41.47</ele>
        <time>2015-09-06T08:03:15Z</time>
      </trkpt>
      <trkpt lat="47.80664" lon="-3.44599">
        <ele>41.47</ele>
        <time>2015-09-06T08:03:16Z</time>
      </trkpt>
      <trkpt lat="47.80664" lon="-3.44608">
        <ele>40.99</ele>
        <time>2015-09-06T08:03:17Z</time>
      </trkpt>
      <trkpt lat="47.80665" lon="-3.44617">
        <ele>40.99</ele>
        <time>2015-09-06T08:03:18Z</time>
      </trkpt>
      <trkpt lat="47.80665" lon="-3.44627">
        <ele>40.51</ele>
        <time>2015-09-06T08:03:19Z</time>
      </trkpt>
      <trkpt lat="47.80667" lon="-3.44636">
        <ele>40.51</ele>
        <time>2015-09-06T08:03:20Z</time>
      </trkpt>
      <trkpt lat="47.80669" lon="-3.44645">
        <ele>40.51</ele>
        <time>2015-09-06T08:03:21Z</time>
      </trkpt>
      <trkpt lat="47.80673" lon="-3.44653">
        <ele>40.51</ele>
        <time>2015-09-06T08:03:22Z</time>
      </trkpt>
      <trkpt lat="47.80676" lon="-3.44661">
        <ele>40.03</ele>
        <time>2015-09-06T08:03:23Z</time>
      </trkpt>
      <trkpt lat="47.80679" lon="-3.4467">
        <ele>39.55</ele>
        <time>2015-09-06T08:03:24Z</time>
      </trkpt>
      <trkpt lat="47.80682" lon="-3.44679">
        <ele>39.55</ele>
        <time>2015-09-06T08:03:25Z</time>
      </trkpt>
      <trkpt lat="47.80684" lon="-3.44687">
        <ele>39.55</ele>
        <time>2015-09-06T08:03:26Z</time>
      </trkpt>
      <trkpt lat="47.80687" lon="-3.44696">
        <ele>39.55</ele>
        <time>2015-09-06T08:03:27Z</time>
      </trkpt>
      <trkpt lat="47.8069" lon="-3.44704">
        <ele>39.55</ele>
        <time>2015-09-06T08:03:28Z</time>
      </trkpt>
      <trkpt lat="47.80692" lon="-3.44712">
        <ele>39.55</ele>
        <time>2015-09-06T08:03:29Z</time>
      </trkpt>
      <trkpt lat="47.80694" lon="-3.44721">
        <ele>39.55</ele>
        <time>2015-09-06T08:03:30Z</time>
      </trkpt>
      <trkpt lat="47.80695" lon="-3.44729">
        <ele>39.55</ele>
        <time>2015-09-06T08:03:31Z</time>
      </trkpt>
      <trkpt lat="47.80696" lon="-3.44737">
        <ele>39.55</ele>
        <time>2015-09-06T08:03:32Z</time>
      </trkpt>
      <trkpt lat="47.80697" lon="-3.44746">
        <ele>39.55</ele>
        <time>2015-09-06T08:03:33Z</time>
      </trkpt>
      <trkpt lat="47.80697" lon="-3.44755">
        <ele>39.55</ele>
        <time>2015-09-06T08:03:34Z</time>
      </trkpt>
      <trkpt lat="47.80698" lon="-3.44763">
        <ele>39.55</ele>
        <time>2015-09-06T08:03:35Z</time>
      </trkpt>
      <trkpt lat="47.80699" lon="-3.44772">
        <ele>39.55</ele>
        <time>2015-09-06T08:03:36Z</time>
      </trkpt>
      <trkpt lat="47.807" lon="-3.4478">
        <ele>39.55</ele>
        <time>2015-09-06T08:03:37Z</time>
      </trkpt>
      <trkpt lat="47.807" lon="-3.44789">
        <ele>39.55</ele>
        <time>2015-09-06T08:03:38Z</time>
      </trkpt>
      <trkpt lat="47.80701" lon="-3.44799">
        <ele>39.55</ele>
        <time>2015-09-06T08:03:39Z</time>
      </trkpt>
      <trkpt lat="47.80702" lon="-3.44808">
        <ele>39.07</ele>
        <time>2015-09-06T08:03:40Z</time>
      </trkpt>
      <trkpt lat="47.80703" lon="-3.44817">
        <ele>39.07</ele>
        <time>2015-09-06T08:03:41Z</time>
      </trkpt>
      <trkpt lat="47.80704" lon="-3.44828">
        <ele>39.07</ele>
        <time>2015-09-06T08:03:42Z</time>
      </trkpt>
      <trkpt lat="47.80705" lon="-3.44837">
        <ele>39.07</ele>
        <time>2015-09-06T08:03:43Z</time>
      </trkpt>
      <trkpt lat="47.80706" lon="-3.44847">
        <ele>38.59</ele>
        <time>2015-09-06T08:03:44Z</time>
      </trkpt>
      <trkpt lat="47.80707" lon="-3.44857">
        <ele>38.59</ele>
        <time>2015-09-06T08:03:45Z</time>
      </trkpt>
      <trkpt lat="47.80708" lon="-3.44867">
        <ele>38.11</ele>
        <time>2015-09-06T08:03:46Z</time>
      </trkpt>
      <trkpt lat="47.80708" lon="-3.44876">
        <ele>38.11</ele>
        <time>2015-09-06T08:03:47Z</time>
      </trkpt>
      <trkpt lat="47.80708" lon="-3.44884">
        <ele>38.11</ele>
        <time>2015-09-06T08:03:48Z</time>
      </trkpt>
      <trkpt lat="47.80709" lon="-3.4489">
        <ele>38.11</ele>
        <time>2015-09-06T08:03:49Z</time>
      </trkpt>
      <trkpt lat="47.80708" lon="-3.44894">
        <ele>37.63</ele>
        <time>2015-09-06T08:03:50Z</time>
      </trkpt>
      <trkpt lat="47.80709" lon="-3.44897">
        <ele>37.63</ele>
        <time>2015-09-06T08:03:51Z</time>
      </trkpt>
      <trkpt lat="47.8071" lon="-3.449">
        <ele>37.63</ele>
        <time>2015-09-06T08:03:52Z</time>
      </trkpt>
      <trkpt lat="47.80712" lon="-3.44904">
        <ele>37.63</ele>
        <time>2015-09-06T08:03:53Z</time>
      </trkpt>
      <trkpt lat="47.80712" lon="-3.44907">
        <ele>37.63</ele>
        <time>2015-09-06T08:03:54Z</time>
      </trkpt>
      <trkpt lat="47.80711" lon="-3.44913">
        <ele>37.63</ele>
        <time>2015-09-06T08:03:55Z</time>
      </trkpt>
      <trkpt lat="47.8071" lon="-3.44915">
        <ele>37.63</ele>
        <time>2015-09-06T08:03:56Z</time>
      </trkpt>
      <trkpt lat="47.80708" lon="-3.44918">
        <ele>37.63</ele>
        <time>2015-09-06T08:03:57Z</time>
      </trkpt>
      <trkpt lat="47.80705" lon="-3.44921">
        <ele>37.63</ele>
        <time>2015-09-06T08:03:58Z</time>
      </trkpt>
      <trkpt lat="47.80703" lon="-3.44924">
        <ele>37.63</ele>
        <time>2015-09-06T08:03:59Z</time>
      </trkpt>
      <trkpt lat="47.807" lon="-3.44927">
        <ele>37.63</ele>
        <time>2015-09-06T08:04:00Z</time>
      </trkpt>
      <trkpt lat="47.80696" lon="-3.44932">
        <ele>37.63</ele>
        <time>2015-09-06T08:04:01Z</time>
      </trkpt>
      <trkpt lat="47.80694" lon="-3.44935">
        <ele>37.63</ele>
        <time>2015-09-06T08:04:02Z</time>
      </trkpt>
      <trkpt lat="47.80691" lon="-3.4494">
        <ele>37.63</ele>
        <time>2015-09-06T08:04:03Z</time>
      </trkpt>
      <trkpt lat="47.80688" lon="-3.44943">
        <ele>37.63</ele>
        <time>2015-09-06T08:04:04Z</time>
      </trkpt>
      <trkpt lat="47.80686" lon="-3.44946">
        <ele>37.63</ele>
        <time>2015-09-06T08:04:05Z</time>
      </trkpt>
      <trkpt lat="47.80683" lon="-3.44946">
        <ele>37.63</ele>
        <time>2015-09-06T08:04:06Z</time>
      </trkpt>
      <trkpt lat="47.80681" lon="-3.44943">
        <ele>37.63</ele>
        <time>2015-09-06T08:04:07Z</time>
      </trkpt>
      <trkpt lat="47.8068" lon="-3.44939">
        <ele>37.63</ele>
        <time>2015-09-06T08:04:08Z</time>
      </trkpt>
      <trkpt lat="47.80679" lon="-3.44935">
        <ele>37.63</ele>
        <time>2015-09-06T08:04:09Z</time>
      </trkpt>
      <trkpt lat="47.80677" lon="-3.44935">
        <ele>37.63</ele>
        <time>2015-09-06T08:04:10Z</time>
      </trkpt>
      <trkpt lat="47.80675" lon="-3.44936">
        <ele>37.63</ele>
        <time>2015-09-06T08:04:11Z</time>
      </trkpt>
      <trkpt lat="47.80674" lon="-3.44939">
        <ele>37.63</ele>
        <time>2015-09-06T08:04:12Z</time>
      </trkpt>
      <trkpt lat="47.80672" lon="-3.44942">
        <ele>37.63</ele>
        <time>2015-09-06T08:04:13Z</time>
      </trkpt>
      <trkpt lat="47.80671" lon="-3.44943">
        <ele>37.63</ele>
        <time>2015-09-06T08:04:14Z</time>
      </trkpt>
      <trkpt lat="47.80668" lon="-3.44943">
        <ele>38.59</ele>
        <time>2015-09-06T08:04:15Z</time>
      </trkpt>
      <trkpt lat="47.80665" lon="-3.44943">
        <ele>38.59</ele>
        <time>2015-09-06T08:04:16Z</time>
      </trkpt>
      <trkpt lat="47.80662" lon="-3.44943">
        <ele>38.59</ele>
        <time>2015-09-06T08:04:17Z</time>
      </trkpt>
      <trkpt lat="47.80658" lon="-3.44942">
        <ele>38.59</ele>
        <time>2015-09-06T08:04:18Z</time>
      </trkpt>
      <trkpt lat="47.80655" lon="-3.44942">
        <ele>38.59</ele>
        <time>2015-09-06T08:04:19Z</time>
      </trkpt>
      <trkpt lat="47.80651" lon="-3.44941">
        <ele>38.59</ele>
        <time>2015-09-06T08:04:20Z</time>
      </trkpt>
      <trkpt lat="47.80648" lon="-3.44941">
        <ele>38.59</ele>
        <time>2015-09-06T08:04:21Z</time>
      </trkpt>
      <trkpt lat="47.80644" lon="-3.4494">
        <ele>38.59</ele>
        <time>2015-09-06T08:04:22Z</time>
      </trkpt>
      <trkpt lat="47.8064" lon="-3.44939">
        <ele>38.59</ele>
        <time>2015-09-06T08:04:23Z</time>
      </trkpt>
      <trkpt lat="47.80637" lon="-3.44939">
        <ele>38.59</ele>
        <time>2015-09-06T08:04:24Z</time>
      </trkpt>
      <trkpt lat="47.80633" lon="-3.44938">
        <ele>38.59</ele>
        <time>2015-09-06T08:04:25Z</time>
      </trkpt>
      <trkpt lat="47.80629" lon="-3.44936">
        <ele>38.59</ele>
        <time>2015-09-06T08:04:26Z</time>
      </trkpt>
      <trkpt lat="47.80625" lon="-3.44935">
        <ele>38.59</ele>
        <time>2015-09-06T08:04:27Z</time>
      </trkpt>
      <trkpt lat="47.80621" lon="-3.44933">
        <ele>38.59</ele>
        <time>2015-09-06T08:04:28Z</time>
      </trkpt>
      <trkpt lat="47.80617" lon="-3.44932">
        <ele>38.59</ele>
        <time>2015-09-06T08:04:29Z</time>
      </trkpt>
      <trkpt lat="47.80613" lon="-3.4493">
        <ele>38.59</ele>
        <time>2015-09-06T08:04:30Z</time>
      </trkpt>
      <trkpt lat="47.80608" lon="-3.44928">
        <ele>38.59</ele>
        <time>2015-09-06T08:04:31Z</time>
      </trkpt>
      <trkpt lat="47.80605" lon="-3.44927">
        <ele>38.59</ele>
        <time>2015-09-06T08:04:32Z</time>
      </trkpt>
      <trkpt lat="47.80601" lon="-3.44924">
        <ele>38.59</ele>
        <time>2015-09-06T08:04:33Z</time>
      </trkpt>
      <trkpt lat="47.80597" lon="-3.44922">
        <ele>38.59</ele>
        <time>2015-09-06T08:04:34Z</time>
      </trkpt>
      <trkpt lat="47.80592" lon="-3.4492">
        <ele>38.59</ele>
        <time>2015-09-06T08:04:35Z</time>
      </trkpt>
      <trkpt lat="47.80588" lon="-3.44919">
        <ele>38.59</ele>
        <time>2015-09-06T08:04:36Z</time>
      </trkpt>
      <trkpt lat="47.80584" lon="-3.44917">
        <ele>38.59</ele>
        <time>2015-09-06T08:04:37Z</time>
      </trkpt>
      <trkpt lat="47.8058" lon="-3.44915">
        <ele>39.07</ele>
        <time>2015-09-06T08:04:38Z</time>
      </trkpt>
      <trkpt lat="47.80576" lon="-3.44913">
        <ele>39.07</ele>
        <time>2015-09-06T08:04:39Z</time>
      </trkpt>
      <trkpt lat="47.80571" lon="-3.44911">
        <ele>39.07</ele>
        <time>2015-09-06T08:04:40Z</time>
      </trkpt>
      <trkpt lat="47.80568" lon="-3.44909">
        <ele>39.07</ele>
        <time>2015-09-06T08:04:41Z</time>
      </trkpt>
      <trkpt lat="47.80564" lon="-3.44907">
        <ele>39.07</ele>
        <time>2015-09-06T08:04:42Z</time>
      </trkpt>
      <trkpt lat="47.80559" lon="-3.44905">
        <ele>39.07</ele>
        <time>2015-09-06T08:04:43Z</time>
      </trkpt>
      <trkpt lat="47.80556" lon="-3.44904">
        <ele>39.07</ele>
        <time>2015-09-06T08:04:44Z</time>
      </trkpt>
      <trkpt lat="47.80552" lon="-3.44902">
        <ele>39.55</ele>
        <time>2015-09-06T08:04:45Z</time>
      </trkpt>
      <trkpt lat="47.80548" lon="-3.449">
        <ele>39.55</ele>
        <time>2015-09-06T08:04:46Z</time>
      </trkpt>
      <trkpt lat="47.80544" lon="-3.44899">
        <ele>39.55</ele>
        <time>2015-09-06T08:04:47Z</time>
      </trkpt>
      <trkpt lat="47.80539" lon="-3.44898">
        <ele>39.55</ele>
        <time>2015-09-06T08:04:48Z</time>
      </trkpt>
      <trkpt lat="47.80535" lon="-3.44897">
        <ele>39.55</ele>
        <time>2015-09-06T08:04:49Z</time>
      </trkpt>
      <trkpt lat="47.80531" lon="-3.44896">
        <ele>39.55</ele>
        <time>2015-09-06T08:04:50Z</time>
      </trkpt>
      <trkpt lat="47.80527" lon="-3.44895">
        <ele>39.55</ele>
        <time>2015-09-06T08:04:51Z</time>
      </trkpt>
      <trkpt lat="47.80523" lon="-3.44895">
        <ele>40.03</ele>
        <time>2015-09-06T08:04:52Z</time>
      </trkpt>
      <trkpt lat="47.80518" lon="-3.44894">
        <ele>40.03</ele>
        <time>2015-09-06T08:04:53Z</time>
      </trkpt>
      <trkpt lat="47.80514" lon="-3.44894">
        <ele>40.03</ele>
        <time>2015-09-06T08:04:54Z</time>
      </trkpt>
      <trkpt lat="47.80509" lon="-3.44894">
        <ele>40.03</ele>
        <time>2015-09-06T08:04:55Z</time>
      </trkpt>
      <trkpt lat="47.80505" lon="-3.44895">
        <ele>40.03</ele>
        <time>2015-09-06T08:04:56Z</time>
      </trkpt>
      <trkpt lat="47.80501" lon="-3.44896">
        <ele>40.03</ele>
        <time>2015-09-06T08:04:57Z</time>
      </trkpt>
      <trkpt lat="47.80498" lon="-3.44899">
        <ele>40.03</ele>
        <time>2015-09-06T08:04:58Z</time>
      </trkpt>
      <trkpt lat="47.80495" lon="-3.44902">
        <ele>40.03</ele>
        <time>2015-09-06T08:04:59Z</time>
      </trkpt>
      <trkpt lat="47.80492" lon="-3.44906">
        <ele>40.03</ele>
        <time>2015-09-06T08:05:00Z</time>
      </trkpt>
      <trkpt lat="47.80489" lon="-3.44909">
        <ele>40.03</ele>
        <time>2015-09-06T08:05:01Z</time>
      </trkpt>
      <trkpt lat="47.80487" lon="-3.44913">
        <ele>40.03</ele>
        <time>2015-09-06T08:05:02Z</time>
      </trkpt>
      <trkpt lat="47.80484" lon="-3.44917">
        <ele>40.03</ele>
        <time>2015-09-06T08:05:03Z</time>
      </trkpt>
      <trkpt lat="47.80481" lon="-3.44921">
        <ele>40.03</ele>
        <time>2015-09-06T08:05:04Z</time>
      </trkpt>
      <trkpt lat="47.80478" lon="-3.44925">
        <ele>40.03</ele>
        <time>2015-09-06T08:05:05Z</time>
      </trkpt>
      <trkpt lat="47.80474" lon="-3.44929">
        <ele>40.03</ele>
        <time>2015-09-06T08:05:06Z</time>
      </trkpt>
      <trkpt lat="47.80471" lon="-3.44932">
        <ele>40.03</ele>
        <time>2015-09-06T08:05:07Z</time>
      </trkpt>
      <trkpt lat="47.80468" lon="-3.44935">
        <ele>40.03</ele>
        <time>2015-09-06T08:05:08Z</time>
      </trkpt>
      <trkpt lat="47.80464" lon="-3.44938">
        <ele>40.51</ele>
        <time>2015-09-06T08:05:09Z</time>
      </trkpt>
      <trkpt lat="47.80462" lon="-3.44941">
        <ele>40.51</ele>
        <time>2015-09-06T08:05:10Z</time>
      </trkpt>
      <trkpt lat="47.80459" lon="-3.44944">
        <ele>40.99</ele>
        <time>2015-09-06T08:05:11Z</time>
      </trkpt>
      <trkpt lat="47.80457" lon="-3.44947">
        <ele>40.99</ele>
        <time>2015-09-06T08:05:12Z</time>
      </trkpt>
      <trkpt lat="47.80455" lon="-3.4495">
        <ele>40.99</ele>
        <time>2015-09-06T08:05:13Z</time>
      </trkpt>
      <trkpt lat="47.80453" lon="-3.44953">
        <ele>40.99</ele>
        <time>2015-09-06T08:05:14Z</time>
      </trkpt>
      <trkpt lat="47.80451" lon="-3.44956">
        <ele>40.99</ele>
        <time>2015-09-06T08:05:15Z</time>
      </trkpt>
      <trkpt lat="47.80449" lon="-3.44958">
        <ele>41.47</ele>
        <time>2015-09-06T08:05:16Z</time>
      </trkpt>
      <trkpt lat="47.80447" lon="-3.4496">
        <ele>41.47</ele>
        <time>2015-09-06T08:05:17Z</time>
      </trkpt>
      <trkpt lat="47.80444" lon="-3.44961">
        <ele>41.95</ele>
        <time>2015-09-06T08:05:18Z</time>
      </trkpt>
      <trkpt lat="47.80442" lon="-3.44962">
        <ele>41.95</ele>
        <time>2015-09-06T08:05:19Z</time>
      </trkpt>
      <trkpt lat="47.80441" lon="-3.44963">
        <ele>41.95</ele>
        <time>2015-09-06T08:05:20Z</time>
      </trkpt>
      <trkpt lat="47.80439" lon="-3.44965">
        <ele>41.95</ele>
        <time>2015-09-06T08:05:21Z</time>
      </trkpt>
      <trkpt lat="47.80437" lon="-3.44966">
        <ele>41.95</ele>
        <time>2015-09-06T08:05:22Z</time>
      </trkpt>
      <trkpt lat="47.80434" lon="-3.44968">
        <ele>41.95</ele>
        <time>2015-09-06T08:05:23Z</time>
      </trkpt>
      <trkpt lat="47.80433" lon="-3.44969">
        <ele>42.44</ele>
        <time>2015-09-06T08:05:24Z</time>
      </trkpt>
      <trkpt lat="47.80431" lon="-3.44971">
        <ele>42.44</ele>
        <time>2015-09-06T08:05:25Z</time>
      </trkpt>
      <trkpt lat="47.8043" lon="-3.44974">
        <ele>42.44</ele>
        <time>2015-09-06T08:05:26Z</time>
      </trkpt>
      <trkpt lat="47.80428" lon="-3.44976">
        <ele>42.44</ele>
        <time>2015-09-06T08:05:27Z</time>
      </trkpt>
      <trkpt lat="47.80426" lon="-3.44978">
        <ele>42.44</ele>
        <time>2015-09-06T08:05:28Z</time>
      </trkpt>
      <trkpt lat="47.80424" lon="-3.4498">
        <ele>42.44</ele>
        <time>2015-09-06T08:05:29Z</time>
      </trkpt>
      <trkpt lat="47.80421" lon="-3.44983">
        <ele>42.44</ele>
        <time>2015-09-06T08:05:30Z</time>
      </trkpt>
      <trkpt lat="47.80417" lon="-3.44985">
        <ele>42.44</ele>
        <time>2015-09-06T08:05:31Z</time>
      </trkpt>
      <trkpt lat="47.80414" lon="-3.44988">
        <ele>42.44</ele>
        <time>2015-09-06T08:05:32Z</time>
      </trkpt>
      <trkpt lat="47.80411" lon="-3.44991">
        <ele>42.44</ele>
        <time>2015-09-06T08:05:33Z</time>
      </trkpt>
      <trkpt lat="47.80408" lon="-3.44993">
        <ele>42.44</ele>
        <time>2015-09-06T08:05:34Z</time>
      </trkpt>
      <trkpt lat="47.80405" lon="-3.44996">
        <ele>42.44</ele>
        <time>2015-09-06T08:05:35Z</time>
      </trkpt>
      <trkpt lat="47.80401" lon="-3.44998">
        <ele>42.44</ele>
        <time>2015-09-06T08:05:36Z</time>
      </trkpt>
      <trkpt lat="47.80398" lon="-3.45001">
        <ele>42.44</ele>
        <time>2015-09-06T08:05:37Z</time>
      </trkpt>
      <trkpt lat="47.80395" lon="-3.45003">
        <ele>42.44</ele>
        <time>2015-09-06T08:05:38Z</time>
      </trkpt>
      <trkpt lat="47.80392" lon="-3.45006">
        <ele>42.44</ele>
        <time>2015-09-06T08:05:39Z</time>
      </trkpt>
      <trkpt lat="47.80389" lon="-3.45009">
        <ele>42.44</ele>
        <time>2015-09-06T08:05:40Z</time>
      </trkpt>
      <trkpt lat="47.80385" lon="-3.45011">
        <ele>42.44</ele>
        <time>2015-09-06T08:05:41Z</time>
      </trkpt>
      <trkpt lat="47.80382" lon="-3.45014">
        <ele>42.44</ele>
        <time>2015-09-06T08:05:42Z</time>
      </trkpt>
      <trkpt lat="47.80379" lon="-3.45016">
        <ele>42.44</ele>
        <time>2015-09-06T08:05:43Z</time>
      </trkpt>
      <trkpt lat="47.80376" lon="-3.45019">
        <ele>42.44</ele>
        <time>2015-09-06T08:05:44Z</time>
      </trkpt>
      <trkpt lat="47.80372" lon="-3.45021">
        <ele>42.92</ele>
        <time>2015-09-06T08:05:45Z</time>
      </trkpt>
      <trkpt lat="47.80369" lon="-3.45023">
        <ele>42.92</ele>
        <time>2015-09-06T08:05:46Z</time>
      </trkpt>
      <trkpt lat="47.80366" lon="-3.45025">
        <ele>43.88</ele>
        <time>2015-09-06T08:05:47Z</time>
      </trkpt>
      <trkpt lat="47.80363" lon="-3.45027">
        <ele>43.88</ele>
        <time>2015-09-06T08:05:48Z</time>
      </trkpt>
      <trkpt lat="47.8036" lon="-3.45028">
        <ele>43.88</ele>
        <time>2015-09-06T08:05:49Z</time>
      </trkpt>
      <trkpt lat="47.80357" lon="-3.45029">
        <ele>43.88</ele>
        <time>2015-09-06T08:05:50Z</time>
      </trkpt>
      <trkpt lat="47.80353" lon="-3.45031">
        <ele>44.36</ele>
        <time>2015-09-06T08:05:51Z</time>
      </trkpt>
      <trkpt lat="47.8035" lon="-3.45033">
        <ele>44.36</ele>
        <time>2015-09-06T08:05:52Z</time>
      </trkpt>
      <trkpt lat="47.80346" lon="-3.45035">
        <ele>44.36</ele>
        <time>2015-09-06T08:05:53Z</time>
      </trkpt>
      <trkpt lat="47.80343" lon="-3.45038">
        <ele>44.36</ele>
        <time>2015-09-06T08:05:54Z</time>
      </trkpt>
      <trkpt lat="47.80339" lon="-3.4504">
        <ele>44.36</ele>
        <time>2015-09-06T08:05:55Z</time>
      </trkpt>
      <trkpt lat="47.80337" lon="-3.45042">
        <ele>44.84</ele>
        <time>2015-09-06T08:05:56Z</time>
      </trkpt>
      <trkpt lat="47.80334" lon="-3.45044">
        <ele>44.84</ele>
        <time>2015-09-06T08:05:57Z</time>
      </trkpt>
      <trkpt lat="47.80332" lon="-3.45046">
        <ele>45.32</ele>
        <time>2015-09-06T08:05:58Z</time>
      </trkpt>
      <trkpt lat="47.80329" lon="-3.45048">
        <ele>45.32</ele>
        <time>2015-09-06T08:05:59Z</time>
      </trkpt>
      <trkpt lat="47.80327" lon="-3.45049">
        <ele>45.8</ele>
        <time>2015-09-06T08:06:00Z</time>
      </trkpt>
      <trkpt lat="47.80324" lon="-3.45049">
        <ele>45.8</ele>
        <time>2015-09-06T08:06:01Z</time>
      </trkpt>
      <trkpt lat="47.80322" lon="-3.4505">
        <ele>45.8</ele>
        <time>2015-09-06T08:06:02Z</time>
      </trkpt>
      <trkpt lat="47.80319" lon="-3.4505">
        <ele>45.8</ele>
        <time>2015-09-06T08:06:03Z</time>
      </trkpt>
      <trkpt lat="47.80316" lon="-3.45049">
        <ele>45.8</ele>
        <time>2015-09-06T08:06:04Z</time>
      </trkpt>
      <trkpt lat="47.80314" lon="-3.45048">
        <ele>45.8</ele>
        <time>2015-09-06T08:06:05Z</time>
      </trkpt>
      <trkpt lat="47.80312" lon="-3.45046">
        <ele>45.8</ele>
        <time>2015-09-06T08:06:06Z</time>
      </trkpt>
      <trkpt lat="47.8031" lon="-3.45045">
        <ele>45.8</ele>
        <time>2015-09-06T08:06:07Z</time>
      </trkpt>
      <trkpt lat="47.80308" lon="-3.45044">
        <ele>45.8</ele>
        <time>2015-09-06T08:06:08Z</time>
      </trkpt>
      <trkpt lat="47.80306" lon="-3.45043">
        <ele>46.28</ele>
        <time>2015-09-06T08:06:09Z</time>
      </trkpt>
      <trkpt lat="47.80305" lon="-3.45043">
        <ele>46.28</ele>
        <time>2015-09-06T08:06:10Z</time>
      </trkpt>
      <trkpt lat="47.80303" lon="-3.45043">
        <ele>47.24</ele>
        <time>2015-09-06T08:06:11Z</time>
      </trkpt>
      <trkpt lat="47.80301" lon="-3.45043">
        <ele>47.24</ele>
        <time>2015-09-06T08:06:12Z</time>
      </trkpt>
      <trkpt lat="47.803" lon="-3.45043">
        <ele>47.24</ele>
        <time>2015-09-06T08:06:13Z</time>
      </trkpt>
      <trkpt lat="47.80299" lon="-3.45042">
        <ele>47.72</ele>
        <time>2015-09-06T08:06:14Z</time>
      </trkpt>
      <trkpt lat="47.80299" lon="-3.45041">
        <ele>47.72</ele>
        <time>2015-09-06T08:06:15Z</time>
      </trkpt>
      <trkpt lat="47.80298" lon="-3.4504">
        <ele>47.72</ele>
        <time>2015-09-06T08:06:16Z</time>
      </trkpt>
      <trkpt lat="47.80297" lon="-3.45039">
        <ele>48.2</ele>
        <time>2015-09-06T08:06:17Z</time>
      </trkpt>
      <trkpt lat="47.80296" lon="-3.45039">
        <ele>48.2</ele>
        <time>2015-09-06T08:06:18Z</time>
      </trkpt>
      <trkpt lat="47.80295" lon="-3.45038">
        <ele>49.16</ele>
        <time>2015-09-06T08:06:19Z</time>
      </trkpt>
      <trkpt lat="47.80294" lon="-3.45037">
        <ele>49.16</ele>
        <time>2015-09-06T08:06:20Z</time>
      </trkpt>
      <trkpt lat="47.80292" lon="-3.45036">
        <ele>49.65</ele>
        <time>2015-09-06T08:06:21Z</time>
      </trkpt>
      <trkpt lat="47.80292" lon="-3.45034">
        <ele>49.65</ele>
        <time>2015-09-06T08:06:22Z</time>
      </trkpt>
      <trkpt lat="47.8029" lon="-3.45033">
        <ele>49.65</ele>
        <time>2015-09-06T08:06:23Z</time>
      </trkpt>
      <trkpt lat="47.80289" lon="-3.45032">
        <ele>50.13</ele>
        <time>2015-09-06T08:06:24Z</time>
      </trkpt>
      <trkpt lat="47.80287" lon="-3.45031">
        <ele>50.13</ele>
        <time>2015-09-06T08:06:25Z</time>
      </trkpt>
      <trkpt lat="47.80286" lon="-3.45029">
        <ele>50.61</ele>
        <time>2015-09-06T08:06:26Z</time>
      </trkpt>
      <trkpt lat="47.80285" lon="-3.45028">
        <ele>50.61</ele>
        <time>2015-09-06T08:06:27Z</time>
      </trkpt>
      <trkpt lat="47.80284" lon="-3.45027">
        <ele>51.09</ele>
        <time>2015-09-06T08:06:28Z</time>
      </trkpt>
      <trkpt lat="47.80283" lon="-3.45027">
        <ele>51.09</ele>
        <time>2015-09-06T08:06:29Z</time>
      </trkpt>
      <trkpt lat="47.80282" lon="-3.45026">
        <ele>52.05</ele>
        <time>2015-09-06T08:06:30Z</time>
      </trkpt>
      <trkpt lat="47.80281" lon="-3.45025">
        <ele>52.05</ele>
        <time>2015-09-06T08:06:31Z</time>
      </trkpt>
      <trkpt lat="47.8028" lon="-3.45024">
        <ele>52.53</ele>
        <time>2015-09-06T08:06:32Z</time>
      </trkpt>
      <trkpt lat="47.80279" lon="-3.45023">
        <ele>52.53</ele>
        <time>2015-09-06T08:06:33Z</time>
      </trkpt>
      <trkpt lat="47.80277" lon="-3.45023">
        <ele>53.01</ele>
        <time>2015-09-06T08:06:34Z</time>
      </trkpt>
      <trkpt lat="47.80276" lon="-3.45022">
        <ele>53.01</ele>
        <time>2015-09-06T08:06:35Z</time>
      </trkpt>
      <trkpt lat="47.80275" lon="-3.45023">
        <ele>53.49</ele>
        <time>2015-09-06T08:06:36Z</time>
      </trkpt>
      <trkpt lat="47.80274" lon="-3.45023">
        <ele>53.49</ele>
        <time>2015-09-06T08:06:37Z</time>
      </trkpt>
      <trkpt lat="47.80272" lon="-3.45024">
        <ele>53.97</ele>
        <time>2015-09-06T08:06:38Z</time>
      </trkpt>
      <trkpt lat="47.80271" lon="-3.45024">
        <ele>53.97</ele>
        <time>2015-09-06T08:06:39Z</time>
      </trkpt>
      <trkpt lat="47.8027" lon="-3.45026">
        <ele>54.45</ele>
        <time>2015-09-06T08:06:40Z</time>
      </trkpt>
      <trkpt lat="47.80269" lon="-3.45027">
        <ele>54.45</ele>
        <time>2015-09-06T08:06:41Z</time>
      </trkpt>
      <trkpt lat="47.80268" lon="-3.45029">
        <ele>54.45</ele>
        <time>2015-09-06T08:06:42Z</time>
      </trkpt>
      <trkpt lat="47.80268" lon="-3.4503">
        <ele>54.45</ele>
        <time>2015-09-06T08:06:43Z</time>
      </trkpt>
      <trkpt lat="47.80266" lon="-3.45032">
        <ele>54.93</ele>
        <time>2015-09-06T08:06:44Z</time>
      </trkpt>
      <trkpt lat="47.80265" lon="-3.45032">
        <ele>54.93</ele>
        <time>2015-09-06T08:06:45Z</time>
      </trkpt>
      <trkpt lat="47.80263" lon="-3.45033">
        <ele>54.93</ele>
        <time>2015-09-06T08:06:46Z</time>
      </trkpt>
      <trkpt lat="47.80262" lon="-3.45034">
        <ele>54.93</ele>
        <time>2015-09-06T08:06:47Z</time>
      </trkpt>
      <trkpt lat="47.8026" lon="-3.45034">
        <ele>55.41</ele>
        <time>2015-09-06T08:06:48Z</time>
      </trkpt>
      <trkpt lat="47.80259" lon="-3.45035">
        <ele>54.93</ele>
        <time>2015-09-06T08:06:49Z</time>
      </trkpt>
      <trkpt lat="47.80258" lon="-3.45037">
        <ele>55.41</ele>
        <time>2015-09-06T08:06:50Z</time>
      </trkpt>
      <trkpt lat="47.80257" lon="-3.45039">
        <ele>55.41</ele>
        <time>2015-09-06T08:06:51Z</time>
      </trkpt>
      <trkpt lat="47.80257" lon="-3.45041">
        <ele>55.41</ele>
        <time>2015-09-06T08:06:52Z</time>
      </trkpt>
      <trkpt lat="47.80257" lon="-3.45044">
        <ele>55.41</ele>
        <time>2015-09-06T08:06:53Z</time>
      </trkpt>
      <trkpt lat="47.80256" lon="-3.45047">
        <ele>55.41</ele>
        <time>2015-09-06T08:06:54Z</time>
      </trkpt>
      <trkpt lat="47.80255" lon="-3.4505">
        <ele>55.41</ele>
        <time>2015-09-06T08:06:55Z</time>
      </trkpt>
      <trkpt lat="47.80255" lon="-3.45053">
        <ele>55.41</ele>
        <time>2015-09-06T08:06:56Z</time>
      </trkpt>
      <trkpt lat="47.80254" lon="-3.45056">
        <ele>55.41</ele>
        <time>2015-09-06T08:06:57Z</time>
      </trkpt>
      <trkpt lat="47.80253" lon="-3.45058">
        <ele>55.41</ele>
        <time>2015-09-06T08:06:58Z</time>
      </trkpt>
      <trkpt lat="47.80252" lon="-3.45062">
        <ele>55.41</ele>
        <time>2015-09-06T08:06:59Z</time>
      </trkpt>
      <trkpt lat="47.80252" lon="-3.45065">
        <ele>55.41</ele>
        <time>2015-09-06T08:07:00Z</time>
      </trkpt>
      <trkpt lat="47.80251" lon="-3.45068">
        <ele>55.41</ele>
        <time>2015-09-06T08:07:01Z</time>
      </trkpt>
      <trkpt lat="47.8025" lon="-3.45072">
        <ele>55.41</ele>
        <time>2015-09-06T08:07:02Z</time>
      </trkpt>
      <trkpt lat="47.80249" lon="-3.45077">
        <ele>55.41</ele>
        <time>2015-09-06T08:07:03Z</time>
      </trkpt>
      <trkpt lat="47.80248" lon="-3.45082">
        <ele>55.41</ele>
        <time>2015-09-06T08:07:04Z</time>
      </trkpt>
      <trkpt lat="47.80247" lon="-3.45088">
        <ele>55.41</ele>
        <time>2015-09-06T08:07:05Z</time>
      </trkpt>
      <trkpt lat="47.80248" lon="-3.45094">
        <ele>53.97</ele>
        <time>2015-09-06T08:07:06Z</time>
      </trkpt>
      <trkpt lat="47.80249" lon="-3.45099">
        <ele>53.97</ele>
        <time>2015-09-06T08:07:07Z</time>
      </trkpt>
      <trkpt lat="47.80251" lon="-3.45105">
        <ele>53.01</ele>
        <time>2015-09-06T08:07:08Z</time>
      </trkpt>
      <trkpt lat="47.80251" lon="-3.4511">
        <ele>52.53</ele>
        <time>2015-09-06T08:07:09Z</time>
      </trkpt>
      <trkpt lat="47.80251" lon="-3.45115">
        <ele>52.53</ele>
        <time>2015-09-06T08:07:10Z</time>
      </trkpt>
      <trkpt lat="47.80249" lon="-3.45118">
        <ele>52.05</ele>
        <time>2015-09-06T08:07:11Z</time>
      </trkpt>
      <trkpt lat="47.80246" lon="-3.45121">
        <ele>52.05</ele>
        <time>2015-09-06T08:07:12Z</time>
      </trkpt>
      <trkpt lat="47.80241" lon="-3.45123">
        <ele>51.57</ele>
        <time>2015-09-06T08:07:13Z</time>
      </trkpt>
      <trkpt lat="47.80237" lon="-3.45125">
        <ele>51.09</ele>
        <time>2015-09-06T08:07:14Z</time>
      </trkpt>
      <trkpt lat="47.80233" lon="-3.45125">
        <ele>50.61</ele>
        <time>2015-09-06T08:07:15Z</time>
      </trkpt>
      <trkpt lat="47.80229" lon="-3.45125">
        <ele>50.61</ele>
        <time>2015-09-06T08:07:16Z</time>
      </trkpt>
      <trkpt lat="47.80224" lon="-3.45125">
        <ele>51.09</ele>
        <time>2015-09-06T08:07:17Z</time>
      </trkpt>
      <trkpt lat="47.80222" lon="-3.45128">
        <ele>50.61</ele>
        <time>2015-09-06T08:07:18Z</time>
      </trkpt>
      <trkpt lat="47.80219" lon="-3.45132">
        <ele>50.13</ele>
        <time>2015-09-06T08:07:19Z</time>
      </trkpt>
      <trkpt lat="47.80218" lon="-3.45136">
        <ele>50.13</ele>
        <time>2015-09-06T08:07:20Z</time>
      </trkpt>
      <trkpt lat="47.80218" lon="-3.45141">
        <ele>50.13</ele>
        <time>2015-09-06T08:07:21Z</time>
      </trkpt>
      <trkpt lat="47.80218" lon="-3.45146">
        <ele>50.13</ele>
        <time>2015-09-06T08:07:22Z</time>
      </trkpt>
      <trkpt lat="47.80217" lon="-3.45151">
        <ele>49.65</ele>
        <time>2015-09-06T08:07:23Z</time>
      </trkpt>
      <trkpt lat="47.80216" lon="-3.45155">
        <ele>49.65</ele>
        <time>2015-09-06T08:07:24Z</time>
      </trkpt>
      <trkpt lat="47.80214" lon="-3.45156">
        <ele>49.65</ele>
        <time>2015-09-06T08:07:25Z</time>
      </trkpt>
      <trkpt lat="47.80212" lon="-3.45157">
        <ele>51.09</ele>
        <time>2015-09-06T08:07:26Z</time>
      </trkpt>
      <trkpt lat="47.8021" lon="-3.45158">
        <ele>51.09</ele>
        <time>2015-09-06T08:07:27Z</time>
      </trkpt>
      <trkpt lat="47.80208" lon="-3.45159">
        <ele>51.57</ele>
        <time>2015-09-06T08:07:28Z</time>
      </trkpt>
      <trkpt lat="47.80206" lon="-3.45159">
        <ele>51.57</ele>
        <time>2015-09-06T08:07:29Z</time>
      </trkpt>
      <trkpt lat="47.80204" lon="-3.45159">
        <ele>52.05</ele>
        <time>2015-09-06T08:07:30Z</time>
      </trkpt>
      <trkpt lat="47.80202" lon="-3.4516">
        <ele>52.05</ele>
        <time>2015-09-06T08:07:31Z</time>
      </trkpt>
      <trkpt lat="47.802" lon="-3.4516">
        <ele>52.53</ele>
        <time>2015-09-06T08:07:32Z</time>
      </trkpt>
      <trkpt lat="47.80198" lon="-3.45161">
        <ele>53.01</ele>
        <time>2015-09-06T08:07:33Z</time>
      </trkpt>
      <trkpt lat="47.80197" lon="-3.45162">
        <ele>53.01</ele>
        <time>2015-09-06T08:07:34Z</time>
      </trkpt>
      <trkpt lat="47.80194" lon="-3.45163">
        <ele>53.01</ele>
        <time>2015-09-06T08:07:35Z</time>
      </trkpt>
      <trkpt lat="47.80192" lon="-3.45163">
        <ele>53.49</ele>
        <time>2015-09-06T08:07:36Z</time>
      </trkpt>
      <trkpt lat="47.80189" lon="-3.45163">
        <ele>53.49</ele>
        <time>2015-09-06T08:07:37Z</time>
      </trkpt>
      <trkpt lat="47.80188" lon="-3.45162">
        <ele>53.97</ele>
        <time>2015-09-06T08:07:38Z</time>
      </trkpt>
      <trkpt lat="47.80185" lon="-3.45161">
        <ele>53.97</ele>
        <time>2015-09-06T08:07:39Z</time>
      </trkpt>
      <trkpt lat="47.80183" lon="-3.45161">
        <ele>53.97</ele>
        <time>2015-09-06T08:07:40Z</time>
      </trkpt>
      <trkpt lat="47.80181" lon="-3.4516">
        <ele>54.45</ele>
        <time>2015-09-06T08:07:41Z</time>
      </trkpt>
      <trkpt lat="47.80179" lon="-3.4516">
        <ele>54.45</ele>
        <time>2015-09-06T08:07:42Z</time>
      </trkpt>
      <trkpt lat="47.80177" lon="-3.45161">
        <ele>54.93</ele>
        <time>2015-09-06T08:07:43Z</time>
      </trkpt>
      <trkpt lat="47.80175" lon="-3.45163">
        <ele>54.93</ele>
        <time>2015-09-06T08:07:44Z</time>
      </trkpt>
      <trkpt lat="47.80172" lon="-3.45164">
        <ele>54.93</ele>
        <time>2015-09-06T08:07:45Z</time>
      </trkpt>
      <trkpt lat="47.8017" lon="-3.45163">
        <ele>54.93</ele>
        <time>2015-09-06T08:07:46Z</time>
      </trkpt>
      <trkpt lat="47.80168" lon="-3.45162">
        <ele>54.93</ele>
        <time>2015-09-06T08:07:47Z</time>
      </trkpt>
      <trkpt lat="47.80166" lon="-3.45162">
        <ele>55.41</ele>
        <time>2015-09-06T08:07:48Z</time>
      </trkpt>
      <trkpt lat="47.80163" lon="-3.45162">
        <ele>55.41</ele>
        <time>2015-09-06T08:07:49Z</time>
      </trkpt>
      <trkpt lat="47.80161" lon="-3.45162">
        <ele>55.41</ele>
        <time>2015-09-06T08:07:50Z</time>
      </trkpt>
      <trkpt lat="47.80158" lon="-3.45163">
        <ele>55.41</ele>
        <time>2015-09-06T08:07:51Z</time>
      </trkpt>
      <trkpt lat="47.80155" lon="-3.45163">
        <ele>55.41</ele>
        <time>2015-09-06T08:07:52Z</time>
      </trkpt>
      <trkpt lat="47.80151" lon="-3.45164">
        <ele>55.41</ele>
        <time>2015-09-06T08:07:53Z</time>
      </trkpt>
      <trkpt lat="47.80148" lon="-3.45165">
        <ele>55.41</ele>
        <time>2015-09-06T08:07:54Z</time>
      </trkpt>
      <trkpt lat="47.80145" lon="-3.45165">
        <ele>55.41</ele>
        <time>2015-09-06T08:07:55Z</time>
      </trkpt>
      <trkpt lat="47.80142" lon="-3.45165">
        <ele>55.41</ele>
        <time>2015-09-06T08:07:56Z</time>
      </trkpt>
      <trkpt lat="47.80139" lon="-3.45166">
        <ele>55.41</ele>
        <time>2015-09-06T08:07:57Z</time>
      </trkpt>
      <trkpt lat="47.80136" lon="-3.45166">
        <ele>55.89</ele>
        <time>2015-09-06T08:07:58Z</time>
      </trkpt>
      <trkpt lat="47.80133" lon="-3.45168">
        <ele>55.89</ele>
        <time>2015-09-06T08:07:59Z</time>
      </trkpt>
      <trkpt lat="47.8013" lon="-3.45169">
        <ele>55.89</ele>
        <time>2015-09-06T08:08:00Z</time>
      </trkpt>
      <trkpt lat="47.80127" lon="-3.4517">
        <ele>55.89</ele>
        <time>2015-09-06T08:08:01Z</time>
      </trkpt>
      <trkpt lat="47.80124" lon="-3.4517">
        <ele>55.89</ele>
        <time>2015-09-06T08:08:02Z</time>
      </trkpt>
      <trkpt lat="47.80122" lon="-3.45168">
        <ele>55.89</ele>
        <time>2015-09-06T08:08:03Z</time>
      </trkpt>
      <trkpt lat="47.8012" lon="-3.45165">
        <ele>55.89</ele>
        <time>2015-09-06T08:08:04Z</time>
      </trkpt>
      <trkpt lat="47.80118" lon="-3.45162">
        <ele>55.89</ele>
        <time>2015-09-06T08:08:05Z</time>
      </trkpt>
      <trkpt lat="47.80117" lon="-3.45159">
        <ele>56.86</ele>
        <time>2015-09-06T08:08:06Z</time>
      </trkpt>
      <trkpt lat="47.80116" lon="-3.45155">
        <ele>56.86</ele>
        <time>2015-09-06T08:08:07Z</time>
      </trkpt>
      <trkpt lat="47.80114" lon="-3.45152">
        <ele>56.86</ele>
        <time>2015-09-06T08:08:08Z</time>
      </trkpt>
      <trkpt lat="47.80112" lon="-3.45149">
        <ele>57.34</ele>
        <time>2015-09-06T08:08:09Z</time>
      </trkpt>
      <trkpt lat="47.80111" lon="-3.45145">
        <ele>57.34</ele>
        <time>2015-09-06T08:08:10Z</time>
      </trkpt>
      <trkpt lat="47.8011" lon="-3.45141">
        <ele>57.34</ele>
        <time>2015-09-06T08:08:11Z</time>
      </trkpt>
      <trkpt lat="47.80108" lon="-3.45137">
        <ele>57.34</ele>
        <time>2015-09-06T08:08:12Z</time>
      </trkpt>
      <trkpt lat="47.80107" lon="-3.45133">
        <ele>57.34</ele>
        <time>2015-09-06T08:08:13Z</time>
      </trkpt>
      <trkpt lat="47.80105" lon="-3.45129">
        <ele>57.34</ele>
        <time>2015-09-06T08:08:14Z</time>
      </trkpt>
      <trkpt lat="47.80104" lon="-3.45124">
        <ele>57.34</ele>
        <time>2015-09-06T08:08:15Z</time>
      </trkpt>
      <trkpt lat="47.80102" lon="-3.4512">
        <ele>57.34</ele>
        <time>2015-09-06T08:08:16Z</time>
      </trkpt>
      <trkpt lat="47.80101" lon="-3.45115">
        <ele>57.34</ele>
        <time>2015-09-06T08:08:17Z</time>
      </trkpt>
      <trkpt lat="47.801" lon="-3.4511">
        <ele>57.34</ele>
        <time>2015-09-06T08:08:18Z</time>
      </trkpt>
      <trkpt lat="47.80098" lon="-3.45106">
        <ele>57.34</ele>
        <time>2015-09-06T08:08:19Z</time>
      </trkpt>
      <trkpt lat="47.80097" lon="-3.45101">
        <ele>57.34</ele>
        <time>2015-09-06T08:08:20Z</time>
      </trkpt>
      <trkpt lat="47.80096" lon="-3.45095">
        <ele>57.34</ele>
        <time>2015-09-06T08:08:21Z</time>
      </trkpt>
      <trkpt lat="47.80094" lon="-3.4509">
        <ele>57.82</ele>
        <time>2015-09-06T08:08:22Z</time>
      </trkpt>
      <trkpt lat="47.80093" lon="-3.45085">
        <ele>57.82</ele>
        <time>2015-09-06T08:08:23Z</time>
      </trkpt>
      <trkpt lat="47.80092" lon="-3.4508">
        <ele>57.82</ele>
        <time>2015-09-06T08:08:24Z</time>
      </trkpt>
      <trkpt lat="47.80091" lon="-3.45075">
        <ele>57.82</ele>
        <time>2015-09-06T08:08:25Z</time>
      </trkpt>
      <trkpt lat="47.80089" lon="-3.4507">
        <ele>58.3</ele>
        <time>2015-09-06T08:08:26Z</time>
      </trkpt>
      <trkpt lat="47.80088" lon="-3.45065">
        <ele>58.78</ele>
        <time>2015-09-06T08:08:27Z</time>
      </trkpt>
      <trkpt lat="47.80087" lon="-3.4506">
        <ele>58.78</ele>
        <time>2015-09-06T08:08:28Z</time>
      </trkpt>
      <trkpt lat="47.80085" lon="-3.45055">
        <ele>58.78</ele>
        <time>2015-09-06T08:08:29Z</time>
      </trkpt>
      <trkpt lat="47.80084" lon="-3.45051">
        <ele>59.26</ele>
        <time>2015-09-06T08:08:30Z</time>
      </trkpt>
      <trkpt lat="47.80083" lon="-3.45046">
        <ele>59.26</ele>
        <time>2015-09-06T08:08:31Z</time>
      </trkpt>
      <trkpt lat="47.80081" lon="-3.45041">
        <ele>59.74</ele>
        <time>2015-09-06T08:08:32Z</time>
      </trkpt>
      <trkpt lat="47.8008" lon="-3.45036">
        <ele>59.74</ele>
        <time>2015-09-06T08:08:33Z</time>
      </trkpt>
      <trkpt lat="47.80079" lon="-3.45031">
        <ele>59.74</ele>
        <time>2015-09-06T08:08:34Z</time>
      </trkpt>
      <trkpt lat="47.80078" lon="-3.45027">
        <ele>60.22</ele>
        <time>2015-09-06T08:08:35Z</time>
      </trkpt>
      <trkpt lat="47.80077" lon="-3.45022">
        <ele>60.22</ele>
        <time>2015-09-06T08:08:36Z</time>
      </trkpt>
      <trkpt lat="47.80076" lon="-3.45018">
        <ele>60.7</ele>
        <time>2015-09-06T08:08:37Z</time>
      </trkpt>
      <trkpt lat="47.80074" lon="-3.45013">
        <ele>60.7</ele>
        <time>2015-09-06T08:08:38Z</time>
      </trkpt>
      <trkpt lat="47.80073" lon="-3.45009">
        <ele>60.7</ele>
        <time>2015-09-06T08:08:39Z</time>
      </trkpt>
      <trkpt lat="47.80072" lon="-3.45004">
        <ele>61.18</ele>
        <time>2015-09-06T08:08:40Z</time>
      </trkpt>
      <trkpt lat="47.80071" lon="-3.45">
        <ele>61.66</ele>
        <time>2015-09-06T08:08:41Z</time>
      </trkpt>
      <trkpt lat="47.8007" lon="-3.44995">
        <ele>61.66</ele>
        <time>2015-09-06T08:08:42Z</time>
      </trkpt>
      <trkpt lat="47.80069" lon="-3.44991">
        <ele>62.14</ele>
        <time>2015-09-06T08:08:43Z</time>
      </trkpt>
      <trkpt lat="47.80068" lon="-3.44987">
        <ele>62.14</ele>
        <time>2015-09-06T08:08:44Z</time>
      </trkpt>
      <trkpt lat="47.80067" lon="-3.44983">
        <ele>62.14</ele>
        <time>2015-09-06T08:08:45Z</time>
      </trkpt>
      <trkpt lat="47.80066" lon="-3.44979">
        <ele>62.14</ele>
        <time>2015-09-06T08:08:46Z</time>
      </trkpt>
      <trkpt lat="47.80065" lon="-3.44975">
        <ele>63.1</ele>
        <time>2015-09-06T08:08:47Z</time>
      </trkpt>
      <trkpt lat="47.80064" lon="-3.44971">
        <ele>63.1</ele>
        <time>2015-09-06T08:08:48Z</time>
      </trkpt>
      <trkpt lat="47.80063" lon="-3.44966">
        <ele>63.1</ele>
        <time>2015-09-06T08:08:49Z</time>
      </trkpt>
      <trkpt lat="47.80062" lon="-3.44962">
        <ele>63.58</ele>
        <time>2015-09-06T08:08:50Z</time>
      </trkpt>
      <trkpt lat="47.80061" lon="-3.44958">
        <ele>63.58</ele>
        <time>2015-09-06T08:08:51Z</time>
      </trkpt>
      <trkpt lat="47.8006" lon="-3.44954">
        <ele>63.58</ele>
        <time>2015-09-06T08:08:52Z</time>
      </trkpt>
      <trkpt lat="47.80059" lon="-3.44949">
        <ele>64.07</ele>
        <time>2015-09-06T08:08:53Z</time>
      </trkpt>
      <trkpt lat="47.80058" lon="-3.44945">
        <ele>64.07</ele>
        <time>2015-09-06T08:08:54Z</time>
      </trkpt>
      <trkpt lat="47.80057" lon="-3.44941">
        <ele>64.55</ele>
        <time>2015-09-06T08:08:55Z</time>
      </trkpt>
      <trkpt lat="47.80055" lon="-3.44937">
        <ele>64.55</ele>
        <time>2015-09-06T08:08:56Z</time>
      </trkpt>
      <trkpt lat="47.80054" lon="-3.44933">
        <ele>64.55</ele>
        <time>2015-09-06T08:08:57Z</time>
      </trkpt>
      <trkpt lat="47.80053" lon="-3.44928">
        <ele>65.03</ele>
        <time>2015-09-06T08:08:58Z</time>
      </trkpt>
      <trkpt lat="47.80052" lon="-3.44924">
        <ele>65.03</ele>
        <time>2015-09-06T08:08:59Z</time>
      </trkpt>
      <trkpt lat="47.80051" lon="-3.4492">
        <ele>65.03</ele>
        <time>2015-09-06T08:09:00Z</time>
      </trkpt>
      <trkpt lat="47.8005" lon="-3.44915">
        <ele>65.03</ele>
        <time>2015-09-06T08:09:01Z</time>
      </trkpt>
      <trkpt lat="47.80049" lon="-3.44911">
        <ele>65.51</ele>
        <time>2015-09-06T08:09:02Z</time>
      </trkpt>
      <trkpt lat="47.80048" lon="-3.44907">
        <ele>65.51</ele>
        <time>2015-09-06T08:09:03Z</time>
      </trkpt>
      <trkpt lat="47.80047" lon="-3.44902">
        <ele>65.51</ele>
        <time>2015-09-06T08:09:04Z</time>
      </trkpt>
      <trkpt lat="47.80046" lon="-3.44898">
        <ele>65.99</ele>
        <time>2015-09-06T08:09:05Z</time>
      </trkpt>
      <trkpt lat="47.80045" lon="-3.44893">
        <ele>65.99</ele>
        <time>2015-09-06T08:09:06Z</time>
      </trkpt>
      <trkpt lat="47.80044" lon="-3.44889">
        <ele>65.99</ele>
        <time>2015-09-06T08:09:07Z</time>
      </trkpt>
      <trkpt lat="47.80043" lon="-3.44884">
        <ele>65.99</ele>
        <time>2015-09-06T08:09:08Z</time>
      </trkpt>
      <trkpt lat="47.80042" lon="-3.44879">
        <ele>65.99</ele>
        <time>2015-09-06T08:09:09Z</time>
      </trkpt>
      <trkpt lat="47.80041" lon="-3.44874">
        <ele>66.47</ele>
        <time>2015-09-06T08:09:10Z</time>
      </trkpt>
      <trkpt lat="47.8004" lon="-3.4487">
        <ele>66.47</ele>
        <time>2015-09-06T08:09:11Z</time>
      </trkpt>
      <trkpt lat="47.80038" lon="-3.44864">
        <ele>66.47</ele>
        <time>2015-09-06T08:09:12Z</time>
      </trkpt>
      <trkpt lat="47.80037" lon="-3.4486">
        <ele>66.47</ele>
        <time>2015-09-06T08:09:13Z</time>
      </trkpt>
      <trkpt lat="47.80036" lon="-3.44855">
        <ele>66.47</ele>
        <time>2015-09-06T08:09:14Z</time>
      </trkpt>
      <trkpt lat="47.80035" lon="-3.44849">
        <ele>66.47</ele>
        <time>2015-09-06T08:09:15Z</time>
      </trkpt>
      <trkpt lat="47.80034" lon="-3.44844">
        <ele>66.47</ele>
        <time>2015-09-06T08:09:16Z</time>
      </trkpt>
      <trkpt lat="47.80033" lon="-3.44839">
        <ele>66.47</ele>
        <time>2015-09-06T08:09:17Z</time>
      </trkpt>
      <trkpt lat="47.80032" lon="-3.44834">
        <ele>66.47</ele>
        <time>2015-09-06T08:09:18Z</time>
      </trkpt>
      <trkpt lat="47.8003" lon="-3.44829">
        <ele>66.47</ele>
        <time>2015-09-06T08:09:19Z</time>
      </trkpt>
      <trkpt lat="47.80029" lon="-3.44824">
        <ele>66.47</ele>
        <time>2015-09-06T08:09:20Z</time>
      </trkpt>
      <trkpt lat="47.80027" lon="-3.44819">
        <ele>66.47</ele>
        <time>2015-09-06T08:09:21Z</time>
      </trkpt>
      <trkpt lat="47.80025" lon="-3.44814">
        <ele>66.47</ele>
        <time>2015-09-06T08:09:22Z</time>
      </trkpt>
      <trkpt lat="47.80023" lon="-3.4481">
        <ele>66.47</ele>
        <time>2015-09-06T08:09:23Z</time>
      </trkpt>
      <trkpt lat="47.8002" lon="-3.44808">
        <ele>66.47</ele>
        <time>2015-09-06T08:09:24Z</time>
      </trkpt>
      <trkpt lat="47.80016" lon="-3.44807">
        <ele>66.47</ele>
        <time>2015-09-06T08:09:25Z</time>
      </trkpt>
      <trkpt lat="47.80013" lon="-3.44807">
        <ele>66.47</ele>
        <time>2015-09-06T08:09:26Z</time>
      </trkpt>
      <trkpt lat="47.8001" lon="-3.44809">
        <ele>66.47</ele>
        <time>2015-09-06T08:09:27Z</time>
      </trkpt>
      <trkpt lat="47.80007" lon="-3.44812">
        <ele>66.95</ele>
        <time>2015-09-06T08:09:28Z</time>
      </trkpt>
      <trkpt lat="47.80004" lon="-3.44815">
        <ele>66.95</ele>
        <time>2015-09-06T08:09:29Z</time>
      </trkpt>
      <trkpt lat="47.80001" lon="-3.44817">
        <ele>66.95</ele>
        <time>2015-09-06T08:09:30Z</time>
      </trkpt>
      <trkpt lat="47.79998" lon="-3.4482">
        <ele>66.95</ele>
        <time>2015-09-06T08:09:31Z</time>
      </trkpt>
      <trkpt lat="47.79996" lon="-3.44822">
        <ele>66.95</ele>
        <time>2015-09-06T08:09:32Z</time>
      </trkpt>
      <trkpt lat="47.79993" lon="-3.44825">
        <ele>67.43</ele>
        <time>2015-09-06T08:09:33Z</time>
      </trkpt>
      <trkpt lat="47.7999" lon="-3.44828">
        <ele>67.43</ele>
        <time>2015-09-06T08:09:34Z</time>
      </trkpt>
      <trkpt lat="47.79987" lon="-3.44831">
        <ele>67.43</ele>
        <time>2015-09-06T08:09:35Z</time>
      </trkpt>
      <trkpt lat="47.79984" lon="-3.44834">
        <ele>67.43</ele>
        <time>2015-09-06T08:09:36Z</time>
      </trkpt>
      <trkpt lat="47.79981" lon="-3.44838">
        <ele>67.43</ele>
        <time>2015-09-06T08:09:37Z</time>
      </trkpt>
      <trkpt lat="47.79978" lon="-3.4484">
        <ele>67.43</ele>
        <time>2015-09-06T08:09:38Z</time>
      </trkpt>
      <trkpt lat="47.79975" lon="-3.44843">
        <ele>67.91</ele>
        <time>2015-09-06T08:09:39Z</time>
      </trkpt>
      <trkpt lat="47.79972" lon="-3.44846">
        <ele>67.91</ele>
        <time>2015-09-06T08:09:40Z</time>
      </trkpt>
      <trkpt lat="47.79968" lon="-3.44848">
        <ele>67.91</ele>
        <time>2015-09-06T08:09:41Z</time>
      </trkpt>
      <trkpt lat="47.79965" lon="-3.44851">
        <ele>67.91</ele>
        <time>2015-09-06T08:09:42Z</time>
      </trkpt>
      <trkpt lat="47.79961" lon="-3.44853">
        <ele>67.91</ele>
        <time>2015-09-06T08:09:43Z</time>
      </trkpt>
      <trkpt lat="47.79958" lon="-3.44856">
        <ele>67.91</ele>
        <time>2015-09-06T08:09:44Z</time>
      </trkpt>
      <trkpt lat="47.79955" lon="-3.44859">
        <ele>67.91</ele>
        <time>2015-09-06T08:09:45Z</time>
      </trkpt>
      <trkpt lat="47.79951" lon="-3.44863">
        <ele>67.91</ele>
        <time>2015-09-06T08:09:46Z</time>
      </trkpt>
      <trkpt lat="47.79948" lon="-3.44867">
        <ele>67.91</ele>
        <time>2015-09-06T08:09:47Z</time>
      </trkpt>
      <trkpt lat="47.79945" lon="-3.44872">
        <ele>67.91</ele>
        <time>2015-09-06T08:09:48Z</time>
      </trkpt>
      <trkpt lat="47.79941" lon="-3.44876">
        <ele>67.91</ele>
        <time>2015-09-06T08:09:49Z</time>
      </trkpt>
      <trkpt lat="47.79937" lon="-3.44879">
        <ele>67.91</ele>
        <time>2015-09-06T08:09:50Z</time>
      </trkpt>
      <trkpt lat="47.79933" lon="-3.44883">
        <ele>67.91</ele>
        <time>2015-09-06T08:09:51Z</time>
      </trkpt>
      <trkpt lat="47.79929" lon="-3.44887">
        <ele>67.91</ele>
        <time>2015-09-06T08:09:52Z</time>
      </trkpt>
      <trkpt lat="47.79925" lon="-3.44891">
        <ele>67.91</ele>
        <time>2015-09-06T08:09:53Z</time>
      </trkpt>
      <trkpt lat="47.7992" lon="-3.44895">
        <ele>67.91</ele>
        <time>2015-09-06T08:09:54Z</time>
      </trkpt>
      <trkpt lat="47.79915" lon="-3.44899">
        <ele>67.91</ele>
        <time>2015-09-06T08:09:55Z</time>
      </trkpt>
      <trkpt lat="47.79911" lon="-3.44903">
        <ele>66.47</ele>
        <time>2015-09-06T08:09:56Z</time>
      </trkpt>
      <trkpt lat="47.79906" lon="-3.44908">
        <ele>66.47</ele>
        <time>2015-09-06T08:09:57Z</time>
      </trkpt>
      <trkpt lat="47.79901" lon="-3.44912">
        <ele>65.51</ele>
        <time>2015-09-06T08:09:58Z</time>
      </trkpt>
      <trkpt lat="47.79897" lon="-3.44917">
        <ele>65.51</ele>
        <time>2015-09-06T08:09:59Z</time>
      </trkpt>
      <trkpt lat="47.79891" lon="-3.44922">
        <ele>65.03</ele>
        <time>2015-09-06T08:10:00Z</time>
      </trkpt>
      <trkpt lat="47.79886" lon="-3.44927">
        <ele>64.55</ele>
        <time>2015-09-06T08:10:01Z</time>
      </trkpt>
      <trkpt lat="47.7988" lon="-3.44933">
        <ele>64.55</ele>
        <time>2015-09-06T08:10:02Z</time>
      </trkpt>
      <trkpt lat="47.79874" lon="-3.44939">
        <ele>63.58</ele>
        <time>2015-09-06T08:10:03Z</time>
      </trkpt>
      <trkpt lat="47.79869" lon="-3.44944">
        <ele>63.58</ele>
        <time>2015-09-06T08:10:04Z</time>
      </trkpt>
      <trkpt lat="47.79862" lon="-3.4495">
        <ele>62.62</ele>
        <time>2015-09-06T08:10:05Z</time>
      </trkpt>
      <trkpt lat="47.79855" lon="-3.44957">
        <ele>62.14</ele>
        <time>2015-09-06T08:10:06Z</time>
      </trkpt>
      <trkpt lat="47.79848" lon="-3.44964">
        <ele>61.18</ele>
        <time>2015-09-06T08:10:07Z</time>
      </trkpt>
      <trkpt lat="47.79841" lon="-3.44971">
        <ele>60.7</ele>
        <time>2015-09-06T08:10:08Z</time>
      </trkpt>
      <trkpt lat="47.79833" lon="-3.44978">
        <ele>59.74</ele>
        <time>2015-09-06T08:10:09Z</time>
      </trkpt>
      <trkpt lat="47.79826" lon="-3.44984">
        <ele>59.26</ele>
        <time>2015-09-06T08:10:10Z</time>
      </trkpt>
      <trkpt lat="47.79817" lon="-3.44992">
        <ele>58.3</ele>
        <time>2015-09-06T08:10:11Z</time>
      </trkpt>
      <trkpt lat="47.7981" lon="-3.45">
        <ele>57.82</ele>
        <time>2015-09-06T08:10:12Z</time>
      </trkpt>
      <trkpt lat="47.79801" lon="-3.45007">
        <ele>57.34</ele>
        <time>2015-09-06T08:10:13Z</time>
      </trkpt>
      <trkpt lat="47.79794" lon="-3.45015">
        <ele>56.86</ele>
        <time>2015-09-06T08:10:14Z</time>
      </trkpt>
      <trkpt lat="47.79786" lon="-3.45022">
        <ele>56.86</ele>
        <time>2015-09-06T08:10:15Z</time>
      </trkpt>
      <trkpt lat="47.79778" lon="-3.45029">
        <ele>56.37</ele>
        <time>2015-09-06T08:10:16Z</time>
      </trkpt>
      <trkpt lat="47.7977" lon="-3.45034">
        <ele>55.89</ele>
        <time>2015-09-06T08:10:17Z</time>
      </trkpt>
      <trkpt lat="47.79761" lon="-3.4504">
        <ele>56.37</ele>
        <time>2015-09-06T08:10:18Z</time>
      </trkpt>
      <trkpt lat="47.79754" lon="-3.45047">
        <ele>55.89</ele>
        <time>2015-09-06T08:10:19Z</time>
      </trkpt>
      <trkpt lat="47.79746" lon="-3.45054">
        <ele>55.89</ele>
        <time>2015-09-06T08:10:20Z</time>
      </trkpt>
      <trkpt lat="47.79739" lon="-3.4506">
        <ele>55.41</ele>
        <time>2015-09-06T08:10:21Z</time>
      </trkpt>
      <trkpt lat="47.79732" lon="-3.45066">
        <ele>55.41</ele>
        <time>2015-09-06T08:10:22Z</time>
      </trkpt>
      <trkpt lat="47.79725" lon="-3.45072">
        <ele>55.41</ele>
        <time>2015-09-06T08:10:23Z</time>
      </trkpt>
      <trkpt lat="47.7972" lon="-3.45076">
        <ele>54.45</ele>
        <time>2015-09-06T08:10:24Z</time>
      </trkpt>
      <trkpt lat="47.79715" lon="-3.45078">
        <ele>54.45</ele>
        <time>2015-09-06T08:10:25Z</time>
      </trkpt>
      <trkpt lat="47.79711" lon="-3.45077">
        <ele>54.45</ele>
        <time>2015-09-06T08:10:26Z</time>
      </trkpt>
      <trkpt lat="47.79708" lon="-3.45072">
        <ele>54.45</ele>
        <time>2015-09-06T08:10:27Z</time>
      </trkpt>
      <trkpt lat="47.79706" lon="-3.45066">
        <ele>54.45</ele>
        <time>2015-09-06T08:10:28Z</time>
      </trkpt>
      <trkpt lat="47.79706" lon="-3.45061">
        <ele>54.45</ele>
        <time>2015-09-06T08:10:29Z</time>
      </trkpt>
      <trkpt lat="47.79705" lon="-3.45055">
        <ele>54.45</ele>
        <time>2015-09-06T08:10:30Z</time>
      </trkpt>
      <trkpt lat="47.79704" lon="-3.45048">
        <ele>54.45</ele>
        <time>2015-09-06T08:10:31Z</time>
      </trkpt>
      <trkpt lat="47.79703" lon="-3.45042">
        <ele>54.45</ele>
        <time>2015-09-06T08:10:32Z</time>
      </trkpt>
      <trkpt lat="47.79702" lon="-3.45036">
        <ele>54.45</ele>
        <time>2015-09-06T08:10:33Z</time>
      </trkpt>
      <trkpt lat="47.79701" lon="-3.45029">
        <ele>54.93</ele>
        <time>2015-09-06T08:10:34Z</time>
      </trkpt>
      <trkpt lat="47.797" lon="-3.45022">
        <ele>54.93</ele>
        <time>2015-09-06T08:10:35Z</time>
      </trkpt>
      <trkpt lat="47.79697" lon="-3.45016">
        <ele>54.93</ele>
        <time>2015-09-06T08:10:36Z</time>
      </trkpt>
      <trkpt lat="47.79694" lon="-3.45009">
        <ele>54.93</ele>
        <time>2015-09-06T08:10:37Z</time>
      </trkpt>
      <trkpt lat="47.79691" lon="-3.45004">
        <ele>54.93</ele>
        <time>2015-09-06T08:10:38Z</time>
      </trkpt>
      <trkpt lat="47.79687" lon="-3.44999">
        <ele>54.93</ele>
        <time>2015-09-06T08:10:39Z</time>
      </trkpt>
      <trkpt lat="47.79683" lon="-3.44994">
        <ele>54.93</ele>
        <time>2015-09-06T08:10:40Z</time>
      </trkpt>
      <trkpt lat="47.79678" lon="-3.4499">
        <ele>54.93</ele>
        <time>2015-09-06T08:10:41Z</time>
      </trkpt>
      <trkpt lat="47.79673" lon="-3.44987">
        <ele>54.93</ele>
        <time>2015-09-06T08:10:42Z</time>
      </trkpt>
      <trkpt lat="47.79667" lon="-3.44983">
        <ele>54.93</ele>
        <time>2015-09-06T08:10:43Z</time>
      </trkpt>
      <trkpt lat="47.79662" lon="-3.44979">
        <ele>53.97</ele>
        <time>2015-09-06T08:10:44Z</time>
      </trkpt>
      <trkpt lat="47.79657" lon="-3.44976">
        <ele>53.49</ele>
        <time>2015-09-06T08:10:45Z</time>
      </trkpt>
      <trkpt lat="47.7965" lon="-3.44972">
        <ele>53.49</ele>
        <time>2015-09-06T08:10:46Z</time>
      </trkpt>
      <trkpt lat="47.79645" lon="-3.44968">
        <ele>53.49</ele>
        <time>2015-09-06T08:10:47Z</time>
      </trkpt>
      <trkpt lat="47.79639" lon="-3.44964">
        <ele>53.49</ele>
        <time>2015-09-06T08:10:48Z</time>
      </trkpt>
      <trkpt lat="47.79633" lon="-3.44959">
        <ele>53.49</ele>
        <time>2015-09-06T08:10:49Z</time>
      </trkpt>
      <trkpt lat="47.79628" lon="-3.44954">
        <ele>53.01</ele>
        <time>2015-09-06T08:10:50Z</time>
      </trkpt>
      <trkpt lat="47.79623" lon="-3.4495">
        <ele>53.01</ele>
        <time>2015-09-06T08:10:51Z</time>
      </trkpt>
      <trkpt lat="47.79618" lon="-3.44943">
        <ele>53.01</ele>
        <time>2015-09-06T08:10:52Z</time>
      </trkpt>
      <trkpt lat="47.79614" lon="-3.44936">
        <ele>53.01</ele>
        <time>2015-09-06T08:10:53Z</time>
      </trkpt>
      <trkpt lat="47.7961" lon="-3.4493">
        <ele>53.01</ele>
        <time>2015-09-06T08:10:54Z</time>
      </trkpt>
      <trkpt lat="47.79607" lon="-3.44922">
        <ele>53.01</ele>
        <time>2015-09-06T08:10:55Z</time>
      </trkpt>
      <trkpt lat="47.79605" lon="-3.44913">
        <ele>53.01</ele>
        <time>2015-09-06T08:10:56Z</time>
      </trkpt>
      <trkpt lat="47.79603" lon="-3.44905">
        <ele>53.01</ele>
        <time>2015-09-06T08:10:57Z</time>
      </trkpt>
      <trkpt lat="47.79603" lon="-3.44896">
        <ele>53.01</ele>
        <time>2015-09-06T08:10:58Z</time>
      </trkpt>
      <trkpt lat="47.79602" lon="-3.44887">
        <ele>53.01</ele>
        <time>2015-09-06T08:10:59Z</time>
      </trkpt>
      <trkpt lat="47.79601" lon="-3.44878">
        <ele>53.01</ele>
        <time>2015-09-06T08:11:00Z</time>
      </trkpt>
      <trkpt lat="47.796" lon="-3.44869">
        <ele>53.01</ele>
        <time>2015-09-06T08:11:01Z</time>
      </trkpt>
      <trkpt lat="47.796" lon="-3.44859">
        <ele>52.53</ele>
        <time>2015-09-06T08:11:02Z</time>
      </trkpt>
      <trkpt lat="47.79599" lon="-3.44851">
        <ele>53.01</ele>
        <time>2015-09-06T08:11:03Z</time>
      </trkpt>
      <trkpt lat="47.79598" lon="-3.44841">
        <ele>52.53</ele>
        <time>2015-09-06T08:11:04Z</time>
      </trkpt>
      <trkpt lat="47.79598" lon="-3.44832">
        <ele>53.01</ele>
        <time>2015-09-06T08:11:05Z</time>
      </trkpt>
      <trkpt lat="47.79597" lon="-3.44824">
        <ele>53.01</ele>
        <time>2015-09-06T08:11:06Z</time>
      </trkpt>
      <trkpt lat="47.79596" lon="-3.44814">
        <ele>53.01</ele>
        <time>2015-09-06T08:11:07Z</time>
      </trkpt>
      <trkpt lat="47.79595" lon="-3.44805">
        <ele>53.01</ele>
        <time>2015-09-06T08:11:08Z</time>
      </trkpt>
      <trkpt lat="47.79594" lon="-3.44797">
        <ele>53.01</ele>
        <time>2015-09-06T08:11:09Z</time>
      </trkpt>
      <trkpt lat="47.79593" lon="-3.44788">
        <ele>53.01</ele>
        <time>2015-09-06T08:11:10Z</time>
      </trkpt>
      <trkpt lat="47.79592" lon="-3.44779">
        <ele>53.01</ele>
        <time>2015-09-06T08:11:11Z</time>
      </trkpt>
      <trkpt lat="47.79591" lon="-3.44773">
        <ele>53.01</ele>
        <time>2015-09-06T08:11:12Z</time>
      </trkpt>
      <trkpt lat="47.7959" lon="-3.44766">
        <ele>53.01</ele>
        <time>2015-09-06T08:11:13Z</time>
      </trkpt>
      <trkpt lat="47.7959" lon="-3.44761">
        <ele>53.01</ele>
        <time>2015-09-06T08:11:14Z</time>
      </trkpt>
      <trkpt lat="47.79589" lon="-3.44758">
        <ele>53.97</ele>
        <time>2015-09-06T08:11:15Z</time>
      </trkpt>
      <trkpt lat="47.79589" lon="-3.44754">
        <ele>54.45</ele>
        <time>2015-09-06T08:11:16Z</time>
      </trkpt>
      <trkpt lat="47.79591" lon="-3.4475">
        <ele>54.45</ele>
        <time>2015-09-06T08:11:17Z</time>
      </trkpt>
      <trkpt lat="47.79593" lon="-3.44748">
        <ele>54.45</ele>
        <time>2015-09-06T08:11:18Z</time>
      </trkpt>
      <trkpt lat="47.79595" lon="-3.44747">
        <ele>54.45</ele>
        <time>2015-09-06T08:11:19Z</time>
      </trkpt>
      <trkpt lat="47.79598" lon="-3.44746">
        <ele>54.45</ele>
        <time>2015-09-06T08:11:20Z</time>
      </trkpt>
      <trkpt lat="47.79601" lon="-3.44744">
        <ele>54.45</ele>
        <time>2015-09-06T08:11:21Z</time>
      </trkpt>
      <trkpt lat="47.79604" lon="-3.44741">
        <ele>54.45</ele>
        <time>2015-09-06T08:11:22Z</time>
      </trkpt>
      <trkpt lat="47.79608" lon="-3.44739">
        <ele>54.45</ele>
        <time>2015-09-06T08:11:23Z</time>
      </trkpt>
      <trkpt lat="47.79611" lon="-3.44738">
        <ele>54.45</ele>
        <time>2015-09-06T08:11:24Z</time>
      </trkpt>
      <trkpt lat="47.79615" lon="-3.44735">
        <ele>54.93</ele>
        <time>2015-09-06T08:11:25Z</time>
      </trkpt>
      <trkpt lat="47.79619" lon="-3.44733">
        <ele>54.93</ele>
        <time>2015-09-06T08:11:26Z</time>
      </trkpt>
      <trkpt lat="47.79622" lon="-3.44731">
        <ele>54.93</ele>
        <time>2015-09-06T08:11:27Z</time>
      </trkpt>
      <trkpt lat="47.79626" lon="-3.44728">
        <ele>54.93</ele>
        <time>2015-09-06T08:11:28Z</time>
      </trkpt>
      <trkpt lat="47.79629" lon="-3.44726">
        <ele>55.89</ele>
        <time>2015-09-06T08:11:29Z</time>
      </trkpt>
      <trkpt lat="47.79633" lon="-3.44724">
        <ele>55.89</ele>
        <time>2015-09-06T08:11:30Z</time>
      </trkpt>
      <trkpt lat="47.79637" lon="-3.44721">
        <ele>55.89</ele>
        <time>2015-09-06T08:11:31Z</time>
      </trkpt>
      <trkpt lat="47.7964" lon="-3.44718">
        <ele>56.37</ele>
        <time>2015-09-06T08:11:32Z</time>
      </trkpt>
      <trkpt lat="47.79644" lon="-3.44715">
        <ele>56.37</ele>
        <time>2015-09-06T08:11:33Z</time>
      </trkpt>
      <trkpt lat="47.79648" lon="-3.44713">
        <ele>56.86</ele>
        <time>2015-09-06T08:11:34Z</time>
      </trkpt>
      <trkpt lat="47.79652" lon="-3.4471">
        <ele>56.86</ele>
        <time>2015-09-06T08:11:35Z</time>
      </trkpt>
      <trkpt lat="47.79656" lon="-3.44708">
        <ele>57.34</ele>
        <time>2015-09-06T08:11:36Z</time>
      </trkpt>
      <trkpt lat="47.7966" lon="-3.44705">
        <ele>57.34</ele>
        <time>2015-09-06T08:11:37Z</time>
      </trkpt>
      <trkpt lat="47.79665" lon="-3.44702">
        <ele>57.34</ele>
        <time>2015-09-06T08:11:38Z</time>
      </trkpt>
      <trkpt lat="47.79669" lon="-3.447">
        <ele>57.34</ele>
        <time>2015-09-06T08:11:39Z</time>
      </trkpt>
      <trkpt lat="47.79673" lon="-3.44697">
        <ele>57.82</ele>
        <time>2015-09-06T08:11:40Z</time>
      </trkpt>
      <trkpt lat="47.79678" lon="-3.44694">
        <ele>57.82</ele>
        <time>2015-09-06T08:11:41Z</time>
      </trkpt>
      <trkpt lat="47.79683" lon="-3.44692">
        <ele>57.82</ele>
        <time>2015-09-06T08:11:42Z</time>
      </trkpt>
      <trkpt lat="47.79687" lon="-3.4469">
        <ele>58.3</ele>
        <time>2015-09-06T08:11:43Z</time>
      </trkpt>
      <trkpt lat="47.79691" lon="-3.44688">
        <ele>58.3</ele>
        <time>2015-09-06T08:11:44Z</time>
      </trkpt>
      <trkpt lat="47.79696" lon="-3.44685">
        <ele>58.3</ele>
        <time>2015-09-06T08:11:45Z</time>
      </trkpt>
      <trkpt lat="47.79701" lon="-3.44683">
        <ele>58.3</ele>
        <time>2015-09-06T08:11:46Z</time>
      </trkpt>
      <trkpt lat="47.79705" lon="-3.4468">
        <ele>58.78</ele>
        <time>2015-09-06T08:11:47Z</time>
      </trkpt>
      <trkpt lat="47.79708" lon="-3.44676">
        <ele>58.78</ele>
        <time>2015-09-06T08:11:48Z</time>
      </trkpt>
      <trkpt lat="47.79711" lon="-3.44672">
        <ele>58.78</ele>
        <time>2015-09-06T08:11:49Z</time>
      </trkpt>
      <trkpt lat="47.79714" lon="-3.44668">
        <ele>58.78</ele>
        <time>2015-09-06T08:11:50Z</time>
      </trkpt>
      <trkpt lat="47.79718" lon="-3.44665">
        <ele>58.78</ele>
        <time>2015-09-06T08:11:51Z</time>
      </trkpt>
      <trkpt lat="47.79722" lon="-3.44662">
        <ele>58.78</ele>
        <time>2015-09-06T08:11:52Z</time>
      </trkpt>
      <trkpt lat="47.79726" lon="-3.44661">
        <ele>58.78</ele>
        <time>2015-09-06T08:11:53Z</time>
      </trkpt>
      <trkpt lat="47.7973" lon="-3.44658">
        <ele>58.78</ele>
        <time>2015-09-06T08:11:54Z</time>
      </trkpt>
      <trkpt lat="47.79734" lon="-3.44656">
        <ele>58.78</ele>
        <time>2015-09-06T08:11:55Z</time>
      </trkpt>
      <trkpt lat="47.79738" lon="-3.44653">
        <ele>58.78</ele>
        <time>2015-09-06T08:11:56Z</time>
      </trkpt>
      <trkpt lat="47.7974" lon="-3.44647">
        <ele>58.78</ele>
        <time>2015-09-06T08:11:57Z</time>
      </trkpt>
      <trkpt lat="47.7974" lon="-3.44644">
        <ele>59.26</ele>
        <time>2015-09-06T08:11:58Z</time>
      </trkpt>
      <trkpt lat="47.79739" lon="-3.44641">
        <ele>59.26</ele>
        <time>2015-09-06T08:11:59Z</time>
      </trkpt>
      <trkpt lat="47.79738" lon="-3.44638">
        <ele>59.74</ele>
        <time>2015-09-06T08:12:00Z</time>
      </trkpt>
      <trkpt lat="47.79737" lon="-3.44635">
        <ele>60.22</ele>
        <time>2015-09-06T08:12:01Z</time>
      </trkpt>
      <trkpt lat="47.79737" lon="-3.44632">
        <ele>60.22</ele>
        <time>2015-09-06T08:12:02Z</time>
      </trkpt>
      <trkpt lat="47.79737" lon="-3.44629">
        <ele>60.7</ele>
        <time>2015-09-06T08:12:03Z</time>
      </trkpt>
      <trkpt lat="47.79737" lon="-3.44626">
        <ele>61.18</ele>
        <time>2015-09-06T08:12:04Z</time>
      </trkpt>
      <trkpt lat="47.79737" lon="-3.44624">
        <ele>61.18</ele>
        <time>2015-09-06T08:12:05Z</time>
      </trkpt>
      <trkpt lat="47.79736" lon="-3.44622">
        <ele>61.18</ele>
        <time>2015-09-06T08:12:06Z</time>
      </trkpt>
      <trkpt lat="47.79735" lon="-3.4462">
        <ele>61.66</ele>
        <time>2015-09-06T08:12:07Z</time>
      </trkpt>
      <trkpt lat="47.79735" lon="-3.44618">
        <ele>61.66</ele>
        <time>2015-09-06T08:12:08Z</time>
      </trkpt>
      <trkpt lat="47.79734" lon="-3.44616">
        <ele>61.66</ele>
        <time>2015-09-06T08:12:09Z</time>
      </trkpt>
      <trkpt lat="47.79733" lon="-3.44614">
        <ele>62.14</ele>
        <time>2015-09-06T08:12:10Z</time>
      </trkpt>
      <trkpt lat="47.79732" lon="-3.44612">
        <ele>62.14</ele>
        <time>2015-09-06T08:12:11Z</time>
      </trkpt>
      <trkpt lat="47.79731" lon="-3.44611">
        <ele>62.14</ele>
        <time>2015-09-06T08:12:12Z</time>
      </trkpt>
      <trkpt lat="47.7973" lon="-3.44609">
        <ele>62.62</ele>
        <time>2015-09-06T08:12:13Z</time>
      </trkpt>
      <trkpt lat="47.79728" lon="-3.44608">
        <ele>62.62</ele>
        <time>2015-09-06T08:12:14Z</time>
      </trkpt>
      <trkpt lat="47.79727" lon="-3.44607">
        <ele>62.62</ele>
        <time>2015-09-06T08:12:15Z</time>
      </trkpt>
      <trkpt lat="47.79726" lon="-3.44607">
        <ele>63.1</ele>
        <time>2015-09-06T08:12:16Z</time>
      </trkpt>
      <trkpt lat="47.79724" lon="-3.44607">
        <ele>63.1</ele>
        <time>2015-09-06T08:12:17Z</time>
      </trkpt>
      <trkpt lat="47.79723" lon="-3.44607">
        <ele>63.1</ele>
        <time>2015-09-06T08:12:18Z</time>
      </trkpt>
      <trkpt lat="47.79721" lon="-3.44608">
        <ele>63.58</ele>
        <time>2015-09-06T08:12:19Z</time>
      </trkpt>
      <trkpt lat="47.7972" lon="-3.44608">
        <ele>63.58</ele>
        <time>2015-09-06T08:12:20Z</time>
      </trkpt>
      <trkpt lat="47.79719" lon="-3.44609">
        <ele>64.07</ele>
        <time>2015-09-06T08:12:21Z</time>
      </trkpt>
      <trkpt lat="47.79717" lon="-3.44609">
        <ele>64.07</ele>
        <time>2015-09-06T08:12:22Z</time>
      </trkpt>
      <trkpt lat="47.79715" lon="-3.44609">
        <ele>64.07</ele>
        <time>2015-09-06T08:12:23Z</time>
      </trkpt>
      <trkpt lat="47.79714" lon="-3.44609">
        <ele>64.07</ele>
        <time>2015-09-06T08:12:24Z</time>
      </trkpt>
      <trkpt lat="47.79712" lon="-3.4461">
        <ele>64.55</ele>
        <time>2015-09-06T08:12:25Z</time>
      </trkpt>
      <trkpt lat="47.79709" lon="-3.4461">
        <ele>64.55</ele>
        <time>2015-09-06T08:12:26Z</time>
      </trkpt>
      <trkpt lat="47.79707" lon="-3.44609">
        <ele>64.55</ele>
        <time>2015-09-06T08:12:27Z</time>
      </trkpt>
      <trkpt lat="47.79705" lon="-3.44609">
        <ele>65.03</ele>
        <time>2015-09-06T08:12:28Z</time>
      </trkpt>
      <trkpt lat="47.79703" lon="-3.44609">
        <ele>65.03</ele>
        <time>2015-09-06T08:12:29Z</time>
      </trkpt>
      <trkpt lat="47.79701" lon="-3.44608">
        <ele>65.03</ele>
        <time>2015-09-06T08:12:30Z</time>
      </trkpt>
      <trkpt lat="47.79699" lon="-3.44607">
        <ele>65.03</ele>
        <time>2015-09-06T08:12:31Z</time>
      </trkpt>
      <trkpt lat="47.79697" lon="-3.44606">
        <ele>65.03</ele>
        <time>2015-09-06T08:12:32Z</time>
      </trkpt>
      <trkpt lat="47.79695" lon="-3.44604">
        <ele>65.51</ele>
        <time>2015-09-06T08:12:33Z</time>
      </trkpt>
      <trkpt lat="47.79694" lon="-3.44602">
        <ele>65.51</ele>
        <time>2015-09-06T08:12:34Z</time>
      </trkpt>
      <trkpt lat="47.79692" lon="-3.446">
        <ele>65.51</ele>
        <time>2015-09-06T08:12:35Z</time>
      </trkpt>
      <trkpt lat="47.7969" lon="-3.44599">
        <ele>65.51</ele>
        <time>2015-09-06T08:12:36Z</time>
      </trkpt>
      <trkpt lat="47.79688" lon="-3.44597">
        <ele>65.51</ele>
        <time>2015-09-06T08:12:37Z</time>
      </trkpt>
      <trkpt lat="47.79686" lon="-3.44594">
        <ele>65.51</ele>
        <time>2015-09-06T08:12:38Z</time>
      </trkpt>
      <trkpt lat="47.79684" lon="-3.44592">
        <ele>65.51</ele>
        <time>2015-09-06T08:12:39Z</time>
      </trkpt>
      <trkpt lat="47.79681" lon="-3.44588">
        <ele>65.51</ele>
        <time>2015-09-06T08:12:40Z</time>
      </trkpt>
      <trkpt lat="47.7968" lon="-3.44585">
        <ele>65.51</ele>
        <time>2015-09-06T08:12:41Z</time>
      </trkpt>
      <trkpt lat="47.79678" lon="-3.44581">
        <ele>65.51</ele>
        <time>2015-09-06T08:12:42Z</time>
      </trkpt>
      <trkpt lat="47.79677" lon="-3.44577">
        <ele>65.51</ele>
        <time>2015-09-06T08:12:43Z</time>
      </trkpt>
      <trkpt lat="47.79676" lon="-3.44572">
        <ele>65.51</ele>
        <time>2015-09-06T08:12:44Z</time>
      </trkpt>
      <trkpt lat="47.79675" lon="-3.44568">
        <ele>65.51</ele>
        <time>2015-09-06T08:12:45Z</time>
      </trkpt>
      <trkpt lat="47.79674" lon="-3.44564">
        <ele>65.51</ele>
        <time>2015-09-06T08:12:46Z</time>
      </trkpt>
      <trkpt lat="47.79673" lon="-3.44561">
        <ele>65.51</ele>
        <time>2015-09-06T08:12:47Z</time>
      </trkpt>
      <trkpt lat="47.79673" lon="-3.44559">
        <ele>65.51</ele>
        <time>2015-09-06T08:12:48Z</time>
      </trkpt>
      <trkpt lat="47.79672" lon="-3.44556">
        <ele>65.51</ele>
        <time>2015-09-06T08:12:49Z</time>
      </trkpt>
      <trkpt lat="47.79672" lon="-3.44553">
        <ele>65.51</ele>
        <time>2015-09-06T08:12:50Z</time>
      </trkpt>
      <trkpt lat="47.79671" lon="-3.4455">
        <ele>65.51</ele>
        <time>2015-09-06T08:12:51Z</time>
      </trkpt>
      <trkpt lat="47.7967" lon="-3.44546">
        <ele>65.51</ele>
        <time>2015-09-06T08:12:52Z</time>
      </trkpt>
      <trkpt lat="47.7967" lon="-3.44541">
        <ele>65.51</ele>
        <time>2015-09-06T08:12:53Z</time>
      </trkpt>
      <trkpt lat="47.79669" lon="-3.44538">
        <ele>65.51</ele>
        <time>2015-09-06T08:12:54Z</time>
      </trkpt>
      <trkpt lat="47.79669" lon="-3.44534">
        <ele>64.07</ele>
        <time>2015-09-06T08:12:55Z</time>
      </trkpt>
      <trkpt lat="47.79668" lon="-3.44528">
        <ele>64.07</ele>
        <time>2015-09-06T08:12:56Z</time>
      </trkpt>
      <trkpt lat="47.79667" lon="-3.44524">
        <ele>64.07</ele>
        <time>2015-09-06T08:12:57Z</time>
      </trkpt>
      <trkpt lat="47.79666" lon="-3.44518">
        <ele>64.07</ele>
        <time>2015-09-06T08:12:58Z</time>
      </trkpt>
      <trkpt lat="47.79666" lon="-3.44512">
        <ele>64.07</ele>
        <time>2015-09-06T08:12:59Z</time>
      </trkpt>
      <trkpt lat="47.79666" lon="-3.44507">
        <ele>64.07</ele>
        <time>2015-09-06T08:13:00Z</time>
      </trkpt>
      <trkpt lat="47.79666" lon="-3.44501">
        <ele>64.07</ele>
        <time>2015-09-06T08:13:01Z</time>
      </trkpt>
      <trkpt lat="47.79666" lon="-3.44495">
        <ele>63.58</ele>
        <time>2015-09-06T08:13:02Z</time>
      </trkpt>
      <trkpt lat="47.79666" lon="-3.44489">
        <ele>63.58</ele>
        <time>2015-09-06T08:13:03Z</time>
      </trkpt>
      <trkpt lat="47.79666" lon="-3.44482">
        <ele>63.58</ele>
        <time>2015-09-06T08:13:04Z</time>
      </trkpt>
      <trkpt lat="47.79666" lon="-3.44476">
        <ele>62.62</ele>
        <time>2015-09-06T08:13:05Z</time>
      </trkpt>
      <trkpt lat="47.79666" lon="-3.44469">
        <ele>62.62</ele>
        <time>2015-09-06T08:13:06Z</time>
      </trkpt>
      <trkpt lat="47.79665" lon="-3.44462">
        <ele>62.62</ele>
        <time>2015-09-06T08:13:07Z</time>
      </trkpt>
      <trkpt lat="47.79663" lon="-3.44456">
        <ele>62.62</ele>
        <time>2015-09-06T08:13:08Z</time>
      </trkpt>
      <trkpt lat="47.79662" lon="-3.4445">
        <ele>62.62</ele>
        <time>2015-09-06T08:13:09Z</time>
      </trkpt>
      <trkpt lat="47.7966" lon="-3.44444">
        <ele>62.62</ele>
        <time>2015-09-06T08:13:10Z</time>
      </trkpt>
      <trkpt lat="47.79659" lon="-3.44437">
        <ele>62.62</ele>
        <time>2015-09-06T08:13:11Z</time>
      </trkpt>
      <trkpt lat="47.79658" lon="-3.44431">
        <ele>62.62</ele>
        <time>2015-09-06T08:13:12Z</time>
      </trkpt>
      <trkpt lat="47.79657" lon="-3.44424">
        <ele>62.62</ele>
        <time>2015-09-06T08:13:13Z</time>
      </trkpt>
      <trkpt lat="47.79657" lon="-3.44418">
        <ele>62.62</ele>
        <time>2015-09-06T08:13:14Z</time>
      </trkpt>
      <trkpt lat="47.79657" lon="-3.44411">
        <ele>62.62</ele>
        <time>2015-09-06T08:13:15Z</time>
      </trkpt>
      <trkpt lat="47.79658" lon="-3.44404">
        <ele>62.62</ele>
        <time>2015-09-06T08:13:16Z</time>
      </trkpt>
      <trkpt lat="47.79659" lon="-3.44398">
        <ele>62.14</ele>
        <time>2015-09-06T08:13:17Z</time>
      </trkpt>
      <trkpt lat="47.79659" lon="-3.44391">
        <ele>62.14</ele>
        <time>2015-09-06T08:13:18Z</time>
      </trkpt>
      <trkpt lat="47.79657" lon="-3.44385">
        <ele>62.14</ele>
        <time>2015-09-06T08:13:19Z</time>
      </trkpt>
      <trkpt lat="47.79655" lon="-3.44379">
        <ele>62.14</ele>
        <time>2015-09-06T08:13:20Z</time>
      </trkpt>
      <trkpt lat="47.79653" lon="-3.44375">
        <ele>62.14</ele>
        <time>2015-09-06T08:13:21Z</time>
      </trkpt>
      <trkpt lat="47.79651" lon="-3.44372">
        <ele>63.58</ele>
        <time>2015-09-06T08:13:22Z</time>
      </trkpt>
      <trkpt lat="47.79648" lon="-3.44369">
        <ele>64.07</ele>
        <time>2015-09-06T08:13:23Z</time>
      </trkpt>
      <trkpt lat="47.79646" lon="-3.44367">
        <ele>64.07</ele>
        <time>2015-09-06T08:13:24Z</time>
      </trkpt>
      <trkpt lat="47.79645" lon="-3.44364">
        <ele>65.03</ele>
        <time>2015-09-06T08:13:25Z</time>
      </trkpt>
      <trkpt lat="47.79643" lon="-3.44363">
        <ele>65.03</ele>
        <time>2015-09-06T08:13:26Z</time>
      </trkpt>
      <trkpt lat="47.79642" lon="-3.44361">
        <ele>65.51</ele>
        <time>2015-09-06T08:13:27Z</time>
      </trkpt>
      <trkpt lat="47.7964" lon="-3.44359">
        <ele>65.51</ele>
        <time>2015-09-06T08:13:28Z</time>
      </trkpt>
      <trkpt lat="47.79638" lon="-3.44358">
        <ele>65.99</ele>
        <time>2015-09-06T08:13:29Z</time>
      </trkpt>
      <trkpt lat="47.79636" lon="-3.44357">
        <ele>65.99</ele>
        <time>2015-09-06T08:13:30Z</time>
      </trkpt>
      <trkpt lat="47.79634" lon="-3.44356">
        <ele>65.99</ele>
        <time>2015-09-06T08:13:31Z</time>
      </trkpt>
      <trkpt lat="47.79632" lon="-3.44356">
        <ele>66.47</ele>
        <time>2015-09-06T08:13:32Z</time>
      </trkpt>
      <trkpt lat="47.7963" lon="-3.44356">
        <ele>66.47</ele>
        <time>2015-09-06T08:13:33Z</time>
      </trkpt>
      <trkpt lat="47.79628" lon="-3.44356">
        <ele>66.47</ele>
        <time>2015-09-06T08:13:34Z</time>
      </trkpt>
      <trkpt lat="47.79626" lon="-3.44356">
        <ele>66.95</ele>
        <time>2015-09-06T08:13:35Z</time>
      </trkpt>
      <trkpt lat="47.79624" lon="-3.44356">
        <ele>66.95</ele>
        <time>2015-09-06T08:13:36Z</time>
      </trkpt>
      <trkpt lat="47.79622" lon="-3.44355">
        <ele>67.43</ele>
        <time>2015-09-06T08:13:37Z</time>
      </trkpt>
      <trkpt lat="47.7962" lon="-3.44354">
        <ele>67.43</ele>
        <time>2015-09-06T08:13:38Z</time>
      </trkpt>
      <trkpt lat="47.79617" lon="-3.44353">
        <ele>67.43</ele>
        <time>2015-09-06T08:13:39Z</time>
      </trkpt>
      <trkpt lat="47.79614" lon="-3.44352">
        <ele>67.43</ele>
        <time>2015-09-06T08:13:40Z</time>
      </trkpt>
      <trkpt lat="47.79612" lon="-3.44351">
        <ele>67.43</ele>
        <time>2015-09-06T08:13:41Z</time>
      </trkpt>
      <trkpt lat="47.79609" lon="-3.4435">
        <ele>67.43</ele>
        <time>2015-09-06T08:13:42Z</time>
      </trkpt>
      <trkpt lat="47.79607" lon="-3.4435">
        <ele>67.43</ele>
        <time>2015-09-06T08:13:43Z</time>
      </trkpt>
      <trkpt lat="47.79604" lon="-3.44349">
        <ele>67.43</ele>
        <time>2015-09-06T08:13:44Z</time>
      </trkpt>
      <trkpt lat="47.79601" lon="-3.44349">
        <ele>67.43</ele>
        <time>2015-09-06T08:13:45Z</time>
      </trkpt>
      <trkpt lat="47.79598" lon="-3.44349">
        <ele>67.43</ele>
        <time>2015-09-06T08:13:46Z</time>
      </trkpt>
      <trkpt lat="47.79595" lon="-3.44349">
        <ele>67.43</ele>
        <time>2015-09-06T08:13:47Z</time>
      </trkpt>
      <trkpt lat="47.79592" lon="-3.44349">
        <ele>67.91</ele>
        <time>2015-09-06T08:13:48Z</time>
      </trkpt>
      <trkpt lat="47.79589" lon="-3.44349">
        <ele>67.91</ele>
        <time>2015-09-06T08:13:49Z</time>
      </trkpt>
      <trkpt lat="47.79586" lon="-3.44348">
        <ele>67.91</ele>
        <time>2015-09-06T08:13:50Z</time>
      </trkpt>
      <trkpt lat="47.79582" lon="-3.44346">
        <ele>67.91</ele>
        <time>2015-09-06T08:13:51Z</time>
      </trkpt>
      <trkpt lat="47.79579" lon="-3.44345">
        <ele>67.91</ele>
        <time>2015-09-06T08:13:52Z</time>
      </trkpt>
      <trkpt lat="47.79575" lon="-3.44344">
        <ele>67.91</ele>
        <time>2015-09-06T08:13:53Z</time>
      </trkpt>
      <trkpt lat="47.79572" lon="-3.44344">
        <ele>67.91</ele>
        <time>2015-09-06T08:13:54Z</time>
      </trkpt>
      <trkpt lat="47.79569" lon="-3.44344">
        <ele>67.91</ele>
        <time>2015-09-06T08:13:55Z</time>
      </trkpt>
      <trkpt lat="47.79566" lon="-3.44346">
        <ele>67.91</ele>
        <time>2015-09-06T08:13:56Z</time>
      </trkpt>
      <trkpt lat="47.79562" lon="-3.44349">
        <ele>67.91</ele>
        <time>2015-09-06T08:13:57Z</time>
      </trkpt>
      <trkpt lat="47.79558" lon="-3.44351">
        <ele>67.91</ele>
        <time>2015-09-06T08:13:58Z</time>
      </trkpt>
      <trkpt lat="47.79555" lon="-3.44354">
        <ele>67.91</ele>
        <time>2015-09-06T08:13:59Z</time>
      </trkpt>
      <trkpt lat="47.79551" lon="-3.44355">
        <ele>67.91</ele>
        <time>2015-09-06T08:14:00Z</time>
      </trkpt>
      <trkpt lat="47.79548" lon="-3.44354">
        <ele>67.91</ele>
        <time>2015-09-06T08:14:01Z</time>
      </trkpt>
      <trkpt lat="47.79546" lon="-3.44352">
        <ele>67.91</ele>
        <time>2015-09-06T08:14:02Z</time>
      </trkpt>
      <trkpt lat="47.79545" lon="-3.44349">
        <ele>67.91</ele>
        <time>2015-09-06T08:14:03Z</time>
      </trkpt>
      <trkpt lat="47.79543" lon="-3.44347">
        <ele>67.91</ele>
        <time>2015-09-06T08:14:04Z</time>
      </trkpt>
      <trkpt lat="47.79541" lon="-3.44346">
        <ele>67.91</ele>
        <time>2015-09-06T08:14:05Z</time>
      </trkpt>
      <trkpt lat="47.79538" lon="-3.44344">
        <ele>67.91</ele>
        <time>2015-09-06T08:14:06Z</time>
      </trkpt>
      <trkpt lat="47.79536" lon="-3.44342">
        <ele>67.91</ele>
        <time>2015-09-06T08:14:07Z</time>
      </trkpt>
      <trkpt lat="47.79534" lon="-3.44341">
        <ele>67.91</ele>
        <time>2015-09-06T08:14:08Z</time>
      </trkpt>
      <trkpt lat="47.79532" lon="-3.4434">
        <ele>67.91</ele>
        <time>2015-09-06T08:14:09Z</time>
      </trkpt>
      <trkpt lat="47.7953" lon="-3.44339">
        <ele>67.91</ele>
        <time>2015-09-06T08:14:10Z</time>
      </trkpt>
      <trkpt lat="47.79527" lon="-3.44338">
        <ele>67.91</ele>
        <time>2015-09-06T08:14:11Z</time>
      </trkpt>
      <trkpt lat="47.79525" lon="-3.44339">
        <ele>67.91</ele>
        <time>2015-09-06T08:14:12Z</time>
      </trkpt>
      <trkpt lat="47.79524" lon="-3.4434">
        <ele>67.91</ele>
        <time>2015-09-06T08:14:13Z</time>
      </trkpt>
      <trkpt lat="47.79523" lon="-3.44341">
        <ele>67.91</ele>
        <time>2015-09-06T08:14:14Z</time>
      </trkpt>
      <trkpt lat="47.79522" lon="-3.44343">
        <ele>67.91</ele>
        <time>2015-09-06T08:14:15Z</time>
      </trkpt>
      <trkpt lat="47.79521" lon="-3.44345">
        <ele>67.91</ele>
        <time>2015-09-06T08:14:16Z</time>
      </trkpt>
      <trkpt lat="47.79519" lon="-3.44347">
        <ele>67.91</ele>
        <time>2015-09-06T08:14:17Z</time>
      </trkpt>
      <trkpt lat="47.79518" lon="-3.44349">
        <ele>67.91</ele>
        <time>2015-09-06T08:14:18Z</time>
      </trkpt>
      <trkpt lat="47.79516" lon="-3.44351">
        <ele>67.91</ele>
        <time>2015-09-06T08:14:19Z</time>
      </trkpt>
      <trkpt lat="47.79514" lon="-3.44353">
        <ele>67.91</ele>
        <time>2015-09-06T08:14:20Z</time>
      </trkpt>
      <trkpt lat="47.79512" lon="-3.44356">
        <ele>67.91</ele>
        <time>2015-09-06T08:14:21Z</time>
      </trkpt>
      <trkpt lat="47.79509" lon="-3.44358">
        <ele>66.95</ele>
        <time>2015-09-06T08:14:22Z</time>
      </trkpt>
      <trkpt lat="47.79505" lon="-3.4436">
        <ele>66.95</ele>
        <time>2015-09-06T08:14:23Z</time>
      </trkpt>
      <trkpt lat="47.79501" lon="-3.44361">
        <ele>66.95</ele>
        <time>2015-09-06T08:14:24Z</time>
      </trkpt>
      <trkpt lat="47.79498" lon="-3.44361">
        <ele>66.95</ele>
        <time>2015-09-06T08:14:25Z</time>
      </trkpt>
      <trkpt lat="47.79495" lon="-3.44361">
        <ele>66.95</ele>
        <time>2015-09-06T08:14:26Z</time>
      </trkpt>
      <trkpt lat="47.79493" lon="-3.44359">
        <ele>66.47</ele>
        <time>2015-09-06T08:14:27Z</time>
      </trkpt>
      <trkpt lat="47.79492" lon="-3.44355">
        <ele>66.47</ele>
        <time>2015-09-06T08:14:28Z</time>
      </trkpt>
      <trkpt lat="47.79491" lon="-3.44352">
        <ele>66.47</ele>
        <time>2015-09-06T08:14:29Z</time>
      </trkpt>
      <trkpt lat="47.79491" lon="-3.44349">
        <ele>66.47</ele>
        <time>2015-09-06T08:14:30Z</time>
      </trkpt>
      <trkpt lat="47.79491" lon="-3.44345">
        <ele>66.47</ele>
        <time>2015-09-06T08:14:31Z</time>
      </trkpt>
      <trkpt lat="47.79491" lon="-3.4434">
        <ele>66.47</ele>
        <time>2015-09-06T08:14:32Z</time>
      </trkpt>
      <trkpt lat="47.7949" lon="-3.44336">
        <ele>66.47</ele>
        <time>2015-09-06T08:14:33Z</time>
      </trkpt>
      <trkpt lat="47.7949" lon="-3.44331">
        <ele>66.47</ele>
        <time>2015-09-06T08:14:34Z</time>
      </trkpt>
      <trkpt lat="47.79489" lon="-3.44327">
        <ele>66.47</ele>
        <time>2015-09-06T08:14:35Z</time>
      </trkpt>
      <trkpt lat="47.79489" lon="-3.44324">
        <ele>66.47</ele>
        <time>2015-09-06T08:14:36Z</time>
      </trkpt>
      <trkpt lat="47.79489" lon="-3.4432">
        <ele>66.47</ele>
        <time>2015-09-06T08:14:37Z</time>
      </trkpt>
      <trkpt lat="47.79489" lon="-3.44315">
        <ele>66.47</ele>
        <time>2015-09-06T08:14:38Z</time>
      </trkpt>
      <trkpt lat="47.79489" lon="-3.4431">
        <ele>66.47</ele>
        <time>2015-09-06T08:14:39Z</time>
      </trkpt>
      <trkpt lat="47.79488" lon="-3.44305">
        <ele>66.47</ele>
        <time>2015-09-06T08:14:40Z</time>
      </trkpt>
      <trkpt lat="47.79488" lon="-3.443">
        <ele>66.47</ele>
        <time>2015-09-06T08:14:41Z</time>
      </trkpt>
      <trkpt lat="47.79488" lon="-3.44295">
        <ele>66.47</ele>
        <time>2015-09-06T08:14:42Z</time>
      </trkpt>
      <trkpt lat="47.79488" lon="-3.4429">
        <ele>66.47</ele>
        <time>2015-09-06T08:14:43Z</time>
      </trkpt>
      <trkpt lat="47.79489" lon="-3.44286">
        <ele>66.47</ele>
        <time>2015-09-06T08:14:44Z</time>
      </trkpt>
      <trkpt lat="47.7949" lon="-3.44282">
        <ele>66.47</ele>
        <time>2015-09-06T08:14:45Z</time>
      </trkpt>
      <trkpt lat="47.79491" lon="-3.44277">
        <ele>65.99</ele>
        <time>2015-09-06T08:14:46Z</time>
      </trkpt>
      <trkpt lat="47.79491" lon="-3.44273">
        <ele>65.99</ele>
        <time>2015-09-06T08:14:47Z</time>
      </trkpt>
      <trkpt lat="47.79492" lon="-3.44269">
        <ele>65.99</ele>
        <time>2015-09-06T08:14:48Z</time>
      </trkpt>
      <trkpt lat="47.79493" lon="-3.44264">
        <ele>65.99</ele>
        <time>2015-09-06T08:14:49Z</time>
      </trkpt>
      <trkpt lat="47.79494" lon="-3.44259">
        <ele>65.99</ele>
        <time>2015-09-06T08:14:50Z</time>
      </trkpt>
      <trkpt lat="47.79496" lon="-3.44253">
        <ele>65.99</ele>
        <time>2015-09-06T08:14:51Z</time>
      </trkpt>
      <trkpt lat="47.79496" lon="-3.44248">
        <ele>65.51</ele>
        <time>2015-09-06T08:14:52Z</time>
      </trkpt>
      <trkpt lat="47.79496" lon="-3.44243">
        <ele>65.51</ele>
        <time>2015-09-06T08:14:53Z</time>
      </trkpt>
      <trkpt lat="47.79494" lon="-3.44239">
        <ele>65.51</ele>
        <time>2015-09-06T08:14:54Z</time>
      </trkpt>
      <trkpt lat="47.79491" lon="-3.44235">
        <ele>65.51</ele>
        <time>2015-09-06T08:14:55Z</time>
      </trkpt>
      <trkpt lat="47.79488" lon="-3.44231">
        <ele>64.55</ele>
        <time>2015-09-06T08:14:56Z</time>
      </trkpt>
      <trkpt lat="47.79485" lon="-3.44227">
        <ele>64.07</ele>
        <time>2015-09-06T08:14:57Z</time>
      </trkpt>
      <trkpt lat="47.79482" lon="-3.44223">
        <ele>64.07</ele>
        <time>2015-09-06T08:14:58Z</time>
      </trkpt>
      <trkpt lat="47.7948" lon="-3.44218">
        <ele>63.1</ele>
        <time>2015-09-06T08:14:59Z</time>
      </trkpt>
      <trkpt lat="47.79476" lon="-3.44216">
        <ele>62.62</ele>
        <time>2015-09-06T08:15:00Z</time>
      </trkpt>
      <trkpt lat="47.79472" lon="-3.44214">
        <ele>62.62</ele>
        <time>2015-09-06T08:15:01Z</time>
      </trkpt>
      <trkpt lat="47.79468" lon="-3.44213">
        <ele>62.14</ele>
        <time>2015-09-06T08:15:02Z</time>
      </trkpt>
      <trkpt lat="47.79463" lon="-3.4421">
        <ele>62.14</ele>
        <time>2015-09-06T08:15:03Z</time>
      </trkpt>
      <trkpt lat="47.79459" lon="-3.44206">
        <ele>62.14</ele>
        <time>2015-09-06T08:15:04Z</time>
      </trkpt>
      <trkpt lat="47.79455" lon="-3.44203">
        <ele>61.18</ele>
        <time>2015-09-06T08:15:05Z</time>
      </trkpt>
      <trkpt lat="47.7945" lon="-3.44202">
        <ele>61.18</ele>
        <time>2015-09-06T08:15:06Z</time>
      </trkpt>
      <trkpt lat="47.79446" lon="-3.44202">
        <ele>61.18</ele>
        <time>2015-09-06T08:15:07Z</time>
      </trkpt>
      <trkpt lat="47.79442" lon="-3.44202">
        <ele>60.7</ele>
        <time>2015-09-06T08:15:08Z</time>
      </trkpt>
      <trkpt lat="47.79437" lon="-3.44202">
        <ele>60.7</ele>
        <time>2015-09-06T08:15:09Z</time>
      </trkpt>
      <trkpt lat="47.79432" lon="-3.44202">
        <ele>60.22</ele>
        <time>2015-09-06T08:15:10Z</time>
      </trkpt>
      <trkpt lat="47.79427" lon="-3.44202">
        <ele>60.22</ele>
        <time>2015-09-06T08:15:11Z</time>
      </trkpt>
      <trkpt lat="47.79422" lon="-3.44201">
        <ele>59.74</ele>
        <time>2015-09-06T08:15:12Z</time>
      </trkpt>
      <trkpt lat="47.79417" lon="-3.442">
        <ele>59.74</ele>
        <time>2015-09-06T08:15:13Z</time>
      </trkpt>
      <trkpt lat="47.79413" lon="-3.44197">
        <ele>59.74</ele>
        <time>2015-09-06T08:15:14Z</time>
      </trkpt>
      <trkpt lat="47.79409" lon="-3.44192">
        <ele>58.78</ele>
        <time>2015-09-06T08:15:15Z</time>
      </trkpt>
      <trkpt lat="47.79406" lon="-3.44187">
        <ele>58.3</ele>
        <time>2015-09-06T08:15:16Z</time>
      </trkpt>
      <trkpt lat="47.79403" lon="-3.44181">
        <ele>57.34</ele>
        <time>2015-09-06T08:15:17Z</time>
      </trkpt>
      <trkpt lat="47.794" lon="-3.44176">
        <ele>57.34</ele>
        <time>2015-09-06T08:15:18Z</time>
      </trkpt>
      <trkpt lat="47.79397" lon="-3.44173">
        <ele>56.37</ele>
        <time>2015-09-06T08:15:19Z</time>
      </trkpt>
      <trkpt lat="47.79394" lon="-3.44172">
        <ele>56.37</ele>
        <time>2015-09-06T08:15:20Z</time>
      </trkpt>
      <trkpt lat="47.7939" lon="-3.44172">
        <ele>55.41</ele>
        <time>2015-09-06T08:15:21Z</time>
      </trkpt>
      <trkpt lat="47.79386" lon="-3.44172">
        <ele>54.93</ele>
        <time>2015-09-06T08:15:22Z</time>
      </trkpt>
      <trkpt lat="47.79382" lon="-3.44173">
        <ele>54.93</ele>
        <time>2015-09-06T08:15:23Z</time>
      </trkpt>
      <trkpt lat="47.79377" lon="-3.44175">
        <ele>54.93</ele>
        <time>2015-09-06T08:15:24Z</time>
      </trkpt>
      <trkpt lat="47.79373" lon="-3.44178">
        <ele>54.45</ele>
        <time>2015-09-06T08:15:25Z</time>
      </trkpt>
      <trkpt lat="47.79368" lon="-3.44182">
        <ele>53.97</ele>
        <time>2015-09-06T08:15:26Z</time>
      </trkpt>
      <trkpt lat="47.79363" lon="-3.44187">
        <ele>53.97</ele>
        <time>2015-09-06T08:15:27Z</time>
      </trkpt>
      <trkpt lat="47.7936" lon="-3.44188">
        <ele>54.45</ele>
        <time>2015-09-06T08:15:28Z</time>
      </trkpt>
      <trkpt lat="47.79355" lon="-3.44189">
        <ele>53.49</ele>
        <time>2015-09-06T08:15:29Z</time>
      </trkpt>
      <trkpt lat="47.79351" lon="-3.44188">
        <ele>53.49</ele>
        <time>2015-09-06T08:15:30Z</time>
      </trkpt>
      <trkpt lat="47.79348" lon="-3.44184">
        <ele>53.01</ele>
        <time>2015-09-06T08:15:31Z</time>
      </trkpt>
      <trkpt lat="47.79346" lon="-3.44179">
        <ele>53.01</ele>
        <time>2015-09-06T08:15:32Z</time>
      </trkpt>
      <trkpt lat="47.79346" lon="-3.44174">
        <ele>52.53</ele>
        <time>2015-09-06T08:15:33Z</time>
      </trkpt>
      <trkpt lat="47.79347" lon="-3.44169">
        <ele>52.53</ele>
        <time>2015-09-06T08:15:34Z</time>
      </trkpt>
      <trkpt lat="47.79348" lon="-3.44164">
        <ele>52.53</ele>
        <time>2015-09-06T08:15:35Z</time>
      </trkpt>
      <trkpt lat="47.79351" lon="-3.4416">
        <ele>52.53</ele>
        <time>2015-09-06T08:15:36Z</time>
      </trkpt>
      <trkpt lat="47.79353" lon="-3.44157">
        <ele>52.53</ele>
        <time>2015-09-06T08:15:37Z</time>
      </trkpt>
      <trkpt lat="47.79356" lon="-3.44153">
        <ele>53.01</ele>
        <time>2015-09-06T08:15:38Z</time>
      </trkpt>
      <trkpt lat="47.79359" lon="-3.44149">
        <ele>53.01</ele>
        <time>2015-09-06T08:15:39Z</time>
      </trkpt>
      <trkpt lat="47.79362" lon="-3.44145">
        <ele>53.01</ele>
        <time>2015-09-06T08:15:40Z</time>
      </trkpt>
      <trkpt lat="47.79366" lon="-3.44142">
        <ele>53.01</ele>
        <time>2015-09-06T08:15:41Z</time>
      </trkpt>
      <trkpt lat="47.7937" lon="-3.44138">
        <ele>52.53</ele>
        <time>2015-09-06T08:15:42Z</time>
      </trkpt>
      <trkpt lat="47.79373" lon="-3.44134">
        <ele>52.53</ele>
        <time>2015-09-06T08:15:43Z</time>
      </trkpt>
      <trkpt lat="47.79377" lon="-3.4413">
        <ele>52.53</ele>
        <time>2015-09-06T08:15:44Z</time>
      </trkpt>
      <trkpt lat="47.7938" lon="-3.44126">
        <ele>52.53</ele>
        <time>2015-09-06T08:15:45Z</time>
      </trkpt>
      <trkpt lat="47.79384" lon="-3.44122">
        <ele>52.53</ele>
        <time>2015-09-06T08:15:46Z</time>
      </trkpt>
      <trkpt lat="47.79389" lon="-3.44117">
        <ele>52.53</ele>
        <time>2015-09-06T08:15:47Z</time>
      </trkpt>
      <trkpt lat="47.79394" lon="-3.44112">
        <ele>52.05</ele>
        <time>2015-09-06T08:15:48Z</time>
      </trkpt>
      <trkpt lat="47.79399" lon="-3.44108">
        <ele>52.05</ele>
        <time>2015-09-06T08:15:50Z</time>
      </trkpt>
      <trkpt lat="47.79409" lon="-3.44099">
        <ele>52.05</ele>
        <time>2015-09-06T08:15:51Z</time>
      </trkpt>
      <trkpt lat="47.79414" lon="-3.44094">
        <ele>52.05</ele>
        <time>2015-09-06T08:15:52Z</time>
      </trkpt>
      <trkpt lat="47.79419" lon="-3.44089">
        <ele>52.05</ele>
        <time>2015-09-06T08:15:53Z</time>
      </trkpt>
      <trkpt lat="47.79423" lon="-3.44085">
        <ele>52.05</ele>
        <time>2015-09-06T08:15:54Z</time>
      </trkpt>
      <trkpt lat="47.79427" lon="-3.4408">
        <ele>52.05</ele>
        <time>2015-09-06T08:15:55Z</time>
      </trkpt>
      <trkpt lat="47.79432" lon="-3.44076">
        <ele>52.05</ele>
        <time>2015-09-06T08:15:56Z</time>
      </trkpt>
      <trkpt lat="47.79438" lon="-3.4407">
        <ele>52.05</ele>
        <time>2015-09-06T08:15:57Z</time>
      </trkpt>
      <trkpt lat="47.79441" lon="-3.44065">
        <ele>52.05</ele>
        <time>2015-09-06T08:15:58Z</time>
      </trkpt>
      <trkpt lat="47.79445" lon="-3.4406">
        <ele>52.05</ele>
        <time>2015-09-06T08:15:59Z</time>
      </trkpt>
      <trkpt lat="47.79446" lon="-3.44055">
        <ele>51.57</ele>
        <time>2015-09-06T08:16:00Z</time>
      </trkpt>
      <trkpt lat="47.79448" lon="-3.44048">
        <ele>51.57</ele>
        <time>2015-09-06T08:16:01Z</time>
      </trkpt>
      <trkpt lat="47.79449" lon="-3.4404">
        <ele>51.57</ele>
        <time>2015-09-06T08:16:02Z</time>
      </trkpt>
      <trkpt lat="47.79449" lon="-3.44032">
        <ele>51.57</ele>
        <time>2015-09-06T08:16:03Z</time>
      </trkpt>
      <trkpt lat="47.7945" lon="-3.44023">
        <ele>51.57</ele>
        <time>2015-09-06T08:16:04Z</time>
      </trkpt>
      <trkpt lat="47.7945" lon="-3.44014">
        <ele>51.09</ele>
        <time>2015-09-06T08:16:05Z</time>
      </trkpt>
      <trkpt lat="47.79451" lon="-3.44004">
        <ele>51.09</ele>
        <time>2015-09-06T08:16:06Z</time>
      </trkpt>
      <trkpt lat="47.79451" lon="-3.43997">
        <ele>50.61</ele>
        <time>2015-09-06T08:16:07Z</time>
      </trkpt>
      <trkpt lat="47.79452" lon="-3.43989">
        <ele>50.61</ele>
        <time>2015-09-06T08:16:08Z</time>
      </trkpt>
      <trkpt lat="47.79452" lon="-3.43982">
        <ele>50.13</ele>
        <time>2015-09-06T08:16:09Z</time>
      </trkpt>
      <trkpt lat="47.79452" lon="-3.43976">
        <ele>50.13</ele>
        <time>2015-09-06T08:16:10Z</time>
      </trkpt>
      <trkpt lat="47.7945" lon="-3.43972">
        <ele>49.65</ele>
        <time>2015-09-06T08:16:11Z</time>
      </trkpt>
      <trkpt lat="47.79446" lon="-3.4397">
        <ele>49.65</ele>
        <time>2015-09-06T08:16:12Z</time>
      </trkpt>
      <trkpt lat="47.79442" lon="-3.43969">
        <ele>49.65</ele>
        <time>2015-09-06T08:16:13Z</time>
      </trkpt>
      <trkpt lat="47.79438" lon="-3.43968">
        <ele>49.16</ele>
        <time>2015-09-06T08:16:14Z</time>
      </trkpt>
      <trkpt lat="47.79433" lon="-3.43966">
        <ele>49.16</ele>
        <time>2015-09-06T08:16:15Z</time>
      </trkpt>
      <trkpt lat="47.79427" lon="-3.43965">
        <ele>48.2</ele>
        <time>2015-09-06T08:16:16Z</time>
      </trkpt>
      <trkpt lat="47.79421" lon="-3.43964">
        <ele>47.72</ele>
        <time>2015-09-06T08:16:17Z</time>
      </trkpt>
      <trkpt lat="47.79414" lon="-3.43963">
        <ele>47.72</ele>
        <time>2015-09-06T08:16:18Z</time>
      </trkpt>
      <trkpt lat="47.79409" lon="-3.43962">
        <ele>46.76</ele>
        <time>2015-09-06T08:16:19Z</time>
      </trkpt>
      <trkpt lat="47.79402" lon="-3.4396">
        <ele>46.28</ele>
        <time>2015-09-06T08:16:20Z</time>
      </trkpt>
      <trkpt lat="47.79395" lon="-3.43958">
        <ele>45.8</ele>
        <time>2015-09-06T08:16:21Z</time>
      </trkpt>
      <trkpt lat="47.79388" lon="-3.43956">
        <ele>45.32</ele>
        <time>2015-09-06T08:16:22Z</time>
      </trkpt>
      <trkpt lat="47.79382" lon="-3.43954">
        <ele>45.32</ele>
        <time>2015-09-06T08:16:23Z</time>
      </trkpt>
      <trkpt lat="47.79375" lon="-3.43952">
        <ele>45.32</ele>
        <time>2015-09-06T08:16:24Z</time>
      </trkpt>
      <trkpt lat="47.79369" lon="-3.43951">
        <ele>45.32</ele>
        <time>2015-09-06T08:16:25Z</time>
      </trkpt>
      <trkpt lat="47.79363" lon="-3.4395">
        <ele>45.32</ele>
        <time>2015-09-06T08:16:26Z</time>
      </trkpt>
      <trkpt lat="47.79358" lon="-3.4395">
        <ele>46.76</ele>
        <time>2015-09-06T08:16:27Z</time>
      </trkpt>
      <trkpt lat="47.79353" lon="-3.43949">
        <ele>47.24</ele>
        <time>2015-09-06T08:16:28Z</time>
      </trkpt>
      <trkpt lat="47.79348" lon="-3.43948">
        <ele>48.2</ele>
        <time>2015-09-06T08:16:29Z</time>
      </trkpt>
      <trkpt lat="47.79344" lon="-3.43947">
        <ele>48.2</ele>
        <time>2015-09-06T08:16:30Z</time>
      </trkpt>
      <trkpt lat="47.7934" lon="-3.43947">
        <ele>48.68</ele>
        <time>2015-09-06T08:16:31Z</time>
      </trkpt>
      <trkpt lat="47.79337" lon="-3.43946">
        <ele>48.68</ele>
        <time>2015-09-06T08:16:32Z</time>
      </trkpt>
      <trkpt lat="47.79333" lon="-3.43946">
        <ele>49.16</ele>
        <time>2015-09-06T08:16:33Z</time>
      </trkpt>
      <trkpt lat="47.7933" lon="-3.43945">
        <ele>49.16</ele>
        <time>2015-09-06T08:16:34Z</time>
      </trkpt>
      <trkpt lat="47.79327" lon="-3.43945">
        <ele>49.65</ele>
        <time>2015-09-06T08:16:35Z</time>
      </trkpt>
      <trkpt lat="47.79324" lon="-3.43944">
        <ele>49.65</ele>
        <time>2015-09-06T08:16:36Z</time>
      </trkpt>
      <trkpt lat="47.7932" lon="-3.43943">
        <ele>50.13</ele>
        <time>2015-09-06T08:16:37Z</time>
      </trkpt>
      <trkpt lat="47.79317" lon="-3.43943">
        <ele>50.13</ele>
        <time>2015-09-06T08:16:38Z</time>
      </trkpt>
      <trkpt lat="47.79314" lon="-3.43942">
        <ele>50.13</ele>
        <time>2015-09-06T08:16:39Z</time>
      </trkpt>
      <trkpt lat="47.79311" lon="-3.43941">
        <ele>50.13</ele>
        <time>2015-09-06T08:16:40Z</time>
      </trkpt>
      <trkpt lat="47.79307" lon="-3.4394">
        <ele>50.61</ele>
        <time>2015-09-06T08:16:41Z</time>
      </trkpt>
      <trkpt lat="47.79304" lon="-3.4394">
        <ele>50.61</ele>
        <time>2015-09-06T08:16:42Z</time>
      </trkpt>
      <trkpt lat="47.793" lon="-3.43939">
        <ele>50.61</ele>
        <time>2015-09-06T08:16:43Z</time>
      </trkpt>
      <trkpt lat="47.79297" lon="-3.43938">
        <ele>51.09</ele>
        <time>2015-09-06T08:16:44Z</time>
      </trkpt>
      <trkpt lat="47.79294" lon="-3.43937">
        <ele>51.09</ele>
        <time>2015-09-06T08:16:45Z</time>
      </trkpt>
      <trkpt lat="47.7929" lon="-3.43936">
        <ele>51.09</ele>
        <time>2015-09-06T08:16:46Z</time>
      </trkpt>
      <trkpt lat="47.79286" lon="-3.43935">
        <ele>51.09</ele>
        <time>2015-09-06T08:16:47Z</time>
      </trkpt>
      <trkpt lat="47.79283" lon="-3.43934">
        <ele>51.09</ele>
        <time>2015-09-06T08:16:48Z</time>
      </trkpt>
      <trkpt lat="47.79279" lon="-3.43934">
        <ele>51.09</ele>
        <time>2015-09-06T08:16:49Z</time>
      </trkpt>
      <trkpt lat="47.79275" lon="-3.43934">
        <ele>51.09</ele>
        <time>2015-09-06T08:16:50Z</time>
      </trkpt>
      <trkpt lat="47.79271" lon="-3.43934">
        <ele>51.09</ele>
        <time>2015-09-06T08:16:51Z</time>
      </trkpt>
      <trkpt lat="47.79267" lon="-3.43934">
        <ele>51.57</ele>
        <time>2015-09-06T08:16:52Z</time>
      </trkpt>
      <trkpt lat="47.79263" lon="-3.43933">
        <ele>51.57</ele>
        <time>2015-09-06T08:16:53Z</time>
      </trkpt>
      <trkpt lat="47.79259" lon="-3.43933">
        <ele>51.57</ele>
        <time>2015-09-06T08:16:54Z</time>
      </trkpt>
      <trkpt lat="47.79255" lon="-3.43932">
        <ele>51.57</ele>
        <time>2015-09-06T08:16:55Z</time>
      </trkpt>
      <trkpt lat="47.7925" lon="-3.43931">
        <ele>51.57</ele>
        <time>2015-09-06T08:16:56Z</time>
      </trkpt>
      <trkpt lat="47.79246" lon="-3.43931">
        <ele>51.57</ele>
        <time>2015-09-06T08:16:57Z</time>
      </trkpt>
      <trkpt lat="47.79242" lon="-3.4393">
        <ele>51.57</ele>
        <time>2015-09-06T08:16:58Z</time>
      </trkpt>
      <trkpt lat="47.79237" lon="-3.43929">
        <ele>51.57</ele>
        <time>2015-09-06T08:16:59Z</time>
      </trkpt>
      <trkpt lat="47.79232" lon="-3.43929">
        <ele>51.57</ele>
        <time>2015-09-06T08:17:00Z</time>
      </trkpt>
      <trkpt lat="47.79228" lon="-3.43928">
        <ele>51.57</ele>
        <time>2015-09-06T08:17:01Z</time>
      </trkpt>
      <trkpt lat="47.79223" lon="-3.43927">
        <ele>51.57</ele>
        <time>2015-09-06T08:17:02Z</time>
      </trkpt>
      <trkpt lat="47.79218" lon="-3.43926">
        <ele>51.57</ele>
        <time>2015-09-06T08:17:03Z</time>
      </trkpt>
      <trkpt lat="47.79213" lon="-3.43925">
        <ele>51.57</ele>
        <time>2015-09-06T08:17:04Z</time>
      </trkpt>
      <trkpt lat="47.79208" lon="-3.43924">
        <ele>51.57</ele>
        <time>2015-09-06T08:17:05Z</time>
      </trkpt>
      <trkpt lat="47.79202" lon="-3.43924">
        <ele>51.57</ele>
        <time>2015-09-06T08:17:06Z</time>
      </trkpt>
      <trkpt lat="47.79197" lon="-3.43923">
        <ele>51.57</ele>
        <time>2015-09-06T08:17:07Z</time>
      </trkpt>
      <trkpt lat="47.79192" lon="-3.43922">
        <ele>50.13</ele>
        <time>2015-09-06T08:17:08Z</time>
      </trkpt>
      <trkpt lat="47.79186" lon="-3.43921">
        <ele>50.13</ele>
        <time>2015-09-06T08:17:09Z</time>
      </trkpt>
      <trkpt lat="47.7918" lon="-3.4392">
        <ele>50.13</ele>
        <time>2015-09-06T08:17:10Z</time>
      </trkpt>
      <trkpt lat="47.79175" lon="-3.43919">
        <ele>50.13</ele>
        <time>2015-09-06T08:17:11Z</time>
      </trkpt>
      <trkpt lat="47.79169" lon="-3.43918">
        <ele>49.16</ele>
        <time>2015-09-06T08:17:12Z</time>
      </trkpt>
      <trkpt lat="47.79163" lon="-3.43916">
        <ele>49.16</ele>
        <time>2015-09-06T08:17:13Z</time>
      </trkpt>
      <trkpt lat="47.79157" lon="-3.43915">
        <ele>49.16</ele>
        <time>2015-09-06T08:17:14Z</time>
      </trkpt>
      <trkpt lat="47.79151" lon="-3.43913">
        <ele>48.68</ele>
        <time>2015-09-06T08:17:15Z</time>
      </trkpt>
      <trkpt lat="47.79144" lon="-3.4391">
        <ele>48.68</ele>
        <time>2015-09-06T08:17:16Z</time>
      </trkpt>
      <trkpt lat="47.79138" lon="-3.43908">
        <ele>48.68</ele>
        <time>2015-09-06T08:17:17Z</time>
      </trkpt>
      <trkpt lat="47.79132" lon="-3.43906">
        <ele>48.68</ele>
        <time>2015-09-06T08:17:18Z</time>
      </trkpt>
      <trkpt lat="47.79126" lon="-3.43904">
        <ele>48.2</ele>
        <time>2015-09-06T08:17:19Z</time>
      </trkpt>
      <trkpt lat="47.7912" lon="-3.43902">
        <ele>48.2</ele>
        <time>2015-09-06T08:17:20Z</time>
      </trkpt>
      <trkpt lat="47.79113" lon="-3.439">
        <ele>48.2</ele>
        <time>2015-09-06T08:17:21Z</time>
      </trkpt>
      <trkpt lat="47.79107" lon="-3.43898">
        <ele>48.2</ele>
        <time>2015-09-06T08:17:22Z</time>
      </trkpt>
      <trkpt lat="47.79101" lon="-3.43897">
        <ele>48.2</ele>
        <time>2015-09-06T08:17:23Z</time>
      </trkpt>
      <trkpt lat="47.79095" lon="-3.43896">
        <ele>47.72</ele>
        <time>2015-09-06T08:17:24Z</time>
      </trkpt>
      <trkpt lat="47.79089" lon="-3.43895">
        <ele>48.2</ele>
        <time>2015-09-06T08:17:25Z</time>
      </trkpt>
      <trkpt lat="47.79083" lon="-3.43894">
        <ele>47.72</ele>
        <time>2015-09-06T08:17:26Z</time>
      </trkpt>
      <trkpt lat="47.79078" lon="-3.43893">
        <ele>48.2</ele>
        <time>2015-09-06T08:17:27Z</time>
      </trkpt>
      <trkpt lat="47.79072" lon="-3.43893">
        <ele>48.2</ele>
        <time>2015-09-06T08:17:28Z</time>
      </trkpt>
      <trkpt lat="47.79067" lon="-3.43894">
        <ele>47.72</ele>
        <time>2015-09-06T08:17:29Z</time>
      </trkpt>
      <trkpt lat="47.79061" lon="-3.43895">
        <ele>47.72</ele>
        <time>2015-09-06T08:17:30Z</time>
      </trkpt>
      <trkpt lat="47.79056" lon="-3.43896">
        <ele>47.72</ele>
        <time>2015-09-06T08:17:31Z</time>
      </trkpt>
      <trkpt lat="47.79051" lon="-3.43897">
        <ele>47.72</ele>
        <time>2015-09-06T08:17:32Z</time>
      </trkpt>
      <trkpt lat="47.79046" lon="-3.43898">
        <ele>47.72</ele>
        <time>2015-09-06T08:17:33Z</time>
      </trkpt>
      <trkpt lat="47.79041" lon="-3.439">
        <ele>47.72</ele>
        <time>2015-09-06T08:17:34Z</time>
      </trkpt>
      <trkpt lat="47.79035" lon="-3.43902">
        <ele>47.72</ele>
        <time>2015-09-06T08:17:35Z</time>
      </trkpt>
      <trkpt lat="47.79031" lon="-3.43904">
        <ele>47.72</ele>
        <time>2015-09-06T08:17:36Z</time>
      </trkpt>
      <trkpt lat="47.79026" lon="-3.43906">
        <ele>48.2</ele>
        <time>2015-09-06T08:17:37Z</time>
      </trkpt>
      <trkpt lat="47.7902" lon="-3.43908">
        <ele>48.2</ele>
        <time>2015-09-06T08:17:38Z</time>
      </trkpt>
      <trkpt lat="47.79015" lon="-3.4391">
        <ele>48.2</ele>
        <time>2015-09-06T08:17:39Z</time>
      </trkpt>
      <trkpt lat="47.79011" lon="-3.43913">
        <ele>48.2</ele>
        <time>2015-09-06T08:17:40Z</time>
      </trkpt>
      <trkpt lat="47.79007" lon="-3.43915">
        <ele>48.2</ele>
        <time>2015-09-06T08:17:41Z</time>
      </trkpt>
      <trkpt lat="47.79003" lon="-3.43917">
        <ele>48.2</ele>
        <time>2015-09-06T08:17:42Z</time>
      </trkpt>
      <trkpt lat="47.78999" lon="-3.43918">
        <ele>48.2</ele>
        <time>2015-09-06T08:17:43Z</time>
      </trkpt>
      <trkpt lat="47.78997" lon="-3.43919">
        <ele>48.2</ele>
        <time>2015-09-06T08:17:44Z</time>
      </trkpt>
      <trkpt lat="47.78994" lon="-3.4392">
        <ele>49.65</ele>
        <time>2015-09-06T08:17:45Z</time>
      </trkpt>
      <trkpt lat="47.78991" lon="-3.43921">
        <ele>49.65</ele>
        <time>2015-09-06T08:17:46Z</time>
      </trkpt>
      <trkpt lat="47.78989" lon="-3.43921">
        <ele>49.65</ele>
        <time>2015-09-06T08:17:47Z</time>
      </trkpt>
      <trkpt lat="47.78986" lon="-3.43921">
        <ele>49.65</ele>
        <time>2015-09-06T08:17:48Z</time>
      </trkpt>
      <trkpt lat="47.78982" lon="-3.43917">
        <ele>50.13</ele>
        <time>2015-09-06T08:17:50Z</time>
      </trkpt>
      <trkpt lat="47.78979" lon="-3.43911">
        <ele>50.13</ele>
        <time>2015-09-06T08:17:51Z</time>
      </trkpt>
      <trkpt lat="47.78977" lon="-3.43906">
        <ele>50.13</ele>
        <time>2015-09-06T08:17:52Z</time>
      </trkpt>
      <trkpt lat="47.78976" lon="-3.43902">
        <ele>50.13</ele>
        <time>2015-09-06T08:17:53Z</time>
      </trkpt>
      <trkpt lat="47.78974" lon="-3.43897">
        <ele>50.13</ele>
        <time>2015-09-06T08:17:54Z</time>
      </trkpt>
      <trkpt lat="47.78973" lon="-3.43893">
        <ele>50.13</ele>
        <time>2015-09-06T08:17:55Z</time>
      </trkpt>
      <trkpt lat="47.78971" lon="-3.43888">
        <ele>50.13</ele>
        <time>2015-09-06T08:17:56Z</time>
      </trkpt>
      <trkpt lat="47.78969" lon="-3.43884">
        <ele>50.13</ele>
        <time>2015-09-06T08:17:57Z</time>
      </trkpt>
      <trkpt lat="47.78968" lon="-3.43879">
        <ele>50.13</ele>
        <time>2015-09-06T08:17:58Z</time>
      </trkpt>
      <trkpt lat="47.78966" lon="-3.43876">
        <ele>50.61</ele>
        <time>2015-09-06T08:17:59Z</time>
      </trkpt>
      <trkpt lat="47.78965" lon="-3.43872">
        <ele>50.61</ele>
        <time>2015-09-06T08:18:00Z</time>
      </trkpt>
      <trkpt lat="47.78964" lon="-3.43868">
        <ele>50.61</ele>
        <time>2015-09-06T08:18:01Z</time>
      </trkpt>
      <trkpt lat="47.78965" lon="-3.43865">
        <ele>50.61</ele>
        <time>2015-09-06T08:18:02Z</time>
      </trkpt>
      <trkpt lat="47.78967" lon="-3.43861">
        <ele>50.61</ele>
        <time>2015-09-06T08:18:03Z</time>
      </trkpt>
      <trkpt lat="47.78969" lon="-3.43857">
        <ele>50.61</ele>
        <time>2015-09-06T08:18:04Z</time>
      </trkpt>
      <trkpt lat="47.78971" lon="-3.43853">
        <ele>49.65</ele>
        <time>2015-09-06T08:18:05Z</time>
      </trkpt>
      <trkpt lat="47.78973" lon="-3.43847">
        <ele>48.68</ele>
        <time>2015-09-06T08:18:06Z</time>
      </trkpt>
      <trkpt lat="47.78975" lon="-3.4384">
        <ele>48.68</ele>
        <time>2015-09-06T08:18:07Z</time>
      </trkpt>
      <trkpt lat="47.78978" lon="-3.43833">
        <ele>48.2</ele>
        <time>2015-09-06T08:18:08Z</time>
      </trkpt>
      <trkpt lat="47.7898" lon="-3.43826">
        <ele>48.2</ele>
        <time>2015-09-06T08:18:09Z</time>
      </trkpt>
      <trkpt lat="47.78983" lon="-3.4382">
        <ele>48.2</ele>
        <time>2015-09-06T08:18:10Z</time>
      </trkpt>
      <trkpt lat="47.78985" lon="-3.43813">
        <ele>47.72</ele>
        <time>2015-09-06T08:18:11Z</time>
      </trkpt>
      <trkpt lat="47.78987" lon="-3.43806">
        <ele>47.72</ele>
        <time>2015-09-06T08:18:12Z</time>
      </trkpt>
      <trkpt lat="47.78989" lon="-3.43801">
        <ele>47.72</ele>
        <time>2015-09-06T08:18:13Z</time>
      </trkpt>
      <trkpt lat="47.78992" lon="-3.43794">
        <ele>47.72</ele>
        <time>2015-09-06T08:18:14Z</time>
      </trkpt>
      <trkpt lat="47.78993" lon="-3.43789">
        <ele>47.72</ele>
        <time>2015-09-06T08:18:15Z</time>
      </trkpt>
      <trkpt lat="47.78996" lon="-3.43784">
        <ele>47.72</ele>
        <time>2015-09-06T08:18:16Z</time>
      </trkpt>
      <trkpt lat="47.78998" lon="-3.43779">
        <ele>47.72</ele>
        <time>2015-09-06T08:18:17Z</time>
      </trkpt>
      <trkpt lat="47.79001" lon="-3.43778">
        <ele>47.72</ele>
        <time>2015-09-06T08:18:18Z</time>
      </trkpt>
      <trkpt lat="47.79005" lon="-3.43777">
        <ele>47.72</ele>
        <time>2015-09-06T08:18:19Z</time>
      </trkpt>
      <trkpt lat="47.79009" lon="-3.43777">
        <ele>47.72</ele>
        <time>2015-09-06T08:18:20Z</time>
      </trkpt>
      <trkpt lat="47.79012" lon="-3.43776">
        <ele>47.72</ele>
        <time>2015-09-06T08:18:21Z</time>
      </trkpt>
      <trkpt lat="47.79016" lon="-3.43774">
        <ele>47.72</ele>
        <time>2015-09-06T08:18:22Z</time>
      </trkpt>
      <trkpt lat="47.7902" lon="-3.43772">
        <ele>47.72</ele>
        <time>2015-09-06T08:18:23Z</time>
      </trkpt>
      <trkpt lat="47.79024" lon="-3.43772">
        <ele>47.72</ele>
        <time>2015-09-06T08:18:24Z</time>
      </trkpt>
      <trkpt lat="47.79027" lon="-3.43774">
        <ele>47.72</ele>
        <time>2015-09-06T08:18:25Z</time>
      </trkpt>
      <trkpt lat="47.79032" lon="-3.43776">
        <ele>47.72</ele>
        <time>2015-09-06T08:18:26Z</time>
      </trkpt>
      <trkpt lat="47.79036" lon="-3.43778">
        <ele>47.24</ele>
        <time>2015-09-06T08:18:27Z</time>
      </trkpt>
      <trkpt lat="47.7904" lon="-3.43779">
        <ele>47.24</ele>
        <time>2015-09-06T08:18:28Z</time>
      </trkpt>
      <trkpt lat="47.79045" lon="-3.4378">
        <ele>47.24</ele>
        <time>2015-09-06T08:18:29Z</time>
      </trkpt>
      <trkpt lat="47.79049" lon="-3.43779">
        <ele>47.24</ele>
        <time>2015-09-06T08:18:30Z</time>
      </trkpt>
      <trkpt lat="47.79053" lon="-3.43777">
        <ele>47.24</ele>
        <time>2015-09-06T08:18:31Z</time>
      </trkpt>
      <trkpt lat="47.79056" lon="-3.43775">
        <ele>47.24</ele>
        <time>2015-09-06T08:18:32Z</time>
      </trkpt>
      <trkpt lat="47.7906" lon="-3.43773">
        <ele>46.76</ele>
        <time>2015-09-06T08:18:33Z</time>
      </trkpt>
      <trkpt lat="47.79063" lon="-3.43771">
        <ele>46.76</ele>
        <time>2015-09-06T08:18:34Z</time>
      </trkpt>
      <trkpt lat="47.79067" lon="-3.43767">
        <ele>46.76</ele>
        <time>2015-09-06T08:18:35Z</time>
      </trkpt>
      <trkpt lat="47.79071" lon="-3.43764">
        <ele>46.76</ele>
        <time>2015-09-06T08:18:36Z</time>
      </trkpt>
      <trkpt lat="47.79075" lon="-3.43761">
        <ele>46.76</ele>
        <time>2015-09-06T08:18:37Z</time>
      </trkpt>
      <trkpt lat="47.79079" lon="-3.43757">
        <ele>46.76</ele>
        <time>2015-09-06T08:18:38Z</time>
      </trkpt>
      <trkpt lat="47.79082" lon="-3.43755">
        <ele>46.76</ele>
        <time>2015-09-06T08:18:39Z</time>
      </trkpt>
      <trkpt lat="47.79086" lon="-3.43751">
        <ele>46.28</ele>
        <time>2015-09-06T08:18:40Z</time>
      </trkpt>
      <trkpt lat="47.7909" lon="-3.43747">
        <ele>46.28</ele>
        <time>2015-09-06T08:18:41Z</time>
      </trkpt>
      <trkpt lat="47.79095" lon="-3.43742">
        <ele>46.28</ele>
        <time>2015-09-06T08:18:42Z</time>
      </trkpt>
      <trkpt lat="47.79098" lon="-3.43737">
        <ele>45.32</ele>
        <time>2015-09-06T08:18:43Z</time>
      </trkpt>
      <trkpt lat="47.79102" lon="-3.43732">
        <ele>45.32</ele>
        <time>2015-09-06T08:18:44Z</time>
      </trkpt>
      <trkpt lat="47.79105" lon="-3.43726">
        <ele>45.32</ele>
        <time>2015-09-06T08:18:45Z</time>
      </trkpt>
      <trkpt lat="47.79108" lon="-3.43721">
        <ele>45.32</ele>
        <time>2015-09-06T08:18:46Z</time>
      </trkpt>
      <trkpt lat="47.79111" lon="-3.43715">
        <ele>45.32</ele>
        <time>2015-09-06T08:18:47Z</time>
      </trkpt>
      <trkpt lat="47.79114" lon="-3.43711">
        <ele>45.32</ele>
        <time>2015-09-06T08:18:48Z</time>
      </trkpt>
      <trkpt lat="47.79117" lon="-3.43706">
        <ele>45.32</ele>
        <time>2015-09-06T08:18:49Z</time>
      </trkpt>
      <trkpt lat="47.79119" lon="-3.43702">
        <ele>45.32</ele>
        <time>2015-09-06T08:18:50Z</time>
      </trkpt>
      <trkpt lat="47.79121" lon="-3.43697">
        <ele>46.76</ele>
        <time>2015-09-06T08:18:51Z</time>
      </trkpt>
      <trkpt lat="47.79123" lon="-3.43691">
        <ele>46.76</ele>
        <time>2015-09-06T08:18:52Z</time>
      </trkpt>
      <trkpt lat="47.79125" lon="-3.43687">
        <ele>46.76</ele>
        <time>2015-09-06T08:18:53Z</time>
      </trkpt>
      <trkpt lat="47.79127" lon="-3.43682">
        <ele>46.76</ele>
        <time>2015-09-06T08:18:54Z</time>
      </trkpt>
      <trkpt lat="47.79129" lon="-3.43678">
        <ele>47.24</ele>
        <time>2015-09-06T08:18:55Z</time>
      </trkpt>
      <trkpt lat="47.79131" lon="-3.43674">
        <ele>47.24</ele>
        <time>2015-09-06T08:18:56Z</time>
      </trkpt>
      <trkpt lat="47.79133" lon="-3.43669">
        <ele>47.24</ele>
        <time>2015-09-06T08:18:57Z</time>
      </trkpt>
      <trkpt lat="47.79134" lon="-3.43665">
        <ele>47.72</ele>
        <time>2015-09-06T08:18:58Z</time>
      </trkpt>
      <trkpt lat="47.79136" lon="-3.43661">
        <ele>48.2</ele>
        <time>2015-09-06T08:18:59Z</time>
      </trkpt>
      <trkpt lat="47.79138" lon="-3.43656">
        <ele>48.2</ele>
        <time>2015-09-06T08:19:00Z</time>
      </trkpt>
      <trkpt lat="47.7914" lon="-3.43652">
        <ele>48.68</ele>
        <time>2015-09-06T08:19:01Z</time>
      </trkpt>
      <trkpt lat="47.79143" lon="-3.43648">
        <ele>49.16</ele>
        <time>2015-09-06T08:19:02Z</time>
      </trkpt>
      <trkpt lat="47.79145" lon="-3.43644">
        <ele>49.16</ele>
        <time>2015-09-06T08:19:03Z</time>
      </trkpt>
      <trkpt lat="47.79147" lon="-3.4364">
        <ele>49.16</ele>
        <time>2015-09-06T08:19:04Z</time>
      </trkpt>
      <trkpt lat="47.7915" lon="-3.43636">
        <ele>49.16</ele>
        <time>2015-09-06T08:19:05Z</time>
      </trkpt>
      <trkpt lat="47.79152" lon="-3.43631">
        <ele>49.65</ele>
        <time>2015-09-06T08:19:06Z</time>
      </trkpt>
      <trkpt lat="47.79154" lon="-3.43626">
        <ele>49.65</ele>
        <time>2015-09-06T08:19:07Z</time>
      </trkpt>
      <trkpt lat="47.79156" lon="-3.43622">
        <ele>49.65</ele>
        <time>2015-09-06T08:19:08Z</time>
      </trkpt>
      <trkpt lat="47.79159" lon="-3.43617">
        <ele>49.65</ele>
        <time>2015-09-06T08:19:09Z</time>
      </trkpt>
      <trkpt lat="47.79161" lon="-3.43613">
        <ele>49.65</ele>
        <time>2015-09-06T08:19:10Z</time>
      </trkpt>
      <trkpt lat="47.79162" lon="-3.43608">
        <ele>49.65</ele>
        <time>2015-09-06T08:19:11Z</time>
      </trkpt>
      <trkpt lat="47.79163" lon="-3.43604">
        <ele>50.13</ele>
        <time>2015-09-06T08:19:12Z</time>
      </trkpt>
      <trkpt lat="47.79162" lon="-3.43599">
        <ele>50.61</ele>
        <time>2015-09-06T08:19:13Z</time>
      </trkpt>
      <trkpt lat="47.79162" lon="-3.43595">
        <ele>50.61</ele>
        <time>2015-09-06T08:19:14Z</time>
      </trkpt>
      <trkpt lat="47.79162" lon="-3.43591">
        <ele>50.61</ele>
        <time>2015-09-06T08:19:15Z</time>
      </trkpt>
      <trkpt lat="47.79163" lon="-3.43587">
        <ele>50.61</ele>
        <time>2015-09-06T08:19:16Z</time>
      </trkpt>
      <trkpt lat="47.79164" lon="-3.43583">
        <ele>50.61</ele>
        <time>2015-09-06T08:19:17Z</time>
      </trkpt>
      <trkpt lat="47.79164" lon="-3.4358">
        <ele>51.09</ele>
        <time>2015-09-06T08:19:18Z</time>
      </trkpt>
      <trkpt lat="47.79162" lon="-3.43577">
        <ele>51.09</ele>
        <time>2015-09-06T08:19:19Z</time>
      </trkpt>
      <trkpt lat="47.7916" lon="-3.43574">
        <ele>51.09</ele>
        <time>2015-09-06T08:19:20Z</time>
      </trkpt>
      <trkpt lat="47.79158" lon="-3.43571">
        <ele>51.09</ele>
        <time>2015-09-06T08:19:21Z</time>
      </trkpt>
      <trkpt lat="47.79157" lon="-3.43567">
        <ele>51.57</ele>
        <time>2015-09-06T08:19:22Z</time>
      </trkpt>
      <trkpt lat="47.79155" lon="-3.43562">
        <ele>51.57</ele>
        <time>2015-09-06T08:19:23Z</time>
      </trkpt>
      <trkpt lat="47.79154" lon="-3.43558">
        <ele>51.57</ele>
        <time>2015-09-06T08:19:24Z</time>
      </trkpt>
      <trkpt lat="47.79153" lon="-3.43555">
        <ele>52.05</ele>
        <time>2015-09-06T08:19:25Z</time>
      </trkpt>
      <trkpt lat="47.79152" lon="-3.4355">
        <ele>52.53</ele>
        <time>2015-09-06T08:19:26Z</time>
      </trkpt>
      <trkpt lat="47.79151" lon="-3.43546">
        <ele>52.53</ele>
        <time>2015-09-06T08:19:27Z</time>
      </trkpt>
      <trkpt lat="47.7915" lon="-3.43543">
        <ele>53.01</ele>
        <time>2015-09-06T08:19:28Z</time>
      </trkpt>
      <trkpt lat="47.79149" lon="-3.43538">
        <ele>53.49</ele>
        <time>2015-09-06T08:19:29Z</time>
      </trkpt>
      <trkpt lat="47.79148" lon="-3.43535">
        <ele>53.49</ele>
        <time>2015-09-06T08:19:30Z</time>
      </trkpt>
      <trkpt lat="47.79147" lon="-3.43531">
        <ele>53.49</ele>
        <time>2015-09-06T08:19:31Z</time>
      </trkpt>
      <trkpt lat="47.79146" lon="-3.43528">
        <ele>53.49</ele>
        <time>2015-09-06T08:19:32Z</time>
      </trkpt>
      <trkpt lat="47.79145" lon="-3.43525">
        <ele>53.49</ele>
        <time>2015-09-06T08:19:33Z</time>
      </trkpt>
      <trkpt lat="47.79143" lon="-3.4352">
        <ele>53.97</ele>
        <time>2015-09-06T08:19:34Z</time>
      </trkpt>
      <trkpt lat="47.79142" lon="-3.43516">
        <ele>53.97</ele>
        <time>2015-09-06T08:19:35Z</time>
      </trkpt>
      <trkpt lat="47.79141" lon="-3.43512">
        <ele>53.97</ele>
        <time>2015-09-06T08:19:36Z</time>
      </trkpt>
      <trkpt lat="47.7914" lon="-3.43508">
        <ele>53.97</ele>
        <time>2015-09-06T08:19:37Z</time>
      </trkpt>
      <trkpt lat="47.79139" lon="-3.43504">
        <ele>54.45</ele>
        <time>2015-09-06T08:19:38Z</time>
      </trkpt>
      <trkpt lat="47.79138" lon="-3.43499">
        <ele>54.45</ele>
        <time>2015-09-06T08:19:39Z</time>
      </trkpt>
      <trkpt lat="47.79137" lon="-3.43495">
        <ele>54.45</ele>
        <time>2015-09-06T08:19:40Z</time>
      </trkpt>
      <trkpt lat="47.79136" lon="-3.4349">
        <ele>54.45</ele>
        <time>2015-09-06T08:19:41Z</time>
      </trkpt>
      <trkpt lat="47.79135" lon="-3.43486">
        <ele>54.45</ele>
        <time>2015-09-06T08:19:42Z</time>
      </trkpt>
      <trkpt lat="47.79134" lon="-3.43483">
        <ele>54.45</ele>
        <time>2015-09-06T08:19:43Z</time>
      </trkpt>
      <trkpt lat="47.79133" lon="-3.4348">
        <ele>54.45</ele>
        <time>2015-09-06T08:19:44Z</time>
      </trkpt>
      <trkpt lat="47.79132" lon="-3.43476">
        <ele>54.45</ele>
        <time>2015-09-06T08:19:45Z</time>
      </trkpt>
      <trkpt lat="47.79131" lon="-3.43471">
        <ele>54.45</ele>
        <time>2015-09-06T08:19:46Z</time>
      </trkpt>
      <trkpt lat="47.7913" lon="-3.43466">
        <ele>54.45</ele>
        <time>2015-09-06T08:19:47Z</time>
      </trkpt>
      <trkpt lat="47.79129" lon="-3.43462">
        <ele>54.45</ele>
        <time>2015-09-06T08:19:48Z</time>
      </trkpt>
      <trkpt lat="47.79128" lon="-3.43457">
        <ele>54.45</ele>
        <time>2015-09-06T08:19:49Z</time>
      </trkpt>
      <trkpt lat="47.79126" lon="-3.43453">
        <ele>54.45</ele>
        <time>2015-09-06T08:19:50Z</time>
      </trkpt>
      <trkpt lat="47.79123" lon="-3.43451">
        <ele>54.45</ele>
        <time>2015-09-06T08:19:51Z</time>
      </trkpt>
      <trkpt lat="47.7912" lon="-3.43451">
        <ele>54.45</ele>
        <time>2015-09-06T08:19:52Z</time>
      </trkpt>
      <trkpt lat="47.79117" lon="-3.43452">
        <ele>54.45</ele>
        <time>2015-09-06T08:19:53Z</time>
      </trkpt>
      <trkpt lat="47.79115" lon="-3.43452">
        <ele>54.45</ele>
        <time>2015-09-06T08:19:54Z</time>
      </trkpt>
      <trkpt lat="47.79113" lon="-3.43454">
        <ele>54.45</ele>
        <time>2015-09-06T08:19:55Z</time>
      </trkpt>
      <trkpt lat="47.79112" lon="-3.43456">
        <ele>54.93</ele>
        <time>2015-09-06T08:19:56Z</time>
      </trkpt>
      <trkpt lat="47.79111" lon="-3.43459">
        <ele>54.93</ele>
        <time>2015-09-06T08:19:57Z</time>
      </trkpt>
      <trkpt lat="47.7911" lon="-3.43461">
        <ele>54.93</ele>
        <time>2015-09-06T08:19:58Z</time>
      </trkpt>
      <trkpt lat="47.79109" lon="-3.43464">
        <ele>54.93</ele>
        <time>2015-09-06T08:19:59Z</time>
      </trkpt>
      <trkpt lat="47.79108" lon="-3.43468">
        <ele>54.93</ele>
        <time>2015-09-06T08:20:00Z</time>
      </trkpt>
      <trkpt lat="47.79106" lon="-3.43471">
        <ele>54.93</ele>
        <time>2015-09-06T08:20:01Z</time>
      </trkpt>
      <trkpt lat="47.79104" lon="-3.43475">
        <ele>54.93</ele>
        <time>2015-09-06T08:20:02Z</time>
      </trkpt>
      <trkpt lat="47.79102" lon="-3.43478">
        <ele>54.93</ele>
        <time>2015-09-06T08:20:03Z</time>
      </trkpt>
      <trkpt lat="47.791" lon="-3.43482">
        <ele>54.93</ele>
        <time>2015-09-06T08:20:04Z</time>
      </trkpt>
      <trkpt lat="47.79097" lon="-3.43487">
        <ele>54.93</ele>
        <time>2015-09-06T08:20:05Z</time>
      </trkpt>
      <trkpt lat="47.79095" lon="-3.43491">
        <ele>54.93</ele>
        <time>2015-09-06T08:20:06Z</time>
      </trkpt>
      <trkpt lat="47.79093" lon="-3.43497">
        <ele>54.93</ele>
        <time>2015-09-06T08:20:07Z</time>
      </trkpt>
      <trkpt lat="47.79092" lon="-3.43503">
        <ele>53.49</ele>
        <time>2015-09-06T08:20:08Z</time>
      </trkpt>
      <trkpt lat="47.79091" lon="-3.4351">
        <ele>53.01</ele>
        <time>2015-09-06T08:20:09Z</time>
      </trkpt>
      <trkpt lat="47.79091" lon="-3.43518">
        <ele>52.53</ele>
        <time>2015-09-06T08:20:10Z</time>
      </trkpt>
      <trkpt lat="47.7909" lon="-3.43526">
        <ele>52.05</ele>
        <time>2015-09-06T08:20:11Z</time>
      </trkpt>
      <trkpt lat="47.7909" lon="-3.43534">
        <ele>52.05</ele>
        <time>2015-09-06T08:20:12Z</time>
      </trkpt>
      <trkpt lat="47.7909" lon="-3.43543">
        <ele>50.61</ele>
        <time>2015-09-06T08:20:13Z</time>
      </trkpt>
      <trkpt lat="47.7909" lon="-3.43552">
        <ele>50.61</ele>
        <time>2015-09-06T08:20:14Z</time>
      </trkpt>
      <trkpt lat="47.7909" lon="-3.43561">
        <ele>50.61</ele>
        <time>2015-09-06T08:20:15Z</time>
      </trkpt>
      <trkpt lat="47.79088" lon="-3.43569">
        <ele>50.13</ele>
        <time>2015-09-06T08:20:16Z</time>
      </trkpt>
      <trkpt lat="47.79086" lon="-3.43575">
        <ele>49.65</ele>
        <time>2015-09-06T08:20:17Z</time>
      </trkpt>
      <trkpt lat="47.79083" lon="-3.43581">
        <ele>49.65</ele>
        <time>2015-09-06T08:20:18Z</time>
      </trkpt>
      <trkpt lat="47.79079" lon="-3.43586">
        <ele>49.65</ele>
        <time>2015-09-06T08:20:19Z</time>
      </trkpt>
      <trkpt lat="47.79075" lon="-3.43591">
        <ele>49.65</ele>
        <time>2015-09-06T08:20:20Z</time>
      </trkpt>
      <trkpt lat="47.79071" lon="-3.43594">
        <ele>50.13</ele>
        <time>2015-09-06T08:20:21Z</time>
      </trkpt>
      <trkpt lat="47.79067" lon="-3.43597">
        <ele>50.13</ele>
        <time>2015-09-06T08:20:22Z</time>
      </trkpt>
      <trkpt lat="47.79063" lon="-3.436">
        <ele>50.13</ele>
        <time>2015-09-06T08:20:23Z</time>
      </trkpt>
      <trkpt lat="47.7906" lon="-3.43602">
        <ele>50.13</ele>
        <time>2015-09-06T08:20:24Z</time>
      </trkpt>
      <trkpt lat="47.79057" lon="-3.43604">
        <ele>51.09</ele>
        <time>2015-09-06T08:20:25Z</time>
      </trkpt>
      <trkpt lat="47.79053" lon="-3.43605">
        <ele>51.09</ele>
        <time>2015-09-06T08:20:26Z</time>
      </trkpt>
      <trkpt lat="47.79051" lon="-3.43606">
        <ele>51.57</ele>
        <time>2015-09-06T08:20:27Z</time>
      </trkpt>
      <trkpt lat="47.79049" lon="-3.43607">
        <ele>51.57</ele>
        <time>2015-09-06T08:20:28Z</time>
      </trkpt>
      <trkpt lat="47.79048" lon="-3.43607">
        <ele>52.05</ele>
        <time>2015-09-06T08:20:29Z</time>
      </trkpt>
      <trkpt lat="47.79047" lon="-3.43606">
        <ele>52.05</ele>
        <time>2015-09-06T08:20:30Z</time>
      </trkpt>
      <trkpt lat="47.79045" lon="-3.43606">
        <ele>52.05</ele>
        <time>2015-09-06T08:20:31Z</time>
      </trkpt>
      <trkpt lat="47.79043" lon="-3.43606">
        <ele>52.05</ele>
        <time>2015-09-06T08:20:32Z</time>
      </trkpt>
      <trkpt lat="47.79042" lon="-3.43606">
        <ele>53.01</ele>
        <time>2015-09-06T08:20:33Z</time>
      </trkpt>
      <trkpt lat="47.7904" lon="-3.43606">
        <ele>53.01</ele>
        <time>2015-09-06T08:20:34Z</time>
      </trkpt>
      <trkpt lat="47.79038" lon="-3.43605">
        <ele>53.49</ele>
        <time>2015-09-06T08:20:35Z</time>
      </trkpt>
      <trkpt lat="47.79036" lon="-3.43605">
        <ele>53.97</ele>
        <time>2015-09-06T08:20:36Z</time>
      </trkpt>
      <trkpt lat="47.79035" lon="-3.43605">
        <ele>53.97</ele>
        <time>2015-09-06T08:20:37Z</time>
      </trkpt>
      <trkpt lat="47.79033" lon="-3.43605">
        <ele>54.45</ele>
        <time>2015-09-06T08:20:38Z</time>
      </trkpt>
      <trkpt lat="47.79031" lon="-3.43605">
        <ele>54.45</ele>
        <time>2015-09-06T08:20:39Z</time>
      </trkpt>
      <trkpt lat="47.79029" lon="-3.43605">
        <ele>55.41</ele>
        <time>2015-09-06T08:20:40Z</time>
      </trkpt>
      <trkpt lat="47.79027" lon="-3.43606">
        <ele>55.41</ele>
        <time>2015-09-06T08:20:41Z</time>
      </trkpt>
      <trkpt lat="47.79025" lon="-3.43607">
        <ele>55.41</ele>
        <time>2015-09-06T08:20:42Z</time>
      </trkpt>
      <trkpt lat="47.79022" lon="-3.43608">
        <ele>55.41</ele>
        <time>2015-09-06T08:20:43Z</time>
      </trkpt>
      <trkpt lat="47.7902" lon="-3.43608">
        <ele>55.41</ele>
        <time>2015-09-06T08:20:44Z</time>
      </trkpt>
      <trkpt lat="47.79018" lon="-3.43609">
        <ele>55.41</ele>
        <time>2015-09-06T08:20:45Z</time>
      </trkpt>
      <trkpt lat="47.79016" lon="-3.43609">
        <ele>56.37</ele>
        <time>2015-09-06T08:20:46Z</time>
      </trkpt>
      <trkpt lat="47.79013" lon="-3.43609">
        <ele>56.37</ele>
        <time>2015-09-06T08:20:47Z</time>
      </trkpt>
      <trkpt lat="47.79011" lon="-3.4361">
        <ele>56.37</ele>
        <time>2015-09-06T08:20:48Z</time>
      </trkpt>
      <trkpt lat="47.79009" lon="-3.4361">
        <ele>56.86</ele>
        <time>2015-09-06T08:20:49Z</time>
      </trkpt>
      <trkpt lat="47.79007" lon="-3.4361">
        <ele>57.34</ele>
        <time>2015-09-06T08:20:50Z</time>
      </trkpt>
      <trkpt lat="47.79005" lon="-3.43609">
        <ele>57.34</ele>
        <time>2015-09-06T08:20:51Z</time>
      </trkpt>
      <trkpt lat="47.79002" lon="-3.43609">
        <ele>57.34</ele>
        <time>2015-09-06T08:20:52Z</time>
      </trkpt>
      <trkpt lat="47.79" lon="-3.4361">
        <ele>57.34</ele>
        <time>2015-09-06T08:20:53Z</time>
      </trkpt>
      <trkpt lat="47.78998" lon="-3.4361">
        <ele>57.82</ele>
        <time>2015-09-06T08:20:54Z</time>
      </trkpt>
      <trkpt lat="47.78996" lon="-3.4361">
        <ele>57.34</ele>
        <time>2015-09-06T08:20:55Z</time>
      </trkpt>
      <trkpt lat="47.78993" lon="-3.43609">
        <ele>57.82</ele>
        <time>2015-09-06T08:20:56Z</time>
      </trkpt>
      <trkpt lat="47.78991" lon="-3.43608">
        <ele>57.82</ele>
        <time>2015-09-06T08:20:57Z</time>
      </trkpt>
      <trkpt lat="47.78989" lon="-3.43607">
        <ele>58.3</ele>
        <time>2015-09-06T08:20:58Z</time>
      </trkpt>
      <trkpt lat="47.78988" lon="-3.43605">
        <ele>58.3</ele>
        <time>2015-09-06T08:20:59Z</time>
      </trkpt>
      <trkpt lat="47.78986" lon="-3.43604">
        <ele>58.78</ele>
        <time>2015-09-06T08:21:00Z</time>
      </trkpt>
      <trkpt lat="47.78984" lon="-3.43604">
        <ele>58.78</ele>
        <time>2015-09-06T08:21:01Z</time>
      </trkpt>
      <trkpt lat="47.78982" lon="-3.43603">
        <ele>59.26</ele>
        <time>2015-09-06T08:21:02Z</time>
      </trkpt>
      <trkpt lat="47.7898" lon="-3.43602">
        <ele>59.26</ele>
        <time>2015-09-06T08:21:03Z</time>
      </trkpt>
      <trkpt lat="47.78978" lon="-3.43601">
        <ele>59.74</ele>
        <time>2015-09-06T08:21:04Z</time>
      </trkpt>
      <trkpt lat="47.78977" lon="-3.436">
        <ele>59.74</ele>
        <time>2015-09-06T08:21:05Z</time>
      </trkpt>
      <trkpt lat="47.78975" lon="-3.43599">
        <ele>59.74</ele>
        <time>2015-09-06T08:21:06Z</time>
      </trkpt>
      <trkpt lat="47.78974" lon="-3.43598">
        <ele>60.22</ele>
        <time>2015-09-06T08:21:07Z</time>
      </trkpt>
      <trkpt lat="47.78972" lon="-3.43598">
        <ele>60.22</ele>
        <time>2015-09-06T08:21:08Z</time>
      </trkpt>
      <trkpt lat="47.78971" lon="-3.43597">
        <ele>60.22</ele>
        <time>2015-09-06T08:21:09Z</time>
      </trkpt>
      <trkpt lat="47.78969" lon="-3.43596">
        <ele>61.18</ele>
        <time>2015-09-06T08:21:10Z</time>
      </trkpt>
      <trkpt lat="47.78967" lon="-3.43595">
        <ele>61.18</ele>
        <time>2015-09-06T08:21:11Z</time>
      </trkpt>
      <trkpt lat="47.78965" lon="-3.43594">
        <ele>61.18</ele>
        <time>2015-09-06T08:21:12Z</time>
      </trkpt>
      <trkpt lat="47.78963" lon="-3.43593">
        <ele>61.18</ele>
        <time>2015-09-06T08:21:13Z</time>
      </trkpt>
      <trkpt lat="47.78961" lon="-3.43592">
        <ele>61.18</ele>
        <time>2015-09-06T08:21:14Z</time>
      </trkpt>
      <trkpt lat="47.78959" lon="-3.43591">
        <ele>61.18</ele>
        <time>2015-09-06T08:21:15Z</time>
      </trkpt>
      <trkpt lat="47.78957" lon="-3.4359">
        <ele>61.18</ele>
        <time>2015-09-06T08:21:16Z</time>
      </trkpt>
      <trkpt lat="47.78954" lon="-3.43589">
        <ele>61.66</ele>
        <time>2015-09-06T08:21:17Z</time>
      </trkpt>
      <trkpt lat="47.78952" lon="-3.43588">
        <ele>61.66</ele>
        <time>2015-09-06T08:21:18Z</time>
      </trkpt>
      <trkpt lat="47.7895" lon="-3.43587">
        <ele>61.66</ele>
        <time>2015-09-06T08:21:19Z</time>
      </trkpt>
      <trkpt lat="47.78949" lon="-3.43585">
        <ele>62.14</ele>
        <time>2015-09-06T08:21:20Z</time>
      </trkpt>
      <trkpt lat="47.78947" lon="-3.43584">
        <ele>62.14</ele>
        <time>2015-09-06T08:21:21Z</time>
      </trkpt>
      <trkpt lat="47.78946" lon="-3.43581">
        <ele>62.14</ele>
        <time>2015-09-06T08:21:22Z</time>
      </trkpt>
      <trkpt lat="47.78945" lon="-3.43578">
        <ele>62.14</ele>
        <time>2015-09-06T08:21:23Z</time>
      </trkpt>
      <trkpt lat="47.78944" lon="-3.43576">
        <ele>62.62</ele>
        <time>2015-09-06T08:21:24Z</time>
      </trkpt>
      <trkpt lat="47.78943" lon="-3.43573">
        <ele>62.62</ele>
        <time>2015-09-06T08:21:25Z</time>
      </trkpt>
      <trkpt lat="47.78942" lon="-3.43571">
        <ele>62.62</ele>
        <time>2015-09-06T08:21:26Z</time>
      </trkpt>
      <trkpt lat="47.78941" lon="-3.43568">
        <ele>62.62</ele>
        <time>2015-09-06T08:21:27Z</time>
      </trkpt>
      <trkpt lat="47.7894" lon="-3.43564">
        <ele>62.62</ele>
        <time>2015-09-06T08:21:28Z</time>
      </trkpt>
      <trkpt lat="47.78939" lon="-3.43562">
        <ele>62.62</ele>
        <time>2015-09-06T08:21:29Z</time>
      </trkpt>
      <trkpt lat="47.78938" lon="-3.43559">
        <ele>63.1</ele>
        <time>2015-09-06T08:21:30Z</time>
      </trkpt>
      <trkpt lat="47.78937" lon="-3.43556">
        <ele>63.1</ele>
        <time>2015-09-06T08:21:31Z</time>
      </trkpt>
      <trkpt lat="47.78936" lon="-3.43554">
        <ele>63.1</ele>
        <time>2015-09-06T08:21:32Z</time>
      </trkpt>
      <trkpt lat="47.78935" lon="-3.43551">
        <ele>63.58</ele>
        <time>2015-09-06T08:21:33Z</time>
      </trkpt>
      <trkpt lat="47.78933" lon="-3.43548">
        <ele>63.58</ele>
        <time>2015-09-06T08:21:34Z</time>
      </trkpt>
      <trkpt lat="47.78932" lon="-3.43545">
        <ele>63.58</ele>
        <time>2015-09-06T08:21:35Z</time>
      </trkpt>
      <trkpt lat="47.78931" lon="-3.43542">
        <ele>64.07</ele>
        <time>2015-09-06T08:21:36Z</time>
      </trkpt>
      <trkpt lat="47.7893" lon="-3.4354">
        <ele>64.07</ele>
        <time>2015-09-06T08:21:37Z</time>
      </trkpt>
      <trkpt lat="47.7893" lon="-3.43537">
        <ele>64.07</ele>
        <time>2015-09-06T08:21:38Z</time>
      </trkpt>
      <trkpt lat="47.7893" lon="-3.43534">
        <ele>64.07</ele>
        <time>2015-09-06T08:21:39Z</time>
      </trkpt>
      <trkpt lat="47.78929" lon="-3.4353">
        <ele>64.55</ele>
        <time>2015-09-06T08:21:40Z</time>
      </trkpt>
      <trkpt lat="47.78929" lon="-3.43526">
        <ele>64.55</ele>
        <time>2015-09-06T08:21:41Z</time>
      </trkpt>
      <trkpt lat="47.78929" lon="-3.43522">
        <ele>64.55</ele>
        <time>2015-09-06T08:21:42Z</time>
      </trkpt>
      <trkpt lat="47.7893" lon="-3.43519">
        <ele>64.55</ele>
        <time>2015-09-06T08:21:43Z</time>
      </trkpt>
      <trkpt lat="47.7893" lon="-3.43516">
        <ele>64.55</ele>
        <time>2015-09-06T08:21:44Z</time>
      </trkpt>
      <trkpt lat="47.7893" lon="-3.43512">
        <ele>64.55</ele>
        <time>2015-09-06T08:21:45Z</time>
      </trkpt>
      <trkpt lat="47.78931" lon="-3.43508">
        <ele>64.55</ele>
        <time>2015-09-06T08:21:46Z</time>
      </trkpt>
      <trkpt lat="47.78931" lon="-3.43505">
        <ele>65.03</ele>
        <time>2015-09-06T08:21:47Z</time>
      </trkpt>
      <trkpt lat="47.78932" lon="-3.43501">
        <ele>65.03</ele>
        <time>2015-09-06T08:21:48Z</time>
      </trkpt>
      <trkpt lat="47.78932" lon="-3.43498">
        <ele>65.03</ele>
        <time>2015-09-06T08:21:49Z</time>
      </trkpt>
      <trkpt lat="47.78932" lon="-3.43494">
        <ele>65.03</ele>
        <time>2015-09-06T08:21:50Z</time>
      </trkpt>
      <trkpt lat="47.78932" lon="-3.4349">
        <ele>65.03</ele>
        <time>2015-09-06T08:21:51Z</time>
      </trkpt>
      <trkpt lat="47.78932" lon="-3.43486">
        <ele>65.03</ele>
        <time>2015-09-06T08:21:52Z</time>
      </trkpt>
      <trkpt lat="47.78931" lon="-3.43482">
        <ele>65.51</ele>
        <time>2015-09-06T08:21:53Z</time>
      </trkpt>
      <trkpt lat="47.78929" lon="-3.43478">
        <ele>65.51</ele>
        <time>2015-09-06T08:21:54Z</time>
      </trkpt>
      <trkpt lat="47.78929" lon="-3.43474">
        <ele>65.51</ele>
        <time>2015-09-06T08:21:55Z</time>
      </trkpt>
      <trkpt lat="47.78928" lon="-3.4347">
        <ele>65.51</ele>
        <time>2015-09-06T08:21:56Z</time>
      </trkpt>
      <trkpt lat="47.78927" lon="-3.43466">
        <ele>65.51</ele>
        <time>2015-09-06T08:21:57Z</time>
      </trkpt>
      <trkpt lat="47.78925" lon="-3.43461">
        <ele>65.99</ele>
        <time>2015-09-06T08:21:58Z</time>
      </trkpt>
      <trkpt lat="47.78924" lon="-3.43458">
        <ele>65.99</ele>
        <time>2015-09-06T08:21:59Z</time>
      </trkpt>
      <trkpt lat="47.78922" lon="-3.43454">
        <ele>65.99</ele>
        <time>2015-09-06T08:22:00Z</time>
      </trkpt>
      <trkpt lat="47.78921" lon="-3.4345">
        <ele>66.47</ele>
        <time>2015-09-06T08:22:01Z</time>
      </trkpt>
      <trkpt lat="47.78919" lon="-3.43446">
        <ele>66.47</ele>
        <time>2015-09-06T08:22:02Z</time>
      </trkpt>
      <trkpt lat="47.78918" lon="-3.43441">
        <ele>66.47</ele>
        <time>2015-09-06T08:22:03Z</time>
      </trkpt>
      <trkpt lat="47.78916" lon="-3.43437">
        <ele>66.47</ele>
        <time>2015-09-06T08:22:04Z</time>
      </trkpt>
      <trkpt lat="47.78915" lon="-3.43433">
        <ele>66.47</ele>
        <time>2015-09-06T08:22:05Z</time>
      </trkpt>
      <trkpt lat="47.78913" lon="-3.43429">
        <ele>66.47</ele>
        <time>2015-09-06T08:22:06Z</time>
      </trkpt>
      <trkpt lat="47.78912" lon="-3.43425">
        <ele>66.47</ele>
        <time>2015-09-06T08:22:07Z</time>
      </trkpt>
      <trkpt lat="47.7891" lon="-3.43421">
        <ele>66.47</ele>
        <time>2015-09-06T08:22:08Z</time>
      </trkpt>
      <trkpt lat="47.78909" lon="-3.43416">
        <ele>66.47</ele>
        <time>2015-09-06T08:22:09Z</time>
      </trkpt>
      <trkpt lat="47.78908" lon="-3.43412">
        <ele>66.47</ele>
        <time>2015-09-06T08:22:10Z</time>
      </trkpt>
      <trkpt lat="47.78907" lon="-3.43407">
        <ele>66.47</ele>
        <time>2015-09-06T08:22:11Z</time>
      </trkpt>
      <trkpt lat="47.78906" lon="-3.43402">
        <ele>66.95</ele>
        <time>2015-09-06T08:22:12Z</time>
      </trkpt>
      <trkpt lat="47.78905" lon="-3.43397">
        <ele>66.95</ele>
        <time>2015-09-06T08:22:13Z</time>
      </trkpt>
      <trkpt lat="47.78905" lon="-3.43392">
        <ele>66.95</ele>
        <time>2015-09-06T08:22:14Z</time>
      </trkpt>
      <trkpt lat="47.78904" lon="-3.43387">
        <ele>66.95</ele>
        <time>2015-09-06T08:22:15Z</time>
      </trkpt>
      <trkpt lat="47.78903" lon="-3.43381">
        <ele>66.95</ele>
        <time>2015-09-06T08:22:16Z</time>
      </trkpt>
      <trkpt lat="47.78903" lon="-3.43375">
        <ele>66.95</ele>
        <time>2015-09-06T08:22:17Z</time>
      </trkpt>
      <trkpt lat="47.78903" lon="-3.43369">
        <ele>66.95</ele>
        <time>2015-09-06T08:22:18Z</time>
      </trkpt>
      <trkpt lat="47.78902" lon="-3.43363">
        <ele>66.95</ele>
        <time>2015-09-06T08:22:19Z</time>
      </trkpt>
      <trkpt lat="47.78902" lon="-3.43358">
        <ele>66.95</ele>
        <time>2015-09-06T08:22:20Z</time>
      </trkpt>
      <trkpt lat="47.78902" lon="-3.43354">
        <ele>66.95</ele>
        <time>2015-09-06T08:22:21Z</time>
      </trkpt>
      <trkpt lat="47.78901" lon="-3.4335">
        <ele>66.95</ele>
        <time>2015-09-06T08:22:22Z</time>
      </trkpt>
      <trkpt lat="47.78901" lon="-3.43347">
        <ele>66.95</ele>
        <time>2015-09-06T08:22:23Z</time>
      </trkpt>
      <trkpt lat="47.78901" lon="-3.43343">
        <ele>66.95</ele>
        <time>2015-09-06T08:22:24Z</time>
      </trkpt>
      <trkpt lat="47.789" lon="-3.43339">
        <ele>66.95</ele>
        <time>2015-09-06T08:22:25Z</time>
      </trkpt>
      <trkpt lat="47.789" lon="-3.43335">
        <ele>66.95</ele>
        <time>2015-09-06T08:22:26Z</time>
      </trkpt>
      <trkpt lat="47.78899" lon="-3.43331">
        <ele>66.95</ele>
        <time>2015-09-06T08:22:27Z</time>
      </trkpt>
      <trkpt lat="47.78899" lon="-3.43326">
        <ele>66.95</ele>
        <time>2015-09-06T08:22:28Z</time>
      </trkpt>
      <trkpt lat="47.78899" lon="-3.43321">
        <ele>66.95</ele>
        <time>2015-09-06T08:22:29Z</time>
      </trkpt>
      <trkpt lat="47.78898" lon="-3.43315">
        <ele>66.95</ele>
        <time>2015-09-06T08:22:30Z</time>
      </trkpt>
      <trkpt lat="47.78898" lon="-3.43308">
        <ele>66.95</ele>
        <time>2015-09-06T08:22:31Z</time>
      </trkpt>
      <trkpt lat="47.78898" lon="-3.43301">
        <ele>66.95</ele>
        <time>2015-09-06T08:22:32Z</time>
      </trkpt>
      <trkpt lat="47.78897" lon="-3.43295">
        <ele>66.95</ele>
        <time>2015-09-06T08:22:33Z</time>
      </trkpt>
      <trkpt lat="47.78897" lon="-3.43288">
        <ele>66.95</ele>
        <time>2015-09-06T08:22:34Z</time>
      </trkpt>
      <trkpt lat="47.78897" lon="-3.43282">
        <ele>66.95</ele>
        <time>2015-09-06T08:22:35Z</time>
      </trkpt>
      <trkpt lat="47.78897" lon="-3.43275">
        <ele>66.95</ele>
        <time>2015-09-06T08:22:36Z</time>
      </trkpt>
      <trkpt lat="47.78896" lon="-3.43269">
        <ele>66.95</ele>
        <time>2015-09-06T08:22:37Z</time>
      </trkpt>
      <trkpt lat="47.78896" lon="-3.43263">
        <ele>66.95</ele>
        <time>2015-09-06T08:22:38Z</time>
      </trkpt>
      <trkpt lat="47.78895" lon="-3.43258">
        <ele>66.95</ele>
        <time>2015-09-06T08:22:39Z</time>
      </trkpt>
      <trkpt lat="47.78894" lon="-3.43252">
        <ele>65.99</ele>
        <time>2015-09-06T08:22:40Z</time>
      </trkpt>
      <trkpt lat="47.78893" lon="-3.43246">
        <ele>65.99</ele>
        <time>2015-09-06T08:22:41Z</time>
      </trkpt>
      <trkpt lat="47.78891" lon="-3.43239">
        <ele>65.99</ele>
        <time>2015-09-06T08:22:42Z</time>
      </trkpt>
      <trkpt lat="47.7889" lon="-3.43232">
        <ele>65.99</ele>
        <time>2015-09-06T08:22:43Z</time>
      </trkpt>
      <trkpt lat="47.7889" lon="-3.43225">
        <ele>65.03</ele>
        <time>2015-09-06T08:22:44Z</time>
      </trkpt>
      <trkpt lat="47.7889" lon="-3.43217">
        <ele>65.03</ele>
        <time>2015-09-06T08:22:45Z</time>
      </trkpt>
      <trkpt lat="47.78891" lon="-3.4321">
        <ele>65.03</ele>
        <time>2015-09-06T08:22:46Z</time>
      </trkpt>
      <trkpt lat="47.78891" lon="-3.43201">
        <ele>65.03</ele>
        <time>2015-09-06T08:22:47Z</time>
      </trkpt>
      <trkpt lat="47.78892" lon="-3.43193">
        <ele>65.03</ele>
        <time>2015-09-06T08:22:48Z</time>
      </trkpt>
      <trkpt lat="47.78893" lon="-3.43186">
        <ele>64.55</ele>
        <time>2015-09-06T08:22:49Z</time>
      </trkpt>
      <trkpt lat="47.78894" lon="-3.43179">
        <ele>64.55</ele>
        <time>2015-09-06T08:22:50Z</time>
      </trkpt>
      <trkpt lat="47.78895" lon="-3.43173">
        <ele>64.55</ele>
        <time>2015-09-06T08:22:51Z</time>
      </trkpt>
      <trkpt lat="47.78895" lon="-3.43168">
        <ele>64.55</ele>
        <time>2015-09-06T08:22:52Z</time>
      </trkpt>
      <trkpt lat="47.78896" lon="-3.43164">
        <ele>64.55</ele>
        <time>2015-09-06T08:22:53Z</time>
      </trkpt>
      <trkpt lat="47.78895" lon="-3.43161">
        <ele>64.55</ele>
        <time>2015-09-06T08:22:54Z</time>
      </trkpt>
      <trkpt lat="47.78895" lon="-3.43158">
        <ele>64.55</ele>
        <time>2015-09-06T08:22:55Z</time>
      </trkpt>
      <trkpt lat="47.78894" lon="-3.43154">
        <ele>64.55</ele>
        <time>2015-09-06T08:22:56Z</time>
      </trkpt>
      <trkpt lat="47.78893" lon="-3.43151">
        <ele>64.55</ele>
        <time>2015-09-06T08:22:57Z</time>
      </trkpt>
      <trkpt lat="47.78891" lon="-3.43147">
        <ele>64.55</ele>
        <time>2015-09-06T08:22:58Z</time>
      </trkpt>
      <trkpt lat="47.7889" lon="-3.43144">
        <ele>64.55</ele>
        <time>2015-09-06T08:22:59Z</time>
      </trkpt>
      <trkpt lat="47.78889" lon="-3.43139">
        <ele>64.55</ele>
        <time>2015-09-06T08:23:00Z</time>
      </trkpt>
      <trkpt lat="47.78889" lon="-3.43135">
        <ele>64.55</ele>
        <time>2015-09-06T08:23:01Z</time>
      </trkpt>
      <trkpt lat="47.78888" lon="-3.4313">
        <ele>64.55</ele>
        <time>2015-09-06T08:23:02Z</time>
      </trkpt>
      <trkpt lat="47.78888" lon="-3.43125">
        <ele>64.55</ele>
        <time>2015-09-06T08:23:03Z</time>
      </trkpt>
      <trkpt lat="47.78888" lon="-3.43119">
        <ele>64.55</ele>
        <time>2015-09-06T08:23:04Z</time>
      </trkpt>
      <trkpt lat="47.78887" lon="-3.43115">
        <ele>64.55</ele>
        <time>2015-09-06T08:23:05Z</time>
      </trkpt>
      <trkpt lat="47.78888" lon="-3.4311">
        <ele>64.55</ele>
        <time>2015-09-06T08:23:06Z</time>
      </trkpt>
      <trkpt lat="47.78888" lon="-3.43104">
        <ele>64.55</ele>
        <time>2015-09-06T08:23:07Z</time>
      </trkpt>
      <trkpt lat="47.78889" lon="-3.43099">
        <ele>64.55</ele>
        <time>2015-09-06T08:23:08Z</time>
      </trkpt>
      <trkpt lat="47.78889" lon="-3.43094">
        <ele>64.55</ele>
        <time>2015-09-06T08:23:09Z</time>
      </trkpt>
      <trkpt lat="47.78889" lon="-3.43089">
        <ele>64.55</ele>
        <time>2015-09-06T08:23:10Z</time>
      </trkpt>
      <trkpt lat="47.78889" lon="-3.43083">
        <ele>64.55</ele>
        <time>2015-09-06T08:23:11Z</time>
      </trkpt>
      <trkpt lat="47.78889" lon="-3.43077">
        <ele>64.55</ele>
        <time>2015-09-06T08:23:12Z</time>
      </trkpt>
      <trkpt lat="47.78889" lon="-3.43071">
        <ele>64.55</ele>
        <time>2015-09-06T08:23:13Z</time>
      </trkpt>
      <trkpt lat="47.78889" lon="-3.43065">
        <ele>64.55</ele>
        <time>2015-09-06T08:23:14Z</time>
      </trkpt>
      <trkpt lat="47.78889" lon="-3.4306">
        <ele>64.55</ele>
        <time>2015-09-06T08:23:15Z</time>
      </trkpt>
      <trkpt lat="47.78888" lon="-3.43055">
        <ele>64.55</ele>
        <time>2015-09-06T08:23:16Z</time>
      </trkpt>
      <trkpt lat="47.78886" lon="-3.43051">
        <ele>64.55</ele>
        <time>2015-09-06T08:23:17Z</time>
      </trkpt>
      <trkpt lat="47.78885" lon="-3.43048">
        <ele>64.55</ele>
        <time>2015-09-06T08:23:18Z</time>
      </trkpt>
      <trkpt lat="47.78884" lon="-3.43044">
        <ele>64.55</ele>
        <time>2015-09-06T08:23:19Z</time>
      </trkpt>
      <trkpt lat="47.78882" lon="-3.43039">
        <ele>64.55</ele>
        <time>2015-09-06T08:23:20Z</time>
      </trkpt>
      <trkpt lat="47.78882" lon="-3.43035">
        <ele>64.55</ele>
        <time>2015-09-06T08:23:21Z</time>
      </trkpt>
      <trkpt lat="47.78881" lon="-3.4303">
        <ele>64.55</ele>
        <time>2015-09-06T08:23:22Z</time>
      </trkpt>
      <trkpt lat="47.7888" lon="-3.43026">
        <ele>64.55</ele>
        <time>2015-09-06T08:23:23Z</time>
      </trkpt>
      <trkpt lat="47.78878" lon="-3.43023">
        <ele>64.55</ele>
        <time>2015-09-06T08:23:24Z</time>
      </trkpt>
      <trkpt lat="47.78876" lon="-3.4302">
        <ele>65.99</ele>
        <time>2015-09-06T08:23:25Z</time>
      </trkpt>
      <trkpt lat="47.78874" lon="-3.43018">
        <ele>65.99</ele>
        <time>2015-09-06T08:23:26Z</time>
      </trkpt>
      <trkpt lat="47.78872" lon="-3.43015">
        <ele>65.99</ele>
        <time>2015-09-06T08:23:27Z</time>
      </trkpt>
      <trkpt lat="47.7887" lon="-3.43011">
        <ele>65.99</ele>
        <time>2015-09-06T08:23:28Z</time>
      </trkpt>
      <trkpt lat="47.78868" lon="-3.43005">
        <ele>65.99</ele>
        <time>2015-09-06T08:23:29Z</time>
      </trkpt>
      <trkpt lat="47.78866" lon="-3.43002">
        <ele>64.55</ele>
        <time>2015-09-06T08:23:30Z</time>
      </trkpt>
      <trkpt lat="47.78864" lon="-3.43">
        <ele>64.55</ele>
        <time>2015-09-06T08:23:31Z</time>
      </trkpt>
      <trkpt lat="47.78863" lon="-3.42999">
        <ele>64.55</ele>
        <time>2015-09-06T08:23:32Z</time>
      </trkpt>
      <trkpt lat="47.78861" lon="-3.42998">
        <ele>65.99</ele>
        <time>2015-09-06T08:23:33Z</time>
      </trkpt>
      <trkpt lat="47.7886" lon="-3.42996">
        <ele>66.47</ele>
        <time>2015-09-06T08:23:34Z</time>
      </trkpt>
      <trkpt lat="47.78859" lon="-3.42993">
        <ele>66.47</ele>
        <time>2015-09-06T08:23:35Z</time>
      </trkpt>
      <trkpt lat="47.78858" lon="-3.42989">
        <ele>66.95</ele>
        <time>2015-09-06T08:23:36Z</time>
      </trkpt>
      <trkpt lat="47.78858" lon="-3.42986">
        <ele>66.95</ele>
        <time>2015-09-06T08:23:37Z</time>
      </trkpt>
      <trkpt lat="47.78858" lon="-3.42983">
        <ele>66.95</ele>
        <time>2015-09-06T08:23:38Z</time>
      </trkpt>
      <trkpt lat="47.78858" lon="-3.42979">
        <ele>66.95</ele>
        <time>2015-09-06T08:23:39Z</time>
      </trkpt>
      <trkpt lat="47.78857" lon="-3.42976">
        <ele>66.95</ele>
        <time>2015-09-06T08:23:40Z</time>
      </trkpt>
      <trkpt lat="47.78856" lon="-3.42973">
        <ele>66.95</ele>
        <time>2015-09-06T08:23:41Z</time>
      </trkpt>
      <trkpt lat="47.78855" lon="-3.42969">
        <ele>66.95</ele>
        <time>2015-09-06T08:23:42Z</time>
      </trkpt>
      <trkpt lat="47.78854" lon="-3.42967">
        <ele>66.95</ele>
        <time>2015-09-06T08:23:43Z</time>
      </trkpt>
      <trkpt lat="47.78854" lon="-3.42965">
        <ele>66.95</ele>
        <time>2015-09-06T08:23:44Z</time>
      </trkpt>
      <trkpt lat="47.78853" lon="-3.42963">
        <ele>66.95</ele>
        <time>2015-09-06T08:23:45Z</time>
      </trkpt>
      <trkpt lat="47.78851" lon="-3.4296">
        <ele>66.95</ele>
        <time>2015-09-06T08:23:46Z</time>
      </trkpt>
      <trkpt lat="47.78849" lon="-3.4296">
        <ele>66.95</ele>
        <time>2015-09-06T08:23:47Z</time>
      </trkpt>
      <trkpt lat="47.78848" lon="-3.4296">
        <ele>66.95</ele>
        <time>2015-09-06T08:23:48Z</time>
      </trkpt>
      <trkpt lat="47.78846" lon="-3.4296">
        <ele>67.43</ele>
        <time>2015-09-06T08:23:49Z</time>
      </trkpt>
      <trkpt lat="47.78844" lon="-3.42958">
        <ele>67.43</ele>
        <time>2015-09-06T08:23:50Z</time>
      </trkpt>
      <trkpt lat="47.78842" lon="-3.42957">
        <ele>67.43</ele>
        <time>2015-09-06T08:23:51Z</time>
      </trkpt>
      <trkpt lat="47.78841" lon="-3.42955">
        <ele>67.43</ele>
        <time>2015-09-06T08:23:52Z</time>
      </trkpt>
      <trkpt lat="47.7884" lon="-3.42952">
        <ele>67.43</ele>
        <time>2015-09-06T08:23:53Z</time>
      </trkpt>
      <trkpt lat="47.7884" lon="-3.42949">
        <ele>67.43</ele>
        <time>2015-09-06T08:23:54Z</time>
      </trkpt>
      <trkpt lat="47.7884" lon="-3.42947">
        <ele>67.43</ele>
        <time>2015-09-06T08:23:55Z</time>
      </trkpt>
      <trkpt lat="47.7884" lon="-3.42944">
        <ele>67.43</ele>
        <time>2015-09-06T08:23:56Z</time>
      </trkpt>
      <trkpt lat="47.78839" lon="-3.42941">
        <ele>67.43</ele>
        <time>2015-09-06T08:23:57Z</time>
      </trkpt>
      <trkpt lat="47.78838" lon="-3.42937">
        <ele>67.43</ele>
        <time>2015-09-06T08:23:58Z</time>
      </trkpt>
      <trkpt lat="47.78837" lon="-3.42933">
        <ele>67.43</ele>
        <time>2015-09-06T08:23:59Z</time>
      </trkpt>
      <trkpt lat="47.78836" lon="-3.42929">
        <ele>67.43</ele>
        <time>2015-09-06T08:24:00Z</time>
      </trkpt>
      <trkpt lat="47.78834" lon="-3.42924">
        <ele>67.43</ele>
        <time>2015-09-06T08:24:01Z</time>
      </trkpt>
      <trkpt lat="47.78834" lon="-3.4292">
        <ele>67.43</ele>
        <time>2015-09-06T08:24:02Z</time>
      </trkpt>
      <trkpt lat="47.78832" lon="-3.42916">
        <ele>67.43</ele>
        <time>2015-09-06T08:24:03Z</time>
      </trkpt>
      <trkpt lat="47.78831" lon="-3.42912">
        <ele>67.91</ele>
        <time>2015-09-06T08:24:04Z</time>
      </trkpt>
      <trkpt lat="47.78831" lon="-3.42909">
        <ele>67.91</ele>
        <time>2015-09-06T08:24:05Z</time>
      </trkpt>
      <trkpt lat="47.7883" lon="-3.42907">
        <ele>67.91</ele>
        <time>2015-09-06T08:24:06Z</time>
      </trkpt>
      <trkpt lat="47.7883" lon="-3.42905">
        <ele>67.91</ele>
        <time>2015-09-06T08:24:07Z</time>
      </trkpt>
      <trkpt lat="47.78829" lon="-3.42902">
        <ele>67.91</ele>
        <time>2015-09-06T08:24:08Z</time>
      </trkpt>
      <trkpt lat="47.78828" lon="-3.42899">
        <ele>67.91</ele>
        <time>2015-09-06T08:24:09Z</time>
      </trkpt>
      <trkpt lat="47.78827" lon="-3.42896">
        <ele>66.47</ele>
        <time>2015-09-06T08:24:10Z</time>
      </trkpt>
      <trkpt lat="47.78826" lon="-3.42892">
        <ele>66.47</ele>
        <time>2015-09-06T08:24:11Z</time>
      </trkpt>
      <trkpt lat="47.78824" lon="-3.42889">
        <ele>65.99</ele>
        <time>2015-09-06T08:24:12Z</time>
      </trkpt>
      <trkpt lat="47.78823" lon="-3.42887">
        <ele>65.99</ele>
        <time>2015-09-06T08:24:13Z</time>
      </trkpt>
      <trkpt lat="47.78823" lon="-3.42886">
        <ele>65.99</ele>
        <time>2015-09-06T08:24:14Z</time>
      </trkpt>
      <trkpt lat="47.78818" lon="-3.42869">
        <ele>65.99</ele>
        <time>2015-09-06T08:25:29Z</time>
      </trkpt>
      <trkpt lat="47.78818" lon="-3.4287">
        <ele>65.99</ele>
        <time>2015-09-06T08:25:30Z</time>
      </trkpt>
      <trkpt lat="47.78818" lon="-3.42871">
        <ele>65.99</ele>
        <time>2015-09-06T08:25:31Z</time>
      </trkpt>
      <trkpt lat="47.78819" lon="-3.42873">
        <ele>65.99</ele>
        <time>2015-09-06T08:25:32Z</time>
      </trkpt>
      <trkpt lat="47.78819" lon="-3.42874">
        <ele>65.99</ele>
        <time>2015-09-06T08:25:33Z</time>
      </trkpt>
      <trkpt lat="47.7882" lon="-3.42875">
        <ele>65.99</ele>
        <time>2015-09-06T08:25:34Z</time>
      </trkpt>
      <trkpt lat="47.7882" lon="-3.42877">
        <ele>65.99</ele>
        <time>2015-09-06T08:25:35Z</time>
      </trkpt>
      <trkpt lat="47.7882" lon="-3.42877">
        <ele>65.99</ele>
        <time>2015-09-06T08:25:36Z</time>
      </trkpt>
      <trkpt lat="47.7882" lon="-3.42877">
        <ele>65.99</ele>
        <time>2015-09-06T08:25:37Z</time>
      </trkpt>
      <trkpt lat="47.78821" lon="-3.42878">
        <ele>65.99</ele>
        <time>2015-09-06T08:25:38Z</time>
      </trkpt>
      <trkpt lat="47.78821" lon="-3.4288">
        <ele>65.99</ele>
        <time>2015-09-06T08:25:44Z</time>
      </trkpt>
      <trkpt lat="47.78821" lon="-3.42881">
        <ele>66.47</ele>
        <time>2015-09-06T08:25:45Z</time>
      </trkpt>
      <trkpt lat="47.78821" lon="-3.42882">
        <ele>66.47</ele>
        <time>2015-09-06T08:25:46Z</time>
      </trkpt>
      <trkpt lat="47.78821" lon="-3.42884">
        <ele>66.47</ele>
        <time>2015-09-06T08:25:47Z</time>
      </trkpt>
      <trkpt lat="47.78821" lon="-3.42885">
        <ele>67.43</ele>
        <time>2015-09-06T08:25:48Z</time>
      </trkpt>
      <trkpt lat="47.78821" lon="-3.42886">
        <ele>67.43</ele>
        <time>2015-09-06T08:25:49Z</time>
      </trkpt>
      <trkpt lat="47.78821" lon="-3.42887">
        <ele>67.43</ele>
        <time>2015-09-06T08:25:50Z</time>
      </trkpt>
      <trkpt lat="47.78821" lon="-3.42887">
        <ele>67.43</ele>
        <time>2015-09-06T08:25:51Z</time>
      </trkpt>
      <trkpt lat="47.78822" lon="-3.42887">
        <ele>67.43</ele>
        <time>2015-09-06T08:25:52Z</time>
      </trkpt>
      <trkpt lat="47.78822" lon="-3.42891">
        <ele>67.43</ele>
        <time>2015-09-06T08:25:55Z</time>
      </trkpt>
      <trkpt lat="47.78821" lon="-3.42892">
        <ele>67.91</ele>
        <time>2015-09-06T08:25:56Z</time>
      </trkpt>
      <trkpt lat="47.78821" lon="-3.42893">
        <ele>67.91</ele>
        <time>2015-09-06T08:25:57Z</time>
      </trkpt>
      <trkpt lat="47.7882" lon="-3.42894">
        <ele>67.91</ele>
        <time>2015-09-06T08:25:58Z</time>
      </trkpt>
      <trkpt lat="47.7882" lon="-3.42894">
        <ele>67.91</ele>
        <time>2015-09-06T08:25:59Z</time>
      </trkpt>
      <trkpt lat="47.78819" lon="-3.42895">
        <ele>67.91</ele>
        <time>2015-09-06T08:26:00Z</time>
      </trkpt>
      <trkpt lat="47.78819" lon="-3.42895">
        <ele>67.91</ele>
        <time>2015-09-06T08:26:01Z</time>
      </trkpt>
      <trkpt lat="47.78819" lon="-3.42894">
        <ele>67.91</ele>
        <time>2015-09-06T08:26:04Z</time>
      </trkpt>
      <trkpt lat="47.78818" lon="-3.42892">
        <ele>67.91</ele>
        <time>2015-09-06T08:26:05Z</time>
      </trkpt>
      <trkpt lat="47.78818" lon="-3.42888">
        <ele>65.99</ele>
        <time>2015-09-06T08:26:06Z</time>
      </trkpt>
      <trkpt lat="47.78818" lon="-3.42885">
        <ele>65.99</ele>
        <time>2015-09-06T08:26:07Z</time>
      </trkpt>
      <trkpt lat="47.78817" lon="-3.42883">
        <ele>65.99</ele>
        <time>2015-09-06T08:26:08Z</time>
      </trkpt>
      <trkpt lat="47.78817" lon="-3.4288">
        <ele>65.99</ele>
        <time>2015-09-06T08:26:09Z</time>
      </trkpt>
      <trkpt lat="47.78818" lon="-3.42877">
        <ele>65.99</ele>
        <time>2015-09-06T08:26:10Z</time>
      </trkpt>
      <trkpt lat="47.78819" lon="-3.42875">
        <ele>65.99</ele>
        <time>2015-09-06T08:26:11Z</time>
      </trkpt>
      <trkpt lat="47.7882" lon="-3.42874">
        <ele>65.99</ele>
        <time>2015-09-06T08:26:12Z</time>
      </trkpt>
      <trkpt lat="47.7882" lon="-3.42873">
        <ele>65.99</ele>
        <time>2015-09-06T08:26:13Z</time>
      </trkpt>
      <trkpt lat="47.78823" lon="-3.42869">
        <ele>65.03</ele>
        <time>2015-09-06T08:26:14Z</time>
      </trkpt>
      <trkpt lat="47.78824" lon="-3.42866">
        <ele>64.55</ele>
        <time>2015-09-06T08:26:15Z</time>
      </trkpt>
      <trkpt lat="47.78824" lon="-3.42863">
        <ele>64.55</ele>
        <time>2015-09-06T08:26:16Z</time>
      </trkpt>
      <trkpt lat="47.78825" lon="-3.42863">
        <ele>65.51</ele>
        <time>2015-09-06T08:26:19Z</time>
      </trkpt>
      <trkpt lat="47.78826" lon="-3.42863">
        <ele>65.51</ele>
        <time>2015-09-06T08:26:20Z</time>
      </trkpt>
      <trkpt lat="47.78827" lon="-3.42863">
        <ele>64.55</ele>
        <time>2015-09-06T08:26:21Z</time>
      </trkpt>
      <trkpt lat="47.78829" lon="-3.42861">
        <ele>64.55</ele>
        <time>2015-09-06T08:26:22Z</time>
      </trkpt>
      <trkpt lat="47.78829" lon="-3.42858">
        <ele>64.07</ele>
        <time>2015-09-06T08:26:23Z</time>
      </trkpt>
      <trkpt lat="47.78829" lon="-3.42855">
        <ele>64.07</ele>
        <time>2015-09-06T08:26:24Z</time>
      </trkpt>
      <trkpt lat="47.78829" lon="-3.42852">
        <ele>63.58</ele>
        <time>2015-09-06T08:26:25Z</time>
      </trkpt>
      <trkpt lat="47.78829" lon="-3.42849">
        <ele>63.58</ele>
        <time>2015-09-06T08:26:26Z</time>
      </trkpt>
      <trkpt lat="47.78828" lon="-3.42844">
        <ele>63.1</ele>
        <time>2015-09-06T08:26:27Z</time>
      </trkpt>
      <trkpt lat="47.78827" lon="-3.4284">
        <ele>62.14</ele>
        <time>2015-09-06T08:26:28Z</time>
      </trkpt>
      <trkpt lat="47.78825" lon="-3.42835">
        <ele>62.14</ele>
        <time>2015-09-06T08:26:29Z</time>
      </trkpt>
      <trkpt lat="47.78823" lon="-3.4283">
        <ele>61.66</ele>
        <time>2015-09-06T08:26:30Z</time>
      </trkpt>
      <trkpt lat="47.78822" lon="-3.42825">
        <ele>62.14</ele>
        <time>2015-09-06T08:26:31Z</time>
      </trkpt>
      <trkpt lat="47.78822" lon="-3.42822">
        <ele>61.66</ele>
        <time>2015-09-06T08:26:32Z</time>
      </trkpt>
      <trkpt lat="47.78823" lon="-3.42818">
        <ele>61.66</ele>
        <time>2015-09-06T08:26:33Z</time>
      </trkpt>
      <trkpt lat="47.78825" lon="-3.42817">
        <ele>60.22</ele>
        <time>2015-09-06T08:26:34Z</time>
      </trkpt>
      <trkpt lat="47.78829" lon="-3.42816">
        <ele>59.74</ele>
        <time>2015-09-06T08:26:35Z</time>
      </trkpt>
      <trkpt lat="47.78833" lon="-3.42816">
        <ele>59.26</ele>
        <time>2015-09-06T08:26:36Z</time>
      </trkpt>
      <trkpt lat="47.78838" lon="-3.42816">
        <ele>58.78</ele>
        <time>2015-09-06T08:26:37Z</time>
      </trkpt>
      <trkpt lat="47.78843" lon="-3.42817">
        <ele>58.3</ele>
        <time>2015-09-06T08:26:38Z</time>
      </trkpt>
      <trkpt lat="47.78848" lon="-3.42817">
        <ele>57.34</ele>
        <time>2015-09-06T08:26:39Z</time>
      </trkpt>
      <trkpt lat="47.78855" lon="-3.42817">
        <ele>56.86</ele>
        <time>2015-09-06T08:26:40Z</time>
      </trkpt>
      <trkpt lat="47.78861" lon="-3.42818">
        <ele>55.89</ele>
        <time>2015-09-06T08:26:41Z</time>
      </trkpt>
      <trkpt lat="47.78867" lon="-3.4282">
        <ele>55.41</ele>
        <time>2015-09-06T08:26:42Z</time>
      </trkpt>
      <trkpt lat="47.78872" lon="-3.42822">
        <ele>54.93</ele>
        <time>2015-09-06T08:26:43Z</time>
      </trkpt>
      <trkpt lat="47.78874" lon="-3.42824">
        <ele>54.45</ele>
        <time>2015-09-06T08:26:44Z</time>
      </trkpt>
      <trkpt lat="47.78876" lon="-3.42825">
        <ele>54.93</ele>
        <time>2015-09-06T08:26:45Z</time>
      </trkpt>
      <trkpt lat="47.78876" lon="-3.42827">
        <ele>53.97</ele>
        <time>2015-09-06T08:26:46Z</time>
      </trkpt>
      <trkpt lat="47.78877" lon="-3.42829">
        <ele>53.97</ele>
        <time>2015-09-06T08:26:47Z</time>
      </trkpt>
      <trkpt lat="47.78876" lon="-3.42832">
        <ele>53.97</ele>
        <time>2015-09-06T08:26:48Z</time>
      </trkpt>
      <trkpt lat="47.78875" lon="-3.42835">
        <ele>53.97</ele>
        <time>2015-09-06T08:26:49Z</time>
      </trkpt>
      <trkpt lat="47.78875" lon="-3.42837">
        <ele>53.97</ele>
        <time>2015-09-06T08:26:50Z</time>
      </trkpt>
      <trkpt lat="47.78874" lon="-3.42839">
        <ele>55.41</ele>
        <time>2015-09-06T08:26:51Z</time>
      </trkpt>
      <trkpt lat="47.78874" lon="-3.42842">
        <ele>55.89</ele>
        <time>2015-09-06T08:26:52Z</time>
      </trkpt>
      <trkpt lat="47.78873" lon="-3.42844">
        <ele>55.89</ele>
        <time>2015-09-06T08:26:53Z</time>
      </trkpt>
      <trkpt lat="47.78873" lon="-3.42846">
        <ele>56.37</ele>
        <time>2015-09-06T08:26:54Z</time>
      </trkpt>
      <trkpt lat="47.78873" lon="-3.42847">
        <ele>56.37</ele>
        <time>2015-09-06T08:26:55Z</time>
      </trkpt>
      <trkpt lat="47.78872" lon="-3.42849">
        <ele>56.86</ele>
        <time>2015-09-06T08:26:56Z</time>
      </trkpt>
      <trkpt lat="47.78872" lon="-3.42851">
        <ele>56.86</ele>
        <time>2015-09-06T08:26:57Z</time>
      </trkpt>
      <trkpt lat="47.78872" lon="-3.42853">
        <ele>57.34</ele>
        <time>2015-09-06T08:26:58Z</time>
      </trkpt>
      <trkpt lat="47.78872" lon="-3.42855">
        <ele>57.34</ele>
        <time>2015-09-06T08:26:59Z</time>
      </trkpt>
      <trkpt lat="47.78872" lon="-3.42857">
        <ele>58.3</ele>
        <time>2015-09-06T08:27:00Z</time>
      </trkpt>
      <trkpt lat="47.78872" lon="-3.42859">
        <ele>58.3</ele>
        <time>2015-09-06T08:27:01Z</time>
      </trkpt>
      <trkpt lat="47.78872" lon="-3.42861">
        <ele>59.26</ele>
        <time>2015-09-06T08:27:02Z</time>
      </trkpt>
      <trkpt lat="47.78872" lon="-3.42863">
        <ele>59.26</ele>
        <time>2015-09-06T08:27:03Z</time>
      </trkpt>
      <trkpt lat="47.78872" lon="-3.42866">
        <ele>59.74</ele>
        <time>2015-09-06T08:27:04Z</time>
      </trkpt>
      <trkpt lat="47.78872" lon="-3.42867">
        <ele>59.26</ele>
        <time>2015-09-06T08:27:05Z</time>
      </trkpt>
      <trkpt lat="47.78872" lon="-3.4287">
        <ele>60.22</ele>
        <time>2015-09-06T08:27:06Z</time>
      </trkpt>
      <trkpt lat="47.78872" lon="-3.42872">
        <ele>60.22</ele>
        <time>2015-09-06T08:27:07Z</time>
      </trkpt>
      <trkpt lat="47.78872" lon="-3.42874">
        <ele>60.7</ele>
        <time>2015-09-06T08:27:08Z</time>
      </trkpt>
      <trkpt lat="47.78872" lon="-3.42875">
        <ele>60.7</ele>
        <time>2015-09-06T08:27:09Z</time>
      </trkpt>
      <trkpt lat="47.78873" lon="-3.42877">
        <ele>61.18</ele>
        <time>2015-09-06T08:27:10Z</time>
      </trkpt>
      <trkpt lat="47.78874" lon="-3.42878">
        <ele>61.18</ele>
        <time>2015-09-06T08:27:11Z</time>
      </trkpt>
      <trkpt lat="47.78876" lon="-3.42878">
        <ele>61.18</ele>
        <time>2015-09-06T08:27:12Z</time>
      </trkpt>
      <trkpt lat="47.78877" lon="-3.42877">
        <ele>61.18</ele>
        <time>2015-09-06T08:27:13Z</time>
      </trkpt>
      <trkpt lat="47.78878" lon="-3.42876">
        <ele>60.7</ele>
        <time>2015-09-06T08:27:14Z</time>
      </trkpt>
      <trkpt lat="47.7888" lon="-3.42876">
        <ele>59.26</ele>
        <time>2015-09-06T08:27:15Z</time>
      </trkpt>
      <trkpt lat="47.78883" lon="-3.42877">
        <ele>58.78</ele>
        <time>2015-09-06T08:27:16Z</time>
      </trkpt>
      <trkpt lat="47.78885" lon="-3.42878">
        <ele>58.78</ele>
        <time>2015-09-06T08:27:17Z</time>
      </trkpt>
      <trkpt lat="47.78887" lon="-3.42879">
        <ele>58.3</ele>
        <time>2015-09-06T08:27:18Z</time>
      </trkpt>
      <trkpt lat="47.78889" lon="-3.42881">
        <ele>58.3</ele>
        <time>2015-09-06T08:27:19Z</time>
      </trkpt>
      <trkpt lat="47.78891" lon="-3.42884">
        <ele>58.3</ele>
        <time>2015-09-06T08:27:20Z</time>
      </trkpt>
      <trkpt lat="47.78891" lon="-3.42886">
        <ele>58.3</ele>
        <time>2015-09-06T08:27:21Z</time>
      </trkpt>
      <trkpt lat="47.78892" lon="-3.42887">
        <ele>58.3</ele>
        <time>2015-09-06T08:27:22Z</time>
      </trkpt>
      <trkpt lat="47.78892" lon="-3.42889">
        <ele>58.3</ele>
        <time>2015-09-06T08:27:23Z</time>
      </trkpt>
      <trkpt lat="47.78892" lon="-3.42892">
        <ele>58.3</ele>
        <time>2015-09-06T08:27:24Z</time>
      </trkpt>
      <trkpt lat="47.78892" lon="-3.42894">
        <ele>59.26</ele>
        <time>2015-09-06T08:27:25Z</time>
      </trkpt>
      <trkpt lat="47.78892" lon="-3.42895">
        <ele>59.26</ele>
        <time>2015-09-06T08:27:26Z</time>
      </trkpt>
      <trkpt lat="47.78892" lon="-3.42897">
        <ele>59.74</ele>
        <time>2015-09-06T08:27:27Z</time>
      </trkpt>
      <trkpt lat="47.78893" lon="-3.42899">
        <ele>59.74</ele>
        <time>2015-09-06T08:27:28Z</time>
      </trkpt>
      <trkpt lat="47.78894" lon="-3.42901">
        <ele>59.74</ele>
        <time>2015-09-06T08:27:29Z</time>
      </trkpt>
      <trkpt lat="47.78895" lon="-3.42903">
        <ele>60.22</ele>
        <time>2015-09-06T08:27:30Z</time>
      </trkpt>
      <trkpt lat="47.78896" lon="-3.42906">
        <ele>60.22</ele>
        <time>2015-09-06T08:27:31Z</time>
      </trkpt>
      <trkpt lat="47.78898" lon="-3.42909">
        <ele>60.22</ele>
        <time>2015-09-06T08:27:32Z</time>
      </trkpt>
      <trkpt lat="47.789" lon="-3.42911">
        <ele>60.22</ele>
        <time>2015-09-06T08:27:33Z</time>
      </trkpt>
      <trkpt lat="47.78901" lon="-3.42913">
        <ele>60.22</ele>
        <time>2015-09-06T08:27:34Z</time>
      </trkpt>
      <trkpt lat="47.78902" lon="-3.42915">
        <ele>60.22</ele>
        <time>2015-09-06T08:27:35Z</time>
      </trkpt>
      <trkpt lat="47.78904" lon="-3.42917">
        <ele>60.22</ele>
        <time>2015-09-06T08:27:36Z</time>
      </trkpt>
      <trkpt lat="47.78905" lon="-3.42919">
        <ele>60.22</ele>
        <time>2015-09-06T08:27:37Z</time>
      </trkpt>
      <trkpt lat="47.78907" lon="-3.42921">
        <ele>60.22</ele>
        <time>2015-09-06T08:27:38Z</time>
      </trkpt>
      <trkpt lat="47.78908" lon="-3.42922">
        <ele>60.22</ele>
        <time>2015-09-06T08:27:39Z</time>
      </trkpt>
      <trkpt lat="47.7891" lon="-3.42924">
        <ele>60.22</ele>
        <time>2015-09-06T08:27:40Z</time>
      </trkpt>
      <trkpt lat="47.78913" lon="-3.42926">
        <ele>60.22</ele>
        <time>2015-09-06T08:27:41Z</time>
      </trkpt>
      <trkpt lat="47.78915" lon="-3.42928">
        <ele>60.22</ele>
        <time>2015-09-06T08:27:42Z</time>
      </trkpt>
      <trkpt lat="47.78918" lon="-3.42929">
        <ele>59.26</ele>
        <time>2015-09-06T08:27:43Z</time>
      </trkpt>
      <trkpt lat="47.78921" lon="-3.42931">
        <ele>58.78</ele>
        <time>2015-09-06T08:27:44Z</time>
      </trkpt>
      <trkpt lat="47.78924" lon="-3.42931">
        <ele>57.82</ele>
        <time>2015-09-06T08:27:45Z</time>
      </trkpt>
      <trkpt lat="47.78927" lon="-3.4293">
        <ele>57.34</ele>
        <time>2015-09-06T08:27:46Z</time>
      </trkpt>
      <trkpt lat="47.7893" lon="-3.42929">
        <ele>56.86</ele>
        <time>2015-09-06T08:27:47Z</time>
      </trkpt>
      <trkpt lat="47.78931" lon="-3.42928">
        <ele>56.86</ele>
        <time>2015-09-06T08:27:48Z</time>
      </trkpt>
      <trkpt lat="47.78932" lon="-3.42928">
        <ele>56.86</ele>
        <time>2015-09-06T08:27:49Z</time>
      </trkpt>
      <trkpt lat="47.78932" lon="-3.42927">
        <ele>56.37</ele>
        <time>2015-09-06T08:27:50Z</time>
      </trkpt>
      <trkpt lat="47.78933" lon="-3.42925">
        <ele>55.41</ele>
        <time>2015-09-06T08:27:51Z</time>
      </trkpt>
      <trkpt lat="47.78934" lon="-3.42923">
        <ele>54.45</ele>
        <time>2015-09-06T08:27:52Z</time>
      </trkpt>
      <trkpt lat="47.78936" lon="-3.42919">
        <ele>53.01</ele>
        <time>2015-09-06T08:27:53Z</time>
      </trkpt>
      <trkpt lat="47.78937" lon="-3.42915">
        <ele>52.05</ele>
        <time>2015-09-06T08:27:54Z</time>
      </trkpt>
      <trkpt lat="47.78937" lon="-3.42911">
        <ele>52.05</ele>
        <time>2015-09-06T08:27:55Z</time>
      </trkpt>
      <trkpt lat="47.78937" lon="-3.42908">
        <ele>52.05</ele>
        <time>2015-09-06T08:27:56Z</time>
      </trkpt>
      <trkpt lat="47.78938" lon="-3.42906">
        <ele>52.05</ele>
        <time>2015-09-06T08:27:57Z</time>
      </trkpt>
      <trkpt lat="47.78938" lon="-3.42904">
        <ele>52.05</ele>
        <time>2015-09-06T08:27:58Z</time>
      </trkpt>
      <trkpt lat="47.7894" lon="-3.42902">
        <ele>51.09</ele>
        <time>2015-09-06T08:27:59Z</time>
      </trkpt>
      <trkpt lat="47.78943" lon="-3.42903">
        <ele>50.61</ele>
        <time>2015-09-06T08:28:00Z</time>
      </trkpt>
      <trkpt lat="47.78945" lon="-3.42905">
        <ele>50.61</ele>
        <time>2015-09-06T08:28:01Z</time>
      </trkpt>
      <trkpt lat="47.78947" lon="-3.42906">
        <ele>50.13</ele>
        <time>2015-09-06T08:28:02Z</time>
      </trkpt>
      <trkpt lat="47.78951" lon="-3.42906">
        <ele>50.13</ele>
        <time>2015-09-06T08:28:03Z</time>
      </trkpt>
      <trkpt lat="47.78953" lon="-3.42905">
        <ele>50.13</ele>
        <time>2015-09-06T08:28:04Z</time>
      </trkpt>
      <trkpt lat="47.78955" lon="-3.42903">
        <ele>50.13</ele>
        <time>2015-09-06T08:28:05Z</time>
      </trkpt>
      <trkpt lat="47.78957" lon="-3.42901">
        <ele>49.65</ele>
        <time>2015-09-06T08:28:06Z</time>
      </trkpt>
      <trkpt lat="47.78961" lon="-3.42898">
        <ele>49.65</ele>
        <time>2015-09-06T08:28:07Z</time>
      </trkpt>
      <trkpt lat="47.78967" lon="-3.42895">
        <ele>49.65</ele>
        <time>2015-09-06T08:28:08Z</time>
      </trkpt>
      <trkpt lat="47.78971" lon="-3.42895">
        <ele>49.65</ele>
        <time>2015-09-06T08:28:09Z</time>
      </trkpt>
      <trkpt lat="47.78974" lon="-3.42896">
        <ele>49.65</ele>
        <time>2015-09-06T08:28:10Z</time>
      </trkpt>
      <trkpt lat="47.78978" lon="-3.42899">
        <ele>49.65</ele>
        <time>2015-09-06T08:28:11Z</time>
      </trkpt>
      <trkpt lat="47.7898" lon="-3.42902">
        <ele>49.65</ele>
        <time>2015-09-06T08:28:12Z</time>
      </trkpt>
      <trkpt lat="47.78983" lon="-3.42905">
        <ele>49.65</ele>
        <time>2015-09-06T08:28:13Z</time>
      </trkpt>
      <trkpt lat="47.78986" lon="-3.42909">
        <ele>49.65</ele>
        <time>2015-09-06T08:28:14Z</time>
      </trkpt>
      <trkpt lat="47.78989" lon="-3.42911">
        <ele>51.09</ele>
        <time>2015-09-06T08:28:15Z</time>
      </trkpt>
      <trkpt lat="47.78992" lon="-3.42914">
        <ele>51.57</ele>
        <time>2015-09-06T08:28:16Z</time>
      </trkpt>
      <trkpt lat="47.78995" lon="-3.42917">
        <ele>51.57</ele>
        <time>2015-09-06T08:28:17Z</time>
      </trkpt>
      <trkpt lat="47.78997" lon="-3.42921">
        <ele>51.57</ele>
        <time>2015-09-06T08:28:18Z</time>
      </trkpt>
      <trkpt lat="47.79" lon="-3.42924">
        <ele>52.05</ele>
        <time>2015-09-06T08:28:19Z</time>
      </trkpt>
      <trkpt lat="47.79003" lon="-3.42929">
        <ele>52.05</ele>
        <time>2015-09-06T08:28:20Z</time>
      </trkpt>
      <trkpt lat="47.79007" lon="-3.42932">
        <ele>52.05</ele>
        <time>2015-09-06T08:28:21Z</time>
      </trkpt>
      <trkpt lat="47.79011" lon="-3.42935">
        <ele>52.05</ele>
        <time>2015-09-06T08:28:22Z</time>
      </trkpt>
      <trkpt lat="47.79016" lon="-3.42937">
        <ele>52.05</ele>
        <time>2015-09-06T08:28:23Z</time>
      </trkpt>
      <trkpt lat="47.79021" lon="-3.42938">
        <ele>52.05</ele>
        <time>2015-09-06T08:28:24Z</time>
      </trkpt>
      <trkpt lat="47.79028" lon="-3.42938">
        <ele>50.13</ele>
        <time>2015-09-06T08:28:25Z</time>
      </trkpt>
      <trkpt lat="47.79034" lon="-3.42939">
        <ele>49.65</ele>
        <time>2015-09-06T08:28:26Z</time>
      </trkpt>
      <trkpt lat="47.7904" lon="-3.42938">
        <ele>49.65</ele>
        <time>2015-09-06T08:28:27Z</time>
      </trkpt>
      <trkpt lat="47.79047" lon="-3.42938">
        <ele>49.65</ele>
        <time>2015-09-06T08:28:28Z</time>
      </trkpt>
      <trkpt lat="47.79052" lon="-3.42937">
        <ele>49.65</ele>
        <time>2015-09-06T08:28:29Z</time>
      </trkpt>
      <trkpt lat="47.79058" lon="-3.42935">
        <ele>49.65</ele>
        <time>2015-09-06T08:28:30Z</time>
      </trkpt>
      <trkpt lat="47.79064" lon="-3.42934">
        <ele>49.65</ele>
        <time>2015-09-06T08:28:31Z</time>
      </trkpt>
      <trkpt lat="47.7907" lon="-3.42934">
        <ele>49.65</ele>
        <time>2015-09-06T08:28:32Z</time>
      </trkpt>
      <trkpt lat="47.79075" lon="-3.42933">
        <ele>51.09</ele>
        <time>2015-09-06T08:28:33Z</time>
      </trkpt>
      <trkpt lat="47.7908" lon="-3.42932">
        <ele>51.09</ele>
        <time>2015-09-06T08:28:34Z</time>
      </trkpt>
      <trkpt lat="47.79085" lon="-3.42932">
        <ele>51.57</ele>
        <time>2015-09-06T08:28:35Z</time>
      </trkpt>
      <trkpt lat="47.7909" lon="-3.42931">
        <ele>51.57</ele>
        <time>2015-09-06T08:28:36Z</time>
      </trkpt>
      <trkpt lat="47.79095" lon="-3.42931">
        <ele>52.05</ele>
        <time>2015-09-06T08:28:37Z</time>
      </trkpt>
      <trkpt lat="47.79099" lon="-3.42931">
        <ele>52.53</ele>
        <time>2015-09-06T08:28:38Z</time>
      </trkpt>
      <trkpt lat="47.79103" lon="-3.4293">
        <ele>52.53</ele>
        <time>2015-09-06T08:28:39Z</time>
      </trkpt>
      <trkpt lat="47.79108" lon="-3.4293">
        <ele>53.01</ele>
        <time>2015-09-06T08:28:40Z</time>
      </trkpt>
      <trkpt lat="47.79113" lon="-3.4293">
        <ele>53.01</ele>
        <time>2015-09-06T08:28:41Z</time>
      </trkpt>
      <trkpt lat="47.79118" lon="-3.4293">
        <ele>53.01</ele>
        <time>2015-09-06T08:28:42Z</time>
      </trkpt>
      <trkpt lat="47.79123" lon="-3.4293">
        <ele>53.01</ele>
        <time>2015-09-06T08:28:43Z</time>
      </trkpt>
      <trkpt lat="47.79128" lon="-3.4293">
        <ele>53.01</ele>
        <time>2015-09-06T08:28:44Z</time>
      </trkpt>
      <trkpt lat="47.79133" lon="-3.4293">
        <ele>53.49</ele>
        <time>2015-09-06T08:28:45Z</time>
      </trkpt>
      <trkpt lat="47.79138" lon="-3.42931">
        <ele>53.49</ele>
        <time>2015-09-06T08:28:46Z</time>
      </trkpt>
      <trkpt lat="47.79143" lon="-3.42932">
        <ele>53.49</ele>
        <time>2015-09-06T08:28:47Z</time>
      </trkpt>
      <trkpt lat="47.79148" lon="-3.42933">
        <ele>53.49</ele>
        <time>2015-09-06T08:28:48Z</time>
      </trkpt>
      <trkpt lat="47.79153" lon="-3.42934">
        <ele>53.97</ele>
        <time>2015-09-06T08:28:49Z</time>
      </trkpt>
      <trkpt lat="47.79158" lon="-3.42936">
        <ele>53.97</ele>
        <time>2015-09-06T08:28:50Z</time>
      </trkpt>
      <trkpt lat="47.79163" lon="-3.42938">
        <ele>53.97</ele>
        <time>2015-09-06T08:28:51Z</time>
      </trkpt>
      <trkpt lat="47.79168" lon="-3.4294">
        <ele>53.97</ele>
        <time>2015-09-06T08:28:52Z</time>
      </trkpt>
      <trkpt lat="47.79174" lon="-3.42941">
        <ele>53.97</ele>
        <time>2015-09-06T08:28:53Z</time>
      </trkpt>
      <trkpt lat="47.79179" lon="-3.42943">
        <ele>53.97</ele>
        <time>2015-09-06T08:28:54Z</time>
      </trkpt>
      <trkpt lat="47.79184" lon="-3.42945">
        <ele>53.97</ele>
        <time>2015-09-06T08:28:55Z</time>
      </trkpt>
      <trkpt lat="47.79189" lon="-3.42947">
        <ele>53.97</ele>
        <time>2015-09-06T08:28:56Z</time>
      </trkpt>
      <trkpt lat="47.79194" lon="-3.42949">
        <ele>54.45</ele>
        <time>2015-09-06T08:28:57Z</time>
      </trkpt>
      <trkpt lat="47.792" lon="-3.42951">
        <ele>54.45</ele>
        <time>2015-09-06T08:28:58Z</time>
      </trkpt>
      <trkpt lat="47.79205" lon="-3.42952">
        <ele>54.45</ele>
        <time>2015-09-06T08:28:59Z</time>
      </trkpt>
      <trkpt lat="47.7921" lon="-3.42954">
        <ele>54.93</ele>
        <time>2015-09-06T08:29:00Z</time>
      </trkpt>
      <trkpt lat="47.79215" lon="-3.42955">
        <ele>54.93</ele>
        <time>2015-09-06T08:29:01Z</time>
      </trkpt>
      <trkpt lat="47.7922" lon="-3.42956">
        <ele>54.93</ele>
        <time>2015-09-06T08:29:02Z</time>
      </trkpt>
      <trkpt lat="47.79224" lon="-3.42957">
        <ele>54.93</ele>
        <time>2015-09-06T08:29:03Z</time>
      </trkpt>
      <trkpt lat="47.79229" lon="-3.42957">
        <ele>55.41</ele>
        <time>2015-09-06T08:29:04Z</time>
      </trkpt>
      <trkpt lat="47.79234" lon="-3.42957">
        <ele>55.41</ele>
        <time>2015-09-06T08:29:05Z</time>
      </trkpt>
      <trkpt lat="47.79239" lon="-3.42957">
        <ele>55.41</ele>
        <time>2015-09-06T08:29:06Z</time>
      </trkpt>
      <trkpt lat="47.79245" lon="-3.42957">
        <ele>55.41</ele>
        <time>2015-09-06T08:29:07Z</time>
      </trkpt>
      <trkpt lat="47.7925" lon="-3.42956">
        <ele>55.41</ele>
        <time>2015-09-06T08:29:08Z</time>
      </trkpt>
      <trkpt lat="47.79255" lon="-3.42955">
        <ele>55.41</ele>
        <time>2015-09-06T08:29:09Z</time>
      </trkpt>
      <trkpt lat="47.7926" lon="-3.42952">
        <ele>55.41</ele>
        <time>2015-09-06T08:29:10Z</time>
      </trkpt>
      <trkpt lat="47.79265" lon="-3.42949">
        <ele>55.41</ele>
        <time>2015-09-06T08:29:11Z</time>
      </trkpt>
      <trkpt lat="47.7927" lon="-3.42945">
        <ele>55.41</ele>
        <time>2015-09-06T08:29:12Z</time>
      </trkpt>
      <trkpt lat="47.79274" lon="-3.42941">
        <ele>55.41</ele>
        <time>2015-09-06T08:29:13Z</time>
      </trkpt>
      <trkpt lat="47.79279" lon="-3.42937">
        <ele>55.41</ele>
        <time>2015-09-06T08:29:14Z</time>
      </trkpt>
      <trkpt lat="47.79284" lon="-3.42933">
        <ele>55.41</ele>
        <time>2015-09-06T08:29:15Z</time>
      </trkpt>
      <trkpt lat="47.79289" lon="-3.42928">
        <ele>53.97</ele>
        <time>2015-09-06T08:29:16Z</time>
      </trkpt>
      <trkpt lat="47.79294" lon="-3.42924">
        <ele>53.97</ele>
        <time>2015-09-06T08:29:17Z</time>
      </trkpt>
      <trkpt lat="47.793" lon="-3.42919">
        <ele>53.97</ele>
        <time>2015-09-06T08:29:18Z</time>
      </trkpt>
      <trkpt lat="47.79305" lon="-3.42915">
        <ele>53.49</ele>
        <time>2015-09-06T08:29:19Z</time>
      </trkpt>
      <trkpt lat="47.7931" lon="-3.4291">
        <ele>53.49</ele>
        <time>2015-09-06T08:29:20Z</time>
      </trkpt>
      <trkpt lat="47.79316" lon="-3.42906">
        <ele>53.01</ele>
        <time>2015-09-06T08:29:21Z</time>
      </trkpt>
      <trkpt lat="47.79321" lon="-3.42901">
        <ele>53.01</ele>
        <time>2015-09-06T08:29:22Z</time>
      </trkpt>
      <trkpt lat="47.79326" lon="-3.42897">
        <ele>53.01</ele>
        <time>2015-09-06T08:29:23Z</time>
      </trkpt>
      <trkpt lat="47.7933" lon="-3.42892">
        <ele>53.01</ele>
        <time>2015-09-06T08:29:24Z</time>
      </trkpt>
      <trkpt lat="47.79333" lon="-3.42887">
        <ele>52.53</ele>
        <time>2015-09-06T08:29:25Z</time>
      </trkpt>
      <trkpt lat="47.79334" lon="-3.4288">
        <ele>52.53</ele>
        <time>2015-09-06T08:29:26Z</time>
      </trkpt>
      <trkpt lat="47.79334" lon="-3.42873">
        <ele>52.53</ele>
        <time>2015-09-06T08:29:27Z</time>
      </trkpt>
      <trkpt lat="47.79333" lon="-3.42866">
        <ele>52.05</ele>
        <time>2015-09-06T08:29:28Z</time>
      </trkpt>
      <trkpt lat="47.79331" lon="-3.42858">
        <ele>52.05</ele>
        <time>2015-09-06T08:29:29Z</time>
      </trkpt>
      <trkpt lat="47.79329" lon="-3.42851">
        <ele>51.57</ele>
        <time>2015-09-06T08:29:30Z</time>
      </trkpt>
      <trkpt lat="47.79325" lon="-3.42844">
        <ele>51.09</ele>
        <time>2015-09-06T08:29:31Z</time>
      </trkpt>
      <trkpt lat="47.79322" lon="-3.42837">
        <ele>51.09</ele>
        <time>2015-09-06T08:29:32Z</time>
      </trkpt>
      <trkpt lat="47.79318" lon="-3.4283">
        <ele>50.61</ele>
        <time>2015-09-06T08:29:33Z</time>
      </trkpt>
      <trkpt lat="47.79313" lon="-3.42822">
        <ele>50.61</ele>
        <time>2015-09-06T08:29:34Z</time>
      </trkpt>
      <trkpt lat="47.79309" lon="-3.42815">
        <ele>50.61</ele>
        <time>2015-09-06T08:29:35Z</time>
      </trkpt>
      <trkpt lat="47.79304" lon="-3.42807">
        <ele>50.13</ele>
        <time>2015-09-06T08:29:36Z</time>
      </trkpt>
      <trkpt lat="47.79299" lon="-3.42799">
        <ele>50.13</ele>
        <time>2015-09-06T08:29:37Z</time>
      </trkpt>
      <trkpt lat="47.79295" lon="-3.42793">
        <ele>50.13</ele>
        <time>2015-09-06T08:29:38Z</time>
      </trkpt>
      <trkpt lat="47.79291" lon="-3.42786">
        <ele>50.13</ele>
        <time>2015-09-06T08:29:39Z</time>
      </trkpt>
      <trkpt lat="47.79286" lon="-3.42778">
        <ele>50.13</ele>
        <time>2015-09-06T08:29:40Z</time>
      </trkpt>
      <trkpt lat="47.79282" lon="-3.42771">
        <ele>49.65</ele>
        <time>2015-09-06T08:29:41Z</time>
      </trkpt>
      <trkpt lat="47.79278" lon="-3.42764">
        <ele>49.65</ele>
        <time>2015-09-06T08:29:42Z</time>
      </trkpt>
      <trkpt lat="47.79274" lon="-3.42757">
        <ele>49.65</ele>
        <time>2015-09-06T08:29:43Z</time>
      </trkpt>
      <trkpt lat="47.7927" lon="-3.4275">
        <ele>49.65</ele>
        <time>2015-09-06T08:29:44Z</time>
      </trkpt>
      <trkpt lat="47.79266" lon="-3.42743">
        <ele>49.65</ele>
        <time>2015-09-06T08:29:45Z</time>
      </trkpt>
      <trkpt lat="47.79261" lon="-3.42736">
        <ele>49.65</ele>
        <time>2015-09-06T08:29:46Z</time>
      </trkpt>
      <trkpt lat="47.79257" lon="-3.4273">
        <ele>49.65</ele>
        <time>2015-09-06T08:29:47Z</time>
      </trkpt>
      <trkpt lat="47.79253" lon="-3.42723">
        <ele>49.65</ele>
        <time>2015-09-06T08:29:48Z</time>
      </trkpt>
      <trkpt lat="47.79248" lon="-3.42716">
        <ele>49.65</ele>
        <time>2015-09-06T08:29:49Z</time>
      </trkpt>
      <trkpt lat="47.79243" lon="-3.4271">
        <ele>49.65</ele>
        <time>2015-09-06T08:29:50Z</time>
      </trkpt>
      <trkpt lat="47.79238" lon="-3.42703">
        <ele>49.65</ele>
        <time>2015-09-06T08:29:51Z</time>
      </trkpt>
      <trkpt lat="47.79233" lon="-3.42696">
        <ele>49.16</ele>
        <time>2015-09-06T08:29:52Z</time>
      </trkpt>
      <trkpt lat="47.79228" lon="-3.4269">
        <ele>49.16</ele>
        <time>2015-09-06T08:29:53Z</time>
      </trkpt>
      <trkpt lat="47.79223" lon="-3.42683">
        <ele>49.16</ele>
        <time>2015-09-06T08:29:54Z</time>
      </trkpt>
      <trkpt lat="47.79218" lon="-3.42677">
        <ele>49.16</ele>
        <time>2015-09-06T08:29:55Z</time>
      </trkpt>
      <trkpt lat="47.79212" lon="-3.42671">
        <ele>48.68</ele>
        <time>2015-09-06T08:29:56Z</time>
      </trkpt>
      <trkpt lat="47.79206" lon="-3.42666">
        <ele>48.2</ele>
        <time>2015-09-06T08:29:57Z</time>
      </trkpt>
      <trkpt lat="47.792" lon="-3.4266">
        <ele>47.72</ele>
        <time>2015-09-06T08:29:58Z</time>
      </trkpt>
      <trkpt lat="47.79194" lon="-3.42655">
        <ele>47.72</ele>
        <time>2015-09-06T08:29:59Z</time>
      </trkpt>
      <trkpt lat="47.79188" lon="-3.4265">
        <ele>47.24</ele>
        <time>2015-09-06T08:30:00Z</time>
      </trkpt>
      <trkpt lat="47.79182" lon="-3.42644">
        <ele>47.24</ele>
        <time>2015-09-06T08:30:01Z</time>
      </trkpt>
      <trkpt lat="47.79178" lon="-3.42639">
        <ele>47.24</ele>
        <time>2015-09-06T08:30:02Z</time>
      </trkpt>
      <trkpt lat="47.79174" lon="-3.42632">
        <ele>47.24</ele>
        <time>2015-09-06T08:30:03Z</time>
      </trkpt>
      <trkpt lat="47.7917" lon="-3.42625">
        <ele>46.28</ele>
        <time>2015-09-06T08:30:04Z</time>
      </trkpt>
      <trkpt lat="47.79165" lon="-3.4262">
        <ele>46.28</ele>
        <time>2015-09-06T08:30:05Z</time>
      </trkpt>
      <trkpt lat="47.7916" lon="-3.42617">
        <ele>46.28</ele>
        <time>2015-09-06T08:30:06Z</time>
      </trkpt>
      <trkpt lat="47.79154" lon="-3.42615">
        <ele>46.28</ele>
        <time>2015-09-06T08:30:07Z</time>
      </trkpt>
      <trkpt lat="47.79149" lon="-3.42612">
        <ele>46.28</ele>
        <time>2015-09-06T08:30:08Z</time>
      </trkpt>
      <trkpt lat="47.79144" lon="-3.42608">
        <ele>46.28</ele>
        <time>2015-09-06T08:30:09Z</time>
      </trkpt>
      <trkpt lat="47.79141" lon="-3.426">
        <ele>46.28</ele>
        <time>2015-09-06T08:30:10Z</time>
      </trkpt>
      <trkpt lat="47.79141" lon="-3.42593">
        <ele>46.28</ele>
        <time>2015-09-06T08:30:11Z</time>
      </trkpt>
      <trkpt lat="47.7914" lon="-3.42585">
        <ele>46.28</ele>
        <time>2015-09-06T08:30:12Z</time>
      </trkpt>
      <trkpt lat="47.79139" lon="-3.42579">
        <ele>46.28</ele>
        <time>2015-09-06T08:30:13Z</time>
      </trkpt>
      <trkpt lat="47.79137" lon="-3.42572">
        <ele>46.76</ele>
        <time>2015-09-06T08:30:14Z</time>
      </trkpt>
      <trkpt lat="47.79135" lon="-3.42566">
        <ele>46.76</ele>
        <time>2015-09-06T08:30:15Z</time>
      </trkpt>
      <trkpt lat="47.79132" lon="-3.42559">
        <ele>46.76</ele>
        <time>2015-09-06T08:30:16Z</time>
      </trkpt>
      <trkpt lat="47.79129" lon="-3.42552">
        <ele>47.72</ele>
        <time>2015-09-06T08:30:17Z</time>
      </trkpt>
      <trkpt lat="47.79127" lon="-3.42546">
        <ele>47.72</ele>
        <time>2015-09-06T08:30:18Z</time>
      </trkpt>
      <trkpt lat="47.79124" lon="-3.4254">
        <ele>48.2</ele>
        <time>2015-09-06T08:30:19Z</time>
      </trkpt>
      <trkpt lat="47.79121" lon="-3.42534">
        <ele>48.2</ele>
        <time>2015-09-06T08:30:20Z</time>
      </trkpt>
      <trkpt lat="47.79118" lon="-3.42527">
        <ele>48.68</ele>
        <time>2015-09-06T08:30:21Z</time>
      </trkpt>
      <trkpt lat="47.79115" lon="-3.4252">
        <ele>49.16</ele>
        <time>2015-09-06T08:30:22Z</time>
      </trkpt>
      <trkpt lat="47.79113" lon="-3.42515">
        <ele>49.16</ele>
        <time>2015-09-06T08:30:23Z</time>
      </trkpt>
      <trkpt lat="47.7911" lon="-3.42509">
        <ele>49.16</ele>
        <time>2015-09-06T08:30:24Z</time>
      </trkpt>
      <trkpt lat="47.79108" lon="-3.42503">
        <ele>50.13</ele>
        <time>2015-09-06T08:30:25Z</time>
      </trkpt>
      <trkpt lat="47.79105" lon="-3.42497">
        <ele>50.13</ele>
        <time>2015-09-06T08:30:26Z</time>
      </trkpt>
      <trkpt lat="47.79103" lon="-3.42492">
        <ele>50.61</ele>
        <time>2015-09-06T08:30:27Z</time>
      </trkpt>
      <trkpt lat="47.791" lon="-3.42485">
        <ele>50.61</ele>
        <time>2015-09-06T08:30:28Z</time>
      </trkpt>
      <trkpt lat="47.79098" lon="-3.42479">
        <ele>50.61</ele>
        <time>2015-09-06T08:30:29Z</time>
      </trkpt>
      <trkpt lat="47.79095" lon="-3.42473">
        <ele>51.09</ele>
        <time>2015-09-06T08:30:30Z</time>
      </trkpt>
      <trkpt lat="47.79092" lon="-3.42467">
        <ele>51.09</ele>
        <time>2015-09-06T08:30:31Z</time>
      </trkpt>
      <trkpt lat="47.79089" lon="-3.4246">
        <ele>51.09</ele>
        <time>2015-09-06T08:30:32Z</time>
      </trkpt>
      <trkpt lat="47.79087" lon="-3.42454">
        <ele>51.57</ele>
        <time>2015-09-06T08:30:33Z</time>
      </trkpt>
      <trkpt lat="47.79084" lon="-3.42448">
        <ele>51.57</ele>
        <time>2015-09-06T08:30:34Z</time>
      </trkpt>
      <trkpt lat="47.79081" lon="-3.42442">
        <ele>51.57</ele>
        <time>2015-09-06T08:30:35Z</time>
      </trkpt>
      <trkpt lat="47.79078" lon="-3.42435">
        <ele>52.05</ele>
        <time>2015-09-06T08:30:36Z</time>
      </trkpt>
      <trkpt lat="47.79075" lon="-3.42429">
        <ele>52.05</ele>
        <time>2015-09-06T08:30:37Z</time>
      </trkpt>
      <trkpt lat="47.79072" lon="-3.42422">
        <ele>52.05</ele>
        <time>2015-09-06T08:30:38Z</time>
      </trkpt>
      <trkpt lat="47.79069" lon="-3.42416">
        <ele>52.53</ele>
        <time>2015-09-06T08:30:39Z</time>
      </trkpt>
      <trkpt lat="47.79067" lon="-3.42409">
        <ele>52.53</ele>
        <time>2015-09-06T08:30:40Z</time>
      </trkpt>
      <trkpt lat="47.79064" lon="-3.42403">
        <ele>52.53</ele>
        <time>2015-09-06T08:30:41Z</time>
      </trkpt>
      <trkpt lat="47.79061" lon="-3.42396">
        <ele>52.53</ele>
        <time>2015-09-06T08:30:42Z</time>
      </trkpt>
      <trkpt lat="47.79058" lon="-3.4239">
        <ele>52.53</ele>
        <time>2015-09-06T08:30:43Z</time>
      </trkpt>
      <trkpt lat="47.79056" lon="-3.42383">
        <ele>53.01</ele>
        <time>2015-09-06T08:30:44Z</time>
      </trkpt>
      <trkpt lat="47.79056" lon="-3.42378">
        <ele>53.01</ele>
        <time>2015-09-06T08:30:45Z</time>
      </trkpt>
      <trkpt lat="47.79058" lon="-3.42372">
        <ele>53.01</ele>
        <time>2015-09-06T08:30:46Z</time>
      </trkpt>
      <trkpt lat="47.7906" lon="-3.4237">
        <ele>53.01</ele>
        <time>2015-09-06T08:30:47Z</time>
      </trkpt>
      <trkpt lat="47.7906" lon="-3.42369">
        <ele>53.01</ele>
        <time>2015-09-06T08:30:48Z</time>
      </trkpt>
      <trkpt lat="47.7906" lon="-3.42369">
        <ele>53.01</ele>
        <time>2015-09-06T08:30:49Z</time>
      </trkpt>
      <trkpt lat="47.7906" lon="-3.42369">
        <ele>53.01</ele>
        <time>2015-09-06T08:30:50Z</time>
      </trkpt>
      <trkpt lat="47.7906" lon="-3.42368">
        <ele>53.01</ele>
        <time>2015-09-06T08:30:52Z</time>
      </trkpt>
      <trkpt lat="47.7906" lon="-3.42368">
        <ele>53.01</ele>
        <time>2015-09-06T08:30:53Z</time>
      </trkpt>
      <trkpt lat="47.79061" lon="-3.42368">
        <ele>53.01</ele>
        <time>2015-09-06T08:30:54Z</time>
      </trkpt>
      <trkpt lat="47.7906" lon="-3.42368">
        <ele>53.01</ele>
        <time>2015-09-06T08:30:55Z</time>
      </trkpt>
      <trkpt lat="47.7906" lon="-3.42368">
        <ele>53.01</ele>
        <time>2015-09-06T08:30:56Z</time>
      </trkpt>
      <trkpt lat="47.7906" lon="-3.42368">
        <ele>53.01</ele>
        <time>2015-09-06T08:30:58Z</time>
      </trkpt>
      <trkpt lat="47.7906" lon="-3.42368">
        <ele>53.01</ele>
        <time>2015-09-06T08:30:59Z</time>
      </trkpt>
    </trkseg>
  </trk>
</gpx>